<?xml version="1.0" encoding="UTF-8" standalone="no" ?>
<gpx xmlns="http://www.topografix.com/GPX/1/1" xmlns:xsi="http://www.w3.org/2001/XMLSchema-instance" xsi:schemaLocation="http://www.topografix.com/GPX/1/1 http://www.topografix.com/GPX/1/1/gpx.xsd" version="1.1" creator="VisuGPX - https://www.visugpx.com">
  <metadata>
    <name>Sortie Vélo Avec Pascal the Boss et Joffrey Col des Fleuries Groisy</name>
    <desc><![CDATA[Super Parcours]]></desc>
  </metadata>
  <trk>
    <name><![CDATA[Sortie Vélo Avec Pascal the Boss et Joffrey.]]></name>
    <trkseg>
      <trkpt lat="46.19142" lon="6.25056">
        <ele>456.8</ele>
        <time>2021-03-27T11:32:23Z</time>
      </trkpt>
      <trkpt lat="46.19142" lon="6.25056">
        <ele>456.8</ele>
        <time>2021-03-27T11:32:24Z</time>
      </trkpt>
      <trkpt lat="46.19142" lon="6.25056">
        <ele>456.8</ele>
        <time>2021-03-27T11:32:25Z</time>
      </trkpt>
      <trkpt lat="46.19142" lon="6.25056">
        <ele>456.8</ele>
        <time>2021-03-27T11:32:26Z</time>
      </trkpt>
      <trkpt lat="46.19142" lon="6.25056">
        <ele>456.8</ele>
        <time>2021-03-27T11:32:27Z</time>
      </trkpt>
      <trkpt lat="46.19142" lon="6.25056">
        <ele>456.8</ele>
        <time>2021-03-27T11:32:29Z</time>
      </trkpt>
      <trkpt lat="46.19142" lon="6.25056">
        <ele>456.8</ele>
        <time>2021-03-27T11:32:30Z</time>
      </trkpt>
      <trkpt lat="46.19142" lon="6.25056">
        <ele>457</ele>
        <time>2021-03-27T11:32:31Z</time>
      </trkpt>
      <trkpt lat="46.19141" lon="6.25056">
        <ele>457</ele>
        <time>2021-03-27T11:32:33Z</time>
      </trkpt>
      <trkpt lat="46.19141" lon="6.25056">
        <ele>457.2</ele>
        <time>2021-03-27T11:32:34Z</time>
      </trkpt>
      <trkpt lat="46.19141" lon="6.25056">
        <ele>457.2</ele>
        <time>2021-03-27T11:32:35Z</time>
      </trkpt>
      <trkpt lat="46.19141" lon="6.25056">
        <ele>457.2</ele>
        <time>2021-03-27T11:32:36Z</time>
      </trkpt>
      <trkpt lat="46.19141" lon="6.25057">
        <ele>457.2</ele>
        <time>2021-03-27T11:32:37Z</time>
      </trkpt>
      <trkpt lat="46.19141" lon="6.25057">
        <ele>457.4</ele>
        <time>2021-03-27T11:32:38Z</time>
      </trkpt>
      <trkpt lat="46.19141" lon="6.25057">
        <ele>457.2</ele>
        <time>2021-03-27T11:32:39Z</time>
      </trkpt>
      <trkpt lat="46.19141" lon="6.25057">
        <ele>457.2</ele>
        <time>2021-03-27T11:32:40Z</time>
      </trkpt>
      <trkpt lat="46.19141" lon="6.25057">
        <ele>457.4</ele>
        <time>2021-03-27T11:32:41Z</time>
      </trkpt>
      <trkpt lat="46.19141" lon="6.25057">
        <ele>457.2</ele>
        <time>2021-03-27T11:32:42Z</time>
      </trkpt>
      <trkpt lat="46.19141" lon="6.25057">
        <ele>457.2</ele>
        <time>2021-03-27T11:32:43Z</time>
      </trkpt>
      <trkpt lat="46.19141" lon="6.25057">
        <ele>457.4</ele>
        <time>2021-03-27T11:32:44Z</time>
      </trkpt>
      <trkpt lat="46.19141" lon="6.25057">
        <ele>457.2</ele>
        <time>2021-03-27T11:32:45Z</time>
      </trkpt>
      <trkpt lat="46.19141" lon="6.25057">
        <ele>457.4</ele>
        <time>2021-03-27T11:32:46Z</time>
      </trkpt>
      <trkpt lat="46.19141" lon="6.25057">
        <ele>457.2</ele>
        <time>2021-03-27T11:32:47Z</time>
      </trkpt>
      <trkpt lat="46.19141" lon="6.25057">
        <ele>457.2</ele>
        <time>2021-03-27T11:32:48Z</time>
      </trkpt>
      <trkpt lat="46.19141" lon="6.25057">
        <ele>457.4</ele>
        <time>2021-03-27T11:32:49Z</time>
      </trkpt>
      <trkpt lat="46.19141" lon="6.25057">
        <ele>457.4</ele>
        <time>2021-03-27T11:32:50Z</time>
      </trkpt>
      <trkpt lat="46.19141" lon="6.25057">
        <ele>457.2</ele>
        <time>2021-03-27T11:32:51Z</time>
      </trkpt>
      <trkpt lat="46.19141" lon="6.25057">
        <ele>457.2</ele>
        <time>2021-03-27T11:32:52Z</time>
      </trkpt>
      <trkpt lat="46.19141" lon="6.25057">
        <ele>457.2</ele>
        <time>2021-03-27T11:32:53Z</time>
      </trkpt>
      <trkpt lat="46.19141" lon="6.25057">
        <ele>457.2</ele>
        <time>2021-03-27T11:32:54Z</time>
      </trkpt>
      <trkpt lat="46.19141" lon="6.25057">
        <ele>457.2</ele>
        <time>2021-03-27T11:32:55Z</time>
      </trkpt>
      <trkpt lat="46.19141" lon="6.25057">
        <ele>457.2</ele>
        <time>2021-03-27T11:32:56Z</time>
      </trkpt>
      <trkpt lat="46.19141" lon="6.25057">
        <ele>457</ele>
        <time>2021-03-27T11:32:57Z</time>
      </trkpt>
      <trkpt lat="46.19141" lon="6.25057">
        <ele>457</ele>
        <time>2021-03-27T11:32:58Z</time>
      </trkpt>
      <trkpt lat="46.19141" lon="6.25057">
        <ele>457.2</ele>
        <time>2021-03-27T11:32:59Z</time>
      </trkpt>
      <trkpt lat="46.19141" lon="6.25057">
        <ele>457.2</ele>
        <time>2021-03-27T11:33:00Z</time>
      </trkpt>
      <trkpt lat="46.19141" lon="6.25057">
        <ele>457</ele>
        <time>2021-03-27T11:33:01Z</time>
      </trkpt>
      <trkpt lat="46.19141" lon="6.25057">
        <ele>457.2</ele>
        <time>2021-03-27T11:33:02Z</time>
      </trkpt>
      <trkpt lat="46.1914" lon="6.25057">
        <ele>457</ele>
        <time>2021-03-27T11:33:03Z</time>
      </trkpt>
      <trkpt lat="46.1914" lon="6.25057">
        <ele>457</ele>
        <time>2021-03-27T11:33:04Z</time>
      </trkpt>
      <trkpt lat="46.1914" lon="6.25057">
        <ele>457</ele>
        <time>2021-03-27T11:33:05Z</time>
      </trkpt>
      <trkpt lat="46.1914" lon="6.25057">
        <ele>457.2</ele>
        <time>2021-03-27T11:33:06Z</time>
      </trkpt>
      <trkpt lat="46.1914" lon="6.25057">
        <ele>457</ele>
        <time>2021-03-27T11:33:07Z</time>
      </trkpt>
      <trkpt lat="46.1914" lon="6.25057">
        <ele>457</ele>
        <time>2021-03-27T11:33:08Z</time>
      </trkpt>
      <trkpt lat="46.1914" lon="6.25057">
        <ele>457</ele>
        <time>2021-03-27T11:33:09Z</time>
      </trkpt>
      <trkpt lat="46.1914" lon="6.25057">
        <ele>457</ele>
        <time>2021-03-27T11:33:10Z</time>
      </trkpt>
      <trkpt lat="46.1914" lon="6.25057">
        <ele>457</ele>
        <time>2021-03-27T11:33:11Z</time>
      </trkpt>
      <trkpt lat="46.1914" lon="6.25057">
        <ele>457.2</ele>
        <time>2021-03-27T11:33:12Z</time>
      </trkpt>
      <trkpt lat="46.1914" lon="6.25057">
        <ele>457.2</ele>
        <time>2021-03-27T11:33:13Z</time>
      </trkpt>
      <trkpt lat="46.1914" lon="6.25057">
        <ele>457.2</ele>
        <time>2021-03-27T11:33:14Z</time>
      </trkpt>
      <trkpt lat="46.1914" lon="6.25057">
        <ele>457.2</ele>
        <time>2021-03-27T11:33:15Z</time>
      </trkpt>
      <trkpt lat="46.1914" lon="6.25057">
        <ele>457.2</ele>
        <time>2021-03-27T11:33:16Z</time>
      </trkpt>
      <trkpt lat="46.1914" lon="6.25057">
        <ele>457.2</ele>
        <time>2021-03-27T11:33:17Z</time>
      </trkpt>
      <trkpt lat="46.1914" lon="6.25057">
        <ele>457.2</ele>
        <time>2021-03-27T11:33:18Z</time>
      </trkpt>
      <trkpt lat="46.1914" lon="6.25057">
        <ele>457.2</ele>
        <time>2021-03-27T11:33:19Z</time>
      </trkpt>
      <trkpt lat="46.1914" lon="6.25057">
        <ele>457.2</ele>
        <time>2021-03-27T11:33:20Z</time>
      </trkpt>
      <trkpt lat="46.1914" lon="6.25057">
        <ele>457.2</ele>
        <time>2021-03-27T11:33:21Z</time>
      </trkpt>
      <trkpt lat="46.1914" lon="6.25057">
        <ele>457.2</ele>
        <time>2021-03-27T11:33:22Z</time>
      </trkpt>
      <trkpt lat="46.1914" lon="6.25057">
        <ele>457.4</ele>
        <time>2021-03-27T11:33:23Z</time>
      </trkpt>
      <trkpt lat="46.1914" lon="6.25057">
        <ele>457.2</ele>
        <time>2021-03-27T11:33:24Z</time>
      </trkpt>
      <trkpt lat="46.1914" lon="6.25057">
        <ele>457.2</ele>
        <time>2021-03-27T11:33:25Z</time>
      </trkpt>
      <trkpt lat="46.1914" lon="6.25057">
        <ele>457.2</ele>
        <time>2021-03-27T11:33:26Z</time>
      </trkpt>
      <trkpt lat="46.1914" lon="6.25057">
        <ele>457.4</ele>
        <time>2021-03-27T11:33:27Z</time>
      </trkpt>
      <trkpt lat="46.1914" lon="6.25057">
        <ele>457.4</ele>
        <time>2021-03-27T11:33:28Z</time>
      </trkpt>
      <trkpt lat="46.1914" lon="6.25057">
        <ele>457.4</ele>
        <time>2021-03-27T11:33:29Z</time>
      </trkpt>
      <trkpt lat="46.1914" lon="6.25057">
        <ele>457.4</ele>
        <time>2021-03-27T11:33:30Z</time>
      </trkpt>
      <trkpt lat="46.1914" lon="6.25057">
        <ele>457.6</ele>
        <time>2021-03-27T11:33:31Z</time>
      </trkpt>
      <trkpt lat="46.1914" lon="6.25057">
        <ele>457.6</ele>
        <time>2021-03-27T11:33:32Z</time>
      </trkpt>
      <trkpt lat="46.19139" lon="6.25057">
        <ele>457.4</ele>
        <time>2021-03-27T11:33:33Z</time>
      </trkpt>
      <trkpt lat="46.19139" lon="6.25057">
        <ele>457.4</ele>
        <time>2021-03-27T11:33:34Z</time>
      </trkpt>
      <trkpt lat="46.19139" lon="6.25057">
        <ele>457.4</ele>
        <time>2021-03-27T11:33:35Z</time>
      </trkpt>
      <trkpt lat="46.19139" lon="6.25057">
        <ele>457.6</ele>
        <time>2021-03-27T11:33:36Z</time>
      </trkpt>
      <trkpt lat="46.19139" lon="6.25057">
        <ele>457.4</ele>
        <time>2021-03-27T11:33:37Z</time>
      </trkpt>
      <trkpt lat="46.19139" lon="6.25057">
        <ele>457.6</ele>
        <time>2021-03-27T11:33:38Z</time>
      </trkpt>
      <trkpt lat="46.19139" lon="6.25057">
        <ele>457.4</ele>
        <time>2021-03-27T11:33:39Z</time>
      </trkpt>
      <trkpt lat="46.19139" lon="6.25057">
        <ele>457.6</ele>
        <time>2021-03-27T11:33:40Z</time>
      </trkpt>
      <trkpt lat="46.19139" lon="6.25057">
        <ele>457.6</ele>
        <time>2021-03-27T11:33:41Z</time>
      </trkpt>
      <trkpt lat="46.19139" lon="6.25057">
        <ele>457.4</ele>
        <time>2021-03-27T11:33:42Z</time>
      </trkpt>
      <trkpt lat="46.19139" lon="6.25057">
        <ele>457.4</ele>
        <time>2021-03-27T11:33:43Z</time>
      </trkpt>
      <trkpt lat="46.19139" lon="6.25057">
        <ele>457.6</ele>
        <time>2021-03-27T11:33:44Z</time>
      </trkpt>
      <trkpt lat="46.19139" lon="6.25057">
        <ele>457.4</ele>
        <time>2021-03-27T11:33:45Z</time>
      </trkpt>
      <trkpt lat="46.19139" lon="6.25057">
        <ele>457.4</ele>
        <time>2021-03-27T11:33:46Z</time>
      </trkpt>
      <trkpt lat="46.19139" lon="6.25057">
        <ele>457.4</ele>
        <time>2021-03-27T11:33:47Z</time>
      </trkpt>
      <trkpt lat="46.19139" lon="6.25057">
        <ele>457.4</ele>
        <time>2021-03-27T11:33:48Z</time>
      </trkpt>
      <trkpt lat="46.19139" lon="6.25057">
        <ele>457.4</ele>
        <time>2021-03-27T11:33:49Z</time>
      </trkpt>
      <trkpt lat="46.19139" lon="6.25057">
        <ele>457.4</ele>
        <time>2021-03-27T11:33:50Z</time>
      </trkpt>
      <trkpt lat="46.19139" lon="6.25057">
        <ele>457.6</ele>
        <time>2021-03-27T11:33:51Z</time>
      </trkpt>
      <trkpt lat="46.19139" lon="6.25057">
        <ele>457.6</ele>
        <time>2021-03-27T11:33:52Z</time>
      </trkpt>
      <trkpt lat="46.19139" lon="6.25057">
        <ele>457.6</ele>
        <time>2021-03-27T11:33:53Z</time>
      </trkpt>
      <trkpt lat="46.19139" lon="6.25057">
        <ele>457.6</ele>
        <time>2021-03-27T11:33:54Z</time>
      </trkpt>
      <trkpt lat="46.19139" lon="6.25057">
        <ele>457.6</ele>
        <time>2021-03-27T11:33:55Z</time>
      </trkpt>
      <trkpt lat="46.19139" lon="6.25057">
        <ele>457.8</ele>
        <time>2021-03-27T11:33:56Z</time>
      </trkpt>
      <trkpt lat="46.19139" lon="6.25057">
        <ele>457.8</ele>
        <time>2021-03-27T11:33:57Z</time>
      </trkpt>
      <trkpt lat="46.19139" lon="6.25057">
        <ele>457.8</ele>
        <time>2021-03-27T11:33:58Z</time>
      </trkpt>
      <trkpt lat="46.19139" lon="6.25057">
        <ele>457.6</ele>
        <time>2021-03-27T11:33:59Z</time>
      </trkpt>
      <trkpt lat="46.19139" lon="6.25057">
        <ele>457.8</ele>
        <time>2021-03-27T11:34:00Z</time>
      </trkpt>
      <trkpt lat="46.19139" lon="6.25057">
        <ele>457.8</ele>
        <time>2021-03-27T11:34:01Z</time>
      </trkpt>
      <trkpt lat="46.19139" lon="6.25057">
        <ele>458</ele>
        <time>2021-03-27T11:34:02Z</time>
      </trkpt>
      <trkpt lat="46.19139" lon="6.25057">
        <ele>458</ele>
        <time>2021-03-27T11:34:03Z</time>
      </trkpt>
      <trkpt lat="46.19138" lon="6.25057">
        <ele>458</ele>
        <time>2021-03-27T11:34:04Z</time>
      </trkpt>
      <trkpt lat="46.19138" lon="6.25057">
        <ele>458.2</ele>
        <time>2021-03-27T11:34:05Z</time>
      </trkpt>
      <trkpt lat="46.19138" lon="6.25057">
        <ele>458.4</ele>
        <time>2021-03-27T11:34:06Z</time>
      </trkpt>
      <trkpt lat="46.19138" lon="6.25057">
        <ele>458.4</ele>
        <time>2021-03-27T11:34:07Z</time>
      </trkpt>
      <trkpt lat="46.19138" lon="6.25057">
        <ele>458.4</ele>
        <time>2021-03-27T11:34:08Z</time>
      </trkpt>
      <trkpt lat="46.19138" lon="6.25057">
        <ele>458.6</ele>
        <time>2021-03-27T11:34:09Z</time>
      </trkpt>
      <trkpt lat="46.19138" lon="6.25057">
        <ele>458.6</ele>
        <time>2021-03-27T11:34:10Z</time>
      </trkpt>
      <trkpt lat="46.19138" lon="6.25057">
        <ele>458.8</ele>
        <time>2021-03-27T11:34:11Z</time>
      </trkpt>
      <trkpt lat="46.19138" lon="6.25057">
        <ele>459</ele>
        <time>2021-03-27T11:34:12Z</time>
      </trkpt>
      <trkpt lat="46.19138" lon="6.25057">
        <ele>459</ele>
        <time>2021-03-27T11:34:13Z</time>
      </trkpt>
      <trkpt lat="46.19138" lon="6.25057">
        <ele>459</ele>
        <time>2021-03-27T11:34:14Z</time>
      </trkpt>
      <trkpt lat="46.19138" lon="6.25057">
        <ele>459.2</ele>
        <time>2021-03-27T11:34:15Z</time>
      </trkpt>
      <trkpt lat="46.19138" lon="6.25057">
        <ele>459.4</ele>
        <time>2021-03-27T11:34:16Z</time>
      </trkpt>
      <trkpt lat="46.19138" lon="6.25057">
        <ele>459.6</ele>
        <time>2021-03-27T11:34:17Z</time>
      </trkpt>
      <trkpt lat="46.19138" lon="6.25057">
        <ele>459.6</ele>
        <time>2021-03-27T11:34:18Z</time>
      </trkpt>
      <trkpt lat="46.19138" lon="6.25057">
        <ele>459.6</ele>
        <time>2021-03-27T11:34:19Z</time>
      </trkpt>
      <trkpt lat="46.19138" lon="6.25057">
        <ele>459.6</ele>
        <time>2021-03-27T11:34:20Z</time>
      </trkpt>
      <trkpt lat="46.19138" lon="6.25057">
        <ele>459.8</ele>
        <time>2021-03-27T11:34:21Z</time>
      </trkpt>
      <trkpt lat="46.19138" lon="6.25057">
        <ele>459.8</ele>
        <time>2021-03-27T11:34:22Z</time>
      </trkpt>
      <trkpt lat="46.19138" lon="6.25057">
        <ele>459.8</ele>
        <time>2021-03-27T11:34:23Z</time>
      </trkpt>
      <trkpt lat="46.19138" lon="6.25057">
        <ele>459.8</ele>
        <time>2021-03-27T11:34:24Z</time>
      </trkpt>
      <trkpt lat="46.19138" lon="6.25057">
        <ele>460</ele>
        <time>2021-03-27T11:34:25Z</time>
      </trkpt>
      <trkpt lat="46.19138" lon="6.25057">
        <ele>460</ele>
        <time>2021-03-27T11:34:26Z</time>
      </trkpt>
      <trkpt lat="46.19138" lon="6.25057">
        <ele>460</ele>
        <time>2021-03-27T11:34:27Z</time>
      </trkpt>
      <trkpt lat="46.19138" lon="6.25057">
        <ele>460</ele>
        <time>2021-03-27T11:34:28Z</time>
      </trkpt>
      <trkpt lat="46.19138" lon="6.25057">
        <ele>460</ele>
        <time>2021-03-27T11:34:29Z</time>
      </trkpt>
      <trkpt lat="46.19138" lon="6.25057">
        <ele>460</ele>
        <time>2021-03-27T11:34:30Z</time>
      </trkpt>
      <trkpt lat="46.19138" lon="6.25057">
        <ele>460</ele>
        <time>2021-03-27T11:34:31Z</time>
      </trkpt>
      <trkpt lat="46.19138" lon="6.25057">
        <ele>460</ele>
        <time>2021-03-27T11:34:32Z</time>
      </trkpt>
      <trkpt lat="46.19138" lon="6.25057">
        <ele>460.2</ele>
        <time>2021-03-27T11:34:33Z</time>
      </trkpt>
      <trkpt lat="46.19137" lon="6.25057">
        <ele>460</ele>
        <time>2021-03-27T11:34:34Z</time>
      </trkpt>
      <trkpt lat="46.19137" lon="6.25057">
        <ele>460</ele>
        <time>2021-03-27T11:34:35Z</time>
      </trkpt>
      <trkpt lat="46.19137" lon="6.25057">
        <ele>460</ele>
        <time>2021-03-27T11:34:36Z</time>
      </trkpt>
      <trkpt lat="46.19137" lon="6.25057">
        <ele>460</ele>
        <time>2021-03-27T11:34:37Z</time>
      </trkpt>
      <trkpt lat="46.19137" lon="6.25057">
        <ele>460</ele>
        <time>2021-03-27T11:34:38Z</time>
      </trkpt>
      <trkpt lat="46.19137" lon="6.25057">
        <ele>460</ele>
        <time>2021-03-27T11:34:39Z</time>
      </trkpt>
      <trkpt lat="46.19137" lon="6.25057">
        <ele>460</ele>
        <time>2021-03-27T11:34:40Z</time>
      </trkpt>
      <trkpt lat="46.19137" lon="6.25057">
        <ele>460</ele>
        <time>2021-03-27T11:34:41Z</time>
      </trkpt>
      <trkpt lat="46.19137" lon="6.25057">
        <ele>460</ele>
        <time>2021-03-27T11:34:42Z</time>
      </trkpt>
      <trkpt lat="46.19137" lon="6.25057">
        <ele>460</ele>
        <time>2021-03-27T11:34:43Z</time>
      </trkpt>
      <trkpt lat="46.19137" lon="6.25057">
        <ele>459.8</ele>
        <time>2021-03-27T11:34:44Z</time>
      </trkpt>
      <trkpt lat="46.19137" lon="6.25057">
        <ele>460</ele>
        <time>2021-03-27T11:34:45Z</time>
      </trkpt>
      <trkpt lat="46.19137" lon="6.25057">
        <ele>460</ele>
        <time>2021-03-27T11:34:46Z</time>
      </trkpt>
      <trkpt lat="46.19137" lon="6.25057">
        <ele>460</ele>
        <time>2021-03-27T11:34:47Z</time>
      </trkpt>
      <trkpt lat="46.19137" lon="6.25057">
        <ele>459.8</ele>
        <time>2021-03-27T11:34:48Z</time>
      </trkpt>
      <trkpt lat="46.19137" lon="6.25057">
        <ele>459.8</ele>
        <time>2021-03-27T11:34:49Z</time>
      </trkpt>
      <trkpt lat="46.19137" lon="6.25057">
        <ele>460</ele>
        <time>2021-03-27T11:34:50Z</time>
      </trkpt>
      <trkpt lat="46.19137" lon="6.25057">
        <ele>459.8</ele>
        <time>2021-03-27T11:34:51Z</time>
      </trkpt>
      <trkpt lat="46.19137" lon="6.25057">
        <ele>459.8</ele>
        <time>2021-03-27T11:34:52Z</time>
      </trkpt>
      <trkpt lat="46.19137" lon="6.25057">
        <ele>459.8</ele>
        <time>2021-03-27T11:34:53Z</time>
      </trkpt>
      <trkpt lat="46.19137" lon="6.25057">
        <ele>459.8</ele>
        <time>2021-03-27T11:34:54Z</time>
      </trkpt>
      <trkpt lat="46.19137" lon="6.25057">
        <ele>459.8</ele>
        <time>2021-03-27T11:34:55Z</time>
      </trkpt>
      <trkpt lat="46.19137" lon="6.25057">
        <ele>459.8</ele>
        <time>2021-03-27T11:34:56Z</time>
      </trkpt>
      <trkpt lat="46.19137" lon="6.25057">
        <ele>459.6</ele>
        <time>2021-03-27T11:34:57Z</time>
      </trkpt>
      <trkpt lat="46.19137" lon="6.25057">
        <ele>459.8</ele>
        <time>2021-03-27T11:34:58Z</time>
      </trkpt>
      <trkpt lat="46.19137" lon="6.25057">
        <ele>459.8</ele>
        <time>2021-03-27T11:34:59Z</time>
      </trkpt>
      <trkpt lat="46.19137" lon="6.25057">
        <ele>459.8</ele>
        <time>2021-03-27T11:35:00Z</time>
      </trkpt>
      <trkpt lat="46.19137" lon="6.25057">
        <ele>459.6</ele>
        <time>2021-03-27T11:35:01Z</time>
      </trkpt>
      <trkpt lat="46.19137" lon="6.25057">
        <ele>459.8</ele>
        <time>2021-03-27T11:35:02Z</time>
      </trkpt>
      <trkpt lat="46.19137" lon="6.25057">
        <ele>459.8</ele>
        <time>2021-03-27T11:35:03Z</time>
      </trkpt>
      <trkpt lat="46.19136" lon="6.25057">
        <ele>459.6</ele>
        <time>2021-03-27T11:35:04Z</time>
      </trkpt>
      <trkpt lat="46.19136" lon="6.25057">
        <ele>459.6</ele>
        <time>2021-03-27T11:35:05Z</time>
      </trkpt>
      <trkpt lat="46.19136" lon="6.25057">
        <ele>459.8</ele>
        <time>2021-03-27T11:35:06Z</time>
      </trkpt>
      <trkpt lat="46.19136" lon="6.25057">
        <ele>459.8</ele>
        <time>2021-03-27T11:35:07Z</time>
      </trkpt>
      <trkpt lat="46.19136" lon="6.25057">
        <ele>460</ele>
        <time>2021-03-27T11:35:08Z</time>
      </trkpt>
      <trkpt lat="46.19136" lon="6.25057">
        <ele>460</ele>
        <time>2021-03-27T11:35:09Z</time>
      </trkpt>
      <trkpt lat="46.19136" lon="6.25057">
        <ele>460</ele>
        <time>2021-03-27T11:35:10Z</time>
      </trkpt>
      <trkpt lat="46.19136" lon="6.25057">
        <ele>460.2</ele>
        <time>2021-03-27T11:35:11Z</time>
      </trkpt>
      <trkpt lat="46.19136" lon="6.25057">
        <ele>460.2</ele>
        <time>2021-03-27T11:35:12Z</time>
      </trkpt>
      <trkpt lat="46.19136" lon="6.25057">
        <ele>460.2</ele>
        <time>2021-03-27T11:35:13Z</time>
      </trkpt>
      <trkpt lat="46.19136" lon="6.25057">
        <ele>460.4</ele>
        <time>2021-03-27T11:35:14Z</time>
      </trkpt>
      <trkpt lat="46.19136" lon="6.25057">
        <ele>460.4</ele>
        <time>2021-03-27T11:35:15Z</time>
      </trkpt>
      <trkpt lat="46.19136" lon="6.25057">
        <ele>460.6</ele>
        <time>2021-03-27T11:35:16Z</time>
      </trkpt>
      <trkpt lat="46.19136" lon="6.25057">
        <ele>461</ele>
        <time>2021-03-27T11:35:17Z</time>
      </trkpt>
      <trkpt lat="46.19136" lon="6.25057">
        <ele>460.8</ele>
        <time>2021-03-27T11:35:18Z</time>
      </trkpt>
      <trkpt lat="46.19136" lon="6.25057">
        <ele>461</ele>
        <time>2021-03-27T11:35:19Z</time>
      </trkpt>
      <trkpt lat="46.19136" lon="6.25057">
        <ele>461.2</ele>
        <time>2021-03-27T11:35:20Z</time>
      </trkpt>
      <trkpt lat="46.19136" lon="6.25057">
        <ele>461.4</ele>
        <time>2021-03-27T11:35:21Z</time>
      </trkpt>
      <trkpt lat="46.19136" lon="6.25057">
        <ele>461.4</ele>
        <time>2021-03-27T11:35:22Z</time>
      </trkpt>
      <trkpt lat="46.19136" lon="6.25057">
        <ele>461.4</ele>
        <time>2021-03-27T11:35:23Z</time>
      </trkpt>
      <trkpt lat="46.19136" lon="6.25057">
        <ele>461.4</ele>
        <time>2021-03-27T11:35:24Z</time>
      </trkpt>
      <trkpt lat="46.19136" lon="6.25057">
        <ele>461.4</ele>
        <time>2021-03-27T11:35:25Z</time>
      </trkpt>
      <trkpt lat="46.19136" lon="6.25057">
        <ele>461.4</ele>
        <time>2021-03-27T11:35:26Z</time>
      </trkpt>
      <trkpt lat="46.19132" lon="6.25061">
        <ele>461.4</ele>
        <time>2021-03-27T11:35:27Z</time>
      </trkpt>
      <trkpt lat="46.19128" lon="6.25065">
        <ele>461.8</ele>
        <time>2021-03-27T11:35:28Z</time>
      </trkpt>
      <trkpt lat="46.1912" lon="6.25072">
        <ele>462</ele>
        <time>2021-03-27T11:35:29Z</time>
      </trkpt>
      <trkpt lat="46.19117" lon="6.2508">
        <ele>462.4</ele>
        <time>2021-03-27T11:35:30Z</time>
      </trkpt>
      <trkpt lat="46.19114" lon="6.25088">
        <ele>462.6</ele>
        <time>2021-03-27T11:35:31Z</time>
      </trkpt>
      <trkpt lat="46.19112" lon="6.25097">
        <ele>462.8</ele>
        <time>2021-03-27T11:35:32Z</time>
      </trkpt>
      <trkpt lat="46.19108" lon="6.25104">
        <ele>462.8</ele>
        <time>2021-03-27T11:35:33Z</time>
      </trkpt>
      <trkpt lat="46.19103" lon="6.2511">
        <ele>462.6</ele>
        <time>2021-03-27T11:35:34Z</time>
      </trkpt>
      <trkpt lat="46.19097" lon="6.25114">
        <ele>462</ele>
        <time>2021-03-27T11:35:35Z</time>
      </trkpt>
      <trkpt lat="46.19089" lon="6.25118">
        <ele>461.2</ele>
        <time>2021-03-27T11:35:36Z</time>
      </trkpt>
      <trkpt lat="46.1908" lon="6.2512">
        <ele>460</ele>
        <time>2021-03-27T11:35:37Z</time>
      </trkpt>
      <trkpt lat="46.19071" lon="6.2512">
        <ele>459</ele>
        <time>2021-03-27T11:35:38Z</time>
      </trkpt>
      <trkpt lat="46.19063" lon="6.25118">
        <ele>458.2</ele>
        <time>2021-03-27T11:35:39Z</time>
      </trkpt>
      <trkpt lat="46.19055" lon="6.25115">
        <ele>457.8</ele>
        <time>2021-03-27T11:35:40Z</time>
      </trkpt>
      <trkpt lat="46.19048" lon="6.25111">
        <ele>457.2</ele>
        <time>2021-03-27T11:35:41Z</time>
      </trkpt>
      <trkpt lat="46.19042" lon="6.25106">
        <ele>457.2</ele>
        <time>2021-03-27T11:35:42Z</time>
      </trkpt>
      <trkpt lat="46.19036" lon="6.25101">
        <ele>457.8</ele>
        <time>2021-03-27T11:35:43Z</time>
      </trkpt>
      <trkpt lat="46.19032" lon="6.25094">
        <ele>458</ele>
        <time>2021-03-27T11:35:44Z</time>
      </trkpt>
      <trkpt lat="46.19027" lon="6.2509">
        <ele>459.2</ele>
        <time>2021-03-27T11:35:45Z</time>
      </trkpt>
      <trkpt lat="46.19022" lon="6.25087">
        <ele>459.4</ele>
        <time>2021-03-27T11:35:46Z</time>
      </trkpt>
      <trkpt lat="46.19016" lon="6.25085">
        <ele>459.6</ele>
        <time>2021-03-27T11:35:47Z</time>
      </trkpt>
      <trkpt lat="46.1901" lon="6.25083">
        <ele>459.4</ele>
        <time>2021-03-27T11:35:48Z</time>
      </trkpt>
      <trkpt lat="46.19005" lon="6.2508">
        <ele>459.4</ele>
        <time>2021-03-27T11:35:49Z</time>
      </trkpt>
      <trkpt lat="46.18999" lon="6.25078">
        <ele>459.6</ele>
        <time>2021-03-27T11:35:50Z</time>
      </trkpt>
      <trkpt lat="46.18994" lon="6.25076">
        <ele>459.6</ele>
        <time>2021-03-27T11:35:51Z</time>
      </trkpt>
      <trkpt lat="46.18989" lon="6.25073">
        <ele>459.8</ele>
        <time>2021-03-27T11:35:52Z</time>
      </trkpt>
      <trkpt lat="46.18984" lon="6.25072">
        <ele>459.8</ele>
        <time>2021-03-27T11:35:53Z</time>
      </trkpt>
      <trkpt lat="46.18979" lon="6.25071">
        <ele>459.6</ele>
        <time>2021-03-27T11:35:54Z</time>
      </trkpt>
      <trkpt lat="46.18974" lon="6.2507">
        <ele>459.6</ele>
        <time>2021-03-27T11:35:55Z</time>
      </trkpt>
      <trkpt lat="46.18969" lon="6.25069">
        <ele>459.6</ele>
        <time>2021-03-27T11:35:56Z</time>
      </trkpt>
      <trkpt lat="46.18964" lon="6.25068">
        <ele>460.2</ele>
        <time>2021-03-27T11:35:57Z</time>
      </trkpt>
      <trkpt lat="46.18959" lon="6.25068">
        <ele>460.4</ele>
        <time>2021-03-27T11:35:58Z</time>
      </trkpt>
      <trkpt lat="46.18953" lon="6.25067">
        <ele>460.8</ele>
        <time>2021-03-27T11:35:59Z</time>
      </trkpt>
      <trkpt lat="46.18948" lon="6.25067">
        <ele>461.2</ele>
        <time>2021-03-27T11:36:00Z</time>
      </trkpt>
      <trkpt lat="46.18943" lon="6.25068">
        <ele>461.8</ele>
        <time>2021-03-27T11:36:01Z</time>
      </trkpt>
      <trkpt lat="46.18938" lon="6.25069">
        <ele>462.4</ele>
        <time>2021-03-27T11:36:02Z</time>
      </trkpt>
      <trkpt lat="46.18933" lon="6.2507">
        <ele>463</ele>
        <time>2021-03-27T11:36:03Z</time>
      </trkpt>
      <trkpt lat="46.18927" lon="6.2507">
        <ele>463.2</ele>
        <time>2021-03-27T11:36:04Z</time>
      </trkpt>
      <trkpt lat="46.18922" lon="6.25072">
        <ele>463.4</ele>
        <time>2021-03-27T11:36:05Z</time>
      </trkpt>
      <trkpt lat="46.18917" lon="6.25072">
        <ele>463.6</ele>
        <time>2021-03-27T11:36:06Z</time>
      </trkpt>
      <trkpt lat="46.18911" lon="6.25073">
        <ele>463.6</ele>
        <time>2021-03-27T11:36:07Z</time>
      </trkpt>
      <trkpt lat="46.18906" lon="6.25074">
        <ele>464</ele>
        <time>2021-03-27T11:36:08Z</time>
      </trkpt>
      <trkpt lat="46.18901" lon="6.25075">
        <ele>464.4</ele>
        <time>2021-03-27T11:36:09Z</time>
      </trkpt>
      <trkpt lat="46.18895" lon="6.25076">
        <ele>464.4</ele>
        <time>2021-03-27T11:36:10Z</time>
      </trkpt>
      <trkpt lat="46.1889" lon="6.25076">
        <ele>464.6</ele>
        <time>2021-03-27T11:36:11Z</time>
      </trkpt>
      <trkpt lat="46.18885" lon="6.25077">
        <ele>464.8</ele>
        <time>2021-03-27T11:36:12Z</time>
      </trkpt>
      <trkpt lat="46.18879" lon="6.25078">
        <ele>464.8</ele>
        <time>2021-03-27T11:36:13Z</time>
      </trkpt>
      <trkpt lat="46.18874" lon="6.25078">
        <ele>464.8</ele>
        <time>2021-03-27T11:36:14Z</time>
      </trkpt>
      <trkpt lat="46.18869" lon="6.25078">
        <ele>465</ele>
        <time>2021-03-27T11:36:15Z</time>
      </trkpt>
      <trkpt lat="46.18863" lon="6.25078">
        <ele>465</ele>
        <time>2021-03-27T11:36:16Z</time>
      </trkpt>
      <trkpt lat="46.18858" lon="6.25077">
        <ele>465.2</ele>
        <time>2021-03-27T11:36:17Z</time>
      </trkpt>
      <trkpt lat="46.18853" lon="6.25077">
        <ele>465.2</ele>
        <time>2021-03-27T11:36:18Z</time>
      </trkpt>
      <trkpt lat="46.18847" lon="6.25077">
        <ele>465.2</ele>
        <time>2021-03-27T11:36:19Z</time>
      </trkpt>
      <trkpt lat="46.18842" lon="6.25077">
        <ele>465.4</ele>
        <time>2021-03-27T11:36:20Z</time>
      </trkpt>
      <trkpt lat="46.18836" lon="6.25077">
        <ele>465.4</ele>
        <time>2021-03-27T11:36:21Z</time>
      </trkpt>
      <trkpt lat="46.18831" lon="6.25077">
        <ele>465.4</ele>
        <time>2021-03-27T11:36:22Z</time>
      </trkpt>
      <trkpt lat="46.18826" lon="6.25077">
        <ele>465.2</ele>
        <time>2021-03-27T11:36:23Z</time>
      </trkpt>
      <trkpt lat="46.1882" lon="6.25078">
        <ele>465.4</ele>
        <time>2021-03-27T11:36:24Z</time>
      </trkpt>
      <trkpt lat="46.18815" lon="6.25078">
        <ele>465.6</ele>
        <time>2021-03-27T11:36:25Z</time>
      </trkpt>
      <trkpt lat="46.1881" lon="6.25079">
        <ele>465.6</ele>
        <time>2021-03-27T11:36:26Z</time>
      </trkpt>
      <trkpt lat="46.18805" lon="6.25079">
        <ele>465.4</ele>
        <time>2021-03-27T11:36:27Z</time>
      </trkpt>
      <trkpt lat="46.18799" lon="6.25079">
        <ele>465.6</ele>
        <time>2021-03-27T11:36:28Z</time>
      </trkpt>
      <trkpt lat="46.18794" lon="6.2508">
        <ele>465.6</ele>
        <time>2021-03-27T11:36:29Z</time>
      </trkpt>
      <trkpt lat="46.18789" lon="6.2508">
        <ele>465.8</ele>
        <time>2021-03-27T11:36:30Z</time>
      </trkpt>
      <trkpt lat="46.18783" lon="6.25081">
        <ele>465.8</ele>
        <time>2021-03-27T11:36:31Z</time>
      </trkpt>
      <trkpt lat="46.18778" lon="6.25082">
        <ele>466</ele>
        <time>2021-03-27T11:36:32Z</time>
      </trkpt>
      <trkpt lat="46.18772" lon="6.25083">
        <ele>466</ele>
        <time>2021-03-27T11:36:33Z</time>
      </trkpt>
      <trkpt lat="46.18767" lon="6.25084">
        <ele>466</ele>
        <time>2021-03-27T11:36:34Z</time>
      </trkpt>
      <trkpt lat="46.18762" lon="6.25086">
        <ele>466.6</ele>
        <time>2021-03-27T11:36:35Z</time>
      </trkpt>
      <trkpt lat="46.18756" lon="6.25088">
        <ele>466.8</ele>
        <time>2021-03-27T11:36:36Z</time>
      </trkpt>
      <trkpt lat="46.18751" lon="6.25089">
        <ele>467.2</ele>
        <time>2021-03-27T11:36:37Z</time>
      </trkpt>
      <trkpt lat="46.18745" lon="6.25091">
        <ele>467</ele>
        <time>2021-03-27T11:36:38Z</time>
      </trkpt>
      <trkpt lat="46.1874" lon="6.25093">
        <ele>467.2</ele>
        <time>2021-03-27T11:36:39Z</time>
      </trkpt>
      <trkpt lat="46.18734" lon="6.25095">
        <ele>467.4</ele>
        <time>2021-03-27T11:36:40Z</time>
      </trkpt>
      <trkpt lat="46.18729" lon="6.25097">
        <ele>467.6</ele>
        <time>2021-03-27T11:36:41Z</time>
      </trkpt>
      <trkpt lat="46.18724" lon="6.25099">
        <ele>467.6</ele>
        <time>2021-03-27T11:36:42Z</time>
      </trkpt>
      <trkpt lat="46.18719" lon="6.25101">
        <ele>467.6</ele>
        <time>2021-03-27T11:36:43Z</time>
      </trkpt>
      <trkpt lat="46.18715" lon="6.25103">
        <ele>467.8</ele>
        <time>2021-03-27T11:36:44Z</time>
      </trkpt>
      <trkpt lat="46.1871" lon="6.25105">
        <ele>467.8</ele>
        <time>2021-03-27T11:36:45Z</time>
      </trkpt>
      <trkpt lat="46.18705" lon="6.25107">
        <ele>468</ele>
        <time>2021-03-27T11:36:46Z</time>
      </trkpt>
      <trkpt lat="46.187" lon="6.25109">
        <ele>468</ele>
        <time>2021-03-27T11:36:47Z</time>
      </trkpt>
      <trkpt lat="46.18695" lon="6.25111">
        <ele>468.2</ele>
        <time>2021-03-27T11:36:48Z</time>
      </trkpt>
      <trkpt lat="46.18691" lon="6.25113">
        <ele>468</ele>
        <time>2021-03-27T11:36:49Z</time>
      </trkpt>
      <trkpt lat="46.18687" lon="6.25115">
        <ele>468.2</ele>
        <time>2021-03-27T11:36:50Z</time>
      </trkpt>
      <trkpt lat="46.18682" lon="6.25116">
        <ele>468.4</ele>
        <time>2021-03-27T11:36:51Z</time>
      </trkpt>
      <trkpt lat="46.18677" lon="6.25118">
        <ele>468.6</ele>
        <time>2021-03-27T11:36:52Z</time>
      </trkpt>
      <trkpt lat="46.18673" lon="6.2512">
        <ele>468.6</ele>
        <time>2021-03-27T11:36:53Z</time>
      </trkpt>
      <trkpt lat="46.18668" lon="6.25122">
        <ele>468.8</ele>
        <time>2021-03-27T11:36:54Z</time>
      </trkpt>
      <trkpt lat="46.18663" lon="6.25124">
        <ele>469</ele>
        <time>2021-03-27T11:36:55Z</time>
      </trkpt>
      <trkpt lat="46.18658" lon="6.25126">
        <ele>469.2</ele>
        <time>2021-03-27T11:36:56Z</time>
      </trkpt>
      <trkpt lat="46.18654" lon="6.25128">
        <ele>469.4</ele>
        <time>2021-03-27T11:36:57Z</time>
      </trkpt>
      <trkpt lat="46.18649" lon="6.2513">
        <ele>469.4</ele>
        <time>2021-03-27T11:36:58Z</time>
      </trkpt>
      <trkpt lat="46.18643" lon="6.25132">
        <ele>469.2</ele>
        <time>2021-03-27T11:36:59Z</time>
      </trkpt>
      <trkpt lat="46.18638" lon="6.25134">
        <ele>469.4</ele>
        <time>2021-03-27T11:37:00Z</time>
      </trkpt>
      <trkpt lat="46.18632" lon="6.25136">
        <ele>469.8</ele>
        <time>2021-03-27T11:37:01Z</time>
      </trkpt>
      <trkpt lat="46.18627" lon="6.25138">
        <ele>470</ele>
        <time>2021-03-27T11:37:02Z</time>
      </trkpt>
      <trkpt lat="46.18621" lon="6.2514">
        <ele>470.2</ele>
        <time>2021-03-27T11:37:03Z</time>
      </trkpt>
      <trkpt lat="46.18615" lon="6.25142">
        <ele>470.4</ele>
        <time>2021-03-27T11:37:04Z</time>
      </trkpt>
      <trkpt lat="46.1861" lon="6.25143">
        <ele>470.2</ele>
        <time>2021-03-27T11:37:05Z</time>
      </trkpt>
      <trkpt lat="46.18604" lon="6.25144">
        <ele>470.4</ele>
        <time>2021-03-27T11:37:06Z</time>
      </trkpt>
      <trkpt lat="46.18598" lon="6.25146">
        <ele>470.4</ele>
        <time>2021-03-27T11:37:07Z</time>
      </trkpt>
      <trkpt lat="46.18593" lon="6.25148">
        <ele>470.6</ele>
        <time>2021-03-27T11:37:08Z</time>
      </trkpt>
      <trkpt lat="46.18587" lon="6.25148">
        <ele>470.6</ele>
        <time>2021-03-27T11:37:09Z</time>
      </trkpt>
      <trkpt lat="46.18583" lon="6.25149">
        <ele>471</ele>
        <time>2021-03-27T11:37:10Z</time>
      </trkpt>
      <trkpt lat="46.1858" lon="6.25148">
        <ele>471.2</ele>
        <time>2021-03-27T11:37:11Z</time>
      </trkpt>
      <trkpt lat="46.18579" lon="6.25148">
        <ele>471.4</ele>
        <time>2021-03-27T11:37:12Z</time>
      </trkpt>
      <trkpt lat="46.18577" lon="6.25148">
        <ele>471.4</ele>
        <time>2021-03-27T11:37:13Z</time>
      </trkpt>
      <trkpt lat="46.18574" lon="6.25148">
        <ele>471.6</ele>
        <time>2021-03-27T11:37:14Z</time>
      </trkpt>
      <trkpt lat="46.18571" lon="6.2515">
        <ele>471.6</ele>
        <time>2021-03-27T11:37:15Z</time>
      </trkpt>
      <trkpt lat="46.18568" lon="6.25152">
        <ele>472</ele>
        <time>2021-03-27T11:37:16Z</time>
      </trkpt>
      <trkpt lat="46.18564" lon="6.25154">
        <ele>472.2</ele>
        <time>2021-03-27T11:37:17Z</time>
      </trkpt>
      <trkpt lat="46.18559" lon="6.25156">
        <ele>472.4</ele>
        <time>2021-03-27T11:37:18Z</time>
      </trkpt>
      <trkpt lat="46.18554" lon="6.25158">
        <ele>472.8</ele>
        <time>2021-03-27T11:37:19Z</time>
      </trkpt>
      <trkpt lat="46.18549" lon="6.2516">
        <ele>473</ele>
        <time>2021-03-27T11:37:20Z</time>
      </trkpt>
      <trkpt lat="46.18544" lon="6.25161">
        <ele>473</ele>
        <time>2021-03-27T11:37:21Z</time>
      </trkpt>
      <trkpt lat="46.18539" lon="6.25162">
        <ele>473.2</ele>
        <time>2021-03-27T11:37:22Z</time>
      </trkpt>
      <trkpt lat="46.18534" lon="6.25164">
        <ele>473.2</ele>
        <time>2021-03-27T11:37:23Z</time>
      </trkpt>
      <trkpt lat="46.18528" lon="6.25165">
        <ele>473.4</ele>
        <time>2021-03-27T11:37:24Z</time>
      </trkpt>
      <trkpt lat="46.18523" lon="6.25166">
        <ele>473.4</ele>
        <time>2021-03-27T11:37:25Z</time>
      </trkpt>
      <trkpt lat="46.18518" lon="6.25168">
        <ele>473.4</ele>
        <time>2021-03-27T11:37:26Z</time>
      </trkpt>
      <trkpt lat="46.18513" lon="6.25169">
        <ele>473.4</ele>
        <time>2021-03-27T11:37:27Z</time>
      </trkpt>
      <trkpt lat="46.18507" lon="6.2517">
        <ele>473.4</ele>
        <time>2021-03-27T11:37:28Z</time>
      </trkpt>
      <trkpt lat="46.18502" lon="6.25172">
        <ele>473.6</ele>
        <time>2021-03-27T11:37:29Z</time>
      </trkpt>
      <trkpt lat="46.18497" lon="6.25173">
        <ele>473.4</ele>
        <time>2021-03-27T11:37:30Z</time>
      </trkpt>
      <trkpt lat="46.18492" lon="6.25174">
        <ele>473.6</ele>
        <time>2021-03-27T11:37:31Z</time>
      </trkpt>
      <trkpt lat="46.18487" lon="6.25176">
        <ele>473.6</ele>
        <time>2021-03-27T11:37:32Z</time>
      </trkpt>
      <trkpt lat="46.18482" lon="6.25177">
        <ele>473.8</ele>
        <time>2021-03-27T11:37:33Z</time>
      </trkpt>
      <trkpt lat="46.18477" lon="6.25178">
        <ele>473.8</ele>
        <time>2021-03-27T11:37:34Z</time>
      </trkpt>
      <trkpt lat="46.18472" lon="6.25179">
        <ele>473.8</ele>
        <time>2021-03-27T11:37:35Z</time>
      </trkpt>
      <trkpt lat="46.18467" lon="6.25181">
        <ele>473.8</ele>
        <time>2021-03-27T11:37:36Z</time>
      </trkpt>
      <trkpt lat="46.18462" lon="6.25182">
        <ele>473.8</ele>
        <time>2021-03-27T11:37:37Z</time>
      </trkpt>
      <trkpt lat="46.18457" lon="6.25184">
        <ele>473.8</ele>
        <time>2021-03-27T11:37:38Z</time>
      </trkpt>
      <trkpt lat="46.18452" lon="6.25186">
        <ele>473.8</ele>
        <time>2021-03-27T11:37:39Z</time>
      </trkpt>
      <trkpt lat="46.18447" lon="6.25188">
        <ele>474</ele>
        <time>2021-03-27T11:37:40Z</time>
      </trkpt>
      <trkpt lat="46.18442" lon="6.2519">
        <ele>474.4</ele>
        <time>2021-03-27T11:37:41Z</time>
      </trkpt>
      <trkpt lat="46.18437" lon="6.25192">
        <ele>474.6</ele>
        <time>2021-03-27T11:37:42Z</time>
      </trkpt>
      <trkpt lat="46.18431" lon="6.25194">
        <ele>474.8</ele>
        <time>2021-03-27T11:37:43Z</time>
      </trkpt>
      <trkpt lat="46.18426" lon="6.25196">
        <ele>475</ele>
        <time>2021-03-27T11:37:44Z</time>
      </trkpt>
      <trkpt lat="46.18421" lon="6.25198">
        <ele>475</ele>
        <time>2021-03-27T11:37:45Z</time>
      </trkpt>
      <trkpt lat="46.18415" lon="6.252">
        <ele>475</ele>
        <time>2021-03-27T11:37:46Z</time>
      </trkpt>
      <trkpt lat="46.1841" lon="6.25203">
        <ele>475.2</ele>
        <time>2021-03-27T11:37:47Z</time>
      </trkpt>
      <trkpt lat="46.18405" lon="6.25206">
        <ele>475.6</ele>
        <time>2021-03-27T11:37:48Z</time>
      </trkpt>
      <trkpt lat="46.184" lon="6.25209">
        <ele>475.4</ele>
        <time>2021-03-27T11:37:49Z</time>
      </trkpt>
      <trkpt lat="46.18395" lon="6.25212">
        <ele>475.6</ele>
        <time>2021-03-27T11:37:50Z</time>
      </trkpt>
      <trkpt lat="46.18389" lon="6.25216">
        <ele>475.8</ele>
        <time>2021-03-27T11:37:51Z</time>
      </trkpt>
      <trkpt lat="46.18384" lon="6.25219">
        <ele>476</ele>
        <time>2021-03-27T11:37:52Z</time>
      </trkpt>
      <trkpt lat="46.1838" lon="6.25222">
        <ele>476</ele>
        <time>2021-03-27T11:37:53Z</time>
      </trkpt>
      <trkpt lat="46.18375" lon="6.25225">
        <ele>476.2</ele>
        <time>2021-03-27T11:37:54Z</time>
      </trkpt>
      <trkpt lat="46.1837" lon="6.25229">
        <ele>476.2</ele>
        <time>2021-03-27T11:37:55Z</time>
      </trkpt>
      <trkpt lat="46.18365" lon="6.25233">
        <ele>476.4</ele>
        <time>2021-03-27T11:37:56Z</time>
      </trkpt>
      <trkpt lat="46.18361" lon="6.25236">
        <ele>476.4</ele>
        <time>2021-03-27T11:37:57Z</time>
      </trkpt>
      <trkpt lat="46.18357" lon="6.25239">
        <ele>476.8</ele>
        <time>2021-03-27T11:37:58Z</time>
      </trkpt>
      <trkpt lat="46.18352" lon="6.25242">
        <ele>476.8</ele>
        <time>2021-03-27T11:37:59Z</time>
      </trkpt>
      <trkpt lat="46.18348" lon="6.25245">
        <ele>477</ele>
        <time>2021-03-27T11:38:00Z</time>
      </trkpt>
      <trkpt lat="46.18344" lon="6.25248">
        <ele>477.4</ele>
        <time>2021-03-27T11:38:01Z</time>
      </trkpt>
      <trkpt lat="46.18339" lon="6.25251">
        <ele>477.6</ele>
        <time>2021-03-27T11:38:02Z</time>
      </trkpt>
      <trkpt lat="46.18335" lon="6.25254">
        <ele>477.8</ele>
        <time>2021-03-27T11:38:03Z</time>
      </trkpt>
      <trkpt lat="46.18331" lon="6.25257">
        <ele>478</ele>
        <time>2021-03-27T11:38:04Z</time>
      </trkpt>
      <trkpt lat="46.18327" lon="6.25259">
        <ele>478.4</ele>
        <time>2021-03-27T11:38:05Z</time>
      </trkpt>
      <trkpt lat="46.18323" lon="6.25262">
        <ele>478.6</ele>
        <time>2021-03-27T11:38:06Z</time>
      </trkpt>
      <trkpt lat="46.18319" lon="6.25265">
        <ele>479</ele>
        <time>2021-03-27T11:38:07Z</time>
      </trkpt>
      <trkpt lat="46.18316" lon="6.25267">
        <ele>479</ele>
        <time>2021-03-27T11:38:08Z</time>
      </trkpt>
      <trkpt lat="46.18312" lon="6.2527">
        <ele>479.2</ele>
        <time>2021-03-27T11:38:09Z</time>
      </trkpt>
      <trkpt lat="46.18308" lon="6.25273">
        <ele>479.2</ele>
        <time>2021-03-27T11:38:10Z</time>
      </trkpt>
      <trkpt lat="46.18303" lon="6.25275">
        <ele>479.6</ele>
        <time>2021-03-27T11:38:11Z</time>
      </trkpt>
      <trkpt lat="46.18299" lon="6.25278">
        <ele>479.8</ele>
        <time>2021-03-27T11:38:12Z</time>
      </trkpt>
      <trkpt lat="46.18294" lon="6.25281">
        <ele>480</ele>
        <time>2021-03-27T11:38:13Z</time>
      </trkpt>
      <trkpt lat="46.1829" lon="6.25284">
        <ele>480</ele>
        <time>2021-03-27T11:38:14Z</time>
      </trkpt>
      <trkpt lat="46.18285" lon="6.25287">
        <ele>480</ele>
        <time>2021-03-27T11:38:15Z</time>
      </trkpt>
      <trkpt lat="46.18281" lon="6.2529">
        <ele>480.6</ele>
        <time>2021-03-27T11:38:16Z</time>
      </trkpt>
      <trkpt lat="46.18277" lon="6.25292">
        <ele>481</ele>
        <time>2021-03-27T11:38:17Z</time>
      </trkpt>
      <trkpt lat="46.18273" lon="6.25295">
        <ele>481.2</ele>
        <time>2021-03-27T11:38:18Z</time>
      </trkpt>
      <trkpt lat="46.18268" lon="6.25298">
        <ele>481.4</ele>
        <time>2021-03-27T11:38:19Z</time>
      </trkpt>
      <trkpt lat="46.18265" lon="6.25301">
        <ele>481.6</ele>
        <time>2021-03-27T11:38:20Z</time>
      </trkpt>
      <trkpt lat="46.18261" lon="6.25305">
        <ele>481.8</ele>
        <time>2021-03-27T11:38:21Z</time>
      </trkpt>
      <trkpt lat="46.18256" lon="6.25308">
        <ele>482</ele>
        <time>2021-03-27T11:38:22Z</time>
      </trkpt>
      <trkpt lat="46.18252" lon="6.25311">
        <ele>482.4</ele>
        <time>2021-03-27T11:38:23Z</time>
      </trkpt>
      <trkpt lat="46.18248" lon="6.25314">
        <ele>482.6</ele>
        <time>2021-03-27T11:38:24Z</time>
      </trkpt>
      <trkpt lat="46.18243" lon="6.25316">
        <ele>483</ele>
        <time>2021-03-27T11:38:25Z</time>
      </trkpt>
      <trkpt lat="46.18238" lon="6.25319">
        <ele>483</ele>
        <time>2021-03-27T11:38:26Z</time>
      </trkpt>
      <trkpt lat="46.18233" lon="6.25322">
        <ele>483.4</ele>
        <time>2021-03-27T11:38:27Z</time>
      </trkpt>
      <trkpt lat="46.18228" lon="6.25324">
        <ele>483.6</ele>
        <time>2021-03-27T11:38:28Z</time>
      </trkpt>
      <trkpt lat="46.18223" lon="6.25327">
        <ele>483.6</ele>
        <time>2021-03-27T11:38:29Z</time>
      </trkpt>
      <trkpt lat="46.18218" lon="6.2533">
        <ele>483.6</ele>
        <time>2021-03-27T11:38:30Z</time>
      </trkpt>
      <trkpt lat="46.18213" lon="6.25334">
        <ele>483.8</ele>
        <time>2021-03-27T11:38:31Z</time>
      </trkpt>
      <trkpt lat="46.18209" lon="6.25337">
        <ele>483.8</ele>
        <time>2021-03-27T11:38:32Z</time>
      </trkpt>
      <trkpt lat="46.18204" lon="6.2534">
        <ele>484</ele>
        <time>2021-03-27T11:38:33Z</time>
      </trkpt>
      <trkpt lat="46.18199" lon="6.25343">
        <ele>484</ele>
        <time>2021-03-27T11:38:34Z</time>
      </trkpt>
      <trkpt lat="46.18194" lon="6.25346">
        <ele>484.2</ele>
        <time>2021-03-27T11:38:35Z</time>
      </trkpt>
      <trkpt lat="46.18189" lon="6.25349">
        <ele>484.2</ele>
        <time>2021-03-27T11:38:36Z</time>
      </trkpt>
      <trkpt lat="46.18184" lon="6.25352">
        <ele>484.2</ele>
        <time>2021-03-27T11:38:37Z</time>
      </trkpt>
      <trkpt lat="46.1818" lon="6.25355">
        <ele>484.4</ele>
        <time>2021-03-27T11:38:38Z</time>
      </trkpt>
      <trkpt lat="46.18175" lon="6.25358">
        <ele>484.2</ele>
        <time>2021-03-27T11:38:39Z</time>
      </trkpt>
      <trkpt lat="46.1817" lon="6.25361">
        <ele>484.4</ele>
        <time>2021-03-27T11:38:40Z</time>
      </trkpt>
      <trkpt lat="46.18165" lon="6.25364">
        <ele>484.6</ele>
        <time>2021-03-27T11:38:41Z</time>
      </trkpt>
      <trkpt lat="46.1816" lon="6.25367">
        <ele>484.4</ele>
        <time>2021-03-27T11:38:42Z</time>
      </trkpt>
      <trkpt lat="46.18155" lon="6.2537">
        <ele>484.6</ele>
        <time>2021-03-27T11:38:43Z</time>
      </trkpt>
      <trkpt lat="46.1815" lon="6.25373">
        <ele>484.6</ele>
        <time>2021-03-27T11:38:44Z</time>
      </trkpt>
      <trkpt lat="46.18145" lon="6.25376">
        <ele>485</ele>
        <time>2021-03-27T11:38:45Z</time>
      </trkpt>
      <trkpt lat="46.1814" lon="6.25379">
        <ele>485</ele>
        <time>2021-03-27T11:38:46Z</time>
      </trkpt>
      <trkpt lat="46.18135" lon="6.25381">
        <ele>485.2</ele>
        <time>2021-03-27T11:38:47Z</time>
      </trkpt>
      <trkpt lat="46.1813" lon="6.25384">
        <ele>485.2</ele>
        <time>2021-03-27T11:38:48Z</time>
      </trkpt>
      <trkpt lat="46.18125" lon="6.25387">
        <ele>485.2</ele>
        <time>2021-03-27T11:38:49Z</time>
      </trkpt>
      <trkpt lat="46.1812" lon="6.25391">
        <ele>485.4</ele>
        <time>2021-03-27T11:38:50Z</time>
      </trkpt>
      <trkpt lat="46.18114" lon="6.25394">
        <ele>485.6</ele>
        <time>2021-03-27T11:38:51Z</time>
      </trkpt>
      <trkpt lat="46.18109" lon="6.25397">
        <ele>485.6</ele>
        <time>2021-03-27T11:38:52Z</time>
      </trkpt>
      <trkpt lat="46.18104" lon="6.25401">
        <ele>485.8</ele>
        <time>2021-03-27T11:38:53Z</time>
      </trkpt>
      <trkpt lat="46.18099" lon="6.25405">
        <ele>486</ele>
        <time>2021-03-27T11:38:54Z</time>
      </trkpt>
      <trkpt lat="46.18094" lon="6.25409">
        <ele>485.8</ele>
        <time>2021-03-27T11:38:55Z</time>
      </trkpt>
      <trkpt lat="46.1809" lon="6.25413">
        <ele>486</ele>
        <time>2021-03-27T11:38:56Z</time>
      </trkpt>
      <trkpt lat="46.18085" lon="6.25417">
        <ele>486.2</ele>
        <time>2021-03-27T11:38:57Z</time>
      </trkpt>
      <trkpt lat="46.1808" lon="6.25421">
        <ele>486.4</ele>
        <time>2021-03-27T11:38:58Z</time>
      </trkpt>
      <trkpt lat="46.18076" lon="6.25426">
        <ele>486.6</ele>
        <time>2021-03-27T11:38:59Z</time>
      </trkpt>
      <trkpt lat="46.18072" lon="6.2543">
        <ele>487</ele>
        <time>2021-03-27T11:39:00Z</time>
      </trkpt>
      <trkpt lat="46.18068" lon="6.25435">
        <ele>487</ele>
        <time>2021-03-27T11:39:01Z</time>
      </trkpt>
      <trkpt lat="46.18064" lon="6.2544">
        <ele>487.2</ele>
        <time>2021-03-27T11:39:02Z</time>
      </trkpt>
      <trkpt lat="46.18061" lon="6.25444">
        <ele>487.2</ele>
        <time>2021-03-27T11:39:03Z</time>
      </trkpt>
      <trkpt lat="46.18058" lon="6.25449">
        <ele>487.4</ele>
        <time>2021-03-27T11:39:04Z</time>
      </trkpt>
      <trkpt lat="46.18055" lon="6.25454">
        <ele>487.4</ele>
        <time>2021-03-27T11:39:05Z</time>
      </trkpt>
      <trkpt lat="46.18051" lon="6.25459">
        <ele>487.4</ele>
        <time>2021-03-27T11:39:06Z</time>
      </trkpt>
      <trkpt lat="46.18047" lon="6.25464">
        <ele>488</ele>
        <time>2021-03-27T11:39:07Z</time>
      </trkpt>
      <trkpt lat="46.18044" lon="6.25469">
        <ele>488.4</ele>
        <time>2021-03-27T11:39:08Z</time>
      </trkpt>
      <trkpt lat="46.18041" lon="6.25474">
        <ele>488.8</ele>
        <time>2021-03-27T11:39:09Z</time>
      </trkpt>
      <trkpt lat="46.18038" lon="6.25479">
        <ele>489.2</ele>
        <time>2021-03-27T11:39:10Z</time>
      </trkpt>
      <trkpt lat="46.18034" lon="6.25484">
        <ele>489.6</ele>
        <time>2021-03-27T11:39:11Z</time>
      </trkpt>
      <trkpt lat="46.18031" lon="6.25488">
        <ele>490</ele>
        <time>2021-03-27T11:39:12Z</time>
      </trkpt>
      <trkpt lat="46.18027" lon="6.25492">
        <ele>490.4</ele>
        <time>2021-03-27T11:39:13Z</time>
      </trkpt>
      <trkpt lat="46.18024" lon="6.25497">
        <ele>490.8</ele>
        <time>2021-03-27T11:39:14Z</time>
      </trkpt>
      <trkpt lat="46.1802" lon="6.25501">
        <ele>491.2</ele>
        <time>2021-03-27T11:39:15Z</time>
      </trkpt>
      <trkpt lat="46.18016" lon="6.25505">
        <ele>491.4</ele>
        <time>2021-03-27T11:39:16Z</time>
      </trkpt>
      <trkpt lat="46.18012" lon="6.25509">
        <ele>491.8</ele>
        <time>2021-03-27T11:39:17Z</time>
      </trkpt>
      <trkpt lat="46.18008" lon="6.25513">
        <ele>491.8</ele>
        <time>2021-03-27T11:39:18Z</time>
      </trkpt>
      <trkpt lat="46.18004" lon="6.25516">
        <ele>492</ele>
        <time>2021-03-27T11:39:19Z</time>
      </trkpt>
      <trkpt lat="46.17999" lon="6.2552">
        <ele>492.2</ele>
        <time>2021-03-27T11:39:20Z</time>
      </trkpt>
      <trkpt lat="46.17994" lon="6.25523">
        <ele>492.4</ele>
        <time>2021-03-27T11:39:21Z</time>
      </trkpt>
      <trkpt lat="46.17989" lon="6.25526">
        <ele>492.6</ele>
        <time>2021-03-27T11:39:22Z</time>
      </trkpt>
      <trkpt lat="46.17983" lon="6.25529">
        <ele>492.8</ele>
        <time>2021-03-27T11:39:23Z</time>
      </trkpt>
      <trkpt lat="46.17978" lon="6.25532">
        <ele>492.8</ele>
        <time>2021-03-27T11:39:24Z</time>
      </trkpt>
      <trkpt lat="46.17972" lon="6.25535">
        <ele>493.2</ele>
        <time>2021-03-27T11:39:25Z</time>
      </trkpt>
      <trkpt lat="46.17966" lon="6.25537">
        <ele>493.4</ele>
        <time>2021-03-27T11:39:26Z</time>
      </trkpt>
      <trkpt lat="46.1796" lon="6.2554">
        <ele>493.6</ele>
        <time>2021-03-27T11:39:27Z</time>
      </trkpt>
      <trkpt lat="46.17953" lon="6.25542">
        <ele>493.8</ele>
        <time>2021-03-27T11:39:28Z</time>
      </trkpt>
      <trkpt lat="46.17946" lon="6.25544">
        <ele>494</ele>
        <time>2021-03-27T11:39:29Z</time>
      </trkpt>
      <trkpt lat="46.17939" lon="6.25546">
        <ele>494</ele>
        <time>2021-03-27T11:39:30Z</time>
      </trkpt>
      <trkpt lat="46.17933" lon="6.25548">
        <ele>494.2</ele>
        <time>2021-03-27T11:39:31Z</time>
      </trkpt>
      <trkpt lat="46.17925" lon="6.25549">
        <ele>494.2</ele>
        <time>2021-03-27T11:39:32Z</time>
      </trkpt>
      <trkpt lat="46.17917" lon="6.25551">
        <ele>494.2</ele>
        <time>2021-03-27T11:39:33Z</time>
      </trkpt>
      <trkpt lat="46.17909" lon="6.25553">
        <ele>494.2</ele>
        <time>2021-03-27T11:39:34Z</time>
      </trkpt>
      <trkpt lat="46.17901" lon="6.25554">
        <ele>494.2</ele>
        <time>2021-03-27T11:39:35Z</time>
      </trkpt>
      <trkpt lat="46.17892" lon="6.25555">
        <ele>494</ele>
        <time>2021-03-27T11:39:36Z</time>
      </trkpt>
      <trkpt lat="46.17884" lon="6.25555">
        <ele>494.2</ele>
        <time>2021-03-27T11:39:37Z</time>
      </trkpt>
      <trkpt lat="46.17875" lon="6.25555">
        <ele>494.2</ele>
        <time>2021-03-27T11:39:38Z</time>
      </trkpt>
      <trkpt lat="46.17865" lon="6.25554">
        <ele>494</ele>
        <time>2021-03-27T11:39:39Z</time>
      </trkpt>
      <trkpt lat="46.17856" lon="6.25553">
        <ele>493.8</ele>
        <time>2021-03-27T11:39:40Z</time>
      </trkpt>
      <trkpt lat="46.17847" lon="6.25551">
        <ele>493</ele>
        <time>2021-03-27T11:39:41Z</time>
      </trkpt>
      <trkpt lat="46.17837" lon="6.25549">
        <ele>492.6</ele>
        <time>2021-03-27T11:39:42Z</time>
      </trkpt>
      <trkpt lat="46.17827" lon="6.25548">
        <ele>491.6</ele>
        <time>2021-03-27T11:39:43Z</time>
      </trkpt>
      <trkpt lat="46.17818" lon="6.25548">
        <ele>491.2</ele>
        <time>2021-03-27T11:39:44Z</time>
      </trkpt>
      <trkpt lat="46.17809" lon="6.25548">
        <ele>490.8</ele>
        <time>2021-03-27T11:39:45Z</time>
      </trkpt>
      <trkpt lat="46.178" lon="6.25549">
        <ele>490.4</ele>
        <time>2021-03-27T11:39:46Z</time>
      </trkpt>
      <trkpt lat="46.1779" lon="6.2555">
        <ele>489.4</ele>
        <time>2021-03-27T11:39:47Z</time>
      </trkpt>
      <trkpt lat="46.17781" lon="6.25551">
        <ele>489.2</ele>
        <time>2021-03-27T11:39:48Z</time>
      </trkpt>
      <trkpt lat="46.17771" lon="6.25552">
        <ele>488.6</ele>
        <time>2021-03-27T11:39:49Z</time>
      </trkpt>
      <trkpt lat="46.17762" lon="6.25554">
        <ele>488.6</ele>
        <time>2021-03-27T11:39:50Z</time>
      </trkpt>
      <trkpt lat="46.17754" lon="6.25557">
        <ele>488.4</ele>
        <time>2021-03-27T11:39:51Z</time>
      </trkpt>
      <trkpt lat="46.17745" lon="6.2556">
        <ele>488.4</ele>
        <time>2021-03-27T11:39:52Z</time>
      </trkpt>
      <trkpt lat="46.17738" lon="6.25563">
        <ele>488.2</ele>
        <time>2021-03-27T11:39:53Z</time>
      </trkpt>
      <trkpt lat="46.1773" lon="6.25567">
        <ele>488.2</ele>
        <time>2021-03-27T11:39:54Z</time>
      </trkpt>
      <trkpt lat="46.17722" lon="6.25571">
        <ele>488</ele>
        <time>2021-03-27T11:39:55Z</time>
      </trkpt>
      <trkpt lat="46.17715" lon="6.25575">
        <ele>488</ele>
        <time>2021-03-27T11:39:56Z</time>
      </trkpt>
      <trkpt lat="46.17708" lon="6.25578">
        <ele>488</ele>
        <time>2021-03-27T11:39:57Z</time>
      </trkpt>
      <trkpt lat="46.17701" lon="6.25582">
        <ele>488</ele>
        <time>2021-03-27T11:39:58Z</time>
      </trkpt>
      <trkpt lat="46.17694" lon="6.25586">
        <ele>488</ele>
        <time>2021-03-27T11:39:59Z</time>
      </trkpt>
      <trkpt lat="46.17688" lon="6.25589">
        <ele>488</ele>
        <time>2021-03-27T11:40:00Z</time>
      </trkpt>
      <trkpt lat="46.17682" lon="6.25593">
        <ele>487.8</ele>
        <time>2021-03-27T11:40:01Z</time>
      </trkpt>
      <trkpt lat="46.17676" lon="6.25596">
        <ele>487.8</ele>
        <time>2021-03-27T11:40:02Z</time>
      </trkpt>
      <trkpt lat="46.1767" lon="6.256">
        <ele>488</ele>
        <time>2021-03-27T11:40:03Z</time>
      </trkpt>
      <trkpt lat="46.17664" lon="6.25603">
        <ele>488</ele>
        <time>2021-03-27T11:40:04Z</time>
      </trkpt>
      <trkpt lat="46.17658" lon="6.25606">
        <ele>488</ele>
        <time>2021-03-27T11:40:05Z</time>
      </trkpt>
      <trkpt lat="46.17652" lon="6.25609">
        <ele>488</ele>
        <time>2021-03-27T11:40:06Z</time>
      </trkpt>
      <trkpt lat="46.17646" lon="6.25612">
        <ele>488</ele>
        <time>2021-03-27T11:40:07Z</time>
      </trkpt>
      <trkpt lat="46.17641" lon="6.25615">
        <ele>488</ele>
        <time>2021-03-27T11:40:08Z</time>
      </trkpt>
      <trkpt lat="46.17635" lon="6.25618">
        <ele>488</ele>
        <time>2021-03-27T11:40:09Z</time>
      </trkpt>
      <trkpt lat="46.17629" lon="6.25622">
        <ele>488.2</ele>
        <time>2021-03-27T11:40:10Z</time>
      </trkpt>
      <trkpt lat="46.17624" lon="6.25625">
        <ele>488.2</ele>
        <time>2021-03-27T11:40:11Z</time>
      </trkpt>
      <trkpt lat="46.17618" lon="6.25628">
        <ele>488.6</ele>
        <time>2021-03-27T11:40:12Z</time>
      </trkpt>
      <trkpt lat="46.17613" lon="6.25631">
        <ele>488.6</ele>
        <time>2021-03-27T11:40:13Z</time>
      </trkpt>
      <trkpt lat="46.17608" lon="6.25634">
        <ele>488.8</ele>
        <time>2021-03-27T11:40:14Z</time>
      </trkpt>
      <trkpt lat="46.17602" lon="6.25637">
        <ele>488.8</ele>
        <time>2021-03-27T11:40:15Z</time>
      </trkpt>
      <trkpt lat="46.17597" lon="6.25639">
        <ele>489</ele>
        <time>2021-03-27T11:40:16Z</time>
      </trkpt>
      <trkpt lat="46.17592" lon="6.25642">
        <ele>489.4</ele>
        <time>2021-03-27T11:40:17Z</time>
      </trkpt>
      <trkpt lat="46.17587" lon="6.25645">
        <ele>489.4</ele>
        <time>2021-03-27T11:40:18Z</time>
      </trkpt>
      <trkpt lat="46.17581" lon="6.25648">
        <ele>489.4</ele>
        <time>2021-03-27T11:40:19Z</time>
      </trkpt>
      <trkpt lat="46.17576" lon="6.25651">
        <ele>489.8</ele>
        <time>2021-03-27T11:40:20Z</time>
      </trkpt>
      <trkpt lat="46.17571" lon="6.25654">
        <ele>490</ele>
        <time>2021-03-27T11:40:21Z</time>
      </trkpt>
      <trkpt lat="46.17566" lon="6.25657">
        <ele>490</ele>
        <time>2021-03-27T11:40:22Z</time>
      </trkpt>
      <trkpt lat="46.17561" lon="6.25659">
        <ele>490.2</ele>
        <time>2021-03-27T11:40:23Z</time>
      </trkpt>
      <trkpt lat="46.17556" lon="6.25662">
        <ele>490.2</ele>
        <time>2021-03-27T11:40:24Z</time>
      </trkpt>
      <trkpt lat="46.17552" lon="6.25666">
        <ele>490.4</ele>
        <time>2021-03-27T11:40:25Z</time>
      </trkpt>
      <trkpt lat="46.17547" lon="6.25669">
        <ele>490.6</ele>
        <time>2021-03-27T11:40:26Z</time>
      </trkpt>
      <trkpt lat="46.17543" lon="6.25673">
        <ele>490.8</ele>
        <time>2021-03-27T11:40:27Z</time>
      </trkpt>
      <trkpt lat="46.17539" lon="6.25677">
        <ele>491</ele>
        <time>2021-03-27T11:40:28Z</time>
      </trkpt>
      <trkpt lat="46.17534" lon="6.25681">
        <ele>491</ele>
        <time>2021-03-27T11:40:29Z</time>
      </trkpt>
      <trkpt lat="46.1753" lon="6.25684">
        <ele>491.2</ele>
        <time>2021-03-27T11:40:30Z</time>
      </trkpt>
      <trkpt lat="46.17526" lon="6.25688">
        <ele>491.2</ele>
        <time>2021-03-27T11:40:31Z</time>
      </trkpt>
      <trkpt lat="46.17522" lon="6.25691">
        <ele>491.4</ele>
        <time>2021-03-27T11:40:32Z</time>
      </trkpt>
      <trkpt lat="46.17519" lon="6.25694">
        <ele>491.6</ele>
        <time>2021-03-27T11:40:33Z</time>
      </trkpt>
      <trkpt lat="46.17515" lon="6.25697">
        <ele>491.8</ele>
        <time>2021-03-27T11:40:34Z</time>
      </trkpt>
      <trkpt lat="46.17512" lon="6.257">
        <ele>491.8</ele>
        <time>2021-03-27T11:40:35Z</time>
      </trkpt>
      <trkpt lat="46.17508" lon="6.25703">
        <ele>492.2</ele>
        <time>2021-03-27T11:40:36Z</time>
      </trkpt>
      <trkpt lat="46.17505" lon="6.25707">
        <ele>492.6</ele>
        <time>2021-03-27T11:40:37Z</time>
      </trkpt>
      <trkpt lat="46.17502" lon="6.2571">
        <ele>492.8</ele>
        <time>2021-03-27T11:40:38Z</time>
      </trkpt>
      <trkpt lat="46.17498" lon="6.25713">
        <ele>493.4</ele>
        <time>2021-03-27T11:40:39Z</time>
      </trkpt>
      <trkpt lat="46.17495" lon="6.25716">
        <ele>493.4</ele>
        <time>2021-03-27T11:40:40Z</time>
      </trkpt>
      <trkpt lat="46.17492" lon="6.25719">
        <ele>493.6</ele>
        <time>2021-03-27T11:40:41Z</time>
      </trkpt>
      <trkpt lat="46.17489" lon="6.25722">
        <ele>494</ele>
        <time>2021-03-27T11:40:42Z</time>
      </trkpt>
      <trkpt lat="46.17485" lon="6.25725">
        <ele>494.4</ele>
        <time>2021-03-27T11:40:43Z</time>
      </trkpt>
      <trkpt lat="46.17482" lon="6.25727">
        <ele>494.8</ele>
        <time>2021-03-27T11:40:44Z</time>
      </trkpt>
      <trkpt lat="46.17479" lon="6.2573">
        <ele>495</ele>
        <time>2021-03-27T11:40:45Z</time>
      </trkpt>
      <trkpt lat="46.17476" lon="6.25733">
        <ele>495.4</ele>
        <time>2021-03-27T11:40:46Z</time>
      </trkpt>
      <trkpt lat="46.17472" lon="6.25736">
        <ele>495.8</ele>
        <time>2021-03-27T11:40:47Z</time>
      </trkpt>
      <trkpt lat="46.17469" lon="6.25738">
        <ele>496.2</ele>
        <time>2021-03-27T11:40:48Z</time>
      </trkpt>
      <trkpt lat="46.17465" lon="6.25741">
        <ele>496.6</ele>
        <time>2021-03-27T11:40:49Z</time>
      </trkpt>
      <trkpt lat="46.17462" lon="6.25744">
        <ele>497</ele>
        <time>2021-03-27T11:40:50Z</time>
      </trkpt>
      <trkpt lat="46.17459" lon="6.25747">
        <ele>497.4</ele>
        <time>2021-03-27T11:40:51Z</time>
      </trkpt>
      <trkpt lat="46.17455" lon="6.2575">
        <ele>497.6</ele>
        <time>2021-03-27T11:40:52Z</time>
      </trkpt>
      <trkpt lat="46.17452" lon="6.25752">
        <ele>498</ele>
        <time>2021-03-27T11:40:53Z</time>
      </trkpt>
      <trkpt lat="46.17448" lon="6.25755">
        <ele>498.2</ele>
        <time>2021-03-27T11:40:54Z</time>
      </trkpt>
      <trkpt lat="46.17445" lon="6.25758">
        <ele>498.4</ele>
        <time>2021-03-27T11:40:55Z</time>
      </trkpt>
      <trkpt lat="46.17442" lon="6.25761">
        <ele>498.8</ele>
        <time>2021-03-27T11:40:56Z</time>
      </trkpt>
      <trkpt lat="46.17439" lon="6.25765">
        <ele>498.8</ele>
        <time>2021-03-27T11:40:57Z</time>
      </trkpt>
      <trkpt lat="46.17436" lon="6.25769">
        <ele>499</ele>
        <time>2021-03-27T11:40:58Z</time>
      </trkpt>
      <trkpt lat="46.17434" lon="6.25773">
        <ele>499.2</ele>
        <time>2021-03-27T11:40:59Z</time>
      </trkpt>
      <trkpt lat="46.17431" lon="6.25777">
        <ele>499.4</ele>
        <time>2021-03-27T11:41:00Z</time>
      </trkpt>
      <trkpt lat="46.17429" lon="6.2578">
        <ele>499.6</ele>
        <time>2021-03-27T11:41:01Z</time>
      </trkpt>
      <trkpt lat="46.17426" lon="6.25783">
        <ele>500</ele>
        <time>2021-03-27T11:41:02Z</time>
      </trkpt>
      <trkpt lat="46.17423" lon="6.25784">
        <ele>500.2</ele>
        <time>2021-03-27T11:41:03Z</time>
      </trkpt>
      <trkpt lat="46.17421" lon="6.25784">
        <ele>500.4</ele>
        <time>2021-03-27T11:41:04Z</time>
      </trkpt>
      <trkpt lat="46.17418" lon="6.25783">
        <ele>500.6</ele>
        <time>2021-03-27T11:41:05Z</time>
      </trkpt>
      <trkpt lat="46.17415" lon="6.25779">
        <ele>500.8</ele>
        <time>2021-03-27T11:41:06Z</time>
      </trkpt>
      <trkpt lat="46.17414" lon="6.25775">
        <ele>500.8</ele>
        <time>2021-03-27T11:41:07Z</time>
      </trkpt>
      <trkpt lat="46.17412" lon="6.25771">
        <ele>501</ele>
        <time>2021-03-27T11:41:08Z</time>
      </trkpt>
      <trkpt lat="46.17411" lon="6.25767">
        <ele>500.8</ele>
        <time>2021-03-27T11:41:09Z</time>
      </trkpt>
      <trkpt lat="46.1741" lon="6.25764">
        <ele>500.8</ele>
        <time>2021-03-27T11:41:10Z</time>
      </trkpt>
      <trkpt lat="46.17408" lon="6.25761">
        <ele>501</ele>
        <time>2021-03-27T11:41:11Z</time>
      </trkpt>
      <trkpt lat="46.17406" lon="6.2576">
        <ele>501</ele>
        <time>2021-03-27T11:41:12Z</time>
      </trkpt>
      <trkpt lat="46.17403" lon="6.25762">
        <ele>500.8</ele>
        <time>2021-03-27T11:41:13Z</time>
      </trkpt>
      <trkpt lat="46.17401" lon="6.25765">
        <ele>500.8</ele>
        <time>2021-03-27T11:41:14Z</time>
      </trkpt>
      <trkpt lat="46.174" lon="6.25769">
        <ele>501</ele>
        <time>2021-03-27T11:41:15Z</time>
      </trkpt>
      <trkpt lat="46.174" lon="6.25773">
        <ele>500.8</ele>
        <time>2021-03-27T11:41:16Z</time>
      </trkpt>
      <trkpt lat="46.17399" lon="6.25778">
        <ele>500.6</ele>
        <time>2021-03-27T11:41:17Z</time>
      </trkpt>
      <trkpt lat="46.17399" lon="6.25782">
        <ele>500.6</ele>
        <time>2021-03-27T11:41:18Z</time>
      </trkpt>
      <trkpt lat="46.17398" lon="6.25786">
        <ele>500.6</ele>
        <time>2021-03-27T11:41:19Z</time>
      </trkpt>
      <trkpt lat="46.17398" lon="6.25791">
        <ele>500.6</ele>
        <time>2021-03-27T11:41:20Z</time>
      </trkpt>
      <trkpt lat="46.17398" lon="6.25795">
        <ele>500.6</ele>
        <time>2021-03-27T11:41:21Z</time>
      </trkpt>
      <trkpt lat="46.17397" lon="6.25799">
        <ele>500.6</ele>
        <time>2021-03-27T11:41:22Z</time>
      </trkpt>
      <trkpt lat="46.17397" lon="6.25803">
        <ele>500.6</ele>
        <time>2021-03-27T11:41:23Z</time>
      </trkpt>
      <trkpt lat="46.17397" lon="6.25806">
        <ele>500.4</ele>
        <time>2021-03-27T11:41:24Z</time>
      </trkpt>
      <trkpt lat="46.17398" lon="6.25808">
        <ele>500.4</ele>
        <time>2021-03-27T11:41:25Z</time>
      </trkpt>
      <trkpt lat="46.174" lon="6.25808">
        <ele>500.6</ele>
        <time>2021-03-27T11:41:26Z</time>
      </trkpt>
      <trkpt lat="46.17402" lon="6.25808">
        <ele>500.4</ele>
        <time>2021-03-27T11:41:27Z</time>
      </trkpt>
      <trkpt lat="46.17405" lon="6.25807">
        <ele>500.6</ele>
        <time>2021-03-27T11:41:28Z</time>
      </trkpt>
      <trkpt lat="46.17407" lon="6.25806">
        <ele>500.4</ele>
        <time>2021-03-27T11:41:29Z</time>
      </trkpt>
      <trkpt lat="46.17409" lon="6.25808">
        <ele>500.6</ele>
        <time>2021-03-27T11:41:30Z</time>
      </trkpt>
      <trkpt lat="46.17411" lon="6.2581">
        <ele>500.6</ele>
        <time>2021-03-27T11:41:31Z</time>
      </trkpt>
      <trkpt lat="46.17412" lon="6.25814">
        <ele>500.6</ele>
        <time>2021-03-27T11:41:32Z</time>
      </trkpt>
      <trkpt lat="46.17412" lon="6.25819">
        <ele>500.6</ele>
        <time>2021-03-27T11:41:33Z</time>
      </trkpt>
      <trkpt lat="46.17412" lon="6.25824">
        <ele>500.6</ele>
        <time>2021-03-27T11:41:34Z</time>
      </trkpt>
      <trkpt lat="46.17411" lon="6.2583">
        <ele>500.8</ele>
        <time>2021-03-27T11:41:35Z</time>
      </trkpt>
      <trkpt lat="46.1741" lon="6.25835">
        <ele>500.8</ele>
        <time>2021-03-27T11:41:36Z</time>
      </trkpt>
      <trkpt lat="46.17411" lon="6.25841">
        <ele>500.8</ele>
        <time>2021-03-27T11:41:37Z</time>
      </trkpt>
      <trkpt lat="46.17413" lon="6.25847">
        <ele>500.8</ele>
        <time>2021-03-27T11:41:38Z</time>
      </trkpt>
      <trkpt lat="46.17416" lon="6.25851">
        <ele>500.8</ele>
        <time>2021-03-27T11:41:39Z</time>
      </trkpt>
      <trkpt lat="46.1742" lon="6.25854">
        <ele>501</ele>
        <time>2021-03-27T11:41:40Z</time>
      </trkpt>
      <trkpt lat="46.17423" lon="6.25857">
        <ele>501.2</ele>
        <time>2021-03-27T11:41:41Z</time>
      </trkpt>
      <trkpt lat="46.17427" lon="6.25859">
        <ele>501.2</ele>
        <time>2021-03-27T11:41:42Z</time>
      </trkpt>
      <trkpt lat="46.1743" lon="6.2586">
        <ele>501.2</ele>
        <time>2021-03-27T11:41:43Z</time>
      </trkpt>
      <trkpt lat="46.17433" lon="6.25859">
        <ele>501.4</ele>
        <time>2021-03-27T11:41:44Z</time>
      </trkpt>
      <trkpt lat="46.17435" lon="6.25858">
        <ele>501.4</ele>
        <time>2021-03-27T11:41:45Z</time>
      </trkpt>
      <trkpt lat="46.17437" lon="6.25856">
        <ele>501.4</ele>
        <time>2021-03-27T11:41:46Z</time>
      </trkpt>
      <trkpt lat="46.17437" lon="6.25853">
        <ele>501.4</ele>
        <time>2021-03-27T11:41:47Z</time>
      </trkpt>
      <trkpt lat="46.17436" lon="6.2585">
        <ele>501.6</ele>
        <time>2021-03-27T11:41:48Z</time>
      </trkpt>
      <trkpt lat="46.17436" lon="6.25847">
        <ele>501.6</ele>
        <time>2021-03-27T11:41:49Z</time>
      </trkpt>
      <trkpt lat="46.17435" lon="6.25843">
        <ele>501.8</ele>
        <time>2021-03-27T11:41:50Z</time>
      </trkpt>
      <trkpt lat="46.17434" lon="6.25839">
        <ele>502</ele>
        <time>2021-03-27T11:41:51Z</time>
      </trkpt>
      <trkpt lat="46.17433" lon="6.25835">
        <ele>502.2</ele>
        <time>2021-03-27T11:41:52Z</time>
      </trkpt>
      <trkpt lat="46.17434" lon="6.25833">
        <ele>502.4</ele>
        <time>2021-03-27T11:41:53Z</time>
      </trkpt>
      <trkpt lat="46.17434" lon="6.25832">
        <ele>502.4</ele>
        <time>2021-03-27T11:41:54Z</time>
      </trkpt>
      <trkpt lat="46.17434" lon="6.25832">
        <ele>502.4</ele>
        <time>2021-03-27T11:41:55Z</time>
      </trkpt>
      <trkpt lat="46.17434" lon="6.25832">
        <ele>502.6</ele>
        <time>2021-03-27T11:41:56Z</time>
      </trkpt>
      <trkpt lat="46.17434" lon="6.25832">
        <ele>502.6</ele>
        <time>2021-03-27T11:41:57Z</time>
      </trkpt>
      <trkpt lat="46.17435" lon="6.25831">
        <ele>502.8</ele>
        <time>2021-03-27T11:41:58Z</time>
      </trkpt>
      <trkpt lat="46.17435" lon="6.25831">
        <ele>502.8</ele>
        <time>2021-03-27T11:41:59Z</time>
      </trkpt>
      <trkpt lat="46.17435" lon="6.25832">
        <ele>502.8</ele>
        <time>2021-03-27T11:42:00Z</time>
      </trkpt>
      <trkpt lat="46.17435" lon="6.25832">
        <ele>502.8</ele>
        <time>2021-03-27T11:42:01Z</time>
      </trkpt>
      <trkpt lat="46.17435" lon="6.25832">
        <ele>502.8</ele>
        <time>2021-03-27T11:42:02Z</time>
      </trkpt>
      <trkpt lat="46.17435" lon="6.25832">
        <ele>503</ele>
        <time>2021-03-27T11:42:03Z</time>
      </trkpt>
      <trkpt lat="46.17435" lon="6.25832">
        <ele>503.2</ele>
        <time>2021-03-27T11:42:04Z</time>
      </trkpt>
      <trkpt lat="46.17435" lon="6.25832">
        <ele>503</ele>
        <time>2021-03-27T11:42:05Z</time>
      </trkpt>
      <trkpt lat="46.17435" lon="6.25832">
        <ele>503</ele>
        <time>2021-03-27T11:42:06Z</time>
      </trkpt>
      <trkpt lat="46.17435" lon="6.25832">
        <ele>503</ele>
        <time>2021-03-27T11:42:07Z</time>
      </trkpt>
      <trkpt lat="46.17435" lon="6.25832">
        <ele>503.2</ele>
        <time>2021-03-27T11:42:08Z</time>
      </trkpt>
      <trkpt lat="46.17435" lon="6.25832">
        <ele>503</ele>
        <time>2021-03-27T11:42:09Z</time>
      </trkpt>
      <trkpt lat="46.17435" lon="6.25832">
        <ele>503.2</ele>
        <time>2021-03-27T11:42:10Z</time>
      </trkpt>
      <trkpt lat="46.17435" lon="6.25832">
        <ele>503.2</ele>
        <time>2021-03-27T11:42:11Z</time>
      </trkpt>
      <trkpt lat="46.17435" lon="6.25832">
        <ele>503.4</ele>
        <time>2021-03-27T11:42:12Z</time>
      </trkpt>
      <trkpt lat="46.17435" lon="6.25832">
        <ele>503.4</ele>
        <time>2021-03-27T11:42:13Z</time>
      </trkpt>
      <trkpt lat="46.17435" lon="6.25832">
        <ele>503.4</ele>
        <time>2021-03-27T11:42:14Z</time>
      </trkpt>
      <trkpt lat="46.17435" lon="6.25832">
        <ele>503.4</ele>
        <time>2021-03-27T11:42:15Z</time>
      </trkpt>
      <trkpt lat="46.17435" lon="6.25832">
        <ele>503.4</ele>
        <time>2021-03-27T11:42:16Z</time>
      </trkpt>
      <trkpt lat="46.17435" lon="6.25832">
        <ele>503.4</ele>
        <time>2021-03-27T11:42:17Z</time>
      </trkpt>
      <trkpt lat="46.17435" lon="6.25832">
        <ele>503.4</ele>
        <time>2021-03-27T11:42:18Z</time>
      </trkpt>
      <trkpt lat="46.17435" lon="6.25832">
        <ele>503.4</ele>
        <time>2021-03-27T11:42:19Z</time>
      </trkpt>
      <trkpt lat="46.17435" lon="6.25832">
        <ele>503.4</ele>
        <time>2021-03-27T11:42:20Z</time>
      </trkpt>
      <trkpt lat="46.17435" lon="6.25832">
        <ele>503.2</ele>
        <time>2021-03-27T11:42:21Z</time>
      </trkpt>
      <trkpt lat="46.17435" lon="6.25832">
        <ele>503.4</ele>
        <time>2021-03-27T11:42:22Z</time>
      </trkpt>
      <trkpt lat="46.17435" lon="6.25832">
        <ele>503.4</ele>
        <time>2021-03-27T11:42:23Z</time>
      </trkpt>
      <trkpt lat="46.17435" lon="6.25832">
        <ele>503.4</ele>
        <time>2021-03-27T11:42:24Z</time>
      </trkpt>
      <trkpt lat="46.17435" lon="6.25832">
        <ele>503.4</ele>
        <time>2021-03-27T11:42:25Z</time>
      </trkpt>
      <trkpt lat="46.17435" lon="6.25832">
        <ele>503.2</ele>
        <time>2021-03-27T11:42:26Z</time>
      </trkpt>
      <trkpt lat="46.17435" lon="6.25832">
        <ele>503.2</ele>
        <time>2021-03-27T11:42:27Z</time>
      </trkpt>
      <trkpt lat="46.17435" lon="6.25832">
        <ele>503.4</ele>
        <time>2021-03-27T11:42:28Z</time>
      </trkpt>
      <trkpt lat="46.17435" lon="6.25832">
        <ele>503.4</ele>
        <time>2021-03-27T11:42:29Z</time>
      </trkpt>
      <trkpt lat="46.17435" lon="6.25832">
        <ele>503.4</ele>
        <time>2021-03-27T11:42:30Z</time>
      </trkpt>
      <trkpt lat="46.17435" lon="6.25832">
        <ele>503.4</ele>
        <time>2021-03-27T11:42:31Z</time>
      </trkpt>
      <trkpt lat="46.17435" lon="6.25832">
        <ele>503.2</ele>
        <time>2021-03-27T11:42:32Z</time>
      </trkpt>
      <trkpt lat="46.17435" lon="6.25832">
        <ele>503.2</ele>
        <time>2021-03-27T11:42:33Z</time>
      </trkpt>
      <trkpt lat="46.17435" lon="6.25832">
        <ele>503.4</ele>
        <time>2021-03-27T11:42:34Z</time>
      </trkpt>
      <trkpt lat="46.17435" lon="6.25832">
        <ele>503.2</ele>
        <time>2021-03-27T11:42:35Z</time>
      </trkpt>
      <trkpt lat="46.17435" lon="6.25832">
        <ele>503.2</ele>
        <time>2021-03-27T11:42:36Z</time>
      </trkpt>
      <trkpt lat="46.17435" lon="6.25832">
        <ele>503.2</ele>
        <time>2021-03-27T11:42:37Z</time>
      </trkpt>
      <trkpt lat="46.17435" lon="6.25832">
        <ele>503.2</ele>
        <time>2021-03-27T11:42:38Z</time>
      </trkpt>
      <trkpt lat="46.17435" lon="6.25832">
        <ele>503.2</ele>
        <time>2021-03-27T11:42:39Z</time>
      </trkpt>
      <trkpt lat="46.17435" lon="6.25832">
        <ele>503.2</ele>
        <time>2021-03-27T11:42:40Z</time>
      </trkpt>
      <trkpt lat="46.17435" lon="6.25832">
        <ele>503.2</ele>
        <time>2021-03-27T11:42:41Z</time>
      </trkpt>
      <trkpt lat="46.17435" lon="6.25832">
        <ele>503.2</ele>
        <time>2021-03-27T11:42:42Z</time>
      </trkpt>
      <trkpt lat="46.17435" lon="6.25832">
        <ele>503.2</ele>
        <time>2021-03-27T11:42:43Z</time>
      </trkpt>
      <trkpt lat="46.17435" lon="6.25832">
        <ele>503.2</ele>
        <time>2021-03-27T11:42:44Z</time>
      </trkpt>
      <trkpt lat="46.17435" lon="6.25832">
        <ele>503.2</ele>
        <time>2021-03-27T11:42:45Z</time>
      </trkpt>
      <trkpt lat="46.17435" lon="6.25832">
        <ele>503.2</ele>
        <time>2021-03-27T11:42:46Z</time>
      </trkpt>
      <trkpt lat="46.17435" lon="6.25832">
        <ele>503.2</ele>
        <time>2021-03-27T11:42:47Z</time>
      </trkpt>
      <trkpt lat="46.17435" lon="6.25832">
        <ele>503.4</ele>
        <time>2021-03-27T11:42:48Z</time>
      </trkpt>
      <trkpt lat="46.17435" lon="6.25832">
        <ele>503.2</ele>
        <time>2021-03-27T11:42:49Z</time>
      </trkpt>
      <trkpt lat="46.17435" lon="6.25832">
        <ele>503</ele>
        <time>2021-03-27T11:42:50Z</time>
      </trkpt>
      <trkpt lat="46.17435" lon="6.25832">
        <ele>503.2</ele>
        <time>2021-03-27T11:42:51Z</time>
      </trkpt>
      <trkpt lat="46.17435" lon="6.25832">
        <ele>503</ele>
        <time>2021-03-27T11:42:52Z</time>
      </trkpt>
      <trkpt lat="46.17435" lon="6.25832">
        <ele>503.2</ele>
        <time>2021-03-27T11:42:53Z</time>
      </trkpt>
      <trkpt lat="46.17435" lon="6.25832">
        <ele>503.2</ele>
        <time>2021-03-27T11:42:54Z</time>
      </trkpt>
      <trkpt lat="46.17435" lon="6.25832">
        <ele>503.2</ele>
        <time>2021-03-27T11:42:55Z</time>
      </trkpt>
      <trkpt lat="46.17435" lon="6.25832">
        <ele>503.2</ele>
        <time>2021-03-27T11:42:56Z</time>
      </trkpt>
      <trkpt lat="46.17435" lon="6.25832">
        <ele>503</ele>
        <time>2021-03-27T11:42:57Z</time>
      </trkpt>
      <trkpt lat="46.17435" lon="6.25832">
        <ele>503</ele>
        <time>2021-03-27T11:42:58Z</time>
      </trkpt>
      <trkpt lat="46.17435" lon="6.25832">
        <ele>503.2</ele>
        <time>2021-03-27T11:42:59Z</time>
      </trkpt>
      <trkpt lat="46.17435" lon="6.25832">
        <ele>503.2</ele>
        <time>2021-03-27T11:43:00Z</time>
      </trkpt>
      <trkpt lat="46.17435" lon="6.25832">
        <ele>503.2</ele>
        <time>2021-03-27T11:43:01Z</time>
      </trkpt>
      <trkpt lat="46.17435" lon="6.25832">
        <ele>503.2</ele>
        <time>2021-03-27T11:43:02Z</time>
      </trkpt>
      <trkpt lat="46.17435" lon="6.25832">
        <ele>503.2</ele>
        <time>2021-03-27T11:43:03Z</time>
      </trkpt>
      <trkpt lat="46.17435" lon="6.25832">
        <ele>503.2</ele>
        <time>2021-03-27T11:43:04Z</time>
      </trkpt>
      <trkpt lat="46.17435" lon="6.25832">
        <ele>503</ele>
        <time>2021-03-27T11:43:05Z</time>
      </trkpt>
      <trkpt lat="46.17435" lon="6.25832">
        <ele>503</ele>
        <time>2021-03-27T11:43:06Z</time>
      </trkpt>
      <trkpt lat="46.17435" lon="6.25832">
        <ele>503</ele>
        <time>2021-03-27T11:43:07Z</time>
      </trkpt>
      <trkpt lat="46.17435" lon="6.25832">
        <ele>503.2</ele>
        <time>2021-03-27T11:43:08Z</time>
      </trkpt>
      <trkpt lat="46.17435" lon="6.25832">
        <ele>503</ele>
        <time>2021-03-27T11:43:09Z</time>
      </trkpt>
      <trkpt lat="46.17435" lon="6.25832">
        <ele>503</ele>
        <time>2021-03-27T11:43:10Z</time>
      </trkpt>
      <trkpt lat="46.17435" lon="6.25832">
        <ele>503</ele>
        <time>2021-03-27T11:43:11Z</time>
      </trkpt>
      <trkpt lat="46.17435" lon="6.25832">
        <ele>503.2</ele>
        <time>2021-03-27T11:43:12Z</time>
      </trkpt>
      <trkpt lat="46.17435" lon="6.25832">
        <ele>503.2</ele>
        <time>2021-03-27T11:43:13Z</time>
      </trkpt>
      <trkpt lat="46.17435" lon="6.25832">
        <ele>503.2</ele>
        <time>2021-03-27T11:43:14Z</time>
      </trkpt>
      <trkpt lat="46.17435" lon="6.25832">
        <ele>503.4</ele>
        <time>2021-03-27T11:43:15Z</time>
      </trkpt>
      <trkpt lat="46.17435" lon="6.25832">
        <ele>503.2</ele>
        <time>2021-03-27T11:43:16Z</time>
      </trkpt>
      <trkpt lat="46.17435" lon="6.25832">
        <ele>503.4</ele>
        <time>2021-03-27T11:43:17Z</time>
      </trkpt>
      <trkpt lat="46.17435" lon="6.25832">
        <ele>503.4</ele>
        <time>2021-03-27T11:43:18Z</time>
      </trkpt>
      <trkpt lat="46.17435" lon="6.25832">
        <ele>503.4</ele>
        <time>2021-03-27T11:43:19Z</time>
      </trkpt>
      <trkpt lat="46.17435" lon="6.25832">
        <ele>503.4</ele>
        <time>2021-03-27T11:43:20Z</time>
      </trkpt>
      <trkpt lat="46.17435" lon="6.25832">
        <ele>503.4</ele>
        <time>2021-03-27T11:43:21Z</time>
      </trkpt>
      <trkpt lat="46.17435" lon="6.25832">
        <ele>503.6</ele>
        <time>2021-03-27T11:43:22Z</time>
      </trkpt>
      <trkpt lat="46.17435" lon="6.25832">
        <ele>503.6</ele>
        <time>2021-03-27T11:43:23Z</time>
      </trkpt>
      <trkpt lat="46.17435" lon="6.25832">
        <ele>503.4</ele>
        <time>2021-03-27T11:43:24Z</time>
      </trkpt>
      <trkpt lat="46.17435" lon="6.25832">
        <ele>503.6</ele>
        <time>2021-03-27T11:43:25Z</time>
      </trkpt>
      <trkpt lat="46.17435" lon="6.25832">
        <ele>503.4</ele>
        <time>2021-03-27T11:43:26Z</time>
      </trkpt>
      <trkpt lat="46.17435" lon="6.25832">
        <ele>503.4</ele>
        <time>2021-03-27T11:43:27Z</time>
      </trkpt>
      <trkpt lat="46.17435" lon="6.25832">
        <ele>503.4</ele>
        <time>2021-03-27T11:43:28Z</time>
      </trkpt>
      <trkpt lat="46.17435" lon="6.25832">
        <ele>503.6</ele>
        <time>2021-03-27T11:43:29Z</time>
      </trkpt>
      <trkpt lat="46.17435" lon="6.25832">
        <ele>503.6</ele>
        <time>2021-03-27T11:43:30Z</time>
      </trkpt>
      <trkpt lat="46.17435" lon="6.25832">
        <ele>503.4</ele>
        <time>2021-03-27T11:43:31Z</time>
      </trkpt>
      <trkpt lat="46.17435" lon="6.25832">
        <ele>503.6</ele>
        <time>2021-03-27T11:43:32Z</time>
      </trkpt>
      <trkpt lat="46.17435" lon="6.25832">
        <ele>503.6</ele>
        <time>2021-03-27T11:43:33Z</time>
      </trkpt>
      <trkpt lat="46.17435" lon="6.25832">
        <ele>503.4</ele>
        <time>2021-03-27T11:43:34Z</time>
      </trkpt>
      <trkpt lat="46.17435" lon="6.25832">
        <ele>503.4</ele>
        <time>2021-03-27T11:43:35Z</time>
      </trkpt>
      <trkpt lat="46.17435" lon="6.25832">
        <ele>503.2</ele>
        <time>2021-03-27T11:43:36Z</time>
      </trkpt>
      <trkpt lat="46.17435" lon="6.25832">
        <ele>503.2</ele>
        <time>2021-03-27T11:43:37Z</time>
      </trkpt>
      <trkpt lat="46.17435" lon="6.25832">
        <ele>503.2</ele>
        <time>2021-03-27T11:43:38Z</time>
      </trkpt>
      <trkpt lat="46.17435" lon="6.25832">
        <ele>502.8</ele>
        <time>2021-03-27T11:43:39Z</time>
      </trkpt>
      <trkpt lat="46.17435" lon="6.25832">
        <ele>502.8</ele>
        <time>2021-03-27T11:43:40Z</time>
      </trkpt>
      <trkpt lat="46.17435" lon="6.25831">
        <ele>502.8</ele>
        <time>2021-03-27T11:43:41Z</time>
      </trkpt>
      <trkpt lat="46.17435" lon="6.25831">
        <ele>502.6</ele>
        <time>2021-03-27T11:43:42Z</time>
      </trkpt>
      <trkpt lat="46.17435" lon="6.25831">
        <ele>502.6</ele>
        <time>2021-03-27T11:43:43Z</time>
      </trkpt>
      <trkpt lat="46.17435" lon="6.25831">
        <ele>502.6</ele>
        <time>2021-03-27T11:43:44Z</time>
      </trkpt>
      <trkpt lat="46.17435" lon="6.25831">
        <ele>502.6</ele>
        <time>2021-03-27T11:43:45Z</time>
      </trkpt>
      <trkpt lat="46.17435" lon="6.25832">
        <ele>502.6</ele>
        <time>2021-03-27T11:43:46Z</time>
      </trkpt>
      <trkpt lat="46.17435" lon="6.25832">
        <ele>502.6</ele>
        <time>2021-03-27T11:43:47Z</time>
      </trkpt>
      <trkpt lat="46.17435" lon="6.25832">
        <ele>502.6</ele>
        <time>2021-03-27T11:43:48Z</time>
      </trkpt>
      <trkpt lat="46.17435" lon="6.25831">
        <ele>502.6</ele>
        <time>2021-03-27T11:43:49Z</time>
      </trkpt>
      <trkpt lat="46.17435" lon="6.25832">
        <ele>502.6</ele>
        <time>2021-03-27T11:43:51Z</time>
      </trkpt>
      <trkpt lat="46.17435" lon="6.25832">
        <ele>502.4</ele>
        <time>2021-03-27T11:43:52Z</time>
      </trkpt>
      <trkpt lat="46.17435" lon="6.25832">
        <ele>502.4</ele>
        <time>2021-03-27T11:43:53Z</time>
      </trkpt>
      <trkpt lat="46.17435" lon="6.25831">
        <ele>502.4</ele>
        <time>2021-03-27T11:43:55Z</time>
      </trkpt>
      <trkpt lat="46.17435" lon="6.25831">
        <ele>502.4</ele>
        <time>2021-03-27T11:43:56Z</time>
      </trkpt>
      <trkpt lat="46.17435" lon="6.25831">
        <ele>502.4</ele>
        <time>2021-03-27T11:43:57Z</time>
      </trkpt>
      <trkpt lat="46.17435" lon="6.25831">
        <ele>502.6</ele>
        <time>2021-03-27T11:43:58Z</time>
      </trkpt>
      <trkpt lat="46.17435" lon="6.25832">
        <ele>502.6</ele>
        <time>2021-03-27T11:43:59Z</time>
      </trkpt>
      <trkpt lat="46.17435" lon="6.25832">
        <ele>502.4</ele>
        <time>2021-03-27T11:44:00Z</time>
      </trkpt>
      <trkpt lat="46.17435" lon="6.25832">
        <ele>502.6</ele>
        <time>2021-03-27T11:44:01Z</time>
      </trkpt>
      <trkpt lat="46.17435" lon="6.25832">
        <ele>502.4</ele>
        <time>2021-03-27T11:44:02Z</time>
      </trkpt>
      <trkpt lat="46.17435" lon="6.25832">
        <ele>502.6</ele>
        <time>2021-03-27T11:44:03Z</time>
      </trkpt>
      <trkpt lat="46.17435" lon="6.25832">
        <ele>502.6</ele>
        <time>2021-03-27T11:44:04Z</time>
      </trkpt>
      <trkpt lat="46.17435" lon="6.25832">
        <ele>502.4</ele>
        <time>2021-03-27T11:44:05Z</time>
      </trkpt>
      <trkpt lat="46.17435" lon="6.25832">
        <ele>502.4</ele>
        <time>2021-03-27T11:44:06Z</time>
      </trkpt>
      <trkpt lat="46.17435" lon="6.25832">
        <ele>502.4</ele>
        <time>2021-03-27T11:44:07Z</time>
      </trkpt>
      <trkpt lat="46.17435" lon="6.25832">
        <ele>502.2</ele>
        <time>2021-03-27T11:44:08Z</time>
      </trkpt>
      <trkpt lat="46.17435" lon="6.25832">
        <ele>502.2</ele>
        <time>2021-03-27T11:44:09Z</time>
      </trkpt>
      <trkpt lat="46.17435" lon="6.25832">
        <ele>502.4</ele>
        <time>2021-03-27T11:44:10Z</time>
      </trkpt>
      <trkpt lat="46.17435" lon="6.25832">
        <ele>502.4</ele>
        <time>2021-03-27T11:44:11Z</time>
      </trkpt>
      <trkpt lat="46.17435" lon="6.25832">
        <ele>502.4</ele>
        <time>2021-03-27T11:44:12Z</time>
      </trkpt>
      <trkpt lat="46.17435" lon="6.25832">
        <ele>502.4</ele>
        <time>2021-03-27T11:44:13Z</time>
      </trkpt>
      <trkpt lat="46.17435" lon="6.25832">
        <ele>502.2</ele>
        <time>2021-03-27T11:44:14Z</time>
      </trkpt>
      <trkpt lat="46.17435" lon="6.25832">
        <ele>502.2</ele>
        <time>2021-03-27T11:44:15Z</time>
      </trkpt>
      <trkpt lat="46.17435" lon="6.25832">
        <ele>502.4</ele>
        <time>2021-03-27T11:44:16Z</time>
      </trkpt>
      <trkpt lat="46.17435" lon="6.25832">
        <ele>502.4</ele>
        <time>2021-03-27T11:44:17Z</time>
      </trkpt>
      <trkpt lat="46.17435" lon="6.25831">
        <ele>502.4</ele>
        <time>2021-03-27T11:44:18Z</time>
      </trkpt>
      <trkpt lat="46.17435" lon="6.25831">
        <ele>502.2</ele>
        <time>2021-03-27T11:44:19Z</time>
      </trkpt>
      <trkpt lat="46.17435" lon="6.25831">
        <ele>502.4</ele>
        <time>2021-03-27T11:44:20Z</time>
      </trkpt>
      <trkpt lat="46.17435" lon="6.25831">
        <ele>502.4</ele>
        <time>2021-03-27T11:44:21Z</time>
      </trkpt>
      <trkpt lat="46.17435" lon="6.25831">
        <ele>502.4</ele>
        <time>2021-03-27T11:44:22Z</time>
      </trkpt>
      <trkpt lat="46.17435" lon="6.25831">
        <ele>502.4</ele>
        <time>2021-03-27T11:44:23Z</time>
      </trkpt>
      <trkpt lat="46.17435" lon="6.25831">
        <ele>502.4</ele>
        <time>2021-03-27T11:44:24Z</time>
      </trkpt>
      <trkpt lat="46.17435" lon="6.25831">
        <ele>502.6</ele>
        <time>2021-03-27T11:44:26Z</time>
      </trkpt>
      <trkpt lat="46.17435" lon="6.25831">
        <ele>502.6</ele>
        <time>2021-03-27T11:44:28Z</time>
      </trkpt>
      <trkpt lat="46.17435" lon="6.25831">
        <ele>502.6</ele>
        <time>2021-03-27T11:44:29Z</time>
      </trkpt>
      <trkpt lat="46.17435" lon="6.25831">
        <ele>502.6</ele>
        <time>2021-03-27T11:44:30Z</time>
      </trkpt>
      <trkpt lat="46.17435" lon="6.25831">
        <ele>502.6</ele>
        <time>2021-03-27T11:44:31Z</time>
      </trkpt>
      <trkpt lat="46.17435" lon="6.25831">
        <ele>502.6</ele>
        <time>2021-03-27T11:44:32Z</time>
      </trkpt>
      <trkpt lat="46.17435" lon="6.25831">
        <ele>502.8</ele>
        <time>2021-03-27T11:44:33Z</time>
      </trkpt>
      <trkpt lat="46.17435" lon="6.25831">
        <ele>502.8</ele>
        <time>2021-03-27T11:44:34Z</time>
      </trkpt>
      <trkpt lat="46.17435" lon="6.25831">
        <ele>502.6</ele>
        <time>2021-03-27T11:44:35Z</time>
      </trkpt>
      <trkpt lat="46.17436" lon="6.25831">
        <ele>502.6</ele>
        <time>2021-03-27T11:44:36Z</time>
      </trkpt>
      <trkpt lat="46.17436" lon="6.25832">
        <ele>502.6</ele>
        <time>2021-03-27T11:44:37Z</time>
      </trkpt>
      <trkpt lat="46.17436" lon="6.25832">
        <ele>502.4</ele>
        <time>2021-03-27T11:44:38Z</time>
      </trkpt>
      <trkpt lat="46.17436" lon="6.25831">
        <ele>502.4</ele>
        <time>2021-03-27T11:44:39Z</time>
      </trkpt>
      <trkpt lat="46.17436" lon="6.25831">
        <ele>502.4</ele>
        <time>2021-03-27T11:44:40Z</time>
      </trkpt>
      <trkpt lat="46.17436" lon="6.25831">
        <ele>502.4</ele>
        <time>2021-03-27T11:44:41Z</time>
      </trkpt>
      <trkpt lat="46.17436" lon="6.25831">
        <ele>502.4</ele>
        <time>2021-03-27T11:44:42Z</time>
      </trkpt>
      <trkpt lat="46.17436" lon="6.25831">
        <ele>502.2</ele>
        <time>2021-03-27T11:44:43Z</time>
      </trkpt>
      <trkpt lat="46.17435" lon="6.25831">
        <ele>502.2</ele>
        <time>2021-03-27T11:44:44Z</time>
      </trkpt>
      <trkpt lat="46.17435" lon="6.25831">
        <ele>502.2</ele>
        <time>2021-03-27T11:44:45Z</time>
      </trkpt>
      <trkpt lat="46.17435" lon="6.25831">
        <ele>502.4</ele>
        <time>2021-03-27T11:44:46Z</time>
      </trkpt>
      <trkpt lat="46.17435" lon="6.25831">
        <ele>502.2</ele>
        <time>2021-03-27T11:44:47Z</time>
      </trkpt>
      <trkpt lat="46.17435" lon="6.25831">
        <ele>502.2</ele>
        <time>2021-03-27T11:44:48Z</time>
      </trkpt>
      <trkpt lat="46.17435" lon="6.25831">
        <ele>502.2</ele>
        <time>2021-03-27T11:44:49Z</time>
      </trkpt>
      <trkpt lat="46.17435" lon="6.25831">
        <ele>502.2</ele>
        <time>2021-03-27T11:44:50Z</time>
      </trkpt>
      <trkpt lat="46.17435" lon="6.25831">
        <ele>502.2</ele>
        <time>2021-03-27T11:44:51Z</time>
      </trkpt>
      <trkpt lat="46.17435" lon="6.25831">
        <ele>502.2</ele>
        <time>2021-03-27T11:44:52Z</time>
      </trkpt>
      <trkpt lat="46.17435" lon="6.25831">
        <ele>502.2</ele>
        <time>2021-03-27T11:44:53Z</time>
      </trkpt>
      <trkpt lat="46.17435" lon="6.25831">
        <ele>502.4</ele>
        <time>2021-03-27T11:44:54Z</time>
      </trkpt>
      <trkpt lat="46.17435" lon="6.25831">
        <ele>502.6</ele>
        <time>2021-03-27T11:44:55Z</time>
      </trkpt>
      <trkpt lat="46.17435" lon="6.25831">
        <ele>502.6</ele>
        <time>2021-03-27T11:44:56Z</time>
      </trkpt>
      <trkpt lat="46.17435" lon="6.25831">
        <ele>502.8</ele>
        <time>2021-03-27T11:44:57Z</time>
      </trkpt>
      <trkpt lat="46.17435" lon="6.25831">
        <ele>502.6</ele>
        <time>2021-03-27T11:44:58Z</time>
      </trkpt>
      <trkpt lat="46.17435" lon="6.25831">
        <ele>502.8</ele>
        <time>2021-03-27T11:44:59Z</time>
      </trkpt>
      <trkpt lat="46.17435" lon="6.25831">
        <ele>502.6</ele>
        <time>2021-03-27T11:45:00Z</time>
      </trkpt>
      <trkpt lat="46.17435" lon="6.25831">
        <ele>502.8</ele>
        <time>2021-03-27T11:45:01Z</time>
      </trkpt>
      <trkpt lat="46.17435" lon="6.25831">
        <ele>502.6</ele>
        <time>2021-03-27T11:45:02Z</time>
      </trkpt>
      <trkpt lat="46.17435" lon="6.25831">
        <ele>502.6</ele>
        <time>2021-03-27T11:45:03Z</time>
      </trkpt>
      <trkpt lat="46.17435" lon="6.25831">
        <ele>502.6</ele>
        <time>2021-03-27T11:45:04Z</time>
      </trkpt>
      <trkpt lat="46.17435" lon="6.25831">
        <ele>502.8</ele>
        <time>2021-03-27T11:45:05Z</time>
      </trkpt>
      <trkpt lat="46.17435" lon="6.25831">
        <ele>502.6</ele>
        <time>2021-03-27T11:45:06Z</time>
      </trkpt>
      <trkpt lat="46.17436" lon="6.25831">
        <ele>502.6</ele>
        <time>2021-03-27T11:45:07Z</time>
      </trkpt>
      <trkpt lat="46.17436" lon="6.25831">
        <ele>502.6</ele>
        <time>2021-03-27T11:45:08Z</time>
      </trkpt>
      <trkpt lat="46.17436" lon="6.25831">
        <ele>502.6</ele>
        <time>2021-03-27T11:45:09Z</time>
      </trkpt>
      <trkpt lat="46.17436" lon="6.25831">
        <ele>502.6</ele>
        <time>2021-03-27T11:45:10Z</time>
      </trkpt>
      <trkpt lat="46.17435" lon="6.25831">
        <ele>502.6</ele>
        <time>2021-03-27T11:45:11Z</time>
      </trkpt>
      <trkpt lat="46.17435" lon="6.25831">
        <ele>502.4</ele>
        <time>2021-03-27T11:45:12Z</time>
      </trkpt>
      <trkpt lat="46.17435" lon="6.25831">
        <ele>502.4</ele>
        <time>2021-03-27T11:45:13Z</time>
      </trkpt>
      <trkpt lat="46.17435" lon="6.25831">
        <ele>502.4</ele>
        <time>2021-03-27T11:45:14Z</time>
      </trkpt>
      <trkpt lat="46.17435" lon="6.25831">
        <ele>502.4</ele>
        <time>2021-03-27T11:45:15Z</time>
      </trkpt>
      <trkpt lat="46.17436" lon="6.25831">
        <ele>502.4</ele>
        <time>2021-03-27T11:45:16Z</time>
      </trkpt>
      <trkpt lat="46.17435" lon="6.25831">
        <ele>502.2</ele>
        <time>2021-03-27T11:45:17Z</time>
      </trkpt>
      <trkpt lat="46.17435" lon="6.25831">
        <ele>502.2</ele>
        <time>2021-03-27T11:45:18Z</time>
      </trkpt>
      <trkpt lat="46.17435" lon="6.25831">
        <ele>502.4</ele>
        <time>2021-03-27T11:45:19Z</time>
      </trkpt>
      <trkpt lat="46.17435" lon="6.25831">
        <ele>502.2</ele>
        <time>2021-03-27T11:45:20Z</time>
      </trkpt>
      <trkpt lat="46.17435" lon="6.25831">
        <ele>502.2</ele>
        <time>2021-03-27T11:45:21Z</time>
      </trkpt>
      <trkpt lat="46.17435" lon="6.25831">
        <ele>502.2</ele>
        <time>2021-03-27T11:45:22Z</time>
      </trkpt>
      <trkpt lat="46.17435" lon="6.25831">
        <ele>502.2</ele>
        <time>2021-03-27T11:45:23Z</time>
      </trkpt>
      <trkpt lat="46.17435" lon="6.25831">
        <ele>502.2</ele>
        <time>2021-03-27T11:45:24Z</time>
      </trkpt>
      <trkpt lat="46.17435" lon="6.25831">
        <ele>502.2</ele>
        <time>2021-03-27T11:45:25Z</time>
      </trkpt>
      <trkpt lat="46.17435" lon="6.25831">
        <ele>502.2</ele>
        <time>2021-03-27T11:45:26Z</time>
      </trkpt>
      <trkpt lat="46.17435" lon="6.25831">
        <ele>502.2</ele>
        <time>2021-03-27T11:45:27Z</time>
      </trkpt>
      <trkpt lat="46.17435" lon="6.25831">
        <ele>502.2</ele>
        <time>2021-03-27T11:45:28Z</time>
      </trkpt>
      <trkpt lat="46.17435" lon="6.25831">
        <ele>502.2</ele>
        <time>2021-03-27T11:45:29Z</time>
      </trkpt>
      <trkpt lat="46.17435" lon="6.25831">
        <ele>502.2</ele>
        <time>2021-03-27T11:45:30Z</time>
      </trkpt>
      <trkpt lat="46.17436" lon="6.25831">
        <ele>502.2</ele>
        <time>2021-03-27T11:45:31Z</time>
      </trkpt>
      <trkpt lat="46.17436" lon="6.25832">
        <ele>502.2</ele>
        <time>2021-03-27T11:45:32Z</time>
      </trkpt>
      <trkpt lat="46.17436" lon="6.25832">
        <ele>502.2</ele>
        <time>2021-03-27T11:45:33Z</time>
      </trkpt>
      <trkpt lat="46.17436" lon="6.25831">
        <ele>502.2</ele>
        <time>2021-03-27T11:45:34Z</time>
      </trkpt>
      <trkpt lat="46.17436" lon="6.25831">
        <ele>502.2</ele>
        <time>2021-03-27T11:45:35Z</time>
      </trkpt>
      <trkpt lat="46.17436" lon="6.25831">
        <ele>502.2</ele>
        <time>2021-03-27T11:45:36Z</time>
      </trkpt>
      <trkpt lat="46.17436" lon="6.25831">
        <ele>502.2</ele>
        <time>2021-03-27T11:45:37Z</time>
      </trkpt>
      <trkpt lat="46.17436" lon="6.25831">
        <ele>502.4</ele>
        <time>2021-03-27T11:45:38Z</time>
      </trkpt>
      <trkpt lat="46.17436" lon="6.25831">
        <ele>502.2</ele>
        <time>2021-03-27T11:45:39Z</time>
      </trkpt>
      <trkpt lat="46.17436" lon="6.25831">
        <ele>502.4</ele>
        <time>2021-03-27T11:45:40Z</time>
      </trkpt>
      <trkpt lat="46.17436" lon="6.25832">
        <ele>502.2</ele>
        <time>2021-03-27T11:45:41Z</time>
      </trkpt>
      <trkpt lat="46.17436" lon="6.25832">
        <ele>502.4</ele>
        <time>2021-03-27T11:45:42Z</time>
      </trkpt>
      <trkpt lat="46.17436" lon="6.25832">
        <ele>502.4</ele>
        <time>2021-03-27T11:45:43Z</time>
      </trkpt>
      <trkpt lat="46.17436" lon="6.25832">
        <ele>502.2</ele>
        <time>2021-03-27T11:45:44Z</time>
      </trkpt>
      <trkpt lat="46.17436" lon="6.25832">
        <ele>502.2</ele>
        <time>2021-03-27T11:45:45Z</time>
      </trkpt>
      <trkpt lat="46.17436" lon="6.25832">
        <ele>502.4</ele>
        <time>2021-03-27T11:45:46Z</time>
      </trkpt>
      <trkpt lat="46.17436" lon="6.25833">
        <ele>502.2</ele>
        <time>2021-03-27T11:45:47Z</time>
      </trkpt>
      <trkpt lat="46.17435" lon="6.25833">
        <ele>502.4</ele>
        <time>2021-03-27T11:45:48Z</time>
      </trkpt>
      <trkpt lat="46.17435" lon="6.25833">
        <ele>502.2</ele>
        <time>2021-03-27T11:45:49Z</time>
      </trkpt>
      <trkpt lat="46.17435" lon="6.25833">
        <ele>502.2</ele>
        <time>2021-03-27T11:45:50Z</time>
      </trkpt>
      <trkpt lat="46.17435" lon="6.25833">
        <ele>502.2</ele>
        <time>2021-03-27T11:45:51Z</time>
      </trkpt>
      <trkpt lat="46.17435" lon="6.25833">
        <ele>502.4</ele>
        <time>2021-03-27T11:45:52Z</time>
      </trkpt>
      <trkpt lat="46.17435" lon="6.25834">
        <ele>502.2</ele>
        <time>2021-03-27T11:45:53Z</time>
      </trkpt>
      <trkpt lat="46.17435" lon="6.25834">
        <ele>502.2</ele>
        <time>2021-03-27T11:45:54Z</time>
      </trkpt>
      <trkpt lat="46.17435" lon="6.25834">
        <ele>502.2</ele>
        <time>2021-03-27T11:45:55Z</time>
      </trkpt>
      <trkpt lat="46.17435" lon="6.25834">
        <ele>502.2</ele>
        <time>2021-03-27T11:45:56Z</time>
      </trkpt>
      <trkpt lat="46.17435" lon="6.25834">
        <ele>502.2</ele>
        <time>2021-03-27T11:45:57Z</time>
      </trkpt>
      <trkpt lat="46.17435" lon="6.25834">
        <ele>502.4</ele>
        <time>2021-03-27T11:45:58Z</time>
      </trkpt>
      <trkpt lat="46.17435" lon="6.25834">
        <ele>502.4</ele>
        <time>2021-03-27T11:45:59Z</time>
      </trkpt>
      <trkpt lat="46.17434" lon="6.25835">
        <ele>502.2</ele>
        <time>2021-03-27T11:46:00Z</time>
      </trkpt>
      <trkpt lat="46.17434" lon="6.25835">
        <ele>502.4</ele>
        <time>2021-03-27T11:46:01Z</time>
      </trkpt>
      <trkpt lat="46.17434" lon="6.25835">
        <ele>502.4</ele>
        <time>2021-03-27T11:46:02Z</time>
      </trkpt>
      <trkpt lat="46.17433" lon="6.25835">
        <ele>502.4</ele>
        <time>2021-03-27T11:46:03Z</time>
      </trkpt>
      <trkpt lat="46.17433" lon="6.25835">
        <ele>502.2</ele>
        <time>2021-03-27T11:46:04Z</time>
      </trkpt>
      <trkpt lat="46.17433" lon="6.25835">
        <ele>502.4</ele>
        <time>2021-03-27T11:46:05Z</time>
      </trkpt>
      <trkpt lat="46.17433" lon="6.25835">
        <ele>502.4</ele>
        <time>2021-03-27T11:46:06Z</time>
      </trkpt>
      <trkpt lat="46.17433" lon="6.25835">
        <ele>502.2</ele>
        <time>2021-03-27T11:46:07Z</time>
      </trkpt>
      <trkpt lat="46.17433" lon="6.25835">
        <ele>502.2</ele>
        <time>2021-03-27T11:46:08Z</time>
      </trkpt>
      <trkpt lat="46.17433" lon="6.25835">
        <ele>502.2</ele>
        <time>2021-03-27T11:46:09Z</time>
      </trkpt>
      <trkpt lat="46.17433" lon="6.25835">
        <ele>502.2</ele>
        <time>2021-03-27T11:46:10Z</time>
      </trkpt>
      <trkpt lat="46.17433" lon="6.25835">
        <ele>502.2</ele>
        <time>2021-03-27T11:46:11Z</time>
      </trkpt>
      <trkpt lat="46.17433" lon="6.25835">
        <ele>502.2</ele>
        <time>2021-03-27T11:46:12Z</time>
      </trkpt>
      <trkpt lat="46.17433" lon="6.25835">
        <ele>502.2</ele>
        <time>2021-03-27T11:46:13Z</time>
      </trkpt>
      <trkpt lat="46.17433" lon="6.25835">
        <ele>502.2</ele>
        <time>2021-03-27T11:46:14Z</time>
      </trkpt>
      <trkpt lat="46.17433" lon="6.25835">
        <ele>502.2</ele>
        <time>2021-03-27T11:46:15Z</time>
      </trkpt>
      <trkpt lat="46.17433" lon="6.25835">
        <ele>502.2</ele>
        <time>2021-03-27T11:46:16Z</time>
      </trkpt>
      <trkpt lat="46.17433" lon="6.25835">
        <ele>502.2</ele>
        <time>2021-03-27T11:46:17Z</time>
      </trkpt>
      <trkpt lat="46.17433" lon="6.25835">
        <ele>502.2</ele>
        <time>2021-03-27T11:46:18Z</time>
      </trkpt>
      <trkpt lat="46.17433" lon="6.25835">
        <ele>502.2</ele>
        <time>2021-03-27T11:46:19Z</time>
      </trkpt>
      <trkpt lat="46.17433" lon="6.25835">
        <ele>502.2</ele>
        <time>2021-03-27T11:46:20Z</time>
      </trkpt>
      <trkpt lat="46.17433" lon="6.25835">
        <ele>502.2</ele>
        <time>2021-03-27T11:46:21Z</time>
      </trkpt>
      <trkpt lat="46.17433" lon="6.25835">
        <ele>502.2</ele>
        <time>2021-03-27T11:46:22Z</time>
      </trkpt>
      <trkpt lat="46.17433" lon="6.25835">
        <ele>502.4</ele>
        <time>2021-03-27T11:46:23Z</time>
      </trkpt>
      <trkpt lat="46.17433" lon="6.25835">
        <ele>502.4</ele>
        <time>2021-03-27T11:46:24Z</time>
      </trkpt>
      <trkpt lat="46.17433" lon="6.25835">
        <ele>502.4</ele>
        <time>2021-03-27T11:46:25Z</time>
      </trkpt>
      <trkpt lat="46.17433" lon="6.25835">
        <ele>502.4</ele>
        <time>2021-03-27T11:46:26Z</time>
      </trkpt>
      <trkpt lat="46.17433" lon="6.25835">
        <ele>502.4</ele>
        <time>2021-03-27T11:46:27Z</time>
      </trkpt>
      <trkpt lat="46.17433" lon="6.25835">
        <ele>502.6</ele>
        <time>2021-03-27T11:46:28Z</time>
      </trkpt>
      <trkpt lat="46.17433" lon="6.25835">
        <ele>502.4</ele>
        <time>2021-03-27T11:46:29Z</time>
      </trkpt>
      <trkpt lat="46.17433" lon="6.25835">
        <ele>502.6</ele>
        <time>2021-03-27T11:46:30Z</time>
      </trkpt>
      <trkpt lat="46.17433" lon="6.25835">
        <ele>502.4</ele>
        <time>2021-03-27T11:46:31Z</time>
      </trkpt>
      <trkpt lat="46.17433" lon="6.25835">
        <ele>502.6</ele>
        <time>2021-03-27T11:46:32Z</time>
      </trkpt>
      <trkpt lat="46.17433" lon="6.25835">
        <ele>502.6</ele>
        <time>2021-03-27T11:46:33Z</time>
      </trkpt>
      <trkpt lat="46.17433" lon="6.25835">
        <ele>502.6</ele>
        <time>2021-03-27T11:46:34Z</time>
      </trkpt>
      <trkpt lat="46.17433" lon="6.25835">
        <ele>502.8</ele>
        <time>2021-03-27T11:46:35Z</time>
      </trkpt>
      <trkpt lat="46.17433" lon="6.25835">
        <ele>502.8</ele>
        <time>2021-03-27T11:46:36Z</time>
      </trkpt>
      <trkpt lat="46.17433" lon="6.25835">
        <ele>502.8</ele>
        <time>2021-03-27T11:46:37Z</time>
      </trkpt>
      <trkpt lat="46.17433" lon="6.25835">
        <ele>502.6</ele>
        <time>2021-03-27T11:46:38Z</time>
      </trkpt>
      <trkpt lat="46.17433" lon="6.25835">
        <ele>502.8</ele>
        <time>2021-03-27T11:46:39Z</time>
      </trkpt>
      <trkpt lat="46.17433" lon="6.25835">
        <ele>502.6</ele>
        <time>2021-03-27T11:46:40Z</time>
      </trkpt>
      <trkpt lat="46.17433" lon="6.25835">
        <ele>502.6</ele>
        <time>2021-03-27T11:46:41Z</time>
      </trkpt>
      <trkpt lat="46.17433" lon="6.25835">
        <ele>502.6</ele>
        <time>2021-03-27T11:46:42Z</time>
      </trkpt>
      <trkpt lat="46.17433" lon="6.25835">
        <ele>502.6</ele>
        <time>2021-03-27T11:46:43Z</time>
      </trkpt>
      <trkpt lat="46.17433" lon="6.25835">
        <ele>502.4</ele>
        <time>2021-03-27T11:46:44Z</time>
      </trkpt>
      <trkpt lat="46.17433" lon="6.25835">
        <ele>502.4</ele>
        <time>2021-03-27T11:46:45Z</time>
      </trkpt>
      <trkpt lat="46.17433" lon="6.25835">
        <ele>502.4</ele>
        <time>2021-03-27T11:46:46Z</time>
      </trkpt>
      <trkpt lat="46.17433" lon="6.25835">
        <ele>502.4</ele>
        <time>2021-03-27T11:46:47Z</time>
      </trkpt>
      <trkpt lat="46.17433" lon="6.25835">
        <ele>502.4</ele>
        <time>2021-03-27T11:46:48Z</time>
      </trkpt>
      <trkpt lat="46.17433" lon="6.25835">
        <ele>502.4</ele>
        <time>2021-03-27T11:46:49Z</time>
      </trkpt>
      <trkpt lat="46.17433" lon="6.25835">
        <ele>502.2</ele>
        <time>2021-03-27T11:46:50Z</time>
      </trkpt>
      <trkpt lat="46.17433" lon="6.25835">
        <ele>502.4</ele>
        <time>2021-03-27T11:46:51Z</time>
      </trkpt>
      <trkpt lat="46.17433" lon="6.25836">
        <ele>502.4</ele>
        <time>2021-03-27T11:46:52Z</time>
      </trkpt>
      <trkpt lat="46.17433" lon="6.25836">
        <ele>502.4</ele>
        <time>2021-03-27T11:46:53Z</time>
      </trkpt>
      <trkpt lat="46.17433" lon="6.25836">
        <ele>502.4</ele>
        <time>2021-03-27T11:46:54Z</time>
      </trkpt>
      <trkpt lat="46.17433" lon="6.25836">
        <ele>502.4</ele>
        <time>2021-03-27T11:46:55Z</time>
      </trkpt>
      <trkpt lat="46.17433" lon="6.25836">
        <ele>502.6</ele>
        <time>2021-03-27T11:46:56Z</time>
      </trkpt>
      <trkpt lat="46.17433" lon="6.25836">
        <ele>502.4</ele>
        <time>2021-03-27T11:46:57Z</time>
      </trkpt>
      <trkpt lat="46.17433" lon="6.25836">
        <ele>502.4</ele>
        <time>2021-03-27T11:46:58Z</time>
      </trkpt>
      <trkpt lat="46.17433" lon="6.25836">
        <ele>502.4</ele>
        <time>2021-03-27T11:46:59Z</time>
      </trkpt>
      <trkpt lat="46.17433" lon="6.25836">
        <ele>502.6</ele>
        <time>2021-03-27T11:47:00Z</time>
      </trkpt>
      <trkpt lat="46.17433" lon="6.25836">
        <ele>502.4</ele>
        <time>2021-03-27T11:47:01Z</time>
      </trkpt>
      <trkpt lat="46.17433" lon="6.25836">
        <ele>502.6</ele>
        <time>2021-03-27T11:47:02Z</time>
      </trkpt>
      <trkpt lat="46.17433" lon="6.25836">
        <ele>502.4</ele>
        <time>2021-03-27T11:47:03Z</time>
      </trkpt>
      <trkpt lat="46.17433" lon="6.25836">
        <ele>502.6</ele>
        <time>2021-03-27T11:47:04Z</time>
      </trkpt>
      <trkpt lat="46.17433" lon="6.25836">
        <ele>502.6</ele>
        <time>2021-03-27T11:47:05Z</time>
      </trkpt>
      <trkpt lat="46.17433" lon="6.25836">
        <ele>502.6</ele>
        <time>2021-03-27T11:47:06Z</time>
      </trkpt>
      <trkpt lat="46.17433" lon="6.25836">
        <ele>502.4</ele>
        <time>2021-03-27T11:47:07Z</time>
      </trkpt>
      <trkpt lat="46.17433" lon="6.25836">
        <ele>502.4</ele>
        <time>2021-03-27T11:47:08Z</time>
      </trkpt>
      <trkpt lat="46.17433" lon="6.25835">
        <ele>502.4</ele>
        <time>2021-03-27T11:47:09Z</time>
      </trkpt>
      <trkpt lat="46.17433" lon="6.25835">
        <ele>502.4</ele>
        <time>2021-03-27T11:47:10Z</time>
      </trkpt>
      <trkpt lat="46.17433" lon="6.25835">
        <ele>502.4</ele>
        <time>2021-03-27T11:47:11Z</time>
      </trkpt>
      <trkpt lat="46.17433" lon="6.25835">
        <ele>502.4</ele>
        <time>2021-03-27T11:47:12Z</time>
      </trkpt>
      <trkpt lat="46.17433" lon="6.25835">
        <ele>502.4</ele>
        <time>2021-03-27T11:47:13Z</time>
      </trkpt>
      <trkpt lat="46.17433" lon="6.25835">
        <ele>502.2</ele>
        <time>2021-03-27T11:47:14Z</time>
      </trkpt>
      <trkpt lat="46.17433" lon="6.25835">
        <ele>502.2</ele>
        <time>2021-03-27T11:47:15Z</time>
      </trkpt>
      <trkpt lat="46.17433" lon="6.25835">
        <ele>502.2</ele>
        <time>2021-03-27T11:47:16Z</time>
      </trkpt>
      <trkpt lat="46.17433" lon="6.25835">
        <ele>502.4</ele>
        <time>2021-03-27T11:47:17Z</time>
      </trkpt>
      <trkpt lat="46.17433" lon="6.25835">
        <ele>502.4</ele>
        <time>2021-03-27T11:47:18Z</time>
      </trkpt>
      <trkpt lat="46.17433" lon="6.25835">
        <ele>502.2</ele>
        <time>2021-03-27T11:47:19Z</time>
      </trkpt>
      <trkpt lat="46.17433" lon="6.25835">
        <ele>502.2</ele>
        <time>2021-03-27T11:47:20Z</time>
      </trkpt>
      <trkpt lat="46.17433" lon="6.25835">
        <ele>502.2</ele>
        <time>2021-03-27T11:47:21Z</time>
      </trkpt>
      <trkpt lat="46.17433" lon="6.25835">
        <ele>502.4</ele>
        <time>2021-03-27T11:47:22Z</time>
      </trkpt>
      <trkpt lat="46.17433" lon="6.25835">
        <ele>502.2</ele>
        <time>2021-03-27T11:47:23Z</time>
      </trkpt>
      <trkpt lat="46.17433" lon="6.25835">
        <ele>502.4</ele>
        <time>2021-03-27T11:47:24Z</time>
      </trkpt>
      <trkpt lat="46.17433" lon="6.25835">
        <ele>502.2</ele>
        <time>2021-03-27T11:47:25Z</time>
      </trkpt>
      <trkpt lat="46.17433" lon="6.25835">
        <ele>502.4</ele>
        <time>2021-03-27T11:47:26Z</time>
      </trkpt>
      <trkpt lat="46.17433" lon="6.25835">
        <ele>502.4</ele>
        <time>2021-03-27T11:47:27Z</time>
      </trkpt>
      <trkpt lat="46.17433" lon="6.25835">
        <ele>502.4</ele>
        <time>2021-03-27T11:47:28Z</time>
      </trkpt>
      <trkpt lat="46.17433" lon="6.25835">
        <ele>502.2</ele>
        <time>2021-03-27T11:47:29Z</time>
      </trkpt>
      <trkpt lat="46.17433" lon="6.25835">
        <ele>502.2</ele>
        <time>2021-03-27T11:47:30Z</time>
      </trkpt>
      <trkpt lat="46.17433" lon="6.25835">
        <ele>502.4</ele>
        <time>2021-03-27T11:47:31Z</time>
      </trkpt>
      <trkpt lat="46.17433" lon="6.25835">
        <ele>502.4</ele>
        <time>2021-03-27T11:47:32Z</time>
      </trkpt>
      <trkpt lat="46.17433" lon="6.25835">
        <ele>502.4</ele>
        <time>2021-03-27T11:47:33Z</time>
      </trkpt>
      <trkpt lat="46.17433" lon="6.25835">
        <ele>502.4</ele>
        <time>2021-03-27T11:47:34Z</time>
      </trkpt>
      <trkpt lat="46.17433" lon="6.25835">
        <ele>502.6</ele>
        <time>2021-03-27T11:47:35Z</time>
      </trkpt>
      <trkpt lat="46.17433" lon="6.25835">
        <ele>502.6</ele>
        <time>2021-03-27T11:47:36Z</time>
      </trkpt>
      <trkpt lat="46.17433" lon="6.25835">
        <ele>502.6</ele>
        <time>2021-03-27T11:47:37Z</time>
      </trkpt>
      <trkpt lat="46.17433" lon="6.25835">
        <ele>502.6</ele>
        <time>2021-03-27T11:47:38Z</time>
      </trkpt>
      <trkpt lat="46.17433" lon="6.25835">
        <ele>502.6</ele>
        <time>2021-03-27T11:47:39Z</time>
      </trkpt>
      <trkpt lat="46.17433" lon="6.25835">
        <ele>502.6</ele>
        <time>2021-03-27T11:47:40Z</time>
      </trkpt>
      <trkpt lat="46.17433" lon="6.25835">
        <ele>502.6</ele>
        <time>2021-03-27T11:47:41Z</time>
      </trkpt>
      <trkpt lat="46.17433" lon="6.25836">
        <ele>502.4</ele>
        <time>2021-03-27T11:47:42Z</time>
      </trkpt>
      <trkpt lat="46.17433" lon="6.25836">
        <ele>502.6</ele>
        <time>2021-03-27T11:47:43Z</time>
      </trkpt>
      <trkpt lat="46.17433" lon="6.25836">
        <ele>502.6</ele>
        <time>2021-03-27T11:47:44Z</time>
      </trkpt>
      <trkpt lat="46.17433" lon="6.25836">
        <ele>502.4</ele>
        <time>2021-03-27T11:47:45Z</time>
      </trkpt>
      <trkpt lat="46.17433" lon="6.25836">
        <ele>502.6</ele>
        <time>2021-03-27T11:47:46Z</time>
      </trkpt>
      <trkpt lat="46.17433" lon="6.25836">
        <ele>502.4</ele>
        <time>2021-03-27T11:47:47Z</time>
      </trkpt>
      <trkpt lat="46.17433" lon="6.25836">
        <ele>502.6</ele>
        <time>2021-03-27T11:47:48Z</time>
      </trkpt>
      <trkpt lat="46.17433" lon="6.25836">
        <ele>502.6</ele>
        <time>2021-03-27T11:47:49Z</time>
      </trkpt>
      <trkpt lat="46.17433" lon="6.25836">
        <ele>502.6</ele>
        <time>2021-03-27T11:47:50Z</time>
      </trkpt>
      <trkpt lat="46.17433" lon="6.25836">
        <ele>502.6</ele>
        <time>2021-03-27T11:47:51Z</time>
      </trkpt>
      <trkpt lat="46.17433" lon="6.25836">
        <ele>502.4</ele>
        <time>2021-03-27T11:47:52Z</time>
      </trkpt>
      <trkpt lat="46.17433" lon="6.25836">
        <ele>502.6</ele>
        <time>2021-03-27T11:47:53Z</time>
      </trkpt>
      <trkpt lat="46.17433" lon="6.25836">
        <ele>502.4</ele>
        <time>2021-03-27T11:47:54Z</time>
      </trkpt>
      <trkpt lat="46.17433" lon="6.25836">
        <ele>502.4</ele>
        <time>2021-03-27T11:47:55Z</time>
      </trkpt>
      <trkpt lat="46.17433" lon="6.25836">
        <ele>502.4</ele>
        <time>2021-03-27T11:47:56Z</time>
      </trkpt>
      <trkpt lat="46.17433" lon="6.25836">
        <ele>502.4</ele>
        <time>2021-03-27T11:47:57Z</time>
      </trkpt>
      <trkpt lat="46.17433" lon="6.25836">
        <ele>502.4</ele>
        <time>2021-03-27T11:47:58Z</time>
      </trkpt>
      <trkpt lat="46.17433" lon="6.25836">
        <ele>502.4</ele>
        <time>2021-03-27T11:47:59Z</time>
      </trkpt>
      <trkpt lat="46.17433" lon="6.25836">
        <ele>502.6</ele>
        <time>2021-03-27T11:48:00Z</time>
      </trkpt>
      <trkpt lat="46.17433" lon="6.25836">
        <ele>502.6</ele>
        <time>2021-03-27T11:48:01Z</time>
      </trkpt>
      <trkpt lat="46.17433" lon="6.25836">
        <ele>502.6</ele>
        <time>2021-03-27T11:48:02Z</time>
      </trkpt>
      <trkpt lat="46.17433" lon="6.25836">
        <ele>502.6</ele>
        <time>2021-03-27T11:48:03Z</time>
      </trkpt>
      <trkpt lat="46.17433" lon="6.25836">
        <ele>502.4</ele>
        <time>2021-03-27T11:48:04Z</time>
      </trkpt>
      <trkpt lat="46.17433" lon="6.25836">
        <ele>502.6</ele>
        <time>2021-03-27T11:48:05Z</time>
      </trkpt>
      <trkpt lat="46.17433" lon="6.25836">
        <ele>502.4</ele>
        <time>2021-03-27T11:48:06Z</time>
      </trkpt>
      <trkpt lat="46.17433" lon="6.25836">
        <ele>502.4</ele>
        <time>2021-03-27T11:48:07Z</time>
      </trkpt>
      <trkpt lat="46.17433" lon="6.25836">
        <ele>502.4</ele>
        <time>2021-03-27T11:48:08Z</time>
      </trkpt>
      <trkpt lat="46.17433" lon="6.25836">
        <ele>502.4</ele>
        <time>2021-03-27T11:48:09Z</time>
      </trkpt>
      <trkpt lat="46.17433" lon="6.25836">
        <ele>502.6</ele>
        <time>2021-03-27T11:48:10Z</time>
      </trkpt>
      <trkpt lat="46.17433" lon="6.25836">
        <ele>502.4</ele>
        <time>2021-03-27T11:48:11Z</time>
      </trkpt>
      <trkpt lat="46.17433" lon="6.25836">
        <ele>502.6</ele>
        <time>2021-03-27T11:48:12Z</time>
      </trkpt>
      <trkpt lat="46.17433" lon="6.25836">
        <ele>502.6</ele>
        <time>2021-03-27T11:48:13Z</time>
      </trkpt>
      <trkpt lat="46.17433" lon="6.25836">
        <ele>502.4</ele>
        <time>2021-03-27T11:48:14Z</time>
      </trkpt>
      <trkpt lat="46.17433" lon="6.25836">
        <ele>502.6</ele>
        <time>2021-03-27T11:48:15Z</time>
      </trkpt>
      <trkpt lat="46.17433" lon="6.25836">
        <ele>502.4</ele>
        <time>2021-03-27T11:48:16Z</time>
      </trkpt>
      <trkpt lat="46.17433" lon="6.25836">
        <ele>502.4</ele>
        <time>2021-03-27T11:48:17Z</time>
      </trkpt>
      <trkpt lat="46.17433" lon="6.25836">
        <ele>502.6</ele>
        <time>2021-03-27T11:48:18Z</time>
      </trkpt>
      <trkpt lat="46.17433" lon="6.25836">
        <ele>502.4</ele>
        <time>2021-03-27T11:48:19Z</time>
      </trkpt>
      <trkpt lat="46.17433" lon="6.25836">
        <ele>502.4</ele>
        <time>2021-03-27T11:48:20Z</time>
      </trkpt>
      <trkpt lat="46.17433" lon="6.25836">
        <ele>502.4</ele>
        <time>2021-03-27T11:48:21Z</time>
      </trkpt>
      <trkpt lat="46.17433" lon="6.25836">
        <ele>502.4</ele>
        <time>2021-03-27T11:48:22Z</time>
      </trkpt>
      <trkpt lat="46.17433" lon="6.25835">
        <ele>502.4</ele>
        <time>2021-03-27T11:48:23Z</time>
      </trkpt>
      <trkpt lat="46.17433" lon="6.25835">
        <ele>502.4</ele>
        <time>2021-03-27T11:48:24Z</time>
      </trkpt>
      <trkpt lat="46.17433" lon="6.25835">
        <ele>502.2</ele>
        <time>2021-03-27T11:48:25Z</time>
      </trkpt>
      <trkpt lat="46.17433" lon="6.25835">
        <ele>502.4</ele>
        <time>2021-03-27T11:48:26Z</time>
      </trkpt>
      <trkpt lat="46.17433" lon="6.25835">
        <ele>502.4</ele>
        <time>2021-03-27T11:48:27Z</time>
      </trkpt>
      <trkpt lat="46.17433" lon="6.25835">
        <ele>502.4</ele>
        <time>2021-03-27T11:48:28Z</time>
      </trkpt>
      <trkpt lat="46.17433" lon="6.25835">
        <ele>502.4</ele>
        <time>2021-03-27T11:48:29Z</time>
      </trkpt>
      <trkpt lat="46.17433" lon="6.25835">
        <ele>502.2</ele>
        <time>2021-03-27T11:48:30Z</time>
      </trkpt>
      <trkpt lat="46.17433" lon="6.25835">
        <ele>502.2</ele>
        <time>2021-03-27T11:48:31Z</time>
      </trkpt>
      <trkpt lat="46.17433" lon="6.25835">
        <ele>502.2</ele>
        <time>2021-03-27T11:48:32Z</time>
      </trkpt>
      <trkpt lat="46.17433" lon="6.25835">
        <ele>502.4</ele>
        <time>2021-03-27T11:48:33Z</time>
      </trkpt>
      <trkpt lat="46.17433" lon="6.25835">
        <ele>502.4</ele>
        <time>2021-03-27T11:48:34Z</time>
      </trkpt>
      <trkpt lat="46.17433" lon="6.25835">
        <ele>502.4</ele>
        <time>2021-03-27T11:48:35Z</time>
      </trkpt>
      <trkpt lat="46.17433" lon="6.25835">
        <ele>502.4</ele>
        <time>2021-03-27T11:48:36Z</time>
      </trkpt>
      <trkpt lat="46.17433" lon="6.25835">
        <ele>502.4</ele>
        <time>2021-03-27T11:48:37Z</time>
      </trkpt>
      <trkpt lat="46.17433" lon="6.25835">
        <ele>502.2</ele>
        <time>2021-03-27T11:48:38Z</time>
      </trkpt>
      <trkpt lat="46.17433" lon="6.25835">
        <ele>502.4</ele>
        <time>2021-03-27T11:48:39Z</time>
      </trkpt>
      <trkpt lat="46.17433" lon="6.25835">
        <ele>502.4</ele>
        <time>2021-03-27T11:48:40Z</time>
      </trkpt>
      <trkpt lat="46.17433" lon="6.25835">
        <ele>502.4</ele>
        <time>2021-03-27T11:48:41Z</time>
      </trkpt>
      <trkpt lat="46.17433" lon="6.25835">
        <ele>502.4</ele>
        <time>2021-03-27T11:48:42Z</time>
      </trkpt>
      <trkpt lat="46.17433" lon="6.25835">
        <ele>502.4</ele>
        <time>2021-03-27T11:48:43Z</time>
      </trkpt>
      <trkpt lat="46.17433" lon="6.25835">
        <ele>502.2</ele>
        <time>2021-03-27T11:48:44Z</time>
      </trkpt>
      <trkpt lat="46.17433" lon="6.25835">
        <ele>502.2</ele>
        <time>2021-03-27T11:48:45Z</time>
      </trkpt>
      <trkpt lat="46.17433" lon="6.25835">
        <ele>502.2</ele>
        <time>2021-03-27T11:48:46Z</time>
      </trkpt>
      <trkpt lat="46.17433" lon="6.25835">
        <ele>502.4</ele>
        <time>2021-03-27T11:48:47Z</time>
      </trkpt>
      <trkpt lat="46.17433" lon="6.25835">
        <ele>502.4</ele>
        <time>2021-03-27T11:48:48Z</time>
      </trkpt>
      <trkpt lat="46.17433" lon="6.25835">
        <ele>502.2</ele>
        <time>2021-03-27T11:48:49Z</time>
      </trkpt>
      <trkpt lat="46.17433" lon="6.25835">
        <ele>502.2</ele>
        <time>2021-03-27T11:48:50Z</time>
      </trkpt>
      <trkpt lat="46.17433" lon="6.25835">
        <ele>502.2</ele>
        <time>2021-03-27T11:48:51Z</time>
      </trkpt>
      <trkpt lat="46.17433" lon="6.25835">
        <ele>502.2</ele>
        <time>2021-03-27T11:48:52Z</time>
      </trkpt>
      <trkpt lat="46.17433" lon="6.25835">
        <ele>502.2</ele>
        <time>2021-03-27T11:48:53Z</time>
      </trkpt>
      <trkpt lat="46.17433" lon="6.25835">
        <ele>502.2</ele>
        <time>2021-03-27T11:48:54Z</time>
      </trkpt>
      <trkpt lat="46.17433" lon="6.25835">
        <ele>502.2</ele>
        <time>2021-03-27T11:48:55Z</time>
      </trkpt>
      <trkpt lat="46.17433" lon="6.25835">
        <ele>502.2</ele>
        <time>2021-03-27T11:48:56Z</time>
      </trkpt>
      <trkpt lat="46.17433" lon="6.25835">
        <ele>502.2</ele>
        <time>2021-03-27T11:48:57Z</time>
      </trkpt>
      <trkpt lat="46.17433" lon="6.25835">
        <ele>502.2</ele>
        <time>2021-03-27T11:48:58Z</time>
      </trkpt>
      <trkpt lat="46.17433" lon="6.25835">
        <ele>502.2</ele>
        <time>2021-03-27T11:48:59Z</time>
      </trkpt>
      <trkpt lat="46.17433" lon="6.25835">
        <ele>502</ele>
        <time>2021-03-27T11:49:00Z</time>
      </trkpt>
      <trkpt lat="46.17433" lon="6.25835">
        <ele>502</ele>
        <time>2021-03-27T11:49:01Z</time>
      </trkpt>
      <trkpt lat="46.17433" lon="6.25835">
        <ele>502</ele>
        <time>2021-03-27T11:49:02Z</time>
      </trkpt>
      <trkpt lat="46.17433" lon="6.25835">
        <ele>502.2</ele>
        <time>2021-03-27T11:49:03Z</time>
      </trkpt>
      <trkpt lat="46.17433" lon="6.25835">
        <ele>502</ele>
        <time>2021-03-27T11:49:04Z</time>
      </trkpt>
      <trkpt lat="46.17433" lon="6.25835">
        <ele>502.2</ele>
        <time>2021-03-27T11:49:05Z</time>
      </trkpt>
      <trkpt lat="46.17433" lon="6.25835">
        <ele>502</ele>
        <time>2021-03-27T11:49:06Z</time>
      </trkpt>
      <trkpt lat="46.17433" lon="6.25835">
        <ele>502.2</ele>
        <time>2021-03-27T11:49:07Z</time>
      </trkpt>
      <trkpt lat="46.17433" lon="6.25835">
        <ele>502</ele>
        <time>2021-03-27T11:49:08Z</time>
      </trkpt>
      <trkpt lat="46.17433" lon="6.25835">
        <ele>502.2</ele>
        <time>2021-03-27T11:49:09Z</time>
      </trkpt>
      <trkpt lat="46.17433" lon="6.25835">
        <ele>502</ele>
        <time>2021-03-27T11:49:10Z</time>
      </trkpt>
      <trkpt lat="46.17433" lon="6.25835">
        <ele>502</ele>
        <time>2021-03-27T11:49:11Z</time>
      </trkpt>
      <trkpt lat="46.17433" lon="6.25835">
        <ele>502</ele>
        <time>2021-03-27T11:49:12Z</time>
      </trkpt>
      <trkpt lat="46.17433" lon="6.25835">
        <ele>502.2</ele>
        <time>2021-03-27T11:49:13Z</time>
      </trkpt>
      <trkpt lat="46.17433" lon="6.25835">
        <ele>502</ele>
        <time>2021-03-27T11:49:14Z</time>
      </trkpt>
      <trkpt lat="46.17433" lon="6.25835">
        <ele>502.2</ele>
        <time>2021-03-27T11:49:15Z</time>
      </trkpt>
      <trkpt lat="46.17433" lon="6.25835">
        <ele>502.2</ele>
        <time>2021-03-27T11:49:16Z</time>
      </trkpt>
      <trkpt lat="46.17433" lon="6.25835">
        <ele>502</ele>
        <time>2021-03-27T11:49:17Z</time>
      </trkpt>
      <trkpt lat="46.17433" lon="6.25835">
        <ele>502</ele>
        <time>2021-03-27T11:49:18Z</time>
      </trkpt>
      <trkpt lat="46.17433" lon="6.25835">
        <ele>502.2</ele>
        <time>2021-03-27T11:49:19Z</time>
      </trkpt>
      <trkpt lat="46.17433" lon="6.25835">
        <ele>502.2</ele>
        <time>2021-03-27T11:49:20Z</time>
      </trkpt>
      <trkpt lat="46.17433" lon="6.25835">
        <ele>502</ele>
        <time>2021-03-27T11:49:21Z</time>
      </trkpt>
      <trkpt lat="46.17433" lon="6.25835">
        <ele>502.2</ele>
        <time>2021-03-27T11:49:22Z</time>
      </trkpt>
      <trkpt lat="46.17433" lon="6.25835">
        <ele>502.2</ele>
        <time>2021-03-27T11:49:23Z</time>
      </trkpt>
      <trkpt lat="46.17433" lon="6.25835">
        <ele>502.2</ele>
        <time>2021-03-27T11:49:24Z</time>
      </trkpt>
      <trkpt lat="46.17433" lon="6.25835">
        <ele>502.2</ele>
        <time>2021-03-27T11:49:25Z</time>
      </trkpt>
      <trkpt lat="46.17433" lon="6.25835">
        <ele>502.2</ele>
        <time>2021-03-27T11:49:26Z</time>
      </trkpt>
      <trkpt lat="46.17433" lon="6.25835">
        <ele>502.2</ele>
        <time>2021-03-27T11:49:27Z</time>
      </trkpt>
      <trkpt lat="46.17433" lon="6.25835">
        <ele>502.2</ele>
        <time>2021-03-27T11:49:28Z</time>
      </trkpt>
      <trkpt lat="46.17433" lon="6.25835">
        <ele>502.2</ele>
        <time>2021-03-27T11:49:29Z</time>
      </trkpt>
      <trkpt lat="46.17433" lon="6.25835">
        <ele>502.2</ele>
        <time>2021-03-27T11:49:30Z</time>
      </trkpt>
      <trkpt lat="46.17433" lon="6.25835">
        <ele>502.2</ele>
        <time>2021-03-27T11:49:31Z</time>
      </trkpt>
      <trkpt lat="46.17433" lon="6.25835">
        <ele>502.2</ele>
        <time>2021-03-27T11:49:32Z</time>
      </trkpt>
      <trkpt lat="46.17433" lon="6.25835">
        <ele>502.2</ele>
        <time>2021-03-27T11:49:33Z</time>
      </trkpt>
      <trkpt lat="46.17433" lon="6.25835">
        <ele>502.2</ele>
        <time>2021-03-27T11:49:34Z</time>
      </trkpt>
      <trkpt lat="46.17433" lon="6.25835">
        <ele>502.2</ele>
        <time>2021-03-27T11:49:35Z</time>
      </trkpt>
      <trkpt lat="46.17433" lon="6.25835">
        <ele>502.2</ele>
        <time>2021-03-27T11:49:36Z</time>
      </trkpt>
      <trkpt lat="46.17433" lon="6.25835">
        <ele>502.2</ele>
        <time>2021-03-27T11:49:37Z</time>
      </trkpt>
      <trkpt lat="46.17433" lon="6.25835">
        <ele>502.2</ele>
        <time>2021-03-27T11:49:38Z</time>
      </trkpt>
      <trkpt lat="46.17433" lon="6.25835">
        <ele>502.2</ele>
        <time>2021-03-27T11:49:39Z</time>
      </trkpt>
      <trkpt lat="46.17433" lon="6.25835">
        <ele>502.2</ele>
        <time>2021-03-27T11:49:40Z</time>
      </trkpt>
      <trkpt lat="46.17433" lon="6.25835">
        <ele>502.2</ele>
        <time>2021-03-27T11:49:41Z</time>
      </trkpt>
      <trkpt lat="46.17433" lon="6.25835">
        <ele>502.2</ele>
        <time>2021-03-27T11:49:42Z</time>
      </trkpt>
      <trkpt lat="46.17433" lon="6.25835">
        <ele>502.2</ele>
        <time>2021-03-27T11:49:43Z</time>
      </trkpt>
      <trkpt lat="46.17433" lon="6.25835">
        <ele>502.4</ele>
        <time>2021-03-27T11:49:44Z</time>
      </trkpt>
      <trkpt lat="46.17433" lon="6.25835">
        <ele>502.4</ele>
        <time>2021-03-27T11:49:45Z</time>
      </trkpt>
      <trkpt lat="46.17433" lon="6.25835">
        <ele>502.2</ele>
        <time>2021-03-27T11:49:46Z</time>
      </trkpt>
      <trkpt lat="46.17433" lon="6.25835">
        <ele>502.2</ele>
        <time>2021-03-27T11:49:47Z</time>
      </trkpt>
      <trkpt lat="46.17433" lon="6.25835">
        <ele>502.2</ele>
        <time>2021-03-27T11:49:48Z</time>
      </trkpt>
      <trkpt lat="46.17433" lon="6.25835">
        <ele>502.2</ele>
        <time>2021-03-27T11:49:49Z</time>
      </trkpt>
      <trkpt lat="46.17433" lon="6.25835">
        <ele>502.2</ele>
        <time>2021-03-27T11:49:50Z</time>
      </trkpt>
      <trkpt lat="46.17433" lon="6.25835">
        <ele>502.4</ele>
        <time>2021-03-27T11:49:51Z</time>
      </trkpt>
      <trkpt lat="46.17433" lon="6.25835">
        <ele>502.4</ele>
        <time>2021-03-27T11:49:52Z</time>
      </trkpt>
      <trkpt lat="46.17433" lon="6.25835">
        <ele>502.4</ele>
        <time>2021-03-27T11:49:53Z</time>
      </trkpt>
      <trkpt lat="46.17433" lon="6.25835">
        <ele>502.4</ele>
        <time>2021-03-27T11:49:54Z</time>
      </trkpt>
      <trkpt lat="46.17433" lon="6.25835">
        <ele>502.4</ele>
        <time>2021-03-27T11:49:55Z</time>
      </trkpt>
      <trkpt lat="46.17433" lon="6.25835">
        <ele>502.4</ele>
        <time>2021-03-27T11:49:56Z</time>
      </trkpt>
      <trkpt lat="46.17433" lon="6.25835">
        <ele>502.4</ele>
        <time>2021-03-27T11:49:57Z</time>
      </trkpt>
      <trkpt lat="46.17433" lon="6.25835">
        <ele>502.2</ele>
        <time>2021-03-27T11:49:58Z</time>
      </trkpt>
      <trkpt lat="46.17433" lon="6.25835">
        <ele>502.2</ele>
        <time>2021-03-27T11:49:59Z</time>
      </trkpt>
      <trkpt lat="46.17433" lon="6.25835">
        <ele>502.2</ele>
        <time>2021-03-27T11:50:00Z</time>
      </trkpt>
      <trkpt lat="46.17433" lon="6.25835">
        <ele>502.2</ele>
        <time>2021-03-27T11:50:01Z</time>
      </trkpt>
      <trkpt lat="46.17433" lon="6.25835">
        <ele>502.2</ele>
        <time>2021-03-27T11:50:02Z</time>
      </trkpt>
      <trkpt lat="46.17433" lon="6.25835">
        <ele>502.2</ele>
        <time>2021-03-27T11:50:03Z</time>
      </trkpt>
      <trkpt lat="46.17433" lon="6.25835">
        <ele>502.2</ele>
        <time>2021-03-27T11:50:04Z</time>
      </trkpt>
      <trkpt lat="46.17433" lon="6.25835">
        <ele>502.2</ele>
        <time>2021-03-27T11:50:05Z</time>
      </trkpt>
      <trkpt lat="46.17433" lon="6.25835">
        <ele>502.2</ele>
        <time>2021-03-27T11:50:06Z</time>
      </trkpt>
      <trkpt lat="46.17433" lon="6.25835">
        <ele>502.4</ele>
        <time>2021-03-27T11:50:07Z</time>
      </trkpt>
      <trkpt lat="46.17433" lon="6.25835">
        <ele>502.4</ele>
        <time>2021-03-27T11:50:08Z</time>
      </trkpt>
      <trkpt lat="46.17433" lon="6.25835">
        <ele>502.4</ele>
        <time>2021-03-27T11:50:09Z</time>
      </trkpt>
      <trkpt lat="46.17433" lon="6.25835">
        <ele>502.2</ele>
        <time>2021-03-27T11:50:10Z</time>
      </trkpt>
      <trkpt lat="46.17433" lon="6.25835">
        <ele>502.2</ele>
        <time>2021-03-27T11:50:11Z</time>
      </trkpt>
      <trkpt lat="46.17433" lon="6.25835">
        <ele>502.2</ele>
        <time>2021-03-27T11:50:12Z</time>
      </trkpt>
      <trkpt lat="46.17433" lon="6.25835">
        <ele>502.4</ele>
        <time>2021-03-27T11:50:13Z</time>
      </trkpt>
      <trkpt lat="46.17433" lon="6.25835">
        <ele>502.2</ele>
        <time>2021-03-27T11:50:14Z</time>
      </trkpt>
      <trkpt lat="46.17433" lon="6.25835">
        <ele>502.2</ele>
        <time>2021-03-27T11:50:15Z</time>
      </trkpt>
      <trkpt lat="46.17433" lon="6.25835">
        <ele>502.4</ele>
        <time>2021-03-27T11:50:16Z</time>
      </trkpt>
      <trkpt lat="46.17433" lon="6.25835">
        <ele>502.2</ele>
        <time>2021-03-27T11:50:17Z</time>
      </trkpt>
      <trkpt lat="46.17433" lon="6.25835">
        <ele>502.4</ele>
        <time>2021-03-27T11:50:18Z</time>
      </trkpt>
      <trkpt lat="46.17433" lon="6.25835">
        <ele>502.2</ele>
        <time>2021-03-27T11:50:19Z</time>
      </trkpt>
      <trkpt lat="46.17433" lon="6.25834">
        <ele>502.2</ele>
        <time>2021-03-27T11:50:20Z</time>
      </trkpt>
      <trkpt lat="46.17433" lon="6.25834">
        <ele>502.2</ele>
        <time>2021-03-27T11:50:21Z</time>
      </trkpt>
      <trkpt lat="46.17433" lon="6.25834">
        <ele>502.2</ele>
        <time>2021-03-27T11:50:22Z</time>
      </trkpt>
      <trkpt lat="46.17433" lon="6.25834">
        <ele>502.2</ele>
        <time>2021-03-27T11:50:23Z</time>
      </trkpt>
      <trkpt lat="46.17434" lon="6.25834">
        <ele>502</ele>
        <time>2021-03-27T11:50:24Z</time>
      </trkpt>
      <trkpt lat="46.17434" lon="6.25834">
        <ele>502.2</ele>
        <time>2021-03-27T11:50:25Z</time>
      </trkpt>
      <trkpt lat="46.17434" lon="6.25834">
        <ele>502.2</ele>
        <time>2021-03-27T11:50:26Z</time>
      </trkpt>
      <trkpt lat="46.17434" lon="6.25834">
        <ele>502.2</ele>
        <time>2021-03-27T11:50:27Z</time>
      </trkpt>
      <trkpt lat="46.17434" lon="6.25834">
        <ele>502</ele>
        <time>2021-03-27T11:50:28Z</time>
      </trkpt>
      <trkpt lat="46.17434" lon="6.25834">
        <ele>502.2</ele>
        <time>2021-03-27T11:50:29Z</time>
      </trkpt>
      <trkpt lat="46.17434" lon="6.25834">
        <ele>502.2</ele>
        <time>2021-03-27T11:50:30Z</time>
      </trkpt>
      <trkpt lat="46.17434" lon="6.25833">
        <ele>502.2</ele>
        <time>2021-03-27T11:50:31Z</time>
      </trkpt>
      <trkpt lat="46.17434" lon="6.25833">
        <ele>502.2</ele>
        <time>2021-03-27T11:50:32Z</time>
      </trkpt>
      <trkpt lat="46.17433" lon="6.25833">
        <ele>502.2</ele>
        <time>2021-03-27T11:50:33Z</time>
      </trkpt>
      <trkpt lat="46.17433" lon="6.25833">
        <ele>502.2</ele>
        <time>2021-03-27T11:50:34Z</time>
      </trkpt>
      <trkpt lat="46.17433" lon="6.25832">
        <ele>502.2</ele>
        <time>2021-03-27T11:50:35Z</time>
      </trkpt>
      <trkpt lat="46.17433" lon="6.25832">
        <ele>502.2</ele>
        <time>2021-03-27T11:50:36Z</time>
      </trkpt>
      <trkpt lat="46.17433" lon="6.25831">
        <ele>502.2</ele>
        <time>2021-03-27T11:50:37Z</time>
      </trkpt>
      <trkpt lat="46.17433" lon="6.25831">
        <ele>502.2</ele>
        <time>2021-03-27T11:50:38Z</time>
      </trkpt>
      <trkpt lat="46.17433" lon="6.25831">
        <ele>502.2</ele>
        <time>2021-03-27T11:50:39Z</time>
      </trkpt>
      <trkpt lat="46.17433" lon="6.25831">
        <ele>502.2</ele>
        <time>2021-03-27T11:50:41Z</time>
      </trkpt>
      <trkpt lat="46.17433" lon="6.25831">
        <ele>502.2</ele>
        <time>2021-03-27T11:50:42Z</time>
      </trkpt>
      <trkpt lat="46.17433" lon="6.2583">
        <ele>502.2</ele>
        <time>2021-03-27T11:50:43Z</time>
      </trkpt>
      <trkpt lat="46.17434" lon="6.25831">
        <ele>502.2</ele>
        <time>2021-03-27T11:50:44Z</time>
      </trkpt>
      <trkpt lat="46.17434" lon="6.25831">
        <ele>502.2</ele>
        <time>2021-03-27T11:50:45Z</time>
      </trkpt>
      <trkpt lat="46.17434" lon="6.25832">
        <ele>502.2</ele>
        <time>2021-03-27T11:50:46Z</time>
      </trkpt>
      <trkpt lat="46.17434" lon="6.25833">
        <ele>502.2</ele>
        <time>2021-03-27T11:50:47Z</time>
      </trkpt>
      <trkpt lat="46.17435" lon="6.25833">
        <ele>502.2</ele>
        <time>2021-03-27T11:50:48Z</time>
      </trkpt>
      <trkpt lat="46.17435" lon="6.25834">
        <ele>502.2</ele>
        <time>2021-03-27T11:50:49Z</time>
      </trkpt>
      <trkpt lat="46.17435" lon="6.25834">
        <ele>502.4</ele>
        <time>2021-03-27T11:50:50Z</time>
      </trkpt>
      <trkpt lat="46.17435" lon="6.25834">
        <ele>502.4</ele>
        <time>2021-03-27T11:50:51Z</time>
      </trkpt>
      <trkpt lat="46.17435" lon="6.25834">
        <ele>502.4</ele>
        <time>2021-03-27T11:50:52Z</time>
      </trkpt>
      <trkpt lat="46.17435" lon="6.25834">
        <ele>502.2</ele>
        <time>2021-03-27T11:50:53Z</time>
      </trkpt>
      <trkpt lat="46.17435" lon="6.25834">
        <ele>502.4</ele>
        <time>2021-03-27T11:50:54Z</time>
      </trkpt>
      <trkpt lat="46.17435" lon="6.25834">
        <ele>502.4</ele>
        <time>2021-03-27T11:50:55Z</time>
      </trkpt>
      <trkpt lat="46.17435" lon="6.25834">
        <ele>502.4</ele>
        <time>2021-03-27T11:50:56Z</time>
      </trkpt>
      <trkpt lat="46.17435" lon="6.25834">
        <ele>502.4</ele>
        <time>2021-03-27T11:50:57Z</time>
      </trkpt>
      <trkpt lat="46.17435" lon="6.25834">
        <ele>502.4</ele>
        <time>2021-03-27T11:50:58Z</time>
      </trkpt>
      <trkpt lat="46.17435" lon="6.25834">
        <ele>502.4</ele>
        <time>2021-03-27T11:50:59Z</time>
      </trkpt>
      <trkpt lat="46.17435" lon="6.25834">
        <ele>502.6</ele>
        <time>2021-03-27T11:51:00Z</time>
      </trkpt>
      <trkpt lat="46.17435" lon="6.25834">
        <ele>502.4</ele>
        <time>2021-03-27T11:51:01Z</time>
      </trkpt>
      <trkpt lat="46.17435" lon="6.25834">
        <ele>502.4</ele>
        <time>2021-03-27T11:51:02Z</time>
      </trkpt>
      <trkpt lat="46.17435" lon="6.25834">
        <ele>502.4</ele>
        <time>2021-03-27T11:51:03Z</time>
      </trkpt>
      <trkpt lat="46.17435" lon="6.25834">
        <ele>502.6</ele>
        <time>2021-03-27T11:51:04Z</time>
      </trkpt>
      <trkpt lat="46.17435" lon="6.25835">
        <ele>502.4</ele>
        <time>2021-03-27T11:51:05Z</time>
      </trkpt>
      <trkpt lat="46.17435" lon="6.25835">
        <ele>502.4</ele>
        <time>2021-03-27T11:51:06Z</time>
      </trkpt>
      <trkpt lat="46.17435" lon="6.25835">
        <ele>502.4</ele>
        <time>2021-03-27T11:51:07Z</time>
      </trkpt>
      <trkpt lat="46.17435" lon="6.25835">
        <ele>502.4</ele>
        <time>2021-03-27T11:51:08Z</time>
      </trkpt>
      <trkpt lat="46.17435" lon="6.25835">
        <ele>502.4</ele>
        <time>2021-03-27T11:51:09Z</time>
      </trkpt>
      <trkpt lat="46.17435" lon="6.25834">
        <ele>502.4</ele>
        <time>2021-03-27T11:51:10Z</time>
      </trkpt>
      <trkpt lat="46.17434" lon="6.25834">
        <ele>502.4</ele>
        <time>2021-03-27T11:51:11Z</time>
      </trkpt>
      <trkpt lat="46.17434" lon="6.25834">
        <ele>502.6</ele>
        <time>2021-03-27T11:51:12Z</time>
      </trkpt>
      <trkpt lat="46.17434" lon="6.25834">
        <ele>502.4</ele>
        <time>2021-03-27T11:51:13Z</time>
      </trkpt>
      <trkpt lat="46.17434" lon="6.25834">
        <ele>502.4</ele>
        <time>2021-03-27T11:51:14Z</time>
      </trkpt>
      <trkpt lat="46.17434" lon="6.25834">
        <ele>502.4</ele>
        <time>2021-03-27T11:51:15Z</time>
      </trkpt>
      <trkpt lat="46.17434" lon="6.25834">
        <ele>502.2</ele>
        <time>2021-03-27T11:51:16Z</time>
      </trkpt>
      <trkpt lat="46.17434" lon="6.25834">
        <ele>502.4</ele>
        <time>2021-03-27T11:51:17Z</time>
      </trkpt>
      <trkpt lat="46.17434" lon="6.25834">
        <ele>502.4</ele>
        <time>2021-03-27T11:51:18Z</time>
      </trkpt>
      <trkpt lat="46.17434" lon="6.25834">
        <ele>502.6</ele>
        <time>2021-03-27T11:51:19Z</time>
      </trkpt>
      <trkpt lat="46.17434" lon="6.25834">
        <ele>502.4</ele>
        <time>2021-03-27T11:51:20Z</time>
      </trkpt>
      <trkpt lat="46.17434" lon="6.25834">
        <ele>502.4</ele>
        <time>2021-03-27T11:51:21Z</time>
      </trkpt>
      <trkpt lat="46.17434" lon="6.25834">
        <ele>502.6</ele>
        <time>2021-03-27T11:51:22Z</time>
      </trkpt>
      <trkpt lat="46.17434" lon="6.25834">
        <ele>502.6</ele>
        <time>2021-03-27T11:51:23Z</time>
      </trkpt>
      <trkpt lat="46.17434" lon="6.25834">
        <ele>502.6</ele>
        <time>2021-03-27T11:51:24Z</time>
      </trkpt>
      <trkpt lat="46.17434" lon="6.25834">
        <ele>502.6</ele>
        <time>2021-03-27T11:51:25Z</time>
      </trkpt>
      <trkpt lat="46.17434" lon="6.25834">
        <ele>502.6</ele>
        <time>2021-03-27T11:51:26Z</time>
      </trkpt>
      <trkpt lat="46.17434" lon="6.25834">
        <ele>502.6</ele>
        <time>2021-03-27T11:51:27Z</time>
      </trkpt>
      <trkpt lat="46.17434" lon="6.25834">
        <ele>502.6</ele>
        <time>2021-03-27T11:51:28Z</time>
      </trkpt>
      <trkpt lat="46.17434" lon="6.25834">
        <ele>502.6</ele>
        <time>2021-03-27T11:51:29Z</time>
      </trkpt>
      <trkpt lat="46.17434" lon="6.25834">
        <ele>502.8</ele>
        <time>2021-03-27T11:51:30Z</time>
      </trkpt>
      <trkpt lat="46.17434" lon="6.25834">
        <ele>502.6</ele>
        <time>2021-03-27T11:51:31Z</time>
      </trkpt>
      <trkpt lat="46.17434" lon="6.25834">
        <ele>502.6</ele>
        <time>2021-03-27T11:51:32Z</time>
      </trkpt>
      <trkpt lat="46.17434" lon="6.25834">
        <ele>502.8</ele>
        <time>2021-03-27T11:51:33Z</time>
      </trkpt>
      <trkpt lat="46.17434" lon="6.25833">
        <ele>502.6</ele>
        <time>2021-03-27T11:51:34Z</time>
      </trkpt>
      <trkpt lat="46.17434" lon="6.25833">
        <ele>502.8</ele>
        <time>2021-03-27T11:51:35Z</time>
      </trkpt>
      <trkpt lat="46.17433" lon="6.25833">
        <ele>502.6</ele>
        <time>2021-03-27T11:51:36Z</time>
      </trkpt>
      <trkpt lat="46.17433" lon="6.25831">
        <ele>502.6</ele>
        <time>2021-03-27T11:51:37Z</time>
      </trkpt>
      <trkpt lat="46.17433" lon="6.2583">
        <ele>502.6</ele>
        <time>2021-03-27T11:51:38Z</time>
      </trkpt>
      <trkpt lat="46.17433" lon="6.25829">
        <ele>502.8</ele>
        <time>2021-03-27T11:51:39Z</time>
      </trkpt>
      <trkpt lat="46.17433" lon="6.25827">
        <ele>502.6</ele>
        <time>2021-03-27T11:51:40Z</time>
      </trkpt>
      <trkpt lat="46.17433" lon="6.25825">
        <ele>502.8</ele>
        <time>2021-03-27T11:51:41Z</time>
      </trkpt>
      <trkpt lat="46.17432" lon="6.25824">
        <ele>502.8</ele>
        <time>2021-03-27T11:51:42Z</time>
      </trkpt>
      <trkpt lat="46.17432" lon="6.25822">
        <ele>502.6</ele>
        <time>2021-03-27T11:51:43Z</time>
      </trkpt>
      <trkpt lat="46.17432" lon="6.25821">
        <ele>502.6</ele>
        <time>2021-03-27T11:51:44Z</time>
      </trkpt>
      <trkpt lat="46.17431" lon="6.2582">
        <ele>502.8</ele>
        <time>2021-03-27T11:51:45Z</time>
      </trkpt>
      <trkpt lat="46.17431" lon="6.25818">
        <ele>502.6</ele>
        <time>2021-03-27T11:51:46Z</time>
      </trkpt>
      <trkpt lat="46.17431" lon="6.25817">
        <ele>502.6</ele>
        <time>2021-03-27T11:51:47Z</time>
      </trkpt>
      <trkpt lat="46.1743" lon="6.25816">
        <ele>502.8</ele>
        <time>2021-03-27T11:51:48Z</time>
      </trkpt>
      <trkpt lat="46.1743" lon="6.25815">
        <ele>502.8</ele>
        <time>2021-03-27T11:51:49Z</time>
      </trkpt>
      <trkpt lat="46.1743" lon="6.25813">
        <ele>502.6</ele>
        <time>2021-03-27T11:51:50Z</time>
      </trkpt>
      <trkpt lat="46.1743" lon="6.25812">
        <ele>502.6</ele>
        <time>2021-03-27T11:51:51Z</time>
      </trkpt>
      <trkpt lat="46.1743" lon="6.25811">
        <ele>502.6</ele>
        <time>2021-03-27T11:51:52Z</time>
      </trkpt>
      <trkpt lat="46.17429" lon="6.2581">
        <ele>502.6</ele>
        <time>2021-03-27T11:51:53Z</time>
      </trkpt>
      <trkpt lat="46.17429" lon="6.2581">
        <ele>502.8</ele>
        <time>2021-03-27T11:51:54Z</time>
      </trkpt>
      <trkpt lat="46.17429" lon="6.2581">
        <ele>502.8</ele>
        <time>2021-03-27T11:51:55Z</time>
      </trkpt>
      <trkpt lat="46.17429" lon="6.2581">
        <ele>502.8</ele>
        <time>2021-03-27T11:51:56Z</time>
      </trkpt>
      <trkpt lat="46.17429" lon="6.2581">
        <ele>502.6</ele>
        <time>2021-03-27T11:51:57Z</time>
      </trkpt>
      <trkpt lat="46.17429" lon="6.2581">
        <ele>502.6</ele>
        <time>2021-03-27T11:51:58Z</time>
      </trkpt>
      <trkpt lat="46.17429" lon="6.2581">
        <ele>502.6</ele>
        <time>2021-03-27T11:51:59Z</time>
      </trkpt>
      <trkpt lat="46.17429" lon="6.2581">
        <ele>502.8</ele>
        <time>2021-03-27T11:52:00Z</time>
      </trkpt>
      <trkpt lat="46.17429" lon="6.2581">
        <ele>502.8</ele>
        <time>2021-03-27T11:52:01Z</time>
      </trkpt>
      <trkpt lat="46.17428" lon="6.2581">
        <ele>502.8</ele>
        <time>2021-03-27T11:52:02Z</time>
      </trkpt>
      <trkpt lat="46.17428" lon="6.2581">
        <ele>502.6</ele>
        <time>2021-03-27T11:52:03Z</time>
      </trkpt>
      <trkpt lat="46.17429" lon="6.25809">
        <ele>502.6</ele>
        <time>2021-03-27T11:52:04Z</time>
      </trkpt>
      <trkpt lat="46.17428" lon="6.25809">
        <ele>502.6</ele>
        <time>2021-03-27T11:52:05Z</time>
      </trkpt>
      <trkpt lat="46.17428" lon="6.25809">
        <ele>502.6</ele>
        <time>2021-03-27T11:52:06Z</time>
      </trkpt>
      <trkpt lat="46.17427" lon="6.25809">
        <ele>502.6</ele>
        <time>2021-03-27T11:52:07Z</time>
      </trkpt>
      <trkpt lat="46.17427" lon="6.25809">
        <ele>502.6</ele>
        <time>2021-03-27T11:52:08Z</time>
      </trkpt>
      <trkpt lat="46.17427" lon="6.25808">
        <ele>502.4</ele>
        <time>2021-03-27T11:52:09Z</time>
      </trkpt>
      <trkpt lat="46.17427" lon="6.25808">
        <ele>502.4</ele>
        <time>2021-03-27T11:52:10Z</time>
      </trkpt>
      <trkpt lat="46.17427" lon="6.25808">
        <ele>502.4</ele>
        <time>2021-03-27T11:52:11Z</time>
      </trkpt>
      <trkpt lat="46.17426" lon="6.25809">
        <ele>502.4</ele>
        <time>2021-03-27T11:52:12Z</time>
      </trkpt>
      <trkpt lat="46.17426" lon="6.25809">
        <ele>502.2</ele>
        <time>2021-03-27T11:52:13Z</time>
      </trkpt>
      <trkpt lat="46.17426" lon="6.25809">
        <ele>502</ele>
        <time>2021-03-27T11:52:14Z</time>
      </trkpt>
      <trkpt lat="46.17426" lon="6.25809">
        <ele>501.8</ele>
        <time>2021-03-27T11:52:15Z</time>
      </trkpt>
      <trkpt lat="46.17425" lon="6.25809">
        <ele>501.8</ele>
        <time>2021-03-27T11:52:16Z</time>
      </trkpt>
      <trkpt lat="46.17425" lon="6.25808">
        <ele>501.6</ele>
        <time>2021-03-27T11:52:17Z</time>
      </trkpt>
      <trkpt lat="46.17424" lon="6.25808">
        <ele>501.6</ele>
        <time>2021-03-27T11:52:18Z</time>
      </trkpt>
      <trkpt lat="46.17423" lon="6.25808">
        <ele>501.6</ele>
        <time>2021-03-27T11:52:19Z</time>
      </trkpt>
      <trkpt lat="46.17423" lon="6.25808">
        <ele>501.6</ele>
        <time>2021-03-27T11:52:20Z</time>
      </trkpt>
      <trkpt lat="46.17423" lon="6.25809">
        <ele>501.6</ele>
        <time>2021-03-27T11:52:21Z</time>
      </trkpt>
      <trkpt lat="46.17422" lon="6.25809">
        <ele>501.4</ele>
        <time>2021-03-27T11:52:22Z</time>
      </trkpt>
      <trkpt lat="46.17422" lon="6.25809">
        <ele>501.6</ele>
        <time>2021-03-27T11:52:23Z</time>
      </trkpt>
      <trkpt lat="46.17422" lon="6.25808">
        <ele>501.4</ele>
        <time>2021-03-27T11:52:24Z</time>
      </trkpt>
      <trkpt lat="46.17422" lon="6.25808">
        <ele>501.2</ele>
        <time>2021-03-27T11:52:25Z</time>
      </trkpt>
      <trkpt lat="46.17422" lon="6.25808">
        <ele>501.4</ele>
        <time>2021-03-27T11:52:26Z</time>
      </trkpt>
      <trkpt lat="46.17422" lon="6.25808">
        <ele>501.2</ele>
        <time>2021-03-27T11:52:27Z</time>
      </trkpt>
      <trkpt lat="46.17422" lon="6.25808">
        <ele>501.4</ele>
        <time>2021-03-27T11:52:28Z</time>
      </trkpt>
      <trkpt lat="46.17422" lon="6.25808">
        <ele>501.4</ele>
        <time>2021-03-27T11:52:29Z</time>
      </trkpt>
      <trkpt lat="46.17423" lon="6.25808">
        <ele>501.4</ele>
        <time>2021-03-27T11:52:30Z</time>
      </trkpt>
      <trkpt lat="46.17423" lon="6.25808">
        <ele>501.4</ele>
        <time>2021-03-27T11:52:31Z</time>
      </trkpt>
      <trkpt lat="46.17423" lon="6.25808">
        <ele>501.4</ele>
        <time>2021-03-27T11:52:32Z</time>
      </trkpt>
      <trkpt lat="46.17423" lon="6.25808">
        <ele>501.4</ele>
        <time>2021-03-27T11:52:33Z</time>
      </trkpt>
      <trkpt lat="46.17423" lon="6.25808">
        <ele>501.4</ele>
        <time>2021-03-27T11:52:34Z</time>
      </trkpt>
      <trkpt lat="46.17423" lon="6.25808">
        <ele>501.2</ele>
        <time>2021-03-27T11:52:35Z</time>
      </trkpt>
      <trkpt lat="46.17423" lon="6.25808">
        <ele>501.2</ele>
        <time>2021-03-27T11:52:36Z</time>
      </trkpt>
      <trkpt lat="46.17422" lon="6.25808">
        <ele>501.2</ele>
        <time>2021-03-27T11:52:37Z</time>
      </trkpt>
      <trkpt lat="46.17422" lon="6.25808">
        <ele>501.2</ele>
        <time>2021-03-27T11:52:38Z</time>
      </trkpt>
      <trkpt lat="46.17422" lon="6.25808">
        <ele>501.4</ele>
        <time>2021-03-27T11:52:39Z</time>
      </trkpt>
      <trkpt lat="46.17422" lon="6.25808">
        <ele>501.2</ele>
        <time>2021-03-27T11:52:40Z</time>
      </trkpt>
      <trkpt lat="46.17422" lon="6.25808">
        <ele>501.4</ele>
        <time>2021-03-27T11:52:41Z</time>
      </trkpt>
      <trkpt lat="46.17422" lon="6.25808">
        <ele>501.2</ele>
        <time>2021-03-27T11:52:42Z</time>
      </trkpt>
      <trkpt lat="46.17422" lon="6.25808">
        <ele>501.2</ele>
        <time>2021-03-27T11:52:43Z</time>
      </trkpt>
      <trkpt lat="46.17422" lon="6.25808">
        <ele>501.2</ele>
        <time>2021-03-27T11:52:44Z</time>
      </trkpt>
      <trkpt lat="46.17422" lon="6.25808">
        <ele>501.2</ele>
        <time>2021-03-27T11:52:45Z</time>
      </trkpt>
      <trkpt lat="46.17422" lon="6.25808">
        <ele>501.2</ele>
        <time>2021-03-27T11:52:46Z</time>
      </trkpt>
      <trkpt lat="46.17422" lon="6.25808">
        <ele>501.2</ele>
        <time>2021-03-27T11:52:47Z</time>
      </trkpt>
      <trkpt lat="46.17422" lon="6.25808">
        <ele>501.2</ele>
        <time>2021-03-27T11:52:48Z</time>
      </trkpt>
      <trkpt lat="46.17422" lon="6.25808">
        <ele>501</ele>
        <time>2021-03-27T11:52:49Z</time>
      </trkpt>
      <trkpt lat="46.17422" lon="6.25808">
        <ele>501.2</ele>
        <time>2021-03-27T11:52:50Z</time>
      </trkpt>
      <trkpt lat="46.17422" lon="6.25808">
        <ele>501.2</ele>
        <time>2021-03-27T11:52:51Z</time>
      </trkpt>
      <trkpt lat="46.17423" lon="6.25808">
        <ele>501</ele>
        <time>2021-03-27T11:52:52Z</time>
      </trkpt>
      <trkpt lat="46.17423" lon="6.25808">
        <ele>501</ele>
        <time>2021-03-27T11:52:53Z</time>
      </trkpt>
      <trkpt lat="46.17423" lon="6.25808">
        <ele>501</ele>
        <time>2021-03-27T11:52:54Z</time>
      </trkpt>
      <trkpt lat="46.17422" lon="6.25808">
        <ele>501</ele>
        <time>2021-03-27T11:52:55Z</time>
      </trkpt>
      <trkpt lat="46.17422" lon="6.25808">
        <ele>501</ele>
        <time>2021-03-27T11:52:56Z</time>
      </trkpt>
      <trkpt lat="46.17421" lon="6.25808">
        <ele>501</ele>
        <time>2021-03-27T11:52:57Z</time>
      </trkpt>
      <trkpt lat="46.1742" lon="6.25808">
        <ele>501</ele>
        <time>2021-03-27T11:52:58Z</time>
      </trkpt>
      <trkpt lat="46.17419" lon="6.25808">
        <ele>501</ele>
        <time>2021-03-27T11:52:59Z</time>
      </trkpt>
      <trkpt lat="46.17418" lon="6.25807">
        <ele>501</ele>
        <time>2021-03-27T11:53:00Z</time>
      </trkpt>
      <trkpt lat="46.17416" lon="6.25807">
        <ele>501</ele>
        <time>2021-03-27T11:53:01Z</time>
      </trkpt>
      <trkpt lat="46.17415" lon="6.25807">
        <ele>501</ele>
        <time>2021-03-27T11:53:02Z</time>
      </trkpt>
      <trkpt lat="46.17414" lon="6.25806">
        <ele>501</ele>
        <time>2021-03-27T11:53:03Z</time>
      </trkpt>
      <trkpt lat="46.17412" lon="6.25806">
        <ele>501</ele>
        <time>2021-03-27T11:53:04Z</time>
      </trkpt>
      <trkpt lat="46.17411" lon="6.25806">
        <ele>501</ele>
        <time>2021-03-27T11:53:05Z</time>
      </trkpt>
      <trkpt lat="46.1741" lon="6.25805">
        <ele>501</ele>
        <time>2021-03-27T11:53:06Z</time>
      </trkpt>
      <trkpt lat="46.17408" lon="6.25805">
        <ele>501</ele>
        <time>2021-03-27T11:53:07Z</time>
      </trkpt>
      <trkpt lat="46.17407" lon="6.25804">
        <ele>501</ele>
        <time>2021-03-27T11:53:08Z</time>
      </trkpt>
      <trkpt lat="46.17406" lon="6.25804">
        <ele>501</ele>
        <time>2021-03-27T11:53:09Z</time>
      </trkpt>
      <trkpt lat="46.17405" lon="6.25804">
        <ele>501</ele>
        <time>2021-03-27T11:53:10Z</time>
      </trkpt>
      <trkpt lat="46.17404" lon="6.25804">
        <ele>500.8</ele>
        <time>2021-03-27T11:53:11Z</time>
      </trkpt>
      <trkpt lat="46.17403" lon="6.25803">
        <ele>501</ele>
        <time>2021-03-27T11:53:12Z</time>
      </trkpt>
      <trkpt lat="46.17403" lon="6.25802">
        <ele>500.8</ele>
        <time>2021-03-27T11:53:13Z</time>
      </trkpt>
      <trkpt lat="46.17402" lon="6.25801">
        <ele>500.8</ele>
        <time>2021-03-27T11:53:14Z</time>
      </trkpt>
      <trkpt lat="46.17402" lon="6.25801">
        <ele>500.8</ele>
        <time>2021-03-27T11:53:15Z</time>
      </trkpt>
      <trkpt lat="46.17402" lon="6.25799">
        <ele>500.8</ele>
        <time>2021-03-27T11:53:16Z</time>
      </trkpt>
      <trkpt lat="46.17401" lon="6.25798">
        <ele>500.6</ele>
        <time>2021-03-27T11:53:17Z</time>
      </trkpt>
      <trkpt lat="46.17401" lon="6.25797">
        <ele>500.6</ele>
        <time>2021-03-27T11:53:18Z</time>
      </trkpt>
      <trkpt lat="46.17402" lon="6.25795">
        <ele>500.6</ele>
        <time>2021-03-27T11:53:19Z</time>
      </trkpt>
      <trkpt lat="46.17402" lon="6.25794">
        <ele>500.6</ele>
        <time>2021-03-27T11:53:20Z</time>
      </trkpt>
      <trkpt lat="46.17402" lon="6.25793">
        <ele>500.6</ele>
        <time>2021-03-27T11:53:21Z</time>
      </trkpt>
      <trkpt lat="46.17402" lon="6.25792">
        <ele>500.4</ele>
        <time>2021-03-27T11:53:22Z</time>
      </trkpt>
      <trkpt lat="46.17402" lon="6.25791">
        <ele>500.4</ele>
        <time>2021-03-27T11:53:23Z</time>
      </trkpt>
      <trkpt lat="46.17403" lon="6.25789">
        <ele>500.6</ele>
        <time>2021-03-27T11:53:24Z</time>
      </trkpt>
      <trkpt lat="46.17403" lon="6.25788">
        <ele>500.4</ele>
        <time>2021-03-27T11:53:25Z</time>
      </trkpt>
      <trkpt lat="46.17403" lon="6.25788">
        <ele>500.2</ele>
        <time>2021-03-27T11:53:26Z</time>
      </trkpt>
      <trkpt lat="46.17403" lon="6.25787">
        <ele>500.2</ele>
        <time>2021-03-27T11:53:27Z</time>
      </trkpt>
      <trkpt lat="46.17403" lon="6.25786">
        <ele>500.2</ele>
        <time>2021-03-27T11:53:28Z</time>
      </trkpt>
      <trkpt lat="46.17403" lon="6.25786">
        <ele>500.2</ele>
        <time>2021-03-27T11:53:29Z</time>
      </trkpt>
      <trkpt lat="46.17403" lon="6.25785">
        <ele>500</ele>
        <time>2021-03-27T11:53:30Z</time>
      </trkpt>
      <trkpt lat="46.17403" lon="6.25786">
        <ele>500</ele>
        <time>2021-03-27T11:53:31Z</time>
      </trkpt>
      <trkpt lat="46.17403" lon="6.25786">
        <ele>500</ele>
        <time>2021-03-27T11:53:32Z</time>
      </trkpt>
      <trkpt lat="46.17403" lon="6.25785">
        <ele>500</ele>
        <time>2021-03-27T11:53:33Z</time>
      </trkpt>
      <trkpt lat="46.17403" lon="6.25785">
        <ele>500</ele>
        <time>2021-03-27T11:53:34Z</time>
      </trkpt>
      <trkpt lat="46.17403" lon="6.25785">
        <ele>499.8</ele>
        <time>2021-03-27T11:53:35Z</time>
      </trkpt>
      <trkpt lat="46.17403" lon="6.25785">
        <ele>499.8</ele>
        <time>2021-03-27T11:53:36Z</time>
      </trkpt>
      <trkpt lat="46.17403" lon="6.25785">
        <ele>500</ele>
        <time>2021-03-27T11:53:37Z</time>
      </trkpt>
      <trkpt lat="46.17403" lon="6.25785">
        <ele>499.8</ele>
        <time>2021-03-27T11:53:38Z</time>
      </trkpt>
      <trkpt lat="46.17403" lon="6.25785">
        <ele>499.8</ele>
        <time>2021-03-27T11:53:39Z</time>
      </trkpt>
      <trkpt lat="46.17403" lon="6.25785">
        <ele>500</ele>
        <time>2021-03-27T11:53:40Z</time>
      </trkpt>
      <trkpt lat="46.17403" lon="6.25785">
        <ele>499.8</ele>
        <time>2021-03-27T11:53:41Z</time>
      </trkpt>
      <trkpt lat="46.17403" lon="6.25785">
        <ele>499.8</ele>
        <time>2021-03-27T11:53:42Z</time>
      </trkpt>
      <trkpt lat="46.17403" lon="6.25785">
        <ele>499.8</ele>
        <time>2021-03-27T11:53:43Z</time>
      </trkpt>
      <trkpt lat="46.17403" lon="6.25785">
        <ele>499.8</ele>
        <time>2021-03-27T11:53:44Z</time>
      </trkpt>
      <trkpt lat="46.17403" lon="6.25785">
        <ele>499.8</ele>
        <time>2021-03-27T11:53:45Z</time>
      </trkpt>
      <trkpt lat="46.17403" lon="6.25785">
        <ele>499.8</ele>
        <time>2021-03-27T11:53:46Z</time>
      </trkpt>
      <trkpt lat="46.17403" lon="6.25785">
        <ele>499.8</ele>
        <time>2021-03-27T11:53:47Z</time>
      </trkpt>
      <trkpt lat="46.17403" lon="6.25785">
        <ele>499.8</ele>
        <time>2021-03-27T11:53:48Z</time>
      </trkpt>
      <trkpt lat="46.17403" lon="6.25785">
        <ele>499.8</ele>
        <time>2021-03-27T11:53:49Z</time>
      </trkpt>
      <trkpt lat="46.17403" lon="6.25785">
        <ele>499.8</ele>
        <time>2021-03-27T11:53:50Z</time>
      </trkpt>
      <trkpt lat="46.17403" lon="6.25785">
        <ele>499.8</ele>
        <time>2021-03-27T11:53:51Z</time>
      </trkpt>
      <trkpt lat="46.17403" lon="6.25785">
        <ele>499.8</ele>
        <time>2021-03-27T11:53:52Z</time>
      </trkpt>
      <trkpt lat="46.17403" lon="6.25785">
        <ele>499.8</ele>
        <time>2021-03-27T11:53:53Z</time>
      </trkpt>
      <trkpt lat="46.17403" lon="6.25785">
        <ele>499.8</ele>
        <time>2021-03-27T11:53:54Z</time>
      </trkpt>
      <trkpt lat="46.17403" lon="6.25785">
        <ele>499.8</ele>
        <time>2021-03-27T11:53:55Z</time>
      </trkpt>
      <trkpt lat="46.17403" lon="6.25785">
        <ele>499.8</ele>
        <time>2021-03-27T11:53:56Z</time>
      </trkpt>
      <trkpt lat="46.17403" lon="6.25785">
        <ele>500</ele>
        <time>2021-03-27T11:53:57Z</time>
      </trkpt>
      <trkpt lat="46.17403" lon="6.25785">
        <ele>500</ele>
        <time>2021-03-27T11:53:58Z</time>
      </trkpt>
      <trkpt lat="46.17403" lon="6.25785">
        <ele>499.8</ele>
        <time>2021-03-27T11:53:59Z</time>
      </trkpt>
      <trkpt lat="46.17403" lon="6.25785">
        <ele>499.8</ele>
        <time>2021-03-27T11:54:00Z</time>
      </trkpt>
      <trkpt lat="46.17403" lon="6.25785">
        <ele>499.8</ele>
        <time>2021-03-27T11:54:01Z</time>
      </trkpt>
      <trkpt lat="46.17403" lon="6.25785">
        <ele>500</ele>
        <time>2021-03-27T11:54:02Z</time>
      </trkpt>
      <trkpt lat="46.17403" lon="6.25785">
        <ele>499.8</ele>
        <time>2021-03-27T11:54:03Z</time>
      </trkpt>
      <trkpt lat="46.17403" lon="6.25785">
        <ele>499.8</ele>
        <time>2021-03-27T11:54:04Z</time>
      </trkpt>
      <trkpt lat="46.17403" lon="6.25785">
        <ele>500</ele>
        <time>2021-03-27T11:54:05Z</time>
      </trkpt>
      <trkpt lat="46.17403" lon="6.25785">
        <ele>500</ele>
        <time>2021-03-27T11:54:06Z</time>
      </trkpt>
      <trkpt lat="46.17403" lon="6.25785">
        <ele>500</ele>
        <time>2021-03-27T11:54:07Z</time>
      </trkpt>
      <trkpt lat="46.17403" lon="6.25785">
        <ele>500</ele>
        <time>2021-03-27T11:54:08Z</time>
      </trkpt>
      <trkpt lat="46.17403" lon="6.25785">
        <ele>500</ele>
        <time>2021-03-27T11:54:09Z</time>
      </trkpt>
      <trkpt lat="46.17403" lon="6.25785">
        <ele>500</ele>
        <time>2021-03-27T11:54:10Z</time>
      </trkpt>
      <trkpt lat="46.17403" lon="6.25785">
        <ele>499.8</ele>
        <time>2021-03-27T11:54:11Z</time>
      </trkpt>
      <trkpt lat="46.17403" lon="6.25785">
        <ele>499.8</ele>
        <time>2021-03-27T11:54:12Z</time>
      </trkpt>
      <trkpt lat="46.17403" lon="6.25785">
        <ele>500</ele>
        <time>2021-03-27T11:54:13Z</time>
      </trkpt>
      <trkpt lat="46.17403" lon="6.25785">
        <ele>499.8</ele>
        <time>2021-03-27T11:54:14Z</time>
      </trkpt>
      <trkpt lat="46.17403" lon="6.25785">
        <ele>499.6</ele>
        <time>2021-03-27T11:54:15Z</time>
      </trkpt>
      <trkpt lat="46.17403" lon="6.25785">
        <ele>499.8</ele>
        <time>2021-03-27T11:54:16Z</time>
      </trkpt>
      <trkpt lat="46.17403" lon="6.25785">
        <ele>499.8</ele>
        <time>2021-03-27T11:54:17Z</time>
      </trkpt>
      <trkpt lat="46.17403" lon="6.25785">
        <ele>499.6</ele>
        <time>2021-03-27T11:54:18Z</time>
      </trkpt>
      <trkpt lat="46.17403" lon="6.25785">
        <ele>499.6</ele>
        <time>2021-03-27T11:54:19Z</time>
      </trkpt>
      <trkpt lat="46.17403" lon="6.25785">
        <ele>499.6</ele>
        <time>2021-03-27T11:54:20Z</time>
      </trkpt>
      <trkpt lat="46.17403" lon="6.25785">
        <ele>499.6</ele>
        <time>2021-03-27T11:54:21Z</time>
      </trkpt>
      <trkpt lat="46.17403" lon="6.25785">
        <ele>499.6</ele>
        <time>2021-03-27T11:54:22Z</time>
      </trkpt>
      <trkpt lat="46.17403" lon="6.25785">
        <ele>499.6</ele>
        <time>2021-03-27T11:54:23Z</time>
      </trkpt>
      <trkpt lat="46.17403" lon="6.25785">
        <ele>499.6</ele>
        <time>2021-03-27T11:54:24Z</time>
      </trkpt>
      <trkpt lat="46.17403" lon="6.25785">
        <ele>499.4</ele>
        <time>2021-03-27T11:54:25Z</time>
      </trkpt>
      <trkpt lat="46.17403" lon="6.25785">
        <ele>499.6</ele>
        <time>2021-03-27T11:54:26Z</time>
      </trkpt>
      <trkpt lat="46.17403" lon="6.25785">
        <ele>499.6</ele>
        <time>2021-03-27T11:54:27Z</time>
      </trkpt>
      <trkpt lat="46.17403" lon="6.25785">
        <ele>499.6</ele>
        <time>2021-03-27T11:54:28Z</time>
      </trkpt>
      <trkpt lat="46.17403" lon="6.25785">
        <ele>499.4</ele>
        <time>2021-03-27T11:54:29Z</time>
      </trkpt>
      <trkpt lat="46.17403" lon="6.25785">
        <ele>499.4</ele>
        <time>2021-03-27T11:54:30Z</time>
      </trkpt>
      <trkpt lat="46.17403" lon="6.25785">
        <ele>499.6</ele>
        <time>2021-03-27T11:54:31Z</time>
      </trkpt>
      <trkpt lat="46.17403" lon="6.25785">
        <ele>499.4</ele>
        <time>2021-03-27T11:54:32Z</time>
      </trkpt>
      <trkpt lat="46.17403" lon="6.25785">
        <ele>499.4</ele>
        <time>2021-03-27T11:54:33Z</time>
      </trkpt>
      <trkpt lat="46.17403" lon="6.25785">
        <ele>499.4</ele>
        <time>2021-03-27T11:54:34Z</time>
      </trkpt>
      <trkpt lat="46.17403" lon="6.25785">
        <ele>499.4</ele>
        <time>2021-03-27T11:54:35Z</time>
      </trkpt>
      <trkpt lat="46.17403" lon="6.25785">
        <ele>499.4</ele>
        <time>2021-03-27T11:54:36Z</time>
      </trkpt>
      <trkpt lat="46.17403" lon="6.25785">
        <ele>499.4</ele>
        <time>2021-03-27T11:54:37Z</time>
      </trkpt>
      <trkpt lat="46.17403" lon="6.25785">
        <ele>499.4</ele>
        <time>2021-03-27T11:54:38Z</time>
      </trkpt>
      <trkpt lat="46.17403" lon="6.25785">
        <ele>499.6</ele>
        <time>2021-03-27T11:54:39Z</time>
      </trkpt>
      <trkpt lat="46.17403" lon="6.25785">
        <ele>499.4</ele>
        <time>2021-03-27T11:54:40Z</time>
      </trkpt>
      <trkpt lat="46.17403" lon="6.25785">
        <ele>499.4</ele>
        <time>2021-03-27T11:54:41Z</time>
      </trkpt>
      <trkpt lat="46.17403" lon="6.25785">
        <ele>499.4</ele>
        <time>2021-03-27T11:54:42Z</time>
      </trkpt>
      <trkpt lat="46.17403" lon="6.25785">
        <ele>499.6</ele>
        <time>2021-03-27T11:54:43Z</time>
      </trkpt>
      <trkpt lat="46.17403" lon="6.25785">
        <ele>499.4</ele>
        <time>2021-03-27T11:54:44Z</time>
      </trkpt>
      <trkpt lat="46.17403" lon="6.25785">
        <ele>499.6</ele>
        <time>2021-03-27T11:54:45Z</time>
      </trkpt>
      <trkpt lat="46.17403" lon="6.25785">
        <ele>499.4</ele>
        <time>2021-03-27T11:54:46Z</time>
      </trkpt>
      <trkpt lat="46.17403" lon="6.25785">
        <ele>499.6</ele>
        <time>2021-03-27T11:54:47Z</time>
      </trkpt>
      <trkpt lat="46.17403" lon="6.25785">
        <ele>499.6</ele>
        <time>2021-03-27T11:54:48Z</time>
      </trkpt>
      <trkpt lat="46.17403" lon="6.25785">
        <ele>499.4</ele>
        <time>2021-03-27T11:54:49Z</time>
      </trkpt>
      <trkpt lat="46.17403" lon="6.25785">
        <ele>499.6</ele>
        <time>2021-03-27T11:54:50Z</time>
      </trkpt>
      <trkpt lat="46.17403" lon="6.25785">
        <ele>499.6</ele>
        <time>2021-03-27T11:54:51Z</time>
      </trkpt>
      <trkpt lat="46.17403" lon="6.25785">
        <ele>499.4</ele>
        <time>2021-03-27T11:54:52Z</time>
      </trkpt>
      <trkpt lat="46.17403" lon="6.25785">
        <ele>499.6</ele>
        <time>2021-03-27T11:54:53Z</time>
      </trkpt>
      <trkpt lat="46.17403" lon="6.25785">
        <ele>499.6</ele>
        <time>2021-03-27T11:54:54Z</time>
      </trkpt>
      <trkpt lat="46.17403" lon="6.25785">
        <ele>499.6</ele>
        <time>2021-03-27T11:54:55Z</time>
      </trkpt>
      <trkpt lat="46.17403" lon="6.25785">
        <ele>499.6</ele>
        <time>2021-03-27T11:54:56Z</time>
      </trkpt>
      <trkpt lat="46.17403" lon="6.25785">
        <ele>499.6</ele>
        <time>2021-03-27T11:54:57Z</time>
      </trkpt>
      <trkpt lat="46.17403" lon="6.25785">
        <ele>499.4</ele>
        <time>2021-03-27T11:54:58Z</time>
      </trkpt>
      <trkpt lat="46.17403" lon="6.25785">
        <ele>499.6</ele>
        <time>2021-03-27T11:54:59Z</time>
      </trkpt>
      <trkpt lat="46.17403" lon="6.25785">
        <ele>499.6</ele>
        <time>2021-03-27T11:55:00Z</time>
      </trkpt>
      <trkpt lat="46.17403" lon="6.25785">
        <ele>499.4</ele>
        <time>2021-03-27T11:55:01Z</time>
      </trkpt>
      <trkpt lat="46.17403" lon="6.25785">
        <ele>499.6</ele>
        <time>2021-03-27T11:55:02Z</time>
      </trkpt>
      <trkpt lat="46.17403" lon="6.25785">
        <ele>499.4</ele>
        <time>2021-03-27T11:55:03Z</time>
      </trkpt>
      <trkpt lat="46.17403" lon="6.25785">
        <ele>499.6</ele>
        <time>2021-03-27T11:55:04Z</time>
      </trkpt>
      <trkpt lat="46.17403" lon="6.25785">
        <ele>499.6</ele>
        <time>2021-03-27T11:55:06Z</time>
      </trkpt>
      <trkpt lat="46.17403" lon="6.25785">
        <ele>499.6</ele>
        <time>2021-03-27T11:55:07Z</time>
      </trkpt>
      <trkpt lat="46.17403" lon="6.25785">
        <ele>499.4</ele>
        <time>2021-03-27T11:55:08Z</time>
      </trkpt>
      <trkpt lat="46.17403" lon="6.25785">
        <ele>499.6</ele>
        <time>2021-03-27T11:55:09Z</time>
      </trkpt>
      <trkpt lat="46.17403" lon="6.25785">
        <ele>499.6</ele>
        <time>2021-03-27T11:55:10Z</time>
      </trkpt>
      <trkpt lat="46.17403" lon="6.25785">
        <ele>499.4</ele>
        <time>2021-03-27T11:55:11Z</time>
      </trkpt>
      <trkpt lat="46.17403" lon="6.25785">
        <ele>499.6</ele>
        <time>2021-03-27T11:55:12Z</time>
      </trkpt>
      <trkpt lat="46.17403" lon="6.25785">
        <ele>499.4</ele>
        <time>2021-03-27T11:55:13Z</time>
      </trkpt>
      <trkpt lat="46.17403" lon="6.25785">
        <ele>499.6</ele>
        <time>2021-03-27T11:55:14Z</time>
      </trkpt>
      <trkpt lat="46.17403" lon="6.25785">
        <ele>499.4</ele>
        <time>2021-03-27T11:55:15Z</time>
      </trkpt>
      <trkpt lat="46.17403" lon="6.25785">
        <ele>499.6</ele>
        <time>2021-03-27T11:55:16Z</time>
      </trkpt>
      <trkpt lat="46.17403" lon="6.25785">
        <ele>499.6</ele>
        <time>2021-03-27T11:55:17Z</time>
      </trkpt>
      <trkpt lat="46.17403" lon="6.25785">
        <ele>499.4</ele>
        <time>2021-03-27T11:55:18Z</time>
      </trkpt>
      <trkpt lat="46.17403" lon="6.25785">
        <ele>499.6</ele>
        <time>2021-03-27T11:55:19Z</time>
      </trkpt>
      <trkpt lat="46.17403" lon="6.25785">
        <ele>499.4</ele>
        <time>2021-03-27T11:55:20Z</time>
      </trkpt>
      <trkpt lat="46.17403" lon="6.25785">
        <ele>499.6</ele>
        <time>2021-03-27T11:55:21Z</time>
      </trkpt>
      <trkpt lat="46.17403" lon="6.25785">
        <ele>499.6</ele>
        <time>2021-03-27T11:55:22Z</time>
      </trkpt>
      <trkpt lat="46.17403" lon="6.25785">
        <ele>499.4</ele>
        <time>2021-03-27T11:55:23Z</time>
      </trkpt>
      <trkpt lat="46.17403" lon="6.25785">
        <ele>499.4</ele>
        <time>2021-03-27T11:55:24Z</time>
      </trkpt>
      <trkpt lat="46.17403" lon="6.25785">
        <ele>499.4</ele>
        <time>2021-03-27T11:55:25Z</time>
      </trkpt>
      <trkpt lat="46.17403" lon="6.25785">
        <ele>499.4</ele>
        <time>2021-03-27T11:55:26Z</time>
      </trkpt>
      <trkpt lat="46.17403" lon="6.25785">
        <ele>499.4</ele>
        <time>2021-03-27T11:55:27Z</time>
      </trkpt>
      <trkpt lat="46.17403" lon="6.25785">
        <ele>499.4</ele>
        <time>2021-03-27T11:55:28Z</time>
      </trkpt>
      <trkpt lat="46.17403" lon="6.25785">
        <ele>499.2</ele>
        <time>2021-03-27T11:55:29Z</time>
      </trkpt>
      <trkpt lat="46.17403" lon="6.25785">
        <ele>499.2</ele>
        <time>2021-03-27T11:55:30Z</time>
      </trkpt>
      <trkpt lat="46.17403" lon="6.25785">
        <ele>499.4</ele>
        <time>2021-03-27T11:55:31Z</time>
      </trkpt>
      <trkpt lat="46.17403" lon="6.25785">
        <ele>499.4</ele>
        <time>2021-03-27T11:55:32Z</time>
      </trkpt>
      <trkpt lat="46.17403" lon="6.25785">
        <ele>499.4</ele>
        <time>2021-03-27T11:55:33Z</time>
      </trkpt>
      <trkpt lat="46.17403" lon="6.25785">
        <ele>499.4</ele>
        <time>2021-03-27T11:55:34Z</time>
      </trkpt>
      <trkpt lat="46.17403" lon="6.25785">
        <ele>499.4</ele>
        <time>2021-03-27T11:55:35Z</time>
      </trkpt>
      <trkpt lat="46.17403" lon="6.25785">
        <ele>499.4</ele>
        <time>2021-03-27T11:55:36Z</time>
      </trkpt>
      <trkpt lat="46.17403" lon="6.25785">
        <ele>499.2</ele>
        <time>2021-03-27T11:55:37Z</time>
      </trkpt>
      <trkpt lat="46.17403" lon="6.25785">
        <ele>499.4</ele>
        <time>2021-03-27T11:55:38Z</time>
      </trkpt>
      <trkpt lat="46.17403" lon="6.25785">
        <ele>499.2</ele>
        <time>2021-03-27T11:55:39Z</time>
      </trkpt>
      <trkpt lat="46.17403" lon="6.25785">
        <ele>499.4</ele>
        <time>2021-03-27T11:55:40Z</time>
      </trkpt>
      <trkpt lat="46.17403" lon="6.25785">
        <ele>499.4</ele>
        <time>2021-03-27T11:55:41Z</time>
      </trkpt>
      <trkpt lat="46.17403" lon="6.25785">
        <ele>499.4</ele>
        <time>2021-03-27T11:55:42Z</time>
      </trkpt>
      <trkpt lat="46.17403" lon="6.25785">
        <ele>499.2</ele>
        <time>2021-03-27T11:55:43Z</time>
      </trkpt>
      <trkpt lat="46.17403" lon="6.25785">
        <ele>499.4</ele>
        <time>2021-03-27T11:55:44Z</time>
      </trkpt>
      <trkpt lat="46.17403" lon="6.25785">
        <ele>499.4</ele>
        <time>2021-03-27T11:55:45Z</time>
      </trkpt>
      <trkpt lat="46.17403" lon="6.25785">
        <ele>499.2</ele>
        <time>2021-03-27T11:55:46Z</time>
      </trkpt>
      <trkpt lat="46.17403" lon="6.25785">
        <ele>499.4</ele>
        <time>2021-03-27T11:55:47Z</time>
      </trkpt>
      <trkpt lat="46.17403" lon="6.25785">
        <ele>499.4</ele>
        <time>2021-03-27T11:55:48Z</time>
      </trkpt>
      <trkpt lat="46.17403" lon="6.25785">
        <ele>499.4</ele>
        <time>2021-03-27T11:55:49Z</time>
      </trkpt>
      <trkpt lat="46.17403" lon="6.25785">
        <ele>499.4</ele>
        <time>2021-03-27T11:55:50Z</time>
      </trkpt>
      <trkpt lat="46.17403" lon="6.25785">
        <ele>499.6</ele>
        <time>2021-03-27T11:55:51Z</time>
      </trkpt>
      <trkpt lat="46.17403" lon="6.25785">
        <ele>499.4</ele>
        <time>2021-03-27T11:55:52Z</time>
      </trkpt>
      <trkpt lat="46.17403" lon="6.25785">
        <ele>499.6</ele>
        <time>2021-03-27T11:55:53Z</time>
      </trkpt>
      <trkpt lat="46.17403" lon="6.25785">
        <ele>499.6</ele>
        <time>2021-03-27T11:55:54Z</time>
      </trkpt>
      <trkpt lat="46.17403" lon="6.25785">
        <ele>499.6</ele>
        <time>2021-03-27T11:55:55Z</time>
      </trkpt>
      <trkpt lat="46.17403" lon="6.25785">
        <ele>499.4</ele>
        <time>2021-03-27T11:55:56Z</time>
      </trkpt>
      <trkpt lat="46.17403" lon="6.25785">
        <ele>499.6</ele>
        <time>2021-03-27T11:55:57Z</time>
      </trkpt>
      <trkpt lat="46.17403" lon="6.25785">
        <ele>499.6</ele>
        <time>2021-03-27T11:55:58Z</time>
      </trkpt>
      <trkpt lat="46.17403" lon="6.25785">
        <ele>499.6</ele>
        <time>2021-03-27T11:55:59Z</time>
      </trkpt>
      <trkpt lat="46.17403" lon="6.25785">
        <ele>499.6</ele>
        <time>2021-03-27T11:56:00Z</time>
      </trkpt>
      <trkpt lat="46.17403" lon="6.25785">
        <ele>499.6</ele>
        <time>2021-03-27T11:56:01Z</time>
      </trkpt>
      <trkpt lat="46.17403" lon="6.25785">
        <ele>499.6</ele>
        <time>2021-03-27T11:56:02Z</time>
      </trkpt>
      <trkpt lat="46.17403" lon="6.25785">
        <ele>499.6</ele>
        <time>2021-03-27T11:56:03Z</time>
      </trkpt>
      <trkpt lat="46.17403" lon="6.25785">
        <ele>499.6</ele>
        <time>2021-03-27T11:56:04Z</time>
      </trkpt>
      <trkpt lat="46.17403" lon="6.25785">
        <ele>499.6</ele>
        <time>2021-03-27T11:56:05Z</time>
      </trkpt>
      <trkpt lat="46.17403" lon="6.25785">
        <ele>499.6</ele>
        <time>2021-03-27T11:56:06Z</time>
      </trkpt>
      <trkpt lat="46.17403" lon="6.25785">
        <ele>499.6</ele>
        <time>2021-03-27T11:56:07Z</time>
      </trkpt>
      <trkpt lat="46.17403" lon="6.25785">
        <ele>499.6</ele>
        <time>2021-03-27T11:56:08Z</time>
      </trkpt>
      <trkpt lat="46.17403" lon="6.25785">
        <ele>499.6</ele>
        <time>2021-03-27T11:56:09Z</time>
      </trkpt>
      <trkpt lat="46.17403" lon="6.25785">
        <ele>499.4</ele>
        <time>2021-03-27T11:56:10Z</time>
      </trkpt>
      <trkpt lat="46.17403" lon="6.25785">
        <ele>499.4</ele>
        <time>2021-03-27T11:56:11Z</time>
      </trkpt>
      <trkpt lat="46.17403" lon="6.25785">
        <ele>499.4</ele>
        <time>2021-03-27T11:56:12Z</time>
      </trkpt>
      <trkpt lat="46.17403" lon="6.25785">
        <ele>499.4</ele>
        <time>2021-03-27T11:56:13Z</time>
      </trkpt>
      <trkpt lat="46.17403" lon="6.25785">
        <ele>499.4</ele>
        <time>2021-03-27T11:56:14Z</time>
      </trkpt>
      <trkpt lat="46.17403" lon="6.25785">
        <ele>499.4</ele>
        <time>2021-03-27T11:56:15Z</time>
      </trkpt>
      <trkpt lat="46.17403" lon="6.25785">
        <ele>499.4</ele>
        <time>2021-03-27T11:56:16Z</time>
      </trkpt>
      <trkpt lat="46.17403" lon="6.25785">
        <ele>499.4</ele>
        <time>2021-03-27T11:56:17Z</time>
      </trkpt>
      <trkpt lat="46.17403" lon="6.25785">
        <ele>499.4</ele>
        <time>2021-03-27T11:56:18Z</time>
      </trkpt>
      <trkpt lat="46.17403" lon="6.25785">
        <ele>499.4</ele>
        <time>2021-03-27T11:56:19Z</time>
      </trkpt>
      <trkpt lat="46.17403" lon="6.25785">
        <ele>499.4</ele>
        <time>2021-03-27T11:56:20Z</time>
      </trkpt>
      <trkpt lat="46.17403" lon="6.25785">
        <ele>499.4</ele>
        <time>2021-03-27T11:56:21Z</time>
      </trkpt>
      <trkpt lat="46.17403" lon="6.25785">
        <ele>499.4</ele>
        <time>2021-03-27T11:56:22Z</time>
      </trkpt>
      <trkpt lat="46.17403" lon="6.25785">
        <ele>499.4</ele>
        <time>2021-03-27T11:56:23Z</time>
      </trkpt>
      <trkpt lat="46.17403" lon="6.25785">
        <ele>499.4</ele>
        <time>2021-03-27T11:56:24Z</time>
      </trkpt>
      <trkpt lat="46.17403" lon="6.25785">
        <ele>499.4</ele>
        <time>2021-03-27T11:56:25Z</time>
      </trkpt>
      <trkpt lat="46.17403" lon="6.25785">
        <ele>499.2</ele>
        <time>2021-03-27T11:56:26Z</time>
      </trkpt>
      <trkpt lat="46.17403" lon="6.25785">
        <ele>499.2</ele>
        <time>2021-03-27T11:56:27Z</time>
      </trkpt>
      <trkpt lat="46.17403" lon="6.25785">
        <ele>499.2</ele>
        <time>2021-03-27T11:56:28Z</time>
      </trkpt>
      <trkpt lat="46.17403" lon="6.25785">
        <ele>499.2</ele>
        <time>2021-03-27T11:56:29Z</time>
      </trkpt>
      <trkpt lat="46.17403" lon="6.25785">
        <ele>499.2</ele>
        <time>2021-03-27T11:56:30Z</time>
      </trkpt>
      <trkpt lat="46.17403" lon="6.25785">
        <ele>499.2</ele>
        <time>2021-03-27T11:56:31Z</time>
      </trkpt>
      <trkpt lat="46.17403" lon="6.25785">
        <ele>499.2</ele>
        <time>2021-03-27T11:56:32Z</time>
      </trkpt>
      <trkpt lat="46.17403" lon="6.25785">
        <ele>499.2</ele>
        <time>2021-03-27T11:56:33Z</time>
      </trkpt>
      <trkpt lat="46.17403" lon="6.25785">
        <ele>499.4</ele>
        <time>2021-03-27T11:56:34Z</time>
      </trkpt>
      <trkpt lat="46.17403" lon="6.25785">
        <ele>499.2</ele>
        <time>2021-03-27T11:56:35Z</time>
      </trkpt>
      <trkpt lat="46.17403" lon="6.25785">
        <ele>499.4</ele>
        <time>2021-03-27T11:56:36Z</time>
      </trkpt>
      <trkpt lat="46.17403" lon="6.25785">
        <ele>499.2</ele>
        <time>2021-03-27T11:56:37Z</time>
      </trkpt>
      <trkpt lat="46.17403" lon="6.25785">
        <ele>499.2</ele>
        <time>2021-03-27T11:56:38Z</time>
      </trkpt>
      <trkpt lat="46.17403" lon="6.25785">
        <ele>499.4</ele>
        <time>2021-03-27T11:56:39Z</time>
      </trkpt>
      <trkpt lat="46.17403" lon="6.25785">
        <ele>499.2</ele>
        <time>2021-03-27T11:56:40Z</time>
      </trkpt>
      <trkpt lat="46.17403" lon="6.25785">
        <ele>499.2</ele>
        <time>2021-03-27T11:56:41Z</time>
      </trkpt>
      <trkpt lat="46.17403" lon="6.25785">
        <ele>499.4</ele>
        <time>2021-03-27T11:56:42Z</time>
      </trkpt>
      <trkpt lat="46.17403" lon="6.25785">
        <ele>499.4</ele>
        <time>2021-03-27T11:56:43Z</time>
      </trkpt>
      <trkpt lat="46.17403" lon="6.25785">
        <ele>499.4</ele>
        <time>2021-03-27T11:56:44Z</time>
      </trkpt>
      <trkpt lat="46.17403" lon="6.25785">
        <ele>499.4</ele>
        <time>2021-03-27T11:56:45Z</time>
      </trkpt>
      <trkpt lat="46.17404" lon="6.25786">
        <ele>499.4</ele>
        <time>2021-03-27T11:56:46Z</time>
      </trkpt>
      <trkpt lat="46.17404" lon="6.25786">
        <ele>499.4</ele>
        <time>2021-03-27T11:56:47Z</time>
      </trkpt>
      <trkpt lat="46.17405" lon="6.25786">
        <ele>499.4</ele>
        <time>2021-03-27T11:56:48Z</time>
      </trkpt>
      <trkpt lat="46.17405" lon="6.25786">
        <ele>499.4</ele>
        <time>2021-03-27T11:56:49Z</time>
      </trkpt>
      <trkpt lat="46.17405" lon="6.25786">
        <ele>499.4</ele>
        <time>2021-03-27T11:56:50Z</time>
      </trkpt>
      <trkpt lat="46.17405" lon="6.25786">
        <ele>499.4</ele>
        <time>2021-03-27T11:56:51Z</time>
      </trkpt>
      <trkpt lat="46.17405" lon="6.25786">
        <ele>499.4</ele>
        <time>2021-03-27T11:56:52Z</time>
      </trkpt>
      <trkpt lat="46.17405" lon="6.25786">
        <ele>499.4</ele>
        <time>2021-03-27T11:56:53Z</time>
      </trkpt>
      <trkpt lat="46.17405" lon="6.25785">
        <ele>499.4</ele>
        <time>2021-03-27T11:56:54Z</time>
      </trkpt>
      <trkpt lat="46.17405" lon="6.25785">
        <ele>499.4</ele>
        <time>2021-03-27T11:56:55Z</time>
      </trkpt>
      <trkpt lat="46.17405" lon="6.25785">
        <ele>499.4</ele>
        <time>2021-03-27T11:56:56Z</time>
      </trkpt>
      <trkpt lat="46.17405" lon="6.25785">
        <ele>499.2</ele>
        <time>2021-03-27T11:56:57Z</time>
      </trkpt>
      <trkpt lat="46.17405" lon="6.25785">
        <ele>499.2</ele>
        <time>2021-03-27T11:56:58Z</time>
      </trkpt>
      <trkpt lat="46.17405" lon="6.25785">
        <ele>499.4</ele>
        <time>2021-03-27T11:56:59Z</time>
      </trkpt>
      <trkpt lat="46.17405" lon="6.25785">
        <ele>499.4</ele>
        <time>2021-03-27T11:57:00Z</time>
      </trkpt>
      <trkpt lat="46.17405" lon="6.25785">
        <ele>499.4</ele>
        <time>2021-03-27T11:57:01Z</time>
      </trkpt>
      <trkpt lat="46.17405" lon="6.25784">
        <ele>499.4</ele>
        <time>2021-03-27T11:57:02Z</time>
      </trkpt>
      <trkpt lat="46.17405" lon="6.25784">
        <ele>499.4</ele>
        <time>2021-03-27T11:57:03Z</time>
      </trkpt>
      <trkpt lat="46.17405" lon="6.25784">
        <ele>499.4</ele>
        <time>2021-03-27T11:57:04Z</time>
      </trkpt>
      <trkpt lat="46.17405" lon="6.25784">
        <ele>499.4</ele>
        <time>2021-03-27T11:57:05Z</time>
      </trkpt>
      <trkpt lat="46.17405" lon="6.25784">
        <ele>499.4</ele>
        <time>2021-03-27T11:57:06Z</time>
      </trkpt>
      <trkpt lat="46.17405" lon="6.25784">
        <ele>499.4</ele>
        <time>2021-03-27T11:57:07Z</time>
      </trkpt>
      <trkpt lat="46.17405" lon="6.25784">
        <ele>499.4</ele>
        <time>2021-03-27T11:57:08Z</time>
      </trkpt>
      <trkpt lat="46.17405" lon="6.25783">
        <ele>499.4</ele>
        <time>2021-03-27T11:57:09Z</time>
      </trkpt>
      <trkpt lat="46.17405" lon="6.25783">
        <ele>499.4</ele>
        <time>2021-03-27T11:57:10Z</time>
      </trkpt>
      <trkpt lat="46.17404" lon="6.25783">
        <ele>499.4</ele>
        <time>2021-03-27T11:57:11Z</time>
      </trkpt>
      <trkpt lat="46.17404" lon="6.25783">
        <ele>499.4</ele>
        <time>2021-03-27T11:57:12Z</time>
      </trkpt>
      <trkpt lat="46.17404" lon="6.25783">
        <ele>499.4</ele>
        <time>2021-03-27T11:57:13Z</time>
      </trkpt>
      <trkpt lat="46.17404" lon="6.25782">
        <ele>499.4</ele>
        <time>2021-03-27T11:57:14Z</time>
      </trkpt>
      <trkpt lat="46.17404" lon="6.25782">
        <ele>499.4</ele>
        <time>2021-03-27T11:57:15Z</time>
      </trkpt>
      <trkpt lat="46.17404" lon="6.25782">
        <ele>499.4</ele>
        <time>2021-03-27T11:57:16Z</time>
      </trkpt>
      <trkpt lat="46.17404" lon="6.25782">
        <ele>499.4</ele>
        <time>2021-03-27T11:57:17Z</time>
      </trkpt>
      <trkpt lat="46.17404" lon="6.25782">
        <ele>499.4</ele>
        <time>2021-03-27T11:57:18Z</time>
      </trkpt>
      <trkpt lat="46.17404" lon="6.25782">
        <ele>499.4</ele>
        <time>2021-03-27T11:57:19Z</time>
      </trkpt>
      <trkpt lat="46.17404" lon="6.25782">
        <ele>499.4</ele>
        <time>2021-03-27T11:57:20Z</time>
      </trkpt>
      <trkpt lat="46.17404" lon="6.25782">
        <ele>499.4</ele>
        <time>2021-03-27T11:57:21Z</time>
      </trkpt>
      <trkpt lat="46.17404" lon="6.25782">
        <ele>499.4</ele>
        <time>2021-03-27T11:57:22Z</time>
      </trkpt>
      <trkpt lat="46.17404" lon="6.25782">
        <ele>499.4</ele>
        <time>2021-03-27T11:57:23Z</time>
      </trkpt>
      <trkpt lat="46.17404" lon="6.25782">
        <ele>499.4</ele>
        <time>2021-03-27T11:57:24Z</time>
      </trkpt>
      <trkpt lat="46.17404" lon="6.25782">
        <ele>499.4</ele>
        <time>2021-03-27T11:57:25Z</time>
      </trkpt>
      <trkpt lat="46.17404" lon="6.25781">
        <ele>499.4</ele>
        <time>2021-03-27T11:57:26Z</time>
      </trkpt>
      <trkpt lat="46.17404" lon="6.25781">
        <ele>499.4</ele>
        <time>2021-03-27T11:57:27Z</time>
      </trkpt>
      <trkpt lat="46.17404" lon="6.25781">
        <ele>499.4</ele>
        <time>2021-03-27T11:57:28Z</time>
      </trkpt>
      <trkpt lat="46.17404" lon="6.25781">
        <ele>499.6</ele>
        <time>2021-03-27T11:57:29Z</time>
      </trkpt>
      <trkpt lat="46.17404" lon="6.25781">
        <ele>499.6</ele>
        <time>2021-03-27T11:57:30Z</time>
      </trkpt>
      <trkpt lat="46.17404" lon="6.25781">
        <ele>499.6</ele>
        <time>2021-03-27T11:57:31Z</time>
      </trkpt>
      <trkpt lat="46.17404" lon="6.25781">
        <ele>499.6</ele>
        <time>2021-03-27T11:57:32Z</time>
      </trkpt>
      <trkpt lat="46.17404" lon="6.25781">
        <ele>499.6</ele>
        <time>2021-03-27T11:57:33Z</time>
      </trkpt>
      <trkpt lat="46.17404" lon="6.25781">
        <ele>499.6</ele>
        <time>2021-03-27T11:57:35Z</time>
      </trkpt>
      <trkpt lat="46.17404" lon="6.25781">
        <ele>499.8</ele>
        <time>2021-03-27T11:57:36Z</time>
      </trkpt>
      <trkpt lat="46.17404" lon="6.25781">
        <ele>499.8</ele>
        <time>2021-03-27T11:57:38Z</time>
      </trkpt>
      <trkpt lat="46.17404" lon="6.2578">
        <ele>499.6</ele>
        <time>2021-03-27T11:57:39Z</time>
      </trkpt>
      <trkpt lat="46.17404" lon="6.2578">
        <ele>499.6</ele>
        <time>2021-03-27T11:57:40Z</time>
      </trkpt>
      <trkpt lat="46.17405" lon="6.2578">
        <ele>499.8</ele>
        <time>2021-03-27T11:57:42Z</time>
      </trkpt>
      <trkpt lat="46.17404" lon="6.2578">
        <ele>499.6</ele>
        <time>2021-03-27T11:57:43Z</time>
      </trkpt>
      <trkpt lat="46.17405" lon="6.2578">
        <ele>499.8</ele>
        <time>2021-03-27T11:57:44Z</time>
      </trkpt>
      <trkpt lat="46.17405" lon="6.2578">
        <ele>499.6</ele>
        <time>2021-03-27T11:57:45Z</time>
      </trkpt>
      <trkpt lat="46.17405" lon="6.2578">
        <ele>499.6</ele>
        <time>2021-03-27T11:57:46Z</time>
      </trkpt>
      <trkpt lat="46.17405" lon="6.2578">
        <ele>499.8</ele>
        <time>2021-03-27T11:57:47Z</time>
      </trkpt>
      <trkpt lat="46.17405" lon="6.2578">
        <ele>499.8</ele>
        <time>2021-03-27T11:57:48Z</time>
      </trkpt>
      <trkpt lat="46.17405" lon="6.2578">
        <ele>499.8</ele>
        <time>2021-03-27T11:57:49Z</time>
      </trkpt>
      <trkpt lat="46.17405" lon="6.25781">
        <ele>499.8</ele>
        <time>2021-03-27T11:57:51Z</time>
      </trkpt>
      <trkpt lat="46.17405" lon="6.25781">
        <ele>499.6</ele>
        <time>2021-03-27T11:57:52Z</time>
      </trkpt>
      <trkpt lat="46.17405" lon="6.25781">
        <ele>499.6</ele>
        <time>2021-03-27T11:57:53Z</time>
      </trkpt>
      <trkpt lat="46.17405" lon="6.25781">
        <ele>499.6</ele>
        <time>2021-03-27T11:57:55Z</time>
      </trkpt>
      <trkpt lat="46.17405" lon="6.2578">
        <ele>499.6</ele>
        <time>2021-03-27T11:57:56Z</time>
      </trkpt>
      <trkpt lat="46.17405" lon="6.2578">
        <ele>499.8</ele>
        <time>2021-03-27T11:57:57Z</time>
      </trkpt>
      <trkpt lat="46.17405" lon="6.25779">
        <ele>499.6</ele>
        <time>2021-03-27T11:57:58Z</time>
      </trkpt>
      <trkpt lat="46.17405" lon="6.25777">
        <ele>499.6</ele>
        <time>2021-03-27T11:57:59Z</time>
      </trkpt>
      <trkpt lat="46.17405" lon="6.25775">
        <ele>499.6</ele>
        <time>2021-03-27T11:58:00Z</time>
      </trkpt>
      <trkpt lat="46.17405" lon="6.25772">
        <ele>499.6</ele>
        <time>2021-03-27T11:58:01Z</time>
      </trkpt>
      <trkpt lat="46.17407" lon="6.25768">
        <ele>499.6</ele>
        <time>2021-03-27T11:58:02Z</time>
      </trkpt>
      <trkpt lat="46.17409" lon="6.25765">
        <ele>499.6</ele>
        <time>2021-03-27T11:58:03Z</time>
      </trkpt>
      <trkpt lat="46.17412" lon="6.25766">
        <ele>499.8</ele>
        <time>2021-03-27T11:58:04Z</time>
      </trkpt>
      <trkpt lat="46.17414" lon="6.25768">
        <ele>499.6</ele>
        <time>2021-03-27T11:58:05Z</time>
      </trkpt>
      <trkpt lat="46.17415" lon="6.25772">
        <ele>499.6</ele>
        <time>2021-03-27T11:58:06Z</time>
      </trkpt>
      <trkpt lat="46.17416" lon="6.25776">
        <ele>499.6</ele>
        <time>2021-03-27T11:58:07Z</time>
      </trkpt>
      <trkpt lat="46.17418" lon="6.2578">
        <ele>499.6</ele>
        <time>2021-03-27T11:58:08Z</time>
      </trkpt>
      <trkpt lat="46.17419" lon="6.2579">
        <ele>499.6</ele>
        <time>2021-03-27T11:58:10Z</time>
      </trkpt>
      <trkpt lat="46.17419" lon="6.25796">
        <ele>499.6</ele>
        <time>2021-03-27T11:58:11Z</time>
      </trkpt>
      <trkpt lat="46.17419" lon="6.25802">
        <ele>499.6</ele>
        <time>2021-03-27T11:58:12Z</time>
      </trkpt>
      <trkpt lat="46.17418" lon="6.25808">
        <ele>499.6</ele>
        <time>2021-03-27T11:58:13Z</time>
      </trkpt>
      <trkpt lat="46.17417" lon="6.25814">
        <ele>499.6</ele>
        <time>2021-03-27T11:58:14Z</time>
      </trkpt>
      <trkpt lat="46.17416" lon="6.2582">
        <ele>499.6</ele>
        <time>2021-03-27T11:58:15Z</time>
      </trkpt>
      <trkpt lat="46.17414" lon="6.25826">
        <ele>499.4</ele>
        <time>2021-03-27T11:58:16Z</time>
      </trkpt>
      <trkpt lat="46.17411" lon="6.25832">
        <ele>499.6</ele>
        <time>2021-03-27T11:58:17Z</time>
      </trkpt>
      <trkpt lat="46.17403" lon="6.25843">
        <ele>499.6</ele>
        <time>2021-03-27T11:58:19Z</time>
      </trkpt>
      <trkpt lat="46.17399" lon="6.25848">
        <ele>499.6</ele>
        <time>2021-03-27T11:58:20Z</time>
      </trkpt>
      <trkpt lat="46.17394" lon="6.25853">
        <ele>499.6</ele>
        <time>2021-03-27T11:58:21Z</time>
      </trkpt>
      <trkpt lat="46.17383" lon="6.25866">
        <ele>499.6</ele>
        <time>2021-03-27T11:58:23Z</time>
      </trkpt>
      <trkpt lat="46.17378" lon="6.25873">
        <ele>499.6</ele>
        <time>2021-03-27T11:58:24Z</time>
      </trkpt>
      <trkpt lat="46.17372" lon="6.2588">
        <ele>499.6</ele>
        <time>2021-03-27T11:58:25Z</time>
      </trkpt>
      <trkpt lat="46.17367" lon="6.25889">
        <ele>499.6</ele>
        <time>2021-03-27T11:58:26Z</time>
      </trkpt>
      <trkpt lat="46.17362" lon="6.25898">
        <ele>499.6</ele>
        <time>2021-03-27T11:58:27Z</time>
      </trkpt>
      <trkpt lat="46.17357" lon="6.25909">
        <ele>499.4</ele>
        <time>2021-03-27T11:58:28Z</time>
      </trkpt>
      <trkpt lat="46.17353" lon="6.25919">
        <ele>499.2</ele>
        <time>2021-03-27T11:58:29Z</time>
      </trkpt>
      <trkpt lat="46.17348" lon="6.2593">
        <ele>499</ele>
        <time>2021-03-27T11:58:30Z</time>
      </trkpt>
      <trkpt lat="46.17344" lon="6.25941">
        <ele>498.8</ele>
        <time>2021-03-27T11:58:31Z</time>
      </trkpt>
      <trkpt lat="46.17336" lon="6.25962">
        <ele>497.8</ele>
        <time>2021-03-27T11:58:33Z</time>
      </trkpt>
      <trkpt lat="46.17331" lon="6.25972">
        <ele>497.8</ele>
        <time>2021-03-27T11:58:34Z</time>
      </trkpt>
      <trkpt lat="46.17326" lon="6.25982">
        <ele>497.4</ele>
        <time>2021-03-27T11:58:35Z</time>
      </trkpt>
      <trkpt lat="46.17322" lon="6.25991">
        <ele>496.8</ele>
        <time>2021-03-27T11:58:36Z</time>
      </trkpt>
      <trkpt lat="46.17317" lon="6.26001">
        <ele>496.2</ele>
        <time>2021-03-27T11:58:37Z</time>
      </trkpt>
      <trkpt lat="46.17313" lon="6.2601">
        <ele>496</ele>
        <time>2021-03-27T11:58:38Z</time>
      </trkpt>
      <trkpt lat="46.17309" lon="6.26019">
        <ele>495.6</ele>
        <time>2021-03-27T11:58:39Z</time>
      </trkpt>
      <trkpt lat="46.17305" lon="6.26028">
        <ele>495.4</ele>
        <time>2021-03-27T11:58:40Z</time>
      </trkpt>
      <trkpt lat="46.17301" lon="6.26037">
        <ele>495.2</ele>
        <time>2021-03-27T11:58:41Z</time>
      </trkpt>
      <trkpt lat="46.17297" lon="6.26046">
        <ele>495</ele>
        <time>2021-03-27T11:58:42Z</time>
      </trkpt>
      <trkpt lat="46.17293" lon="6.26054">
        <ele>495</ele>
        <time>2021-03-27T11:58:43Z</time>
      </trkpt>
      <trkpt lat="46.17288" lon="6.26061">
        <ele>495</ele>
        <time>2021-03-27T11:58:44Z</time>
      </trkpt>
      <trkpt lat="46.17283" lon="6.26068">
        <ele>495</ele>
        <time>2021-03-27T11:58:45Z</time>
      </trkpt>
      <trkpt lat="46.1728" lon="6.26074">
        <ele>495</ele>
        <time>2021-03-27T11:58:46Z</time>
      </trkpt>
      <trkpt lat="46.17277" lon="6.26081">
        <ele>495</ele>
        <time>2021-03-27T11:58:47Z</time>
      </trkpt>
      <trkpt lat="46.17274" lon="6.26088">
        <ele>495.2</ele>
        <time>2021-03-27T11:58:48Z</time>
      </trkpt>
      <trkpt lat="46.1727" lon="6.26093">
        <ele>495</ele>
        <time>2021-03-27T11:58:49Z</time>
      </trkpt>
      <trkpt lat="46.17266" lon="6.26098">
        <ele>495.2</ele>
        <time>2021-03-27T11:58:50Z</time>
      </trkpt>
      <trkpt lat="46.17263" lon="6.26103">
        <ele>495.2</ele>
        <time>2021-03-27T11:58:51Z</time>
      </trkpt>
      <trkpt lat="46.17261" lon="6.26108">
        <ele>495.2</ele>
        <time>2021-03-27T11:58:52Z</time>
      </trkpt>
      <trkpt lat="46.17259" lon="6.26114">
        <ele>495.6</ele>
        <time>2021-03-27T11:58:53Z</time>
      </trkpt>
      <trkpt lat="46.17256" lon="6.26119">
        <ele>496</ele>
        <time>2021-03-27T11:58:54Z</time>
      </trkpt>
      <trkpt lat="46.17254" lon="6.26125">
        <ele>496.2</ele>
        <time>2021-03-27T11:58:55Z</time>
      </trkpt>
      <trkpt lat="46.17252" lon="6.2613">
        <ele>496.8</ele>
        <time>2021-03-27T11:58:56Z</time>
      </trkpt>
      <trkpt lat="46.17249" lon="6.26135">
        <ele>497.2</ele>
        <time>2021-03-27T11:58:57Z</time>
      </trkpt>
      <trkpt lat="46.17246" lon="6.2614">
        <ele>497.8</ele>
        <time>2021-03-27T11:58:58Z</time>
      </trkpt>
      <trkpt lat="46.17243" lon="6.26146">
        <ele>498.4</ele>
        <time>2021-03-27T11:58:59Z</time>
      </trkpt>
      <trkpt lat="46.1724" lon="6.26151">
        <ele>499</ele>
        <time>2021-03-27T11:59:00Z</time>
      </trkpt>
      <trkpt lat="46.17237" lon="6.26157">
        <ele>499.2</ele>
        <time>2021-03-27T11:59:01Z</time>
      </trkpt>
      <trkpt lat="46.17234" lon="6.26162">
        <ele>499.4</ele>
        <time>2021-03-27T11:59:02Z</time>
      </trkpt>
      <trkpt lat="46.1723" lon="6.26168">
        <ele>500</ele>
        <time>2021-03-27T11:59:03Z</time>
      </trkpt>
      <trkpt lat="46.17227" lon="6.26175">
        <ele>500.6</ele>
        <time>2021-03-27T11:59:04Z</time>
      </trkpt>
      <trkpt lat="46.17223" lon="6.26181">
        <ele>500.8</ele>
        <time>2021-03-27T11:59:05Z</time>
      </trkpt>
      <trkpt lat="46.1722" lon="6.26187">
        <ele>501.2</ele>
        <time>2021-03-27T11:59:06Z</time>
      </trkpt>
      <trkpt lat="46.17216" lon="6.26194">
        <ele>501.6</ele>
        <time>2021-03-27T11:59:07Z</time>
      </trkpt>
      <trkpt lat="46.17213" lon="6.262">
        <ele>501.8</ele>
        <time>2021-03-27T11:59:08Z</time>
      </trkpt>
      <trkpt lat="46.17209" lon="6.26206">
        <ele>502</ele>
        <time>2021-03-27T11:59:09Z</time>
      </trkpt>
      <trkpt lat="46.17205" lon="6.26212">
        <ele>502</ele>
        <time>2021-03-27T11:59:10Z</time>
      </trkpt>
      <trkpt lat="46.17201" lon="6.26218">
        <ele>502.2</ele>
        <time>2021-03-27T11:59:11Z</time>
      </trkpt>
      <trkpt lat="46.17198" lon="6.26224">
        <ele>502.2</ele>
        <time>2021-03-27T11:59:12Z</time>
      </trkpt>
      <trkpt lat="46.17194" lon="6.26231">
        <ele>502.4</ele>
        <time>2021-03-27T11:59:13Z</time>
      </trkpt>
      <trkpt lat="46.17189" lon="6.26237">
        <ele>502.6</ele>
        <time>2021-03-27T11:59:14Z</time>
      </trkpt>
      <trkpt lat="46.17185" lon="6.26244">
        <ele>502.4</ele>
        <time>2021-03-27T11:59:15Z</time>
      </trkpt>
      <trkpt lat="46.17181" lon="6.2625">
        <ele>502.4</ele>
        <time>2021-03-27T11:59:16Z</time>
      </trkpt>
      <trkpt lat="46.17177" lon="6.26256">
        <ele>502.4</ele>
        <time>2021-03-27T11:59:17Z</time>
      </trkpt>
      <trkpt lat="46.17173" lon="6.26263">
        <ele>502.4</ele>
        <time>2021-03-27T11:59:18Z</time>
      </trkpt>
      <trkpt lat="46.17168" lon="6.2627">
        <ele>502.4</ele>
        <time>2021-03-27T11:59:19Z</time>
      </trkpt>
      <trkpt lat="46.17163" lon="6.26277">
        <ele>502.2</ele>
        <time>2021-03-27T11:59:20Z</time>
      </trkpt>
      <trkpt lat="46.17159" lon="6.26284">
        <ele>502.2</ele>
        <time>2021-03-27T11:59:21Z</time>
      </trkpt>
      <trkpt lat="46.17154" lon="6.26292">
        <ele>502.2</ele>
        <time>2021-03-27T11:59:22Z</time>
      </trkpt>
      <trkpt lat="46.17149" lon="6.26299">
        <ele>502</ele>
        <time>2021-03-27T11:59:23Z</time>
      </trkpt>
      <trkpt lat="46.17145" lon="6.26306">
        <ele>502</ele>
        <time>2021-03-27T11:59:24Z</time>
      </trkpt>
      <trkpt lat="46.1714" lon="6.26314">
        <ele>501.6</ele>
        <time>2021-03-27T11:59:25Z</time>
      </trkpt>
      <trkpt lat="46.17136" lon="6.26322">
        <ele>501.4</ele>
        <time>2021-03-27T11:59:26Z</time>
      </trkpt>
      <trkpt lat="46.17131" lon="6.2633">
        <ele>501.4</ele>
        <time>2021-03-27T11:59:27Z</time>
      </trkpt>
      <trkpt lat="46.17126" lon="6.26338">
        <ele>501.4</ele>
        <time>2021-03-27T11:59:28Z</time>
      </trkpt>
      <trkpt lat="46.17121" lon="6.26346">
        <ele>501.2</ele>
        <time>2021-03-27T11:59:29Z</time>
      </trkpt>
      <trkpt lat="46.17116" lon="6.26354">
        <ele>501.4</ele>
        <time>2021-03-27T11:59:30Z</time>
      </trkpt>
      <trkpt lat="46.17111" lon="6.26362">
        <ele>501.2</ele>
        <time>2021-03-27T11:59:31Z</time>
      </trkpt>
      <trkpt lat="46.17106" lon="6.2637">
        <ele>501.2</ele>
        <time>2021-03-27T11:59:32Z</time>
      </trkpt>
      <trkpt lat="46.17101" lon="6.26378">
        <ele>501</ele>
        <time>2021-03-27T11:59:33Z</time>
      </trkpt>
      <trkpt lat="46.17096" lon="6.26385">
        <ele>501</ele>
        <time>2021-03-27T11:59:34Z</time>
      </trkpt>
      <trkpt lat="46.17093" lon="6.26391">
        <ele>501</ele>
        <time>2021-03-27T11:59:35Z</time>
      </trkpt>
      <trkpt lat="46.1709" lon="6.26397">
        <ele>500.8</ele>
        <time>2021-03-27T11:59:36Z</time>
      </trkpt>
      <trkpt lat="46.17087" lon="6.26401">
        <ele>501</ele>
        <time>2021-03-27T11:59:37Z</time>
      </trkpt>
      <trkpt lat="46.17084" lon="6.26405">
        <ele>500.8</ele>
        <time>2021-03-27T11:59:38Z</time>
      </trkpt>
      <trkpt lat="46.17082" lon="6.26408">
        <ele>500.8</ele>
        <time>2021-03-27T11:59:39Z</time>
      </trkpt>
      <trkpt lat="46.1708" lon="6.26412">
        <ele>500.8</ele>
        <time>2021-03-27T11:59:40Z</time>
      </trkpt>
      <trkpt lat="46.17078" lon="6.26417">
        <ele>500.8</ele>
        <time>2021-03-27T11:59:41Z</time>
      </trkpt>
      <trkpt lat="46.17074" lon="6.26423">
        <ele>500.8</ele>
        <time>2021-03-27T11:59:42Z</time>
      </trkpt>
      <trkpt lat="46.17071" lon="6.2643">
        <ele>500.8</ele>
        <time>2021-03-27T11:59:43Z</time>
      </trkpt>
      <trkpt lat="46.17066" lon="6.26436">
        <ele>500.6</ele>
        <time>2021-03-27T11:59:44Z</time>
      </trkpt>
      <trkpt lat="46.17062" lon="6.26443">
        <ele>500.6</ele>
        <time>2021-03-27T11:59:45Z</time>
      </trkpt>
      <trkpt lat="46.17057" lon="6.2645">
        <ele>500.6</ele>
        <time>2021-03-27T11:59:46Z</time>
      </trkpt>
      <trkpt lat="46.17052" lon="6.26458">
        <ele>500.6</ele>
        <time>2021-03-27T11:59:47Z</time>
      </trkpt>
      <trkpt lat="46.17047" lon="6.26467">
        <ele>500.6</ele>
        <time>2021-03-27T11:59:48Z</time>
      </trkpt>
      <trkpt lat="46.17042" lon="6.26476">
        <ele>500.6</ele>
        <time>2021-03-27T11:59:49Z</time>
      </trkpt>
      <trkpt lat="46.17036" lon="6.26486">
        <ele>500.4</ele>
        <time>2021-03-27T11:59:50Z</time>
      </trkpt>
      <trkpt lat="46.1703" lon="6.26496">
        <ele>500</ele>
        <time>2021-03-27T11:59:51Z</time>
      </trkpt>
      <trkpt lat="46.17024" lon="6.26506">
        <ele>499.6</ele>
        <time>2021-03-27T11:59:52Z</time>
      </trkpt>
      <trkpt lat="46.17017" lon="6.26517">
        <ele>499.6</ele>
        <time>2021-03-27T11:59:53Z</time>
      </trkpt>
      <trkpt lat="46.17011" lon="6.26528">
        <ele>498.8</ele>
        <time>2021-03-27T11:59:54Z</time>
      </trkpt>
      <trkpt lat="46.17004" lon="6.2654">
        <ele>498.8</ele>
        <time>2021-03-27T11:59:55Z</time>
      </trkpt>
      <trkpt lat="46.16997" lon="6.26551">
        <ele>498.6</ele>
        <time>2021-03-27T11:59:56Z</time>
      </trkpt>
      <trkpt lat="46.1699" lon="6.26563">
        <ele>498</ele>
        <time>2021-03-27T11:59:57Z</time>
      </trkpt>
      <trkpt lat="46.16982" lon="6.26575">
        <ele>497.2</ele>
        <time>2021-03-27T11:59:58Z</time>
      </trkpt>
      <trkpt lat="46.16975" lon="6.26586">
        <ele>496.6</ele>
        <time>2021-03-27T11:59:59Z</time>
      </trkpt>
      <trkpt lat="46.16968" lon="6.26598">
        <ele>495.6</ele>
        <time>2021-03-27T12:00:00Z</time>
      </trkpt>
      <trkpt lat="46.16962" lon="6.26609">
        <ele>494.8</ele>
        <time>2021-03-27T12:00:01Z</time>
      </trkpt>
      <trkpt lat="46.16956" lon="6.26619">
        <ele>493.6</ele>
        <time>2021-03-27T12:00:02Z</time>
      </trkpt>
      <trkpt lat="46.16949" lon="6.2663">
        <ele>492.6</ele>
        <time>2021-03-27T12:00:03Z</time>
      </trkpt>
      <trkpt lat="46.16944" lon="6.2664">
        <ele>491</ele>
        <time>2021-03-27T12:00:04Z</time>
      </trkpt>
      <trkpt lat="46.16938" lon="6.2665">
        <ele>489.8</ele>
        <time>2021-03-27T12:00:05Z</time>
      </trkpt>
      <trkpt lat="46.16932" lon="6.26659">
        <ele>488.8</ele>
        <time>2021-03-27T12:00:06Z</time>
      </trkpt>
      <trkpt lat="46.16926" lon="6.26669">
        <ele>488.4</ele>
        <time>2021-03-27T12:00:07Z</time>
      </trkpt>
      <trkpt lat="46.16921" lon="6.26678">
        <ele>488</ele>
        <time>2021-03-27T12:00:08Z</time>
      </trkpt>
      <trkpt lat="46.16916" lon="6.26688">
        <ele>487.8</ele>
        <time>2021-03-27T12:00:09Z</time>
      </trkpt>
      <trkpt lat="46.16911" lon="6.26698">
        <ele>488</ele>
        <time>2021-03-27T12:00:10Z</time>
      </trkpt>
      <trkpt lat="46.16908" lon="6.26709">
        <ele>487.8</ele>
        <time>2021-03-27T12:00:11Z</time>
      </trkpt>
      <trkpt lat="46.16905" lon="6.26721">
        <ele>487.8</ele>
        <time>2021-03-27T12:00:12Z</time>
      </trkpt>
      <trkpt lat="46.16903" lon="6.26733">
        <ele>487.8</ele>
        <time>2021-03-27T12:00:13Z</time>
      </trkpt>
      <trkpt lat="46.16902" lon="6.26745">
        <ele>487.8</ele>
        <time>2021-03-27T12:00:14Z</time>
      </trkpt>
      <trkpt lat="46.16901" lon="6.26757">
        <ele>487.8</ele>
        <time>2021-03-27T12:00:15Z</time>
      </trkpt>
      <trkpt lat="46.16901" lon="6.26769">
        <ele>487.8</ele>
        <time>2021-03-27T12:00:16Z</time>
      </trkpt>
      <trkpt lat="46.16901" lon="6.2678">
        <ele>487.6</ele>
        <time>2021-03-27T12:00:17Z</time>
      </trkpt>
      <trkpt lat="46.16899" lon="6.26792">
        <ele>487.6</ele>
        <time>2021-03-27T12:00:18Z</time>
      </trkpt>
      <trkpt lat="46.16897" lon="6.26803">
        <ele>487.6</ele>
        <time>2021-03-27T12:00:19Z</time>
      </trkpt>
      <trkpt lat="46.16894" lon="6.26814">
        <ele>487.6</ele>
        <time>2021-03-27T12:00:20Z</time>
      </trkpt>
      <trkpt lat="46.16891" lon="6.26825">
        <ele>487.4</ele>
        <time>2021-03-27T12:00:21Z</time>
      </trkpt>
      <trkpt lat="46.16887" lon="6.26835">
        <ele>487.4</ele>
        <time>2021-03-27T12:00:22Z</time>
      </trkpt>
      <trkpt lat="46.16882" lon="6.26845">
        <ele>487</ele>
        <time>2021-03-27T12:00:23Z</time>
      </trkpt>
      <trkpt lat="46.16877" lon="6.26855">
        <ele>487.2</ele>
        <time>2021-03-27T12:00:24Z</time>
      </trkpt>
      <trkpt lat="46.16871" lon="6.26864">
        <ele>487</ele>
        <time>2021-03-27T12:00:25Z</time>
      </trkpt>
      <trkpt lat="46.16865" lon="6.26874">
        <ele>486.6</ele>
        <time>2021-03-27T12:00:26Z</time>
      </trkpt>
      <trkpt lat="46.16858" lon="6.26882">
        <ele>486.2</ele>
        <time>2021-03-27T12:00:27Z</time>
      </trkpt>
      <trkpt lat="46.1685" lon="6.2689">
        <ele>486</ele>
        <time>2021-03-27T12:00:28Z</time>
      </trkpt>
      <trkpt lat="46.16841" lon="6.26897">
        <ele>485.6</ele>
        <time>2021-03-27T12:00:29Z</time>
      </trkpt>
      <trkpt lat="46.16832" lon="6.26904">
        <ele>485.2</ele>
        <time>2021-03-27T12:00:30Z</time>
      </trkpt>
      <trkpt lat="46.16822" lon="6.2691">
        <ele>485.2</ele>
        <time>2021-03-27T12:00:31Z</time>
      </trkpt>
      <trkpt lat="46.16813" lon="6.26915">
        <ele>485.2</ele>
        <time>2021-03-27T12:00:32Z</time>
      </trkpt>
      <trkpt lat="46.16803" lon="6.26921">
        <ele>485</ele>
        <time>2021-03-27T12:00:33Z</time>
      </trkpt>
      <trkpt lat="46.16794" lon="6.26927">
        <ele>484.4</ele>
        <time>2021-03-27T12:00:34Z</time>
      </trkpt>
      <trkpt lat="46.16784" lon="6.26934">
        <ele>484</ele>
        <time>2021-03-27T12:00:35Z</time>
      </trkpt>
      <trkpt lat="46.16774" lon="6.26942">
        <ele>483.6</ele>
        <time>2021-03-27T12:00:36Z</time>
      </trkpt>
      <trkpt lat="46.16765" lon="6.2695">
        <ele>483.2</ele>
        <time>2021-03-27T12:00:37Z</time>
      </trkpt>
      <trkpt lat="46.16756" lon="6.2696">
        <ele>482.2</ele>
        <time>2021-03-27T12:00:38Z</time>
      </trkpt>
      <trkpt lat="46.16748" lon="6.26969">
        <ele>481.4</ele>
        <time>2021-03-27T12:00:39Z</time>
      </trkpt>
      <trkpt lat="46.1674" lon="6.2698">
        <ele>480.2</ele>
        <time>2021-03-27T12:00:40Z</time>
      </trkpt>
      <trkpt lat="46.16732" lon="6.26991">
        <ele>479.2</ele>
        <time>2021-03-27T12:00:41Z</time>
      </trkpt>
      <trkpt lat="46.16726" lon="6.27004">
        <ele>478.6</ele>
        <time>2021-03-27T12:00:42Z</time>
      </trkpt>
      <trkpt lat="46.16722" lon="6.27018">
        <ele>477.8</ele>
        <time>2021-03-27T12:00:43Z</time>
      </trkpt>
      <trkpt lat="46.1672" lon="6.27034">
        <ele>476.8</ele>
        <time>2021-03-27T12:00:44Z</time>
      </trkpt>
      <trkpt lat="46.16723" lon="6.2705">
        <ele>475.4</ele>
        <time>2021-03-27T12:00:45Z</time>
      </trkpt>
      <trkpt lat="46.16725" lon="6.27065">
        <ele>474.4</ele>
        <time>2021-03-27T12:00:46Z</time>
      </trkpt>
      <trkpt lat="46.16731" lon="6.27078">
        <ele>473.4</ele>
        <time>2021-03-27T12:00:47Z</time>
      </trkpt>
      <trkpt lat="46.16739" lon="6.27091">
        <ele>473</ele>
        <time>2021-03-27T12:00:48Z</time>
      </trkpt>
      <trkpt lat="46.16747" lon="6.27103">
        <ele>472.4</ele>
        <time>2021-03-27T12:00:49Z</time>
      </trkpt>
      <trkpt lat="46.16757" lon="6.27115">
        <ele>471.8</ele>
        <time>2021-03-27T12:00:50Z</time>
      </trkpt>
      <trkpt lat="46.16766" lon="6.27125">
        <ele>471.6</ele>
        <time>2021-03-27T12:00:51Z</time>
      </trkpt>
      <trkpt lat="46.16777" lon="6.27132">
        <ele>470.8</ele>
        <time>2021-03-27T12:00:52Z</time>
      </trkpt>
      <trkpt lat="46.16788" lon="6.27135">
        <ele>469.8</ele>
        <time>2021-03-27T12:00:53Z</time>
      </trkpt>
      <trkpt lat="46.16797" lon="6.27137">
        <ele>468.8</ele>
        <time>2021-03-27T12:00:54Z</time>
      </trkpt>
      <trkpt lat="46.16803" lon="6.27139">
        <ele>467.6</ele>
        <time>2021-03-27T12:00:55Z</time>
      </trkpt>
      <trkpt lat="46.16809" lon="6.2714">
        <ele>466.2</ele>
        <time>2021-03-27T12:00:56Z</time>
      </trkpt>
      <trkpt lat="46.16811" lon="6.27141">
        <ele>464.8</ele>
        <time>2021-03-27T12:00:57Z</time>
      </trkpt>
      <trkpt lat="46.16813" lon="6.2714">
        <ele>463.6</ele>
        <time>2021-03-27T12:00:58Z</time>
      </trkpt>
      <trkpt lat="46.16814" lon="6.27139">
        <ele>462.8</ele>
        <time>2021-03-27T12:00:59Z</time>
      </trkpt>
      <trkpt lat="46.16814" lon="6.27139">
        <ele>462.4</ele>
        <time>2021-03-27T12:01:00Z</time>
      </trkpt>
      <trkpt lat="46.16815" lon="6.27141">
        <ele>462.4</ele>
        <time>2021-03-27T12:01:01Z</time>
      </trkpt>
      <trkpt lat="46.16816" lon="6.27143">
        <ele>462.2</ele>
        <time>2021-03-27T12:01:02Z</time>
      </trkpt>
      <trkpt lat="46.16817" lon="6.27145">
        <ele>462.2</ele>
        <time>2021-03-27T12:01:03Z</time>
      </trkpt>
      <trkpt lat="46.16819" lon="6.27147">
        <ele>462.2</ele>
        <time>2021-03-27T12:01:04Z</time>
      </trkpt>
      <trkpt lat="46.16822" lon="6.27148">
        <ele>462.2</ele>
        <time>2021-03-27T12:01:05Z</time>
      </trkpt>
      <trkpt lat="46.16827" lon="6.27149">
        <ele>462</ele>
        <time>2021-03-27T12:01:06Z</time>
      </trkpt>
      <trkpt lat="46.16831" lon="6.2715">
        <ele>462.2</ele>
        <time>2021-03-27T12:01:07Z</time>
      </trkpt>
      <trkpt lat="46.16836" lon="6.27152">
        <ele>462</ele>
        <time>2021-03-27T12:01:08Z</time>
      </trkpt>
      <trkpt lat="46.16841" lon="6.27155">
        <ele>462</ele>
        <time>2021-03-27T12:01:09Z</time>
      </trkpt>
      <trkpt lat="46.16846" lon="6.2716">
        <ele>462</ele>
        <time>2021-03-27T12:01:10Z</time>
      </trkpt>
      <trkpt lat="46.1685" lon="6.27166">
        <ele>462.2</ele>
        <time>2021-03-27T12:01:11Z</time>
      </trkpt>
      <trkpt lat="46.16852" lon="6.27173">
        <ele>462</ele>
        <time>2021-03-27T12:01:12Z</time>
      </trkpt>
      <trkpt lat="46.16853" lon="6.27182">
        <ele>462.2</ele>
        <time>2021-03-27T12:01:13Z</time>
      </trkpt>
      <trkpt lat="46.16853" lon="6.27191">
        <ele>462</ele>
        <time>2021-03-27T12:01:14Z</time>
      </trkpt>
      <trkpt lat="46.16852" lon="6.272">
        <ele>462</ele>
        <time>2021-03-27T12:01:15Z</time>
      </trkpt>
      <trkpt lat="46.16851" lon="6.2721">
        <ele>462</ele>
        <time>2021-03-27T12:01:16Z</time>
      </trkpt>
      <trkpt lat="46.16849" lon="6.2722">
        <ele>462</ele>
        <time>2021-03-27T12:01:17Z</time>
      </trkpt>
      <trkpt lat="46.16848" lon="6.2723">
        <ele>462</ele>
        <time>2021-03-27T12:01:18Z</time>
      </trkpt>
      <trkpt lat="46.16846" lon="6.2724">
        <ele>462</ele>
        <time>2021-03-27T12:01:19Z</time>
      </trkpt>
      <trkpt lat="46.16845" lon="6.2725">
        <ele>462</ele>
        <time>2021-03-27T12:01:20Z</time>
      </trkpt>
      <trkpt lat="46.16844" lon="6.27261">
        <ele>462</ele>
        <time>2021-03-27T12:01:21Z</time>
      </trkpt>
      <trkpt lat="46.16842" lon="6.27271">
        <ele>462</ele>
        <time>2021-03-27T12:01:22Z</time>
      </trkpt>
      <trkpt lat="46.16841" lon="6.27282">
        <ele>461.8</ele>
        <time>2021-03-27T12:01:23Z</time>
      </trkpt>
      <trkpt lat="46.1684" lon="6.27292">
        <ele>462</ele>
        <time>2021-03-27T12:01:24Z</time>
      </trkpt>
      <trkpt lat="46.16838" lon="6.27302">
        <ele>461.8</ele>
        <time>2021-03-27T12:01:25Z</time>
      </trkpt>
      <trkpt lat="46.16836" lon="6.27312">
        <ele>461.8</ele>
        <time>2021-03-27T12:01:26Z</time>
      </trkpt>
      <trkpt lat="46.16833" lon="6.27323">
        <ele>461.8</ele>
        <time>2021-03-27T12:01:27Z</time>
      </trkpt>
      <trkpt lat="46.1683" lon="6.27332">
        <ele>461.6</ele>
        <time>2021-03-27T12:01:28Z</time>
      </trkpt>
      <trkpt lat="46.16826" lon="6.27341">
        <ele>461.6</ele>
        <time>2021-03-27T12:01:29Z</time>
      </trkpt>
      <trkpt lat="46.16822" lon="6.27348">
        <ele>461.6</ele>
        <time>2021-03-27T12:01:30Z</time>
      </trkpt>
      <trkpt lat="46.16817" lon="6.27354">
        <ele>461.6</ele>
        <time>2021-03-27T12:01:31Z</time>
      </trkpt>
      <trkpt lat="46.16812" lon="6.2736">
        <ele>461.6</ele>
        <time>2021-03-27T12:01:32Z</time>
      </trkpt>
      <trkpt lat="46.16807" lon="6.27364">
        <ele>461.6</ele>
        <time>2021-03-27T12:01:33Z</time>
      </trkpt>
      <trkpt lat="46.16801" lon="6.27368">
        <ele>461.6</ele>
        <time>2021-03-27T12:01:34Z</time>
      </trkpt>
      <trkpt lat="46.16795" lon="6.2737">
        <ele>461.8</ele>
        <time>2021-03-27T12:01:35Z</time>
      </trkpt>
      <trkpt lat="46.16789" lon="6.27372">
        <ele>461.8</ele>
        <time>2021-03-27T12:01:36Z</time>
      </trkpt>
      <trkpt lat="46.16784" lon="6.27373">
        <ele>461.8</ele>
        <time>2021-03-27T12:01:37Z</time>
      </trkpt>
      <trkpt lat="46.16778" lon="6.27373">
        <ele>462</ele>
        <time>2021-03-27T12:01:38Z</time>
      </trkpt>
      <trkpt lat="46.16772" lon="6.27373">
        <ele>462</ele>
        <time>2021-03-27T12:01:39Z</time>
      </trkpt>
      <trkpt lat="46.16766" lon="6.27372">
        <ele>462.4</ele>
        <time>2021-03-27T12:01:40Z</time>
      </trkpt>
      <trkpt lat="46.1676" lon="6.27371">
        <ele>462.6</ele>
        <time>2021-03-27T12:01:41Z</time>
      </trkpt>
      <trkpt lat="46.16754" lon="6.27369">
        <ele>463.4</ele>
        <time>2021-03-27T12:01:42Z</time>
      </trkpt>
      <trkpt lat="46.16748" lon="6.27368">
        <ele>463.8</ele>
        <time>2021-03-27T12:01:43Z</time>
      </trkpt>
      <trkpt lat="46.16743" lon="6.27367">
        <ele>464</ele>
        <time>2021-03-27T12:01:44Z</time>
      </trkpt>
      <trkpt lat="46.16737" lon="6.27366">
        <ele>464.6</ele>
        <time>2021-03-27T12:01:45Z</time>
      </trkpt>
      <trkpt lat="46.16731" lon="6.27364">
        <ele>464.8</ele>
        <time>2021-03-27T12:01:46Z</time>
      </trkpt>
      <trkpt lat="46.16726" lon="6.27363">
        <ele>465.2</ele>
        <time>2021-03-27T12:01:47Z</time>
      </trkpt>
      <trkpt lat="46.1672" lon="6.27362">
        <ele>465.4</ele>
        <time>2021-03-27T12:01:48Z</time>
      </trkpt>
      <trkpt lat="46.16714" lon="6.27361">
        <ele>465.8</ele>
        <time>2021-03-27T12:01:49Z</time>
      </trkpt>
      <trkpt lat="46.16709" lon="6.27359">
        <ele>466</ele>
        <time>2021-03-27T12:01:50Z</time>
      </trkpt>
      <trkpt lat="46.16704" lon="6.27358">
        <ele>466.2</ele>
        <time>2021-03-27T12:01:51Z</time>
      </trkpt>
      <trkpt lat="46.16698" lon="6.27357">
        <ele>466.2</ele>
        <time>2021-03-27T12:01:52Z</time>
      </trkpt>
      <trkpt lat="46.16693" lon="6.27356">
        <ele>466.4</ele>
        <time>2021-03-27T12:01:53Z</time>
      </trkpt>
      <trkpt lat="46.16687" lon="6.27354">
        <ele>466.4</ele>
        <time>2021-03-27T12:01:54Z</time>
      </trkpt>
      <trkpt lat="46.16682" lon="6.27353">
        <ele>466.6</ele>
        <time>2021-03-27T12:01:55Z</time>
      </trkpt>
      <trkpt lat="46.16676" lon="6.27352">
        <ele>467</ele>
        <time>2021-03-27T12:01:56Z</time>
      </trkpt>
      <trkpt lat="46.16671" lon="6.2735">
        <ele>467.6</ele>
        <time>2021-03-27T12:01:57Z</time>
      </trkpt>
      <trkpt lat="46.16666" lon="6.27349">
        <ele>468</ele>
        <time>2021-03-27T12:01:58Z</time>
      </trkpt>
      <trkpt lat="46.16661" lon="6.27348">
        <ele>468.6</ele>
        <time>2021-03-27T12:01:59Z</time>
      </trkpt>
      <trkpt lat="46.16656" lon="6.27346">
        <ele>469</ele>
        <time>2021-03-27T12:02:00Z</time>
      </trkpt>
      <trkpt lat="46.16651" lon="6.27344">
        <ele>469.2</ele>
        <time>2021-03-27T12:02:01Z</time>
      </trkpt>
      <trkpt lat="46.16646" lon="6.27343">
        <ele>469.2</ele>
        <time>2021-03-27T12:02:02Z</time>
      </trkpt>
      <trkpt lat="46.16642" lon="6.27341">
        <ele>469.6</ele>
        <time>2021-03-27T12:02:03Z</time>
      </trkpt>
      <trkpt lat="46.16637" lon="6.27338">
        <ele>469.6</ele>
        <time>2021-03-27T12:02:04Z</time>
      </trkpt>
      <trkpt lat="46.16633" lon="6.27335">
        <ele>469.8</ele>
        <time>2021-03-27T12:02:05Z</time>
      </trkpt>
      <trkpt lat="46.16628" lon="6.27332">
        <ele>470</ele>
        <time>2021-03-27T12:02:06Z</time>
      </trkpt>
      <trkpt lat="46.16623" lon="6.27329">
        <ele>470.4</ele>
        <time>2021-03-27T12:02:07Z</time>
      </trkpt>
      <trkpt lat="46.16619" lon="6.27325">
        <ele>470.4</ele>
        <time>2021-03-27T12:02:08Z</time>
      </trkpt>
      <trkpt lat="46.16615" lon="6.27322">
        <ele>470.4</ele>
        <time>2021-03-27T12:02:09Z</time>
      </trkpt>
      <trkpt lat="46.16611" lon="6.27318">
        <ele>471</ele>
        <time>2021-03-27T12:02:10Z</time>
      </trkpt>
      <trkpt lat="46.16607" lon="6.27314">
        <ele>471.2</ele>
        <time>2021-03-27T12:02:11Z</time>
      </trkpt>
      <trkpt lat="46.16603" lon="6.2731">
        <ele>471.4</ele>
        <time>2021-03-27T12:02:12Z</time>
      </trkpt>
      <trkpt lat="46.16599" lon="6.27305">
        <ele>471.8</ele>
        <time>2021-03-27T12:02:13Z</time>
      </trkpt>
      <trkpt lat="46.16596" lon="6.273">
        <ele>471.8</ele>
        <time>2021-03-27T12:02:14Z</time>
      </trkpt>
      <trkpt lat="46.16591" lon="6.27295">
        <ele>472.4</ele>
        <time>2021-03-27T12:02:15Z</time>
      </trkpt>
      <trkpt lat="46.16587" lon="6.2729">
        <ele>472.4</ele>
        <time>2021-03-27T12:02:16Z</time>
      </trkpt>
      <trkpt lat="46.16582" lon="6.27286">
        <ele>472.4</ele>
        <time>2021-03-27T12:02:17Z</time>
      </trkpt>
      <trkpt lat="46.16577" lon="6.27282">
        <ele>472.8</ele>
        <time>2021-03-27T12:02:18Z</time>
      </trkpt>
      <trkpt lat="46.16572" lon="6.27279">
        <ele>473</ele>
        <time>2021-03-27T12:02:19Z</time>
      </trkpt>
      <trkpt lat="46.16567" lon="6.27275">
        <ele>473.4</ele>
        <time>2021-03-27T12:02:20Z</time>
      </trkpt>
      <trkpt lat="46.16562" lon="6.27272">
        <ele>473.6</ele>
        <time>2021-03-27T12:02:21Z</time>
      </trkpt>
      <trkpt lat="46.16556" lon="6.2727">
        <ele>473.8</ele>
        <time>2021-03-27T12:02:22Z</time>
      </trkpt>
      <trkpt lat="46.16551" lon="6.27268">
        <ele>474.2</ele>
        <time>2021-03-27T12:02:23Z</time>
      </trkpt>
      <trkpt lat="46.16546" lon="6.27266">
        <ele>474</ele>
        <time>2021-03-27T12:02:24Z</time>
      </trkpt>
      <trkpt lat="46.16541" lon="6.27264">
        <ele>474.6</ele>
        <time>2021-03-27T12:02:25Z</time>
      </trkpt>
      <trkpt lat="46.16536" lon="6.27262">
        <ele>474.8</ele>
        <time>2021-03-27T12:02:26Z</time>
      </trkpt>
      <trkpt lat="46.16531" lon="6.2726">
        <ele>475</ele>
        <time>2021-03-27T12:02:27Z</time>
      </trkpt>
      <trkpt lat="46.16526" lon="6.27258">
        <ele>475.4</ele>
        <time>2021-03-27T12:02:28Z</time>
      </trkpt>
      <trkpt lat="46.16521" lon="6.27256">
        <ele>476</ele>
        <time>2021-03-27T12:02:29Z</time>
      </trkpt>
      <trkpt lat="46.16515" lon="6.27254">
        <ele>476.2</ele>
        <time>2021-03-27T12:02:30Z</time>
      </trkpt>
      <trkpt lat="46.1651" lon="6.27252">
        <ele>476.6</ele>
        <time>2021-03-27T12:02:31Z</time>
      </trkpt>
      <trkpt lat="46.16504" lon="6.2725">
        <ele>476.8</ele>
        <time>2021-03-27T12:02:32Z</time>
      </trkpt>
      <trkpt lat="46.16499" lon="6.27248">
        <ele>477</ele>
        <time>2021-03-27T12:02:33Z</time>
      </trkpt>
      <trkpt lat="46.16494" lon="6.27246">
        <ele>477</ele>
        <time>2021-03-27T12:02:34Z</time>
      </trkpt>
      <trkpt lat="46.16488" lon="6.27244">
        <ele>477.2</ele>
        <time>2021-03-27T12:02:35Z</time>
      </trkpt>
      <trkpt lat="46.16483" lon="6.27242">
        <ele>477.4</ele>
        <time>2021-03-27T12:02:36Z</time>
      </trkpt>
      <trkpt lat="46.16478" lon="6.2724">
        <ele>477.4</ele>
        <time>2021-03-27T12:02:37Z</time>
      </trkpt>
      <trkpt lat="46.16473" lon="6.27239">
        <ele>477.8</ele>
        <time>2021-03-27T12:02:38Z</time>
      </trkpt>
      <trkpt lat="46.16468" lon="6.27237">
        <ele>478</ele>
        <time>2021-03-27T12:02:39Z</time>
      </trkpt>
      <trkpt lat="46.16463" lon="6.27235">
        <ele>478.2</ele>
        <time>2021-03-27T12:02:40Z</time>
      </trkpt>
      <trkpt lat="46.16458" lon="6.27233">
        <ele>478.2</ele>
        <time>2021-03-27T12:02:41Z</time>
      </trkpt>
      <trkpt lat="46.16453" lon="6.27232">
        <ele>478.4</ele>
        <time>2021-03-27T12:02:42Z</time>
      </trkpt>
      <trkpt lat="46.16449" lon="6.2723">
        <ele>478.4</ele>
        <time>2021-03-27T12:02:43Z</time>
      </trkpt>
      <trkpt lat="46.16444" lon="6.27228">
        <ele>478.8</ele>
        <time>2021-03-27T12:02:44Z</time>
      </trkpt>
      <trkpt lat="46.1644" lon="6.27227">
        <ele>479.2</ele>
        <time>2021-03-27T12:02:45Z</time>
      </trkpt>
      <trkpt lat="46.16435" lon="6.27226">
        <ele>479.2</ele>
        <time>2021-03-27T12:02:46Z</time>
      </trkpt>
      <trkpt lat="46.1643" lon="6.27225">
        <ele>479.4</ele>
        <time>2021-03-27T12:02:47Z</time>
      </trkpt>
      <trkpt lat="46.16425" lon="6.27224">
        <ele>479.6</ele>
        <time>2021-03-27T12:02:48Z</time>
      </trkpt>
      <trkpt lat="46.1642" lon="6.27224">
        <ele>480</ele>
        <time>2021-03-27T12:02:49Z</time>
      </trkpt>
      <trkpt lat="46.16415" lon="6.27224">
        <ele>480.6</ele>
        <time>2021-03-27T12:02:50Z</time>
      </trkpt>
      <trkpt lat="46.1641" lon="6.27225">
        <ele>480.8</ele>
        <time>2021-03-27T12:02:51Z</time>
      </trkpt>
      <trkpt lat="46.16405" lon="6.27226">
        <ele>481</ele>
        <time>2021-03-27T12:02:52Z</time>
      </trkpt>
      <trkpt lat="46.164" lon="6.27227">
        <ele>481</ele>
        <time>2021-03-27T12:02:53Z</time>
      </trkpt>
      <trkpt lat="46.16396" lon="6.27229">
        <ele>481.2</ele>
        <time>2021-03-27T12:02:54Z</time>
      </trkpt>
      <trkpt lat="46.16391" lon="6.27232">
        <ele>481.2</ele>
        <time>2021-03-27T12:02:55Z</time>
      </trkpt>
      <trkpt lat="46.16387" lon="6.27234">
        <ele>481.4</ele>
        <time>2021-03-27T12:02:56Z</time>
      </trkpt>
      <trkpt lat="46.16382" lon="6.27237">
        <ele>481.4</ele>
        <time>2021-03-27T12:02:57Z</time>
      </trkpt>
      <trkpt lat="46.16378" lon="6.27241">
        <ele>481.6</ele>
        <time>2021-03-27T12:02:58Z</time>
      </trkpt>
      <trkpt lat="46.16374" lon="6.27244">
        <ele>481.6</ele>
        <time>2021-03-27T12:02:59Z</time>
      </trkpt>
      <trkpt lat="46.1637" lon="6.27247">
        <ele>481.8</ele>
        <time>2021-03-27T12:03:00Z</time>
      </trkpt>
      <trkpt lat="46.16366" lon="6.27251">
        <ele>482</ele>
        <time>2021-03-27T12:03:01Z</time>
      </trkpt>
      <trkpt lat="46.16362" lon="6.27256">
        <ele>482.2</ele>
        <time>2021-03-27T12:03:02Z</time>
      </trkpt>
      <trkpt lat="46.16359" lon="6.27261">
        <ele>482.2</ele>
        <time>2021-03-27T12:03:03Z</time>
      </trkpt>
      <trkpt lat="46.16355" lon="6.27266">
        <ele>482.6</ele>
        <time>2021-03-27T12:03:04Z</time>
      </trkpt>
      <trkpt lat="46.16352" lon="6.27271">
        <ele>483</ele>
        <time>2021-03-27T12:03:05Z</time>
      </trkpt>
      <trkpt lat="46.16349" lon="6.27277">
        <ele>483.4</ele>
        <time>2021-03-27T12:03:06Z</time>
      </trkpt>
      <trkpt lat="46.16346" lon="6.27283">
        <ele>483.4</ele>
        <time>2021-03-27T12:03:07Z</time>
      </trkpt>
      <trkpt lat="46.16343" lon="6.2729">
        <ele>483.6</ele>
        <time>2021-03-27T12:03:08Z</time>
      </trkpt>
      <trkpt lat="46.1634" lon="6.27296">
        <ele>483.8</ele>
        <time>2021-03-27T12:03:09Z</time>
      </trkpt>
      <trkpt lat="46.16338" lon="6.27303">
        <ele>483.8</ele>
        <time>2021-03-27T12:03:10Z</time>
      </trkpt>
      <trkpt lat="46.16335" lon="6.2731">
        <ele>483.8</ele>
        <time>2021-03-27T12:03:11Z</time>
      </trkpt>
      <trkpt lat="46.16332" lon="6.27317">
        <ele>484</ele>
        <time>2021-03-27T12:03:12Z</time>
      </trkpt>
      <trkpt lat="46.1633" lon="6.27325">
        <ele>484.2</ele>
        <time>2021-03-27T12:03:13Z</time>
      </trkpt>
      <trkpt lat="46.16328" lon="6.27332">
        <ele>484.6</ele>
        <time>2021-03-27T12:03:14Z</time>
      </trkpt>
      <trkpt lat="46.16326" lon="6.27339">
        <ele>484.6</ele>
        <time>2021-03-27T12:03:15Z</time>
      </trkpt>
      <trkpt lat="46.16323" lon="6.27346">
        <ele>485</ele>
        <time>2021-03-27T12:03:16Z</time>
      </trkpt>
      <trkpt lat="46.1632" lon="6.27354">
        <ele>484.8</ele>
        <time>2021-03-27T12:03:17Z</time>
      </trkpt>
      <trkpt lat="46.16317" lon="6.27361">
        <ele>484.8</ele>
        <time>2021-03-27T12:03:18Z</time>
      </trkpt>
      <trkpt lat="46.16314" lon="6.27369">
        <ele>485</ele>
        <time>2021-03-27T12:03:19Z</time>
      </trkpt>
      <trkpt lat="46.16311" lon="6.27377">
        <ele>485</ele>
        <time>2021-03-27T12:03:20Z</time>
      </trkpt>
      <trkpt lat="46.16308" lon="6.27386">
        <ele>485.2</ele>
        <time>2021-03-27T12:03:21Z</time>
      </trkpt>
      <trkpt lat="46.16305" lon="6.27394">
        <ele>485.2</ele>
        <time>2021-03-27T12:03:22Z</time>
      </trkpt>
      <trkpt lat="46.16302" lon="6.27402">
        <ele>485.2</ele>
        <time>2021-03-27T12:03:23Z</time>
      </trkpt>
      <trkpt lat="46.16299" lon="6.2741">
        <ele>485.2</ele>
        <time>2021-03-27T12:03:24Z</time>
      </trkpt>
      <trkpt lat="46.16296" lon="6.27418">
        <ele>485.2</ele>
        <time>2021-03-27T12:03:25Z</time>
      </trkpt>
      <trkpt lat="46.16292" lon="6.27426">
        <ele>485.2</ele>
        <time>2021-03-27T12:03:26Z</time>
      </trkpt>
      <trkpt lat="46.16289" lon="6.27434">
        <ele>485.2</ele>
        <time>2021-03-27T12:03:27Z</time>
      </trkpt>
      <trkpt lat="46.16286" lon="6.27443">
        <ele>485</ele>
        <time>2021-03-27T12:03:28Z</time>
      </trkpt>
      <trkpt lat="46.16283" lon="6.27451">
        <ele>485</ele>
        <time>2021-03-27T12:03:29Z</time>
      </trkpt>
      <trkpt lat="46.1628" lon="6.27459">
        <ele>485</ele>
        <time>2021-03-27T12:03:30Z</time>
      </trkpt>
      <trkpt lat="46.16277" lon="6.27467">
        <ele>485</ele>
        <time>2021-03-27T12:03:31Z</time>
      </trkpt>
      <trkpt lat="46.16274" lon="6.27475">
        <ele>485</ele>
        <time>2021-03-27T12:03:32Z</time>
      </trkpt>
      <trkpt lat="46.1627" lon="6.27483">
        <ele>485</ele>
        <time>2021-03-27T12:03:33Z</time>
      </trkpt>
      <trkpt lat="46.16267" lon="6.27491">
        <ele>485</ele>
        <time>2021-03-27T12:03:34Z</time>
      </trkpt>
      <trkpt lat="46.16264" lon="6.27499">
        <ele>484.8</ele>
        <time>2021-03-27T12:03:35Z</time>
      </trkpt>
      <trkpt lat="46.16261" lon="6.27508">
        <ele>484.8</ele>
        <time>2021-03-27T12:03:36Z</time>
      </trkpt>
      <trkpt lat="46.16258" lon="6.27516">
        <ele>484.8</ele>
        <time>2021-03-27T12:03:37Z</time>
      </trkpt>
      <trkpt lat="46.16255" lon="6.27524">
        <ele>484.8</ele>
        <time>2021-03-27T12:03:38Z</time>
      </trkpt>
      <trkpt lat="46.16251" lon="6.27533">
        <ele>484.8</ele>
        <time>2021-03-27T12:03:39Z</time>
      </trkpt>
      <trkpt lat="46.16248" lon="6.27541">
        <ele>484.8</ele>
        <time>2021-03-27T12:03:40Z</time>
      </trkpt>
      <trkpt lat="46.16245" lon="6.2755">
        <ele>484.8</ele>
        <time>2021-03-27T12:03:41Z</time>
      </trkpt>
      <trkpt lat="46.16242" lon="6.27558">
        <ele>484.8</ele>
        <time>2021-03-27T12:03:42Z</time>
      </trkpt>
      <trkpt lat="46.16239" lon="6.27566">
        <ele>484.8</ele>
        <time>2021-03-27T12:03:43Z</time>
      </trkpt>
      <trkpt lat="46.16235" lon="6.27574">
        <ele>485</ele>
        <time>2021-03-27T12:03:44Z</time>
      </trkpt>
      <trkpt lat="46.16231" lon="6.27582">
        <ele>484.8</ele>
        <time>2021-03-27T12:03:45Z</time>
      </trkpt>
      <trkpt lat="46.16227" lon="6.27588">
        <ele>485</ele>
        <time>2021-03-27T12:03:46Z</time>
      </trkpt>
      <trkpt lat="46.16223" lon="6.27593">
        <ele>484.8</ele>
        <time>2021-03-27T12:03:47Z</time>
      </trkpt>
      <trkpt lat="46.16218" lon="6.27597">
        <ele>484.8</ele>
        <time>2021-03-27T12:03:48Z</time>
      </trkpt>
      <trkpt lat="46.16214" lon="6.27602">
        <ele>484.8</ele>
        <time>2021-03-27T12:03:49Z</time>
      </trkpt>
      <trkpt lat="46.1621" lon="6.27607">
        <ele>484.6</ele>
        <time>2021-03-27T12:03:50Z</time>
      </trkpt>
      <trkpt lat="46.16206" lon="6.27614">
        <ele>484.8</ele>
        <time>2021-03-27T12:03:51Z</time>
      </trkpt>
      <trkpt lat="46.16205" lon="6.27622">
        <ele>484.6</ele>
        <time>2021-03-27T12:03:52Z</time>
      </trkpt>
      <trkpt lat="46.16204" lon="6.27631">
        <ele>484.8</ele>
        <time>2021-03-27T12:03:53Z</time>
      </trkpt>
      <trkpt lat="46.16204" lon="6.27639">
        <ele>484.6</ele>
        <time>2021-03-27T12:03:54Z</time>
      </trkpt>
      <trkpt lat="46.16203" lon="6.27648">
        <ele>484.4</ele>
        <time>2021-03-27T12:03:55Z</time>
      </trkpt>
      <trkpt lat="46.16201" lon="6.27657">
        <ele>484</ele>
        <time>2021-03-27T12:03:56Z</time>
      </trkpt>
      <trkpt lat="46.16198" lon="6.27666">
        <ele>483.8</ele>
        <time>2021-03-27T12:03:57Z</time>
      </trkpt>
      <trkpt lat="46.16196" lon="6.27674">
        <ele>483.6</ele>
        <time>2021-03-27T12:03:58Z</time>
      </trkpt>
      <trkpt lat="46.16193" lon="6.27683">
        <ele>483.4</ele>
        <time>2021-03-27T12:03:59Z</time>
      </trkpt>
      <trkpt lat="46.1619" lon="6.27692">
        <ele>483.4</ele>
        <time>2021-03-27T12:04:00Z</time>
      </trkpt>
      <trkpt lat="46.16186" lon="6.27701">
        <ele>483.2</ele>
        <time>2021-03-27T12:04:01Z</time>
      </trkpt>
      <trkpt lat="46.16183" lon="6.2771">
        <ele>483.2</ele>
        <time>2021-03-27T12:04:02Z</time>
      </trkpt>
      <trkpt lat="46.1618" lon="6.27719">
        <ele>482.8</ele>
        <time>2021-03-27T12:04:03Z</time>
      </trkpt>
      <trkpt lat="46.16177" lon="6.27728">
        <ele>482.8</ele>
        <time>2021-03-27T12:04:04Z</time>
      </trkpt>
      <trkpt lat="46.16173" lon="6.27737">
        <ele>482.6</ele>
        <time>2021-03-27T12:04:05Z</time>
      </trkpt>
      <trkpt lat="46.1617" lon="6.27745">
        <ele>482.8</ele>
        <time>2021-03-27T12:04:06Z</time>
      </trkpt>
      <trkpt lat="46.16166" lon="6.27754">
        <ele>482.6</ele>
        <time>2021-03-27T12:04:07Z</time>
      </trkpt>
      <trkpt lat="46.16163" lon="6.27763">
        <ele>482.4</ele>
        <time>2021-03-27T12:04:08Z</time>
      </trkpt>
      <trkpt lat="46.1616" lon="6.27772">
        <ele>482.6</ele>
        <time>2021-03-27T12:04:09Z</time>
      </trkpt>
      <trkpt lat="46.16156" lon="6.27781">
        <ele>482.4</ele>
        <time>2021-03-27T12:04:10Z</time>
      </trkpt>
      <trkpt lat="46.16153" lon="6.2779">
        <ele>482.2</ele>
        <time>2021-03-27T12:04:11Z</time>
      </trkpt>
      <trkpt lat="46.1615" lon="6.27799">
        <ele>482.2</ele>
        <time>2021-03-27T12:04:12Z</time>
      </trkpt>
      <trkpt lat="46.16146" lon="6.27808">
        <ele>482.2</ele>
        <time>2021-03-27T12:04:13Z</time>
      </trkpt>
      <trkpt lat="46.16143" lon="6.27817">
        <ele>482</ele>
        <time>2021-03-27T12:04:14Z</time>
      </trkpt>
      <trkpt lat="46.1614" lon="6.27827">
        <ele>482</ele>
        <time>2021-03-27T12:04:15Z</time>
      </trkpt>
      <trkpt lat="46.16136" lon="6.27836">
        <ele>482</ele>
        <time>2021-03-27T12:04:16Z</time>
      </trkpt>
      <trkpt lat="46.16133" lon="6.27845">
        <ele>481.8</ele>
        <time>2021-03-27T12:04:17Z</time>
      </trkpt>
      <trkpt lat="46.1613" lon="6.27854">
        <ele>481.8</ele>
        <time>2021-03-27T12:04:18Z</time>
      </trkpt>
      <trkpt lat="46.16126" lon="6.27864">
        <ele>481.6</ele>
        <time>2021-03-27T12:04:19Z</time>
      </trkpt>
      <trkpt lat="46.16123" lon="6.27873">
        <ele>481.6</ele>
        <time>2021-03-27T12:04:20Z</time>
      </trkpt>
      <trkpt lat="46.16119" lon="6.27882">
        <ele>481.4</ele>
        <time>2021-03-27T12:04:21Z</time>
      </trkpt>
      <trkpt lat="46.16116" lon="6.27891">
        <ele>481.2</ele>
        <time>2021-03-27T12:04:22Z</time>
      </trkpt>
      <trkpt lat="46.16112" lon="6.279">
        <ele>481.2</ele>
        <time>2021-03-27T12:04:23Z</time>
      </trkpt>
      <trkpt lat="46.16109" lon="6.2791">
        <ele>481.2</ele>
        <time>2021-03-27T12:04:24Z</time>
      </trkpt>
      <trkpt lat="46.16105" lon="6.27919">
        <ele>481</ele>
        <time>2021-03-27T12:04:25Z</time>
      </trkpt>
      <trkpt lat="46.16102" lon="6.27928">
        <ele>481</ele>
        <time>2021-03-27T12:04:26Z</time>
      </trkpt>
      <trkpt lat="46.16098" lon="6.27937">
        <ele>480.6</ele>
        <time>2021-03-27T12:04:27Z</time>
      </trkpt>
      <trkpt lat="46.16095" lon="6.27947">
        <ele>480.6</ele>
        <time>2021-03-27T12:04:28Z</time>
      </trkpt>
      <trkpt lat="46.16091" lon="6.27956">
        <ele>480.6</ele>
        <time>2021-03-27T12:04:29Z</time>
      </trkpt>
      <trkpt lat="46.16088" lon="6.27965">
        <ele>480.6</ele>
        <time>2021-03-27T12:04:30Z</time>
      </trkpt>
      <trkpt lat="46.16084" lon="6.27975">
        <ele>480.4</ele>
        <time>2021-03-27T12:04:31Z</time>
      </trkpt>
      <trkpt lat="46.16081" lon="6.27984">
        <ele>480.2</ele>
        <time>2021-03-27T12:04:32Z</time>
      </trkpt>
      <trkpt lat="46.16077" lon="6.27993">
        <ele>480.2</ele>
        <time>2021-03-27T12:04:33Z</time>
      </trkpt>
      <trkpt lat="46.16074" lon="6.28002">
        <ele>480.2</ele>
        <time>2021-03-27T12:04:34Z</time>
      </trkpt>
      <trkpt lat="46.1607" lon="6.28011">
        <ele>480.2</ele>
        <time>2021-03-27T12:04:35Z</time>
      </trkpt>
      <trkpt lat="46.16066" lon="6.2802">
        <ele>480.2</ele>
        <time>2021-03-27T12:04:36Z</time>
      </trkpt>
      <trkpt lat="46.16063" lon="6.28029">
        <ele>480</ele>
        <time>2021-03-27T12:04:37Z</time>
      </trkpt>
      <trkpt lat="46.16059" lon="6.28038">
        <ele>480.2</ele>
        <time>2021-03-27T12:04:38Z</time>
      </trkpt>
      <trkpt lat="46.16056" lon="6.28047">
        <ele>480.2</ele>
        <time>2021-03-27T12:04:39Z</time>
      </trkpt>
      <trkpt lat="46.16052" lon="6.28057">
        <ele>480.2</ele>
        <time>2021-03-27T12:04:40Z</time>
      </trkpt>
      <trkpt lat="46.16048" lon="6.28066">
        <ele>480.2</ele>
        <time>2021-03-27T12:04:41Z</time>
      </trkpt>
      <trkpt lat="46.16045" lon="6.28075">
        <ele>480.2</ele>
        <time>2021-03-27T12:04:42Z</time>
      </trkpt>
      <trkpt lat="46.16041" lon="6.28085">
        <ele>480.4</ele>
        <time>2021-03-27T12:04:43Z</time>
      </trkpt>
      <trkpt lat="46.16038" lon="6.28094">
        <ele>480.2</ele>
        <time>2021-03-27T12:04:44Z</time>
      </trkpt>
      <trkpt lat="46.16034" lon="6.28103">
        <ele>480.4</ele>
        <time>2021-03-27T12:04:45Z</time>
      </trkpt>
      <trkpt lat="46.16031" lon="6.28112">
        <ele>480.2</ele>
        <time>2021-03-27T12:04:46Z</time>
      </trkpt>
      <trkpt lat="46.16027" lon="6.28122">
        <ele>480.4</ele>
        <time>2021-03-27T12:04:47Z</time>
      </trkpt>
      <trkpt lat="46.16024" lon="6.28131">
        <ele>480.4</ele>
        <time>2021-03-27T12:04:48Z</time>
      </trkpt>
      <trkpt lat="46.1602" lon="6.28141">
        <ele>480.4</ele>
        <time>2021-03-27T12:04:49Z</time>
      </trkpt>
      <trkpt lat="46.16016" lon="6.2815">
        <ele>480.4</ele>
        <time>2021-03-27T12:04:50Z</time>
      </trkpt>
      <trkpt lat="46.16013" lon="6.2816">
        <ele>480.6</ele>
        <time>2021-03-27T12:04:51Z</time>
      </trkpt>
      <trkpt lat="46.16009" lon="6.2817">
        <ele>480.6</ele>
        <time>2021-03-27T12:04:52Z</time>
      </trkpt>
      <trkpt lat="46.16006" lon="6.28179">
        <ele>480.8</ele>
        <time>2021-03-27T12:04:53Z</time>
      </trkpt>
      <trkpt lat="46.16002" lon="6.28189">
        <ele>480.8</ele>
        <time>2021-03-27T12:04:54Z</time>
      </trkpt>
      <trkpt lat="46.15998" lon="6.28199">
        <ele>481</ele>
        <time>2021-03-27T12:04:55Z</time>
      </trkpt>
      <trkpt lat="46.15993" lon="6.28208">
        <ele>481</ele>
        <time>2021-03-27T12:04:56Z</time>
      </trkpt>
      <trkpt lat="46.15989" lon="6.28218">
        <ele>481</ele>
        <time>2021-03-27T12:04:57Z</time>
      </trkpt>
      <trkpt lat="46.15985" lon="6.28228">
        <ele>481</ele>
        <time>2021-03-27T12:04:58Z</time>
      </trkpt>
      <trkpt lat="46.1598" lon="6.28237">
        <ele>481.2</ele>
        <time>2021-03-27T12:04:59Z</time>
      </trkpt>
      <trkpt lat="46.15975" lon="6.28247">
        <ele>481</ele>
        <time>2021-03-27T12:05:00Z</time>
      </trkpt>
      <trkpt lat="46.15969" lon="6.28256">
        <ele>481.2</ele>
        <time>2021-03-27T12:05:01Z</time>
      </trkpt>
      <trkpt lat="46.15964" lon="6.28265">
        <ele>481.2</ele>
        <time>2021-03-27T12:05:02Z</time>
      </trkpt>
      <trkpt lat="46.15959" lon="6.28273">
        <ele>481.4</ele>
        <time>2021-03-27T12:05:03Z</time>
      </trkpt>
      <trkpt lat="46.15955" lon="6.28282">
        <ele>481.2</ele>
        <time>2021-03-27T12:05:04Z</time>
      </trkpt>
      <trkpt lat="46.1595" lon="6.28291">
        <ele>481.2</ele>
        <time>2021-03-27T12:05:05Z</time>
      </trkpt>
      <trkpt lat="46.15946" lon="6.283">
        <ele>481.2</ele>
        <time>2021-03-27T12:05:06Z</time>
      </trkpt>
      <trkpt lat="46.15941" lon="6.28309">
        <ele>481.4</ele>
        <time>2021-03-27T12:05:07Z</time>
      </trkpt>
      <trkpt lat="46.15936" lon="6.28317">
        <ele>481.2</ele>
        <time>2021-03-27T12:05:08Z</time>
      </trkpt>
      <trkpt lat="46.15931" lon="6.28327">
        <ele>481.2</ele>
        <time>2021-03-27T12:05:09Z</time>
      </trkpt>
      <trkpt lat="46.15926" lon="6.28336">
        <ele>481.2</ele>
        <time>2021-03-27T12:05:10Z</time>
      </trkpt>
      <trkpt lat="46.15921" lon="6.28345">
        <ele>481</ele>
        <time>2021-03-27T12:05:11Z</time>
      </trkpt>
      <trkpt lat="46.15916" lon="6.28354">
        <ele>480.8</ele>
        <time>2021-03-27T12:05:12Z</time>
      </trkpt>
      <trkpt lat="46.15911" lon="6.28363">
        <ele>480.8</ele>
        <time>2021-03-27T12:05:13Z</time>
      </trkpt>
      <trkpt lat="46.15907" lon="6.28372">
        <ele>480.6</ele>
        <time>2021-03-27T12:05:14Z</time>
      </trkpt>
      <trkpt lat="46.15902" lon="6.28381">
        <ele>480.4</ele>
        <time>2021-03-27T12:05:15Z</time>
      </trkpt>
      <trkpt lat="46.15898" lon="6.2839">
        <ele>480.2</ele>
        <time>2021-03-27T12:05:16Z</time>
      </trkpt>
      <trkpt lat="46.15893" lon="6.28399">
        <ele>480</ele>
        <time>2021-03-27T12:05:17Z</time>
      </trkpt>
      <trkpt lat="46.15889" lon="6.28409">
        <ele>479.8</ele>
        <time>2021-03-27T12:05:18Z</time>
      </trkpt>
      <trkpt lat="46.15885" lon="6.28419">
        <ele>479.6</ele>
        <time>2021-03-27T12:05:19Z</time>
      </trkpt>
      <trkpt lat="46.15882" lon="6.2843">
        <ele>479.6</ele>
        <time>2021-03-27T12:05:20Z</time>
      </trkpt>
      <trkpt lat="46.15878" lon="6.28441">
        <ele>479.4</ele>
        <time>2021-03-27T12:05:21Z</time>
      </trkpt>
      <trkpt lat="46.15875" lon="6.28452">
        <ele>479.2</ele>
        <time>2021-03-27T12:05:22Z</time>
      </trkpt>
      <trkpt lat="46.15872" lon="6.28464">
        <ele>479</ele>
        <time>2021-03-27T12:05:23Z</time>
      </trkpt>
      <trkpt lat="46.15869" lon="6.28476">
        <ele>478.6</ele>
        <time>2021-03-27T12:05:24Z</time>
      </trkpt>
      <trkpt lat="46.15866" lon="6.28488">
        <ele>478.6</ele>
        <time>2021-03-27T12:05:25Z</time>
      </trkpt>
      <trkpt lat="46.15863" lon="6.285">
        <ele>478.2</ele>
        <time>2021-03-27T12:05:26Z</time>
      </trkpt>
      <trkpt lat="46.15861" lon="6.28512">
        <ele>478</ele>
        <time>2021-03-27T12:05:27Z</time>
      </trkpt>
      <trkpt lat="46.15858" lon="6.28524">
        <ele>477.8</ele>
        <time>2021-03-27T12:05:28Z</time>
      </trkpt>
      <trkpt lat="46.15856" lon="6.28537">
        <ele>478</ele>
        <time>2021-03-27T12:05:29Z</time>
      </trkpt>
      <trkpt lat="46.15853" lon="6.28549">
        <ele>477.8</ele>
        <time>2021-03-27T12:05:30Z</time>
      </trkpt>
      <trkpt lat="46.1585" lon="6.28562">
        <ele>477.8</ele>
        <time>2021-03-27T12:05:31Z</time>
      </trkpt>
      <trkpt lat="46.15848" lon="6.28574">
        <ele>477.8</ele>
        <time>2021-03-27T12:05:32Z</time>
      </trkpt>
      <trkpt lat="46.15845" lon="6.28587">
        <ele>477.6</ele>
        <time>2021-03-27T12:05:33Z</time>
      </trkpt>
      <trkpt lat="46.15843" lon="6.286">
        <ele>477.6</ele>
        <time>2021-03-27T12:05:34Z</time>
      </trkpt>
      <trkpt lat="46.1584" lon="6.28612">
        <ele>477.4</ele>
        <time>2021-03-27T12:05:35Z</time>
      </trkpt>
      <trkpt lat="46.15837" lon="6.28626">
        <ele>477.4</ele>
        <time>2021-03-27T12:05:36Z</time>
      </trkpt>
      <trkpt lat="46.15834" lon="6.28639">
        <ele>477.4</ele>
        <time>2021-03-27T12:05:37Z</time>
      </trkpt>
      <trkpt lat="46.15831" lon="6.28652">
        <ele>477</ele>
        <time>2021-03-27T12:05:38Z</time>
      </trkpt>
      <trkpt lat="46.15828" lon="6.28665">
        <ele>476.2</ele>
        <time>2021-03-27T12:05:39Z</time>
      </trkpt>
      <trkpt lat="46.15825" lon="6.28679">
        <ele>475.6</ele>
        <time>2021-03-27T12:05:40Z</time>
      </trkpt>
      <trkpt lat="46.15822" lon="6.28692">
        <ele>475.4</ele>
        <time>2021-03-27T12:05:41Z</time>
      </trkpt>
      <trkpt lat="46.15819" lon="6.28705">
        <ele>475.2</ele>
        <time>2021-03-27T12:05:42Z</time>
      </trkpt>
      <trkpt lat="46.15816" lon="6.28718">
        <ele>475</ele>
        <time>2021-03-27T12:05:43Z</time>
      </trkpt>
      <trkpt lat="46.15813" lon="6.28731">
        <ele>474.8</ele>
        <time>2021-03-27T12:05:44Z</time>
      </trkpt>
      <trkpt lat="46.1581" lon="6.28743">
        <ele>474.4</ele>
        <time>2021-03-27T12:05:45Z</time>
      </trkpt>
      <trkpt lat="46.15808" lon="6.28755">
        <ele>474.2</ele>
        <time>2021-03-27T12:05:46Z</time>
      </trkpt>
      <trkpt lat="46.15805" lon="6.28767">
        <ele>474</ele>
        <time>2021-03-27T12:05:47Z</time>
      </trkpt>
      <trkpt lat="46.15802" lon="6.28779">
        <ele>473.6</ele>
        <time>2021-03-27T12:05:48Z</time>
      </trkpt>
      <trkpt lat="46.15799" lon="6.28791">
        <ele>473.4</ele>
        <time>2021-03-27T12:05:49Z</time>
      </trkpt>
      <trkpt lat="46.15796" lon="6.28803">
        <ele>473.2</ele>
        <time>2021-03-27T12:05:50Z</time>
      </trkpt>
      <trkpt lat="46.15793" lon="6.28815">
        <ele>473</ele>
        <time>2021-03-27T12:05:51Z</time>
      </trkpt>
      <trkpt lat="46.15791" lon="6.28826">
        <ele>472.6</ele>
        <time>2021-03-27T12:05:52Z</time>
      </trkpt>
      <trkpt lat="46.15788" lon="6.28837">
        <ele>472.6</ele>
        <time>2021-03-27T12:05:53Z</time>
      </trkpt>
      <trkpt lat="46.15786" lon="6.28848">
        <ele>472.6</ele>
        <time>2021-03-27T12:05:54Z</time>
      </trkpt>
      <trkpt lat="46.15783" lon="6.28858">
        <ele>472.4</ele>
        <time>2021-03-27T12:05:55Z</time>
      </trkpt>
      <trkpt lat="46.1578" lon="6.28868">
        <ele>472.4</ele>
        <time>2021-03-27T12:05:56Z</time>
      </trkpt>
      <trkpt lat="46.15778" lon="6.28878">
        <ele>472.4</ele>
        <time>2021-03-27T12:05:57Z</time>
      </trkpt>
      <trkpt lat="46.15777" lon="6.28888">
        <ele>472.2</ele>
        <time>2021-03-27T12:05:58Z</time>
      </trkpt>
      <trkpt lat="46.15775" lon="6.28897">
        <ele>472.6</ele>
        <time>2021-03-27T12:05:59Z</time>
      </trkpt>
      <trkpt lat="46.15773" lon="6.28906">
        <ele>472.6</ele>
        <time>2021-03-27T12:06:00Z</time>
      </trkpt>
      <trkpt lat="46.15772" lon="6.28914">
        <ele>472.4</ele>
        <time>2021-03-27T12:06:01Z</time>
      </trkpt>
      <trkpt lat="46.1577" lon="6.28922">
        <ele>472.6</ele>
        <time>2021-03-27T12:06:02Z</time>
      </trkpt>
      <trkpt lat="46.15768" lon="6.28931">
        <ele>472.6</ele>
        <time>2021-03-27T12:06:03Z</time>
      </trkpt>
      <trkpt lat="46.15766" lon="6.2894">
        <ele>473.4</ele>
        <time>2021-03-27T12:06:04Z</time>
      </trkpt>
      <trkpt lat="46.15764" lon="6.28949">
        <ele>473.8</ele>
        <time>2021-03-27T12:06:05Z</time>
      </trkpt>
      <trkpt lat="46.15762" lon="6.28959">
        <ele>474.2</ele>
        <time>2021-03-27T12:06:06Z</time>
      </trkpt>
      <trkpt lat="46.1576" lon="6.28968">
        <ele>474.2</ele>
        <time>2021-03-27T12:06:07Z</time>
      </trkpt>
      <trkpt lat="46.15757" lon="6.28978">
        <ele>474.4</ele>
        <time>2021-03-27T12:06:08Z</time>
      </trkpt>
      <trkpt lat="46.15755" lon="6.28987">
        <ele>474.6</ele>
        <time>2021-03-27T12:06:09Z</time>
      </trkpt>
      <trkpt lat="46.15753" lon="6.28996">
        <ele>474.4</ele>
        <time>2021-03-27T12:06:10Z</time>
      </trkpt>
      <trkpt lat="46.15751" lon="6.29006">
        <ele>474.6</ele>
        <time>2021-03-27T12:06:11Z</time>
      </trkpt>
      <trkpt lat="46.15748" lon="6.29016">
        <ele>474.8</ele>
        <time>2021-03-27T12:06:12Z</time>
      </trkpt>
      <trkpt lat="46.15746" lon="6.29025">
        <ele>474.8</ele>
        <time>2021-03-27T12:06:13Z</time>
      </trkpt>
      <trkpt lat="46.15744" lon="6.29036">
        <ele>474.8</ele>
        <time>2021-03-27T12:06:14Z</time>
      </trkpt>
      <trkpt lat="46.15741" lon="6.29046">
        <ele>474.8</ele>
        <time>2021-03-27T12:06:15Z</time>
      </trkpt>
      <trkpt lat="46.15739" lon="6.29056">
        <ele>474.8</ele>
        <time>2021-03-27T12:06:16Z</time>
      </trkpt>
      <trkpt lat="46.15737" lon="6.29066">
        <ele>474.6</ele>
        <time>2021-03-27T12:06:17Z</time>
      </trkpt>
      <trkpt lat="46.15735" lon="6.29076">
        <ele>474.6</ele>
        <time>2021-03-27T12:06:18Z</time>
      </trkpt>
      <trkpt lat="46.15732" lon="6.29087">
        <ele>474.6</ele>
        <time>2021-03-27T12:06:19Z</time>
      </trkpt>
      <trkpt lat="46.1573" lon="6.29098">
        <ele>474.8</ele>
        <time>2021-03-27T12:06:20Z</time>
      </trkpt>
      <trkpt lat="46.15728" lon="6.29109">
        <ele>474.8</ele>
        <time>2021-03-27T12:06:21Z</time>
      </trkpt>
      <trkpt lat="46.15726" lon="6.29119">
        <ele>474.8</ele>
        <time>2021-03-27T12:06:22Z</time>
      </trkpt>
      <trkpt lat="46.15724" lon="6.2913">
        <ele>475</ele>
        <time>2021-03-27T12:06:23Z</time>
      </trkpt>
      <trkpt lat="46.15721" lon="6.29141">
        <ele>475</ele>
        <time>2021-03-27T12:06:24Z</time>
      </trkpt>
      <trkpt lat="46.15719" lon="6.29152">
        <ele>475.2</ele>
        <time>2021-03-27T12:06:25Z</time>
      </trkpt>
      <trkpt lat="46.15717" lon="6.29163">
        <ele>475</ele>
        <time>2021-03-27T12:06:26Z</time>
      </trkpt>
      <trkpt lat="46.15714" lon="6.29174">
        <ele>475.2</ele>
        <time>2021-03-27T12:06:27Z</time>
      </trkpt>
      <trkpt lat="46.15712" lon="6.29185">
        <ele>475</ele>
        <time>2021-03-27T12:06:28Z</time>
      </trkpt>
      <trkpt lat="46.1571" lon="6.29195">
        <ele>475.2</ele>
        <time>2021-03-27T12:06:29Z</time>
      </trkpt>
      <trkpt lat="46.15708" lon="6.29206">
        <ele>475.2</ele>
        <time>2021-03-27T12:06:30Z</time>
      </trkpt>
      <trkpt lat="46.15706" lon="6.29217">
        <ele>475</ele>
        <time>2021-03-27T12:06:31Z</time>
      </trkpt>
      <trkpt lat="46.15703" lon="6.29228">
        <ele>475</ele>
        <time>2021-03-27T12:06:32Z</time>
      </trkpt>
      <trkpt lat="46.15701" lon="6.29239">
        <ele>475.2</ele>
        <time>2021-03-27T12:06:33Z</time>
      </trkpt>
      <trkpt lat="46.15699" lon="6.2925">
        <ele>475</ele>
        <time>2021-03-27T12:06:34Z</time>
      </trkpt>
      <trkpt lat="46.15696" lon="6.29261">
        <ele>475.2</ele>
        <time>2021-03-27T12:06:35Z</time>
      </trkpt>
      <trkpt lat="46.15694" lon="6.29271">
        <ele>475.4</ele>
        <time>2021-03-27T12:06:36Z</time>
      </trkpt>
      <trkpt lat="46.15692" lon="6.29282">
        <ele>475.6</ele>
        <time>2021-03-27T12:06:37Z</time>
      </trkpt>
      <trkpt lat="46.1569" lon="6.29293">
        <ele>475.6</ele>
        <time>2021-03-27T12:06:38Z</time>
      </trkpt>
      <trkpt lat="46.15688" lon="6.29304">
        <ele>475.4</ele>
        <time>2021-03-27T12:06:39Z</time>
      </trkpt>
      <trkpt lat="46.15685" lon="6.29314">
        <ele>475.6</ele>
        <time>2021-03-27T12:06:40Z</time>
      </trkpt>
      <trkpt lat="46.15683" lon="6.29324">
        <ele>475.6</ele>
        <time>2021-03-27T12:06:41Z</time>
      </trkpt>
      <trkpt lat="46.1568" lon="6.29334">
        <ele>475.8</ele>
        <time>2021-03-27T12:06:42Z</time>
      </trkpt>
      <trkpt lat="46.15678" lon="6.29345">
        <ele>475.8</ele>
        <time>2021-03-27T12:06:43Z</time>
      </trkpt>
      <trkpt lat="46.15676" lon="6.29356">
        <ele>475.8</ele>
        <time>2021-03-27T12:06:44Z</time>
      </trkpt>
      <trkpt lat="46.15673" lon="6.29366">
        <ele>476.2</ele>
        <time>2021-03-27T12:06:45Z</time>
      </trkpt>
      <trkpt lat="46.15671" lon="6.29377">
        <ele>476.2</ele>
        <time>2021-03-27T12:06:46Z</time>
      </trkpt>
      <trkpt lat="46.15669" lon="6.29388">
        <ele>476.6</ele>
        <time>2021-03-27T12:06:47Z</time>
      </trkpt>
      <trkpt lat="46.15666" lon="6.29399">
        <ele>476.6</ele>
        <time>2021-03-27T12:06:48Z</time>
      </trkpt>
      <trkpt lat="46.15664" lon="6.2941">
        <ele>476.8</ele>
        <time>2021-03-27T12:06:49Z</time>
      </trkpt>
      <trkpt lat="46.15661" lon="6.29421">
        <ele>476.8</ele>
        <time>2021-03-27T12:06:50Z</time>
      </trkpt>
      <trkpt lat="46.15659" lon="6.29432">
        <ele>477</ele>
        <time>2021-03-27T12:06:51Z</time>
      </trkpt>
      <trkpt lat="46.15656" lon="6.29443">
        <ele>477.2</ele>
        <time>2021-03-27T12:06:52Z</time>
      </trkpt>
      <trkpt lat="46.15654" lon="6.29454">
        <ele>477.2</ele>
        <time>2021-03-27T12:06:53Z</time>
      </trkpt>
      <trkpt lat="46.15652" lon="6.29466">
        <ele>477.2</ele>
        <time>2021-03-27T12:06:54Z</time>
      </trkpt>
      <trkpt lat="46.1565" lon="6.29477">
        <ele>477.2</ele>
        <time>2021-03-27T12:06:55Z</time>
      </trkpt>
      <trkpt lat="46.15648" lon="6.29488">
        <ele>477.2</ele>
        <time>2021-03-27T12:06:56Z</time>
      </trkpt>
      <trkpt lat="46.15645" lon="6.295">
        <ele>477.2</ele>
        <time>2021-03-27T12:06:57Z</time>
      </trkpt>
      <trkpt lat="46.15643" lon="6.29511">
        <ele>477.4</ele>
        <time>2021-03-27T12:06:58Z</time>
      </trkpt>
      <trkpt lat="46.1564" lon="6.29522">
        <ele>477.2</ele>
        <time>2021-03-27T12:06:59Z</time>
      </trkpt>
      <trkpt lat="46.15638" lon="6.29534">
        <ele>477.4</ele>
        <time>2021-03-27T12:07:00Z</time>
      </trkpt>
      <trkpt lat="46.15635" lon="6.29545">
        <ele>477.4</ele>
        <time>2021-03-27T12:07:01Z</time>
      </trkpt>
      <trkpt lat="46.15633" lon="6.29557">
        <ele>477.2</ele>
        <time>2021-03-27T12:07:02Z</time>
      </trkpt>
      <trkpt lat="46.1563" lon="6.29569">
        <ele>477.4</ele>
        <time>2021-03-27T12:07:03Z</time>
      </trkpt>
      <trkpt lat="46.15628" lon="6.2958">
        <ele>477.4</ele>
        <time>2021-03-27T12:07:04Z</time>
      </trkpt>
      <trkpt lat="46.15625" lon="6.29592">
        <ele>477.4</ele>
        <time>2021-03-27T12:07:05Z</time>
      </trkpt>
      <trkpt lat="46.15623" lon="6.29603">
        <ele>477.2</ele>
        <time>2021-03-27T12:07:06Z</time>
      </trkpt>
      <trkpt lat="46.15621" lon="6.29614">
        <ele>477.2</ele>
        <time>2021-03-27T12:07:07Z</time>
      </trkpt>
      <trkpt lat="46.15618" lon="6.29625">
        <ele>477</ele>
        <time>2021-03-27T12:07:08Z</time>
      </trkpt>
      <trkpt lat="46.15616" lon="6.29637">
        <ele>477.2</ele>
        <time>2021-03-27T12:07:09Z</time>
      </trkpt>
      <trkpt lat="46.15613" lon="6.29648">
        <ele>477</ele>
        <time>2021-03-27T12:07:10Z</time>
      </trkpt>
      <trkpt lat="46.15611" lon="6.29659">
        <ele>477</ele>
        <time>2021-03-27T12:07:11Z</time>
      </trkpt>
      <trkpt lat="46.15609" lon="6.29671">
        <ele>477</ele>
        <time>2021-03-27T12:07:12Z</time>
      </trkpt>
      <trkpt lat="46.15606" lon="6.29682">
        <ele>476.8</ele>
        <time>2021-03-27T12:07:13Z</time>
      </trkpt>
      <trkpt lat="46.15604" lon="6.29693">
        <ele>476.6</ele>
        <time>2021-03-27T12:07:14Z</time>
      </trkpt>
      <trkpt lat="46.15601" lon="6.29704">
        <ele>476.6</ele>
        <time>2021-03-27T12:07:15Z</time>
      </trkpt>
      <trkpt lat="46.15599" lon="6.29715">
        <ele>476.4</ele>
        <time>2021-03-27T12:07:16Z</time>
      </trkpt>
      <trkpt lat="46.15597" lon="6.29726">
        <ele>476.2</ele>
        <time>2021-03-27T12:07:17Z</time>
      </trkpt>
      <trkpt lat="46.15594" lon="6.29737">
        <ele>476.2</ele>
        <time>2021-03-27T12:07:18Z</time>
      </trkpt>
      <trkpt lat="46.15592" lon="6.29748">
        <ele>475.8</ele>
        <time>2021-03-27T12:07:19Z</time>
      </trkpt>
      <trkpt lat="46.1559" lon="6.29759">
        <ele>475.8</ele>
        <time>2021-03-27T12:07:20Z</time>
      </trkpt>
      <trkpt lat="46.15587" lon="6.29769">
        <ele>475.8</ele>
        <time>2021-03-27T12:07:21Z</time>
      </trkpt>
      <trkpt lat="46.15585" lon="6.2978">
        <ele>475.8</ele>
        <time>2021-03-27T12:07:22Z</time>
      </trkpt>
      <trkpt lat="46.15583" lon="6.29791">
        <ele>475.8</ele>
        <time>2021-03-27T12:07:23Z</time>
      </trkpt>
      <trkpt lat="46.1558" lon="6.29802">
        <ele>475.6</ele>
        <time>2021-03-27T12:07:24Z</time>
      </trkpt>
      <trkpt lat="46.15577" lon="6.29813">
        <ele>475.6</ele>
        <time>2021-03-27T12:07:25Z</time>
      </trkpt>
      <trkpt lat="46.15574" lon="6.29824">
        <ele>475.8</ele>
        <time>2021-03-27T12:07:26Z</time>
      </trkpt>
      <trkpt lat="46.15571" lon="6.29835">
        <ele>475.6</ele>
        <time>2021-03-27T12:07:27Z</time>
      </trkpt>
      <trkpt lat="46.15569" lon="6.29847">
        <ele>475.6</ele>
        <time>2021-03-27T12:07:28Z</time>
      </trkpt>
      <trkpt lat="46.15567" lon="6.29859">
        <ele>475.6</ele>
        <time>2021-03-27T12:07:29Z</time>
      </trkpt>
      <trkpt lat="46.15565" lon="6.29871">
        <ele>475.6</ele>
        <time>2021-03-27T12:07:30Z</time>
      </trkpt>
      <trkpt lat="46.15563" lon="6.29883">
        <ele>475.8</ele>
        <time>2021-03-27T12:07:31Z</time>
      </trkpt>
      <trkpt lat="46.15561" lon="6.29895">
        <ele>475.6</ele>
        <time>2021-03-27T12:07:32Z</time>
      </trkpt>
      <trkpt lat="46.15558" lon="6.29907">
        <ele>475.8</ele>
        <time>2021-03-27T12:07:33Z</time>
      </trkpt>
      <trkpt lat="46.15555" lon="6.29919">
        <ele>475.6</ele>
        <time>2021-03-27T12:07:34Z</time>
      </trkpt>
      <trkpt lat="46.15553" lon="6.29931">
        <ele>475.6</ele>
        <time>2021-03-27T12:07:35Z</time>
      </trkpt>
      <trkpt lat="46.1555" lon="6.29943">
        <ele>475.4</ele>
        <time>2021-03-27T12:07:36Z</time>
      </trkpt>
      <trkpt lat="46.15547" lon="6.29955">
        <ele>475.6</ele>
        <time>2021-03-27T12:07:37Z</time>
      </trkpt>
      <trkpt lat="46.15544" lon="6.29967">
        <ele>475.6</ele>
        <time>2021-03-27T12:07:38Z</time>
      </trkpt>
      <trkpt lat="46.15542" lon="6.29978">
        <ele>475.4</ele>
        <time>2021-03-27T12:07:39Z</time>
      </trkpt>
      <trkpt lat="46.1554" lon="6.2999">
        <ele>475.4</ele>
        <time>2021-03-27T12:07:40Z</time>
      </trkpt>
      <trkpt lat="46.15537" lon="6.30001">
        <ele>475.2</ele>
        <time>2021-03-27T12:07:41Z</time>
      </trkpt>
      <trkpt lat="46.15535" lon="6.30012">
        <ele>475.4</ele>
        <time>2021-03-27T12:07:42Z</time>
      </trkpt>
      <trkpt lat="46.15533" lon="6.30024">
        <ele>475.4</ele>
        <time>2021-03-27T12:07:43Z</time>
      </trkpt>
      <trkpt lat="46.1553" lon="6.30035">
        <ele>475.4</ele>
        <time>2021-03-27T12:07:44Z</time>
      </trkpt>
      <trkpt lat="46.15528" lon="6.30046">
        <ele>475.4</ele>
        <time>2021-03-27T12:07:45Z</time>
      </trkpt>
      <trkpt lat="46.15525" lon="6.30057">
        <ele>475.4</ele>
        <time>2021-03-27T12:07:46Z</time>
      </trkpt>
      <trkpt lat="46.15523" lon="6.30067">
        <ele>475.4</ele>
        <time>2021-03-27T12:07:47Z</time>
      </trkpt>
      <trkpt lat="46.15521" lon="6.30078">
        <ele>475.4</ele>
        <time>2021-03-27T12:07:48Z</time>
      </trkpt>
      <trkpt lat="46.15518" lon="6.30089">
        <ele>475.6</ele>
        <time>2021-03-27T12:07:49Z</time>
      </trkpt>
      <trkpt lat="46.15516" lon="6.301">
        <ele>475.6</ele>
        <time>2021-03-27T12:07:50Z</time>
      </trkpt>
      <trkpt lat="46.15514" lon="6.3011">
        <ele>475.6</ele>
        <time>2021-03-27T12:07:51Z</time>
      </trkpt>
      <trkpt lat="46.15511" lon="6.30121">
        <ele>475.6</ele>
        <time>2021-03-27T12:07:52Z</time>
      </trkpt>
      <trkpt lat="46.15509" lon="6.30131">
        <ele>475.8</ele>
        <time>2021-03-27T12:07:53Z</time>
      </trkpt>
      <trkpt lat="46.15506" lon="6.30141">
        <ele>476</ele>
        <time>2021-03-27T12:07:54Z</time>
      </trkpt>
      <trkpt lat="46.15504" lon="6.30152">
        <ele>476</ele>
        <time>2021-03-27T12:07:55Z</time>
      </trkpt>
      <trkpt lat="46.15502" lon="6.30163">
        <ele>476</ele>
        <time>2021-03-27T12:07:56Z</time>
      </trkpt>
      <trkpt lat="46.155" lon="6.30173">
        <ele>476</ele>
        <time>2021-03-27T12:07:57Z</time>
      </trkpt>
      <trkpt lat="46.15498" lon="6.30183">
        <ele>476.2</ele>
        <time>2021-03-27T12:07:58Z</time>
      </trkpt>
      <trkpt lat="46.15496" lon="6.30194">
        <ele>476.2</ele>
        <time>2021-03-27T12:07:59Z</time>
      </trkpt>
      <trkpt lat="46.15494" lon="6.30205">
        <ele>476.2</ele>
        <time>2021-03-27T12:08:00Z</time>
      </trkpt>
      <trkpt lat="46.15491" lon="6.30215">
        <ele>476.4</ele>
        <time>2021-03-27T12:08:01Z</time>
      </trkpt>
      <trkpt lat="46.15489" lon="6.30226">
        <ele>476.4</ele>
        <time>2021-03-27T12:08:02Z</time>
      </trkpt>
      <trkpt lat="46.15486" lon="6.30237">
        <ele>476.6</ele>
        <time>2021-03-27T12:08:03Z</time>
      </trkpt>
      <trkpt lat="46.15484" lon="6.30248">
        <ele>476.4</ele>
        <time>2021-03-27T12:08:04Z</time>
      </trkpt>
      <trkpt lat="46.15482" lon="6.30259">
        <ele>476.6</ele>
        <time>2021-03-27T12:08:05Z</time>
      </trkpt>
      <trkpt lat="46.15479" lon="6.3027">
        <ele>476.6</ele>
        <time>2021-03-27T12:08:06Z</time>
      </trkpt>
      <trkpt lat="46.15477" lon="6.30282">
        <ele>476.6</ele>
        <time>2021-03-27T12:08:07Z</time>
      </trkpt>
      <trkpt lat="46.15475" lon="6.30294">
        <ele>476.8</ele>
        <time>2021-03-27T12:08:08Z</time>
      </trkpt>
      <trkpt lat="46.15472" lon="6.30306">
        <ele>476.6</ele>
        <time>2021-03-27T12:08:09Z</time>
      </trkpt>
      <trkpt lat="46.15469" lon="6.30318">
        <ele>476.8</ele>
        <time>2021-03-27T12:08:10Z</time>
      </trkpt>
      <trkpt lat="46.15466" lon="6.3033">
        <ele>476.8</ele>
        <time>2021-03-27T12:08:11Z</time>
      </trkpt>
      <trkpt lat="46.15463" lon="6.30342">
        <ele>477</ele>
        <time>2021-03-27T12:08:12Z</time>
      </trkpt>
      <trkpt lat="46.15459" lon="6.30354">
        <ele>477</ele>
        <time>2021-03-27T12:08:13Z</time>
      </trkpt>
      <trkpt lat="46.15457" lon="6.30366">
        <ele>477</ele>
        <time>2021-03-27T12:08:14Z</time>
      </trkpt>
      <trkpt lat="46.15454" lon="6.30377">
        <ele>477</ele>
        <time>2021-03-27T12:08:15Z</time>
      </trkpt>
      <trkpt lat="46.1545" lon="6.30388">
        <ele>477</ele>
        <time>2021-03-27T12:08:16Z</time>
      </trkpt>
      <trkpt lat="46.15448" lon="6.304">
        <ele>477</ele>
        <time>2021-03-27T12:08:17Z</time>
      </trkpt>
      <trkpt lat="46.15445" lon="6.30411">
        <ele>477</ele>
        <time>2021-03-27T12:08:18Z</time>
      </trkpt>
      <trkpt lat="46.15442" lon="6.30422">
        <ele>477.2</ele>
        <time>2021-03-27T12:08:19Z</time>
      </trkpt>
      <trkpt lat="46.15439" lon="6.30433">
        <ele>477</ele>
        <time>2021-03-27T12:08:20Z</time>
      </trkpt>
      <trkpt lat="46.15436" lon="6.30444">
        <ele>477.2</ele>
        <time>2021-03-27T12:08:21Z</time>
      </trkpt>
      <trkpt lat="46.15434" lon="6.30456">
        <ele>477.2</ele>
        <time>2021-03-27T12:08:22Z</time>
      </trkpt>
      <trkpt lat="46.15432" lon="6.30467">
        <ele>477.2</ele>
        <time>2021-03-27T12:08:23Z</time>
      </trkpt>
      <trkpt lat="46.1543" lon="6.30479">
        <ele>477.2</ele>
        <time>2021-03-27T12:08:24Z</time>
      </trkpt>
      <trkpt lat="46.15429" lon="6.30491">
        <ele>477</ele>
        <time>2021-03-27T12:08:25Z</time>
      </trkpt>
      <trkpt lat="46.15428" lon="6.30503">
        <ele>477</ele>
        <time>2021-03-27T12:08:26Z</time>
      </trkpt>
      <trkpt lat="46.15427" lon="6.30514">
        <ele>477.2</ele>
        <time>2021-03-27T12:08:27Z</time>
      </trkpt>
      <trkpt lat="46.15426" lon="6.30525">
        <ele>477.4</ele>
        <time>2021-03-27T12:08:28Z</time>
      </trkpt>
      <trkpt lat="46.15424" lon="6.30536">
        <ele>477.6</ele>
        <time>2021-03-27T12:08:29Z</time>
      </trkpt>
      <trkpt lat="46.15421" lon="6.30547">
        <ele>477.6</ele>
        <time>2021-03-27T12:08:30Z</time>
      </trkpt>
      <trkpt lat="46.15419" lon="6.30558">
        <ele>477.6</ele>
        <time>2021-03-27T12:08:31Z</time>
      </trkpt>
      <trkpt lat="46.15416" lon="6.30568">
        <ele>477.8</ele>
        <time>2021-03-27T12:08:32Z</time>
      </trkpt>
      <trkpt lat="46.15413" lon="6.30578">
        <ele>477.8</ele>
        <time>2021-03-27T12:08:33Z</time>
      </trkpt>
      <trkpt lat="46.1541" lon="6.30589">
        <ele>478</ele>
        <time>2021-03-27T12:08:34Z</time>
      </trkpt>
      <trkpt lat="46.15407" lon="6.30599">
        <ele>478</ele>
        <time>2021-03-27T12:08:35Z</time>
      </trkpt>
      <trkpt lat="46.15405" lon="6.3061">
        <ele>478</ele>
        <time>2021-03-27T12:08:36Z</time>
      </trkpt>
      <trkpt lat="46.15402" lon="6.3062">
        <ele>478.2</ele>
        <time>2021-03-27T12:08:37Z</time>
      </trkpt>
      <trkpt lat="46.154" lon="6.3063">
        <ele>478.2</ele>
        <time>2021-03-27T12:08:38Z</time>
      </trkpt>
      <trkpt lat="46.15397" lon="6.30641">
        <ele>478.4</ele>
        <time>2021-03-27T12:08:39Z</time>
      </trkpt>
      <trkpt lat="46.15394" lon="6.30651">
        <ele>478.4</ele>
        <time>2021-03-27T12:08:40Z</time>
      </trkpt>
      <trkpt lat="46.1539" lon="6.3066">
        <ele>478.6</ele>
        <time>2021-03-27T12:08:41Z</time>
      </trkpt>
      <trkpt lat="46.15386" lon="6.30669">
        <ele>478.6</ele>
        <time>2021-03-27T12:08:42Z</time>
      </trkpt>
      <trkpt lat="46.15381" lon="6.30678">
        <ele>478.6</ele>
        <time>2021-03-27T12:08:43Z</time>
      </trkpt>
      <trkpt lat="46.15376" lon="6.30686">
        <ele>478.6</ele>
        <time>2021-03-27T12:08:44Z</time>
      </trkpt>
      <trkpt lat="46.1537" lon="6.30693">
        <ele>478.6</ele>
        <time>2021-03-27T12:08:45Z</time>
      </trkpt>
      <trkpt lat="46.15364" lon="6.30701">
        <ele>478.6</ele>
        <time>2021-03-27T12:08:46Z</time>
      </trkpt>
      <trkpt lat="46.15358" lon="6.30708">
        <ele>478.6</ele>
        <time>2021-03-27T12:08:47Z</time>
      </trkpt>
      <trkpt lat="46.15352" lon="6.30714">
        <ele>478.4</ele>
        <time>2021-03-27T12:08:48Z</time>
      </trkpt>
      <trkpt lat="46.15347" lon="6.30718">
        <ele>478.6</ele>
        <time>2021-03-27T12:08:49Z</time>
      </trkpt>
      <trkpt lat="46.1534" lon="6.30719">
        <ele>478.4</ele>
        <time>2021-03-27T12:08:50Z</time>
      </trkpt>
      <trkpt lat="46.15333" lon="6.30718">
        <ele>478.4</ele>
        <time>2021-03-27T12:08:51Z</time>
      </trkpt>
      <trkpt lat="46.15326" lon="6.30715">
        <ele>478.2</ele>
        <time>2021-03-27T12:08:52Z</time>
      </trkpt>
      <trkpt lat="46.15318" lon="6.30712">
        <ele>478.2</ele>
        <time>2021-03-27T12:08:53Z</time>
      </trkpt>
      <trkpt lat="46.15311" lon="6.3071">
        <ele>477.6</ele>
        <time>2021-03-27T12:08:54Z</time>
      </trkpt>
      <trkpt lat="46.15303" lon="6.30709">
        <ele>477.4</ele>
        <time>2021-03-27T12:08:55Z</time>
      </trkpt>
      <trkpt lat="46.15296" lon="6.3071">
        <ele>477</ele>
        <time>2021-03-27T12:08:56Z</time>
      </trkpt>
      <trkpt lat="46.15288" lon="6.30712">
        <ele>476.8</ele>
        <time>2021-03-27T12:08:57Z</time>
      </trkpt>
      <trkpt lat="46.15281" lon="6.30715">
        <ele>476.4</ele>
        <time>2021-03-27T12:08:58Z</time>
      </trkpt>
      <trkpt lat="46.15273" lon="6.30717">
        <ele>476.4</ele>
        <time>2021-03-27T12:08:59Z</time>
      </trkpt>
      <trkpt lat="46.15266" lon="6.30719">
        <ele>476.2</ele>
        <time>2021-03-27T12:09:00Z</time>
      </trkpt>
      <trkpt lat="46.15258" lon="6.30722">
        <ele>476</ele>
        <time>2021-03-27T12:09:01Z</time>
      </trkpt>
      <trkpt lat="46.1525" lon="6.30724">
        <ele>475.8</ele>
        <time>2021-03-27T12:09:02Z</time>
      </trkpt>
      <trkpt lat="46.15242" lon="6.30727">
        <ele>475.2</ele>
        <time>2021-03-27T12:09:03Z</time>
      </trkpt>
      <trkpt lat="46.15234" lon="6.30729">
        <ele>474.8</ele>
        <time>2021-03-27T12:09:04Z</time>
      </trkpt>
      <trkpt lat="46.15226" lon="6.30731">
        <ele>474.4</ele>
        <time>2021-03-27T12:09:05Z</time>
      </trkpt>
      <trkpt lat="46.15218" lon="6.30734">
        <ele>474</ele>
        <time>2021-03-27T12:09:06Z</time>
      </trkpt>
      <trkpt lat="46.1521" lon="6.30736">
        <ele>474</ele>
        <time>2021-03-27T12:09:07Z</time>
      </trkpt>
      <trkpt lat="46.15201" lon="6.30737">
        <ele>473.8</ele>
        <time>2021-03-27T12:09:08Z</time>
      </trkpt>
      <trkpt lat="46.15193" lon="6.30736">
        <ele>473.8</ele>
        <time>2021-03-27T12:09:09Z</time>
      </trkpt>
      <trkpt lat="46.15185" lon="6.30732">
        <ele>473.6</ele>
        <time>2021-03-27T12:09:10Z</time>
      </trkpt>
      <trkpt lat="46.15177" lon="6.30727">
        <ele>473.4</ele>
        <time>2021-03-27T12:09:11Z</time>
      </trkpt>
      <trkpt lat="46.1517" lon="6.3072">
        <ele>473</ele>
        <time>2021-03-27T12:09:12Z</time>
      </trkpt>
      <trkpt lat="46.15163" lon="6.30712">
        <ele>472.4</ele>
        <time>2021-03-27T12:09:13Z</time>
      </trkpt>
      <trkpt lat="46.15156" lon="6.30704">
        <ele>471.8</ele>
        <time>2021-03-27T12:09:14Z</time>
      </trkpt>
      <trkpt lat="46.15149" lon="6.30696">
        <ele>471.6</ele>
        <time>2021-03-27T12:09:15Z</time>
      </trkpt>
      <trkpt lat="46.15141" lon="6.30688">
        <ele>471.2</ele>
        <time>2021-03-27T12:09:16Z</time>
      </trkpt>
      <trkpt lat="46.15133" lon="6.30682">
        <ele>471.2</ele>
        <time>2021-03-27T12:09:17Z</time>
      </trkpt>
      <trkpt lat="46.15124" lon="6.30678">
        <ele>470.6</ele>
        <time>2021-03-27T12:09:18Z</time>
      </trkpt>
      <trkpt lat="46.15114" lon="6.30676">
        <ele>470.4</ele>
        <time>2021-03-27T12:09:19Z</time>
      </trkpt>
      <trkpt lat="46.15104" lon="6.30676">
        <ele>470.2</ele>
        <time>2021-03-27T12:09:20Z</time>
      </trkpt>
      <trkpt lat="46.15095" lon="6.30679">
        <ele>470.2</ele>
        <time>2021-03-27T12:09:21Z</time>
      </trkpt>
      <trkpt lat="46.15085" lon="6.30682">
        <ele>470</ele>
        <time>2021-03-27T12:09:22Z</time>
      </trkpt>
      <trkpt lat="46.15075" lon="6.30686">
        <ele>469.6</ele>
        <time>2021-03-27T12:09:23Z</time>
      </trkpt>
      <trkpt lat="46.15066" lon="6.30689">
        <ele>468.8</ele>
        <time>2021-03-27T12:09:24Z</time>
      </trkpt>
      <trkpt lat="46.15057" lon="6.30693">
        <ele>468</ele>
        <time>2021-03-27T12:09:25Z</time>
      </trkpt>
      <trkpt lat="46.15048" lon="6.30696">
        <ele>466.8</ele>
        <time>2021-03-27T12:09:26Z</time>
      </trkpt>
      <trkpt lat="46.15039" lon="6.30698">
        <ele>465.2</ele>
        <time>2021-03-27T12:09:27Z</time>
      </trkpt>
      <trkpt lat="46.1503" lon="6.307">
        <ele>464</ele>
        <time>2021-03-27T12:09:28Z</time>
      </trkpt>
      <trkpt lat="46.15021" lon="6.307">
        <ele>463.4</ele>
        <time>2021-03-27T12:09:29Z</time>
      </trkpt>
      <trkpt lat="46.15012" lon="6.30699">
        <ele>463.4</ele>
        <time>2021-03-27T12:09:30Z</time>
      </trkpt>
      <trkpt lat="46.15003" lon="6.30696">
        <ele>462.6</ele>
        <time>2021-03-27T12:09:31Z</time>
      </trkpt>
      <trkpt lat="46.14994" lon="6.30693">
        <ele>462.2</ele>
        <time>2021-03-27T12:09:32Z</time>
      </trkpt>
      <trkpt lat="46.14986" lon="6.30688">
        <ele>462</ele>
        <time>2021-03-27T12:09:33Z</time>
      </trkpt>
      <trkpt lat="46.14978" lon="6.30682">
        <ele>461.2</ele>
        <time>2021-03-27T12:09:34Z</time>
      </trkpt>
      <trkpt lat="46.1497" lon="6.30677">
        <ele>460.6</ele>
        <time>2021-03-27T12:09:35Z</time>
      </trkpt>
      <trkpt lat="46.14963" lon="6.30671">
        <ele>459.8</ele>
        <time>2021-03-27T12:09:36Z</time>
      </trkpt>
      <trkpt lat="46.14956" lon="6.30665">
        <ele>459.2</ele>
        <time>2021-03-27T12:09:37Z</time>
      </trkpt>
      <trkpt lat="46.14949" lon="6.30661">
        <ele>458.6</ele>
        <time>2021-03-27T12:09:38Z</time>
      </trkpt>
      <trkpt lat="46.1494" lon="6.30656">
        <ele>458.4</ele>
        <time>2021-03-27T12:09:39Z</time>
      </trkpt>
      <trkpt lat="46.14934" lon="6.30649">
        <ele>458.2</ele>
        <time>2021-03-27T12:09:40Z</time>
      </trkpt>
      <trkpt lat="46.14927" lon="6.30642">
        <ele>457.8</ele>
        <time>2021-03-27T12:09:41Z</time>
      </trkpt>
      <trkpt lat="46.1492" lon="6.30636">
        <ele>457.8</ele>
        <time>2021-03-27T12:09:42Z</time>
      </trkpt>
      <trkpt lat="46.14914" lon="6.3063">
        <ele>457.6</ele>
        <time>2021-03-27T12:09:43Z</time>
      </trkpt>
      <trkpt lat="46.14908" lon="6.30624">
        <ele>457.6</ele>
        <time>2021-03-27T12:09:44Z</time>
      </trkpt>
      <trkpt lat="46.14902" lon="6.30618">
        <ele>457.6</ele>
        <time>2021-03-27T12:09:45Z</time>
      </trkpt>
      <trkpt lat="46.14896" lon="6.30613">
        <ele>457.6</ele>
        <time>2021-03-27T12:09:46Z</time>
      </trkpt>
      <trkpt lat="46.14889" lon="6.30608">
        <ele>457.4</ele>
        <time>2021-03-27T12:09:47Z</time>
      </trkpt>
      <trkpt lat="46.14883" lon="6.30604">
        <ele>457.6</ele>
        <time>2021-03-27T12:09:48Z</time>
      </trkpt>
      <trkpt lat="46.14876" lon="6.30599">
        <ele>457.6</ele>
        <time>2021-03-27T12:09:49Z</time>
      </trkpt>
      <trkpt lat="46.14869" lon="6.30595">
        <ele>457.4</ele>
        <time>2021-03-27T12:09:50Z</time>
      </trkpt>
      <trkpt lat="46.14863" lon="6.3059">
        <ele>457.4</ele>
        <time>2021-03-27T12:09:51Z</time>
      </trkpt>
      <trkpt lat="46.14856" lon="6.30586">
        <ele>457.4</ele>
        <time>2021-03-27T12:09:52Z</time>
      </trkpt>
      <trkpt lat="46.14849" lon="6.30583">
        <ele>457.4</ele>
        <time>2021-03-27T12:09:53Z</time>
      </trkpt>
      <trkpt lat="46.14842" lon="6.30579">
        <ele>457.4</ele>
        <time>2021-03-27T12:09:54Z</time>
      </trkpt>
      <trkpt lat="46.14835" lon="6.30575">
        <ele>457.4</ele>
        <time>2021-03-27T12:09:55Z</time>
      </trkpt>
      <trkpt lat="46.14828" lon="6.30572">
        <ele>457.4</ele>
        <time>2021-03-27T12:09:56Z</time>
      </trkpt>
      <trkpt lat="46.14821" lon="6.30568">
        <ele>457.6</ele>
        <time>2021-03-27T12:09:57Z</time>
      </trkpt>
      <trkpt lat="46.14815" lon="6.30564">
        <ele>457.6</ele>
        <time>2021-03-27T12:09:58Z</time>
      </trkpt>
      <trkpt lat="46.14808" lon="6.30561">
        <ele>457.8</ele>
        <time>2021-03-27T12:09:59Z</time>
      </trkpt>
      <trkpt lat="46.14801" lon="6.30557">
        <ele>457.8</ele>
        <time>2021-03-27T12:10:00Z</time>
      </trkpt>
      <trkpt lat="46.14795" lon="6.30554">
        <ele>458</ele>
        <time>2021-03-27T12:10:01Z</time>
      </trkpt>
      <trkpt lat="46.14789" lon="6.30551">
        <ele>458.2</ele>
        <time>2021-03-27T12:10:02Z</time>
      </trkpt>
      <trkpt lat="46.14782" lon="6.30548">
        <ele>458.2</ele>
        <time>2021-03-27T12:10:03Z</time>
      </trkpt>
      <trkpt lat="46.14775" lon="6.30546">
        <ele>458.2</ele>
        <time>2021-03-27T12:10:04Z</time>
      </trkpt>
      <trkpt lat="46.14768" lon="6.30544">
        <ele>458.4</ele>
        <time>2021-03-27T12:10:05Z</time>
      </trkpt>
      <trkpt lat="46.14762" lon="6.30542">
        <ele>458.6</ele>
        <time>2021-03-27T12:10:06Z</time>
      </trkpt>
      <trkpt lat="46.14754" lon="6.3054">
        <ele>458.8</ele>
        <time>2021-03-27T12:10:07Z</time>
      </trkpt>
      <trkpt lat="46.14747" lon="6.30538">
        <ele>458.6</ele>
        <time>2021-03-27T12:10:08Z</time>
      </trkpt>
      <trkpt lat="46.1474" lon="6.30536">
        <ele>458.8</ele>
        <time>2021-03-27T12:10:09Z</time>
      </trkpt>
      <trkpt lat="46.14732" lon="6.30534">
        <ele>459</ele>
        <time>2021-03-27T12:10:10Z</time>
      </trkpt>
      <trkpt lat="46.14724" lon="6.30532">
        <ele>459</ele>
        <time>2021-03-27T12:10:11Z</time>
      </trkpt>
      <trkpt lat="46.14716" lon="6.3053">
        <ele>459</ele>
        <time>2021-03-27T12:10:12Z</time>
      </trkpt>
      <trkpt lat="46.14708" lon="6.30527">
        <ele>459</ele>
        <time>2021-03-27T12:10:13Z</time>
      </trkpt>
      <trkpt lat="46.147" lon="6.30525">
        <ele>459.2</ele>
        <time>2021-03-27T12:10:14Z</time>
      </trkpt>
      <trkpt lat="46.14691" lon="6.30522">
        <ele>459.2</ele>
        <time>2021-03-27T12:10:15Z</time>
      </trkpt>
      <trkpt lat="46.14682" lon="6.30519">
        <ele>459.2</ele>
        <time>2021-03-27T12:10:16Z</time>
      </trkpt>
      <trkpt lat="46.14673" lon="6.30516">
        <ele>459</ele>
        <time>2021-03-27T12:10:17Z</time>
      </trkpt>
      <trkpt lat="46.14664" lon="6.30513">
        <ele>459</ele>
        <time>2021-03-27T12:10:18Z</time>
      </trkpt>
      <trkpt lat="46.14655" lon="6.3051">
        <ele>459.2</ele>
        <time>2021-03-27T12:10:19Z</time>
      </trkpt>
      <trkpt lat="46.14646" lon="6.30507">
        <ele>458.6</ele>
        <time>2021-03-27T12:10:20Z</time>
      </trkpt>
      <trkpt lat="46.14636" lon="6.30504">
        <ele>458.2</ele>
        <time>2021-03-27T12:10:21Z</time>
      </trkpt>
      <trkpt lat="46.14627" lon="6.30501">
        <ele>458.2</ele>
        <time>2021-03-27T12:10:22Z</time>
      </trkpt>
      <trkpt lat="46.14618" lon="6.30499">
        <ele>458</ele>
        <time>2021-03-27T12:10:23Z</time>
      </trkpt>
      <trkpt lat="46.14608" lon="6.305">
        <ele>457.4</ele>
        <time>2021-03-27T12:10:24Z</time>
      </trkpt>
      <trkpt lat="46.14599" lon="6.30504">
        <ele>457.2</ele>
        <time>2021-03-27T12:10:25Z</time>
      </trkpt>
      <trkpt lat="46.14591" lon="6.30511">
        <ele>456.8</ele>
        <time>2021-03-27T12:10:26Z</time>
      </trkpt>
      <trkpt lat="46.14583" lon="6.30521">
        <ele>455.8</ele>
        <time>2021-03-27T12:10:27Z</time>
      </trkpt>
      <trkpt lat="46.14576" lon="6.30531">
        <ele>454.8</ele>
        <time>2021-03-27T12:10:28Z</time>
      </trkpt>
      <trkpt lat="46.14569" lon="6.30542">
        <ele>454.2</ele>
        <time>2021-03-27T12:10:29Z</time>
      </trkpt>
      <trkpt lat="46.14562" lon="6.30553">
        <ele>453.8</ele>
        <time>2021-03-27T12:10:30Z</time>
      </trkpt>
      <trkpt lat="46.14555" lon="6.30563">
        <ele>453.4</ele>
        <time>2021-03-27T12:10:31Z</time>
      </trkpt>
      <trkpt lat="46.14547" lon="6.30572">
        <ele>452.6</ele>
        <time>2021-03-27T12:10:32Z</time>
      </trkpt>
      <trkpt lat="46.14539" lon="6.30581">
        <ele>451.8</ele>
        <time>2021-03-27T12:10:33Z</time>
      </trkpt>
      <trkpt lat="46.1453" lon="6.30589">
        <ele>451</ele>
        <time>2021-03-27T12:10:34Z</time>
      </trkpt>
      <trkpt lat="46.14522" lon="6.30595">
        <ele>450.4</ele>
        <time>2021-03-27T12:10:35Z</time>
      </trkpt>
      <trkpt lat="46.14512" lon="6.30599">
        <ele>450</ele>
        <time>2021-03-27T12:10:36Z</time>
      </trkpt>
      <trkpt lat="46.14503" lon="6.30601">
        <ele>450</ele>
        <time>2021-03-27T12:10:37Z</time>
      </trkpt>
      <trkpt lat="46.14494" lon="6.306">
        <ele>449.6</ele>
        <time>2021-03-27T12:10:38Z</time>
      </trkpt>
      <trkpt lat="46.14486" lon="6.30597">
        <ele>449.6</ele>
        <time>2021-03-27T12:10:39Z</time>
      </trkpt>
      <trkpt lat="46.14478" lon="6.30592">
        <ele>449.6</ele>
        <time>2021-03-27T12:10:40Z</time>
      </trkpt>
      <trkpt lat="46.14471" lon="6.30587">
        <ele>449.6</ele>
        <time>2021-03-27T12:10:41Z</time>
      </trkpt>
      <trkpt lat="46.14465" lon="6.30581">
        <ele>449.6</ele>
        <time>2021-03-27T12:10:42Z</time>
      </trkpt>
      <trkpt lat="46.1446" lon="6.30575">
        <ele>449.6</ele>
        <time>2021-03-27T12:10:43Z</time>
      </trkpt>
      <trkpt lat="46.14455" lon="6.3057">
        <ele>449.6</ele>
        <time>2021-03-27T12:10:44Z</time>
      </trkpt>
      <trkpt lat="46.1445" lon="6.30566">
        <ele>449.4</ele>
        <time>2021-03-27T12:10:45Z</time>
      </trkpt>
      <trkpt lat="46.14446" lon="6.30561">
        <ele>449.6</ele>
        <time>2021-03-27T12:10:46Z</time>
      </trkpt>
      <trkpt lat="46.14442" lon="6.30557">
        <ele>449.6</ele>
        <time>2021-03-27T12:10:47Z</time>
      </trkpt>
      <trkpt lat="46.14438" lon="6.30553">
        <ele>450</ele>
        <time>2021-03-27T12:10:48Z</time>
      </trkpt>
      <trkpt lat="46.14433" lon="6.30549">
        <ele>450.2</ele>
        <time>2021-03-27T12:10:49Z</time>
      </trkpt>
      <trkpt lat="46.14429" lon="6.30546">
        <ele>450.8</ele>
        <time>2021-03-27T12:10:50Z</time>
      </trkpt>
      <trkpt lat="46.14425" lon="6.30543">
        <ele>451.6</ele>
        <time>2021-03-27T12:10:51Z</time>
      </trkpt>
      <trkpt lat="46.1442" lon="6.3054">
        <ele>452.4</ele>
        <time>2021-03-27T12:10:52Z</time>
      </trkpt>
      <trkpt lat="46.14416" lon="6.30537">
        <ele>453.4</ele>
        <time>2021-03-27T12:10:53Z</time>
      </trkpt>
      <trkpt lat="46.14411" lon="6.30536">
        <ele>453.8</ele>
        <time>2021-03-27T12:10:54Z</time>
      </trkpt>
      <trkpt lat="46.14406" lon="6.30535">
        <ele>454</ele>
        <time>2021-03-27T12:10:55Z</time>
      </trkpt>
      <trkpt lat="46.14402" lon="6.30535">
        <ele>454.6</ele>
        <time>2021-03-27T12:10:56Z</time>
      </trkpt>
      <trkpt lat="46.14397" lon="6.30536">
        <ele>454.8</ele>
        <time>2021-03-27T12:10:57Z</time>
      </trkpt>
      <trkpt lat="46.14393" lon="6.30539">
        <ele>455.2</ele>
        <time>2021-03-27T12:10:58Z</time>
      </trkpt>
      <trkpt lat="46.14388" lon="6.30542">
        <ele>455.6</ele>
        <time>2021-03-27T12:10:59Z</time>
      </trkpt>
      <trkpt lat="46.14383" lon="6.30546">
        <ele>456</ele>
        <time>2021-03-27T12:11:00Z</time>
      </trkpt>
      <trkpt lat="46.14379" lon="6.3055">
        <ele>456</ele>
        <time>2021-03-27T12:11:01Z</time>
      </trkpt>
      <trkpt lat="46.14374" lon="6.30555">
        <ele>456.2</ele>
        <time>2021-03-27T12:11:02Z</time>
      </trkpt>
      <trkpt lat="46.14369" lon="6.3056">
        <ele>456.4</ele>
        <time>2021-03-27T12:11:03Z</time>
      </trkpt>
      <trkpt lat="46.14364" lon="6.30564">
        <ele>456.8</ele>
        <time>2021-03-27T12:11:04Z</time>
      </trkpt>
      <trkpt lat="46.14359" lon="6.30568">
        <ele>456.8</ele>
        <time>2021-03-27T12:11:05Z</time>
      </trkpt>
      <trkpt lat="46.14354" lon="6.30573">
        <ele>457.4</ele>
        <time>2021-03-27T12:11:06Z</time>
      </trkpt>
      <trkpt lat="46.14349" lon="6.30577">
        <ele>457.6</ele>
        <time>2021-03-27T12:11:07Z</time>
      </trkpt>
      <trkpt lat="46.14344" lon="6.30582">
        <ele>458</ele>
        <time>2021-03-27T12:11:08Z</time>
      </trkpt>
      <trkpt lat="46.14339" lon="6.30586">
        <ele>458</ele>
        <time>2021-03-27T12:11:09Z</time>
      </trkpt>
      <trkpt lat="46.14334" lon="6.3059">
        <ele>458.2</ele>
        <time>2021-03-27T12:11:10Z</time>
      </trkpt>
      <trkpt lat="46.14328" lon="6.30594">
        <ele>458.2</ele>
        <time>2021-03-27T12:11:11Z</time>
      </trkpt>
      <trkpt lat="46.14323" lon="6.30598">
        <ele>458.4</ele>
        <time>2021-03-27T12:11:12Z</time>
      </trkpt>
      <trkpt lat="46.14319" lon="6.30603">
        <ele>458.6</ele>
        <time>2021-03-27T12:11:13Z</time>
      </trkpt>
      <trkpt lat="46.14314" lon="6.30607">
        <ele>458.6</ele>
        <time>2021-03-27T12:11:14Z</time>
      </trkpt>
      <trkpt lat="46.1431" lon="6.30612">
        <ele>458.6</ele>
        <time>2021-03-27T12:11:15Z</time>
      </trkpt>
      <trkpt lat="46.14305" lon="6.30617">
        <ele>458.6</ele>
        <time>2021-03-27T12:11:16Z</time>
      </trkpt>
      <trkpt lat="46.14301" lon="6.30622">
        <ele>458.8</ele>
        <time>2021-03-27T12:11:17Z</time>
      </trkpt>
      <trkpt lat="46.14297" lon="6.30626">
        <ele>458.8</ele>
        <time>2021-03-27T12:11:18Z</time>
      </trkpt>
      <trkpt lat="46.14292" lon="6.30631">
        <ele>459</ele>
        <time>2021-03-27T12:11:19Z</time>
      </trkpt>
      <trkpt lat="46.14288" lon="6.30636">
        <ele>458.8</ele>
        <time>2021-03-27T12:11:20Z</time>
      </trkpt>
      <trkpt lat="46.14284" lon="6.30642">
        <ele>459</ele>
        <time>2021-03-27T12:11:21Z</time>
      </trkpt>
      <trkpt lat="46.1428" lon="6.30647">
        <ele>459</ele>
        <time>2021-03-27T12:11:22Z</time>
      </trkpt>
      <trkpt lat="46.14276" lon="6.30652">
        <ele>459</ele>
        <time>2021-03-27T12:11:23Z</time>
      </trkpt>
      <trkpt lat="46.14272" lon="6.30657">
        <ele>459</ele>
        <time>2021-03-27T12:11:24Z</time>
      </trkpt>
      <trkpt lat="46.14268" lon="6.30662">
        <ele>459</ele>
        <time>2021-03-27T12:11:25Z</time>
      </trkpt>
      <trkpt lat="46.14264" lon="6.30667">
        <ele>459.2</ele>
        <time>2021-03-27T12:11:26Z</time>
      </trkpt>
      <trkpt lat="46.1426" lon="6.30672">
        <ele>459.2</ele>
        <time>2021-03-27T12:11:27Z</time>
      </trkpt>
      <trkpt lat="46.14256" lon="6.30676">
        <ele>459.6</ele>
        <time>2021-03-27T12:11:28Z</time>
      </trkpt>
      <trkpt lat="46.14252" lon="6.30681">
        <ele>459.8</ele>
        <time>2021-03-27T12:11:29Z</time>
      </trkpt>
      <trkpt lat="46.14247" lon="6.30686">
        <ele>459.8</ele>
        <time>2021-03-27T12:11:30Z</time>
      </trkpt>
      <trkpt lat="46.14243" lon="6.30691">
        <ele>459.8</ele>
        <time>2021-03-27T12:11:31Z</time>
      </trkpt>
      <trkpt lat="46.14238" lon="6.30695">
        <ele>460</ele>
        <time>2021-03-27T12:11:32Z</time>
      </trkpt>
      <trkpt lat="46.14233" lon="6.307">
        <ele>460</ele>
        <time>2021-03-27T12:11:33Z</time>
      </trkpt>
      <trkpt lat="46.14229" lon="6.30703">
        <ele>460.4</ele>
        <time>2021-03-27T12:11:34Z</time>
      </trkpt>
      <trkpt lat="46.14223" lon="6.30707">
        <ele>460.6</ele>
        <time>2021-03-27T12:11:35Z</time>
      </trkpt>
      <trkpt lat="46.14218" lon="6.30709">
        <ele>460.8</ele>
        <time>2021-03-27T12:11:36Z</time>
      </trkpt>
      <trkpt lat="46.14213" lon="6.30712">
        <ele>461</ele>
        <time>2021-03-27T12:11:37Z</time>
      </trkpt>
      <trkpt lat="46.14208" lon="6.30715">
        <ele>461</ele>
        <time>2021-03-27T12:11:38Z</time>
      </trkpt>
      <trkpt lat="46.14202" lon="6.30717">
        <ele>461.2</ele>
        <time>2021-03-27T12:11:39Z</time>
      </trkpt>
      <trkpt lat="46.14197" lon="6.30719">
        <ele>461.4</ele>
        <time>2021-03-27T12:11:40Z</time>
      </trkpt>
      <trkpt lat="46.14192" lon="6.30721">
        <ele>461.4</ele>
        <time>2021-03-27T12:11:41Z</time>
      </trkpt>
      <trkpt lat="46.14187" lon="6.30723">
        <ele>461.4</ele>
        <time>2021-03-27T12:11:42Z</time>
      </trkpt>
      <trkpt lat="46.14182" lon="6.30725">
        <ele>461.6</ele>
        <time>2021-03-27T12:11:43Z</time>
      </trkpt>
      <trkpt lat="46.14177" lon="6.30727">
        <ele>461.8</ele>
        <time>2021-03-27T12:11:44Z</time>
      </trkpt>
      <trkpt lat="46.14172" lon="6.30729">
        <ele>461.8</ele>
        <time>2021-03-27T12:11:45Z</time>
      </trkpt>
      <trkpt lat="46.14167" lon="6.30731">
        <ele>462.4</ele>
        <time>2021-03-27T12:11:46Z</time>
      </trkpt>
      <trkpt lat="46.14162" lon="6.30732">
        <ele>462.8</ele>
        <time>2021-03-27T12:11:47Z</time>
      </trkpt>
      <trkpt lat="46.14157" lon="6.30734">
        <ele>463.2</ele>
        <time>2021-03-27T12:11:48Z</time>
      </trkpt>
      <trkpt lat="46.14152" lon="6.30736">
        <ele>463.6</ele>
        <time>2021-03-27T12:11:49Z</time>
      </trkpt>
      <trkpt lat="46.14147" lon="6.30739">
        <ele>464.2</ele>
        <time>2021-03-27T12:11:50Z</time>
      </trkpt>
      <trkpt lat="46.14142" lon="6.30743">
        <ele>464.2</ele>
        <time>2021-03-27T12:11:51Z</time>
      </trkpt>
      <trkpt lat="46.14138" lon="6.30746">
        <ele>464.8</ele>
        <time>2021-03-27T12:11:52Z</time>
      </trkpt>
      <trkpt lat="46.14132" lon="6.30751">
        <ele>465</ele>
        <time>2021-03-27T12:11:53Z</time>
      </trkpt>
      <trkpt lat="46.14127" lon="6.30755">
        <ele>465.2</ele>
        <time>2021-03-27T12:11:54Z</time>
      </trkpt>
      <trkpt lat="46.14122" lon="6.30761">
        <ele>465.2</ele>
        <time>2021-03-27T12:11:55Z</time>
      </trkpt>
      <trkpt lat="46.14118" lon="6.30766">
        <ele>465.4</ele>
        <time>2021-03-27T12:11:56Z</time>
      </trkpt>
      <trkpt lat="46.14114" lon="6.30771">
        <ele>465.4</ele>
        <time>2021-03-27T12:11:57Z</time>
      </trkpt>
      <trkpt lat="46.1411" lon="6.30777">
        <ele>465.6</ele>
        <time>2021-03-27T12:11:58Z</time>
      </trkpt>
      <trkpt lat="46.14106" lon="6.30784">
        <ele>465.6</ele>
        <time>2021-03-27T12:11:59Z</time>
      </trkpt>
      <trkpt lat="46.14103" lon="6.3079">
        <ele>465.8</ele>
        <time>2021-03-27T12:12:00Z</time>
      </trkpt>
      <trkpt lat="46.141" lon="6.30797">
        <ele>466</ele>
        <time>2021-03-27T12:12:01Z</time>
      </trkpt>
      <trkpt lat="46.14098" lon="6.30804">
        <ele>466.2</ele>
        <time>2021-03-27T12:12:02Z</time>
      </trkpt>
      <trkpt lat="46.14095" lon="6.30811">
        <ele>466.2</ele>
        <time>2021-03-27T12:12:03Z</time>
      </trkpt>
      <trkpt lat="46.14092" lon="6.30817">
        <ele>466</ele>
        <time>2021-03-27T12:12:04Z</time>
      </trkpt>
      <trkpt lat="46.14087" lon="6.30819">
        <ele>466.2</ele>
        <time>2021-03-27T12:12:05Z</time>
      </trkpt>
      <trkpt lat="46.14081" lon="6.30819">
        <ele>466</ele>
        <time>2021-03-27T12:12:06Z</time>
      </trkpt>
      <trkpt lat="46.14076" lon="6.30817">
        <ele>466.2</ele>
        <time>2021-03-27T12:12:07Z</time>
      </trkpt>
      <trkpt lat="46.14069" lon="6.30815">
        <ele>466.2</ele>
        <time>2021-03-27T12:12:08Z</time>
      </trkpt>
      <trkpt lat="46.14063" lon="6.30813">
        <ele>466.2</ele>
        <time>2021-03-27T12:12:09Z</time>
      </trkpt>
      <trkpt lat="46.14058" lon="6.3081">
        <ele>466.2</ele>
        <time>2021-03-27T12:12:10Z</time>
      </trkpt>
      <trkpt lat="46.14053" lon="6.30806">
        <ele>466.2</ele>
        <time>2021-03-27T12:12:11Z</time>
      </trkpt>
      <trkpt lat="46.14047" lon="6.30802">
        <ele>466.2</ele>
        <time>2021-03-27T12:12:12Z</time>
      </trkpt>
      <trkpt lat="46.14042" lon="6.30798">
        <ele>466.2</ele>
        <time>2021-03-27T12:12:13Z</time>
      </trkpt>
      <trkpt lat="46.14037" lon="6.30793">
        <ele>466.2</ele>
        <time>2021-03-27T12:12:14Z</time>
      </trkpt>
      <trkpt lat="46.14032" lon="6.30788">
        <ele>466</ele>
        <time>2021-03-27T12:12:15Z</time>
      </trkpt>
      <trkpt lat="46.14027" lon="6.30784">
        <ele>466.2</ele>
        <time>2021-03-27T12:12:16Z</time>
      </trkpt>
      <trkpt lat="46.14022" lon="6.30779">
        <ele>466.2</ele>
        <time>2021-03-27T12:12:17Z</time>
      </trkpt>
      <trkpt lat="46.14017" lon="6.30778">
        <ele>466.2</ele>
        <time>2021-03-27T12:12:18Z</time>
      </trkpt>
      <trkpt lat="46.14012" lon="6.3078">
        <ele>466.4</ele>
        <time>2021-03-27T12:12:19Z</time>
      </trkpt>
      <trkpt lat="46.14008" lon="6.30785">
        <ele>466.2</ele>
        <time>2021-03-27T12:12:20Z</time>
      </trkpt>
      <trkpt lat="46.14004" lon="6.30793">
        <ele>466.4</ele>
        <time>2021-03-27T12:12:21Z</time>
      </trkpt>
      <trkpt lat="46.14001" lon="6.30801">
        <ele>466.6</ele>
        <time>2021-03-27T12:12:22Z</time>
      </trkpt>
      <trkpt lat="46.13998" lon="6.30809">
        <ele>466.6</ele>
        <time>2021-03-27T12:12:23Z</time>
      </trkpt>
      <trkpt lat="46.13995" lon="6.30818">
        <ele>466.6</ele>
        <time>2021-03-27T12:12:24Z</time>
      </trkpt>
      <trkpt lat="46.13991" lon="6.30826">
        <ele>466.6</ele>
        <time>2021-03-27T12:12:25Z</time>
      </trkpt>
      <trkpt lat="46.13987" lon="6.30835">
        <ele>466.8</ele>
        <time>2021-03-27T12:12:26Z</time>
      </trkpt>
      <trkpt lat="46.13983" lon="6.30843">
        <ele>466.6</ele>
        <time>2021-03-27T12:12:27Z</time>
      </trkpt>
      <trkpt lat="46.13979" lon="6.30849">
        <ele>466.6</ele>
        <time>2021-03-27T12:12:28Z</time>
      </trkpt>
      <trkpt lat="46.13974" lon="6.30854">
        <ele>466.6</ele>
        <time>2021-03-27T12:12:29Z</time>
      </trkpt>
      <trkpt lat="46.13968" lon="6.30857">
        <ele>466.8</ele>
        <time>2021-03-27T12:12:30Z</time>
      </trkpt>
      <trkpt lat="46.13962" lon="6.3086">
        <ele>466.8</ele>
        <time>2021-03-27T12:12:31Z</time>
      </trkpt>
      <trkpt lat="46.13956" lon="6.30861">
        <ele>466.8</ele>
        <time>2021-03-27T12:12:32Z</time>
      </trkpt>
      <trkpt lat="46.1395" lon="6.30864">
        <ele>466.8</ele>
        <time>2021-03-27T12:12:33Z</time>
      </trkpt>
      <trkpt lat="46.13944" lon="6.30867">
        <ele>466.8</ele>
        <time>2021-03-27T12:12:34Z</time>
      </trkpt>
      <trkpt lat="46.13939" lon="6.30872">
        <ele>466.8</ele>
        <time>2021-03-27T12:12:35Z</time>
      </trkpt>
      <trkpt lat="46.13933" lon="6.30877">
        <ele>467</ele>
        <time>2021-03-27T12:12:36Z</time>
      </trkpt>
      <trkpt lat="46.13928" lon="6.30884">
        <ele>467</ele>
        <time>2021-03-27T12:12:37Z</time>
      </trkpt>
      <trkpt lat="46.13924" lon="6.30891">
        <ele>467</ele>
        <time>2021-03-27T12:12:38Z</time>
      </trkpt>
      <trkpt lat="46.13919" lon="6.30898">
        <ele>466.8</ele>
        <time>2021-03-27T12:12:39Z</time>
      </trkpt>
      <trkpt lat="46.13915" lon="6.30906">
        <ele>467</ele>
        <time>2021-03-27T12:12:40Z</time>
      </trkpt>
      <trkpt lat="46.1391" lon="6.30913">
        <ele>467.2</ele>
        <time>2021-03-27T12:12:41Z</time>
      </trkpt>
      <trkpt lat="46.13905" lon="6.30921">
        <ele>467.4</ele>
        <time>2021-03-27T12:12:42Z</time>
      </trkpt>
      <trkpt lat="46.13901" lon="6.30928">
        <ele>467.4</ele>
        <time>2021-03-27T12:12:43Z</time>
      </trkpt>
      <trkpt lat="46.13896" lon="6.30935">
        <ele>467.4</ele>
        <time>2021-03-27T12:12:44Z</time>
      </trkpt>
      <trkpt lat="46.13891" lon="6.30942">
        <ele>467.6</ele>
        <time>2021-03-27T12:12:45Z</time>
      </trkpt>
      <trkpt lat="46.13886" lon="6.30949">
        <ele>467.6</ele>
        <time>2021-03-27T12:12:46Z</time>
      </trkpt>
      <trkpt lat="46.13881" lon="6.30956">
        <ele>467.6</ele>
        <time>2021-03-27T12:12:47Z</time>
      </trkpt>
      <trkpt lat="46.13876" lon="6.30963">
        <ele>467.6</ele>
        <time>2021-03-27T12:12:48Z</time>
      </trkpt>
      <trkpt lat="46.13871" lon="6.30969">
        <ele>467.6</ele>
        <time>2021-03-27T12:12:49Z</time>
      </trkpt>
      <trkpt lat="46.13866" lon="6.30976">
        <ele>467.6</ele>
        <time>2021-03-27T12:12:50Z</time>
      </trkpt>
      <trkpt lat="46.13861" lon="6.30982">
        <ele>467.6</ele>
        <time>2021-03-27T12:12:51Z</time>
      </trkpt>
      <trkpt lat="46.13856" lon="6.30989">
        <ele>467.6</ele>
        <time>2021-03-27T12:12:52Z</time>
      </trkpt>
      <trkpt lat="46.13851" lon="6.30995">
        <ele>467.6</ele>
        <time>2021-03-27T12:12:53Z</time>
      </trkpt>
      <trkpt lat="46.13846" lon="6.31002">
        <ele>467.4</ele>
        <time>2021-03-27T12:12:54Z</time>
      </trkpt>
      <trkpt lat="46.13841" lon="6.31009">
        <ele>467.4</ele>
        <time>2021-03-27T12:12:55Z</time>
      </trkpt>
      <trkpt lat="46.13837" lon="6.31015">
        <ele>467.4</ele>
        <time>2021-03-27T12:12:56Z</time>
      </trkpt>
      <trkpt lat="46.13832" lon="6.31022">
        <ele>467.4</ele>
        <time>2021-03-27T12:12:57Z</time>
      </trkpt>
      <trkpt lat="46.13828" lon="6.31031">
        <ele>467.6</ele>
        <time>2021-03-27T12:12:58Z</time>
      </trkpt>
      <trkpt lat="46.13824" lon="6.3104">
        <ele>467.6</ele>
        <time>2021-03-27T12:12:59Z</time>
      </trkpt>
      <trkpt lat="46.1382" lon="6.31049">
        <ele>467.4</ele>
        <time>2021-03-27T12:13:00Z</time>
      </trkpt>
      <trkpt lat="46.13816" lon="6.31059">
        <ele>467.4</ele>
        <time>2021-03-27T12:13:01Z</time>
      </trkpt>
      <trkpt lat="46.13812" lon="6.31069">
        <ele>467.4</ele>
        <time>2021-03-27T12:13:02Z</time>
      </trkpt>
      <trkpt lat="46.13808" lon="6.31079">
        <ele>467.4</ele>
        <time>2021-03-27T12:13:03Z</time>
      </trkpt>
      <trkpt lat="46.13804" lon="6.31091">
        <ele>467.2</ele>
        <time>2021-03-27T12:13:04Z</time>
      </trkpt>
      <trkpt lat="46.138" lon="6.31103">
        <ele>467.2</ele>
        <time>2021-03-27T12:13:05Z</time>
      </trkpt>
      <trkpt lat="46.13796" lon="6.31115">
        <ele>466.8</ele>
        <time>2021-03-27T12:13:06Z</time>
      </trkpt>
      <trkpt lat="46.13792" lon="6.31128">
        <ele>466.6</ele>
        <time>2021-03-27T12:13:07Z</time>
      </trkpt>
      <trkpt lat="46.13788" lon="6.3114">
        <ele>466.2</ele>
        <time>2021-03-27T12:13:08Z</time>
      </trkpt>
      <trkpt lat="46.13784" lon="6.31152">
        <ele>466</ele>
        <time>2021-03-27T12:13:09Z</time>
      </trkpt>
      <trkpt lat="46.13779" lon="6.31164">
        <ele>464.8</ele>
        <time>2021-03-27T12:13:10Z</time>
      </trkpt>
      <trkpt lat="46.13775" lon="6.31175">
        <ele>464.4</ele>
        <time>2021-03-27T12:13:11Z</time>
      </trkpt>
      <trkpt lat="46.1377" lon="6.31187">
        <ele>463.4</ele>
        <time>2021-03-27T12:13:12Z</time>
      </trkpt>
      <trkpt lat="46.13765" lon="6.31198">
        <ele>462.8</ele>
        <time>2021-03-27T12:13:13Z</time>
      </trkpt>
      <trkpt lat="46.13759" lon="6.3121">
        <ele>462</ele>
        <time>2021-03-27T12:13:14Z</time>
      </trkpt>
      <trkpt lat="46.13753" lon="6.31223">
        <ele>461.4</ele>
        <time>2021-03-27T12:13:15Z</time>
      </trkpt>
      <trkpt lat="46.13746" lon="6.31236">
        <ele>460.2</ele>
        <time>2021-03-27T12:13:16Z</time>
      </trkpt>
      <trkpt lat="46.13738" lon="6.31249">
        <ele>459.6</ele>
        <time>2021-03-27T12:13:17Z</time>
      </trkpt>
      <trkpt lat="46.1373" lon="6.31261">
        <ele>459.2</ele>
        <time>2021-03-27T12:13:18Z</time>
      </trkpt>
      <trkpt lat="46.13722" lon="6.31273">
        <ele>458.8</ele>
        <time>2021-03-27T12:13:19Z</time>
      </trkpt>
      <trkpt lat="46.13715" lon="6.31284">
        <ele>458.6</ele>
        <time>2021-03-27T12:13:20Z</time>
      </trkpt>
      <trkpt lat="46.13708" lon="6.31294">
        <ele>457.4</ele>
        <time>2021-03-27T12:13:21Z</time>
      </trkpt>
      <trkpt lat="46.13702" lon="6.31303">
        <ele>455.6</ele>
        <time>2021-03-27T12:13:22Z</time>
      </trkpt>
      <trkpt lat="46.13696" lon="6.31312">
        <ele>453.4</ele>
        <time>2021-03-27T12:13:23Z</time>
      </trkpt>
      <trkpt lat="46.1369" lon="6.3132">
        <ele>451.6</ele>
        <time>2021-03-27T12:13:24Z</time>
      </trkpt>
      <trkpt lat="46.13685" lon="6.31326">
        <ele>450</ele>
        <time>2021-03-27T12:13:25Z</time>
      </trkpt>
      <trkpt lat="46.1368" lon="6.3133">
        <ele>449</ele>
        <time>2021-03-27T12:13:26Z</time>
      </trkpt>
      <trkpt lat="46.13675" lon="6.3133">
        <ele>448.6</ele>
        <time>2021-03-27T12:13:27Z</time>
      </trkpt>
      <trkpt lat="46.1367" lon="6.31327">
        <ele>448.2</ele>
        <time>2021-03-27T12:13:28Z</time>
      </trkpt>
      <trkpt lat="46.13665" lon="6.31321">
        <ele>448</ele>
        <time>2021-03-27T12:13:29Z</time>
      </trkpt>
      <trkpt lat="46.1366" lon="6.31314">
        <ele>447.6</ele>
        <time>2021-03-27T12:13:30Z</time>
      </trkpt>
      <trkpt lat="46.13654" lon="6.31307">
        <ele>447.4</ele>
        <time>2021-03-27T12:13:31Z</time>
      </trkpt>
      <trkpt lat="46.13648" lon="6.31299">
        <ele>447.2</ele>
        <time>2021-03-27T12:13:32Z</time>
      </trkpt>
      <trkpt lat="46.13642" lon="6.31292">
        <ele>447</ele>
        <time>2021-03-27T12:13:33Z</time>
      </trkpt>
      <trkpt lat="46.13636" lon="6.31284">
        <ele>447</ele>
        <time>2021-03-27T12:13:34Z</time>
      </trkpt>
      <trkpt lat="46.1363" lon="6.31276">
        <ele>446.8</ele>
        <time>2021-03-27T12:13:35Z</time>
      </trkpt>
      <trkpt lat="46.13623" lon="6.31268">
        <ele>447</ele>
        <time>2021-03-27T12:13:36Z</time>
      </trkpt>
      <trkpt lat="46.13617" lon="6.31261">
        <ele>446.8</ele>
        <time>2021-03-27T12:13:37Z</time>
      </trkpt>
      <trkpt lat="46.1361" lon="6.31253">
        <ele>446.6</ele>
        <time>2021-03-27T12:13:38Z</time>
      </trkpt>
      <trkpt lat="46.13604" lon="6.31245">
        <ele>446.6</ele>
        <time>2021-03-27T12:13:39Z</time>
      </trkpt>
      <trkpt lat="46.13597" lon="6.31237">
        <ele>446.4</ele>
        <time>2021-03-27T12:13:40Z</time>
      </trkpt>
      <trkpt lat="46.1359" lon="6.31229">
        <ele>446</ele>
        <time>2021-03-27T12:13:41Z</time>
      </trkpt>
      <trkpt lat="46.13583" lon="6.31221">
        <ele>445.4</ele>
        <time>2021-03-27T12:13:42Z</time>
      </trkpt>
      <trkpt lat="46.13576" lon="6.31214">
        <ele>445</ele>
        <time>2021-03-27T12:13:43Z</time>
      </trkpt>
      <trkpt lat="46.13569" lon="6.31206">
        <ele>444.8</ele>
        <time>2021-03-27T12:13:44Z</time>
      </trkpt>
      <trkpt lat="46.13562" lon="6.312">
        <ele>444.6</ele>
        <time>2021-03-27T12:13:45Z</time>
      </trkpt>
      <trkpt lat="46.13554" lon="6.31194">
        <ele>444.4</ele>
        <time>2021-03-27T12:13:46Z</time>
      </trkpt>
      <trkpt lat="46.13545" lon="6.3119">
        <ele>443.8</ele>
        <time>2021-03-27T12:13:47Z</time>
      </trkpt>
      <trkpt lat="46.13536" lon="6.31187">
        <ele>443.6</ele>
        <time>2021-03-27T12:13:48Z</time>
      </trkpt>
      <trkpt lat="46.13526" lon="6.31186">
        <ele>443.4</ele>
        <time>2021-03-27T12:13:49Z</time>
      </trkpt>
      <trkpt lat="46.13517" lon="6.31187">
        <ele>443.2</ele>
        <time>2021-03-27T12:13:50Z</time>
      </trkpt>
      <trkpt lat="46.13507" lon="6.31189">
        <ele>442.8</ele>
        <time>2021-03-27T12:13:51Z</time>
      </trkpt>
      <trkpt lat="46.13498" lon="6.31193">
        <ele>441.8</ele>
        <time>2021-03-27T12:13:52Z</time>
      </trkpt>
      <trkpt lat="46.13489" lon="6.31197">
        <ele>441.6</ele>
        <time>2021-03-27T12:13:53Z</time>
      </trkpt>
      <trkpt lat="46.13479" lon="6.31201">
        <ele>441.2</ele>
        <time>2021-03-27T12:13:54Z</time>
      </trkpt>
      <trkpt lat="46.13469" lon="6.31206">
        <ele>441</ele>
        <time>2021-03-27T12:13:55Z</time>
      </trkpt>
      <trkpt lat="46.1346" lon="6.3121">
        <ele>441</ele>
        <time>2021-03-27T12:13:56Z</time>
      </trkpt>
      <trkpt lat="46.1345" lon="6.31215">
        <ele>440.6</ele>
        <time>2021-03-27T12:13:57Z</time>
      </trkpt>
      <trkpt lat="46.1344" lon="6.3122">
        <ele>439.8</ele>
        <time>2021-03-27T12:13:58Z</time>
      </trkpt>
      <trkpt lat="46.1343" lon="6.31224">
        <ele>439.4</ele>
        <time>2021-03-27T12:13:59Z</time>
      </trkpt>
      <trkpt lat="46.13421" lon="6.31229">
        <ele>439</ele>
        <time>2021-03-27T12:14:00Z</time>
      </trkpt>
      <trkpt lat="46.13411" lon="6.31233">
        <ele>438.6</ele>
        <time>2021-03-27T12:14:01Z</time>
      </trkpt>
      <trkpt lat="46.13402" lon="6.31237">
        <ele>438.4</ele>
        <time>2021-03-27T12:14:02Z</time>
      </trkpt>
      <trkpt lat="46.13394" lon="6.31241">
        <ele>438.2</ele>
        <time>2021-03-27T12:14:03Z</time>
      </trkpt>
      <trkpt lat="46.13386" lon="6.31244">
        <ele>438</ele>
        <time>2021-03-27T12:14:04Z</time>
      </trkpt>
      <trkpt lat="46.13372" lon="6.31251">
        <ele>437.8</ele>
        <time>2021-03-27T12:14:06Z</time>
      </trkpt>
      <trkpt lat="46.13366" lon="6.31254">
        <ele>438</ele>
        <time>2021-03-27T12:14:07Z</time>
      </trkpt>
      <trkpt lat="46.13359" lon="6.31256">
        <ele>438</ele>
        <time>2021-03-27T12:14:08Z</time>
      </trkpt>
      <trkpt lat="46.13353" lon="6.31259">
        <ele>437.8</ele>
        <time>2021-03-27T12:14:09Z</time>
      </trkpt>
      <trkpt lat="46.13347" lon="6.3126">
        <ele>437.8</ele>
        <time>2021-03-27T12:14:10Z</time>
      </trkpt>
      <trkpt lat="46.13341" lon="6.31261">
        <ele>438</ele>
        <time>2021-03-27T12:14:11Z</time>
      </trkpt>
      <trkpt lat="46.13336" lon="6.3126">
        <ele>438</ele>
        <time>2021-03-27T12:14:12Z</time>
      </trkpt>
      <trkpt lat="46.13331" lon="6.31258">
        <ele>437.8</ele>
        <time>2021-03-27T12:14:13Z</time>
      </trkpt>
      <trkpt lat="46.13328" lon="6.31255">
        <ele>438</ele>
        <time>2021-03-27T12:14:14Z</time>
      </trkpt>
      <trkpt lat="46.13325" lon="6.31251">
        <ele>438</ele>
        <time>2021-03-27T12:14:15Z</time>
      </trkpt>
      <trkpt lat="46.1332" lon="6.31242">
        <ele>438.6</ele>
        <time>2021-03-27T12:14:17Z</time>
      </trkpt>
      <trkpt lat="46.13318" lon="6.31239">
        <ele>439.2</ele>
        <time>2021-03-27T12:14:18Z</time>
      </trkpt>
      <trkpt lat="46.13316" lon="6.3124">
        <ele>439.4</ele>
        <time>2021-03-27T12:14:19Z</time>
      </trkpt>
      <trkpt lat="46.13316" lon="6.31242">
        <ele>439.6</ele>
        <time>2021-03-27T12:14:20Z</time>
      </trkpt>
      <trkpt lat="46.13317" lon="6.31245">
        <ele>439.8</ele>
        <time>2021-03-27T12:14:21Z</time>
      </trkpt>
      <trkpt lat="46.1332" lon="6.31248">
        <ele>439.8</ele>
        <time>2021-03-27T12:14:22Z</time>
      </trkpt>
      <trkpt lat="46.13322" lon="6.31252">
        <ele>440</ele>
        <time>2021-03-27T12:14:23Z</time>
      </trkpt>
      <trkpt lat="46.13324" lon="6.31255">
        <ele>440</ele>
        <time>2021-03-27T12:14:24Z</time>
      </trkpt>
      <trkpt lat="46.13325" lon="6.31259">
        <ele>440.2</ele>
        <time>2021-03-27T12:14:25Z</time>
      </trkpt>
      <trkpt lat="46.13325" lon="6.31263">
        <ele>440.2</ele>
        <time>2021-03-27T12:14:26Z</time>
      </trkpt>
      <trkpt lat="46.13325" lon="6.31266">
        <ele>440.4</ele>
        <time>2021-03-27T12:14:27Z</time>
      </trkpt>
      <trkpt lat="46.13322" lon="6.31269">
        <ele>440.4</ele>
        <time>2021-03-27T12:14:28Z</time>
      </trkpt>
      <trkpt lat="46.13319" lon="6.31271">
        <ele>440.4</ele>
        <time>2021-03-27T12:14:29Z</time>
      </trkpt>
      <trkpt lat="46.13315" lon="6.31272">
        <ele>440.6</ele>
        <time>2021-03-27T12:14:30Z</time>
      </trkpt>
      <trkpt lat="46.13311" lon="6.31273">
        <ele>440.6</ele>
        <time>2021-03-27T12:14:31Z</time>
      </trkpt>
      <trkpt lat="46.13306" lon="6.31273">
        <ele>440.6</ele>
        <time>2021-03-27T12:14:32Z</time>
      </trkpt>
      <trkpt lat="46.13302" lon="6.31273">
        <ele>440.8</ele>
        <time>2021-03-27T12:14:33Z</time>
      </trkpt>
      <trkpt lat="46.13298" lon="6.31273">
        <ele>440.8</ele>
        <time>2021-03-27T12:14:34Z</time>
      </trkpt>
      <trkpt lat="46.13294" lon="6.31272">
        <ele>441</ele>
        <time>2021-03-27T12:14:35Z</time>
      </trkpt>
      <trkpt lat="46.1329" lon="6.31271">
        <ele>441.2</ele>
        <time>2021-03-27T12:14:36Z</time>
      </trkpt>
      <trkpt lat="46.13286" lon="6.3127">
        <ele>441.6</ele>
        <time>2021-03-27T12:14:37Z</time>
      </trkpt>
      <trkpt lat="46.13282" lon="6.31269">
        <ele>441.8</ele>
        <time>2021-03-27T12:14:38Z</time>
      </trkpt>
      <trkpt lat="46.13278" lon="6.31268">
        <ele>442</ele>
        <time>2021-03-27T12:14:39Z</time>
      </trkpt>
      <trkpt lat="46.13274" lon="6.31267">
        <ele>442</ele>
        <time>2021-03-27T12:14:40Z</time>
      </trkpt>
      <trkpt lat="46.13269" lon="6.31265">
        <ele>442.4</ele>
        <time>2021-03-27T12:14:41Z</time>
      </trkpt>
      <trkpt lat="46.13265" lon="6.31264">
        <ele>442.6</ele>
        <time>2021-03-27T12:14:42Z</time>
      </trkpt>
      <trkpt lat="46.13261" lon="6.31263">
        <ele>442.8</ele>
        <time>2021-03-27T12:14:43Z</time>
      </trkpt>
      <trkpt lat="46.13257" lon="6.31262">
        <ele>443.4</ele>
        <time>2021-03-27T12:14:44Z</time>
      </trkpt>
      <trkpt lat="46.13253" lon="6.3126">
        <ele>443.6</ele>
        <time>2021-03-27T12:14:45Z</time>
      </trkpt>
      <trkpt lat="46.13249" lon="6.3126">
        <ele>444</ele>
        <time>2021-03-27T12:14:46Z</time>
      </trkpt>
      <trkpt lat="46.13245" lon="6.31259">
        <ele>444.2</ele>
        <time>2021-03-27T12:14:47Z</time>
      </trkpt>
      <trkpt lat="46.1324" lon="6.31258">
        <ele>444.4</ele>
        <time>2021-03-27T12:14:48Z</time>
      </trkpt>
      <trkpt lat="46.13236" lon="6.31258">
        <ele>444.4</ele>
        <time>2021-03-27T12:14:49Z</time>
      </trkpt>
      <trkpt lat="46.13231" lon="6.31258">
        <ele>444.6</ele>
        <time>2021-03-27T12:14:50Z</time>
      </trkpt>
      <trkpt lat="46.13227" lon="6.31258">
        <ele>444.8</ele>
        <time>2021-03-27T12:14:51Z</time>
      </trkpt>
      <trkpt lat="46.13222" lon="6.31258">
        <ele>444.8</ele>
        <time>2021-03-27T12:14:52Z</time>
      </trkpt>
      <trkpt lat="46.13217" lon="6.31258">
        <ele>445</ele>
        <time>2021-03-27T12:14:53Z</time>
      </trkpt>
      <trkpt lat="46.13212" lon="6.31259">
        <ele>445.4</ele>
        <time>2021-03-27T12:14:54Z</time>
      </trkpt>
      <trkpt lat="46.13207" lon="6.3126">
        <ele>445.4</ele>
        <time>2021-03-27T12:14:55Z</time>
      </trkpt>
      <trkpt lat="46.13201" lon="6.3126">
        <ele>445.6</ele>
        <time>2021-03-27T12:14:56Z</time>
      </trkpt>
      <trkpt lat="46.13196" lon="6.31261">
        <ele>446</ele>
        <time>2021-03-27T12:14:57Z</time>
      </trkpt>
      <trkpt lat="46.1319" lon="6.31262">
        <ele>446.2</ele>
        <time>2021-03-27T12:14:58Z</time>
      </trkpt>
      <trkpt lat="46.13184" lon="6.31263">
        <ele>446.6</ele>
        <time>2021-03-27T12:14:59Z</time>
      </trkpt>
      <trkpt lat="46.13179" lon="6.31264">
        <ele>447</ele>
        <time>2021-03-27T12:15:00Z</time>
      </trkpt>
      <trkpt lat="46.13173" lon="6.31265">
        <ele>447.4</ele>
        <time>2021-03-27T12:15:01Z</time>
      </trkpt>
      <trkpt lat="46.13167" lon="6.31266">
        <ele>447.2</ele>
        <time>2021-03-27T12:15:02Z</time>
      </trkpt>
      <trkpt lat="46.13161" lon="6.31267">
        <ele>447.6</ele>
        <time>2021-03-27T12:15:03Z</time>
      </trkpt>
      <trkpt lat="46.13155" lon="6.31267">
        <ele>447.6</ele>
        <time>2021-03-27T12:15:04Z</time>
      </trkpt>
      <trkpt lat="46.13149" lon="6.31268">
        <ele>447.6</ele>
        <time>2021-03-27T12:15:05Z</time>
      </trkpt>
      <trkpt lat="46.13142" lon="6.31269">
        <ele>447.6</ele>
        <time>2021-03-27T12:15:06Z</time>
      </trkpt>
      <trkpt lat="46.13136" lon="6.3127">
        <ele>447.4</ele>
        <time>2021-03-27T12:15:07Z</time>
      </trkpt>
      <trkpt lat="46.1313" lon="6.31271">
        <ele>447.6</ele>
        <time>2021-03-27T12:15:08Z</time>
      </trkpt>
      <trkpt lat="46.13124" lon="6.31272">
        <ele>447.6</ele>
        <time>2021-03-27T12:15:09Z</time>
      </trkpt>
      <trkpt lat="46.13118" lon="6.31273">
        <ele>447.4</ele>
        <time>2021-03-27T12:15:10Z</time>
      </trkpt>
      <trkpt lat="46.13112" lon="6.31274">
        <ele>447.4</ele>
        <time>2021-03-27T12:15:11Z</time>
      </trkpt>
      <trkpt lat="46.13106" lon="6.31275">
        <ele>447.6</ele>
        <time>2021-03-27T12:15:12Z</time>
      </trkpt>
      <trkpt lat="46.131" lon="6.31276">
        <ele>447.2</ele>
        <time>2021-03-27T12:15:13Z</time>
      </trkpt>
      <trkpt lat="46.13094" lon="6.31277">
        <ele>447.2</ele>
        <time>2021-03-27T12:15:14Z</time>
      </trkpt>
      <trkpt lat="46.13088" lon="6.31278">
        <ele>447.2</ele>
        <time>2021-03-27T12:15:15Z</time>
      </trkpt>
      <trkpt lat="46.13081" lon="6.31279">
        <ele>447.2</ele>
        <time>2021-03-27T12:15:16Z</time>
      </trkpt>
      <trkpt lat="46.13075" lon="6.3128">
        <ele>447</ele>
        <time>2021-03-27T12:15:17Z</time>
      </trkpt>
      <trkpt lat="46.13069" lon="6.31281">
        <ele>447</ele>
        <time>2021-03-27T12:15:18Z</time>
      </trkpt>
      <trkpt lat="46.13062" lon="6.31282">
        <ele>447</ele>
        <time>2021-03-27T12:15:19Z</time>
      </trkpt>
      <trkpt lat="46.13056" lon="6.31283">
        <ele>447</ele>
        <time>2021-03-27T12:15:20Z</time>
      </trkpt>
      <trkpt lat="46.1305" lon="6.31284">
        <ele>447</ele>
        <time>2021-03-27T12:15:21Z</time>
      </trkpt>
      <trkpt lat="46.13043" lon="6.31285">
        <ele>447</ele>
        <time>2021-03-27T12:15:22Z</time>
      </trkpt>
      <trkpt lat="46.13036" lon="6.31286">
        <ele>447</ele>
        <time>2021-03-27T12:15:23Z</time>
      </trkpt>
      <trkpt lat="46.1303" lon="6.31287">
        <ele>447</ele>
        <time>2021-03-27T12:15:24Z</time>
      </trkpt>
      <trkpt lat="46.13023" lon="6.31288">
        <ele>447</ele>
        <time>2021-03-27T12:15:25Z</time>
      </trkpt>
      <trkpt lat="46.13016" lon="6.31289">
        <ele>447</ele>
        <time>2021-03-27T12:15:26Z</time>
      </trkpt>
      <trkpt lat="46.13009" lon="6.3129">
        <ele>447</ele>
        <time>2021-03-27T12:15:27Z</time>
      </trkpt>
      <trkpt lat="46.13003" lon="6.31291">
        <ele>447</ele>
        <time>2021-03-27T12:15:28Z</time>
      </trkpt>
      <trkpt lat="46.12996" lon="6.31292">
        <ele>447</ele>
        <time>2021-03-27T12:15:29Z</time>
      </trkpt>
      <trkpt lat="46.12989" lon="6.31293">
        <ele>447.2</ele>
        <time>2021-03-27T12:15:30Z</time>
      </trkpt>
      <trkpt lat="46.12982" lon="6.31294">
        <ele>447</ele>
        <time>2021-03-27T12:15:31Z</time>
      </trkpt>
      <trkpt lat="46.12976" lon="6.31296">
        <ele>447.2</ele>
        <time>2021-03-27T12:15:32Z</time>
      </trkpt>
      <trkpt lat="46.12969" lon="6.31297">
        <ele>447</ele>
        <time>2021-03-27T12:15:33Z</time>
      </trkpt>
      <trkpt lat="46.12963" lon="6.31298">
        <ele>447.2</ele>
        <time>2021-03-27T12:15:34Z</time>
      </trkpt>
      <trkpt lat="46.12956" lon="6.31299">
        <ele>447.2</ele>
        <time>2021-03-27T12:15:35Z</time>
      </trkpt>
      <trkpt lat="46.1295" lon="6.313">
        <ele>447.2</ele>
        <time>2021-03-27T12:15:36Z</time>
      </trkpt>
      <trkpt lat="46.12944" lon="6.31301">
        <ele>447.4</ele>
        <time>2021-03-27T12:15:37Z</time>
      </trkpt>
      <trkpt lat="46.12937" lon="6.31302">
        <ele>447.4</ele>
        <time>2021-03-27T12:15:38Z</time>
      </trkpt>
      <trkpt lat="46.12931" lon="6.31303">
        <ele>447.4</ele>
        <time>2021-03-27T12:15:39Z</time>
      </trkpt>
      <trkpt lat="46.12924" lon="6.31304">
        <ele>447.4</ele>
        <time>2021-03-27T12:15:40Z</time>
      </trkpt>
      <trkpt lat="46.12918" lon="6.31305">
        <ele>447.6</ele>
        <time>2021-03-27T12:15:41Z</time>
      </trkpt>
      <trkpt lat="46.12912" lon="6.31305">
        <ele>447.6</ele>
        <time>2021-03-27T12:15:42Z</time>
      </trkpt>
      <trkpt lat="46.12905" lon="6.31306">
        <ele>447.4</ele>
        <time>2021-03-27T12:15:43Z</time>
      </trkpt>
      <trkpt lat="46.12899" lon="6.31308">
        <ele>447.6</ele>
        <time>2021-03-27T12:15:44Z</time>
      </trkpt>
      <trkpt lat="46.12892" lon="6.31309">
        <ele>447.6</ele>
        <time>2021-03-27T12:15:45Z</time>
      </trkpt>
      <trkpt lat="46.12885" lon="6.3131">
        <ele>447.6</ele>
        <time>2021-03-27T12:15:46Z</time>
      </trkpt>
      <trkpt lat="46.12879" lon="6.31311">
        <ele>447.6</ele>
        <time>2021-03-27T12:15:47Z</time>
      </trkpt>
      <trkpt lat="46.12872" lon="6.31312">
        <ele>447.8</ele>
        <time>2021-03-27T12:15:48Z</time>
      </trkpt>
      <trkpt lat="46.12866" lon="6.31313">
        <ele>447.8</ele>
        <time>2021-03-27T12:15:49Z</time>
      </trkpt>
      <trkpt lat="46.12859" lon="6.31314">
        <ele>448</ele>
        <time>2021-03-27T12:15:50Z</time>
      </trkpt>
      <trkpt lat="46.12853" lon="6.31315">
        <ele>448</ele>
        <time>2021-03-27T12:15:51Z</time>
      </trkpt>
      <trkpt lat="46.12839" lon="6.31317">
        <ele>448.2</ele>
        <time>2021-03-27T12:15:53Z</time>
      </trkpt>
      <trkpt lat="46.12833" lon="6.31318">
        <ele>448.2</ele>
        <time>2021-03-27T12:15:54Z</time>
      </trkpt>
      <trkpt lat="46.12826" lon="6.31319">
        <ele>448.2</ele>
        <time>2021-03-27T12:15:55Z</time>
      </trkpt>
      <trkpt lat="46.1282" lon="6.3132">
        <ele>448.2</ele>
        <time>2021-03-27T12:15:56Z</time>
      </trkpt>
      <trkpt lat="46.12813" lon="6.31321">
        <ele>448.4</ele>
        <time>2021-03-27T12:15:57Z</time>
      </trkpt>
      <trkpt lat="46.12806" lon="6.31322">
        <ele>448.4</ele>
        <time>2021-03-27T12:15:58Z</time>
      </trkpt>
      <trkpt lat="46.128" lon="6.31323">
        <ele>448.4</ele>
        <time>2021-03-27T12:15:59Z</time>
      </trkpt>
      <trkpt lat="46.12793" lon="6.31324">
        <ele>448.4</ele>
        <time>2021-03-27T12:16:00Z</time>
      </trkpt>
      <trkpt lat="46.12786" lon="6.31325">
        <ele>448.4</ele>
        <time>2021-03-27T12:16:01Z</time>
      </trkpt>
      <trkpt lat="46.12779" lon="6.31326">
        <ele>448.6</ele>
        <time>2021-03-27T12:16:02Z</time>
      </trkpt>
      <trkpt lat="46.12773" lon="6.31327">
        <ele>448.6</ele>
        <time>2021-03-27T12:16:03Z</time>
      </trkpt>
      <trkpt lat="46.12766" lon="6.31328">
        <ele>448.6</ele>
        <time>2021-03-27T12:16:04Z</time>
      </trkpt>
      <trkpt lat="46.1276" lon="6.31329">
        <ele>448.6</ele>
        <time>2021-03-27T12:16:05Z</time>
      </trkpt>
      <trkpt lat="46.12753" lon="6.3133">
        <ele>448.8</ele>
        <time>2021-03-27T12:16:06Z</time>
      </trkpt>
      <trkpt lat="46.12747" lon="6.31331">
        <ele>448.8</ele>
        <time>2021-03-27T12:16:07Z</time>
      </trkpt>
      <trkpt lat="46.12741" lon="6.31332">
        <ele>448.8</ele>
        <time>2021-03-27T12:16:08Z</time>
      </trkpt>
      <trkpt lat="46.12735" lon="6.31333">
        <ele>449</ele>
        <time>2021-03-27T12:16:09Z</time>
      </trkpt>
      <trkpt lat="46.12729" lon="6.31334">
        <ele>449</ele>
        <time>2021-03-27T12:16:10Z</time>
      </trkpt>
      <trkpt lat="46.12723" lon="6.31335">
        <ele>449</ele>
        <time>2021-03-27T12:16:11Z</time>
      </trkpt>
      <trkpt lat="46.12716" lon="6.31336">
        <ele>449</ele>
        <time>2021-03-27T12:16:12Z</time>
      </trkpt>
      <trkpt lat="46.1271" lon="6.31336">
        <ele>449.2</ele>
        <time>2021-03-27T12:16:13Z</time>
      </trkpt>
      <trkpt lat="46.12704" lon="6.31337">
        <ele>449.2</ele>
        <time>2021-03-27T12:16:14Z</time>
      </trkpt>
      <trkpt lat="46.12698" lon="6.31338">
        <ele>449.4</ele>
        <time>2021-03-27T12:16:15Z</time>
      </trkpt>
      <trkpt lat="46.12692" lon="6.31339">
        <ele>449.4</ele>
        <time>2021-03-27T12:16:16Z</time>
      </trkpt>
      <trkpt lat="46.12686" lon="6.3134">
        <ele>449.4</ele>
        <time>2021-03-27T12:16:17Z</time>
      </trkpt>
      <trkpt lat="46.1268" lon="6.31341">
        <ele>449.6</ele>
        <time>2021-03-27T12:16:18Z</time>
      </trkpt>
      <trkpt lat="46.12675" lon="6.31342">
        <ele>449.8</ele>
        <time>2021-03-27T12:16:19Z</time>
      </trkpt>
      <trkpt lat="46.12669" lon="6.31343">
        <ele>450</ele>
        <time>2021-03-27T12:16:20Z</time>
      </trkpt>
      <trkpt lat="46.12663" lon="6.31344">
        <ele>450</ele>
        <time>2021-03-27T12:16:21Z</time>
      </trkpt>
      <trkpt lat="46.12658" lon="6.31345">
        <ele>450.2</ele>
        <time>2021-03-27T12:16:22Z</time>
      </trkpt>
      <trkpt lat="46.12652" lon="6.31346">
        <ele>450.2</ele>
        <time>2021-03-27T12:16:23Z</time>
      </trkpt>
      <trkpt lat="46.12647" lon="6.31347">
        <ele>450.2</ele>
        <time>2021-03-27T12:16:24Z</time>
      </trkpt>
      <trkpt lat="46.12641" lon="6.31348">
        <ele>450.4</ele>
        <time>2021-03-27T12:16:25Z</time>
      </trkpt>
      <trkpt lat="46.12636" lon="6.31349">
        <ele>450.4</ele>
        <time>2021-03-27T12:16:26Z</time>
      </trkpt>
      <trkpt lat="46.1263" lon="6.31349">
        <ele>451</ele>
        <time>2021-03-27T12:16:27Z</time>
      </trkpt>
      <trkpt lat="46.12625" lon="6.3135">
        <ele>451.4</ele>
        <time>2021-03-27T12:16:28Z</time>
      </trkpt>
      <trkpt lat="46.12619" lon="6.31351">
        <ele>451.6</ele>
        <time>2021-03-27T12:16:29Z</time>
      </trkpt>
      <trkpt lat="46.12614" lon="6.31352">
        <ele>451.8</ele>
        <time>2021-03-27T12:16:30Z</time>
      </trkpt>
      <trkpt lat="46.12608" lon="6.31353">
        <ele>452.2</ele>
        <time>2021-03-27T12:16:31Z</time>
      </trkpt>
      <trkpt lat="46.12603" lon="6.31354">
        <ele>452.4</ele>
        <time>2021-03-27T12:16:32Z</time>
      </trkpt>
      <trkpt lat="46.12597" lon="6.31354">
        <ele>452.8</ele>
        <time>2021-03-27T12:16:33Z</time>
      </trkpt>
      <trkpt lat="46.12592" lon="6.31355">
        <ele>453.2</ele>
        <time>2021-03-27T12:16:34Z</time>
      </trkpt>
      <trkpt lat="46.12587" lon="6.31356">
        <ele>453.4</ele>
        <time>2021-03-27T12:16:35Z</time>
      </trkpt>
      <trkpt lat="46.12581" lon="6.31357">
        <ele>453.6</ele>
        <time>2021-03-27T12:16:36Z</time>
      </trkpt>
      <trkpt lat="46.12576" lon="6.31358">
        <ele>453.8</ele>
        <time>2021-03-27T12:16:37Z</time>
      </trkpt>
      <trkpt lat="46.12571" lon="6.31359">
        <ele>454</ele>
        <time>2021-03-27T12:16:38Z</time>
      </trkpt>
      <trkpt lat="46.12565" lon="6.3136">
        <ele>454.2</ele>
        <time>2021-03-27T12:16:39Z</time>
      </trkpt>
      <trkpt lat="46.1256" lon="6.31361">
        <ele>454.2</ele>
        <time>2021-03-27T12:16:40Z</time>
      </trkpt>
      <trkpt lat="46.12555" lon="6.31361">
        <ele>454.6</ele>
        <time>2021-03-27T12:16:41Z</time>
      </trkpt>
      <trkpt lat="46.1255" lon="6.31362">
        <ele>455</ele>
        <time>2021-03-27T12:16:42Z</time>
      </trkpt>
      <trkpt lat="46.12544" lon="6.31363">
        <ele>455.4</ele>
        <time>2021-03-27T12:16:43Z</time>
      </trkpt>
      <trkpt lat="46.12539" lon="6.31364">
        <ele>455.6</ele>
        <time>2021-03-27T12:16:44Z</time>
      </trkpt>
      <trkpt lat="46.12534" lon="6.31365">
        <ele>456</ele>
        <time>2021-03-27T12:16:45Z</time>
      </trkpt>
      <trkpt lat="46.12528" lon="6.31366">
        <ele>456.2</ele>
        <time>2021-03-27T12:16:46Z</time>
      </trkpt>
      <trkpt lat="46.12523" lon="6.31366">
        <ele>456.4</ele>
        <time>2021-03-27T12:16:47Z</time>
      </trkpt>
      <trkpt lat="46.12518" lon="6.31367">
        <ele>456.6</ele>
        <time>2021-03-27T12:16:48Z</time>
      </trkpt>
      <trkpt lat="46.12513" lon="6.31368">
        <ele>456.8</ele>
        <time>2021-03-27T12:16:49Z</time>
      </trkpt>
      <trkpt lat="46.12508" lon="6.31369">
        <ele>457</ele>
        <time>2021-03-27T12:16:50Z</time>
      </trkpt>
      <trkpt lat="46.12503" lon="6.31369">
        <ele>457.2</ele>
        <time>2021-03-27T12:16:51Z</time>
      </trkpt>
      <trkpt lat="46.12497" lon="6.3137">
        <ele>457.4</ele>
        <time>2021-03-27T12:16:52Z</time>
      </trkpt>
      <trkpt lat="46.12492" lon="6.31371">
        <ele>457.4</ele>
        <time>2021-03-27T12:16:53Z</time>
      </trkpt>
      <trkpt lat="46.12486" lon="6.31371">
        <ele>457.8</ele>
        <time>2021-03-27T12:16:54Z</time>
      </trkpt>
      <trkpt lat="46.12481" lon="6.31372">
        <ele>457.8</ele>
        <time>2021-03-27T12:16:55Z</time>
      </trkpt>
      <trkpt lat="46.12475" lon="6.31372">
        <ele>458.2</ele>
        <time>2021-03-27T12:16:56Z</time>
      </trkpt>
      <trkpt lat="46.1247" lon="6.31372">
        <ele>458.4</ele>
        <time>2021-03-27T12:16:57Z</time>
      </trkpt>
      <trkpt lat="46.12464" lon="6.31373">
        <ele>458.4</ele>
        <time>2021-03-27T12:16:58Z</time>
      </trkpt>
      <trkpt lat="46.12459" lon="6.31373">
        <ele>458.6</ele>
        <time>2021-03-27T12:16:59Z</time>
      </trkpt>
      <trkpt lat="46.12453" lon="6.31373">
        <ele>458.8</ele>
        <time>2021-03-27T12:17:00Z</time>
      </trkpt>
      <trkpt lat="46.12448" lon="6.31373">
        <ele>459</ele>
        <time>2021-03-27T12:17:01Z</time>
      </trkpt>
      <trkpt lat="46.12442" lon="6.31373">
        <ele>459.2</ele>
        <time>2021-03-27T12:17:02Z</time>
      </trkpt>
      <trkpt lat="46.12437" lon="6.31373">
        <ele>459.2</ele>
        <time>2021-03-27T12:17:03Z</time>
      </trkpt>
      <trkpt lat="46.12431" lon="6.31373">
        <ele>459.4</ele>
        <time>2021-03-27T12:17:04Z</time>
      </trkpt>
      <trkpt lat="46.12426" lon="6.31373">
        <ele>459.4</ele>
        <time>2021-03-27T12:17:05Z</time>
      </trkpt>
      <trkpt lat="46.1242" lon="6.31373">
        <ele>459.8</ele>
        <time>2021-03-27T12:17:06Z</time>
      </trkpt>
      <trkpt lat="46.12415" lon="6.31373">
        <ele>459.8</ele>
        <time>2021-03-27T12:17:07Z</time>
      </trkpt>
      <trkpt lat="46.12409" lon="6.31373">
        <ele>459.8</ele>
        <time>2021-03-27T12:17:08Z</time>
      </trkpt>
      <trkpt lat="46.12403" lon="6.31373">
        <ele>460</ele>
        <time>2021-03-27T12:17:09Z</time>
      </trkpt>
      <trkpt lat="46.12398" lon="6.31373">
        <ele>460.4</ele>
        <time>2021-03-27T12:17:10Z</time>
      </trkpt>
      <trkpt lat="46.12392" lon="6.31373">
        <ele>460.6</ele>
        <time>2021-03-27T12:17:11Z</time>
      </trkpt>
      <trkpt lat="46.12386" lon="6.31373">
        <ele>460.8</ele>
        <time>2021-03-27T12:17:12Z</time>
      </trkpt>
      <trkpt lat="46.1238" lon="6.31373">
        <ele>461</ele>
        <time>2021-03-27T12:17:13Z</time>
      </trkpt>
      <trkpt lat="46.12374" lon="6.31372">
        <ele>461.2</ele>
        <time>2021-03-27T12:17:14Z</time>
      </trkpt>
      <trkpt lat="46.12369" lon="6.31372">
        <ele>461.4</ele>
        <time>2021-03-27T12:17:15Z</time>
      </trkpt>
      <trkpt lat="46.12363" lon="6.31372">
        <ele>461.8</ele>
        <time>2021-03-27T12:17:16Z</time>
      </trkpt>
      <trkpt lat="46.12357" lon="6.31372">
        <ele>461.8</ele>
        <time>2021-03-27T12:17:17Z</time>
      </trkpt>
      <trkpt lat="46.12351" lon="6.31372">
        <ele>461.8</ele>
        <time>2021-03-27T12:17:18Z</time>
      </trkpt>
      <trkpt lat="46.12345" lon="6.31372">
        <ele>461.8</ele>
        <time>2021-03-27T12:17:19Z</time>
      </trkpt>
      <trkpt lat="46.12339" lon="6.31372">
        <ele>462</ele>
        <time>2021-03-27T12:17:20Z</time>
      </trkpt>
      <trkpt lat="46.12327" lon="6.31372">
        <ele>462</ele>
        <time>2021-03-27T12:17:22Z</time>
      </trkpt>
      <trkpt lat="46.12316" lon="6.31372">
        <ele>462</ele>
        <time>2021-03-27T12:17:24Z</time>
      </trkpt>
      <trkpt lat="46.1231" lon="6.31372">
        <ele>462</ele>
        <time>2021-03-27T12:17:25Z</time>
      </trkpt>
      <trkpt lat="46.12304" lon="6.31371">
        <ele>462.2</ele>
        <time>2021-03-27T12:17:26Z</time>
      </trkpt>
      <trkpt lat="46.12298" lon="6.31371">
        <ele>462.2</ele>
        <time>2021-03-27T12:17:27Z</time>
      </trkpt>
      <trkpt lat="46.12292" lon="6.31371">
        <ele>462.2</ele>
        <time>2021-03-27T12:17:28Z</time>
      </trkpt>
      <trkpt lat="46.12286" lon="6.31371">
        <ele>462.4</ele>
        <time>2021-03-27T12:17:29Z</time>
      </trkpt>
      <trkpt lat="46.1228" lon="6.31371">
        <ele>462.6</ele>
        <time>2021-03-27T12:17:30Z</time>
      </trkpt>
      <trkpt lat="46.12274" lon="6.31371">
        <ele>462.6</ele>
        <time>2021-03-27T12:17:31Z</time>
      </trkpt>
      <trkpt lat="46.12263" lon="6.31371">
        <ele>462.6</ele>
        <time>2021-03-27T12:17:33Z</time>
      </trkpt>
      <trkpt lat="46.12257" lon="6.31371">
        <ele>462.8</ele>
        <time>2021-03-27T12:17:34Z</time>
      </trkpt>
      <trkpt lat="46.12251" lon="6.31371">
        <ele>463</ele>
        <time>2021-03-27T12:17:35Z</time>
      </trkpt>
      <trkpt lat="46.12239" lon="6.3137">
        <ele>463</ele>
        <time>2021-03-27T12:17:37Z</time>
      </trkpt>
      <trkpt lat="46.12232" lon="6.3137">
        <ele>463</ele>
        <time>2021-03-27T12:17:38Z</time>
      </trkpt>
      <trkpt lat="46.12226" lon="6.3137">
        <ele>463</ele>
        <time>2021-03-27T12:17:39Z</time>
      </trkpt>
      <trkpt lat="46.1222" lon="6.3137">
        <ele>463.2</ele>
        <time>2021-03-27T12:17:40Z</time>
      </trkpt>
      <trkpt lat="46.12214" lon="6.3137">
        <ele>463.2</ele>
        <time>2021-03-27T12:17:41Z</time>
      </trkpt>
      <trkpt lat="46.12207" lon="6.31371">
        <ele>463.2</ele>
        <time>2021-03-27T12:17:42Z</time>
      </trkpt>
      <trkpt lat="46.12201" lon="6.31371">
        <ele>463.2</ele>
        <time>2021-03-27T12:17:43Z</time>
      </trkpt>
      <trkpt lat="46.12195" lon="6.31372">
        <ele>463.2</ele>
        <time>2021-03-27T12:17:44Z</time>
      </trkpt>
      <trkpt lat="46.12182" lon="6.31372">
        <ele>463.2</ele>
        <time>2021-03-27T12:17:46Z</time>
      </trkpt>
      <trkpt lat="46.12176" lon="6.31371">
        <ele>463.2</ele>
        <time>2021-03-27T12:17:47Z</time>
      </trkpt>
      <trkpt lat="46.12169" lon="6.3137">
        <ele>463.2</ele>
        <time>2021-03-27T12:17:48Z</time>
      </trkpt>
      <trkpt lat="46.12163" lon="6.31368">
        <ele>463.4</ele>
        <time>2021-03-27T12:17:49Z</time>
      </trkpt>
      <trkpt lat="46.12157" lon="6.31365">
        <ele>463.4</ele>
        <time>2021-03-27T12:17:50Z</time>
      </trkpt>
      <trkpt lat="46.12152" lon="6.31361">
        <ele>463.4</ele>
        <time>2021-03-27T12:17:51Z</time>
      </trkpt>
      <trkpt lat="46.12146" lon="6.3136">
        <ele>463.2</ele>
        <time>2021-03-27T12:17:52Z</time>
      </trkpt>
      <trkpt lat="46.1214" lon="6.31361">
        <ele>463.4</ele>
        <time>2021-03-27T12:17:53Z</time>
      </trkpt>
      <trkpt lat="46.12136" lon="6.31367">
        <ele>463.2</ele>
        <time>2021-03-27T12:17:54Z</time>
      </trkpt>
      <trkpt lat="46.12134" lon="6.31374">
        <ele>463.4</ele>
        <time>2021-03-27T12:17:55Z</time>
      </trkpt>
      <trkpt lat="46.12133" lon="6.31383">
        <ele>463.4</ele>
        <time>2021-03-27T12:17:56Z</time>
      </trkpt>
      <trkpt lat="46.12133" lon="6.31392">
        <ele>463.2</ele>
        <time>2021-03-27T12:17:57Z</time>
      </trkpt>
      <trkpt lat="46.12133" lon="6.31402">
        <ele>463.2</ele>
        <time>2021-03-27T12:17:58Z</time>
      </trkpt>
      <trkpt lat="46.1213" lon="6.3141">
        <ele>463.4</ele>
        <time>2021-03-27T12:17:59Z</time>
      </trkpt>
      <trkpt lat="46.12126" lon="6.31416">
        <ele>463.6</ele>
        <time>2021-03-27T12:18:00Z</time>
      </trkpt>
      <trkpt lat="46.1212" lon="6.3142">
        <ele>463.6</ele>
        <time>2021-03-27T12:18:01Z</time>
      </trkpt>
      <trkpt lat="46.12114" lon="6.31422">
        <ele>463.8</ele>
        <time>2021-03-27T12:18:02Z</time>
      </trkpt>
      <trkpt lat="46.12108" lon="6.31424">
        <ele>463.8</ele>
        <time>2021-03-27T12:18:03Z</time>
      </trkpt>
      <trkpt lat="46.12101" lon="6.31427">
        <ele>463.8</ele>
        <time>2021-03-27T12:18:04Z</time>
      </trkpt>
      <trkpt lat="46.12095" lon="6.31429">
        <ele>463.8</ele>
        <time>2021-03-27T12:18:05Z</time>
      </trkpt>
      <trkpt lat="46.12088" lon="6.31431">
        <ele>463.8</ele>
        <time>2021-03-27T12:18:06Z</time>
      </trkpt>
      <trkpt lat="46.12082" lon="6.31434">
        <ele>463.8</ele>
        <time>2021-03-27T12:18:07Z</time>
      </trkpt>
      <trkpt lat="46.12076" lon="6.31437">
        <ele>463.8</ele>
        <time>2021-03-27T12:18:08Z</time>
      </trkpt>
      <trkpt lat="46.12071" lon="6.3144">
        <ele>463.8</ele>
        <time>2021-03-27T12:18:09Z</time>
      </trkpt>
      <trkpt lat="46.12065" lon="6.31444">
        <ele>463.8</ele>
        <time>2021-03-27T12:18:10Z</time>
      </trkpt>
      <trkpt lat="46.12061" lon="6.31447">
        <ele>463.8</ele>
        <time>2021-03-27T12:18:11Z</time>
      </trkpt>
      <trkpt lat="46.12056" lon="6.31451">
        <ele>463.6</ele>
        <time>2021-03-27T12:18:12Z</time>
      </trkpt>
      <trkpt lat="46.12052" lon="6.31456">
        <ele>463.6</ele>
        <time>2021-03-27T12:18:13Z</time>
      </trkpt>
      <trkpt lat="46.12048" lon="6.31461">
        <ele>463.4</ele>
        <time>2021-03-27T12:18:14Z</time>
      </trkpt>
      <trkpt lat="46.12043" lon="6.31467">
        <ele>463.4</ele>
        <time>2021-03-27T12:18:15Z</time>
      </trkpt>
      <trkpt lat="46.12038" lon="6.31473">
        <ele>463.4</ele>
        <time>2021-03-27T12:18:16Z</time>
      </trkpt>
      <trkpt lat="46.12033" lon="6.31479">
        <ele>463.4</ele>
        <time>2021-03-27T12:18:17Z</time>
      </trkpt>
      <trkpt lat="46.12028" lon="6.31485">
        <ele>463.4</ele>
        <time>2021-03-27T12:18:18Z</time>
      </trkpt>
      <trkpt lat="46.12022" lon="6.31491">
        <ele>463.4</ele>
        <time>2021-03-27T12:18:19Z</time>
      </trkpt>
      <trkpt lat="46.12017" lon="6.31498">
        <ele>463.4</ele>
        <time>2021-03-27T12:18:20Z</time>
      </trkpt>
      <trkpt lat="46.12011" lon="6.31504">
        <ele>463.2</ele>
        <time>2021-03-27T12:18:21Z</time>
      </trkpt>
      <trkpt lat="46.12005" lon="6.3151">
        <ele>463.2</ele>
        <time>2021-03-27T12:18:22Z</time>
      </trkpt>
      <trkpt lat="46.11999" lon="6.31517">
        <ele>463.2</ele>
        <time>2021-03-27T12:18:23Z</time>
      </trkpt>
      <trkpt lat="46.11993" lon="6.31524">
        <ele>463</ele>
        <time>2021-03-27T12:18:24Z</time>
      </trkpt>
      <trkpt lat="46.11988" lon="6.31531">
        <ele>463</ele>
        <time>2021-03-27T12:18:25Z</time>
      </trkpt>
      <trkpt lat="46.11982" lon="6.31537">
        <ele>463</ele>
        <time>2021-03-27T12:18:26Z</time>
      </trkpt>
      <trkpt lat="46.11976" lon="6.31544">
        <ele>462.8</ele>
        <time>2021-03-27T12:18:27Z</time>
      </trkpt>
      <trkpt lat="46.1197" lon="6.3155">
        <ele>462.8</ele>
        <time>2021-03-27T12:18:28Z</time>
      </trkpt>
      <trkpt lat="46.11964" lon="6.31557">
        <ele>462.8</ele>
        <time>2021-03-27T12:18:29Z</time>
      </trkpt>
      <trkpt lat="46.11959" lon="6.31564">
        <ele>462.4</ele>
        <time>2021-03-27T12:18:30Z</time>
      </trkpt>
      <trkpt lat="46.11953" lon="6.3157">
        <ele>462</ele>
        <time>2021-03-27T12:18:31Z</time>
      </trkpt>
      <trkpt lat="46.11947" lon="6.31577">
        <ele>462</ele>
        <time>2021-03-27T12:18:32Z</time>
      </trkpt>
      <trkpt lat="46.11941" lon="6.31584">
        <ele>461.8</ele>
        <time>2021-03-27T12:18:33Z</time>
      </trkpt>
      <trkpt lat="46.11936" lon="6.31591">
        <ele>461.8</ele>
        <time>2021-03-27T12:18:34Z</time>
      </trkpt>
      <trkpt lat="46.1193" lon="6.31598">
        <ele>461.6</ele>
        <time>2021-03-27T12:18:35Z</time>
      </trkpt>
      <trkpt lat="46.11924" lon="6.31605">
        <ele>461.8</ele>
        <time>2021-03-27T12:18:36Z</time>
      </trkpt>
      <trkpt lat="46.11917" lon="6.31612">
        <ele>461.8</ele>
        <time>2021-03-27T12:18:37Z</time>
      </trkpt>
      <trkpt lat="46.11911" lon="6.31619">
        <ele>461.6</ele>
        <time>2021-03-27T12:18:38Z</time>
      </trkpt>
      <trkpt lat="46.11905" lon="6.31626">
        <ele>461.4</ele>
        <time>2021-03-27T12:18:39Z</time>
      </trkpt>
      <trkpt lat="46.11899" lon="6.31633">
        <ele>461.4</ele>
        <time>2021-03-27T12:18:40Z</time>
      </trkpt>
      <trkpt lat="46.11892" lon="6.3164">
        <ele>461.2</ele>
        <time>2021-03-27T12:18:41Z</time>
      </trkpt>
      <trkpt lat="46.11886" lon="6.31647">
        <ele>461.2</ele>
        <time>2021-03-27T12:18:42Z</time>
      </trkpt>
      <trkpt lat="46.11879" lon="6.31654">
        <ele>461</ele>
        <time>2021-03-27T12:18:43Z</time>
      </trkpt>
      <trkpt lat="46.11872" lon="6.31661">
        <ele>461</ele>
        <time>2021-03-27T12:18:44Z</time>
      </trkpt>
      <trkpt lat="46.11865" lon="6.31668">
        <ele>461</ele>
        <time>2021-03-27T12:18:45Z</time>
      </trkpt>
      <trkpt lat="46.11857" lon="6.31675">
        <ele>460.6</ele>
        <time>2021-03-27T12:18:46Z</time>
      </trkpt>
      <trkpt lat="46.1185" lon="6.31682">
        <ele>460.4</ele>
        <time>2021-03-27T12:18:47Z</time>
      </trkpt>
      <trkpt lat="46.11834" lon="6.31696">
        <ele>460.2</ele>
        <time>2021-03-27T12:18:49Z</time>
      </trkpt>
      <trkpt lat="46.11827" lon="6.31703">
        <ele>459.8</ele>
        <time>2021-03-27T12:18:50Z</time>
      </trkpt>
      <trkpt lat="46.11819" lon="6.3171">
        <ele>459.4</ele>
        <time>2021-03-27T12:18:51Z</time>
      </trkpt>
      <trkpt lat="46.11811" lon="6.31717">
        <ele>458.8</ele>
        <time>2021-03-27T12:18:52Z</time>
      </trkpt>
      <trkpt lat="46.11804" lon="6.31724">
        <ele>457.8</ele>
        <time>2021-03-27T12:18:53Z</time>
      </trkpt>
      <trkpt lat="46.11796" lon="6.31732">
        <ele>457</ele>
        <time>2021-03-27T12:18:54Z</time>
      </trkpt>
      <trkpt lat="46.11788" lon="6.31739">
        <ele>456.8</ele>
        <time>2021-03-27T12:18:55Z</time>
      </trkpt>
      <trkpt lat="46.1178" lon="6.31746">
        <ele>456</ele>
        <time>2021-03-27T12:18:56Z</time>
      </trkpt>
      <trkpt lat="46.11771" lon="6.31754">
        <ele>455.4</ele>
        <time>2021-03-27T12:18:57Z</time>
      </trkpt>
      <trkpt lat="46.11763" lon="6.31761">
        <ele>454.8</ele>
        <time>2021-03-27T12:18:58Z</time>
      </trkpt>
      <trkpt lat="46.11755" lon="6.31768">
        <ele>454.2</ele>
        <time>2021-03-27T12:18:59Z</time>
      </trkpt>
      <trkpt lat="46.11746" lon="6.31774">
        <ele>454.2</ele>
        <time>2021-03-27T12:19:00Z</time>
      </trkpt>
      <trkpt lat="46.11737" lon="6.31781">
        <ele>454</ele>
        <time>2021-03-27T12:19:01Z</time>
      </trkpt>
      <trkpt lat="46.11729" lon="6.31788">
        <ele>453.6</ele>
        <time>2021-03-27T12:19:02Z</time>
      </trkpt>
      <trkpt lat="46.1172" lon="6.31794">
        <ele>453.6</ele>
        <time>2021-03-27T12:19:03Z</time>
      </trkpt>
      <trkpt lat="46.11711" lon="6.31801">
        <ele>453.4</ele>
        <time>2021-03-27T12:19:04Z</time>
      </trkpt>
      <trkpt lat="46.11702" lon="6.31807">
        <ele>453.4</ele>
        <time>2021-03-27T12:19:05Z</time>
      </trkpt>
      <trkpt lat="46.11694" lon="6.31813">
        <ele>453.2</ele>
        <time>2021-03-27T12:19:06Z</time>
      </trkpt>
      <trkpt lat="46.11686" lon="6.31819">
        <ele>453</ele>
        <time>2021-03-27T12:19:07Z</time>
      </trkpt>
      <trkpt lat="46.11678" lon="6.31825">
        <ele>452.6</ele>
        <time>2021-03-27T12:19:08Z</time>
      </trkpt>
      <trkpt lat="46.1167" lon="6.31831">
        <ele>452.6</ele>
        <time>2021-03-27T12:19:09Z</time>
      </trkpt>
      <trkpt lat="46.11663" lon="6.31837">
        <ele>452.4</ele>
        <time>2021-03-27T12:19:10Z</time>
      </trkpt>
      <trkpt lat="46.11656" lon="6.31843">
        <ele>452.4</ele>
        <time>2021-03-27T12:19:11Z</time>
      </trkpt>
      <trkpt lat="46.11648" lon="6.31849">
        <ele>452.2</ele>
        <time>2021-03-27T12:19:12Z</time>
      </trkpt>
      <trkpt lat="46.11642" lon="6.31855">
        <ele>452.2</ele>
        <time>2021-03-27T12:19:13Z</time>
      </trkpt>
      <trkpt lat="46.11635" lon="6.31861">
        <ele>452.2</ele>
        <time>2021-03-27T12:19:14Z</time>
      </trkpt>
      <trkpt lat="46.11628" lon="6.31868">
        <ele>452</ele>
        <time>2021-03-27T12:19:15Z</time>
      </trkpt>
      <trkpt lat="46.11622" lon="6.31874">
        <ele>451.8</ele>
        <time>2021-03-27T12:19:16Z</time>
      </trkpt>
      <trkpt lat="46.11616" lon="6.31881">
        <ele>452</ele>
        <time>2021-03-27T12:19:17Z</time>
      </trkpt>
      <trkpt lat="46.1161" lon="6.31887">
        <ele>451.8</ele>
        <time>2021-03-27T12:19:18Z</time>
      </trkpt>
      <trkpt lat="46.11604" lon="6.31894">
        <ele>452</ele>
        <time>2021-03-27T12:19:19Z</time>
      </trkpt>
      <trkpt lat="46.11598" lon="6.319">
        <ele>451.8</ele>
        <time>2021-03-27T12:19:20Z</time>
      </trkpt>
      <trkpt lat="46.11592" lon="6.31907">
        <ele>451.8</ele>
        <time>2021-03-27T12:19:21Z</time>
      </trkpt>
      <trkpt lat="46.11587" lon="6.31914">
        <ele>452</ele>
        <time>2021-03-27T12:19:22Z</time>
      </trkpt>
      <trkpt lat="46.11581" lon="6.3192">
        <ele>452</ele>
        <time>2021-03-27T12:19:23Z</time>
      </trkpt>
      <trkpt lat="46.11576" lon="6.31928">
        <ele>452</ele>
        <time>2021-03-27T12:19:24Z</time>
      </trkpt>
      <trkpt lat="46.11571" lon="6.31935">
        <ele>452</ele>
        <time>2021-03-27T12:19:25Z</time>
      </trkpt>
      <trkpt lat="46.11565" lon="6.31942">
        <ele>452.2</ele>
        <time>2021-03-27T12:19:26Z</time>
      </trkpt>
      <trkpt lat="46.1156" lon="6.3195">
        <ele>452</ele>
        <time>2021-03-27T12:19:27Z</time>
      </trkpt>
      <trkpt lat="46.11555" lon="6.31958">
        <ele>452.2</ele>
        <time>2021-03-27T12:19:28Z</time>
      </trkpt>
      <trkpt lat="46.11549" lon="6.31966">
        <ele>452</ele>
        <time>2021-03-27T12:19:29Z</time>
      </trkpt>
      <trkpt lat="46.11543" lon="6.31974">
        <ele>452.2</ele>
        <time>2021-03-27T12:19:30Z</time>
      </trkpt>
      <trkpt lat="46.11537" lon="6.31982">
        <ele>452.4</ele>
        <time>2021-03-27T12:19:31Z</time>
      </trkpt>
      <trkpt lat="46.11531" lon="6.31991">
        <ele>452.6</ele>
        <time>2021-03-27T12:19:32Z</time>
      </trkpt>
      <trkpt lat="46.11525" lon="6.32">
        <ele>452.8</ele>
        <time>2021-03-27T12:19:33Z</time>
      </trkpt>
      <trkpt lat="46.11519" lon="6.32009">
        <ele>452.8</ele>
        <time>2021-03-27T12:19:34Z</time>
      </trkpt>
      <trkpt lat="46.11512" lon="6.32018">
        <ele>452.8</ele>
        <time>2021-03-27T12:19:35Z</time>
      </trkpt>
      <trkpt lat="46.11506" lon="6.32028">
        <ele>452.8</ele>
        <time>2021-03-27T12:19:36Z</time>
      </trkpt>
      <trkpt lat="46.11499" lon="6.32037">
        <ele>452.8</ele>
        <time>2021-03-27T12:19:37Z</time>
      </trkpt>
      <trkpt lat="46.11492" lon="6.32047">
        <ele>453</ele>
        <time>2021-03-27T12:19:38Z</time>
      </trkpt>
      <trkpt lat="46.11485" lon="6.32057">
        <ele>453</ele>
        <time>2021-03-27T12:19:39Z</time>
      </trkpt>
      <trkpt lat="46.11479" lon="6.32066">
        <ele>452.8</ele>
        <time>2021-03-27T12:19:40Z</time>
      </trkpt>
      <trkpt lat="46.11472" lon="6.32076">
        <ele>452.8</ele>
        <time>2021-03-27T12:19:41Z</time>
      </trkpt>
      <trkpt lat="46.11466" lon="6.32084">
        <ele>452.8</ele>
        <time>2021-03-27T12:19:42Z</time>
      </trkpt>
      <trkpt lat="46.1146" lon="6.32093">
        <ele>452.8</ele>
        <time>2021-03-27T12:19:43Z</time>
      </trkpt>
      <trkpt lat="46.11454" lon="6.32102">
        <ele>452.6</ele>
        <time>2021-03-27T12:19:44Z</time>
      </trkpt>
      <trkpt lat="46.11448" lon="6.32111">
        <ele>452.4</ele>
        <time>2021-03-27T12:19:45Z</time>
      </trkpt>
      <trkpt lat="46.11442" lon="6.32119">
        <ele>452.2</ele>
        <time>2021-03-27T12:19:46Z</time>
      </trkpt>
      <trkpt lat="46.11436" lon="6.32127">
        <ele>452.2</ele>
        <time>2021-03-27T12:19:47Z</time>
      </trkpt>
      <trkpt lat="46.1143" lon="6.32135">
        <ele>451.8</ele>
        <time>2021-03-27T12:19:48Z</time>
      </trkpt>
      <trkpt lat="46.11424" lon="6.32143">
        <ele>451.8</ele>
        <time>2021-03-27T12:19:49Z</time>
      </trkpt>
      <trkpt lat="46.11419" lon="6.3215">
        <ele>451.8</ele>
        <time>2021-03-27T12:19:50Z</time>
      </trkpt>
      <trkpt lat="46.11414" lon="6.32158">
        <ele>451.8</ele>
        <time>2021-03-27T12:19:51Z</time>
      </trkpt>
      <trkpt lat="46.11409" lon="6.32165">
        <ele>451.6</ele>
        <time>2021-03-27T12:19:52Z</time>
      </trkpt>
      <trkpt lat="46.11403" lon="6.32172">
        <ele>451.6</ele>
        <time>2021-03-27T12:19:53Z</time>
      </trkpt>
      <trkpt lat="46.11398" lon="6.32179">
        <ele>451.6</ele>
        <time>2021-03-27T12:19:54Z</time>
      </trkpt>
      <trkpt lat="46.11392" lon="6.32186">
        <ele>451.8</ele>
        <time>2021-03-27T12:19:55Z</time>
      </trkpt>
      <trkpt lat="46.11387" lon="6.32194">
        <ele>451.6</ele>
        <time>2021-03-27T12:19:56Z</time>
      </trkpt>
      <trkpt lat="46.11381" lon="6.32201">
        <ele>451.8</ele>
        <time>2021-03-27T12:19:57Z</time>
      </trkpt>
      <trkpt lat="46.11375" lon="6.32209">
        <ele>451.6</ele>
        <time>2021-03-27T12:19:58Z</time>
      </trkpt>
      <trkpt lat="46.11369" lon="6.32217">
        <ele>451.8</ele>
        <time>2021-03-27T12:19:59Z</time>
      </trkpt>
      <trkpt lat="46.11363" lon="6.32225">
        <ele>451.4</ele>
        <time>2021-03-27T12:20:00Z</time>
      </trkpt>
      <trkpt lat="46.11356" lon="6.32233">
        <ele>451.4</ele>
        <time>2021-03-27T12:20:01Z</time>
      </trkpt>
      <trkpt lat="46.1135" lon="6.32241">
        <ele>451.4</ele>
        <time>2021-03-27T12:20:02Z</time>
      </trkpt>
      <trkpt lat="46.11343" lon="6.3225">
        <ele>451.4</ele>
        <time>2021-03-27T12:20:03Z</time>
      </trkpt>
      <trkpt lat="46.11337" lon="6.32258">
        <ele>451</ele>
        <time>2021-03-27T12:20:04Z</time>
      </trkpt>
      <trkpt lat="46.1133" lon="6.32267">
        <ele>451</ele>
        <time>2021-03-27T12:20:05Z</time>
      </trkpt>
      <trkpt lat="46.11323" lon="6.32276">
        <ele>451</ele>
        <time>2021-03-27T12:20:06Z</time>
      </trkpt>
      <trkpt lat="46.11316" lon="6.32286">
        <ele>450.8</ele>
        <time>2021-03-27T12:20:07Z</time>
      </trkpt>
      <trkpt lat="46.11308" lon="6.32295">
        <ele>450.8</ele>
        <time>2021-03-27T12:20:08Z</time>
      </trkpt>
      <trkpt lat="46.11301" lon="6.32305">
        <ele>450.8</ele>
        <time>2021-03-27T12:20:09Z</time>
      </trkpt>
      <trkpt lat="46.11293" lon="6.32314">
        <ele>450.6</ele>
        <time>2021-03-27T12:20:10Z</time>
      </trkpt>
      <trkpt lat="46.11286" lon="6.32324">
        <ele>450.2</ele>
        <time>2021-03-27T12:20:11Z</time>
      </trkpt>
      <trkpt lat="46.11278" lon="6.32334">
        <ele>450</ele>
        <time>2021-03-27T12:20:12Z</time>
      </trkpt>
      <trkpt lat="46.1127" lon="6.32344">
        <ele>449.8</ele>
        <time>2021-03-27T12:20:13Z</time>
      </trkpt>
      <trkpt lat="46.11263" lon="6.32354">
        <ele>449.6</ele>
        <time>2021-03-27T12:20:14Z</time>
      </trkpt>
      <trkpt lat="46.11255" lon="6.32364">
        <ele>448.8</ele>
        <time>2021-03-27T12:20:15Z</time>
      </trkpt>
      <trkpt lat="46.11248" lon="6.32373">
        <ele>448.2</ele>
        <time>2021-03-27T12:20:16Z</time>
      </trkpt>
      <trkpt lat="46.1124" lon="6.32383">
        <ele>447.2</ele>
        <time>2021-03-27T12:20:17Z</time>
      </trkpt>
      <trkpt lat="46.11233" lon="6.32393">
        <ele>446.2</ele>
        <time>2021-03-27T12:20:18Z</time>
      </trkpt>
      <trkpt lat="46.11225" lon="6.32402">
        <ele>445.4</ele>
        <time>2021-03-27T12:20:19Z</time>
      </trkpt>
      <trkpt lat="46.11218" lon="6.32411">
        <ele>445.2</ele>
        <time>2021-03-27T12:20:20Z</time>
      </trkpt>
      <trkpt lat="46.11211" lon="6.32421">
        <ele>445</ele>
        <time>2021-03-27T12:20:21Z</time>
      </trkpt>
      <trkpt lat="46.11204" lon="6.3243">
        <ele>444.6</ele>
        <time>2021-03-27T12:20:22Z</time>
      </trkpt>
      <trkpt lat="46.11197" lon="6.32439">
        <ele>444.8</ele>
        <time>2021-03-27T12:20:23Z</time>
      </trkpt>
      <trkpt lat="46.1119" lon="6.32448">
        <ele>444.6</ele>
        <time>2021-03-27T12:20:24Z</time>
      </trkpt>
      <trkpt lat="46.11183" lon="6.32457">
        <ele>444.4</ele>
        <time>2021-03-27T12:20:25Z</time>
      </trkpt>
      <trkpt lat="46.11176" lon="6.32466">
        <ele>444.2</ele>
        <time>2021-03-27T12:20:26Z</time>
      </trkpt>
      <trkpt lat="46.11169" lon="6.32475">
        <ele>444.2</ele>
        <time>2021-03-27T12:20:27Z</time>
      </trkpt>
      <trkpt lat="46.11162" lon="6.32484">
        <ele>444.2</ele>
        <time>2021-03-27T12:20:28Z</time>
      </trkpt>
      <trkpt lat="46.11155" lon="6.32493">
        <ele>444.2</ele>
        <time>2021-03-27T12:20:29Z</time>
      </trkpt>
      <trkpt lat="46.11148" lon="6.32503">
        <ele>444</ele>
        <time>2021-03-27T12:20:30Z</time>
      </trkpt>
      <trkpt lat="46.11141" lon="6.32512">
        <ele>443.8</ele>
        <time>2021-03-27T12:20:31Z</time>
      </trkpt>
      <trkpt lat="46.11134" lon="6.32521">
        <ele>443.8</ele>
        <time>2021-03-27T12:20:32Z</time>
      </trkpt>
      <trkpt lat="46.11127" lon="6.3253">
        <ele>443.6</ele>
        <time>2021-03-27T12:20:33Z</time>
      </trkpt>
      <trkpt lat="46.1112" lon="6.32539">
        <ele>443.4</ele>
        <time>2021-03-27T12:20:34Z</time>
      </trkpt>
      <trkpt lat="46.11112" lon="6.32548">
        <ele>443.2</ele>
        <time>2021-03-27T12:20:35Z</time>
      </trkpt>
      <trkpt lat="46.11105" lon="6.32557">
        <ele>443.2</ele>
        <time>2021-03-27T12:20:36Z</time>
      </trkpt>
      <trkpt lat="46.11098" lon="6.32566">
        <ele>443.4</ele>
        <time>2021-03-27T12:20:37Z</time>
      </trkpt>
      <trkpt lat="46.1109" lon="6.32576">
        <ele>443.4</ele>
        <time>2021-03-27T12:20:38Z</time>
      </trkpt>
      <trkpt lat="46.11083" lon="6.32585">
        <ele>443.4</ele>
        <time>2021-03-27T12:20:39Z</time>
      </trkpt>
      <trkpt lat="46.11076" lon="6.32595">
        <ele>443.4</ele>
        <time>2021-03-27T12:20:40Z</time>
      </trkpt>
      <trkpt lat="46.11069" lon="6.32605">
        <ele>443.4</ele>
        <time>2021-03-27T12:20:41Z</time>
      </trkpt>
      <trkpt lat="46.11062" lon="6.32614">
        <ele>443.4</ele>
        <time>2021-03-27T12:20:42Z</time>
      </trkpt>
      <trkpt lat="46.11055" lon="6.32624">
        <ele>443.4</ele>
        <time>2021-03-27T12:20:43Z</time>
      </trkpt>
      <trkpt lat="46.11048" lon="6.32634">
        <ele>443.4</ele>
        <time>2021-03-27T12:20:44Z</time>
      </trkpt>
      <trkpt lat="46.11041" lon="6.32643">
        <ele>443.2</ele>
        <time>2021-03-27T12:20:45Z</time>
      </trkpt>
      <trkpt lat="46.11034" lon="6.32653">
        <ele>443</ele>
        <time>2021-03-27T12:20:46Z</time>
      </trkpt>
      <trkpt lat="46.11027" lon="6.32662">
        <ele>443.2</ele>
        <time>2021-03-27T12:20:47Z</time>
      </trkpt>
      <trkpt lat="46.11021" lon="6.32672">
        <ele>443.2</ele>
        <time>2021-03-27T12:20:48Z</time>
      </trkpt>
      <trkpt lat="46.11015" lon="6.32681">
        <ele>443.2</ele>
        <time>2021-03-27T12:20:49Z</time>
      </trkpt>
      <trkpt lat="46.11009" lon="6.32691">
        <ele>443</ele>
        <time>2021-03-27T12:20:50Z</time>
      </trkpt>
      <trkpt lat="46.11003" lon="6.327">
        <ele>443</ele>
        <time>2021-03-27T12:20:51Z</time>
      </trkpt>
      <trkpt lat="46.10997" lon="6.3271">
        <ele>442.6</ele>
        <time>2021-03-27T12:20:52Z</time>
      </trkpt>
      <trkpt lat="46.10992" lon="6.32719">
        <ele>442.4</ele>
        <time>2021-03-27T12:20:53Z</time>
      </trkpt>
      <trkpt lat="46.10985" lon="6.32727">
        <ele>442.4</ele>
        <time>2021-03-27T12:20:54Z</time>
      </trkpt>
      <trkpt lat="46.10979" lon="6.32735">
        <ele>442.4</ele>
        <time>2021-03-27T12:20:55Z</time>
      </trkpt>
      <trkpt lat="46.10973" lon="6.32743">
        <ele>442.4</ele>
        <time>2021-03-27T12:20:56Z</time>
      </trkpt>
      <trkpt lat="46.10967" lon="6.32751">
        <ele>442.2</ele>
        <time>2021-03-27T12:20:57Z</time>
      </trkpt>
      <trkpt lat="46.10961" lon="6.32758">
        <ele>442.4</ele>
        <time>2021-03-27T12:20:58Z</time>
      </trkpt>
      <trkpt lat="46.10955" lon="6.32766">
        <ele>442.2</ele>
        <time>2021-03-27T12:20:59Z</time>
      </trkpt>
      <trkpt lat="46.10949" lon="6.32773">
        <ele>442.4</ele>
        <time>2021-03-27T12:21:00Z</time>
      </trkpt>
      <trkpt lat="46.10943" lon="6.3278">
        <ele>442.4</ele>
        <time>2021-03-27T12:21:01Z</time>
      </trkpt>
      <trkpt lat="46.10937" lon="6.32787">
        <ele>442.2</ele>
        <time>2021-03-27T12:21:02Z</time>
      </trkpt>
      <trkpt lat="46.10931" lon="6.32794">
        <ele>442.4</ele>
        <time>2021-03-27T12:21:03Z</time>
      </trkpt>
      <trkpt lat="46.10925" lon="6.328">
        <ele>442.6</ele>
        <time>2021-03-27T12:21:04Z</time>
      </trkpt>
      <trkpt lat="46.10919" lon="6.32807">
        <ele>442.8</ele>
        <time>2021-03-27T12:21:05Z</time>
      </trkpt>
      <trkpt lat="46.10913" lon="6.32814">
        <ele>443</ele>
        <time>2021-03-27T12:21:06Z</time>
      </trkpt>
      <trkpt lat="46.10907" lon="6.32821">
        <ele>443.2</ele>
        <time>2021-03-27T12:21:07Z</time>
      </trkpt>
      <trkpt lat="46.10901" lon="6.32828">
        <ele>443.4</ele>
        <time>2021-03-27T12:21:08Z</time>
      </trkpt>
      <trkpt lat="46.10895" lon="6.32835">
        <ele>443.4</ele>
        <time>2021-03-27T12:21:09Z</time>
      </trkpt>
      <trkpt lat="46.10889" lon="6.32841">
        <ele>443.8</ele>
        <time>2021-03-27T12:21:10Z</time>
      </trkpt>
      <trkpt lat="46.10883" lon="6.32848">
        <ele>443.8</ele>
        <time>2021-03-27T12:21:11Z</time>
      </trkpt>
      <trkpt lat="46.10877" lon="6.32855">
        <ele>444</ele>
        <time>2021-03-27T12:21:12Z</time>
      </trkpt>
      <trkpt lat="46.10871" lon="6.32862">
        <ele>444</ele>
        <time>2021-03-27T12:21:13Z</time>
      </trkpt>
      <trkpt lat="46.10865" lon="6.32868">
        <ele>444.4</ele>
        <time>2021-03-27T12:21:14Z</time>
      </trkpt>
      <trkpt lat="46.10859" lon="6.32875">
        <ele>444.2</ele>
        <time>2021-03-27T12:21:15Z</time>
      </trkpt>
      <trkpt lat="46.10853" lon="6.32882">
        <ele>444.4</ele>
        <time>2021-03-27T12:21:16Z</time>
      </trkpt>
      <trkpt lat="46.10847" lon="6.32889">
        <ele>444.6</ele>
        <time>2021-03-27T12:21:17Z</time>
      </trkpt>
      <trkpt lat="46.10841" lon="6.32896">
        <ele>444.6</ele>
        <time>2021-03-27T12:21:18Z</time>
      </trkpt>
      <trkpt lat="46.10835" lon="6.32903">
        <ele>444.8</ele>
        <time>2021-03-27T12:21:19Z</time>
      </trkpt>
      <trkpt lat="46.10829" lon="6.3291">
        <ele>444.8</ele>
        <time>2021-03-27T12:21:20Z</time>
      </trkpt>
      <trkpt lat="46.10823" lon="6.32917">
        <ele>444.8</ele>
        <time>2021-03-27T12:21:21Z</time>
      </trkpt>
      <trkpt lat="46.10817" lon="6.32924">
        <ele>444.8</ele>
        <time>2021-03-27T12:21:22Z</time>
      </trkpt>
      <trkpt lat="46.10811" lon="6.32931">
        <ele>444.8</ele>
        <time>2021-03-27T12:21:23Z</time>
      </trkpt>
      <trkpt lat="46.10805" lon="6.32938">
        <ele>444.8</ele>
        <time>2021-03-27T12:21:24Z</time>
      </trkpt>
      <trkpt lat="46.10798" lon="6.32945">
        <ele>444.8</ele>
        <time>2021-03-27T12:21:25Z</time>
      </trkpt>
      <trkpt lat="46.10792" lon="6.32952">
        <ele>445</ele>
        <time>2021-03-27T12:21:26Z</time>
      </trkpt>
      <trkpt lat="46.10786" lon="6.3296">
        <ele>445</ele>
        <time>2021-03-27T12:21:27Z</time>
      </trkpt>
      <trkpt lat="46.10779" lon="6.32967">
        <ele>444.8</ele>
        <time>2021-03-27T12:21:28Z</time>
      </trkpt>
      <trkpt lat="46.10773" lon="6.32975">
        <ele>445</ele>
        <time>2021-03-27T12:21:29Z</time>
      </trkpt>
      <trkpt lat="46.10766" lon="6.32982">
        <ele>445</ele>
        <time>2021-03-27T12:21:30Z</time>
      </trkpt>
      <trkpt lat="46.1076" lon="6.32989">
        <ele>445</ele>
        <time>2021-03-27T12:21:31Z</time>
      </trkpt>
      <trkpt lat="46.10753" lon="6.32997">
        <ele>444.8</ele>
        <time>2021-03-27T12:21:32Z</time>
      </trkpt>
      <trkpt lat="46.10747" lon="6.33005">
        <ele>445</ele>
        <time>2021-03-27T12:21:33Z</time>
      </trkpt>
      <trkpt lat="46.10741" lon="6.33013">
        <ele>444.8</ele>
        <time>2021-03-27T12:21:34Z</time>
      </trkpt>
      <trkpt lat="46.10735" lon="6.33021">
        <ele>444.8</ele>
        <time>2021-03-27T12:21:35Z</time>
      </trkpt>
      <trkpt lat="46.10729" lon="6.3303">
        <ele>444.6</ele>
        <time>2021-03-27T12:21:36Z</time>
      </trkpt>
      <trkpt lat="46.10724" lon="6.33039">
        <ele>444.6</ele>
        <time>2021-03-27T12:21:37Z</time>
      </trkpt>
      <trkpt lat="46.10719" lon="6.33048">
        <ele>444.6</ele>
        <time>2021-03-27T12:21:38Z</time>
      </trkpt>
      <trkpt lat="46.10714" lon="6.33058">
        <ele>444.4</ele>
        <time>2021-03-27T12:21:39Z</time>
      </trkpt>
      <trkpt lat="46.10709" lon="6.33068">
        <ele>444.4</ele>
        <time>2021-03-27T12:21:40Z</time>
      </trkpt>
      <trkpt lat="46.10704" lon="6.33078">
        <ele>444.2</ele>
        <time>2021-03-27T12:21:41Z</time>
      </trkpt>
      <trkpt lat="46.107" lon="6.33088">
        <ele>444.2</ele>
        <time>2021-03-27T12:21:42Z</time>
      </trkpt>
      <trkpt lat="46.10695" lon="6.33098">
        <ele>444.2</ele>
        <time>2021-03-27T12:21:43Z</time>
      </trkpt>
      <trkpt lat="46.10691" lon="6.33108">
        <ele>444</ele>
        <time>2021-03-27T12:21:44Z</time>
      </trkpt>
      <trkpt lat="46.10687" lon="6.33118">
        <ele>444</ele>
        <time>2021-03-27T12:21:45Z</time>
      </trkpt>
      <trkpt lat="46.10682" lon="6.33129">
        <ele>444</ele>
        <time>2021-03-27T12:21:46Z</time>
      </trkpt>
      <trkpt lat="46.10679" lon="6.33139">
        <ele>444</ele>
        <time>2021-03-27T12:21:47Z</time>
      </trkpt>
      <trkpt lat="46.10675" lon="6.33149">
        <ele>443.8</ele>
        <time>2021-03-27T12:21:48Z</time>
      </trkpt>
      <trkpt lat="46.10672" lon="6.3316">
        <ele>443.8</ele>
        <time>2021-03-27T12:21:49Z</time>
      </trkpt>
      <trkpt lat="46.10668" lon="6.3317">
        <ele>443.8</ele>
        <time>2021-03-27T12:21:50Z</time>
      </trkpt>
      <trkpt lat="46.10665" lon="6.3318">
        <ele>443.8</ele>
        <time>2021-03-27T12:21:51Z</time>
      </trkpt>
      <trkpt lat="46.10662" lon="6.3319">
        <ele>443.8</ele>
        <time>2021-03-27T12:21:52Z</time>
      </trkpt>
      <trkpt lat="46.10658" lon="6.332">
        <ele>443.6</ele>
        <time>2021-03-27T12:21:53Z</time>
      </trkpt>
      <trkpt lat="46.10655" lon="6.3321">
        <ele>443.8</ele>
        <time>2021-03-27T12:21:54Z</time>
      </trkpt>
      <trkpt lat="46.10651" lon="6.33219">
        <ele>443.8</ele>
        <time>2021-03-27T12:21:55Z</time>
      </trkpt>
      <trkpt lat="46.10646" lon="6.33228">
        <ele>443.8</ele>
        <time>2021-03-27T12:21:56Z</time>
      </trkpt>
      <trkpt lat="46.10642" lon="6.33237">
        <ele>443.8</ele>
        <time>2021-03-27T12:21:57Z</time>
      </trkpt>
      <trkpt lat="46.10638" lon="6.33247">
        <ele>443.8</ele>
        <time>2021-03-27T12:21:58Z</time>
      </trkpt>
      <trkpt lat="46.10633" lon="6.33256">
        <ele>443.6</ele>
        <time>2021-03-27T12:21:59Z</time>
      </trkpt>
      <trkpt lat="46.10629" lon="6.33265">
        <ele>443.8</ele>
        <time>2021-03-27T12:22:00Z</time>
      </trkpt>
      <trkpt lat="46.10624" lon="6.33273">
        <ele>444.2</ele>
        <time>2021-03-27T12:22:01Z</time>
      </trkpt>
      <trkpt lat="46.10619" lon="6.33282">
        <ele>444.2</ele>
        <time>2021-03-27T12:22:02Z</time>
      </trkpt>
      <trkpt lat="46.10613" lon="6.3329">
        <ele>444.4</ele>
        <time>2021-03-27T12:22:03Z</time>
      </trkpt>
      <trkpt lat="46.10608" lon="6.33298">
        <ele>444.6</ele>
        <time>2021-03-27T12:22:04Z</time>
      </trkpt>
      <trkpt lat="46.10602" lon="6.33307">
        <ele>444.8</ele>
        <time>2021-03-27T12:22:05Z</time>
      </trkpt>
      <trkpt lat="46.10596" lon="6.33316">
        <ele>445.2</ele>
        <time>2021-03-27T12:22:06Z</time>
      </trkpt>
      <trkpt lat="46.1059" lon="6.33325">
        <ele>445.2</ele>
        <time>2021-03-27T12:22:07Z</time>
      </trkpt>
      <trkpt lat="46.10584" lon="6.33335">
        <ele>445.6</ele>
        <time>2021-03-27T12:22:08Z</time>
      </trkpt>
      <trkpt lat="46.10577" lon="6.33344">
        <ele>445.6</ele>
        <time>2021-03-27T12:22:09Z</time>
      </trkpt>
      <trkpt lat="46.10571" lon="6.33353">
        <ele>445.6</ele>
        <time>2021-03-27T12:22:10Z</time>
      </trkpt>
      <trkpt lat="46.10564" lon="6.33361">
        <ele>445.6</ele>
        <time>2021-03-27T12:22:11Z</time>
      </trkpt>
      <trkpt lat="46.10558" lon="6.3337">
        <ele>445.4</ele>
        <time>2021-03-27T12:22:12Z</time>
      </trkpt>
      <trkpt lat="46.10551" lon="6.33378">
        <ele>445.6</ele>
        <time>2021-03-27T12:22:13Z</time>
      </trkpt>
      <trkpt lat="46.10544" lon="6.33387">
        <ele>445.6</ele>
        <time>2021-03-27T12:22:14Z</time>
      </trkpt>
      <trkpt lat="46.10537" lon="6.33395">
        <ele>445.4</ele>
        <time>2021-03-27T12:22:15Z</time>
      </trkpt>
      <trkpt lat="46.1053" lon="6.33402">
        <ele>445.6</ele>
        <time>2021-03-27T12:22:16Z</time>
      </trkpt>
      <trkpt lat="46.10522" lon="6.33409">
        <ele>445.4</ele>
        <time>2021-03-27T12:22:17Z</time>
      </trkpt>
      <trkpt lat="46.10514" lon="6.33415">
        <ele>445</ele>
        <time>2021-03-27T12:22:18Z</time>
      </trkpt>
      <trkpt lat="46.10507" lon="6.33422">
        <ele>444.2</ele>
        <time>2021-03-27T12:22:19Z</time>
      </trkpt>
      <trkpt lat="46.105" lon="6.3343">
        <ele>443.8</ele>
        <time>2021-03-27T12:22:20Z</time>
      </trkpt>
      <trkpt lat="46.10493" lon="6.33439">
        <ele>443.6</ele>
        <time>2021-03-27T12:22:21Z</time>
      </trkpt>
      <trkpt lat="46.10487" lon="6.33448">
        <ele>443.4</ele>
        <time>2021-03-27T12:22:22Z</time>
      </trkpt>
      <trkpt lat="46.10481" lon="6.33457">
        <ele>443.4</ele>
        <time>2021-03-27T12:22:23Z</time>
      </trkpt>
      <trkpt lat="46.10475" lon="6.33465">
        <ele>443</ele>
        <time>2021-03-27T12:22:24Z</time>
      </trkpt>
      <trkpt lat="46.10468" lon="6.33474">
        <ele>442.6</ele>
        <time>2021-03-27T12:22:25Z</time>
      </trkpt>
      <trkpt lat="46.10462" lon="6.33482">
        <ele>442.6</ele>
        <time>2021-03-27T12:22:26Z</time>
      </trkpt>
      <trkpt lat="46.10455" lon="6.3349">
        <ele>442.4</ele>
        <time>2021-03-27T12:22:27Z</time>
      </trkpt>
      <trkpt lat="46.10449" lon="6.33498">
        <ele>442.4</ele>
        <time>2021-03-27T12:22:28Z</time>
      </trkpt>
      <trkpt lat="46.10442" lon="6.33506">
        <ele>442.4</ele>
        <time>2021-03-27T12:22:29Z</time>
      </trkpt>
      <trkpt lat="46.10436" lon="6.33514">
        <ele>442.2</ele>
        <time>2021-03-27T12:22:30Z</time>
      </trkpt>
      <trkpt lat="46.10429" lon="6.33522">
        <ele>442</ele>
        <time>2021-03-27T12:22:31Z</time>
      </trkpt>
      <trkpt lat="46.10423" lon="6.3353">
        <ele>441.8</ele>
        <time>2021-03-27T12:22:32Z</time>
      </trkpt>
      <trkpt lat="46.10416" lon="6.33539">
        <ele>441.8</ele>
        <time>2021-03-27T12:22:33Z</time>
      </trkpt>
      <trkpt lat="46.1041" lon="6.33548">
        <ele>441.8</ele>
        <time>2021-03-27T12:22:34Z</time>
      </trkpt>
      <trkpt lat="46.10404" lon="6.33556">
        <ele>441.8</ele>
        <time>2021-03-27T12:22:35Z</time>
      </trkpt>
      <trkpt lat="46.10398" lon="6.33565">
        <ele>441.8</ele>
        <time>2021-03-27T12:22:36Z</time>
      </trkpt>
      <trkpt lat="46.10392" lon="6.33574">
        <ele>441.8</ele>
        <time>2021-03-27T12:22:37Z</time>
      </trkpt>
      <trkpt lat="46.10386" lon="6.33582">
        <ele>441.6</ele>
        <time>2021-03-27T12:22:38Z</time>
      </trkpt>
      <trkpt lat="46.1038" lon="6.3359">
        <ele>441.6</ele>
        <time>2021-03-27T12:22:39Z</time>
      </trkpt>
      <trkpt lat="46.10374" lon="6.33597">
        <ele>441.4</ele>
        <time>2021-03-27T12:22:40Z</time>
      </trkpt>
      <trkpt lat="46.10368" lon="6.33605">
        <ele>441.4</ele>
        <time>2021-03-27T12:22:41Z</time>
      </trkpt>
      <trkpt lat="46.10362" lon="6.33613">
        <ele>441.4</ele>
        <time>2021-03-27T12:22:42Z</time>
      </trkpt>
      <trkpt lat="46.10355" lon="6.3362">
        <ele>441.4</ele>
        <time>2021-03-27T12:22:43Z</time>
      </trkpt>
      <trkpt lat="46.10349" lon="6.33628">
        <ele>441.4</ele>
        <time>2021-03-27T12:22:44Z</time>
      </trkpt>
      <trkpt lat="46.10343" lon="6.33636">
        <ele>441.2</ele>
        <time>2021-03-27T12:22:45Z</time>
      </trkpt>
      <trkpt lat="46.10336" lon="6.33644">
        <ele>441.4</ele>
        <time>2021-03-27T12:22:46Z</time>
      </trkpt>
      <trkpt lat="46.1033" lon="6.33652">
        <ele>441.2</ele>
        <time>2021-03-27T12:22:47Z</time>
      </trkpt>
      <trkpt lat="46.10324" lon="6.3366">
        <ele>441.4</ele>
        <time>2021-03-27T12:22:48Z</time>
      </trkpt>
      <trkpt lat="46.10317" lon="6.33668">
        <ele>441.2</ele>
        <time>2021-03-27T12:22:49Z</time>
      </trkpt>
      <trkpt lat="46.10311" lon="6.33676">
        <ele>441.4</ele>
        <time>2021-03-27T12:22:50Z</time>
      </trkpt>
      <trkpt lat="46.10304" lon="6.33683">
        <ele>441.4</ele>
        <time>2021-03-27T12:22:51Z</time>
      </trkpt>
      <trkpt lat="46.10296" lon="6.33691">
        <ele>441.4</ele>
        <time>2021-03-27T12:22:52Z</time>
      </trkpt>
      <trkpt lat="46.10289" lon="6.33698">
        <ele>441.4</ele>
        <time>2021-03-27T12:22:53Z</time>
      </trkpt>
      <trkpt lat="46.10281" lon="6.33704">
        <ele>441.2</ele>
        <time>2021-03-27T12:22:54Z</time>
      </trkpt>
      <trkpt lat="46.10273" lon="6.3371">
        <ele>441.4</ele>
        <time>2021-03-27T12:22:55Z</time>
      </trkpt>
      <trkpt lat="46.10266" lon="6.33716">
        <ele>441.2</ele>
        <time>2021-03-27T12:22:56Z</time>
      </trkpt>
      <trkpt lat="46.10258" lon="6.33722">
        <ele>441.2</ele>
        <time>2021-03-27T12:22:57Z</time>
      </trkpt>
      <trkpt lat="46.1025" lon="6.33727">
        <ele>441.4</ele>
        <time>2021-03-27T12:22:58Z</time>
      </trkpt>
      <trkpt lat="46.10241" lon="6.33732">
        <ele>441.4</ele>
        <time>2021-03-27T12:22:59Z</time>
      </trkpt>
      <trkpt lat="46.10233" lon="6.33737">
        <ele>441.2</ele>
        <time>2021-03-27T12:23:00Z</time>
      </trkpt>
      <trkpt lat="46.10225" lon="6.33741">
        <ele>441.2</ele>
        <time>2021-03-27T12:23:01Z</time>
      </trkpt>
      <trkpt lat="46.10218" lon="6.33746">
        <ele>441</ele>
        <time>2021-03-27T12:23:02Z</time>
      </trkpt>
      <trkpt lat="46.1021" lon="6.3375">
        <ele>440.6</ele>
        <time>2021-03-27T12:23:03Z</time>
      </trkpt>
      <trkpt lat="46.10202" lon="6.33754">
        <ele>440.4</ele>
        <time>2021-03-27T12:23:04Z</time>
      </trkpt>
      <trkpt lat="46.10195" lon="6.33759">
        <ele>440.2</ele>
        <time>2021-03-27T12:23:05Z</time>
      </trkpt>
      <trkpt lat="46.10187" lon="6.33763">
        <ele>440.2</ele>
        <time>2021-03-27T12:23:06Z</time>
      </trkpt>
      <trkpt lat="46.1018" lon="6.33767">
        <ele>440.2</ele>
        <time>2021-03-27T12:23:07Z</time>
      </trkpt>
      <trkpt lat="46.10172" lon="6.33771">
        <ele>440.2</ele>
        <time>2021-03-27T12:23:08Z</time>
      </trkpt>
      <trkpt lat="46.10165" lon="6.33775">
        <ele>440</ele>
        <time>2021-03-27T12:23:09Z</time>
      </trkpt>
      <trkpt lat="46.10158" lon="6.33779">
        <ele>440.2</ele>
        <time>2021-03-27T12:23:10Z</time>
      </trkpt>
      <trkpt lat="46.10151" lon="6.33783">
        <ele>440.2</ele>
        <time>2021-03-27T12:23:11Z</time>
      </trkpt>
      <trkpt lat="46.10144" lon="6.33787">
        <ele>440.2</ele>
        <time>2021-03-27T12:23:12Z</time>
      </trkpt>
      <trkpt lat="46.10136" lon="6.33791">
        <ele>440</ele>
        <time>2021-03-27T12:23:13Z</time>
      </trkpt>
      <trkpt lat="46.10129" lon="6.33795">
        <ele>440</ele>
        <time>2021-03-27T12:23:14Z</time>
      </trkpt>
      <trkpt lat="46.10122" lon="6.338">
        <ele>440.2</ele>
        <time>2021-03-27T12:23:15Z</time>
      </trkpt>
      <trkpt lat="46.10114" lon="6.33804">
        <ele>440.2</ele>
        <time>2021-03-27T12:23:16Z</time>
      </trkpt>
      <trkpt lat="46.10107" lon="6.33808">
        <ele>440.2</ele>
        <time>2021-03-27T12:23:17Z</time>
      </trkpt>
      <trkpt lat="46.101" lon="6.33812">
        <ele>440.2</ele>
        <time>2021-03-27T12:23:18Z</time>
      </trkpt>
      <trkpt lat="46.10092" lon="6.33816">
        <ele>440.2</ele>
        <time>2021-03-27T12:23:19Z</time>
      </trkpt>
      <trkpt lat="46.10085" lon="6.3382">
        <ele>440.4</ele>
        <time>2021-03-27T12:23:20Z</time>
      </trkpt>
      <trkpt lat="46.10078" lon="6.33824">
        <ele>440.4</ele>
        <time>2021-03-27T12:23:21Z</time>
      </trkpt>
      <trkpt lat="46.10071" lon="6.33829">
        <ele>440.8</ele>
        <time>2021-03-27T12:23:22Z</time>
      </trkpt>
      <trkpt lat="46.10064" lon="6.33833">
        <ele>441</ele>
        <time>2021-03-27T12:23:23Z</time>
      </trkpt>
      <trkpt lat="46.10057" lon="6.33837">
        <ele>441.2</ele>
        <time>2021-03-27T12:23:24Z</time>
      </trkpt>
      <trkpt lat="46.1005" lon="6.33841">
        <ele>441.2</ele>
        <time>2021-03-27T12:23:25Z</time>
      </trkpt>
      <trkpt lat="46.10043" lon="6.33846">
        <ele>441.4</ele>
        <time>2021-03-27T12:23:26Z</time>
      </trkpt>
      <trkpt lat="46.10036" lon="6.3385">
        <ele>441.4</ele>
        <time>2021-03-27T12:23:27Z</time>
      </trkpt>
      <trkpt lat="46.10029" lon="6.33855">
        <ele>441.4</ele>
        <time>2021-03-27T12:23:28Z</time>
      </trkpt>
      <trkpt lat="46.10023" lon="6.33859">
        <ele>441.4</ele>
        <time>2021-03-27T12:23:29Z</time>
      </trkpt>
      <trkpt lat="46.10016" lon="6.33864">
        <ele>441.6</ele>
        <time>2021-03-27T12:23:30Z</time>
      </trkpt>
      <trkpt lat="46.1001" lon="6.33869">
        <ele>441.4</ele>
        <time>2021-03-27T12:23:31Z</time>
      </trkpt>
      <trkpt lat="46.10003" lon="6.33873">
        <ele>441.4</ele>
        <time>2021-03-27T12:23:32Z</time>
      </trkpt>
      <trkpt lat="46.09997" lon="6.33878">
        <ele>441.2</ele>
        <time>2021-03-27T12:23:33Z</time>
      </trkpt>
      <trkpt lat="46.0999" lon="6.33883">
        <ele>441.4</ele>
        <time>2021-03-27T12:23:34Z</time>
      </trkpt>
      <trkpt lat="46.09983" lon="6.33888">
        <ele>441.4</ele>
        <time>2021-03-27T12:23:35Z</time>
      </trkpt>
      <trkpt lat="46.09977" lon="6.33893">
        <ele>441.2</ele>
        <time>2021-03-27T12:23:36Z</time>
      </trkpt>
      <trkpt lat="46.0997" lon="6.33898">
        <ele>441.2</ele>
        <time>2021-03-27T12:23:37Z</time>
      </trkpt>
      <trkpt lat="46.09963" lon="6.33903">
        <ele>441.2</ele>
        <time>2021-03-27T12:23:38Z</time>
      </trkpt>
      <trkpt lat="46.09956" lon="6.33908">
        <ele>441.2</ele>
        <time>2021-03-27T12:23:39Z</time>
      </trkpt>
      <trkpt lat="46.0995" lon="6.33913">
        <ele>441</ele>
        <time>2021-03-27T12:23:40Z</time>
      </trkpt>
      <trkpt lat="46.09943" lon="6.33918">
        <ele>441.2</ele>
        <time>2021-03-27T12:23:41Z</time>
      </trkpt>
      <trkpt lat="46.09936" lon="6.33924">
        <ele>441</ele>
        <time>2021-03-27T12:23:42Z</time>
      </trkpt>
      <trkpt lat="46.09929" lon="6.33929">
        <ele>441.2</ele>
        <time>2021-03-27T12:23:43Z</time>
      </trkpt>
      <trkpt lat="46.09922" lon="6.33934">
        <ele>441</ele>
        <time>2021-03-27T12:23:44Z</time>
      </trkpt>
      <trkpt lat="46.09915" lon="6.33939">
        <ele>441.2</ele>
        <time>2021-03-27T12:23:45Z</time>
      </trkpt>
      <trkpt lat="46.09908" lon="6.33944">
        <ele>441</ele>
        <time>2021-03-27T12:23:46Z</time>
      </trkpt>
      <trkpt lat="46.09901" lon="6.3395">
        <ele>441.2</ele>
        <time>2021-03-27T12:23:47Z</time>
      </trkpt>
      <trkpt lat="46.09894" lon="6.33955">
        <ele>441.2</ele>
        <time>2021-03-27T12:23:48Z</time>
      </trkpt>
      <trkpt lat="46.09887" lon="6.33961">
        <ele>441.2</ele>
        <time>2021-03-27T12:23:49Z</time>
      </trkpt>
      <trkpt lat="46.0988" lon="6.33966">
        <ele>441</ele>
        <time>2021-03-27T12:23:50Z</time>
      </trkpt>
      <trkpt lat="46.09873" lon="6.33971">
        <ele>441</ele>
        <time>2021-03-27T12:23:51Z</time>
      </trkpt>
      <trkpt lat="46.09866" lon="6.33977">
        <ele>441</ele>
        <time>2021-03-27T12:23:52Z</time>
      </trkpt>
      <trkpt lat="46.09859" lon="6.33982">
        <ele>440.8</ele>
        <time>2021-03-27T12:23:53Z</time>
      </trkpt>
      <trkpt lat="46.09852" lon="6.33988">
        <ele>440.8</ele>
        <time>2021-03-27T12:23:54Z</time>
      </trkpt>
      <trkpt lat="46.09845" lon="6.33993">
        <ele>440.4</ele>
        <time>2021-03-27T12:23:55Z</time>
      </trkpt>
      <trkpt lat="46.09837" lon="6.33998">
        <ele>440.2</ele>
        <time>2021-03-27T12:23:56Z</time>
      </trkpt>
      <trkpt lat="46.0983" lon="6.34003">
        <ele>440</ele>
        <time>2021-03-27T12:23:57Z</time>
      </trkpt>
      <trkpt lat="46.09823" lon="6.34009">
        <ele>440</ele>
        <time>2021-03-27T12:23:58Z</time>
      </trkpt>
      <trkpt lat="46.09816" lon="6.34014">
        <ele>439.8</ele>
        <time>2021-03-27T12:23:59Z</time>
      </trkpt>
      <trkpt lat="46.09809" lon="6.34019">
        <ele>439.8</ele>
        <time>2021-03-27T12:24:00Z</time>
      </trkpt>
      <trkpt lat="46.09802" lon="6.34024">
        <ele>439.6</ele>
        <time>2021-03-27T12:24:01Z</time>
      </trkpt>
      <trkpt lat="46.09796" lon="6.34029">
        <ele>439.4</ele>
        <time>2021-03-27T12:24:02Z</time>
      </trkpt>
      <trkpt lat="46.09789" lon="6.34035">
        <ele>439.4</ele>
        <time>2021-03-27T12:24:03Z</time>
      </trkpt>
      <trkpt lat="46.09782" lon="6.3404">
        <ele>439.4</ele>
        <time>2021-03-27T12:24:04Z</time>
      </trkpt>
      <trkpt lat="46.09775" lon="6.34045">
        <ele>439.4</ele>
        <time>2021-03-27T12:24:05Z</time>
      </trkpt>
      <trkpt lat="46.09769" lon="6.3405">
        <ele>439.4</ele>
        <time>2021-03-27T12:24:06Z</time>
      </trkpt>
      <trkpt lat="46.09762" lon="6.34055">
        <ele>439.4</ele>
        <time>2021-03-27T12:24:07Z</time>
      </trkpt>
      <trkpt lat="46.09755" lon="6.3406">
        <ele>439.6</ele>
        <time>2021-03-27T12:24:08Z</time>
      </trkpt>
      <trkpt lat="46.09749" lon="6.34065">
        <ele>439.4</ele>
        <time>2021-03-27T12:24:09Z</time>
      </trkpt>
      <trkpt lat="46.09742" lon="6.3407">
        <ele>439.6</ele>
        <time>2021-03-27T12:24:10Z</time>
      </trkpt>
      <trkpt lat="46.09735" lon="6.34075">
        <ele>439.6</ele>
        <time>2021-03-27T12:24:11Z</time>
      </trkpt>
      <trkpt lat="46.09728" lon="6.3408">
        <ele>439.6</ele>
        <time>2021-03-27T12:24:12Z</time>
      </trkpt>
      <trkpt lat="46.09721" lon="6.34085">
        <ele>439.8</ele>
        <time>2021-03-27T12:24:13Z</time>
      </trkpt>
      <trkpt lat="46.09714" lon="6.3409">
        <ele>439.8</ele>
        <time>2021-03-27T12:24:14Z</time>
      </trkpt>
      <trkpt lat="46.09707" lon="6.34096">
        <ele>440</ele>
        <time>2021-03-27T12:24:15Z</time>
      </trkpt>
      <trkpt lat="46.097" lon="6.34101">
        <ele>440</ele>
        <time>2021-03-27T12:24:16Z</time>
      </trkpt>
      <trkpt lat="46.09693" lon="6.34106">
        <ele>440</ele>
        <time>2021-03-27T12:24:17Z</time>
      </trkpt>
      <trkpt lat="46.09686" lon="6.34111">
        <ele>440.2</ele>
        <time>2021-03-27T12:24:18Z</time>
      </trkpt>
      <trkpt lat="46.09679" lon="6.34116">
        <ele>440.4</ele>
        <time>2021-03-27T12:24:19Z</time>
      </trkpt>
      <trkpt lat="46.09672" lon="6.34122">
        <ele>440.2</ele>
        <time>2021-03-27T12:24:20Z</time>
      </trkpt>
      <trkpt lat="46.09665" lon="6.34127">
        <ele>440.2</ele>
        <time>2021-03-27T12:24:21Z</time>
      </trkpt>
      <trkpt lat="46.09658" lon="6.34133">
        <ele>440.2</ele>
        <time>2021-03-27T12:24:22Z</time>
      </trkpt>
      <trkpt lat="46.09651" lon="6.34139">
        <ele>440.2</ele>
        <time>2021-03-27T12:24:23Z</time>
      </trkpt>
      <trkpt lat="46.09644" lon="6.34144">
        <ele>440.4</ele>
        <time>2021-03-27T12:24:24Z</time>
      </trkpt>
      <trkpt lat="46.09637" lon="6.34149">
        <ele>440.2</ele>
        <time>2021-03-27T12:24:25Z</time>
      </trkpt>
      <trkpt lat="46.0963" lon="6.34155">
        <ele>440.2</ele>
        <time>2021-03-27T12:24:26Z</time>
      </trkpt>
      <trkpt lat="46.09623" lon="6.3416">
        <ele>440.2</ele>
        <time>2021-03-27T12:24:27Z</time>
      </trkpt>
      <trkpt lat="46.09616" lon="6.34166">
        <ele>440.2</ele>
        <time>2021-03-27T12:24:28Z</time>
      </trkpt>
      <trkpt lat="46.09609" lon="6.34171">
        <ele>440.2</ele>
        <time>2021-03-27T12:24:29Z</time>
      </trkpt>
      <trkpt lat="46.09602" lon="6.34177">
        <ele>440</ele>
        <time>2021-03-27T12:24:30Z</time>
      </trkpt>
      <trkpt lat="46.09595" lon="6.34182">
        <ele>440</ele>
        <time>2021-03-27T12:24:31Z</time>
      </trkpt>
      <trkpt lat="46.09588" lon="6.34188">
        <ele>440</ele>
        <time>2021-03-27T12:24:32Z</time>
      </trkpt>
      <trkpt lat="46.09582" lon="6.34193">
        <ele>440</ele>
        <time>2021-03-27T12:24:33Z</time>
      </trkpt>
      <trkpt lat="46.09575" lon="6.34199">
        <ele>439.8</ele>
        <time>2021-03-27T12:24:34Z</time>
      </trkpt>
      <trkpt lat="46.09569" lon="6.34205">
        <ele>440</ele>
        <time>2021-03-27T12:24:35Z</time>
      </trkpt>
      <trkpt lat="46.09562" lon="6.34211">
        <ele>440</ele>
        <time>2021-03-27T12:24:36Z</time>
      </trkpt>
      <trkpt lat="46.09556" lon="6.34217">
        <ele>440</ele>
        <time>2021-03-27T12:24:37Z</time>
      </trkpt>
      <trkpt lat="46.0955" lon="6.34223">
        <ele>440</ele>
        <time>2021-03-27T12:24:38Z</time>
      </trkpt>
      <trkpt lat="46.09544" lon="6.34229">
        <ele>440</ele>
        <time>2021-03-27T12:24:39Z</time>
      </trkpt>
      <trkpt lat="46.09538" lon="6.34236">
        <ele>440</ele>
        <time>2021-03-27T12:24:40Z</time>
      </trkpt>
      <trkpt lat="46.09532" lon="6.34242">
        <ele>440.2</ele>
        <time>2021-03-27T12:24:41Z</time>
      </trkpt>
      <trkpt lat="46.09526" lon="6.34249">
        <ele>440.4</ele>
        <time>2021-03-27T12:24:42Z</time>
      </trkpt>
      <trkpt lat="46.09521" lon="6.34256">
        <ele>440.6</ele>
        <time>2021-03-27T12:24:43Z</time>
      </trkpt>
      <trkpt lat="46.09515" lon="6.34262">
        <ele>440.4</ele>
        <time>2021-03-27T12:24:44Z</time>
      </trkpt>
      <trkpt lat="46.09509" lon="6.34269">
        <ele>440.6</ele>
        <time>2021-03-27T12:24:45Z</time>
      </trkpt>
      <trkpt lat="46.09504" lon="6.34276">
        <ele>440.8</ele>
        <time>2021-03-27T12:24:46Z</time>
      </trkpt>
      <trkpt lat="46.09498" lon="6.34283">
        <ele>441</ele>
        <time>2021-03-27T12:24:47Z</time>
      </trkpt>
      <trkpt lat="46.09493" lon="6.3429">
        <ele>440.8</ele>
        <time>2021-03-27T12:24:48Z</time>
      </trkpt>
      <trkpt lat="46.09488" lon="6.34298">
        <ele>441.2</ele>
        <time>2021-03-27T12:24:49Z</time>
      </trkpt>
      <trkpt lat="46.09483" lon="6.34305">
        <ele>441.2</ele>
        <time>2021-03-27T12:24:50Z</time>
      </trkpt>
      <trkpt lat="46.09478" lon="6.34313">
        <ele>441.4</ele>
        <time>2021-03-27T12:24:51Z</time>
      </trkpt>
      <trkpt lat="46.09472" lon="6.34321">
        <ele>441.2</ele>
        <time>2021-03-27T12:24:52Z</time>
      </trkpt>
      <trkpt lat="46.09467" lon="6.34329">
        <ele>441.4</ele>
        <time>2021-03-27T12:24:53Z</time>
      </trkpt>
      <trkpt lat="46.09462" lon="6.34337">
        <ele>441.6</ele>
        <time>2021-03-27T12:24:54Z</time>
      </trkpt>
      <trkpt lat="46.09457" lon="6.34345">
        <ele>441.8</ele>
        <time>2021-03-27T12:24:55Z</time>
      </trkpt>
      <trkpt lat="46.09453" lon="6.34353">
        <ele>441.8</ele>
        <time>2021-03-27T12:24:56Z</time>
      </trkpt>
      <trkpt lat="46.09448" lon="6.34361">
        <ele>442</ele>
        <time>2021-03-27T12:24:57Z</time>
      </trkpt>
      <trkpt lat="46.09443" lon="6.3437">
        <ele>442</ele>
        <time>2021-03-27T12:24:58Z</time>
      </trkpt>
      <trkpt lat="46.09438" lon="6.34378">
        <ele>442</ele>
        <time>2021-03-27T12:24:59Z</time>
      </trkpt>
      <trkpt lat="46.09433" lon="6.34387">
        <ele>442</ele>
        <time>2021-03-27T12:25:00Z</time>
      </trkpt>
      <trkpt lat="46.09428" lon="6.34395">
        <ele>442.2</ele>
        <time>2021-03-27T12:25:01Z</time>
      </trkpt>
      <trkpt lat="46.09423" lon="6.34404">
        <ele>442.4</ele>
        <time>2021-03-27T12:25:02Z</time>
      </trkpt>
      <trkpt lat="46.09418" lon="6.34412">
        <ele>442.4</ele>
        <time>2021-03-27T12:25:03Z</time>
      </trkpt>
      <trkpt lat="46.09413" lon="6.34421">
        <ele>442.4</ele>
        <time>2021-03-27T12:25:04Z</time>
      </trkpt>
      <trkpt lat="46.09408" lon="6.34429">
        <ele>442.4</ele>
        <time>2021-03-27T12:25:05Z</time>
      </trkpt>
      <trkpt lat="46.09402" lon="6.34438">
        <ele>442.4</ele>
        <time>2021-03-27T12:25:06Z</time>
      </trkpt>
      <trkpt lat="46.09397" lon="6.34447">
        <ele>442.6</ele>
        <time>2021-03-27T12:25:07Z</time>
      </trkpt>
      <trkpt lat="46.09392" lon="6.34455">
        <ele>442.6</ele>
        <time>2021-03-27T12:25:08Z</time>
      </trkpt>
      <trkpt lat="46.09387" lon="6.34464">
        <ele>442.6</ele>
        <time>2021-03-27T12:25:09Z</time>
      </trkpt>
      <trkpt lat="46.09381" lon="6.34473">
        <ele>442.8</ele>
        <time>2021-03-27T12:25:10Z</time>
      </trkpt>
      <trkpt lat="46.09376" lon="6.34481">
        <ele>442.8</ele>
        <time>2021-03-27T12:25:11Z</time>
      </trkpt>
      <trkpt lat="46.09371" lon="6.3449">
        <ele>443</ele>
        <time>2021-03-27T12:25:12Z</time>
      </trkpt>
      <trkpt lat="46.09366" lon="6.34498">
        <ele>443</ele>
        <time>2021-03-27T12:25:13Z</time>
      </trkpt>
      <trkpt lat="46.09361" lon="6.34507">
        <ele>442.8</ele>
        <time>2021-03-27T12:25:14Z</time>
      </trkpt>
      <trkpt lat="46.09356" lon="6.34515">
        <ele>443</ele>
        <time>2021-03-27T12:25:15Z</time>
      </trkpt>
      <trkpt lat="46.0935" lon="6.34524">
        <ele>443</ele>
        <time>2021-03-27T12:25:16Z</time>
      </trkpt>
      <trkpt lat="46.09345" lon="6.34533">
        <ele>442.8</ele>
        <time>2021-03-27T12:25:17Z</time>
      </trkpt>
      <trkpt lat="46.0934" lon="6.34541">
        <ele>443</ele>
        <time>2021-03-27T12:25:18Z</time>
      </trkpt>
      <trkpt lat="46.09335" lon="6.3455">
        <ele>443</ele>
        <time>2021-03-27T12:25:19Z</time>
      </trkpt>
      <trkpt lat="46.0933" lon="6.34559">
        <ele>443</ele>
        <time>2021-03-27T12:25:20Z</time>
      </trkpt>
      <trkpt lat="46.09324" lon="6.34567">
        <ele>443.2</ele>
        <time>2021-03-27T12:25:21Z</time>
      </trkpt>
      <trkpt lat="46.09319" lon="6.34576">
        <ele>443</ele>
        <time>2021-03-27T12:25:22Z</time>
      </trkpt>
      <trkpt lat="46.09314" lon="6.34584">
        <ele>443</ele>
        <time>2021-03-27T12:25:23Z</time>
      </trkpt>
      <trkpt lat="46.09309" lon="6.34593">
        <ele>443</ele>
        <time>2021-03-27T12:25:24Z</time>
      </trkpt>
      <trkpt lat="46.09304" lon="6.34602">
        <ele>443</ele>
        <time>2021-03-27T12:25:25Z</time>
      </trkpt>
      <trkpt lat="46.09299" lon="6.3461">
        <ele>443</ele>
        <time>2021-03-27T12:25:26Z</time>
      </trkpt>
      <trkpt lat="46.09294" lon="6.34618">
        <ele>443</ele>
        <time>2021-03-27T12:25:27Z</time>
      </trkpt>
      <trkpt lat="46.09289" lon="6.34627">
        <ele>443</ele>
        <time>2021-03-27T12:25:28Z</time>
      </trkpt>
      <trkpt lat="46.09283" lon="6.34635">
        <ele>443</ele>
        <time>2021-03-27T12:25:29Z</time>
      </trkpt>
      <trkpt lat="46.09278" lon="6.34644">
        <ele>442.8</ele>
        <time>2021-03-27T12:25:30Z</time>
      </trkpt>
      <trkpt lat="46.09273" lon="6.34652">
        <ele>442.8</ele>
        <time>2021-03-27T12:25:31Z</time>
      </trkpt>
      <trkpt lat="46.09268" lon="6.34661">
        <ele>443</ele>
        <time>2021-03-27T12:25:32Z</time>
      </trkpt>
      <trkpt lat="46.09263" lon="6.34669">
        <ele>442.8</ele>
        <time>2021-03-27T12:25:33Z</time>
      </trkpt>
      <trkpt lat="46.09258" lon="6.34678">
        <ele>443</ele>
        <time>2021-03-27T12:25:34Z</time>
      </trkpt>
      <trkpt lat="46.09253" lon="6.34686">
        <ele>442.8</ele>
        <time>2021-03-27T12:25:35Z</time>
      </trkpt>
      <trkpt lat="46.09248" lon="6.34695">
        <ele>443</ele>
        <time>2021-03-27T12:25:36Z</time>
      </trkpt>
      <trkpt lat="46.09243" lon="6.34703">
        <ele>443</ele>
        <time>2021-03-27T12:25:37Z</time>
      </trkpt>
      <trkpt lat="46.09237" lon="6.34712">
        <ele>443</ele>
        <time>2021-03-27T12:25:38Z</time>
      </trkpt>
      <trkpt lat="46.09232" lon="6.3472">
        <ele>443</ele>
        <time>2021-03-27T12:25:39Z</time>
      </trkpt>
      <trkpt lat="46.09227" lon="6.34729">
        <ele>443</ele>
        <time>2021-03-27T12:25:40Z</time>
      </trkpt>
      <trkpt lat="46.09222" lon="6.34737">
        <ele>443</ele>
        <time>2021-03-27T12:25:41Z</time>
      </trkpt>
      <trkpt lat="46.09217" lon="6.34746">
        <ele>443</ele>
        <time>2021-03-27T12:25:42Z</time>
      </trkpt>
      <trkpt lat="46.09212" lon="6.34755">
        <ele>443.2</ele>
        <time>2021-03-27T12:25:43Z</time>
      </trkpt>
      <trkpt lat="46.09206" lon="6.34763">
        <ele>443</ele>
        <time>2021-03-27T12:25:44Z</time>
      </trkpt>
      <trkpt lat="46.09201" lon="6.34772">
        <ele>443</ele>
        <time>2021-03-27T12:25:45Z</time>
      </trkpt>
      <trkpt lat="46.09196" lon="6.34781">
        <ele>443.2</ele>
        <time>2021-03-27T12:25:46Z</time>
      </trkpt>
      <trkpt lat="46.09191" lon="6.34789">
        <ele>443.2</ele>
        <time>2021-03-27T12:25:47Z</time>
      </trkpt>
      <trkpt lat="46.09186" lon="6.34798">
        <ele>443.2</ele>
        <time>2021-03-27T12:25:48Z</time>
      </trkpt>
      <trkpt lat="46.0918" lon="6.34807">
        <ele>443.2</ele>
        <time>2021-03-27T12:25:49Z</time>
      </trkpt>
      <trkpt lat="46.09175" lon="6.34815">
        <ele>443.2</ele>
        <time>2021-03-27T12:25:50Z</time>
      </trkpt>
      <trkpt lat="46.0917" lon="6.34824">
        <ele>443.2</ele>
        <time>2021-03-27T12:25:51Z</time>
      </trkpt>
      <trkpt lat="46.09165" lon="6.34833">
        <ele>443.4</ele>
        <time>2021-03-27T12:25:52Z</time>
      </trkpt>
      <trkpt lat="46.09159" lon="6.34842">
        <ele>443.4</ele>
        <time>2021-03-27T12:25:53Z</time>
      </trkpt>
      <trkpt lat="46.09154" lon="6.3485">
        <ele>443.4</ele>
        <time>2021-03-27T12:25:54Z</time>
      </trkpt>
      <trkpt lat="46.09149" lon="6.34859">
        <ele>443.2</ele>
        <time>2021-03-27T12:25:55Z</time>
      </trkpt>
      <trkpt lat="46.09144" lon="6.34867">
        <ele>443.4</ele>
        <time>2021-03-27T12:25:56Z</time>
      </trkpt>
      <trkpt lat="46.09139" lon="6.34876">
        <ele>443.4</ele>
        <time>2021-03-27T12:25:57Z</time>
      </trkpt>
      <trkpt lat="46.09133" lon="6.34885">
        <ele>443.2</ele>
        <time>2021-03-27T12:25:58Z</time>
      </trkpt>
      <trkpt lat="46.09128" lon="6.34893">
        <ele>443.4</ele>
        <time>2021-03-27T12:25:59Z</time>
      </trkpt>
      <trkpt lat="46.09123" lon="6.34902">
        <ele>443.2</ele>
        <time>2021-03-27T12:26:00Z</time>
      </trkpt>
      <trkpt lat="46.09118" lon="6.34911">
        <ele>443.4</ele>
        <time>2021-03-27T12:26:01Z</time>
      </trkpt>
      <trkpt lat="46.09113" lon="6.34919">
        <ele>443.4</ele>
        <time>2021-03-27T12:26:02Z</time>
      </trkpt>
      <trkpt lat="46.09108" lon="6.34928">
        <ele>443.2</ele>
        <time>2021-03-27T12:26:03Z</time>
      </trkpt>
      <trkpt lat="46.09102" lon="6.34937">
        <ele>443.2</ele>
        <time>2021-03-27T12:26:04Z</time>
      </trkpt>
      <trkpt lat="46.09097" lon="6.34945">
        <ele>443.2</ele>
        <time>2021-03-27T12:26:05Z</time>
      </trkpt>
      <trkpt lat="46.09092" lon="6.34953">
        <ele>443.2</ele>
        <time>2021-03-27T12:26:06Z</time>
      </trkpt>
      <trkpt lat="46.09087" lon="6.34962">
        <ele>443.2</ele>
        <time>2021-03-27T12:26:07Z</time>
      </trkpt>
      <trkpt lat="46.09082" lon="6.3497">
        <ele>443.2</ele>
        <time>2021-03-27T12:26:08Z</time>
      </trkpt>
      <trkpt lat="46.09077" lon="6.34979">
        <ele>443.2</ele>
        <time>2021-03-27T12:26:09Z</time>
      </trkpt>
      <trkpt lat="46.09072" lon="6.34987">
        <ele>443.2</ele>
        <time>2021-03-27T12:26:10Z</time>
      </trkpt>
      <trkpt lat="46.09067" lon="6.34996">
        <ele>443.2</ele>
        <time>2021-03-27T12:26:11Z</time>
      </trkpt>
      <trkpt lat="46.09062" lon="6.35004">
        <ele>443.2</ele>
        <time>2021-03-27T12:26:12Z</time>
      </trkpt>
      <trkpt lat="46.09057" lon="6.35013">
        <ele>443.2</ele>
        <time>2021-03-27T12:26:13Z</time>
      </trkpt>
      <trkpt lat="46.09052" lon="6.35021">
        <ele>443.4</ele>
        <time>2021-03-27T12:26:14Z</time>
      </trkpt>
      <trkpt lat="46.09046" lon="6.35029">
        <ele>443.2</ele>
        <time>2021-03-27T12:26:15Z</time>
      </trkpt>
      <trkpt lat="46.09041" lon="6.35038">
        <ele>443.6</ele>
        <time>2021-03-27T12:26:16Z</time>
      </trkpt>
      <trkpt lat="46.09036" lon="6.35047">
        <ele>443.6</ele>
        <time>2021-03-27T12:26:17Z</time>
      </trkpt>
      <trkpt lat="46.09031" lon="6.35055">
        <ele>443.8</ele>
        <time>2021-03-27T12:26:18Z</time>
      </trkpt>
      <trkpt lat="46.09026" lon="6.35064">
        <ele>443.6</ele>
        <time>2021-03-27T12:26:19Z</time>
      </trkpt>
      <trkpt lat="46.09021" lon="6.35073">
        <ele>443.8</ele>
        <time>2021-03-27T12:26:20Z</time>
      </trkpt>
      <trkpt lat="46.09016" lon="6.35082">
        <ele>443.8</ele>
        <time>2021-03-27T12:26:21Z</time>
      </trkpt>
      <trkpt lat="46.0901" lon="6.35091">
        <ele>444</ele>
        <time>2021-03-27T12:26:22Z</time>
      </trkpt>
      <trkpt lat="46.09005" lon="6.35099">
        <ele>444.2</ele>
        <time>2021-03-27T12:26:23Z</time>
      </trkpt>
      <trkpt lat="46.09" lon="6.35108">
        <ele>444.4</ele>
        <time>2021-03-27T12:26:24Z</time>
      </trkpt>
      <trkpt lat="46.08994" lon="6.35117">
        <ele>444.4</ele>
        <time>2021-03-27T12:26:25Z</time>
      </trkpt>
      <trkpt lat="46.08989" lon="6.35126">
        <ele>444.4</ele>
        <time>2021-03-27T12:26:26Z</time>
      </trkpt>
      <trkpt lat="46.08984" lon="6.35134">
        <ele>444.6</ele>
        <time>2021-03-27T12:26:27Z</time>
      </trkpt>
      <trkpt lat="46.08979" lon="6.35143">
        <ele>444.6</ele>
        <time>2021-03-27T12:26:28Z</time>
      </trkpt>
      <trkpt lat="46.08973" lon="6.35151">
        <ele>444.6</ele>
        <time>2021-03-27T12:26:29Z</time>
      </trkpt>
      <trkpt lat="46.08968" lon="6.35159">
        <ele>444.6</ele>
        <time>2021-03-27T12:26:30Z</time>
      </trkpt>
      <trkpt lat="46.08963" lon="6.35168">
        <ele>444.6</ele>
        <time>2021-03-27T12:26:31Z</time>
      </trkpt>
      <trkpt lat="46.08958" lon="6.35176">
        <ele>444.8</ele>
        <time>2021-03-27T12:26:32Z</time>
      </trkpt>
      <trkpt lat="46.08953" lon="6.35185">
        <ele>444.8</ele>
        <time>2021-03-27T12:26:33Z</time>
      </trkpt>
      <trkpt lat="46.08948" lon="6.35193">
        <ele>444.8</ele>
        <time>2021-03-27T12:26:34Z</time>
      </trkpt>
      <trkpt lat="46.08942" lon="6.35202">
        <ele>444.8</ele>
        <time>2021-03-27T12:26:35Z</time>
      </trkpt>
      <trkpt lat="46.08937" lon="6.3521">
        <ele>444.8</ele>
        <time>2021-03-27T12:26:36Z</time>
      </trkpt>
      <trkpt lat="46.08932" lon="6.35219">
        <ele>445</ele>
        <time>2021-03-27T12:26:37Z</time>
      </trkpt>
      <trkpt lat="46.08927" lon="6.35228">
        <ele>445</ele>
        <time>2021-03-27T12:26:38Z</time>
      </trkpt>
      <trkpt lat="46.08921" lon="6.35237">
        <ele>445</ele>
        <time>2021-03-27T12:26:39Z</time>
      </trkpt>
      <trkpt lat="46.08916" lon="6.35246">
        <ele>444.8</ele>
        <time>2021-03-27T12:26:40Z</time>
      </trkpt>
      <trkpt lat="46.08911" lon="6.35255">
        <ele>444.8</ele>
        <time>2021-03-27T12:26:41Z</time>
      </trkpt>
      <trkpt lat="46.08905" lon="6.35264">
        <ele>445</ele>
        <time>2021-03-27T12:26:42Z</time>
      </trkpt>
      <trkpt lat="46.089" lon="6.35273">
        <ele>445</ele>
        <time>2021-03-27T12:26:43Z</time>
      </trkpt>
      <trkpt lat="46.08895" lon="6.35282">
        <ele>444.8</ele>
        <time>2021-03-27T12:26:44Z</time>
      </trkpt>
      <trkpt lat="46.08889" lon="6.35291">
        <ele>445.2</ele>
        <time>2021-03-27T12:26:45Z</time>
      </trkpt>
      <trkpt lat="46.08884" lon="6.353">
        <ele>445.2</ele>
        <time>2021-03-27T12:26:46Z</time>
      </trkpt>
      <trkpt lat="46.08879" lon="6.35309">
        <ele>445</ele>
        <time>2021-03-27T12:26:47Z</time>
      </trkpt>
      <trkpt lat="46.08873" lon="6.35318">
        <ele>444.8</ele>
        <time>2021-03-27T12:26:48Z</time>
      </trkpt>
      <trkpt lat="46.08868" lon="6.35327">
        <ele>445</ele>
        <time>2021-03-27T12:26:49Z</time>
      </trkpt>
      <trkpt lat="46.08862" lon="6.35336">
        <ele>445</ele>
        <time>2021-03-27T12:26:50Z</time>
      </trkpt>
      <trkpt lat="46.08857" lon="6.35345">
        <ele>445</ele>
        <time>2021-03-27T12:26:51Z</time>
      </trkpt>
      <trkpt lat="46.08851" lon="6.35355">
        <ele>444.8</ele>
        <time>2021-03-27T12:26:52Z</time>
      </trkpt>
      <trkpt lat="46.08845" lon="6.35364">
        <ele>445</ele>
        <time>2021-03-27T12:26:53Z</time>
      </trkpt>
      <trkpt lat="46.0884" lon="6.35373">
        <ele>444.8</ele>
        <time>2021-03-27T12:26:54Z</time>
      </trkpt>
      <trkpt lat="46.08834" lon="6.35382">
        <ele>445</ele>
        <time>2021-03-27T12:26:55Z</time>
      </trkpt>
      <trkpt lat="46.08829" lon="6.35392">
        <ele>444.8</ele>
        <time>2021-03-27T12:26:56Z</time>
      </trkpt>
      <trkpt lat="46.08823" lon="6.35401">
        <ele>444.8</ele>
        <time>2021-03-27T12:26:57Z</time>
      </trkpt>
      <trkpt lat="46.08817" lon="6.3541">
        <ele>445</ele>
        <time>2021-03-27T12:26:58Z</time>
      </trkpt>
      <trkpt lat="46.08812" lon="6.3542">
        <ele>445</ele>
        <time>2021-03-27T12:26:59Z</time>
      </trkpt>
      <trkpt lat="46.08807" lon="6.3543">
        <ele>444.8</ele>
        <time>2021-03-27T12:27:00Z</time>
      </trkpt>
      <trkpt lat="46.08801" lon="6.35439">
        <ele>445</ele>
        <time>2021-03-27T12:27:01Z</time>
      </trkpt>
      <trkpt lat="46.08795" lon="6.35448">
        <ele>445</ele>
        <time>2021-03-27T12:27:02Z</time>
      </trkpt>
      <trkpt lat="46.08789" lon="6.35457">
        <ele>445</ele>
        <time>2021-03-27T12:27:03Z</time>
      </trkpt>
      <trkpt lat="46.08784" lon="6.35466">
        <ele>445</ele>
        <time>2021-03-27T12:27:04Z</time>
      </trkpt>
      <trkpt lat="46.0878" lon="6.35477">
        <ele>445</ele>
        <time>2021-03-27T12:27:05Z</time>
      </trkpt>
      <trkpt lat="46.08777" lon="6.35489">
        <ele>444.8</ele>
        <time>2021-03-27T12:27:06Z</time>
      </trkpt>
      <trkpt lat="46.08773" lon="6.355">
        <ele>445</ele>
        <time>2021-03-27T12:27:07Z</time>
      </trkpt>
      <trkpt lat="46.08769" lon="6.35512">
        <ele>445.2</ele>
        <time>2021-03-27T12:27:08Z</time>
      </trkpt>
      <trkpt lat="46.08765" lon="6.35524">
        <ele>445</ele>
        <time>2021-03-27T12:27:09Z</time>
      </trkpt>
      <trkpt lat="46.08761" lon="6.35535">
        <ele>445.2</ele>
        <time>2021-03-27T12:27:10Z</time>
      </trkpt>
      <trkpt lat="46.08757" lon="6.35546">
        <ele>445.2</ele>
        <time>2021-03-27T12:27:11Z</time>
      </trkpt>
      <trkpt lat="46.08753" lon="6.35557">
        <ele>445.2</ele>
        <time>2021-03-27T12:27:12Z</time>
      </trkpt>
      <trkpt lat="46.08749" lon="6.35568">
        <ele>445.2</ele>
        <time>2021-03-27T12:27:13Z</time>
      </trkpt>
      <trkpt lat="46.08746" lon="6.3558">
        <ele>445.2</ele>
        <time>2021-03-27T12:27:14Z</time>
      </trkpt>
      <trkpt lat="46.08742" lon="6.35591">
        <ele>445.4</ele>
        <time>2021-03-27T12:27:15Z</time>
      </trkpt>
      <trkpt lat="46.08738" lon="6.35602">
        <ele>445.4</ele>
        <time>2021-03-27T12:27:16Z</time>
      </trkpt>
      <trkpt lat="46.08735" lon="6.35613">
        <ele>445.4</ele>
        <time>2021-03-27T12:27:17Z</time>
      </trkpt>
      <trkpt lat="46.08731" lon="6.35624">
        <ele>445.4</ele>
        <time>2021-03-27T12:27:18Z</time>
      </trkpt>
      <trkpt lat="46.08727" lon="6.35635">
        <ele>445.6</ele>
        <time>2021-03-27T12:27:19Z</time>
      </trkpt>
      <trkpt lat="46.08723" lon="6.35646">
        <ele>445.6</ele>
        <time>2021-03-27T12:27:20Z</time>
      </trkpt>
      <trkpt lat="46.08718" lon="6.35657">
        <ele>445.4</ele>
        <time>2021-03-27T12:27:21Z</time>
      </trkpt>
      <trkpt lat="46.08713" lon="6.35667">
        <ele>445.6</ele>
        <time>2021-03-27T12:27:22Z</time>
      </trkpt>
      <trkpt lat="46.08709" lon="6.35678">
        <ele>445.4</ele>
        <time>2021-03-27T12:27:23Z</time>
      </trkpt>
      <trkpt lat="46.08704" lon="6.35689">
        <ele>445.4</ele>
        <time>2021-03-27T12:27:24Z</time>
      </trkpt>
      <trkpt lat="46.08699" lon="6.35699">
        <ele>445.4</ele>
        <time>2021-03-27T12:27:25Z</time>
      </trkpt>
      <trkpt lat="46.08695" lon="6.3571">
        <ele>445.4</ele>
        <time>2021-03-27T12:27:26Z</time>
      </trkpt>
      <trkpt lat="46.0869" lon="6.35721">
        <ele>445.2</ele>
        <time>2021-03-27T12:27:27Z</time>
      </trkpt>
      <trkpt lat="46.08685" lon="6.35732">
        <ele>445.2</ele>
        <time>2021-03-27T12:27:28Z</time>
      </trkpt>
      <trkpt lat="46.08681" lon="6.35742">
        <ele>445</ele>
        <time>2021-03-27T12:27:29Z</time>
      </trkpt>
      <trkpt lat="46.08676" lon="6.35753">
        <ele>444.8</ele>
        <time>2021-03-27T12:27:30Z</time>
      </trkpt>
      <trkpt lat="46.08671" lon="6.35764">
        <ele>444.8</ele>
        <time>2021-03-27T12:27:31Z</time>
      </trkpt>
      <trkpt lat="46.08667" lon="6.35774">
        <ele>444.8</ele>
        <time>2021-03-27T12:27:32Z</time>
      </trkpt>
      <trkpt lat="46.08663" lon="6.35784">
        <ele>444.8</ele>
        <time>2021-03-27T12:27:33Z</time>
      </trkpt>
      <trkpt lat="46.08658" lon="6.35794">
        <ele>444.6</ele>
        <time>2021-03-27T12:27:34Z</time>
      </trkpt>
      <trkpt lat="46.08654" lon="6.35805">
        <ele>444.4</ele>
        <time>2021-03-27T12:27:35Z</time>
      </trkpt>
      <trkpt lat="46.08649" lon="6.35815">
        <ele>444.4</ele>
        <time>2021-03-27T12:27:36Z</time>
      </trkpt>
      <trkpt lat="46.08645" lon="6.35825">
        <ele>444.2</ele>
        <time>2021-03-27T12:27:37Z</time>
      </trkpt>
      <trkpt lat="46.0864" lon="6.35835">
        <ele>444.2</ele>
        <time>2021-03-27T12:27:38Z</time>
      </trkpt>
      <trkpt lat="46.08636" lon="6.35845">
        <ele>444.2</ele>
        <time>2021-03-27T12:27:39Z</time>
      </trkpt>
      <trkpt lat="46.08631" lon="6.35855">
        <ele>444.2</ele>
        <time>2021-03-27T12:27:40Z</time>
      </trkpt>
      <trkpt lat="46.08626" lon="6.35865">
        <ele>444.4</ele>
        <time>2021-03-27T12:27:41Z</time>
      </trkpt>
      <trkpt lat="46.08622" lon="6.35874">
        <ele>444.2</ele>
        <time>2021-03-27T12:27:42Z</time>
      </trkpt>
      <trkpt lat="46.08617" lon="6.35884">
        <ele>444.2</ele>
        <time>2021-03-27T12:27:43Z</time>
      </trkpt>
      <trkpt lat="46.08612" lon="6.35894">
        <ele>444.2</ele>
        <time>2021-03-27T12:27:44Z</time>
      </trkpt>
      <trkpt lat="46.08607" lon="6.35904">
        <ele>444.2</ele>
        <time>2021-03-27T12:27:45Z</time>
      </trkpt>
      <trkpt lat="46.08602" lon="6.35914">
        <ele>444.2</ele>
        <time>2021-03-27T12:27:46Z</time>
      </trkpt>
      <trkpt lat="46.08597" lon="6.35924">
        <ele>444.4</ele>
        <time>2021-03-27T12:27:47Z</time>
      </trkpt>
      <trkpt lat="46.08593" lon="6.35933">
        <ele>444.4</ele>
        <time>2021-03-27T12:27:48Z</time>
      </trkpt>
      <trkpt lat="46.08588" lon="6.35943">
        <ele>444.4</ele>
        <time>2021-03-27T12:27:49Z</time>
      </trkpt>
      <trkpt lat="46.08583" lon="6.35953">
        <ele>444.4</ele>
        <time>2021-03-27T12:27:50Z</time>
      </trkpt>
      <trkpt lat="46.08578" lon="6.35962">
        <ele>444.6</ele>
        <time>2021-03-27T12:27:51Z</time>
      </trkpt>
      <trkpt lat="46.08573" lon="6.35972">
        <ele>444.6</ele>
        <time>2021-03-27T12:27:52Z</time>
      </trkpt>
      <trkpt lat="46.08568" lon="6.35982">
        <ele>444.6</ele>
        <time>2021-03-27T12:27:53Z</time>
      </trkpt>
      <trkpt lat="46.08563" lon="6.35992">
        <ele>444.6</ele>
        <time>2021-03-27T12:27:54Z</time>
      </trkpt>
      <trkpt lat="46.08559" lon="6.36002">
        <ele>444.4</ele>
        <time>2021-03-27T12:27:55Z</time>
      </trkpt>
      <trkpt lat="46.08554" lon="6.36011">
        <ele>444.4</ele>
        <time>2021-03-27T12:27:56Z</time>
      </trkpt>
      <trkpt lat="46.08549" lon="6.36021">
        <ele>444.6</ele>
        <time>2021-03-27T12:27:57Z</time>
      </trkpt>
      <trkpt lat="46.08544" lon="6.36031">
        <ele>444.4</ele>
        <time>2021-03-27T12:27:58Z</time>
      </trkpt>
      <trkpt lat="46.08539" lon="6.36041">
        <ele>444.6</ele>
        <time>2021-03-27T12:27:59Z</time>
      </trkpt>
      <trkpt lat="46.08534" lon="6.36051">
        <ele>444.6</ele>
        <time>2021-03-27T12:28:00Z</time>
      </trkpt>
      <trkpt lat="46.08529" lon="6.36061">
        <ele>444.6</ele>
        <time>2021-03-27T12:28:01Z</time>
      </trkpt>
      <trkpt lat="46.08524" lon="6.36071">
        <ele>444.6</ele>
        <time>2021-03-27T12:28:02Z</time>
      </trkpt>
      <trkpt lat="46.0852" lon="6.3608">
        <ele>444.4</ele>
        <time>2021-03-27T12:28:03Z</time>
      </trkpt>
      <trkpt lat="46.08515" lon="6.3609">
        <ele>444.6</ele>
        <time>2021-03-27T12:28:04Z</time>
      </trkpt>
      <trkpt lat="46.0851" lon="6.361">
        <ele>444.4</ele>
        <time>2021-03-27T12:28:05Z</time>
      </trkpt>
      <trkpt lat="46.08505" lon="6.3611">
        <ele>444.6</ele>
        <time>2021-03-27T12:28:06Z</time>
      </trkpt>
      <trkpt lat="46.085" lon="6.3612">
        <ele>444.4</ele>
        <time>2021-03-27T12:28:07Z</time>
      </trkpt>
      <trkpt lat="46.08495" lon="6.3613">
        <ele>444.2</ele>
        <time>2021-03-27T12:28:08Z</time>
      </trkpt>
      <trkpt lat="46.0849" lon="6.3614">
        <ele>444.4</ele>
        <time>2021-03-27T12:28:09Z</time>
      </trkpt>
      <trkpt lat="46.08485" lon="6.3615">
        <ele>444.2</ele>
        <time>2021-03-27T12:28:10Z</time>
      </trkpt>
      <trkpt lat="46.0848" lon="6.3616">
        <ele>444.2</ele>
        <time>2021-03-27T12:28:11Z</time>
      </trkpt>
      <trkpt lat="46.08476" lon="6.3617">
        <ele>444.2</ele>
        <time>2021-03-27T12:28:12Z</time>
      </trkpt>
      <trkpt lat="46.08471" lon="6.36179">
        <ele>444</ele>
        <time>2021-03-27T12:28:13Z</time>
      </trkpt>
      <trkpt lat="46.08466" lon="6.36189">
        <ele>444</ele>
        <time>2021-03-27T12:28:14Z</time>
      </trkpt>
      <trkpt lat="46.08461" lon="6.36199">
        <ele>443.8</ele>
        <time>2021-03-27T12:28:15Z</time>
      </trkpt>
      <trkpt lat="46.08457" lon="6.36208">
        <ele>444</ele>
        <time>2021-03-27T12:28:16Z</time>
      </trkpt>
      <trkpt lat="46.08452" lon="6.36218">
        <ele>444</ele>
        <time>2021-03-27T12:28:17Z</time>
      </trkpt>
      <trkpt lat="46.08447" lon="6.36228">
        <ele>444</ele>
        <time>2021-03-27T12:28:18Z</time>
      </trkpt>
      <trkpt lat="46.08442" lon="6.36238">
        <ele>444</ele>
        <time>2021-03-27T12:28:19Z</time>
      </trkpt>
      <trkpt lat="46.08438" lon="6.36248">
        <ele>444</ele>
        <time>2021-03-27T12:28:20Z</time>
      </trkpt>
      <trkpt lat="46.08433" lon="6.36257">
        <ele>444</ele>
        <time>2021-03-27T12:28:21Z</time>
      </trkpt>
      <trkpt lat="46.08428" lon="6.36267">
        <ele>444</ele>
        <time>2021-03-27T12:28:22Z</time>
      </trkpt>
      <trkpt lat="46.08423" lon="6.36277">
        <ele>444</ele>
        <time>2021-03-27T12:28:23Z</time>
      </trkpt>
      <trkpt lat="46.08418" lon="6.36287">
        <ele>444.2</ele>
        <time>2021-03-27T12:28:24Z</time>
      </trkpt>
      <trkpt lat="46.08414" lon="6.36297">
        <ele>444.2</ele>
        <time>2021-03-27T12:28:25Z</time>
      </trkpt>
      <trkpt lat="46.08409" lon="6.36306">
        <ele>444.2</ele>
        <time>2021-03-27T12:28:26Z</time>
      </trkpt>
      <trkpt lat="46.08405" lon="6.36315">
        <ele>444</ele>
        <time>2021-03-27T12:28:27Z</time>
      </trkpt>
      <trkpt lat="46.084" lon="6.36324">
        <ele>444.2</ele>
        <time>2021-03-27T12:28:28Z</time>
      </trkpt>
      <trkpt lat="46.08396" lon="6.36333">
        <ele>444.2</ele>
        <time>2021-03-27T12:28:29Z</time>
      </trkpt>
      <trkpt lat="46.08391" lon="6.36343">
        <ele>444.2</ele>
        <time>2021-03-27T12:28:30Z</time>
      </trkpt>
      <trkpt lat="46.08386" lon="6.36352">
        <ele>444.4</ele>
        <time>2021-03-27T12:28:31Z</time>
      </trkpt>
      <trkpt lat="46.08381" lon="6.36362">
        <ele>444.4</ele>
        <time>2021-03-27T12:28:32Z</time>
      </trkpt>
      <trkpt lat="46.08377" lon="6.36372">
        <ele>444.4</ele>
        <time>2021-03-27T12:28:33Z</time>
      </trkpt>
      <trkpt lat="46.08372" lon="6.36382">
        <ele>444.6</ele>
        <time>2021-03-27T12:28:34Z</time>
      </trkpt>
      <trkpt lat="46.08367" lon="6.36392">
        <ele>444.4</ele>
        <time>2021-03-27T12:28:35Z</time>
      </trkpt>
      <trkpt lat="46.08363" lon="6.36401">
        <ele>444.4</ele>
        <time>2021-03-27T12:28:36Z</time>
      </trkpt>
      <trkpt lat="46.08358" lon="6.36411">
        <ele>444.4</ele>
        <time>2021-03-27T12:28:37Z</time>
      </trkpt>
      <trkpt lat="46.08353" lon="6.36421">
        <ele>444.4</ele>
        <time>2021-03-27T12:28:38Z</time>
      </trkpt>
      <trkpt lat="46.08349" lon="6.3643">
        <ele>444.4</ele>
        <time>2021-03-27T12:28:39Z</time>
      </trkpt>
      <trkpt lat="46.08344" lon="6.36439">
        <ele>444.4</ele>
        <time>2021-03-27T12:28:40Z</time>
      </trkpt>
      <trkpt lat="46.0834" lon="6.36448">
        <ele>444.4</ele>
        <time>2021-03-27T12:28:41Z</time>
      </trkpt>
      <trkpt lat="46.08336" lon="6.36456">
        <ele>444.4</ele>
        <time>2021-03-27T12:28:42Z</time>
      </trkpt>
      <trkpt lat="46.08332" lon="6.36464">
        <ele>444.6</ele>
        <time>2021-03-27T12:28:43Z</time>
      </trkpt>
      <trkpt lat="46.08328" lon="6.36472">
        <ele>444.6</ele>
        <time>2021-03-27T12:28:44Z</time>
      </trkpt>
      <trkpt lat="46.08324" lon="6.3648">
        <ele>444.6</ele>
        <time>2021-03-27T12:28:45Z</time>
      </trkpt>
      <trkpt lat="46.0832" lon="6.36485">
        <ele>444.6</ele>
        <time>2021-03-27T12:28:46Z</time>
      </trkpt>
      <trkpt lat="46.08316" lon="6.36489">
        <ele>444.8</ele>
        <time>2021-03-27T12:28:47Z</time>
      </trkpt>
      <trkpt lat="46.08313" lon="6.36492">
        <ele>444.8</ele>
        <time>2021-03-27T12:28:48Z</time>
      </trkpt>
      <trkpt lat="46.08311" lon="6.36496">
        <ele>445</ele>
        <time>2021-03-27T12:28:49Z</time>
      </trkpt>
      <trkpt lat="46.0831" lon="6.365">
        <ele>445</ele>
        <time>2021-03-27T12:28:50Z</time>
      </trkpt>
      <trkpt lat="46.08309" lon="6.36503">
        <ele>445</ele>
        <time>2021-03-27T12:28:51Z</time>
      </trkpt>
      <trkpt lat="46.08309" lon="6.36504">
        <ele>445</ele>
        <time>2021-03-27T12:28:52Z</time>
      </trkpt>
      <trkpt lat="46.0831" lon="6.36504">
        <ele>445</ele>
        <time>2021-03-27T12:28:53Z</time>
      </trkpt>
      <trkpt lat="46.0831" lon="6.36504">
        <ele>445.4</ele>
        <time>2021-03-27T12:28:54Z</time>
      </trkpt>
      <trkpt lat="46.0831" lon="6.36504">
        <ele>445.4</ele>
        <time>2021-03-27T12:28:55Z</time>
      </trkpt>
      <trkpt lat="46.0831" lon="6.36504">
        <ele>445.8</ele>
        <time>2021-03-27T12:28:56Z</time>
      </trkpt>
      <trkpt lat="46.0831" lon="6.36504">
        <ele>446</ele>
        <time>2021-03-27T12:28:57Z</time>
      </trkpt>
      <trkpt lat="46.0831" lon="6.36503">
        <ele>446</ele>
        <time>2021-03-27T12:28:58Z</time>
      </trkpt>
      <trkpt lat="46.0831" lon="6.36503">
        <ele>446.2</ele>
        <time>2021-03-27T12:28:59Z</time>
      </trkpt>
      <trkpt lat="46.0831" lon="6.36503">
        <ele>446.2</ele>
        <time>2021-03-27T12:29:00Z</time>
      </trkpt>
      <trkpt lat="46.0831" lon="6.36503">
        <ele>446.2</ele>
        <time>2021-03-27T12:29:01Z</time>
      </trkpt>
      <trkpt lat="46.0831" lon="6.36503">
        <ele>446.2</ele>
        <time>2021-03-27T12:29:02Z</time>
      </trkpt>
      <trkpt lat="46.0831" lon="6.36503">
        <ele>446.4</ele>
        <time>2021-03-27T12:29:03Z</time>
      </trkpt>
      <trkpt lat="46.0831" lon="6.36503">
        <ele>446.2</ele>
        <time>2021-03-27T12:29:04Z</time>
      </trkpt>
      <trkpt lat="46.0831" lon="6.36503">
        <ele>446.2</ele>
        <time>2021-03-27T12:29:05Z</time>
      </trkpt>
      <trkpt lat="46.0831" lon="6.36503">
        <ele>446.2</ele>
        <time>2021-03-27T12:29:06Z</time>
      </trkpt>
      <trkpt lat="46.0831" lon="6.36503">
        <ele>446.2</ele>
        <time>2021-03-27T12:29:07Z</time>
      </trkpt>
      <trkpt lat="46.0831" lon="6.36503">
        <ele>446.2</ele>
        <time>2021-03-27T12:29:08Z</time>
      </trkpt>
      <trkpt lat="46.0831" lon="6.36503">
        <ele>446.2</ele>
        <time>2021-03-27T12:29:09Z</time>
      </trkpt>
      <trkpt lat="46.0831" lon="6.36502">
        <ele>446.2</ele>
        <time>2021-03-27T12:29:10Z</time>
      </trkpt>
      <trkpt lat="46.0831" lon="6.36502">
        <ele>446.4</ele>
        <time>2021-03-27T12:29:11Z</time>
      </trkpt>
      <trkpt lat="46.0831" lon="6.36502">
        <ele>446.2</ele>
        <time>2021-03-27T12:29:12Z</time>
      </trkpt>
      <trkpt lat="46.0831" lon="6.36502">
        <ele>446.4</ele>
        <time>2021-03-27T12:29:13Z</time>
      </trkpt>
      <trkpt lat="46.08311" lon="6.36502">
        <ele>446.4</ele>
        <time>2021-03-27T12:29:14Z</time>
      </trkpt>
      <trkpt lat="46.08311" lon="6.36502">
        <ele>446.4</ele>
        <time>2021-03-27T12:29:15Z</time>
      </trkpt>
      <trkpt lat="46.08311" lon="6.36502">
        <ele>446.4</ele>
        <time>2021-03-27T12:29:16Z</time>
      </trkpt>
      <trkpt lat="46.08311" lon="6.36502">
        <ele>446.4</ele>
        <time>2021-03-27T12:29:17Z</time>
      </trkpt>
      <trkpt lat="46.08311" lon="6.36502">
        <ele>446.4</ele>
        <time>2021-03-27T12:29:18Z</time>
      </trkpt>
      <trkpt lat="46.08311" lon="6.36502">
        <ele>446.4</ele>
        <time>2021-03-27T12:29:19Z</time>
      </trkpt>
      <trkpt lat="46.08311" lon="6.36501">
        <ele>446.4</ele>
        <time>2021-03-27T12:29:20Z</time>
      </trkpt>
      <trkpt lat="46.08311" lon="6.36501">
        <ele>446.4</ele>
        <time>2021-03-27T12:29:21Z</time>
      </trkpt>
      <trkpt lat="46.08311" lon="6.36501">
        <ele>446.4</ele>
        <time>2021-03-27T12:29:22Z</time>
      </trkpt>
      <trkpt lat="46.08311" lon="6.36501">
        <ele>446.6</ele>
        <time>2021-03-27T12:29:23Z</time>
      </trkpt>
      <trkpt lat="46.08311" lon="6.36501">
        <ele>446.4</ele>
        <time>2021-03-27T12:29:24Z</time>
      </trkpt>
      <trkpt lat="46.08311" lon="6.36501">
        <ele>446.4</ele>
        <time>2021-03-27T12:29:25Z</time>
      </trkpt>
      <trkpt lat="46.08311" lon="6.36501">
        <ele>446.4</ele>
        <time>2021-03-27T12:29:26Z</time>
      </trkpt>
      <trkpt lat="46.08311" lon="6.36501">
        <ele>446.4</ele>
        <time>2021-03-27T12:29:27Z</time>
      </trkpt>
      <trkpt lat="46.08311" lon="6.36501">
        <ele>446.6</ele>
        <time>2021-03-27T12:29:28Z</time>
      </trkpt>
      <trkpt lat="46.08311" lon="6.36501">
        <ele>446.6</ele>
        <time>2021-03-27T12:29:29Z</time>
      </trkpt>
      <trkpt lat="46.08311" lon="6.36501">
        <ele>446.4</ele>
        <time>2021-03-27T12:29:30Z</time>
      </trkpt>
      <trkpt lat="46.08311" lon="6.36502">
        <ele>446.4</ele>
        <time>2021-03-27T12:29:31Z</time>
      </trkpt>
      <trkpt lat="46.08313" lon="6.36502">
        <ele>446.4</ele>
        <time>2021-03-27T12:29:32Z</time>
      </trkpt>
      <trkpt lat="46.08314" lon="6.36502">
        <ele>446.4</ele>
        <time>2021-03-27T12:29:33Z</time>
      </trkpt>
      <trkpt lat="46.08316" lon="6.36498">
        <ele>446.4</ele>
        <time>2021-03-27T12:29:34Z</time>
      </trkpt>
      <trkpt lat="46.08317" lon="6.36494">
        <ele>446.4</ele>
        <time>2021-03-27T12:29:35Z</time>
      </trkpt>
      <trkpt lat="46.08317" lon="6.3649">
        <ele>446.4</ele>
        <time>2021-03-27T12:29:36Z</time>
      </trkpt>
      <trkpt lat="46.08315" lon="6.36486">
        <ele>446.2</ele>
        <time>2021-03-27T12:29:37Z</time>
      </trkpt>
      <trkpt lat="46.08313" lon="6.36482">
        <ele>446.4</ele>
        <time>2021-03-27T12:29:38Z</time>
      </trkpt>
      <trkpt lat="46.0831" lon="6.36479">
        <ele>446.2</ele>
        <time>2021-03-27T12:29:39Z</time>
      </trkpt>
      <trkpt lat="46.08306" lon="6.36475">
        <ele>446.2</ele>
        <time>2021-03-27T12:29:40Z</time>
      </trkpt>
      <trkpt lat="46.08302" lon="6.36471">
        <ele>446.2</ele>
        <time>2021-03-27T12:29:41Z</time>
      </trkpt>
      <trkpt lat="46.08298" lon="6.36468">
        <ele>446</ele>
        <time>2021-03-27T12:29:42Z</time>
      </trkpt>
      <trkpt lat="46.08294" lon="6.36463">
        <ele>445.8</ele>
        <time>2021-03-27T12:29:43Z</time>
      </trkpt>
      <trkpt lat="46.08289" lon="6.36459">
        <ele>445.8</ele>
        <time>2021-03-27T12:29:44Z</time>
      </trkpt>
      <trkpt lat="46.08284" lon="6.36455">
        <ele>445.6</ele>
        <time>2021-03-27T12:29:45Z</time>
      </trkpt>
      <trkpt lat="46.08279" lon="6.3645">
        <ele>445.4</ele>
        <time>2021-03-27T12:29:46Z</time>
      </trkpt>
      <trkpt lat="46.08274" lon="6.36445">
        <ele>445.4</ele>
        <time>2021-03-27T12:29:47Z</time>
      </trkpt>
      <trkpt lat="46.08269" lon="6.3644">
        <ele>445.4</ele>
        <time>2021-03-27T12:29:48Z</time>
      </trkpt>
      <trkpt lat="46.08264" lon="6.36435">
        <ele>445.4</ele>
        <time>2021-03-27T12:29:49Z</time>
      </trkpt>
      <trkpt lat="46.08258" lon="6.3643">
        <ele>445.2</ele>
        <time>2021-03-27T12:29:50Z</time>
      </trkpt>
      <trkpt lat="46.08253" lon="6.36425">
        <ele>445.4</ele>
        <time>2021-03-27T12:29:51Z</time>
      </trkpt>
      <trkpt lat="46.08247" lon="6.36419">
        <ele>445.2</ele>
        <time>2021-03-27T12:29:52Z</time>
      </trkpt>
      <trkpt lat="46.08242" lon="6.36414">
        <ele>445.2</ele>
        <time>2021-03-27T12:29:53Z</time>
      </trkpt>
      <trkpt lat="46.08236" lon="6.36409">
        <ele>445.4</ele>
        <time>2021-03-27T12:29:54Z</time>
      </trkpt>
      <trkpt lat="46.0823" lon="6.36404">
        <ele>445.4</ele>
        <time>2021-03-27T12:29:55Z</time>
      </trkpt>
      <trkpt lat="46.08225" lon="6.36399">
        <ele>445.4</ele>
        <time>2021-03-27T12:29:56Z</time>
      </trkpt>
      <trkpt lat="46.08219" lon="6.36394">
        <ele>445.4</ele>
        <time>2021-03-27T12:29:57Z</time>
      </trkpt>
      <trkpt lat="46.08213" lon="6.3639">
        <ele>445.4</ele>
        <time>2021-03-27T12:29:58Z</time>
      </trkpt>
      <trkpt lat="46.08206" lon="6.36387">
        <ele>445.4</ele>
        <time>2021-03-27T12:29:59Z</time>
      </trkpt>
      <trkpt lat="46.082" lon="6.36386">
        <ele>445.4</ele>
        <time>2021-03-27T12:30:00Z</time>
      </trkpt>
      <trkpt lat="46.08193" lon="6.36385">
        <ele>445.4</ele>
        <time>2021-03-27T12:30:01Z</time>
      </trkpt>
      <trkpt lat="46.08186" lon="6.36384">
        <ele>445.4</ele>
        <time>2021-03-27T12:30:02Z</time>
      </trkpt>
      <trkpt lat="46.08179" lon="6.36384">
        <ele>445.4</ele>
        <time>2021-03-27T12:30:03Z</time>
      </trkpt>
      <trkpt lat="46.08172" lon="6.36385">
        <ele>445.6</ele>
        <time>2021-03-27T12:30:04Z</time>
      </trkpt>
      <trkpt lat="46.08165" lon="6.36386">
        <ele>445.6</ele>
        <time>2021-03-27T12:30:05Z</time>
      </trkpt>
      <trkpt lat="46.08158" lon="6.36386">
        <ele>445.6</ele>
        <time>2021-03-27T12:30:06Z</time>
      </trkpt>
      <trkpt lat="46.0815" lon="6.36386">
        <ele>445.6</ele>
        <time>2021-03-27T12:30:07Z</time>
      </trkpt>
      <trkpt lat="46.08142" lon="6.36386">
        <ele>445.8</ele>
        <time>2021-03-27T12:30:08Z</time>
      </trkpt>
      <trkpt lat="46.08135" lon="6.36386">
        <ele>446</ele>
        <time>2021-03-27T12:30:09Z</time>
      </trkpt>
      <trkpt lat="46.08127" lon="6.36387">
        <ele>446.2</ele>
        <time>2021-03-27T12:30:10Z</time>
      </trkpt>
      <trkpt lat="46.0812" lon="6.36387">
        <ele>446.2</ele>
        <time>2021-03-27T12:30:11Z</time>
      </trkpt>
      <trkpt lat="46.08112" lon="6.36388">
        <ele>446.2</ele>
        <time>2021-03-27T12:30:12Z</time>
      </trkpt>
      <trkpt lat="46.08105" lon="6.36388">
        <ele>446.2</ele>
        <time>2021-03-27T12:30:13Z</time>
      </trkpt>
      <trkpt lat="46.08097" lon="6.36387">
        <ele>446</ele>
        <time>2021-03-27T12:30:14Z</time>
      </trkpt>
      <trkpt lat="46.0809" lon="6.36386">
        <ele>446</ele>
        <time>2021-03-27T12:30:15Z</time>
      </trkpt>
      <trkpt lat="46.08082" lon="6.36382">
        <ele>446.2</ele>
        <time>2021-03-27T12:30:16Z</time>
      </trkpt>
      <trkpt lat="46.08076" lon="6.36378">
        <ele>446.2</ele>
        <time>2021-03-27T12:30:17Z</time>
      </trkpt>
      <trkpt lat="46.08069" lon="6.36373">
        <ele>446</ele>
        <time>2021-03-27T12:30:18Z</time>
      </trkpt>
      <trkpt lat="46.08063" lon="6.36367">
        <ele>446</ele>
        <time>2021-03-27T12:30:19Z</time>
      </trkpt>
      <trkpt lat="46.08057" lon="6.3636">
        <ele>446</ele>
        <time>2021-03-27T12:30:20Z</time>
      </trkpt>
      <trkpt lat="46.08052" lon="6.36352">
        <ele>446</ele>
        <time>2021-03-27T12:30:21Z</time>
      </trkpt>
      <trkpt lat="46.08047" lon="6.36345">
        <ele>446.2</ele>
        <time>2021-03-27T12:30:22Z</time>
      </trkpt>
      <trkpt lat="46.08042" lon="6.36337">
        <ele>446</ele>
        <time>2021-03-27T12:30:23Z</time>
      </trkpt>
      <trkpt lat="46.08038" lon="6.36329">
        <ele>446</ele>
        <time>2021-03-27T12:30:24Z</time>
      </trkpt>
      <trkpt lat="46.08034" lon="6.3632">
        <ele>445.8</ele>
        <time>2021-03-27T12:30:25Z</time>
      </trkpt>
      <trkpt lat="46.08029" lon="6.36312">
        <ele>445.6</ele>
        <time>2021-03-27T12:30:26Z</time>
      </trkpt>
      <trkpt lat="46.08025" lon="6.36304">
        <ele>445.6</ele>
        <time>2021-03-27T12:30:27Z</time>
      </trkpt>
      <trkpt lat="46.08021" lon="6.36296">
        <ele>445.6</ele>
        <time>2021-03-27T12:30:28Z</time>
      </trkpt>
      <trkpt lat="46.08017" lon="6.36288">
        <ele>445.6</ele>
        <time>2021-03-27T12:30:29Z</time>
      </trkpt>
      <trkpt lat="46.08013" lon="6.3628">
        <ele>445.6</ele>
        <time>2021-03-27T12:30:30Z</time>
      </trkpt>
      <trkpt lat="46.08009" lon="6.36272">
        <ele>445.6</ele>
        <time>2021-03-27T12:30:31Z</time>
      </trkpt>
      <trkpt lat="46.08005" lon="6.36264">
        <ele>445.8</ele>
        <time>2021-03-27T12:30:32Z</time>
      </trkpt>
      <trkpt lat="46.08001" lon="6.36256">
        <ele>445.8</ele>
        <time>2021-03-27T12:30:33Z</time>
      </trkpt>
      <trkpt lat="46.07996" lon="6.36248">
        <ele>445.8</ele>
        <time>2021-03-27T12:30:34Z</time>
      </trkpt>
      <trkpt lat="46.07992" lon="6.36241">
        <ele>446</ele>
        <time>2021-03-27T12:30:35Z</time>
      </trkpt>
      <trkpt lat="46.07987" lon="6.36234">
        <ele>446.2</ele>
        <time>2021-03-27T12:30:36Z</time>
      </trkpt>
      <trkpt lat="46.07983" lon="6.36228">
        <ele>446.2</ele>
        <time>2021-03-27T12:30:37Z</time>
      </trkpt>
      <trkpt lat="46.07978" lon="6.36222">
        <ele>446.6</ele>
        <time>2021-03-27T12:30:38Z</time>
      </trkpt>
      <trkpt lat="46.07973" lon="6.36216">
        <ele>446.4</ele>
        <time>2021-03-27T12:30:39Z</time>
      </trkpt>
      <trkpt lat="46.07969" lon="6.3621">
        <ele>446.6</ele>
        <time>2021-03-27T12:30:40Z</time>
      </trkpt>
      <trkpt lat="46.07965" lon="6.36205">
        <ele>446.6</ele>
        <time>2021-03-27T12:30:41Z</time>
      </trkpt>
      <trkpt lat="46.0796" lon="6.362">
        <ele>446.6</ele>
        <time>2021-03-27T12:30:42Z</time>
      </trkpt>
      <trkpt lat="46.07955" lon="6.36196">
        <ele>446.8</ele>
        <time>2021-03-27T12:30:43Z</time>
      </trkpt>
      <trkpt lat="46.07951" lon="6.36192">
        <ele>446.6</ele>
        <time>2021-03-27T12:30:44Z</time>
      </trkpt>
      <trkpt lat="46.07947" lon="6.36188">
        <ele>447</ele>
        <time>2021-03-27T12:30:45Z</time>
      </trkpt>
      <trkpt lat="46.07942" lon="6.36185">
        <ele>447.2</ele>
        <time>2021-03-27T12:30:46Z</time>
      </trkpt>
      <trkpt lat="46.07938" lon="6.36181">
        <ele>447.4</ele>
        <time>2021-03-27T12:30:47Z</time>
      </trkpt>
      <trkpt lat="46.07934" lon="6.36178">
        <ele>447.6</ele>
        <time>2021-03-27T12:30:48Z</time>
      </trkpt>
      <trkpt lat="46.0793" lon="6.36175">
        <ele>448</ele>
        <time>2021-03-27T12:30:49Z</time>
      </trkpt>
      <trkpt lat="46.07926" lon="6.36172">
        <ele>448.6</ele>
        <time>2021-03-27T12:30:50Z</time>
      </trkpt>
      <trkpt lat="46.07922" lon="6.36169">
        <ele>449.2</ele>
        <time>2021-03-27T12:30:51Z</time>
      </trkpt>
      <trkpt lat="46.07917" lon="6.36166">
        <ele>449.6</ele>
        <time>2021-03-27T12:30:52Z</time>
      </trkpt>
      <trkpt lat="46.07913" lon="6.36163">
        <ele>450</ele>
        <time>2021-03-27T12:30:53Z</time>
      </trkpt>
      <trkpt lat="46.07909" lon="6.3616">
        <ele>450.6</ele>
        <time>2021-03-27T12:30:54Z</time>
      </trkpt>
      <trkpt lat="46.07905" lon="6.36157">
        <ele>450.8</ele>
        <time>2021-03-27T12:30:55Z</time>
      </trkpt>
      <trkpt lat="46.07901" lon="6.36154">
        <ele>451.2</ele>
        <time>2021-03-27T12:30:56Z</time>
      </trkpt>
      <trkpt lat="46.07897" lon="6.36151">
        <ele>451.6</ele>
        <time>2021-03-27T12:30:57Z</time>
      </trkpt>
      <trkpt lat="46.07893" lon="6.36147">
        <ele>451.8</ele>
        <time>2021-03-27T12:30:58Z</time>
      </trkpt>
      <trkpt lat="46.07888" lon="6.36144">
        <ele>451.8</ele>
        <time>2021-03-27T12:30:59Z</time>
      </trkpt>
      <trkpt lat="46.07884" lon="6.36141">
        <ele>452</ele>
        <time>2021-03-27T12:31:00Z</time>
      </trkpt>
      <trkpt lat="46.0788" lon="6.36137">
        <ele>452.2</ele>
        <time>2021-03-27T12:31:01Z</time>
      </trkpt>
      <trkpt lat="46.07875" lon="6.36134">
        <ele>452.6</ele>
        <time>2021-03-27T12:31:02Z</time>
      </trkpt>
      <trkpt lat="46.07871" lon="6.36131">
        <ele>453</ele>
        <time>2021-03-27T12:31:03Z</time>
      </trkpt>
      <trkpt lat="46.07866" lon="6.36128">
        <ele>453.6</ele>
        <time>2021-03-27T12:31:04Z</time>
      </trkpt>
      <trkpt lat="46.07861" lon="6.36125">
        <ele>453.8</ele>
        <time>2021-03-27T12:31:05Z</time>
      </trkpt>
      <trkpt lat="46.07856" lon="6.36122">
        <ele>453.8</ele>
        <time>2021-03-27T12:31:06Z</time>
      </trkpt>
      <trkpt lat="46.07851" lon="6.3612">
        <ele>454</ele>
        <time>2021-03-27T12:31:07Z</time>
      </trkpt>
      <trkpt lat="46.07846" lon="6.36117">
        <ele>454.2</ele>
        <time>2021-03-27T12:31:08Z</time>
      </trkpt>
      <trkpt lat="46.07841" lon="6.36115">
        <ele>454.4</ele>
        <time>2021-03-27T12:31:09Z</time>
      </trkpt>
      <trkpt lat="46.07836" lon="6.36113">
        <ele>454.4</ele>
        <time>2021-03-27T12:31:10Z</time>
      </trkpt>
      <trkpt lat="46.0783" lon="6.36111">
        <ele>454.4</ele>
        <time>2021-03-27T12:31:11Z</time>
      </trkpt>
      <trkpt lat="46.07825" lon="6.36109">
        <ele>454.4</ele>
        <time>2021-03-27T12:31:12Z</time>
      </trkpt>
      <trkpt lat="46.07819" lon="6.36107">
        <ele>454.6</ele>
        <time>2021-03-27T12:31:13Z</time>
      </trkpt>
      <trkpt lat="46.07814" lon="6.36106">
        <ele>454.8</ele>
        <time>2021-03-27T12:31:14Z</time>
      </trkpt>
      <trkpt lat="46.07808" lon="6.36104">
        <ele>454.8</ele>
        <time>2021-03-27T12:31:15Z</time>
      </trkpt>
      <trkpt lat="46.07803" lon="6.36101">
        <ele>454.8</ele>
        <time>2021-03-27T12:31:16Z</time>
      </trkpt>
      <trkpt lat="46.07798" lon="6.36099">
        <ele>454.8</ele>
        <time>2021-03-27T12:31:17Z</time>
      </trkpt>
      <trkpt lat="46.07792" lon="6.36096">
        <ele>454.8</ele>
        <time>2021-03-27T12:31:18Z</time>
      </trkpt>
      <trkpt lat="46.07787" lon="6.36094">
        <ele>454.8</ele>
        <time>2021-03-27T12:31:19Z</time>
      </trkpt>
      <trkpt lat="46.07781" lon="6.36092">
        <ele>455</ele>
        <time>2021-03-27T12:31:20Z</time>
      </trkpt>
      <trkpt lat="46.07775" lon="6.3609">
        <ele>455.2</ele>
        <time>2021-03-27T12:31:21Z</time>
      </trkpt>
      <trkpt lat="46.0777" lon="6.36088">
        <ele>455</ele>
        <time>2021-03-27T12:31:22Z</time>
      </trkpt>
      <trkpt lat="46.07764" lon="6.36086">
        <ele>455.2</ele>
        <time>2021-03-27T12:31:23Z</time>
      </trkpt>
      <trkpt lat="46.07758" lon="6.36083">
        <ele>455.2</ele>
        <time>2021-03-27T12:31:24Z</time>
      </trkpt>
      <trkpt lat="46.07753" lon="6.36081">
        <ele>455.2</ele>
        <time>2021-03-27T12:31:25Z</time>
      </trkpt>
      <trkpt lat="46.07747" lon="6.36079">
        <ele>455.2</ele>
        <time>2021-03-27T12:31:26Z</time>
      </trkpt>
      <trkpt lat="46.07741" lon="6.36077">
        <ele>455.6</ele>
        <time>2021-03-27T12:31:27Z</time>
      </trkpt>
      <trkpt lat="46.07735" lon="6.36075">
        <ele>455.6</ele>
        <time>2021-03-27T12:31:28Z</time>
      </trkpt>
      <trkpt lat="46.07729" lon="6.36072">
        <ele>455.8</ele>
        <time>2021-03-27T12:31:29Z</time>
      </trkpt>
      <trkpt lat="46.07723" lon="6.3607">
        <ele>456</ele>
        <time>2021-03-27T12:31:30Z</time>
      </trkpt>
      <trkpt lat="46.07717" lon="6.36068">
        <ele>456</ele>
        <time>2021-03-27T12:31:31Z</time>
      </trkpt>
      <trkpt lat="46.07711" lon="6.36066">
        <ele>456.2</ele>
        <time>2021-03-27T12:31:32Z</time>
      </trkpt>
      <trkpt lat="46.07706" lon="6.36064">
        <ele>456</ele>
        <time>2021-03-27T12:31:33Z</time>
      </trkpt>
      <trkpt lat="46.077" lon="6.36062">
        <ele>456.2</ele>
        <time>2021-03-27T12:31:34Z</time>
      </trkpt>
      <trkpt lat="46.07695" lon="6.36059">
        <ele>456.2</ele>
        <time>2021-03-27T12:31:35Z</time>
      </trkpt>
      <trkpt lat="46.0769" lon="6.36057">
        <ele>456.4</ele>
        <time>2021-03-27T12:31:36Z</time>
      </trkpt>
      <trkpt lat="46.07685" lon="6.36056">
        <ele>456.2</ele>
        <time>2021-03-27T12:31:37Z</time>
      </trkpt>
      <trkpt lat="46.07681" lon="6.36058">
        <ele>456.2</ele>
        <time>2021-03-27T12:31:38Z</time>
      </trkpt>
      <trkpt lat="46.07677" lon="6.36062">
        <ele>456.4</ele>
        <time>2021-03-27T12:31:39Z</time>
      </trkpt>
      <trkpt lat="46.07674" lon="6.36068">
        <ele>456.4</ele>
        <time>2021-03-27T12:31:40Z</time>
      </trkpt>
      <trkpt lat="46.07671" lon="6.36076">
        <ele>456.4</ele>
        <time>2021-03-27T12:31:41Z</time>
      </trkpt>
      <trkpt lat="46.07665" lon="6.36092">
        <ele>456.8</ele>
        <time>2021-03-27T12:31:43Z</time>
      </trkpt>
      <trkpt lat="46.07663" lon="6.361">
        <ele>456.8</ele>
        <time>2021-03-27T12:31:44Z</time>
      </trkpt>
      <trkpt lat="46.0766" lon="6.36109">
        <ele>457</ele>
        <time>2021-03-27T12:31:45Z</time>
      </trkpt>
      <trkpt lat="46.07659" lon="6.36117">
        <ele>457.2</ele>
        <time>2021-03-27T12:31:46Z</time>
      </trkpt>
      <trkpt lat="46.07657" lon="6.36126">
        <ele>457.4</ele>
        <time>2021-03-27T12:31:47Z</time>
      </trkpt>
      <trkpt lat="46.07655" lon="6.36135">
        <ele>457.6</ele>
        <time>2021-03-27T12:31:48Z</time>
      </trkpt>
      <trkpt lat="46.07653" lon="6.36144">
        <ele>457.6</ele>
        <time>2021-03-27T12:31:49Z</time>
      </trkpt>
      <trkpt lat="46.07651" lon="6.36154">
        <ele>458</ele>
        <time>2021-03-27T12:31:50Z</time>
      </trkpt>
      <trkpt lat="46.0765" lon="6.36163">
        <ele>457.8</ele>
        <time>2021-03-27T12:31:51Z</time>
      </trkpt>
      <trkpt lat="46.07648" lon="6.36173">
        <ele>458</ele>
        <time>2021-03-27T12:31:52Z</time>
      </trkpt>
      <trkpt lat="46.07647" lon="6.36182">
        <ele>458</ele>
        <time>2021-03-27T12:31:53Z</time>
      </trkpt>
      <trkpt lat="46.07645" lon="6.36192">
        <ele>458</ele>
        <time>2021-03-27T12:31:54Z</time>
      </trkpt>
      <trkpt lat="46.07644" lon="6.36202">
        <ele>458.2</ele>
        <time>2021-03-27T12:31:55Z</time>
      </trkpt>
      <trkpt lat="46.07642" lon="6.36212">
        <ele>458.2</ele>
        <time>2021-03-27T12:31:56Z</time>
      </trkpt>
      <trkpt lat="46.07641" lon="6.36222">
        <ele>458.2</ele>
        <time>2021-03-27T12:31:57Z</time>
      </trkpt>
      <trkpt lat="46.0764" lon="6.36232">
        <ele>458.4</ele>
        <time>2021-03-27T12:31:58Z</time>
      </trkpt>
      <trkpt lat="46.07639" lon="6.36241">
        <ele>458.4</ele>
        <time>2021-03-27T12:31:59Z</time>
      </trkpt>
      <trkpt lat="46.07637" lon="6.36251">
        <ele>458.4</ele>
        <time>2021-03-27T12:32:00Z</time>
      </trkpt>
      <trkpt lat="46.07635" lon="6.36261">
        <ele>458.4</ele>
        <time>2021-03-27T12:32:01Z</time>
      </trkpt>
      <trkpt lat="46.07634" lon="6.36271">
        <ele>458.6</ele>
        <time>2021-03-27T12:32:02Z</time>
      </trkpt>
      <trkpt lat="46.07633" lon="6.36281">
        <ele>458.6</ele>
        <time>2021-03-27T12:32:03Z</time>
      </trkpt>
      <trkpt lat="46.07632" lon="6.36291">
        <ele>458.8</ele>
        <time>2021-03-27T12:32:04Z</time>
      </trkpt>
      <trkpt lat="46.07631" lon="6.36301">
        <ele>458.8</ele>
        <time>2021-03-27T12:32:05Z</time>
      </trkpt>
      <trkpt lat="46.07631" lon="6.36311">
        <ele>458.8</ele>
        <time>2021-03-27T12:32:06Z</time>
      </trkpt>
      <trkpt lat="46.07631" lon="6.36321">
        <ele>458.8</ele>
        <time>2021-03-27T12:32:07Z</time>
      </trkpt>
      <trkpt lat="46.07631" lon="6.36331">
        <ele>458.8</ele>
        <time>2021-03-27T12:32:08Z</time>
      </trkpt>
      <trkpt lat="46.07631" lon="6.36341">
        <ele>459</ele>
        <time>2021-03-27T12:32:09Z</time>
      </trkpt>
      <trkpt lat="46.07632" lon="6.36351">
        <ele>458.8</ele>
        <time>2021-03-27T12:32:10Z</time>
      </trkpt>
      <trkpt lat="46.07632" lon="6.36362">
        <ele>459</ele>
        <time>2021-03-27T12:32:11Z</time>
      </trkpt>
      <trkpt lat="46.07633" lon="6.36372">
        <ele>459</ele>
        <time>2021-03-27T12:32:12Z</time>
      </trkpt>
      <trkpt lat="46.07635" lon="6.36382">
        <ele>459.2</ele>
        <time>2021-03-27T12:32:13Z</time>
      </trkpt>
      <trkpt lat="46.07637" lon="6.36392">
        <ele>459.2</ele>
        <time>2021-03-27T12:32:14Z</time>
      </trkpt>
      <trkpt lat="46.0764" lon="6.36402">
        <ele>459.2</ele>
        <time>2021-03-27T12:32:15Z</time>
      </trkpt>
      <trkpt lat="46.07643" lon="6.36412">
        <ele>459.4</ele>
        <time>2021-03-27T12:32:16Z</time>
      </trkpt>
      <trkpt lat="46.07646" lon="6.36422">
        <ele>459.4</ele>
        <time>2021-03-27T12:32:17Z</time>
      </trkpt>
      <trkpt lat="46.07649" lon="6.36432">
        <ele>459.4</ele>
        <time>2021-03-27T12:32:18Z</time>
      </trkpt>
      <trkpt lat="46.07651" lon="6.36443">
        <ele>459.6</ele>
        <time>2021-03-27T12:32:19Z</time>
      </trkpt>
      <trkpt lat="46.07653" lon="6.36454">
        <ele>459.6</ele>
        <time>2021-03-27T12:32:20Z</time>
      </trkpt>
      <trkpt lat="46.07654" lon="6.36465">
        <ele>459.4</ele>
        <time>2021-03-27T12:32:21Z</time>
      </trkpt>
      <trkpt lat="46.07655" lon="6.36476">
        <ele>459.6</ele>
        <time>2021-03-27T12:32:22Z</time>
      </trkpt>
      <trkpt lat="46.07655" lon="6.36488">
        <ele>459.4</ele>
        <time>2021-03-27T12:32:23Z</time>
      </trkpt>
      <trkpt lat="46.07655" lon="6.36499">
        <ele>459.4</ele>
        <time>2021-03-27T12:32:24Z</time>
      </trkpt>
      <trkpt lat="46.07654" lon="6.36511">
        <ele>459.4</ele>
        <time>2021-03-27T12:32:25Z</time>
      </trkpt>
      <trkpt lat="46.07654" lon="6.36522">
        <ele>459.4</ele>
        <time>2021-03-27T12:32:26Z</time>
      </trkpt>
      <trkpt lat="46.07652" lon="6.36534">
        <ele>459.6</ele>
        <time>2021-03-27T12:32:27Z</time>
      </trkpt>
      <trkpt lat="46.0765" lon="6.36545">
        <ele>459.4</ele>
        <time>2021-03-27T12:32:28Z</time>
      </trkpt>
      <trkpt lat="46.07647" lon="6.36555">
        <ele>459.6</ele>
        <time>2021-03-27T12:32:29Z</time>
      </trkpt>
      <trkpt lat="46.07643" lon="6.36566">
        <ele>459.4</ele>
        <time>2021-03-27T12:32:30Z</time>
      </trkpt>
      <trkpt lat="46.07639" lon="6.36576">
        <ele>459.4</ele>
        <time>2021-03-27T12:32:31Z</time>
      </trkpt>
      <trkpt lat="46.07636" lon="6.36587">
        <ele>459.4</ele>
        <time>2021-03-27T12:32:32Z</time>
      </trkpt>
      <trkpt lat="46.07632" lon="6.36598">
        <ele>459.4</ele>
        <time>2021-03-27T12:32:33Z</time>
      </trkpt>
      <trkpt lat="46.07628" lon="6.36608">
        <ele>459.2</ele>
        <time>2021-03-27T12:32:34Z</time>
      </trkpt>
      <trkpt lat="46.07624" lon="6.36618">
        <ele>459.2</ele>
        <time>2021-03-27T12:32:35Z</time>
      </trkpt>
      <trkpt lat="46.07618" lon="6.36625">
        <ele>459</ele>
        <time>2021-03-27T12:32:36Z</time>
      </trkpt>
      <trkpt lat="46.07612" lon="6.36629">
        <ele>459</ele>
        <time>2021-03-27T12:32:37Z</time>
      </trkpt>
      <trkpt lat="46.07605" lon="6.3663">
        <ele>458.8</ele>
        <time>2021-03-27T12:32:38Z</time>
      </trkpt>
      <trkpt lat="46.07598" lon="6.36628">
        <ele>458.6</ele>
        <time>2021-03-27T12:32:39Z</time>
      </trkpt>
      <trkpt lat="46.07592" lon="6.36625">
        <ele>458.4</ele>
        <time>2021-03-27T12:32:40Z</time>
      </trkpt>
      <trkpt lat="46.07585" lon="6.36622">
        <ele>458</ele>
        <time>2021-03-27T12:32:41Z</time>
      </trkpt>
      <trkpt lat="46.07578" lon="6.3662">
        <ele>457.8</ele>
        <time>2021-03-27T12:32:42Z</time>
      </trkpt>
      <trkpt lat="46.07571" lon="6.36618">
        <ele>457.6</ele>
        <time>2021-03-27T12:32:43Z</time>
      </trkpt>
      <trkpt lat="46.07564" lon="6.36616">
        <ele>457.6</ele>
        <time>2021-03-27T12:32:44Z</time>
      </trkpt>
      <trkpt lat="46.07558" lon="6.36614">
        <ele>457.6</ele>
        <time>2021-03-27T12:32:45Z</time>
      </trkpt>
      <trkpt lat="46.07551" lon="6.36612">
        <ele>457.4</ele>
        <time>2021-03-27T12:32:46Z</time>
      </trkpt>
      <trkpt lat="46.07544" lon="6.3661">
        <ele>457.4</ele>
        <time>2021-03-27T12:32:47Z</time>
      </trkpt>
      <trkpt lat="46.07537" lon="6.36609">
        <ele>457.4</ele>
        <time>2021-03-27T12:32:48Z</time>
      </trkpt>
      <trkpt lat="46.07531" lon="6.36607">
        <ele>457.4</ele>
        <time>2021-03-27T12:32:49Z</time>
      </trkpt>
      <trkpt lat="46.07524" lon="6.36605">
        <ele>457.4</ele>
        <time>2021-03-27T12:32:50Z</time>
      </trkpt>
      <trkpt lat="46.07517" lon="6.36604">
        <ele>457.4</ele>
        <time>2021-03-27T12:32:51Z</time>
      </trkpt>
      <trkpt lat="46.07511" lon="6.36602">
        <ele>457.4</ele>
        <time>2021-03-27T12:32:52Z</time>
      </trkpt>
      <trkpt lat="46.07505" lon="6.366">
        <ele>457.4</ele>
        <time>2021-03-27T12:32:53Z</time>
      </trkpt>
      <trkpt lat="46.07499" lon="6.36598">
        <ele>457.4</ele>
        <time>2021-03-27T12:32:54Z</time>
      </trkpt>
      <trkpt lat="46.07493" lon="6.36596">
        <ele>457.4</ele>
        <time>2021-03-27T12:32:55Z</time>
      </trkpt>
      <trkpt lat="46.07487" lon="6.36595">
        <ele>457.6</ele>
        <time>2021-03-27T12:32:56Z</time>
      </trkpt>
      <trkpt lat="46.0748" lon="6.36593">
        <ele>457.8</ele>
        <time>2021-03-27T12:32:57Z</time>
      </trkpt>
      <trkpt lat="46.07474" lon="6.36591">
        <ele>458</ele>
        <time>2021-03-27T12:32:58Z</time>
      </trkpt>
      <trkpt lat="46.07467" lon="6.36589">
        <ele>458</ele>
        <time>2021-03-27T12:32:59Z</time>
      </trkpt>
      <trkpt lat="46.0746" lon="6.36587">
        <ele>458.4</ele>
        <time>2021-03-27T12:33:00Z</time>
      </trkpt>
      <trkpt lat="46.07454" lon="6.36585">
        <ele>458.4</ele>
        <time>2021-03-27T12:33:01Z</time>
      </trkpt>
      <trkpt lat="46.07447" lon="6.36583">
        <ele>458.4</ele>
        <time>2021-03-27T12:33:02Z</time>
      </trkpt>
      <trkpt lat="46.0744" lon="6.36581">
        <ele>458.4</ele>
        <time>2021-03-27T12:33:03Z</time>
      </trkpt>
      <trkpt lat="46.07434" lon="6.36579">
        <ele>458.6</ele>
        <time>2021-03-27T12:33:04Z</time>
      </trkpt>
      <trkpt lat="46.07427" lon="6.36577">
        <ele>458.8</ele>
        <time>2021-03-27T12:33:05Z</time>
      </trkpt>
      <trkpt lat="46.0742" lon="6.36575">
        <ele>458.6</ele>
        <time>2021-03-27T12:33:06Z</time>
      </trkpt>
      <trkpt lat="46.07413" lon="6.36573">
        <ele>458.8</ele>
        <time>2021-03-27T12:33:07Z</time>
      </trkpt>
      <trkpt lat="46.07407" lon="6.36571">
        <ele>459</ele>
        <time>2021-03-27T12:33:08Z</time>
      </trkpt>
      <trkpt lat="46.074" lon="6.36569">
        <ele>459.2</ele>
        <time>2021-03-27T12:33:09Z</time>
      </trkpt>
      <trkpt lat="46.07394" lon="6.36567">
        <ele>459.2</ele>
        <time>2021-03-27T12:33:10Z</time>
      </trkpt>
      <trkpt lat="46.07387" lon="6.36565">
        <ele>459.2</ele>
        <time>2021-03-27T12:33:11Z</time>
      </trkpt>
      <trkpt lat="46.0738" lon="6.36563">
        <ele>459.2</ele>
        <time>2021-03-27T12:33:12Z</time>
      </trkpt>
      <trkpt lat="46.07374" lon="6.36561">
        <ele>459.4</ele>
        <time>2021-03-27T12:33:13Z</time>
      </trkpt>
      <trkpt lat="46.07367" lon="6.36559">
        <ele>459.6</ele>
        <time>2021-03-27T12:33:14Z</time>
      </trkpt>
      <trkpt lat="46.0736" lon="6.36558">
        <ele>459.8</ele>
        <time>2021-03-27T12:33:15Z</time>
      </trkpt>
      <trkpt lat="46.07354" lon="6.36556">
        <ele>459.8</ele>
        <time>2021-03-27T12:33:16Z</time>
      </trkpt>
      <trkpt lat="46.07347" lon="6.36555">
        <ele>459.6</ele>
        <time>2021-03-27T12:33:17Z</time>
      </trkpt>
      <trkpt lat="46.07341" lon="6.36553">
        <ele>459.8</ele>
        <time>2021-03-27T12:33:18Z</time>
      </trkpt>
      <trkpt lat="46.07334" lon="6.36552">
        <ele>460</ele>
        <time>2021-03-27T12:33:19Z</time>
      </trkpt>
      <trkpt lat="46.07328" lon="6.3655">
        <ele>460</ele>
        <time>2021-03-27T12:33:20Z</time>
      </trkpt>
      <trkpt lat="46.07321" lon="6.36549">
        <ele>460</ele>
        <time>2021-03-27T12:33:21Z</time>
      </trkpt>
      <trkpt lat="46.07315" lon="6.36548">
        <ele>460</ele>
        <time>2021-03-27T12:33:22Z</time>
      </trkpt>
      <trkpt lat="46.07309" lon="6.36547">
        <ele>460</ele>
        <time>2021-03-27T12:33:23Z</time>
      </trkpt>
      <trkpt lat="46.07302" lon="6.36546">
        <ele>460</ele>
        <time>2021-03-27T12:33:24Z</time>
      </trkpt>
      <trkpt lat="46.07296" lon="6.36545">
        <ele>460.2</ele>
        <time>2021-03-27T12:33:25Z</time>
      </trkpt>
      <trkpt lat="46.0729" lon="6.36544">
        <ele>460.2</ele>
        <time>2021-03-27T12:33:26Z</time>
      </trkpt>
      <trkpt lat="46.07284" lon="6.36543">
        <ele>460.4</ele>
        <time>2021-03-27T12:33:27Z</time>
      </trkpt>
      <trkpt lat="46.07277" lon="6.36542">
        <ele>460.4</ele>
        <time>2021-03-27T12:33:28Z</time>
      </trkpt>
      <trkpt lat="46.07271" lon="6.36541">
        <ele>460.6</ele>
        <time>2021-03-27T12:33:29Z</time>
      </trkpt>
      <trkpt lat="46.07265" lon="6.3654">
        <ele>460.8</ele>
        <time>2021-03-27T12:33:30Z</time>
      </trkpt>
      <trkpt lat="46.07259" lon="6.36538">
        <ele>461</ele>
        <time>2021-03-27T12:33:31Z</time>
      </trkpt>
      <trkpt lat="46.07253" lon="6.36537">
        <ele>461</ele>
        <time>2021-03-27T12:33:32Z</time>
      </trkpt>
      <trkpt lat="46.07247" lon="6.36536">
        <ele>461.2</ele>
        <time>2021-03-27T12:33:33Z</time>
      </trkpt>
      <trkpt lat="46.07241" lon="6.36535">
        <ele>461.2</ele>
        <time>2021-03-27T12:33:34Z</time>
      </trkpt>
      <trkpt lat="46.07235" lon="6.36534">
        <ele>461.2</ele>
        <time>2021-03-27T12:33:35Z</time>
      </trkpt>
      <trkpt lat="46.07229" lon="6.36533">
        <ele>461.4</ele>
        <time>2021-03-27T12:33:36Z</time>
      </trkpt>
      <trkpt lat="46.07223" lon="6.36532">
        <ele>461.6</ele>
        <time>2021-03-27T12:33:37Z</time>
      </trkpt>
      <trkpt lat="46.07217" lon="6.3653">
        <ele>462</ele>
        <time>2021-03-27T12:33:38Z</time>
      </trkpt>
      <trkpt lat="46.07211" lon="6.36529">
        <ele>462.2</ele>
        <time>2021-03-27T12:33:39Z</time>
      </trkpt>
      <trkpt lat="46.07205" lon="6.36528">
        <ele>462.2</ele>
        <time>2021-03-27T12:33:40Z</time>
      </trkpt>
      <trkpt lat="46.07199" lon="6.36527">
        <ele>462.8</ele>
        <time>2021-03-27T12:33:41Z</time>
      </trkpt>
      <trkpt lat="46.07194" lon="6.36526">
        <ele>462.8</ele>
        <time>2021-03-27T12:33:42Z</time>
      </trkpt>
      <trkpt lat="46.07188" lon="6.36525">
        <ele>463</ele>
        <time>2021-03-27T12:33:43Z</time>
      </trkpt>
      <trkpt lat="46.07182" lon="6.36524">
        <ele>463</ele>
        <time>2021-03-27T12:33:44Z</time>
      </trkpt>
      <trkpt lat="46.07176" lon="6.36523">
        <ele>463.2</ele>
        <time>2021-03-27T12:33:45Z</time>
      </trkpt>
      <trkpt lat="46.0717" lon="6.36522">
        <ele>463.2</ele>
        <time>2021-03-27T12:33:46Z</time>
      </trkpt>
      <trkpt lat="46.07164" lon="6.3652">
        <ele>463.2</ele>
        <time>2021-03-27T12:33:47Z</time>
      </trkpt>
      <trkpt lat="46.07159" lon="6.36518">
        <ele>463.2</ele>
        <time>2021-03-27T12:33:48Z</time>
      </trkpt>
      <trkpt lat="46.07154" lon="6.36515">
        <ele>463.4</ele>
        <time>2021-03-27T12:33:49Z</time>
      </trkpt>
      <trkpt lat="46.07149" lon="6.3651">
        <ele>463.8</ele>
        <time>2021-03-27T12:33:50Z</time>
      </trkpt>
      <trkpt lat="46.07145" lon="6.36505">
        <ele>463.8</ele>
        <time>2021-03-27T12:33:51Z</time>
      </trkpt>
      <trkpt lat="46.07141" lon="6.36499">
        <ele>464.2</ele>
        <time>2021-03-27T12:33:52Z</time>
      </trkpt>
      <trkpt lat="46.07136" lon="6.36495">
        <ele>464.2</ele>
        <time>2021-03-27T12:33:53Z</time>
      </trkpt>
      <trkpt lat="46.07131" lon="6.36492">
        <ele>464.8</ele>
        <time>2021-03-27T12:33:54Z</time>
      </trkpt>
      <trkpt lat="46.07126" lon="6.36491">
        <ele>465</ele>
        <time>2021-03-27T12:33:55Z</time>
      </trkpt>
      <trkpt lat="46.0712" lon="6.36493">
        <ele>465.2</ele>
        <time>2021-03-27T12:33:56Z</time>
      </trkpt>
      <trkpt lat="46.07115" lon="6.36496">
        <ele>465.2</ele>
        <time>2021-03-27T12:33:57Z</time>
      </trkpt>
      <trkpt lat="46.0711" lon="6.36499">
        <ele>465.4</ele>
        <time>2021-03-27T12:33:58Z</time>
      </trkpt>
      <trkpt lat="46.07104" lon="6.365">
        <ele>465.4</ele>
        <time>2021-03-27T12:33:59Z</time>
      </trkpt>
      <trkpt lat="46.07098" lon="6.365">
        <ele>465.6</ele>
        <time>2021-03-27T12:34:00Z</time>
      </trkpt>
      <trkpt lat="46.07091" lon="6.365">
        <ele>465.6</ele>
        <time>2021-03-27T12:34:01Z</time>
      </trkpt>
      <trkpt lat="46.07084" lon="6.36499">
        <ele>465.8</ele>
        <time>2021-03-27T12:34:02Z</time>
      </trkpt>
      <trkpt lat="46.07078" lon="6.36499">
        <ele>465.8</ele>
        <time>2021-03-27T12:34:03Z</time>
      </trkpt>
      <trkpt lat="46.07072" lon="6.36498">
        <ele>465.8</ele>
        <time>2021-03-27T12:34:04Z</time>
      </trkpt>
      <trkpt lat="46.07066" lon="6.36496">
        <ele>465.8</ele>
        <time>2021-03-27T12:34:05Z</time>
      </trkpt>
      <trkpt lat="46.07061" lon="6.36495">
        <ele>465.8</ele>
        <time>2021-03-27T12:34:06Z</time>
      </trkpt>
      <trkpt lat="46.07057" lon="6.36494">
        <ele>466</ele>
        <time>2021-03-27T12:34:07Z</time>
      </trkpt>
      <trkpt lat="46.07055" lon="6.36493">
        <ele>466.2</ele>
        <time>2021-03-27T12:34:08Z</time>
      </trkpt>
      <trkpt lat="46.07055" lon="6.36493">
        <ele>466.4</ele>
        <time>2021-03-27T12:34:09Z</time>
      </trkpt>
      <trkpt lat="46.07055" lon="6.36493">
        <ele>466.4</ele>
        <time>2021-03-27T12:34:10Z</time>
      </trkpt>
      <trkpt lat="46.07055" lon="6.36493">
        <ele>466.6</ele>
        <time>2021-03-27T12:34:11Z</time>
      </trkpt>
      <trkpt lat="46.07055" lon="6.36493">
        <ele>466.8</ele>
        <time>2021-03-27T12:34:12Z</time>
      </trkpt>
      <trkpt lat="46.07055" lon="6.36493">
        <ele>467</ele>
        <time>2021-03-27T12:34:13Z</time>
      </trkpt>
      <trkpt lat="46.07055" lon="6.36493">
        <ele>467</ele>
        <time>2021-03-27T12:34:14Z</time>
      </trkpt>
      <trkpt lat="46.07055" lon="6.36492">
        <ele>467.2</ele>
        <time>2021-03-27T12:34:15Z</time>
      </trkpt>
      <trkpt lat="46.07055" lon="6.36492">
        <ele>467</ele>
        <time>2021-03-27T12:34:16Z</time>
      </trkpt>
      <trkpt lat="46.07055" lon="6.36493">
        <ele>467.4</ele>
        <time>2021-03-27T12:34:17Z</time>
      </trkpt>
      <trkpt lat="46.07055" lon="6.36493">
        <ele>467.6</ele>
        <time>2021-03-27T12:34:18Z</time>
      </trkpt>
      <trkpt lat="46.07055" lon="6.36493">
        <ele>467.8</ele>
        <time>2021-03-27T12:34:19Z</time>
      </trkpt>
      <trkpt lat="46.07055" lon="6.36493">
        <ele>467.8</ele>
        <time>2021-03-27T12:34:20Z</time>
      </trkpt>
      <trkpt lat="46.07055" lon="6.36493">
        <ele>468</ele>
        <time>2021-03-27T12:34:21Z</time>
      </trkpt>
      <trkpt lat="46.07055" lon="6.36493">
        <ele>468</ele>
        <time>2021-03-27T12:34:22Z</time>
      </trkpt>
      <trkpt lat="46.07055" lon="6.36493">
        <ele>468.2</ele>
        <time>2021-03-27T12:34:23Z</time>
      </trkpt>
      <trkpt lat="46.07055" lon="6.36493">
        <ele>468</ele>
        <time>2021-03-27T12:34:24Z</time>
      </trkpt>
      <trkpt lat="46.07056" lon="6.36493">
        <ele>468</ele>
        <time>2021-03-27T12:34:25Z</time>
      </trkpt>
      <trkpt lat="46.07056" lon="6.36493">
        <ele>468.2</ele>
        <time>2021-03-27T12:34:26Z</time>
      </trkpt>
      <trkpt lat="46.07056" lon="6.36493">
        <ele>468</ele>
        <time>2021-03-27T12:34:27Z</time>
      </trkpt>
      <trkpt lat="46.07056" lon="6.36493">
        <ele>468.2</ele>
        <time>2021-03-27T12:34:28Z</time>
      </trkpt>
      <trkpt lat="46.07056" lon="6.36493">
        <ele>468</ele>
        <time>2021-03-27T12:34:29Z</time>
      </trkpt>
      <trkpt lat="46.07056" lon="6.36493">
        <ele>468.2</ele>
        <time>2021-03-27T12:34:30Z</time>
      </trkpt>
      <trkpt lat="46.07056" lon="6.36493">
        <ele>468.2</ele>
        <time>2021-03-27T12:34:31Z</time>
      </trkpt>
      <trkpt lat="46.07056" lon="6.36493">
        <ele>468.2</ele>
        <time>2021-03-27T12:34:32Z</time>
      </trkpt>
      <trkpt lat="46.07056" lon="6.36493">
        <ele>468.2</ele>
        <time>2021-03-27T12:34:33Z</time>
      </trkpt>
      <trkpt lat="46.07056" lon="6.36493">
        <ele>468</ele>
        <time>2021-03-27T12:34:34Z</time>
      </trkpt>
      <trkpt lat="46.07056" lon="6.36493">
        <ele>468.2</ele>
        <time>2021-03-27T12:34:35Z</time>
      </trkpt>
      <trkpt lat="46.07056" lon="6.36493">
        <ele>468.2</ele>
        <time>2021-03-27T12:34:36Z</time>
      </trkpt>
      <trkpt lat="46.07056" lon="6.36493">
        <ele>468.2</ele>
        <time>2021-03-27T12:34:37Z</time>
      </trkpt>
      <trkpt lat="46.07056" lon="6.36493">
        <ele>468</ele>
        <time>2021-03-27T12:34:38Z</time>
      </trkpt>
      <trkpt lat="46.07056" lon="6.36493">
        <ele>468</ele>
        <time>2021-03-27T12:34:39Z</time>
      </trkpt>
      <trkpt lat="46.07056" lon="6.36493">
        <ele>468</ele>
        <time>2021-03-27T12:34:40Z</time>
      </trkpt>
      <trkpt lat="46.07056" lon="6.36493">
        <ele>468</ele>
        <time>2021-03-27T12:34:41Z</time>
      </trkpt>
      <trkpt lat="46.07056" lon="6.36493">
        <ele>468</ele>
        <time>2021-03-27T12:34:42Z</time>
      </trkpt>
      <trkpt lat="46.07056" lon="6.36493">
        <ele>468</ele>
        <time>2021-03-27T12:34:43Z</time>
      </trkpt>
      <trkpt lat="46.07056" lon="6.36493">
        <ele>467.8</ele>
        <time>2021-03-27T12:34:44Z</time>
      </trkpt>
      <trkpt lat="46.07056" lon="6.36493">
        <ele>468</ele>
        <time>2021-03-27T12:34:45Z</time>
      </trkpt>
      <trkpt lat="46.07056" lon="6.36493">
        <ele>468</ele>
        <time>2021-03-27T12:34:46Z</time>
      </trkpt>
      <trkpt lat="46.07056" lon="6.36493">
        <ele>468</ele>
        <time>2021-03-27T12:34:47Z</time>
      </trkpt>
      <trkpt lat="46.07056" lon="6.36493">
        <ele>467.8</ele>
        <time>2021-03-27T12:34:48Z</time>
      </trkpt>
      <trkpt lat="46.07056" lon="6.36493">
        <ele>467.8</ele>
        <time>2021-03-27T12:34:49Z</time>
      </trkpt>
      <trkpt lat="46.07056" lon="6.36493">
        <ele>467.6</ele>
        <time>2021-03-27T12:34:50Z</time>
      </trkpt>
      <trkpt lat="46.07056" lon="6.36493">
        <ele>467.8</ele>
        <time>2021-03-27T12:34:51Z</time>
      </trkpt>
      <trkpt lat="46.07056" lon="6.36493">
        <ele>467.8</ele>
        <time>2021-03-27T12:34:52Z</time>
      </trkpt>
      <trkpt lat="46.07056" lon="6.36493">
        <ele>467.6</ele>
        <time>2021-03-27T12:34:53Z</time>
      </trkpt>
      <trkpt lat="46.07056" lon="6.36493">
        <ele>467.8</ele>
        <time>2021-03-27T12:34:54Z</time>
      </trkpt>
      <trkpt lat="46.07056" lon="6.36493">
        <ele>467.8</ele>
        <time>2021-03-27T12:34:55Z</time>
      </trkpt>
      <trkpt lat="46.07056" lon="6.36493">
        <ele>467.6</ele>
        <time>2021-03-27T12:34:56Z</time>
      </trkpt>
      <trkpt lat="46.07056" lon="6.36493">
        <ele>467.6</ele>
        <time>2021-03-27T12:34:57Z</time>
      </trkpt>
      <trkpt lat="46.07056" lon="6.36493">
        <ele>467.8</ele>
        <time>2021-03-27T12:34:58Z</time>
      </trkpt>
      <trkpt lat="46.07056" lon="6.36493">
        <ele>467.8</ele>
        <time>2021-03-27T12:34:59Z</time>
      </trkpt>
      <trkpt lat="46.07056" lon="6.36493">
        <ele>467.8</ele>
        <time>2021-03-27T12:35:00Z</time>
      </trkpt>
      <trkpt lat="46.07056" lon="6.36493">
        <ele>467.6</ele>
        <time>2021-03-27T12:35:01Z</time>
      </trkpt>
      <trkpt lat="46.07056" lon="6.36493">
        <ele>467.8</ele>
        <time>2021-03-27T12:35:02Z</time>
      </trkpt>
      <trkpt lat="46.07056" lon="6.36493">
        <ele>467.6</ele>
        <time>2021-03-27T12:35:03Z</time>
      </trkpt>
      <trkpt lat="46.07056" lon="6.36493">
        <ele>467.8</ele>
        <time>2021-03-27T12:35:04Z</time>
      </trkpt>
      <trkpt lat="46.07056" lon="6.36493">
        <ele>467.6</ele>
        <time>2021-03-27T12:35:05Z</time>
      </trkpt>
      <trkpt lat="46.07056" lon="6.36493">
        <ele>467.6</ele>
        <time>2021-03-27T12:35:06Z</time>
      </trkpt>
      <trkpt lat="46.07056" lon="6.36493">
        <ele>467.6</ele>
        <time>2021-03-27T12:35:07Z</time>
      </trkpt>
      <trkpt lat="46.07056" lon="6.36493">
        <ele>467.8</ele>
        <time>2021-03-27T12:35:08Z</time>
      </trkpt>
      <trkpt lat="46.07056" lon="6.36493">
        <ele>467.8</ele>
        <time>2021-03-27T12:35:09Z</time>
      </trkpt>
      <trkpt lat="46.07056" lon="6.36493">
        <ele>467.8</ele>
        <time>2021-03-27T12:35:10Z</time>
      </trkpt>
      <trkpt lat="46.07056" lon="6.36493">
        <ele>467.6</ele>
        <time>2021-03-27T12:35:11Z</time>
      </trkpt>
      <trkpt lat="46.07056" lon="6.36493">
        <ele>467.8</ele>
        <time>2021-03-27T12:35:12Z</time>
      </trkpt>
      <trkpt lat="46.07056" lon="6.36493">
        <ele>467.8</ele>
        <time>2021-03-27T12:35:13Z</time>
      </trkpt>
      <trkpt lat="46.07056" lon="6.36493">
        <ele>467.8</ele>
        <time>2021-03-27T12:35:14Z</time>
      </trkpt>
      <trkpt lat="46.07056" lon="6.36493">
        <ele>467.8</ele>
        <time>2021-03-27T12:35:15Z</time>
      </trkpt>
      <trkpt lat="46.07056" lon="6.36493">
        <ele>467.8</ele>
        <time>2021-03-27T12:35:16Z</time>
      </trkpt>
      <trkpt lat="46.07056" lon="6.36493">
        <ele>467.8</ele>
        <time>2021-03-27T12:35:17Z</time>
      </trkpt>
      <trkpt lat="46.07056" lon="6.36493">
        <ele>467.8</ele>
        <time>2021-03-27T12:35:18Z</time>
      </trkpt>
      <trkpt lat="46.07056" lon="6.36493">
        <ele>467.8</ele>
        <time>2021-03-27T12:35:19Z</time>
      </trkpt>
      <trkpt lat="46.07056" lon="6.36493">
        <ele>468</ele>
        <time>2021-03-27T12:35:20Z</time>
      </trkpt>
      <trkpt lat="46.07056" lon="6.36493">
        <ele>468</ele>
        <time>2021-03-27T12:35:21Z</time>
      </trkpt>
      <trkpt lat="46.07056" lon="6.36493">
        <ele>468</ele>
        <time>2021-03-27T12:35:22Z</time>
      </trkpt>
      <trkpt lat="46.07056" lon="6.36493">
        <ele>468</ele>
        <time>2021-03-27T12:35:23Z</time>
      </trkpt>
      <trkpt lat="46.07056" lon="6.36493">
        <ele>468</ele>
        <time>2021-03-27T12:35:24Z</time>
      </trkpt>
      <trkpt lat="46.07056" lon="6.36493">
        <ele>468.2</ele>
        <time>2021-03-27T12:35:25Z</time>
      </trkpt>
      <trkpt lat="46.07056" lon="6.36493">
        <ele>468.2</ele>
        <time>2021-03-27T12:35:26Z</time>
      </trkpt>
      <trkpt lat="46.07056" lon="6.36493">
        <ele>468.2</ele>
        <time>2021-03-27T12:35:27Z</time>
      </trkpt>
      <trkpt lat="46.07056" lon="6.36493">
        <ele>468.2</ele>
        <time>2021-03-27T12:35:28Z</time>
      </trkpt>
      <trkpt lat="46.07056" lon="6.36493">
        <ele>468.2</ele>
        <time>2021-03-27T12:35:29Z</time>
      </trkpt>
      <trkpt lat="46.07056" lon="6.36493">
        <ele>468.4</ele>
        <time>2021-03-27T12:35:30Z</time>
      </trkpt>
      <trkpt lat="46.07056" lon="6.36493">
        <ele>468.4</ele>
        <time>2021-03-27T12:35:31Z</time>
      </trkpt>
      <trkpt lat="46.07056" lon="6.36493">
        <ele>468.2</ele>
        <time>2021-03-27T12:35:32Z</time>
      </trkpt>
      <trkpt lat="46.07056" lon="6.36493">
        <ele>468.2</ele>
        <time>2021-03-27T12:35:33Z</time>
      </trkpt>
      <trkpt lat="46.07056" lon="6.36493">
        <ele>468.2</ele>
        <time>2021-03-27T12:35:34Z</time>
      </trkpt>
      <trkpt lat="46.07056" lon="6.36493">
        <ele>468.2</ele>
        <time>2021-03-27T12:35:35Z</time>
      </trkpt>
      <trkpt lat="46.07056" lon="6.36493">
        <ele>468.2</ele>
        <time>2021-03-27T12:35:36Z</time>
      </trkpt>
      <trkpt lat="46.07056" lon="6.36493">
        <ele>468.2</ele>
        <time>2021-03-27T12:35:37Z</time>
      </trkpt>
      <trkpt lat="46.07056" lon="6.36493">
        <ele>468.4</ele>
        <time>2021-03-27T12:35:38Z</time>
      </trkpt>
      <trkpt lat="46.07056" lon="6.36493">
        <ele>468.2</ele>
        <time>2021-03-27T12:35:39Z</time>
      </trkpt>
      <trkpt lat="46.07056" lon="6.36493">
        <ele>468.2</ele>
        <time>2021-03-27T12:35:40Z</time>
      </trkpt>
      <trkpt lat="46.07056" lon="6.36493">
        <ele>468.2</ele>
        <time>2021-03-27T12:35:41Z</time>
      </trkpt>
      <trkpt lat="46.07056" lon="6.36493">
        <ele>468.2</ele>
        <time>2021-03-27T12:35:42Z</time>
      </trkpt>
      <trkpt lat="46.07056" lon="6.36493">
        <ele>468.2</ele>
        <time>2021-03-27T12:35:43Z</time>
      </trkpt>
      <trkpt lat="46.07056" lon="6.36493">
        <ele>468.2</ele>
        <time>2021-03-27T12:35:44Z</time>
      </trkpt>
      <trkpt lat="46.07056" lon="6.36493">
        <ele>468.2</ele>
        <time>2021-03-27T12:35:45Z</time>
      </trkpt>
      <trkpt lat="46.07056" lon="6.36493">
        <ele>468.2</ele>
        <time>2021-03-27T12:35:46Z</time>
      </trkpt>
      <trkpt lat="46.07056" lon="6.36493">
        <ele>468.2</ele>
        <time>2021-03-27T12:35:47Z</time>
      </trkpt>
      <trkpt lat="46.07056" lon="6.36493">
        <ele>468.2</ele>
        <time>2021-03-27T12:35:48Z</time>
      </trkpt>
      <trkpt lat="46.07056" lon="6.36493">
        <ele>468</ele>
        <time>2021-03-27T12:35:49Z</time>
      </trkpt>
      <trkpt lat="46.07056" lon="6.36493">
        <ele>468.2</ele>
        <time>2021-03-27T12:35:50Z</time>
      </trkpt>
      <trkpt lat="46.07056" lon="6.36493">
        <ele>468</ele>
        <time>2021-03-27T12:35:51Z</time>
      </trkpt>
      <trkpt lat="46.07056" lon="6.36493">
        <ele>468.2</ele>
        <time>2021-03-27T12:35:52Z</time>
      </trkpt>
      <trkpt lat="46.07056" lon="6.36493">
        <ele>468.2</ele>
        <time>2021-03-27T12:35:53Z</time>
      </trkpt>
      <trkpt lat="46.07056" lon="6.36493">
        <ele>468</ele>
        <time>2021-03-27T12:35:54Z</time>
      </trkpt>
      <trkpt lat="46.07056" lon="6.36493">
        <ele>468.2</ele>
        <time>2021-03-27T12:35:55Z</time>
      </trkpt>
      <trkpt lat="46.07056" lon="6.36493">
        <ele>468.2</ele>
        <time>2021-03-27T12:35:56Z</time>
      </trkpt>
      <trkpt lat="46.07056" lon="6.36493">
        <ele>468.2</ele>
        <time>2021-03-27T12:35:57Z</time>
      </trkpt>
      <trkpt lat="46.07056" lon="6.36493">
        <ele>468</ele>
        <time>2021-03-27T12:35:58Z</time>
      </trkpt>
      <trkpt lat="46.07056" lon="6.36493">
        <ele>468</ele>
        <time>2021-03-27T12:35:59Z</time>
      </trkpt>
      <trkpt lat="46.07056" lon="6.36493">
        <ele>468.2</ele>
        <time>2021-03-27T12:36:00Z</time>
      </trkpt>
      <trkpt lat="46.07056" lon="6.36493">
        <ele>468.2</ele>
        <time>2021-03-27T12:36:01Z</time>
      </trkpt>
      <trkpt lat="46.07056" lon="6.36493">
        <ele>468</ele>
        <time>2021-03-27T12:36:02Z</time>
      </trkpt>
      <trkpt lat="46.07056" lon="6.36493">
        <ele>468</ele>
        <time>2021-03-27T12:36:03Z</time>
      </trkpt>
      <trkpt lat="46.07056" lon="6.36493">
        <ele>468.2</ele>
        <time>2021-03-27T12:36:04Z</time>
      </trkpt>
      <trkpt lat="46.07056" lon="6.36493">
        <ele>468.2</ele>
        <time>2021-03-27T12:36:05Z</time>
      </trkpt>
      <trkpt lat="46.07056" lon="6.36493">
        <ele>468.2</ele>
        <time>2021-03-27T12:36:06Z</time>
      </trkpt>
      <trkpt lat="46.07056" lon="6.36493">
        <ele>468.2</ele>
        <time>2021-03-27T12:36:07Z</time>
      </trkpt>
      <trkpt lat="46.07056" lon="6.36493">
        <ele>468.2</ele>
        <time>2021-03-27T12:36:08Z</time>
      </trkpt>
      <trkpt lat="46.07056" lon="6.36493">
        <ele>468.2</ele>
        <time>2021-03-27T12:36:09Z</time>
      </trkpt>
      <trkpt lat="46.07056" lon="6.36493">
        <ele>468.2</ele>
        <time>2021-03-27T12:36:10Z</time>
      </trkpt>
      <trkpt lat="46.07056" lon="6.36493">
        <ele>468.2</ele>
        <time>2021-03-27T12:36:11Z</time>
      </trkpt>
      <trkpt lat="46.07056" lon="6.36493">
        <ele>468.2</ele>
        <time>2021-03-27T12:36:12Z</time>
      </trkpt>
      <trkpt lat="46.07056" lon="6.36493">
        <ele>468.2</ele>
        <time>2021-03-27T12:36:13Z</time>
      </trkpt>
      <trkpt lat="46.07056" lon="6.36493">
        <ele>468.4</ele>
        <time>2021-03-27T12:36:14Z</time>
      </trkpt>
      <trkpt lat="46.07056" lon="6.36493">
        <ele>468.2</ele>
        <time>2021-03-27T12:36:15Z</time>
      </trkpt>
      <trkpt lat="46.07056" lon="6.36493">
        <ele>468.2</ele>
        <time>2021-03-27T12:36:16Z</time>
      </trkpt>
      <trkpt lat="46.07056" lon="6.36493">
        <ele>468.2</ele>
        <time>2021-03-27T12:36:17Z</time>
      </trkpt>
      <trkpt lat="46.07056" lon="6.36493">
        <ele>468.4</ele>
        <time>2021-03-27T12:36:18Z</time>
      </trkpt>
      <trkpt lat="46.07056" lon="6.36493">
        <ele>468.4</ele>
        <time>2021-03-27T12:36:19Z</time>
      </trkpt>
      <trkpt lat="46.07056" lon="6.36493">
        <ele>468.2</ele>
        <time>2021-03-27T12:36:20Z</time>
      </trkpt>
      <trkpt lat="46.07056" lon="6.36493">
        <ele>468.2</ele>
        <time>2021-03-27T12:36:21Z</time>
      </trkpt>
      <trkpt lat="46.07056" lon="6.36493">
        <ele>468.2</ele>
        <time>2021-03-27T12:36:22Z</time>
      </trkpt>
      <trkpt lat="46.07056" lon="6.36493">
        <ele>468.2</ele>
        <time>2021-03-27T12:36:23Z</time>
      </trkpt>
      <trkpt lat="46.07056" lon="6.36493">
        <ele>468.2</ele>
        <time>2021-03-27T12:36:24Z</time>
      </trkpt>
      <trkpt lat="46.07056" lon="6.36493">
        <ele>468.4</ele>
        <time>2021-03-27T12:36:25Z</time>
      </trkpt>
      <trkpt lat="46.07056" lon="6.36493">
        <ele>468.2</ele>
        <time>2021-03-27T12:36:26Z</time>
      </trkpt>
      <trkpt lat="46.07056" lon="6.36493">
        <ele>468.2</ele>
        <time>2021-03-27T12:36:27Z</time>
      </trkpt>
      <trkpt lat="46.07056" lon="6.36493">
        <ele>468.2</ele>
        <time>2021-03-27T12:36:28Z</time>
      </trkpt>
      <trkpt lat="46.07056" lon="6.36493">
        <ele>468.2</ele>
        <time>2021-03-27T12:36:29Z</time>
      </trkpt>
      <trkpt lat="46.07056" lon="6.36493">
        <ele>468.2</ele>
        <time>2021-03-27T12:36:30Z</time>
      </trkpt>
      <trkpt lat="46.07056" lon="6.36493">
        <ele>468.2</ele>
        <time>2021-03-27T12:36:31Z</time>
      </trkpt>
      <trkpt lat="46.07056" lon="6.36493">
        <ele>468.2</ele>
        <time>2021-03-27T12:36:32Z</time>
      </trkpt>
      <trkpt lat="46.07056" lon="6.36493">
        <ele>468.2</ele>
        <time>2021-03-27T12:36:33Z</time>
      </trkpt>
      <trkpt lat="46.07056" lon="6.36493">
        <ele>468.2</ele>
        <time>2021-03-27T12:36:34Z</time>
      </trkpt>
      <trkpt lat="46.07056" lon="6.36493">
        <ele>468</ele>
        <time>2021-03-27T12:36:35Z</time>
      </trkpt>
      <trkpt lat="46.07056" lon="6.36493">
        <ele>468</ele>
        <time>2021-03-27T12:36:36Z</time>
      </trkpt>
      <trkpt lat="46.07056" lon="6.36493">
        <ele>468</ele>
        <time>2021-03-27T12:36:37Z</time>
      </trkpt>
      <trkpt lat="46.07056" lon="6.36493">
        <ele>468</ele>
        <time>2021-03-27T12:36:38Z</time>
      </trkpt>
      <trkpt lat="46.07056" lon="6.36493">
        <ele>468</ele>
        <time>2021-03-27T12:36:39Z</time>
      </trkpt>
      <trkpt lat="46.07056" lon="6.36493">
        <ele>468.2</ele>
        <time>2021-03-27T12:36:40Z</time>
      </trkpt>
      <trkpt lat="46.07056" lon="6.36493">
        <ele>468</ele>
        <time>2021-03-27T12:36:41Z</time>
      </trkpt>
      <trkpt lat="46.07056" lon="6.36493">
        <ele>468</ele>
        <time>2021-03-27T12:36:42Z</time>
      </trkpt>
      <trkpt lat="46.07056" lon="6.36493">
        <ele>468</ele>
        <time>2021-03-27T12:36:43Z</time>
      </trkpt>
      <trkpt lat="46.07056" lon="6.36493">
        <ele>468</ele>
        <time>2021-03-27T12:36:44Z</time>
      </trkpt>
      <trkpt lat="46.07056" lon="6.36493">
        <ele>468</ele>
        <time>2021-03-27T12:36:45Z</time>
      </trkpt>
      <trkpt lat="46.07056" lon="6.36493">
        <ele>468</ele>
        <time>2021-03-27T12:36:46Z</time>
      </trkpt>
      <trkpt lat="46.07056" lon="6.36493">
        <ele>468</ele>
        <time>2021-03-27T12:36:47Z</time>
      </trkpt>
      <trkpt lat="46.07056" lon="6.36493">
        <ele>468</ele>
        <time>2021-03-27T12:36:48Z</time>
      </trkpt>
      <trkpt lat="46.07056" lon="6.36493">
        <ele>468</ele>
        <time>2021-03-27T12:36:49Z</time>
      </trkpt>
      <trkpt lat="46.07056" lon="6.36493">
        <ele>468.2</ele>
        <time>2021-03-27T12:36:50Z</time>
      </trkpt>
      <trkpt lat="46.07056" lon="6.36493">
        <ele>468</ele>
        <time>2021-03-27T12:36:51Z</time>
      </trkpt>
      <trkpt lat="46.07056" lon="6.36493">
        <ele>468</ele>
        <time>2021-03-27T12:36:52Z</time>
      </trkpt>
      <trkpt lat="46.07056" lon="6.36493">
        <ele>468.2</ele>
        <time>2021-03-27T12:36:53Z</time>
      </trkpt>
      <trkpt lat="46.07056" lon="6.36493">
        <ele>468.4</ele>
        <time>2021-03-27T12:36:54Z</time>
      </trkpt>
      <trkpt lat="46.07056" lon="6.36493">
        <ele>468.2</ele>
        <time>2021-03-27T12:36:55Z</time>
      </trkpt>
      <trkpt lat="46.07056" lon="6.36493">
        <ele>468.2</ele>
        <time>2021-03-27T12:36:56Z</time>
      </trkpt>
      <trkpt lat="46.07056" lon="6.36493">
        <ele>468.2</ele>
        <time>2021-03-27T12:36:57Z</time>
      </trkpt>
      <trkpt lat="46.07056" lon="6.36493">
        <ele>468.2</ele>
        <time>2021-03-27T12:36:58Z</time>
      </trkpt>
      <trkpt lat="46.07056" lon="6.36493">
        <ele>468.2</ele>
        <time>2021-03-27T12:36:59Z</time>
      </trkpt>
      <trkpt lat="46.07056" lon="6.36493">
        <ele>468.4</ele>
        <time>2021-03-27T12:37:00Z</time>
      </trkpt>
      <trkpt lat="46.07056" lon="6.36493">
        <ele>468.2</ele>
        <time>2021-03-27T12:37:01Z</time>
      </trkpt>
      <trkpt lat="46.07056" lon="6.36493">
        <ele>468.2</ele>
        <time>2021-03-27T12:37:02Z</time>
      </trkpt>
      <trkpt lat="46.07056" lon="6.36493">
        <ele>468</ele>
        <time>2021-03-27T12:37:03Z</time>
      </trkpt>
      <trkpt lat="46.07056" lon="6.36493">
        <ele>468.2</ele>
        <time>2021-03-27T12:37:04Z</time>
      </trkpt>
      <trkpt lat="46.07056" lon="6.36493">
        <ele>468.2</ele>
        <time>2021-03-27T12:37:05Z</time>
      </trkpt>
      <trkpt lat="46.07056" lon="6.36493">
        <ele>468.2</ele>
        <time>2021-03-27T12:37:06Z</time>
      </trkpt>
      <trkpt lat="46.07056" lon="6.36493">
        <ele>468.2</ele>
        <time>2021-03-27T12:37:07Z</time>
      </trkpt>
      <trkpt lat="46.07056" lon="6.36493">
        <ele>468.2</ele>
        <time>2021-03-27T12:37:08Z</time>
      </trkpt>
      <trkpt lat="46.07056" lon="6.36493">
        <ele>468</ele>
        <time>2021-03-27T12:37:09Z</time>
      </trkpt>
      <trkpt lat="46.07056" lon="6.36493">
        <ele>468</ele>
        <time>2021-03-27T12:37:10Z</time>
      </trkpt>
      <trkpt lat="46.07056" lon="6.36493">
        <ele>468.2</ele>
        <time>2021-03-27T12:37:11Z</time>
      </trkpt>
      <trkpt lat="46.07056" lon="6.36493">
        <ele>468</ele>
        <time>2021-03-27T12:37:12Z</time>
      </trkpt>
      <trkpt lat="46.07056" lon="6.36493">
        <ele>468</ele>
        <time>2021-03-27T12:37:13Z</time>
      </trkpt>
      <trkpt lat="46.07056" lon="6.36493">
        <ele>468</ele>
        <time>2021-03-27T12:37:14Z</time>
      </trkpt>
      <trkpt lat="46.07056" lon="6.36493">
        <ele>468</ele>
        <time>2021-03-27T12:37:15Z</time>
      </trkpt>
      <trkpt lat="46.07056" lon="6.36493">
        <ele>468</ele>
        <time>2021-03-27T12:37:16Z</time>
      </trkpt>
      <trkpt lat="46.07056" lon="6.36493">
        <ele>468</ele>
        <time>2021-03-27T12:37:17Z</time>
      </trkpt>
      <trkpt lat="46.07056" lon="6.36493">
        <ele>468</ele>
        <time>2021-03-27T12:37:18Z</time>
      </trkpt>
      <trkpt lat="46.07056" lon="6.36493">
        <ele>468.2</ele>
        <time>2021-03-27T12:37:19Z</time>
      </trkpt>
      <trkpt lat="46.07056" lon="6.36493">
        <ele>468.2</ele>
        <time>2021-03-27T12:37:20Z</time>
      </trkpt>
      <trkpt lat="46.07056" lon="6.36493">
        <ele>468</ele>
        <time>2021-03-27T12:37:21Z</time>
      </trkpt>
      <trkpt lat="46.07056" lon="6.36493">
        <ele>468</ele>
        <time>2021-03-27T12:37:22Z</time>
      </trkpt>
      <trkpt lat="46.07056" lon="6.36493">
        <ele>468</ele>
        <time>2021-03-27T12:37:23Z</time>
      </trkpt>
      <trkpt lat="46.07056" lon="6.36493">
        <ele>468.2</ele>
        <time>2021-03-27T12:37:24Z</time>
      </trkpt>
      <trkpt lat="46.07056" lon="6.36493">
        <ele>468.2</ele>
        <time>2021-03-27T12:37:25Z</time>
      </trkpt>
      <trkpt lat="46.07056" lon="6.36493">
        <ele>468.4</ele>
        <time>2021-03-27T12:37:26Z</time>
      </trkpt>
      <trkpt lat="46.07056" lon="6.36493">
        <ele>468.2</ele>
        <time>2021-03-27T12:37:27Z</time>
      </trkpt>
      <trkpt lat="46.07056" lon="6.36493">
        <ele>468.4</ele>
        <time>2021-03-27T12:37:28Z</time>
      </trkpt>
      <trkpt lat="46.07056" lon="6.36493">
        <ele>468.2</ele>
        <time>2021-03-27T12:37:29Z</time>
      </trkpt>
      <trkpt lat="46.07056" lon="6.36493">
        <ele>468.2</ele>
        <time>2021-03-27T12:37:30Z</time>
      </trkpt>
      <trkpt lat="46.07056" lon="6.36493">
        <ele>468.2</ele>
        <time>2021-03-27T12:37:31Z</time>
      </trkpt>
      <trkpt lat="46.07056" lon="6.36493">
        <ele>468.4</ele>
        <time>2021-03-27T12:37:32Z</time>
      </trkpt>
      <trkpt lat="46.07056" lon="6.36493">
        <ele>468.4</ele>
        <time>2021-03-27T12:37:33Z</time>
      </trkpt>
      <trkpt lat="46.07056" lon="6.36493">
        <ele>468.4</ele>
        <time>2021-03-27T12:37:34Z</time>
      </trkpt>
      <trkpt lat="46.07056" lon="6.36493">
        <ele>468.4</ele>
        <time>2021-03-27T12:37:35Z</time>
      </trkpt>
      <trkpt lat="46.07056" lon="6.36493">
        <ele>468.4</ele>
        <time>2021-03-27T12:37:36Z</time>
      </trkpt>
      <trkpt lat="46.07056" lon="6.36493">
        <ele>468.4</ele>
        <time>2021-03-27T12:37:37Z</time>
      </trkpt>
      <trkpt lat="46.07056" lon="6.36493">
        <ele>468.4</ele>
        <time>2021-03-27T12:37:38Z</time>
      </trkpt>
      <trkpt lat="46.07056" lon="6.36493">
        <ele>468.4</ele>
        <time>2021-03-27T12:37:39Z</time>
      </trkpt>
      <trkpt lat="46.07056" lon="6.36493">
        <ele>468.4</ele>
        <time>2021-03-27T12:37:40Z</time>
      </trkpt>
      <trkpt lat="46.07056" lon="6.36493">
        <ele>468.2</ele>
        <time>2021-03-27T12:37:41Z</time>
      </trkpt>
      <trkpt lat="46.07056" lon="6.36493">
        <ele>468.2</ele>
        <time>2021-03-27T12:37:42Z</time>
      </trkpt>
      <trkpt lat="46.07056" lon="6.36493">
        <ele>468.4</ele>
        <time>2021-03-27T12:37:43Z</time>
      </trkpt>
      <trkpt lat="46.07056" lon="6.36493">
        <ele>468.2</ele>
        <time>2021-03-27T12:37:44Z</time>
      </trkpt>
      <trkpt lat="46.07056" lon="6.36493">
        <ele>468.4</ele>
        <time>2021-03-27T12:37:45Z</time>
      </trkpt>
      <trkpt lat="46.07055" lon="6.36494">
        <ele>468.2</ele>
        <time>2021-03-27T12:37:46Z</time>
      </trkpt>
      <trkpt lat="46.07055" lon="6.36495">
        <ele>468.2</ele>
        <time>2021-03-27T12:37:47Z</time>
      </trkpt>
      <trkpt lat="46.07054" lon="6.36496">
        <ele>468.4</ele>
        <time>2021-03-27T12:37:48Z</time>
      </trkpt>
      <trkpt lat="46.07054" lon="6.36496">
        <ele>468.2</ele>
        <time>2021-03-27T12:37:49Z</time>
      </trkpt>
      <trkpt lat="46.07053" lon="6.36496">
        <ele>468.4</ele>
        <time>2021-03-27T12:37:50Z</time>
      </trkpt>
      <trkpt lat="46.07053" lon="6.36496">
        <ele>468.4</ele>
        <time>2021-03-27T12:37:51Z</time>
      </trkpt>
      <trkpt lat="46.07051" lon="6.36496">
        <ele>468.2</ele>
        <time>2021-03-27T12:37:52Z</time>
      </trkpt>
      <trkpt lat="46.0705" lon="6.36496">
        <ele>468.2</ele>
        <time>2021-03-27T12:37:53Z</time>
      </trkpt>
      <trkpt lat="46.07048" lon="6.36495">
        <ele>468.4</ele>
        <time>2021-03-27T12:37:54Z</time>
      </trkpt>
      <trkpt lat="46.07046" lon="6.36495">
        <ele>468.2</ele>
        <time>2021-03-27T12:37:55Z</time>
      </trkpt>
      <trkpt lat="46.07043" lon="6.36495">
        <ele>468.4</ele>
        <time>2021-03-27T12:37:56Z</time>
      </trkpt>
      <trkpt lat="46.0704" lon="6.36494">
        <ele>468.2</ele>
        <time>2021-03-27T12:37:57Z</time>
      </trkpt>
      <trkpt lat="46.07037" lon="6.36494">
        <ele>468.2</ele>
        <time>2021-03-27T12:37:58Z</time>
      </trkpt>
      <trkpt lat="46.07033" lon="6.36494">
        <ele>468.2</ele>
        <time>2021-03-27T12:37:59Z</time>
      </trkpt>
      <trkpt lat="46.07029" lon="6.36493">
        <ele>468.2</ele>
        <time>2021-03-27T12:38:00Z</time>
      </trkpt>
      <trkpt lat="46.07024" lon="6.36493">
        <ele>468.2</ele>
        <time>2021-03-27T12:38:01Z</time>
      </trkpt>
      <trkpt lat="46.07019" lon="6.36492">
        <ele>468</ele>
        <time>2021-03-27T12:38:02Z</time>
      </trkpt>
      <trkpt lat="46.07015" lon="6.36492">
        <ele>468.2</ele>
        <time>2021-03-27T12:38:03Z</time>
      </trkpt>
      <trkpt lat="46.07009" lon="6.36492">
        <ele>468</ele>
        <time>2021-03-27T12:38:04Z</time>
      </trkpt>
      <trkpt lat="46.07004" lon="6.36491">
        <ele>468</ele>
        <time>2021-03-27T12:38:05Z</time>
      </trkpt>
      <trkpt lat="46.06999" lon="6.36491">
        <ele>468.2</ele>
        <time>2021-03-27T12:38:06Z</time>
      </trkpt>
      <trkpt lat="46.06993" lon="6.3649">
        <ele>468</ele>
        <time>2021-03-27T12:38:07Z</time>
      </trkpt>
      <trkpt lat="46.06987" lon="6.3649">
        <ele>468.2</ele>
        <time>2021-03-27T12:38:08Z</time>
      </trkpt>
      <trkpt lat="46.06981" lon="6.3649">
        <ele>467.8</ele>
        <time>2021-03-27T12:38:09Z</time>
      </trkpt>
      <trkpt lat="46.06975" lon="6.36489">
        <ele>468</ele>
        <time>2021-03-27T12:38:10Z</time>
      </trkpt>
      <trkpt lat="46.06969" lon="6.36489">
        <ele>468</ele>
        <time>2021-03-27T12:38:11Z</time>
      </trkpt>
      <trkpt lat="46.06963" lon="6.36488">
        <ele>468</ele>
        <time>2021-03-27T12:38:12Z</time>
      </trkpt>
      <trkpt lat="46.06956" lon="6.36488">
        <ele>468</ele>
        <time>2021-03-27T12:38:13Z</time>
      </trkpt>
      <trkpt lat="46.0695" lon="6.36487">
        <ele>468</ele>
        <time>2021-03-27T12:38:14Z</time>
      </trkpt>
      <trkpt lat="46.06944" lon="6.36486">
        <ele>468</ele>
        <time>2021-03-27T12:38:15Z</time>
      </trkpt>
      <trkpt lat="46.06937" lon="6.36486">
        <ele>468</ele>
        <time>2021-03-27T12:38:16Z</time>
      </trkpt>
      <trkpt lat="46.06931" lon="6.36485">
        <ele>467.8</ele>
        <time>2021-03-27T12:38:17Z</time>
      </trkpt>
      <trkpt lat="46.06925" lon="6.36484">
        <ele>467.8</ele>
        <time>2021-03-27T12:38:18Z</time>
      </trkpt>
      <trkpt lat="46.06919" lon="6.36483">
        <ele>467.8</ele>
        <time>2021-03-27T12:38:19Z</time>
      </trkpt>
      <trkpt lat="46.06913" lon="6.36482">
        <ele>467.6</ele>
        <time>2021-03-27T12:38:20Z</time>
      </trkpt>
      <trkpt lat="46.06906" lon="6.3648">
        <ele>467.6</ele>
        <time>2021-03-27T12:38:21Z</time>
      </trkpt>
      <trkpt lat="46.069" lon="6.36479">
        <ele>467.6</ele>
        <time>2021-03-27T12:38:22Z</time>
      </trkpt>
      <trkpt lat="46.06894" lon="6.36478">
        <ele>467.6</ele>
        <time>2021-03-27T12:38:23Z</time>
      </trkpt>
      <trkpt lat="46.06888" lon="6.36477">
        <ele>467.6</ele>
        <time>2021-03-27T12:38:24Z</time>
      </trkpt>
      <trkpt lat="46.06882" lon="6.36476">
        <ele>467.6</ele>
        <time>2021-03-27T12:38:25Z</time>
      </trkpt>
      <trkpt lat="46.06875" lon="6.36475">
        <ele>467.4</ele>
        <time>2021-03-27T12:38:26Z</time>
      </trkpt>
      <trkpt lat="46.06869" lon="6.36473">
        <ele>467.4</ele>
        <time>2021-03-27T12:38:27Z</time>
      </trkpt>
      <trkpt lat="46.06863" lon="6.36472">
        <ele>467.6</ele>
        <time>2021-03-27T12:38:28Z</time>
      </trkpt>
      <trkpt lat="46.06857" lon="6.36471">
        <ele>467.6</ele>
        <time>2021-03-27T12:38:29Z</time>
      </trkpt>
      <trkpt lat="46.0685" lon="6.3647">
        <ele>467.4</ele>
        <time>2021-03-27T12:38:30Z</time>
      </trkpt>
      <trkpt lat="46.06844" lon="6.36468">
        <ele>467.6</ele>
        <time>2021-03-27T12:38:31Z</time>
      </trkpt>
      <trkpt lat="46.06838" lon="6.36467">
        <ele>467.6</ele>
        <time>2021-03-27T12:38:32Z</time>
      </trkpt>
      <trkpt lat="46.06831" lon="6.36466">
        <ele>467.6</ele>
        <time>2021-03-27T12:38:33Z</time>
      </trkpt>
      <trkpt lat="46.06825" lon="6.36464">
        <ele>467.6</ele>
        <time>2021-03-27T12:38:34Z</time>
      </trkpt>
      <trkpt lat="46.06819" lon="6.36463">
        <ele>467.8</ele>
        <time>2021-03-27T12:38:35Z</time>
      </trkpt>
      <trkpt lat="46.06812" lon="6.36461">
        <ele>467.8</ele>
        <time>2021-03-27T12:38:36Z</time>
      </trkpt>
      <trkpt lat="46.06806" lon="6.3646">
        <ele>468</ele>
        <time>2021-03-27T12:38:37Z</time>
      </trkpt>
      <trkpt lat="46.06799" lon="6.36459">
        <ele>468</ele>
        <time>2021-03-27T12:38:38Z</time>
      </trkpt>
      <trkpt lat="46.06793" lon="6.36458">
        <ele>468</ele>
        <time>2021-03-27T12:38:39Z</time>
      </trkpt>
      <trkpt lat="46.06787" lon="6.36457">
        <ele>468.2</ele>
        <time>2021-03-27T12:38:40Z</time>
      </trkpt>
      <trkpt lat="46.0678" lon="6.36456">
        <ele>468.2</ele>
        <time>2021-03-27T12:38:41Z</time>
      </trkpt>
      <trkpt lat="46.06774" lon="6.36454">
        <ele>468.4</ele>
        <time>2021-03-27T12:38:42Z</time>
      </trkpt>
      <trkpt lat="46.06767" lon="6.36453">
        <ele>468.4</ele>
        <time>2021-03-27T12:38:43Z</time>
      </trkpt>
      <trkpt lat="46.06761" lon="6.36452">
        <ele>468.4</ele>
        <time>2021-03-27T12:38:44Z</time>
      </trkpt>
      <trkpt lat="46.06754" lon="6.36451">
        <ele>468.6</ele>
        <time>2021-03-27T12:38:45Z</time>
      </trkpt>
      <trkpt lat="46.06748" lon="6.3645">
        <ele>468.6</ele>
        <time>2021-03-27T12:38:46Z</time>
      </trkpt>
      <trkpt lat="46.06741" lon="6.36449">
        <ele>468.6</ele>
        <time>2021-03-27T12:38:47Z</time>
      </trkpt>
      <trkpt lat="46.06735" lon="6.36448">
        <ele>468.6</ele>
        <time>2021-03-27T12:38:48Z</time>
      </trkpt>
      <trkpt lat="46.06728" lon="6.36447">
        <ele>468.8</ele>
        <time>2021-03-27T12:38:49Z</time>
      </trkpt>
      <trkpt lat="46.06722" lon="6.36445">
        <ele>468.8</ele>
        <time>2021-03-27T12:38:50Z</time>
      </trkpt>
      <trkpt lat="46.06716" lon="6.36444">
        <ele>469</ele>
        <time>2021-03-27T12:38:51Z</time>
      </trkpt>
      <trkpt lat="46.06709" lon="6.36443">
        <ele>469</ele>
        <time>2021-03-27T12:38:52Z</time>
      </trkpt>
      <trkpt lat="46.06703" lon="6.36442">
        <ele>469</ele>
        <time>2021-03-27T12:38:53Z</time>
      </trkpt>
      <trkpt lat="46.06696" lon="6.3644">
        <ele>469</ele>
        <time>2021-03-27T12:38:54Z</time>
      </trkpt>
      <trkpt lat="46.0669" lon="6.36439">
        <ele>469.2</ele>
        <time>2021-03-27T12:38:55Z</time>
      </trkpt>
      <trkpt lat="46.06683" lon="6.36438">
        <ele>469.4</ele>
        <time>2021-03-27T12:38:56Z</time>
      </trkpt>
      <trkpt lat="46.06676" lon="6.36437">
        <ele>469.4</ele>
        <time>2021-03-27T12:38:57Z</time>
      </trkpt>
      <trkpt lat="46.0667" lon="6.36436">
        <ele>469.6</ele>
        <time>2021-03-27T12:38:58Z</time>
      </trkpt>
      <trkpt lat="46.06664" lon="6.36435">
        <ele>469.8</ele>
        <time>2021-03-27T12:38:59Z</time>
      </trkpt>
      <trkpt lat="46.06657" lon="6.36434">
        <ele>469.8</ele>
        <time>2021-03-27T12:39:00Z</time>
      </trkpt>
      <trkpt lat="46.06651" lon="6.36433">
        <ele>469.8</ele>
        <time>2021-03-27T12:39:01Z</time>
      </trkpt>
      <trkpt lat="46.06644" lon="6.36431">
        <ele>470</ele>
        <time>2021-03-27T12:39:02Z</time>
      </trkpt>
      <trkpt lat="46.06638" lon="6.3643">
        <ele>470</ele>
        <time>2021-03-27T12:39:03Z</time>
      </trkpt>
      <trkpt lat="46.06632" lon="6.36429">
        <ele>470</ele>
        <time>2021-03-27T12:39:04Z</time>
      </trkpt>
      <trkpt lat="46.06625" lon="6.36428">
        <ele>470</ele>
        <time>2021-03-27T12:39:05Z</time>
      </trkpt>
      <trkpt lat="46.06619" lon="6.36427">
        <ele>470.2</ele>
        <time>2021-03-27T12:39:06Z</time>
      </trkpt>
      <trkpt lat="46.06613" lon="6.36425">
        <ele>470.2</ele>
        <time>2021-03-27T12:39:07Z</time>
      </trkpt>
      <trkpt lat="46.06606" lon="6.36424">
        <ele>470.4</ele>
        <time>2021-03-27T12:39:08Z</time>
      </trkpt>
      <trkpt lat="46.066" lon="6.36422">
        <ele>470.4</ele>
        <time>2021-03-27T12:39:09Z</time>
      </trkpt>
      <trkpt lat="46.06593" lon="6.36419">
        <ele>470.4</ele>
        <time>2021-03-27T12:39:10Z</time>
      </trkpt>
      <trkpt lat="46.06586" lon="6.36417">
        <ele>470.4</ele>
        <time>2021-03-27T12:39:11Z</time>
      </trkpt>
      <trkpt lat="46.0658" lon="6.36416">
        <ele>470.6</ele>
        <time>2021-03-27T12:39:12Z</time>
      </trkpt>
      <trkpt lat="46.06573" lon="6.36413">
        <ele>470.6</ele>
        <time>2021-03-27T12:39:13Z</time>
      </trkpt>
      <trkpt lat="46.06567" lon="6.3641">
        <ele>470.4</ele>
        <time>2021-03-27T12:39:14Z</time>
      </trkpt>
      <trkpt lat="46.06561" lon="6.36406">
        <ele>470.6</ele>
        <time>2021-03-27T12:39:15Z</time>
      </trkpt>
      <trkpt lat="46.06555" lon="6.36404">
        <ele>470.6</ele>
        <time>2021-03-27T12:39:16Z</time>
      </trkpt>
      <trkpt lat="46.06549" lon="6.36404">
        <ele>470.6</ele>
        <time>2021-03-27T12:39:17Z</time>
      </trkpt>
      <trkpt lat="46.06543" lon="6.36406">
        <ele>470.6</ele>
        <time>2021-03-27T12:39:18Z</time>
      </trkpt>
      <trkpt lat="46.06537" lon="6.36407">
        <ele>470.8</ele>
        <time>2021-03-27T12:39:19Z</time>
      </trkpt>
      <trkpt lat="46.06531" lon="6.36408">
        <ele>470.8</ele>
        <time>2021-03-27T12:39:20Z</time>
      </trkpt>
      <trkpt lat="46.06524" lon="6.36407">
        <ele>471</ele>
        <time>2021-03-27T12:39:21Z</time>
      </trkpt>
      <trkpt lat="46.06518" lon="6.36407">
        <ele>471</ele>
        <time>2021-03-27T12:39:22Z</time>
      </trkpt>
      <trkpt lat="46.06511" lon="6.36406">
        <ele>471.2</ele>
        <time>2021-03-27T12:39:23Z</time>
      </trkpt>
      <trkpt lat="46.06504" lon="6.36406">
        <ele>471.2</ele>
        <time>2021-03-27T12:39:24Z</time>
      </trkpt>
      <trkpt lat="46.06498" lon="6.36405">
        <ele>471.4</ele>
        <time>2021-03-27T12:39:25Z</time>
      </trkpt>
      <trkpt lat="46.06491" lon="6.36405">
        <ele>472</ele>
        <time>2021-03-27T12:39:26Z</time>
      </trkpt>
      <trkpt lat="46.06484" lon="6.36405">
        <ele>472.4</ele>
        <time>2021-03-27T12:39:27Z</time>
      </trkpt>
      <trkpt lat="46.06478" lon="6.36404">
        <ele>472.6</ele>
        <time>2021-03-27T12:39:28Z</time>
      </trkpt>
      <trkpt lat="46.06471" lon="6.36404">
        <ele>472.6</ele>
        <time>2021-03-27T12:39:29Z</time>
      </trkpt>
      <trkpt lat="46.06465" lon="6.36403">
        <ele>472.6</ele>
        <time>2021-03-27T12:39:30Z</time>
      </trkpt>
      <trkpt lat="46.06458" lon="6.36402">
        <ele>472.8</ele>
        <time>2021-03-27T12:39:31Z</time>
      </trkpt>
      <trkpt lat="46.06452" lon="6.36402">
        <ele>473</ele>
        <time>2021-03-27T12:39:32Z</time>
      </trkpt>
      <trkpt lat="46.06445" lon="6.36402">
        <ele>473</ele>
        <time>2021-03-27T12:39:33Z</time>
      </trkpt>
      <trkpt lat="46.06438" lon="6.36401">
        <ele>473.2</ele>
        <time>2021-03-27T12:39:34Z</time>
      </trkpt>
      <trkpt lat="46.06432" lon="6.36402">
        <ele>473.2</ele>
        <time>2021-03-27T12:39:35Z</time>
      </trkpt>
      <trkpt lat="46.06425" lon="6.36402">
        <ele>473.4</ele>
        <time>2021-03-27T12:39:36Z</time>
      </trkpt>
      <trkpt lat="46.06419" lon="6.36402">
        <ele>473.4</ele>
        <time>2021-03-27T12:39:37Z</time>
      </trkpt>
      <trkpt lat="46.06412" lon="6.36403">
        <ele>473.6</ele>
        <time>2021-03-27T12:39:38Z</time>
      </trkpt>
      <trkpt lat="46.06406" lon="6.36403">
        <ele>473.8</ele>
        <time>2021-03-27T12:39:39Z</time>
      </trkpt>
      <trkpt lat="46.06399" lon="6.36403">
        <ele>473.6</ele>
        <time>2021-03-27T12:39:40Z</time>
      </trkpt>
      <trkpt lat="46.06393" lon="6.36404">
        <ele>473.8</ele>
        <time>2021-03-27T12:39:41Z</time>
      </trkpt>
      <trkpt lat="46.06387" lon="6.36405">
        <ele>473.8</ele>
        <time>2021-03-27T12:39:42Z</time>
      </trkpt>
      <trkpt lat="46.06381" lon="6.36405">
        <ele>474.2</ele>
        <time>2021-03-27T12:39:43Z</time>
      </trkpt>
      <trkpt lat="46.06375" lon="6.36406">
        <ele>474.2</ele>
        <time>2021-03-27T12:39:44Z</time>
      </trkpt>
      <trkpt lat="46.06369" lon="6.36405">
        <ele>474.2</ele>
        <time>2021-03-27T12:39:45Z</time>
      </trkpt>
      <trkpt lat="46.06362" lon="6.36405">
        <ele>474.4</ele>
        <time>2021-03-27T12:39:46Z</time>
      </trkpt>
      <trkpt lat="46.06356" lon="6.36405">
        <ele>474.4</ele>
        <time>2021-03-27T12:39:47Z</time>
      </trkpt>
      <trkpt lat="46.0635" lon="6.36404">
        <ele>474.6</ele>
        <time>2021-03-27T12:39:48Z</time>
      </trkpt>
      <trkpt lat="46.06344" lon="6.36404">
        <ele>474.8</ele>
        <time>2021-03-27T12:39:49Z</time>
      </trkpt>
      <trkpt lat="46.06338" lon="6.36403">
        <ele>475</ele>
        <time>2021-03-27T12:39:50Z</time>
      </trkpt>
      <trkpt lat="46.06331" lon="6.36402">
        <ele>475.2</ele>
        <time>2021-03-27T12:39:51Z</time>
      </trkpt>
      <trkpt lat="46.06325" lon="6.36401">
        <ele>475.4</ele>
        <time>2021-03-27T12:39:52Z</time>
      </trkpt>
      <trkpt lat="46.06318" lon="6.36399">
        <ele>475.4</ele>
        <time>2021-03-27T12:39:53Z</time>
      </trkpt>
      <trkpt lat="46.06312" lon="6.36398">
        <ele>475.6</ele>
        <time>2021-03-27T12:39:54Z</time>
      </trkpt>
      <trkpt lat="46.06305" lon="6.36396">
        <ele>475.6</ele>
        <time>2021-03-27T12:39:55Z</time>
      </trkpt>
      <trkpt lat="46.06299" lon="6.36395">
        <ele>475.6</ele>
        <time>2021-03-27T12:39:56Z</time>
      </trkpt>
      <trkpt lat="46.06293" lon="6.36394">
        <ele>475.8</ele>
        <time>2021-03-27T12:39:57Z</time>
      </trkpt>
      <trkpt lat="46.06286" lon="6.36392">
        <ele>475.6</ele>
        <time>2021-03-27T12:39:58Z</time>
      </trkpt>
      <trkpt lat="46.0628" lon="6.36391">
        <ele>475.8</ele>
        <time>2021-03-27T12:39:59Z</time>
      </trkpt>
      <trkpt lat="46.06274" lon="6.36389">
        <ele>476</ele>
        <time>2021-03-27T12:40:00Z</time>
      </trkpt>
      <trkpt lat="46.06267" lon="6.36388">
        <ele>476</ele>
        <time>2021-03-27T12:40:01Z</time>
      </trkpt>
      <trkpt lat="46.06261" lon="6.36386">
        <ele>476</ele>
        <time>2021-03-27T12:40:02Z</time>
      </trkpt>
      <trkpt lat="46.06255" lon="6.36385">
        <ele>476</ele>
        <time>2021-03-27T12:40:03Z</time>
      </trkpt>
      <trkpt lat="46.06249" lon="6.36383">
        <ele>476.2</ele>
        <time>2021-03-27T12:40:04Z</time>
      </trkpt>
      <trkpt lat="46.06242" lon="6.36381">
        <ele>476</ele>
        <time>2021-03-27T12:40:05Z</time>
      </trkpt>
      <trkpt lat="46.06235" lon="6.3638">
        <ele>476.2</ele>
        <time>2021-03-27T12:40:06Z</time>
      </trkpt>
      <trkpt lat="46.06229" lon="6.36378">
        <ele>476.2</ele>
        <time>2021-03-27T12:40:07Z</time>
      </trkpt>
      <trkpt lat="46.06222" lon="6.36377">
        <ele>476.4</ele>
        <time>2021-03-27T12:40:08Z</time>
      </trkpt>
      <trkpt lat="46.06215" lon="6.36375">
        <ele>476.4</ele>
        <time>2021-03-27T12:40:09Z</time>
      </trkpt>
      <trkpt lat="46.06208" lon="6.36373">
        <ele>476.8</ele>
        <time>2021-03-27T12:40:10Z</time>
      </trkpt>
      <trkpt lat="46.06202" lon="6.36371">
        <ele>476.8</ele>
        <time>2021-03-27T12:40:11Z</time>
      </trkpt>
      <trkpt lat="46.06195" lon="6.3637">
        <ele>477</ele>
        <time>2021-03-27T12:40:12Z</time>
      </trkpt>
      <trkpt lat="46.06188" lon="6.36368">
        <ele>476.8</ele>
        <time>2021-03-27T12:40:13Z</time>
      </trkpt>
      <trkpt lat="46.06181" lon="6.36368">
        <ele>477</ele>
        <time>2021-03-27T12:40:14Z</time>
      </trkpt>
      <trkpt lat="46.06175" lon="6.36368">
        <ele>477.2</ele>
        <time>2021-03-27T12:40:15Z</time>
      </trkpt>
      <trkpt lat="46.06168" lon="6.36369">
        <ele>477.2</ele>
        <time>2021-03-27T12:40:16Z</time>
      </trkpt>
      <trkpt lat="46.06161" lon="6.36371">
        <ele>477.2</ele>
        <time>2021-03-27T12:40:17Z</time>
      </trkpt>
      <trkpt lat="46.06155" lon="6.36372">
        <ele>477.4</ele>
        <time>2021-03-27T12:40:18Z</time>
      </trkpt>
      <trkpt lat="46.06148" lon="6.36373">
        <ele>477.4</ele>
        <time>2021-03-27T12:40:19Z</time>
      </trkpt>
      <trkpt lat="46.06141" lon="6.36373">
        <ele>477.2</ele>
        <time>2021-03-27T12:40:20Z</time>
      </trkpt>
      <trkpt lat="46.06134" lon="6.36372">
        <ele>477.4</ele>
        <time>2021-03-27T12:40:21Z</time>
      </trkpt>
      <trkpt lat="46.06128" lon="6.36372">
        <ele>477.4</ele>
        <time>2021-03-27T12:40:22Z</time>
      </trkpt>
      <trkpt lat="46.06121" lon="6.36371">
        <ele>477.2</ele>
        <time>2021-03-27T12:40:23Z</time>
      </trkpt>
      <trkpt lat="46.06114" lon="6.36371">
        <ele>477.6</ele>
        <time>2021-03-27T12:40:24Z</time>
      </trkpt>
      <trkpt lat="46.06107" lon="6.3637">
        <ele>477.6</ele>
        <time>2021-03-27T12:40:25Z</time>
      </trkpt>
      <trkpt lat="46.06101" lon="6.3637">
        <ele>477.6</ele>
        <time>2021-03-27T12:40:26Z</time>
      </trkpt>
      <trkpt lat="46.06094" lon="6.36369">
        <ele>477.6</ele>
        <time>2021-03-27T12:40:27Z</time>
      </trkpt>
      <trkpt lat="46.06087" lon="6.36368">
        <ele>477.6</ele>
        <time>2021-03-27T12:40:28Z</time>
      </trkpt>
      <trkpt lat="46.0608" lon="6.36367">
        <ele>477.8</ele>
        <time>2021-03-27T12:40:29Z</time>
      </trkpt>
      <trkpt lat="46.06073" lon="6.36367">
        <ele>477.8</ele>
        <time>2021-03-27T12:40:30Z</time>
      </trkpt>
      <trkpt lat="46.06067" lon="6.36365">
        <ele>477.8</ele>
        <time>2021-03-27T12:40:31Z</time>
      </trkpt>
      <trkpt lat="46.0606" lon="6.36364">
        <ele>477.8</ele>
        <time>2021-03-27T12:40:32Z</time>
      </trkpt>
      <trkpt lat="46.06053" lon="6.36363">
        <ele>478.2</ele>
        <time>2021-03-27T12:40:33Z</time>
      </trkpt>
      <trkpt lat="46.06046" lon="6.36361">
        <ele>478.2</ele>
        <time>2021-03-27T12:40:34Z</time>
      </trkpt>
      <trkpt lat="46.0604" lon="6.3636">
        <ele>478.4</ele>
        <time>2021-03-27T12:40:35Z</time>
      </trkpt>
      <trkpt lat="46.06033" lon="6.36358">
        <ele>478.6</ele>
        <time>2021-03-27T12:40:36Z</time>
      </trkpt>
      <trkpt lat="46.06027" lon="6.36356">
        <ele>478.8</ele>
        <time>2021-03-27T12:40:37Z</time>
      </trkpt>
      <trkpt lat="46.0602" lon="6.36355">
        <ele>478.8</ele>
        <time>2021-03-27T12:40:38Z</time>
      </trkpt>
      <trkpt lat="46.06014" lon="6.36354">
        <ele>478.6</ele>
        <time>2021-03-27T12:40:39Z</time>
      </trkpt>
      <trkpt lat="46.06007" lon="6.36353">
        <ele>478.8</ele>
        <time>2021-03-27T12:40:40Z</time>
      </trkpt>
      <trkpt lat="46.06001" lon="6.36352">
        <ele>478.8</ele>
        <time>2021-03-27T12:40:41Z</time>
      </trkpt>
      <trkpt lat="46.05996" lon="6.36351">
        <ele>478.8</ele>
        <time>2021-03-27T12:40:42Z</time>
      </trkpt>
      <trkpt lat="46.0599" lon="6.3635">
        <ele>478.8</ele>
        <time>2021-03-27T12:40:43Z</time>
      </trkpt>
      <trkpt lat="46.05985" lon="6.3635">
        <ele>478.8</ele>
        <time>2021-03-27T12:40:44Z</time>
      </trkpt>
      <trkpt lat="46.05979" lon="6.36351">
        <ele>478.8</ele>
        <time>2021-03-27T12:40:45Z</time>
      </trkpt>
      <trkpt lat="46.05974" lon="6.36352">
        <ele>478.8</ele>
        <time>2021-03-27T12:40:46Z</time>
      </trkpt>
      <trkpt lat="46.05968" lon="6.36355">
        <ele>479</ele>
        <time>2021-03-27T12:40:47Z</time>
      </trkpt>
      <trkpt lat="46.05963" lon="6.36359">
        <ele>478.8</ele>
        <time>2021-03-27T12:40:48Z</time>
      </trkpt>
      <trkpt lat="46.0596" lon="6.36365">
        <ele>479</ele>
        <time>2021-03-27T12:40:49Z</time>
      </trkpt>
      <trkpt lat="46.05958" lon="6.36372">
        <ele>479</ele>
        <time>2021-03-27T12:40:50Z</time>
      </trkpt>
      <trkpt lat="46.05957" lon="6.3638">
        <ele>479</ele>
        <time>2021-03-27T12:40:51Z</time>
      </trkpt>
      <trkpt lat="46.05955" lon="6.36388">
        <ele>479.2</ele>
        <time>2021-03-27T12:40:52Z</time>
      </trkpt>
      <trkpt lat="46.05952" lon="6.36394">
        <ele>479.2</ele>
        <time>2021-03-27T12:40:53Z</time>
      </trkpt>
      <trkpt lat="46.05947" lon="6.36396">
        <ele>479.4</ele>
        <time>2021-03-27T12:40:54Z</time>
      </trkpt>
      <trkpt lat="46.05943" lon="6.36397">
        <ele>479.4</ele>
        <time>2021-03-27T12:40:55Z</time>
      </trkpt>
      <trkpt lat="46.05937" lon="6.36395">
        <ele>479.4</ele>
        <time>2021-03-27T12:40:56Z</time>
      </trkpt>
      <trkpt lat="46.05932" lon="6.36393">
        <ele>479.6</ele>
        <time>2021-03-27T12:40:57Z</time>
      </trkpt>
      <trkpt lat="46.05927" lon="6.36392">
        <ele>479.8</ele>
        <time>2021-03-27T12:40:58Z</time>
      </trkpt>
      <trkpt lat="46.05922" lon="6.36389">
        <ele>480</ele>
        <time>2021-03-27T12:40:59Z</time>
      </trkpt>
      <trkpt lat="46.05917" lon="6.36385">
        <ele>480.2</ele>
        <time>2021-03-27T12:41:00Z</time>
      </trkpt>
      <trkpt lat="46.05912" lon="6.36381">
        <ele>480</ele>
        <time>2021-03-27T12:41:01Z</time>
      </trkpt>
      <trkpt lat="46.05906" lon="6.36377">
        <ele>480</ele>
        <time>2021-03-27T12:41:02Z</time>
      </trkpt>
      <trkpt lat="46.05902" lon="6.36371">
        <ele>480.2</ele>
        <time>2021-03-27T12:41:03Z</time>
      </trkpt>
      <trkpt lat="46.05898" lon="6.36365">
        <ele>480</ele>
        <time>2021-03-27T12:41:04Z</time>
      </trkpt>
      <trkpt lat="46.05895" lon="6.36358">
        <ele>480</ele>
        <time>2021-03-27T12:41:05Z</time>
      </trkpt>
      <trkpt lat="46.05893" lon="6.3635">
        <ele>480.2</ele>
        <time>2021-03-27T12:41:06Z</time>
      </trkpt>
      <trkpt lat="46.05891" lon="6.36343">
        <ele>480.2</ele>
        <time>2021-03-27T12:41:07Z</time>
      </trkpt>
      <trkpt lat="46.05888" lon="6.36337">
        <ele>480.4</ele>
        <time>2021-03-27T12:41:08Z</time>
      </trkpt>
      <trkpt lat="46.05884" lon="6.36334">
        <ele>480.2</ele>
        <time>2021-03-27T12:41:09Z</time>
      </trkpt>
      <trkpt lat="46.0588" lon="6.36332">
        <ele>480.2</ele>
        <time>2021-03-27T12:41:10Z</time>
      </trkpt>
      <trkpt lat="46.05875" lon="6.36331">
        <ele>480.4</ele>
        <time>2021-03-27T12:41:11Z</time>
      </trkpt>
      <trkpt lat="46.0587" lon="6.36331">
        <ele>480.2</ele>
        <time>2021-03-27T12:41:12Z</time>
      </trkpt>
      <trkpt lat="46.05865" lon="6.3633">
        <ele>480.2</ele>
        <time>2021-03-27T12:41:13Z</time>
      </trkpt>
      <trkpt lat="46.0586" lon="6.36331">
        <ele>480</ele>
        <time>2021-03-27T12:41:14Z</time>
      </trkpt>
      <trkpt lat="46.05855" lon="6.36331">
        <ele>480.2</ele>
        <time>2021-03-27T12:41:15Z</time>
      </trkpt>
      <trkpt lat="46.05849" lon="6.36331">
        <ele>480</ele>
        <time>2021-03-27T12:41:16Z</time>
      </trkpt>
      <trkpt lat="46.05843" lon="6.36331">
        <ele>480</ele>
        <time>2021-03-27T12:41:17Z</time>
      </trkpt>
      <trkpt lat="46.05837" lon="6.36331">
        <ele>480</ele>
        <time>2021-03-27T12:41:18Z</time>
      </trkpt>
      <trkpt lat="46.05831" lon="6.36331">
        <ele>480</ele>
        <time>2021-03-27T12:41:19Z</time>
      </trkpt>
      <trkpt lat="46.05825" lon="6.36331">
        <ele>480</ele>
        <time>2021-03-27T12:41:20Z</time>
      </trkpt>
      <trkpt lat="46.05819" lon="6.36331">
        <ele>480</ele>
        <time>2021-03-27T12:41:21Z</time>
      </trkpt>
      <trkpt lat="46.05813" lon="6.36331">
        <ele>480</ele>
        <time>2021-03-27T12:41:22Z</time>
      </trkpt>
      <trkpt lat="46.05807" lon="6.36331">
        <ele>480.2</ele>
        <time>2021-03-27T12:41:23Z</time>
      </trkpt>
      <trkpt lat="46.05801" lon="6.36331">
        <ele>480.2</ele>
        <time>2021-03-27T12:41:24Z</time>
      </trkpt>
      <trkpt lat="46.05795" lon="6.36331">
        <ele>480.2</ele>
        <time>2021-03-27T12:41:25Z</time>
      </trkpt>
      <trkpt lat="46.05789" lon="6.36332">
        <ele>480.2</ele>
        <time>2021-03-27T12:41:26Z</time>
      </trkpt>
      <trkpt lat="46.05783" lon="6.36333">
        <ele>480</ele>
        <time>2021-03-27T12:41:27Z</time>
      </trkpt>
      <trkpt lat="46.05777" lon="6.36333">
        <ele>480.2</ele>
        <time>2021-03-27T12:41:28Z</time>
      </trkpt>
      <trkpt lat="46.05771" lon="6.36334">
        <ele>480.2</ele>
        <time>2021-03-27T12:41:29Z</time>
      </trkpt>
      <trkpt lat="46.05765" lon="6.36335">
        <ele>480.2</ele>
        <time>2021-03-27T12:41:30Z</time>
      </trkpt>
      <trkpt lat="46.05759" lon="6.36337">
        <ele>480.2</ele>
        <time>2021-03-27T12:41:31Z</time>
      </trkpt>
      <trkpt lat="46.05752" lon="6.36337">
        <ele>480.2</ele>
        <time>2021-03-27T12:41:32Z</time>
      </trkpt>
      <trkpt lat="46.05746" lon="6.36338">
        <ele>480.2</ele>
        <time>2021-03-27T12:41:33Z</time>
      </trkpt>
      <trkpt lat="46.0574" lon="6.36339">
        <ele>480.4</ele>
        <time>2021-03-27T12:41:34Z</time>
      </trkpt>
      <trkpt lat="46.05734" lon="6.36339">
        <ele>480.2</ele>
        <time>2021-03-27T12:41:35Z</time>
      </trkpt>
      <trkpt lat="46.05728" lon="6.3634">
        <ele>480.4</ele>
        <time>2021-03-27T12:41:36Z</time>
      </trkpt>
      <trkpt lat="46.05722" lon="6.36341">
        <ele>480.4</ele>
        <time>2021-03-27T12:41:37Z</time>
      </trkpt>
      <trkpt lat="46.05717" lon="6.36341">
        <ele>480.4</ele>
        <time>2021-03-27T12:41:38Z</time>
      </trkpt>
      <trkpt lat="46.05711" lon="6.3634">
        <ele>480.4</ele>
        <time>2021-03-27T12:41:39Z</time>
      </trkpt>
      <trkpt lat="46.05705" lon="6.3634">
        <ele>480.8</ele>
        <time>2021-03-27T12:41:40Z</time>
      </trkpt>
      <trkpt lat="46.05699" lon="6.36339">
        <ele>481</ele>
        <time>2021-03-27T12:41:41Z</time>
      </trkpt>
      <trkpt lat="46.05692" lon="6.36339">
        <ele>481</ele>
        <time>2021-03-27T12:41:42Z</time>
      </trkpt>
      <trkpt lat="46.05686" lon="6.36339">
        <ele>481.2</ele>
        <time>2021-03-27T12:41:43Z</time>
      </trkpt>
      <trkpt lat="46.0568" lon="6.36339">
        <ele>481.4</ele>
        <time>2021-03-27T12:41:44Z</time>
      </trkpt>
      <trkpt lat="46.05675" lon="6.36339">
        <ele>481.4</ele>
        <time>2021-03-27T12:41:45Z</time>
      </trkpt>
      <trkpt lat="46.05669" lon="6.36338">
        <ele>481.6</ele>
        <time>2021-03-27T12:41:46Z</time>
      </trkpt>
      <trkpt lat="46.05663" lon="6.36337">
        <ele>481.6</ele>
        <time>2021-03-27T12:41:47Z</time>
      </trkpt>
      <trkpt lat="46.05657" lon="6.36336">
        <ele>481.8</ele>
        <time>2021-03-27T12:41:48Z</time>
      </trkpt>
      <trkpt lat="46.05652" lon="6.36335">
        <ele>482</ele>
        <time>2021-03-27T12:41:49Z</time>
      </trkpt>
      <trkpt lat="46.05647" lon="6.36334">
        <ele>482</ele>
        <time>2021-03-27T12:41:50Z</time>
      </trkpt>
      <trkpt lat="46.05642" lon="6.36332">
        <ele>482</ele>
        <time>2021-03-27T12:41:51Z</time>
      </trkpt>
      <trkpt lat="46.05637" lon="6.36331">
        <ele>482.2</ele>
        <time>2021-03-27T12:41:52Z</time>
      </trkpt>
      <trkpt lat="46.05633" lon="6.36329">
        <ele>482.2</ele>
        <time>2021-03-27T12:41:53Z</time>
      </trkpt>
      <trkpt lat="46.05628" lon="6.36327">
        <ele>482.4</ele>
        <time>2021-03-27T12:41:54Z</time>
      </trkpt>
      <trkpt lat="46.05621" lon="6.36324">
        <ele>482.2</ele>
        <time>2021-03-27T12:41:56Z</time>
      </trkpt>
      <trkpt lat="46.05618" lon="6.36323">
        <ele>482.4</ele>
        <time>2021-03-27T12:41:57Z</time>
      </trkpt>
      <trkpt lat="46.05615" lon="6.36322">
        <ele>482.6</ele>
        <time>2021-03-27T12:41:58Z</time>
      </trkpt>
      <trkpt lat="46.05612" lon="6.36321">
        <ele>482.8</ele>
        <time>2021-03-27T12:41:59Z</time>
      </trkpt>
      <trkpt lat="46.05609" lon="6.36321">
        <ele>483.4</ele>
        <time>2021-03-27T12:42:00Z</time>
      </trkpt>
      <trkpt lat="46.05606" lon="6.3632">
        <ele>484.2</ele>
        <time>2021-03-27T12:42:01Z</time>
      </trkpt>
      <trkpt lat="46.05604" lon="6.36321">
        <ele>484.6</ele>
        <time>2021-03-27T12:42:02Z</time>
      </trkpt>
      <trkpt lat="46.05601" lon="6.36322">
        <ele>485.2</ele>
        <time>2021-03-27T12:42:03Z</time>
      </trkpt>
      <trkpt lat="46.05599" lon="6.36324">
        <ele>485.6</ele>
        <time>2021-03-27T12:42:04Z</time>
      </trkpt>
      <trkpt lat="46.05596" lon="6.36327">
        <ele>485.8</ele>
        <time>2021-03-27T12:42:05Z</time>
      </trkpt>
      <trkpt lat="46.05594" lon="6.36331">
        <ele>486.4</ele>
        <time>2021-03-27T12:42:06Z</time>
      </trkpt>
      <trkpt lat="46.05593" lon="6.36335">
        <ele>487</ele>
        <time>2021-03-27T12:42:07Z</time>
      </trkpt>
      <trkpt lat="46.05591" lon="6.3634">
        <ele>487.4</ele>
        <time>2021-03-27T12:42:08Z</time>
      </trkpt>
      <trkpt lat="46.05591" lon="6.36345">
        <ele>487.6</ele>
        <time>2021-03-27T12:42:09Z</time>
      </trkpt>
      <trkpt lat="46.0559" lon="6.3635">
        <ele>488.2</ele>
        <time>2021-03-27T12:42:10Z</time>
      </trkpt>
      <trkpt lat="46.05589" lon="6.36355">
        <ele>488.8</ele>
        <time>2021-03-27T12:42:11Z</time>
      </trkpt>
      <trkpt lat="46.05589" lon="6.36359">
        <ele>488.8</ele>
        <time>2021-03-27T12:42:12Z</time>
      </trkpt>
      <trkpt lat="46.05588" lon="6.36364">
        <ele>489.4</ele>
        <time>2021-03-27T12:42:13Z</time>
      </trkpt>
      <trkpt lat="46.05588" lon="6.36368">
        <ele>489.6</ele>
        <time>2021-03-27T12:42:14Z</time>
      </trkpt>
      <trkpt lat="46.05587" lon="6.36373">
        <ele>489.8</ele>
        <time>2021-03-27T12:42:15Z</time>
      </trkpt>
      <trkpt lat="46.05586" lon="6.36377">
        <ele>490</ele>
        <time>2021-03-27T12:42:16Z</time>
      </trkpt>
      <trkpt lat="46.05585" lon="6.36382">
        <ele>490.2</ele>
        <time>2021-03-27T12:42:17Z</time>
      </trkpt>
      <trkpt lat="46.05585" lon="6.36386">
        <ele>490.6</ele>
        <time>2021-03-27T12:42:18Z</time>
      </trkpt>
      <trkpt lat="46.05584" lon="6.36391">
        <ele>490.6</ele>
        <time>2021-03-27T12:42:19Z</time>
      </trkpt>
      <trkpt lat="46.05583" lon="6.36396">
        <ele>490.8</ele>
        <time>2021-03-27T12:42:20Z</time>
      </trkpt>
      <trkpt lat="46.05582" lon="6.36401">
        <ele>491</ele>
        <time>2021-03-27T12:42:21Z</time>
      </trkpt>
      <trkpt lat="46.05581" lon="6.36406">
        <ele>491.4</ele>
        <time>2021-03-27T12:42:22Z</time>
      </trkpt>
      <trkpt lat="46.0558" lon="6.36411">
        <ele>491.8</ele>
        <time>2021-03-27T12:42:23Z</time>
      </trkpt>
      <trkpt lat="46.0558" lon="6.36416">
        <ele>492</ele>
        <time>2021-03-27T12:42:24Z</time>
      </trkpt>
      <trkpt lat="46.05579" lon="6.36421">
        <ele>492.4</ele>
        <time>2021-03-27T12:42:25Z</time>
      </trkpt>
      <trkpt lat="46.05578" lon="6.36426">
        <ele>492.6</ele>
        <time>2021-03-27T12:42:26Z</time>
      </trkpt>
      <trkpt lat="46.05578" lon="6.36431">
        <ele>493</ele>
        <time>2021-03-27T12:42:27Z</time>
      </trkpt>
      <trkpt lat="46.05577" lon="6.36436">
        <ele>493.2</ele>
        <time>2021-03-27T12:42:28Z</time>
      </trkpt>
      <trkpt lat="46.05577" lon="6.36441">
        <ele>493.4</ele>
        <time>2021-03-27T12:42:29Z</time>
      </trkpt>
      <trkpt lat="46.05576" lon="6.36447">
        <ele>493.6</ele>
        <time>2021-03-27T12:42:30Z</time>
      </trkpt>
      <trkpt lat="46.05576" lon="6.36452">
        <ele>493.8</ele>
        <time>2021-03-27T12:42:31Z</time>
      </trkpt>
      <trkpt lat="46.05575" lon="6.36457">
        <ele>493.8</ele>
        <time>2021-03-27T12:42:32Z</time>
      </trkpt>
      <trkpt lat="46.05575" lon="6.36463">
        <ele>494</ele>
        <time>2021-03-27T12:42:33Z</time>
      </trkpt>
      <trkpt lat="46.05575" lon="6.36468">
        <ele>494.2</ele>
        <time>2021-03-27T12:42:34Z</time>
      </trkpt>
      <trkpt lat="46.05575" lon="6.36473">
        <ele>494.4</ele>
        <time>2021-03-27T12:42:35Z</time>
      </trkpt>
      <trkpt lat="46.05574" lon="6.36478">
        <ele>494.8</ele>
        <time>2021-03-27T12:42:36Z</time>
      </trkpt>
      <trkpt lat="46.05573" lon="6.36483">
        <ele>495.2</ele>
        <time>2021-03-27T12:42:37Z</time>
      </trkpt>
      <trkpt lat="46.05571" lon="6.36487">
        <ele>495.2</ele>
        <time>2021-03-27T12:42:38Z</time>
      </trkpt>
      <trkpt lat="46.05568" lon="6.3649">
        <ele>495.4</ele>
        <time>2021-03-27T12:42:39Z</time>
      </trkpt>
      <trkpt lat="46.05566" lon="6.36492">
        <ele>495.8</ele>
        <time>2021-03-27T12:42:40Z</time>
      </trkpt>
      <trkpt lat="46.05563" lon="6.36492">
        <ele>496</ele>
        <time>2021-03-27T12:42:41Z</time>
      </trkpt>
      <trkpt lat="46.0556" lon="6.36492">
        <ele>496.2</ele>
        <time>2021-03-27T12:42:42Z</time>
      </trkpt>
      <trkpt lat="46.05557" lon="6.36492">
        <ele>496.4</ele>
        <time>2021-03-27T12:42:43Z</time>
      </trkpt>
      <trkpt lat="46.05553" lon="6.36492">
        <ele>496.6</ele>
        <time>2021-03-27T12:42:44Z</time>
      </trkpt>
      <trkpt lat="46.0555" lon="6.36494">
        <ele>497</ele>
        <time>2021-03-27T12:42:45Z</time>
      </trkpt>
      <trkpt lat="46.05546" lon="6.36497">
        <ele>497.2</ele>
        <time>2021-03-27T12:42:46Z</time>
      </trkpt>
      <trkpt lat="46.05544" lon="6.36502">
        <ele>497.4</ele>
        <time>2021-03-27T12:42:47Z</time>
      </trkpt>
      <trkpt lat="46.05542" lon="6.36508">
        <ele>497.6</ele>
        <time>2021-03-27T12:42:48Z</time>
      </trkpt>
      <trkpt lat="46.05541" lon="6.36513">
        <ele>497.6</ele>
        <time>2021-03-27T12:42:49Z</time>
      </trkpt>
      <trkpt lat="46.0554" lon="6.36519">
        <ele>497.8</ele>
        <time>2021-03-27T12:42:50Z</time>
      </trkpt>
      <trkpt lat="46.0554" lon="6.36525">
        <ele>498</ele>
        <time>2021-03-27T12:42:51Z</time>
      </trkpt>
      <trkpt lat="46.05539" lon="6.36531">
        <ele>498.2</ele>
        <time>2021-03-27T12:42:52Z</time>
      </trkpt>
      <trkpt lat="46.05539" lon="6.36537">
        <ele>498.4</ele>
        <time>2021-03-27T12:42:53Z</time>
      </trkpt>
      <trkpt lat="46.05539" lon="6.36542">
        <ele>498.6</ele>
        <time>2021-03-27T12:42:54Z</time>
      </trkpt>
      <trkpt lat="46.05538" lon="6.36548">
        <ele>498.6</ele>
        <time>2021-03-27T12:42:55Z</time>
      </trkpt>
      <trkpt lat="46.05538" lon="6.36553">
        <ele>498.6</ele>
        <time>2021-03-27T12:42:56Z</time>
      </trkpt>
      <trkpt lat="46.05538" lon="6.36558">
        <ele>498.8</ele>
        <time>2021-03-27T12:42:57Z</time>
      </trkpt>
      <trkpt lat="46.05537" lon="6.36563">
        <ele>499.2</ele>
        <time>2021-03-27T12:42:58Z</time>
      </trkpt>
      <trkpt lat="46.05537" lon="6.36568">
        <ele>499.4</ele>
        <time>2021-03-27T12:42:59Z</time>
      </trkpt>
      <trkpt lat="46.05536" lon="6.36574">
        <ele>499.6</ele>
        <time>2021-03-27T12:43:00Z</time>
      </trkpt>
      <trkpt lat="46.05536" lon="6.3658">
        <ele>499.8</ele>
        <time>2021-03-27T12:43:01Z</time>
      </trkpt>
      <trkpt lat="46.05535" lon="6.36586">
        <ele>500</ele>
        <time>2021-03-27T12:43:02Z</time>
      </trkpt>
      <trkpt lat="46.05534" lon="6.36597">
        <ele>500.4</ele>
        <time>2021-03-27T12:43:04Z</time>
      </trkpt>
      <trkpt lat="46.05534" lon="6.36603">
        <ele>500.6</ele>
        <time>2021-03-27T12:43:05Z</time>
      </trkpt>
      <trkpt lat="46.05533" lon="6.36614">
        <ele>501.2</ele>
        <time>2021-03-27T12:43:07Z</time>
      </trkpt>
      <trkpt lat="46.05533" lon="6.3662">
        <ele>501.2</ele>
        <time>2021-03-27T12:43:08Z</time>
      </trkpt>
      <trkpt lat="46.05533" lon="6.36632">
        <ele>501.4</ele>
        <time>2021-03-27T12:43:10Z</time>
      </trkpt>
      <trkpt lat="46.05532" lon="6.36638">
        <ele>501.6</ele>
        <time>2021-03-27T12:43:11Z</time>
      </trkpt>
      <trkpt lat="46.05531" lon="6.3665">
        <ele>502</ele>
        <time>2021-03-27T12:43:13Z</time>
      </trkpt>
      <trkpt lat="46.05531" lon="6.36655">
        <ele>502</ele>
        <time>2021-03-27T12:43:14Z</time>
      </trkpt>
      <trkpt lat="46.0553" lon="6.36661">
        <ele>502.2</ele>
        <time>2021-03-27T12:43:15Z</time>
      </trkpt>
      <trkpt lat="46.0553" lon="6.36666">
        <ele>502.6</ele>
        <time>2021-03-27T12:43:16Z</time>
      </trkpt>
      <trkpt lat="46.0553" lon="6.36671">
        <ele>502.6</ele>
        <time>2021-03-27T12:43:17Z</time>
      </trkpt>
      <trkpt lat="46.05529" lon="6.36676">
        <ele>502.6</ele>
        <time>2021-03-27T12:43:18Z</time>
      </trkpt>
      <trkpt lat="46.05528" lon="6.36681">
        <ele>502.6</ele>
        <time>2021-03-27T12:43:19Z</time>
      </trkpt>
      <trkpt lat="46.05527" lon="6.36685">
        <ele>502.6</ele>
        <time>2021-03-27T12:43:20Z</time>
      </trkpt>
      <trkpt lat="46.05525" lon="6.36688">
        <ele>502.6</ele>
        <time>2021-03-27T12:43:21Z</time>
      </trkpt>
      <trkpt lat="46.05523" lon="6.3669">
        <ele>502.6</ele>
        <time>2021-03-27T12:43:22Z</time>
      </trkpt>
      <trkpt lat="46.05521" lon="6.36691">
        <ele>502.8</ele>
        <time>2021-03-27T12:43:23Z</time>
      </trkpt>
      <trkpt lat="46.05519" lon="6.36691">
        <ele>502.8</ele>
        <time>2021-03-27T12:43:24Z</time>
      </trkpt>
      <trkpt lat="46.05517" lon="6.3669">
        <ele>503.4</ele>
        <time>2021-03-27T12:43:25Z</time>
      </trkpt>
      <trkpt lat="46.05515" lon="6.36688">
        <ele>503.6</ele>
        <time>2021-03-27T12:43:26Z</time>
      </trkpt>
      <trkpt lat="46.05511" lon="6.36685">
        <ele>504.2</ele>
        <time>2021-03-27T12:43:28Z</time>
      </trkpt>
      <trkpt lat="46.0551" lon="6.36684">
        <ele>504.6</ele>
        <time>2021-03-27T12:43:29Z</time>
      </trkpt>
      <trkpt lat="46.05508" lon="6.3668">
        <ele>505.8</ele>
        <time>2021-03-27T12:43:31Z</time>
      </trkpt>
      <trkpt lat="46.05506" lon="6.36678">
        <ele>506.2</ele>
        <time>2021-03-27T12:43:32Z</time>
      </trkpt>
      <trkpt lat="46.05504" lon="6.36675">
        <ele>507.2</ele>
        <time>2021-03-27T12:43:34Z</time>
      </trkpt>
      <trkpt lat="46.05503" lon="6.36672">
        <ele>507.4</ele>
        <time>2021-03-27T12:43:35Z</time>
      </trkpt>
      <trkpt lat="46.055" lon="6.36668">
        <ele>508.2</ele>
        <time>2021-03-27T12:43:37Z</time>
      </trkpt>
      <trkpt lat="46.05499" lon="6.36666">
        <ele>508.6</ele>
        <time>2021-03-27T12:43:38Z</time>
      </trkpt>
      <trkpt lat="46.05496" lon="6.3666">
        <ele>509.4</ele>
        <time>2021-03-27T12:43:40Z</time>
      </trkpt>
      <trkpt lat="46.05495" lon="6.36658">
        <ele>509.8</ele>
        <time>2021-03-27T12:43:41Z</time>
      </trkpt>
      <trkpt lat="46.05493" lon="6.36654">
        <ele>510.6</ele>
        <time>2021-03-27T12:43:43Z</time>
      </trkpt>
      <trkpt lat="46.05492" lon="6.36652">
        <ele>511</ele>
        <time>2021-03-27T12:43:44Z</time>
      </trkpt>
      <trkpt lat="46.05489" lon="6.36649">
        <ele>511.8</ele>
        <time>2021-03-27T12:43:46Z</time>
      </trkpt>
      <trkpt lat="46.05487" lon="6.36647">
        <ele>512</ele>
        <time>2021-03-27T12:43:47Z</time>
      </trkpt>
      <trkpt lat="46.05483" lon="6.36647">
        <ele>513</ele>
        <time>2021-03-27T12:43:49Z</time>
      </trkpt>
      <trkpt lat="46.0548" lon="6.36648">
        <ele>513.4</ele>
        <time>2021-03-27T12:43:50Z</time>
      </trkpt>
      <trkpt lat="46.05476" lon="6.36649">
        <ele>514.2</ele>
        <time>2021-03-27T12:43:52Z</time>
      </trkpt>
      <trkpt lat="46.05474" lon="6.36649">
        <ele>514.4</ele>
        <time>2021-03-27T12:43:53Z</time>
      </trkpt>
      <trkpt lat="46.0547" lon="6.36646">
        <ele>515.4</ele>
        <time>2021-03-27T12:43:55Z</time>
      </trkpt>
      <trkpt lat="46.05468" lon="6.36644">
        <ele>515.8</ele>
        <time>2021-03-27T12:43:56Z</time>
      </trkpt>
      <trkpt lat="46.05464" lon="6.36638">
        <ele>516.6</ele>
        <time>2021-03-27T12:43:58Z</time>
      </trkpt>
      <trkpt lat="46.0546" lon="6.36632">
        <ele>517.6</ele>
        <time>2021-03-27T12:44:00Z</time>
      </trkpt>
      <trkpt lat="46.05458" lon="6.36629">
        <ele>518</ele>
        <time>2021-03-27T12:44:01Z</time>
      </trkpt>
      <trkpt lat="46.05454" lon="6.36623">
        <ele>518.2</ele>
        <time>2021-03-27T12:44:03Z</time>
      </trkpt>
      <trkpt lat="46.05453" lon="6.36619">
        <ele>518.6</ele>
        <time>2021-03-27T12:44:04Z</time>
      </trkpt>
      <trkpt lat="46.05451" lon="6.36616">
        <ele>518.6</ele>
        <time>2021-03-27T12:44:05Z</time>
      </trkpt>
      <trkpt lat="46.0545" lon="6.36612">
        <ele>518.4</ele>
        <time>2021-03-27T12:44:06Z</time>
      </trkpt>
      <trkpt lat="46.05448" lon="6.36608">
        <ele>518.6</ele>
        <time>2021-03-27T12:44:07Z</time>
      </trkpt>
      <trkpt lat="46.05447" lon="6.36604">
        <ele>518.8</ele>
        <time>2021-03-27T12:44:08Z</time>
      </trkpt>
      <trkpt lat="46.05446" lon="6.366">
        <ele>519</ele>
        <time>2021-03-27T12:44:09Z</time>
      </trkpt>
      <trkpt lat="46.05445" lon="6.36595">
        <ele>519</ele>
        <time>2021-03-27T12:44:10Z</time>
      </trkpt>
      <trkpt lat="46.05444" lon="6.36591">
        <ele>519.6</ele>
        <time>2021-03-27T12:44:11Z</time>
      </trkpt>
      <trkpt lat="46.05443" lon="6.36587">
        <ele>519.6</ele>
        <time>2021-03-27T12:44:12Z</time>
      </trkpt>
      <trkpt lat="46.05442" lon="6.36583">
        <ele>519.6</ele>
        <time>2021-03-27T12:44:13Z</time>
      </trkpt>
      <trkpt lat="46.05442" lon="6.36578">
        <ele>519.8</ele>
        <time>2021-03-27T12:44:14Z</time>
      </trkpt>
      <trkpt lat="46.05441" lon="6.36574">
        <ele>520</ele>
        <time>2021-03-27T12:44:15Z</time>
      </trkpt>
      <trkpt lat="46.0544" lon="6.3657">
        <ele>520</ele>
        <time>2021-03-27T12:44:16Z</time>
      </trkpt>
      <trkpt lat="46.0544" lon="6.36566">
        <ele>520.2</ele>
        <time>2021-03-27T12:44:17Z</time>
      </trkpt>
      <trkpt lat="46.05439" lon="6.36561">
        <ele>520.2</ele>
        <time>2021-03-27T12:44:18Z</time>
      </trkpt>
      <trkpt lat="46.05439" lon="6.36557">
        <ele>520.4</ele>
        <time>2021-03-27T12:44:19Z</time>
      </trkpt>
      <trkpt lat="46.05439" lon="6.36553">
        <ele>520.4</ele>
        <time>2021-03-27T12:44:20Z</time>
      </trkpt>
      <trkpt lat="46.05438" lon="6.36549">
        <ele>520.6</ele>
        <time>2021-03-27T12:44:21Z</time>
      </trkpt>
      <trkpt lat="46.05438" lon="6.36544">
        <ele>520.6</ele>
        <time>2021-03-27T12:44:22Z</time>
      </trkpt>
      <trkpt lat="46.05438" lon="6.3654">
        <ele>521</ele>
        <time>2021-03-27T12:44:23Z</time>
      </trkpt>
      <trkpt lat="46.05437" lon="6.36536">
        <ele>521.2</ele>
        <time>2021-03-27T12:44:24Z</time>
      </trkpt>
      <trkpt lat="46.05437" lon="6.36531">
        <ele>521.2</ele>
        <time>2021-03-27T12:44:25Z</time>
      </trkpt>
      <trkpt lat="46.05437" lon="6.36527">
        <ele>521.8</ele>
        <time>2021-03-27T12:44:26Z</time>
      </trkpt>
      <trkpt lat="46.05437" lon="6.36522">
        <ele>522</ele>
        <time>2021-03-27T12:44:27Z</time>
      </trkpt>
      <trkpt lat="46.05437" lon="6.36517">
        <ele>522.2</ele>
        <time>2021-03-27T12:44:28Z</time>
      </trkpt>
      <trkpt lat="46.05437" lon="6.36513">
        <ele>522.6</ele>
        <time>2021-03-27T12:44:29Z</time>
      </trkpt>
      <trkpt lat="46.05437" lon="6.36508">
        <ele>522.8</ele>
        <time>2021-03-27T12:44:30Z</time>
      </trkpt>
      <trkpt lat="46.05437" lon="6.36504">
        <ele>523</ele>
        <time>2021-03-27T12:44:31Z</time>
      </trkpt>
      <trkpt lat="46.05438" lon="6.36499">
        <ele>523.4</ele>
        <time>2021-03-27T12:44:32Z</time>
      </trkpt>
      <trkpt lat="46.05438" lon="6.36494">
        <ele>523.4</ele>
        <time>2021-03-27T12:44:33Z</time>
      </trkpt>
      <trkpt lat="46.05438" lon="6.3649">
        <ele>523.6</ele>
        <time>2021-03-27T12:44:34Z</time>
      </trkpt>
      <trkpt lat="46.05438" lon="6.36485">
        <ele>523.6</ele>
        <time>2021-03-27T12:44:35Z</time>
      </trkpt>
      <trkpt lat="46.05439" lon="6.3648">
        <ele>524</ele>
        <time>2021-03-27T12:44:36Z</time>
      </trkpt>
      <trkpt lat="46.05439" lon="6.36475">
        <ele>524.2</ele>
        <time>2021-03-27T12:44:37Z</time>
      </trkpt>
      <trkpt lat="46.0544" lon="6.3647">
        <ele>524.4</ele>
        <time>2021-03-27T12:44:38Z</time>
      </trkpt>
      <trkpt lat="46.0544" lon="6.36465">
        <ele>524.6</ele>
        <time>2021-03-27T12:44:39Z</time>
      </trkpt>
      <trkpt lat="46.0544" lon="6.3646">
        <ele>524.8</ele>
        <time>2021-03-27T12:44:40Z</time>
      </trkpt>
      <trkpt lat="46.0544" lon="6.36455">
        <ele>525</ele>
        <time>2021-03-27T12:44:41Z</time>
      </trkpt>
      <trkpt lat="46.0544" lon="6.3645">
        <ele>525.2</ele>
        <time>2021-03-27T12:44:42Z</time>
      </trkpt>
      <trkpt lat="46.0544" lon="6.36446">
        <ele>525.2</ele>
        <time>2021-03-27T12:44:43Z</time>
      </trkpt>
      <trkpt lat="46.0544" lon="6.36441">
        <ele>525.4</ele>
        <time>2021-03-27T12:44:44Z</time>
      </trkpt>
      <trkpt lat="46.05441" lon="6.36436">
        <ele>525.8</ele>
        <time>2021-03-27T12:44:45Z</time>
      </trkpt>
      <trkpt lat="46.05441" lon="6.36431">
        <ele>526.2</ele>
        <time>2021-03-27T12:44:46Z</time>
      </trkpt>
      <trkpt lat="46.05441" lon="6.36426">
        <ele>526.2</ele>
        <time>2021-03-27T12:44:47Z</time>
      </trkpt>
      <trkpt lat="46.05441" lon="6.36421">
        <ele>526.6</ele>
        <time>2021-03-27T12:44:48Z</time>
      </trkpt>
      <trkpt lat="46.05441" lon="6.36416">
        <ele>526.6</ele>
        <time>2021-03-27T12:44:49Z</time>
      </trkpt>
      <trkpt lat="46.05441" lon="6.36412">
        <ele>526.8</ele>
        <time>2021-03-27T12:44:50Z</time>
      </trkpt>
      <trkpt lat="46.05441" lon="6.36407">
        <ele>527.2</ele>
        <time>2021-03-27T12:44:51Z</time>
      </trkpt>
      <trkpt lat="46.05441" lon="6.36402">
        <ele>527.2</ele>
        <time>2021-03-27T12:44:52Z</time>
      </trkpt>
      <trkpt lat="46.05441" lon="6.36397">
        <ele>527.4</ele>
        <time>2021-03-27T12:44:53Z</time>
      </trkpt>
      <trkpt lat="46.05441" lon="6.36392">
        <ele>527.4</ele>
        <time>2021-03-27T12:44:54Z</time>
      </trkpt>
      <trkpt lat="46.05441" lon="6.36387">
        <ele>527.6</ele>
        <time>2021-03-27T12:44:55Z</time>
      </trkpt>
      <trkpt lat="46.05441" lon="6.36382">
        <ele>527.8</ele>
        <time>2021-03-27T12:44:56Z</time>
      </trkpt>
      <trkpt lat="46.0544" lon="6.36377">
        <ele>528</ele>
        <time>2021-03-27T12:44:57Z</time>
      </trkpt>
      <trkpt lat="46.0544" lon="6.36372">
        <ele>528.4</ele>
        <time>2021-03-27T12:44:58Z</time>
      </trkpt>
      <trkpt lat="46.05441" lon="6.36367">
        <ele>528.8</ele>
        <time>2021-03-27T12:44:59Z</time>
      </trkpt>
      <trkpt lat="46.0544" lon="6.36362">
        <ele>529</ele>
        <time>2021-03-27T12:45:00Z</time>
      </trkpt>
      <trkpt lat="46.0544" lon="6.36357">
        <ele>529</ele>
        <time>2021-03-27T12:45:01Z</time>
      </trkpt>
      <trkpt lat="46.0544" lon="6.36352">
        <ele>529.4</ele>
        <time>2021-03-27T12:45:02Z</time>
      </trkpt>
      <trkpt lat="46.05441" lon="6.36347">
        <ele>529.6</ele>
        <time>2021-03-27T12:45:03Z</time>
      </trkpt>
      <trkpt lat="46.05441" lon="6.36342">
        <ele>529.8</ele>
        <time>2021-03-27T12:45:04Z</time>
      </trkpt>
      <trkpt lat="46.05441" lon="6.36337">
        <ele>529.8</ele>
        <time>2021-03-27T12:45:05Z</time>
      </trkpt>
      <trkpt lat="46.05442" lon="6.36332">
        <ele>530</ele>
        <time>2021-03-27T12:45:06Z</time>
      </trkpt>
      <trkpt lat="46.05442" lon="6.36327">
        <ele>530.4</ele>
        <time>2021-03-27T12:45:07Z</time>
      </trkpt>
      <trkpt lat="46.05443" lon="6.36322">
        <ele>530.6</ele>
        <time>2021-03-27T12:45:08Z</time>
      </trkpt>
      <trkpt lat="46.05443" lon="6.36317">
        <ele>530.8</ele>
        <time>2021-03-27T12:45:09Z</time>
      </trkpt>
      <trkpt lat="46.05444" lon="6.36313">
        <ele>531</ele>
        <time>2021-03-27T12:45:10Z</time>
      </trkpt>
      <trkpt lat="46.05444" lon="6.36308">
        <ele>531.4</ele>
        <time>2021-03-27T12:45:11Z</time>
      </trkpt>
      <trkpt lat="46.05445" lon="6.36304">
        <ele>531.4</ele>
        <time>2021-03-27T12:45:12Z</time>
      </trkpt>
      <trkpt lat="46.05445" lon="6.36299">
        <ele>532</ele>
        <time>2021-03-27T12:45:13Z</time>
      </trkpt>
      <trkpt lat="46.05446" lon="6.36295">
        <ele>532.2</ele>
        <time>2021-03-27T12:45:14Z</time>
      </trkpt>
      <trkpt lat="46.05446" lon="6.3629">
        <ele>532.6</ele>
        <time>2021-03-27T12:45:15Z</time>
      </trkpt>
      <trkpt lat="46.05446" lon="6.36285">
        <ele>532.8</ele>
        <time>2021-03-27T12:45:16Z</time>
      </trkpt>
      <trkpt lat="46.05445" lon="6.36281">
        <ele>533</ele>
        <time>2021-03-27T12:45:17Z</time>
      </trkpt>
      <trkpt lat="46.05445" lon="6.36276">
        <ele>533</ele>
        <time>2021-03-27T12:45:18Z</time>
      </trkpt>
      <trkpt lat="46.05443" lon="6.36272">
        <ele>533.4</ele>
        <time>2021-03-27T12:45:19Z</time>
      </trkpt>
      <trkpt lat="46.05441" lon="6.36268">
        <ele>533.4</ele>
        <time>2021-03-27T12:45:20Z</time>
      </trkpt>
      <trkpt lat="46.05439" lon="6.36264">
        <ele>533.6</ele>
        <time>2021-03-27T12:45:21Z</time>
      </trkpt>
      <trkpt lat="46.05437" lon="6.36261">
        <ele>533.6</ele>
        <time>2021-03-27T12:45:22Z</time>
      </trkpt>
      <trkpt lat="46.05434" lon="6.36258">
        <ele>534</ele>
        <time>2021-03-27T12:45:23Z</time>
      </trkpt>
      <trkpt lat="46.05431" lon="6.36255">
        <ele>534.2</ele>
        <time>2021-03-27T12:45:24Z</time>
      </trkpt>
      <trkpt lat="46.05428" lon="6.36253">
        <ele>534.6</ele>
        <time>2021-03-27T12:45:25Z</time>
      </trkpt>
      <trkpt lat="46.05425" lon="6.3625">
        <ele>535</ele>
        <time>2021-03-27T12:45:26Z</time>
      </trkpt>
      <trkpt lat="46.05422" lon="6.36249">
        <ele>535.2</ele>
        <time>2021-03-27T12:45:27Z</time>
      </trkpt>
      <trkpt lat="46.05419" lon="6.36248">
        <ele>535.4</ele>
        <time>2021-03-27T12:45:28Z</time>
      </trkpt>
      <trkpt lat="46.05415" lon="6.36248">
        <ele>535.6</ele>
        <time>2021-03-27T12:45:29Z</time>
      </trkpt>
      <trkpt lat="46.05408" lon="6.36249">
        <ele>536</ele>
        <time>2021-03-27T12:45:31Z</time>
      </trkpt>
      <trkpt lat="46.05405" lon="6.3625">
        <ele>536.2</ele>
        <time>2021-03-27T12:45:32Z</time>
      </trkpt>
      <trkpt lat="46.05399" lon="6.36253">
        <ele>536.8</ele>
        <time>2021-03-27T12:45:34Z</time>
      </trkpt>
      <trkpt lat="46.05396" lon="6.36256">
        <ele>537</ele>
        <time>2021-03-27T12:45:35Z</time>
      </trkpt>
      <trkpt lat="46.05392" lon="6.36263">
        <ele>537.4</ele>
        <time>2021-03-27T12:45:37Z</time>
      </trkpt>
      <trkpt lat="46.0539" lon="6.36267">
        <ele>537.8</ele>
        <time>2021-03-27T12:45:38Z</time>
      </trkpt>
      <trkpt lat="46.05389" lon="6.36272">
        <ele>538</ele>
        <time>2021-03-27T12:45:39Z</time>
      </trkpt>
      <trkpt lat="46.05387" lon="6.36276">
        <ele>538.2</ele>
        <time>2021-03-27T12:45:40Z</time>
      </trkpt>
      <trkpt lat="46.05386" lon="6.36281">
        <ele>538.4</ele>
        <time>2021-03-27T12:45:41Z</time>
      </trkpt>
      <trkpt lat="46.05385" lon="6.36285">
        <ele>538.8</ele>
        <time>2021-03-27T12:45:42Z</time>
      </trkpt>
      <trkpt lat="46.05384" lon="6.3629">
        <ele>539</ele>
        <time>2021-03-27T12:45:43Z</time>
      </trkpt>
      <trkpt lat="46.05383" lon="6.36295">
        <ele>539.2</ele>
        <time>2021-03-27T12:45:44Z</time>
      </trkpt>
      <trkpt lat="46.05382" lon="6.363">
        <ele>539.4</ele>
        <time>2021-03-27T12:45:45Z</time>
      </trkpt>
      <trkpt lat="46.05382" lon="6.36305">
        <ele>539.8</ele>
        <time>2021-03-27T12:45:46Z</time>
      </trkpt>
      <trkpt lat="46.05381" lon="6.3631">
        <ele>540</ele>
        <time>2021-03-27T12:45:47Z</time>
      </trkpt>
      <trkpt lat="46.0538" lon="6.36315">
        <ele>540.2</ele>
        <time>2021-03-27T12:45:48Z</time>
      </trkpt>
      <trkpt lat="46.0538" lon="6.3632">
        <ele>540.6</ele>
        <time>2021-03-27T12:45:49Z</time>
      </trkpt>
      <trkpt lat="46.05379" lon="6.36325">
        <ele>541</ele>
        <time>2021-03-27T12:45:50Z</time>
      </trkpt>
      <trkpt lat="46.05379" lon="6.3633">
        <ele>541.2</ele>
        <time>2021-03-27T12:45:51Z</time>
      </trkpt>
      <trkpt lat="46.05379" lon="6.36336">
        <ele>541.4</ele>
        <time>2021-03-27T12:45:52Z</time>
      </trkpt>
      <trkpt lat="46.05378" lon="6.36341">
        <ele>541.6</ele>
        <time>2021-03-27T12:45:53Z</time>
      </trkpt>
      <trkpt lat="46.05378" lon="6.36347">
        <ele>541.8</ele>
        <time>2021-03-27T12:45:54Z</time>
      </trkpt>
      <trkpt lat="46.05377" lon="6.36352">
        <ele>542</ele>
        <time>2021-03-27T12:45:55Z</time>
      </trkpt>
      <trkpt lat="46.05377" lon="6.36357">
        <ele>542.2</ele>
        <time>2021-03-27T12:45:56Z</time>
      </trkpt>
      <trkpt lat="46.05377" lon="6.36363">
        <ele>542.4</ele>
        <time>2021-03-27T12:45:57Z</time>
      </trkpt>
      <trkpt lat="46.05377" lon="6.36368">
        <ele>542.6</ele>
        <time>2021-03-27T12:45:58Z</time>
      </trkpt>
      <trkpt lat="46.05377" lon="6.36373">
        <ele>543</ele>
        <time>2021-03-27T12:45:59Z</time>
      </trkpt>
      <trkpt lat="46.05377" lon="6.36379">
        <ele>543.2</ele>
        <time>2021-03-27T12:46:00Z</time>
      </trkpt>
      <trkpt lat="46.05378" lon="6.36384">
        <ele>543.2</ele>
        <time>2021-03-27T12:46:01Z</time>
      </trkpt>
      <trkpt lat="46.05378" lon="6.36389">
        <ele>543.4</ele>
        <time>2021-03-27T12:46:02Z</time>
      </trkpt>
      <trkpt lat="46.05377" lon="6.36394">
        <ele>543.4</ele>
        <time>2021-03-27T12:46:03Z</time>
      </trkpt>
      <trkpt lat="46.05378" lon="6.364">
        <ele>543.8</ele>
        <time>2021-03-27T12:46:04Z</time>
      </trkpt>
      <trkpt lat="46.05378" lon="6.36405">
        <ele>544</ele>
        <time>2021-03-27T12:46:05Z</time>
      </trkpt>
      <trkpt lat="46.05377" lon="6.36411">
        <ele>544</ele>
        <time>2021-03-27T12:46:06Z</time>
      </trkpt>
      <trkpt lat="46.05377" lon="6.36416">
        <ele>544.4</ele>
        <time>2021-03-27T12:46:07Z</time>
      </trkpt>
      <trkpt lat="46.05376" lon="6.36421">
        <ele>544.6</ele>
        <time>2021-03-27T12:46:08Z</time>
      </trkpt>
      <trkpt lat="46.05376" lon="6.36426">
        <ele>544.8</ele>
        <time>2021-03-27T12:46:09Z</time>
      </trkpt>
      <trkpt lat="46.05376" lon="6.3643">
        <ele>545</ele>
        <time>2021-03-27T12:46:10Z</time>
      </trkpt>
      <trkpt lat="46.05375" lon="6.36435">
        <ele>545.2</ele>
        <time>2021-03-27T12:46:11Z</time>
      </trkpt>
      <trkpt lat="46.05374" lon="6.3644">
        <ele>545.4</ele>
        <time>2021-03-27T12:46:12Z</time>
      </trkpt>
      <trkpt lat="46.05374" lon="6.36446">
        <ele>545.8</ele>
        <time>2021-03-27T12:46:13Z</time>
      </trkpt>
      <trkpt lat="46.05374" lon="6.36451">
        <ele>546</ele>
        <time>2021-03-27T12:46:14Z</time>
      </trkpt>
      <trkpt lat="46.05373" lon="6.36456">
        <ele>546</ele>
        <time>2021-03-27T12:46:15Z</time>
      </trkpt>
      <trkpt lat="46.05372" lon="6.36462">
        <ele>546.4</ele>
        <time>2021-03-27T12:46:16Z</time>
      </trkpt>
      <trkpt lat="46.05371" lon="6.36467">
        <ele>546.6</ele>
        <time>2021-03-27T12:46:17Z</time>
      </trkpt>
      <trkpt lat="46.0537" lon="6.36471">
        <ele>546.8</ele>
        <time>2021-03-27T12:46:18Z</time>
      </trkpt>
      <trkpt lat="46.05369" lon="6.36475">
        <ele>547</ele>
        <time>2021-03-27T12:46:19Z</time>
      </trkpt>
      <trkpt lat="46.05368" lon="6.36479">
        <ele>547</ele>
        <time>2021-03-27T12:46:20Z</time>
      </trkpt>
      <trkpt lat="46.05367" lon="6.36484">
        <ele>547.2</ele>
        <time>2021-03-27T12:46:21Z</time>
      </trkpt>
      <trkpt lat="46.05366" lon="6.36488">
        <ele>547.6</ele>
        <time>2021-03-27T12:46:22Z</time>
      </trkpt>
      <trkpt lat="46.05365" lon="6.36493">
        <ele>547.8</ele>
        <time>2021-03-27T12:46:23Z</time>
      </trkpt>
      <trkpt lat="46.05364" lon="6.36498">
        <ele>548</ele>
        <time>2021-03-27T12:46:24Z</time>
      </trkpt>
      <trkpt lat="46.05363" lon="6.36503">
        <ele>548.2</ele>
        <time>2021-03-27T12:46:25Z</time>
      </trkpt>
      <trkpt lat="46.05362" lon="6.36508">
        <ele>548.2</ele>
        <time>2021-03-27T12:46:26Z</time>
      </trkpt>
      <trkpt lat="46.0536" lon="6.36513">
        <ele>548.4</ele>
        <time>2021-03-27T12:46:27Z</time>
      </trkpt>
      <trkpt lat="46.05359" lon="6.36517">
        <ele>548.8</ele>
        <time>2021-03-27T12:46:28Z</time>
      </trkpt>
      <trkpt lat="46.05358" lon="6.36521">
        <ele>549</ele>
        <time>2021-03-27T12:46:29Z</time>
      </trkpt>
      <trkpt lat="46.05356" lon="6.36525">
        <ele>549.2</ele>
        <time>2021-03-27T12:46:30Z</time>
      </trkpt>
      <trkpt lat="46.05355" lon="6.36529">
        <ele>549.6</ele>
        <time>2021-03-27T12:46:31Z</time>
      </trkpt>
      <trkpt lat="46.05354" lon="6.36532">
        <ele>549.6</ele>
        <time>2021-03-27T12:46:32Z</time>
      </trkpt>
      <trkpt lat="46.05353" lon="6.36536">
        <ele>549.6</ele>
        <time>2021-03-27T12:46:33Z</time>
      </trkpt>
      <trkpt lat="46.05352" lon="6.36539">
        <ele>549.6</ele>
        <time>2021-03-27T12:46:34Z</time>
      </trkpt>
      <trkpt lat="46.05351" lon="6.36543">
        <ele>549.8</ele>
        <time>2021-03-27T12:46:35Z</time>
      </trkpt>
      <trkpt lat="46.0535" lon="6.36547">
        <ele>550.2</ele>
        <time>2021-03-27T12:46:36Z</time>
      </trkpt>
      <trkpt lat="46.05348" lon="6.3655">
        <ele>550.4</ele>
        <time>2021-03-27T12:46:37Z</time>
      </trkpt>
      <trkpt lat="46.05347" lon="6.36554">
        <ele>550.4</ele>
        <time>2021-03-27T12:46:38Z</time>
      </trkpt>
      <trkpt lat="46.05346" lon="6.36558">
        <ele>550.6</ele>
        <time>2021-03-27T12:46:39Z</time>
      </trkpt>
      <trkpt lat="46.05344" lon="6.36563">
        <ele>551</ele>
        <time>2021-03-27T12:46:40Z</time>
      </trkpt>
      <trkpt lat="46.05342" lon="6.36568">
        <ele>551.4</ele>
        <time>2021-03-27T12:46:41Z</time>
      </trkpt>
      <trkpt lat="46.0534" lon="6.36573">
        <ele>551.6</ele>
        <time>2021-03-27T12:46:42Z</time>
      </trkpt>
      <trkpt lat="46.05339" lon="6.36578">
        <ele>551.8</ele>
        <time>2021-03-27T12:46:43Z</time>
      </trkpt>
      <trkpt lat="46.05337" lon="6.36583">
        <ele>552</ele>
        <time>2021-03-27T12:46:44Z</time>
      </trkpt>
      <trkpt lat="46.05336" lon="6.36588">
        <ele>552.2</ele>
        <time>2021-03-27T12:46:45Z</time>
      </trkpt>
      <trkpt lat="46.05334" lon="6.36594">
        <ele>552.4</ele>
        <time>2021-03-27T12:46:46Z</time>
      </trkpt>
      <trkpt lat="46.05333" lon="6.366">
        <ele>552.4</ele>
        <time>2021-03-27T12:46:47Z</time>
      </trkpt>
      <trkpt lat="46.05332" lon="6.36605">
        <ele>552.8</ele>
        <time>2021-03-27T12:46:48Z</time>
      </trkpt>
      <trkpt lat="46.0533" lon="6.3661">
        <ele>553</ele>
        <time>2021-03-27T12:46:49Z</time>
      </trkpt>
      <trkpt lat="46.05329" lon="6.36616">
        <ele>553.2</ele>
        <time>2021-03-27T12:46:50Z</time>
      </trkpt>
      <trkpt lat="46.05327" lon="6.36621">
        <ele>553.4</ele>
        <time>2021-03-27T12:46:51Z</time>
      </trkpt>
      <trkpt lat="46.05326" lon="6.36626">
        <ele>553.6</ele>
        <time>2021-03-27T12:46:52Z</time>
      </trkpt>
      <trkpt lat="46.05324" lon="6.36631">
        <ele>553.8</ele>
        <time>2021-03-27T12:46:53Z</time>
      </trkpt>
      <trkpt lat="46.05322" lon="6.36636">
        <ele>554</ele>
        <time>2021-03-27T12:46:54Z</time>
      </trkpt>
      <trkpt lat="46.05321" lon="6.36642">
        <ele>554.2</ele>
        <time>2021-03-27T12:46:55Z</time>
      </trkpt>
      <trkpt lat="46.05319" lon="6.36647">
        <ele>554.6</ele>
        <time>2021-03-27T12:46:56Z</time>
      </trkpt>
      <trkpt lat="46.05318" lon="6.36652">
        <ele>554.8</ele>
        <time>2021-03-27T12:46:57Z</time>
      </trkpt>
      <trkpt lat="46.05316" lon="6.36657">
        <ele>555</ele>
        <time>2021-03-27T12:46:58Z</time>
      </trkpt>
      <trkpt lat="46.05314" lon="6.36662">
        <ele>555.2</ele>
        <time>2021-03-27T12:46:59Z</time>
      </trkpt>
      <trkpt lat="46.05313" lon="6.36666">
        <ele>555.4</ele>
        <time>2021-03-27T12:47:00Z</time>
      </trkpt>
      <trkpt lat="46.05312" lon="6.36671">
        <ele>555.8</ele>
        <time>2021-03-27T12:47:01Z</time>
      </trkpt>
      <trkpt lat="46.0531" lon="6.36676">
        <ele>555.8</ele>
        <time>2021-03-27T12:47:02Z</time>
      </trkpt>
      <trkpt lat="46.05309" lon="6.36681">
        <ele>556.2</ele>
        <time>2021-03-27T12:47:03Z</time>
      </trkpt>
      <trkpt lat="46.05308" lon="6.36685">
        <ele>556.4</ele>
        <time>2021-03-27T12:47:04Z</time>
      </trkpt>
      <trkpt lat="46.05306" lon="6.3669">
        <ele>556.6</ele>
        <time>2021-03-27T12:47:05Z</time>
      </trkpt>
      <trkpt lat="46.05305" lon="6.36694">
        <ele>556.8</ele>
        <time>2021-03-27T12:47:06Z</time>
      </trkpt>
      <trkpt lat="46.05303" lon="6.36699">
        <ele>556.8</ele>
        <time>2021-03-27T12:47:07Z</time>
      </trkpt>
      <trkpt lat="46.05301" lon="6.36703">
        <ele>557.2</ele>
        <time>2021-03-27T12:47:08Z</time>
      </trkpt>
      <trkpt lat="46.05299" lon="6.36707">
        <ele>557</ele>
        <time>2021-03-27T12:47:09Z</time>
      </trkpt>
      <trkpt lat="46.05298" lon="6.36712">
        <ele>557.2</ele>
        <time>2021-03-27T12:47:10Z</time>
      </trkpt>
      <trkpt lat="46.05296" lon="6.36717">
        <ele>557.6</ele>
        <time>2021-03-27T12:47:11Z</time>
      </trkpt>
      <trkpt lat="46.05294" lon="6.36722">
        <ele>557.6</ele>
        <time>2021-03-27T12:47:12Z</time>
      </trkpt>
      <trkpt lat="46.05292" lon="6.36726">
        <ele>557.8</ele>
        <time>2021-03-27T12:47:13Z</time>
      </trkpt>
      <trkpt lat="46.05291" lon="6.36731">
        <ele>558.2</ele>
        <time>2021-03-27T12:47:14Z</time>
      </trkpt>
      <trkpt lat="46.05289" lon="6.36735">
        <ele>558.4</ele>
        <time>2021-03-27T12:47:15Z</time>
      </trkpt>
      <trkpt lat="46.05288" lon="6.3674">
        <ele>558.8</ele>
        <time>2021-03-27T12:47:16Z</time>
      </trkpt>
      <trkpt lat="46.05287" lon="6.36745">
        <ele>559</ele>
        <time>2021-03-27T12:47:17Z</time>
      </trkpt>
      <trkpt lat="46.05285" lon="6.3675">
        <ele>559.2</ele>
        <time>2021-03-27T12:47:18Z</time>
      </trkpt>
      <trkpt lat="46.05284" lon="6.36754">
        <ele>559.4</ele>
        <time>2021-03-27T12:47:19Z</time>
      </trkpt>
      <trkpt lat="46.05283" lon="6.36758">
        <ele>559.6</ele>
        <time>2021-03-27T12:47:20Z</time>
      </trkpt>
      <trkpt lat="46.05282" lon="6.36763">
        <ele>559.8</ele>
        <time>2021-03-27T12:47:21Z</time>
      </trkpt>
      <trkpt lat="46.05281" lon="6.36767">
        <ele>560</ele>
        <time>2021-03-27T12:47:22Z</time>
      </trkpt>
      <trkpt lat="46.05281" lon="6.36772">
        <ele>560</ele>
        <time>2021-03-27T12:47:23Z</time>
      </trkpt>
      <trkpt lat="46.0528" lon="6.36776">
        <ele>560.4</ele>
        <time>2021-03-27T12:47:24Z</time>
      </trkpt>
      <trkpt lat="46.0528" lon="6.3678">
        <ele>560.4</ele>
        <time>2021-03-27T12:47:25Z</time>
      </trkpt>
      <trkpt lat="46.05279" lon="6.36784">
        <ele>560.8</ele>
        <time>2021-03-27T12:47:26Z</time>
      </trkpt>
      <trkpt lat="46.05279" lon="6.36788">
        <ele>560.8</ele>
        <time>2021-03-27T12:47:27Z</time>
      </trkpt>
      <trkpt lat="46.05279" lon="6.36791">
        <ele>561</ele>
        <time>2021-03-27T12:47:28Z</time>
      </trkpt>
      <trkpt lat="46.05279" lon="6.36796">
        <ele>561.4</ele>
        <time>2021-03-27T12:47:29Z</time>
      </trkpt>
      <trkpt lat="46.05279" lon="6.36799">
        <ele>561.6</ele>
        <time>2021-03-27T12:47:30Z</time>
      </trkpt>
      <trkpt lat="46.05279" lon="6.36804">
        <ele>561.8</ele>
        <time>2021-03-27T12:47:31Z</time>
      </trkpt>
      <trkpt lat="46.05278" lon="6.36809">
        <ele>562</ele>
        <time>2021-03-27T12:47:32Z</time>
      </trkpt>
      <trkpt lat="46.05277" lon="6.36813">
        <ele>562.2</ele>
        <time>2021-03-27T12:47:33Z</time>
      </trkpt>
      <trkpt lat="46.05277" lon="6.36818">
        <ele>562.4</ele>
        <time>2021-03-27T12:47:34Z</time>
      </trkpt>
      <trkpt lat="46.05276" lon="6.36822">
        <ele>562.8</ele>
        <time>2021-03-27T12:47:35Z</time>
      </trkpt>
      <trkpt lat="46.05276" lon="6.36827">
        <ele>563</ele>
        <time>2021-03-27T12:47:36Z</time>
      </trkpt>
      <trkpt lat="46.05275" lon="6.36831">
        <ele>563.2</ele>
        <time>2021-03-27T12:47:37Z</time>
      </trkpt>
      <trkpt lat="46.05274" lon="6.36836">
        <ele>563.4</ele>
        <time>2021-03-27T12:47:38Z</time>
      </trkpt>
      <trkpt lat="46.05273" lon="6.3684">
        <ele>563.6</ele>
        <time>2021-03-27T12:47:39Z</time>
      </trkpt>
      <trkpt lat="46.05271" lon="6.36845">
        <ele>563.6</ele>
        <time>2021-03-27T12:47:40Z</time>
      </trkpt>
      <trkpt lat="46.0527" lon="6.36849">
        <ele>564</ele>
        <time>2021-03-27T12:47:41Z</time>
      </trkpt>
      <trkpt lat="46.05269" lon="6.36853">
        <ele>564.2</ele>
        <time>2021-03-27T12:47:42Z</time>
      </trkpt>
      <trkpt lat="46.05267" lon="6.36858">
        <ele>564.6</ele>
        <time>2021-03-27T12:47:43Z</time>
      </trkpt>
      <trkpt lat="46.05266" lon="6.36861">
        <ele>564.8</ele>
        <time>2021-03-27T12:47:44Z</time>
      </trkpt>
      <trkpt lat="46.05264" lon="6.36865">
        <ele>565</ele>
        <time>2021-03-27T12:47:45Z</time>
      </trkpt>
      <trkpt lat="46.05262" lon="6.36869">
        <ele>565.2</ele>
        <time>2021-03-27T12:47:46Z</time>
      </trkpt>
      <trkpt lat="46.0526" lon="6.36873">
        <ele>565.4</ele>
        <time>2021-03-27T12:47:47Z</time>
      </trkpt>
      <trkpt lat="46.05258" lon="6.36878">
        <ele>565.4</ele>
        <time>2021-03-27T12:47:48Z</time>
      </trkpt>
      <trkpt lat="46.05255" lon="6.36882">
        <ele>565.8</ele>
        <time>2021-03-27T12:47:49Z</time>
      </trkpt>
      <trkpt lat="46.05252" lon="6.36886">
        <ele>566</ele>
        <time>2021-03-27T12:47:50Z</time>
      </trkpt>
      <trkpt lat="46.0525" lon="6.36891">
        <ele>566.4</ele>
        <time>2021-03-27T12:47:51Z</time>
      </trkpt>
      <trkpt lat="46.05247" lon="6.36895">
        <ele>566.8</ele>
        <time>2021-03-27T12:47:52Z</time>
      </trkpt>
      <trkpt lat="46.05245" lon="6.36899">
        <ele>566.8</ele>
        <time>2021-03-27T12:47:53Z</time>
      </trkpt>
      <trkpt lat="46.05242" lon="6.36902">
        <ele>566.8</ele>
        <time>2021-03-27T12:47:54Z</time>
      </trkpt>
      <trkpt lat="46.05239" lon="6.36906">
        <ele>567.2</ele>
        <time>2021-03-27T12:47:55Z</time>
      </trkpt>
      <trkpt lat="46.05236" lon="6.3691">
        <ele>567.4</ele>
        <time>2021-03-27T12:47:56Z</time>
      </trkpt>
      <trkpt lat="46.05233" lon="6.36914">
        <ele>567.8</ele>
        <time>2021-03-27T12:47:57Z</time>
      </trkpt>
      <trkpt lat="46.05231" lon="6.36918">
        <ele>568</ele>
        <time>2021-03-27T12:47:58Z</time>
      </trkpt>
      <trkpt lat="46.05228" lon="6.36921">
        <ele>568.4</ele>
        <time>2021-03-27T12:47:59Z</time>
      </trkpt>
      <trkpt lat="46.05226" lon="6.36925">
        <ele>568.6</ele>
        <time>2021-03-27T12:48:00Z</time>
      </trkpt>
      <trkpt lat="46.05223" lon="6.36928">
        <ele>568.6</ele>
        <time>2021-03-27T12:48:01Z</time>
      </trkpt>
      <trkpt lat="46.05221" lon="6.36932">
        <ele>568.8</ele>
        <time>2021-03-27T12:48:02Z</time>
      </trkpt>
      <trkpt lat="46.05218" lon="6.36936">
        <ele>569</ele>
        <time>2021-03-27T12:48:03Z</time>
      </trkpt>
      <trkpt lat="46.05216" lon="6.36939">
        <ele>569.2</ele>
        <time>2021-03-27T12:48:04Z</time>
      </trkpt>
      <trkpt lat="46.05214" lon="6.36943">
        <ele>569.4</ele>
        <time>2021-03-27T12:48:05Z</time>
      </trkpt>
      <trkpt lat="46.05211" lon="6.36947">
        <ele>569.6</ele>
        <time>2021-03-27T12:48:06Z</time>
      </trkpt>
      <trkpt lat="46.05209" lon="6.3695">
        <ele>569.6</ele>
        <time>2021-03-27T12:48:07Z</time>
      </trkpt>
      <trkpt lat="46.05206" lon="6.36954">
        <ele>570</ele>
        <time>2021-03-27T12:48:08Z</time>
      </trkpt>
      <trkpt lat="46.05204" lon="6.36958">
        <ele>570.2</ele>
        <time>2021-03-27T12:48:09Z</time>
      </trkpt>
      <trkpt lat="46.05201" lon="6.36962">
        <ele>570.4</ele>
        <time>2021-03-27T12:48:10Z</time>
      </trkpt>
      <trkpt lat="46.05199" lon="6.36966">
        <ele>570.8</ele>
        <time>2021-03-27T12:48:11Z</time>
      </trkpt>
      <trkpt lat="46.05197" lon="6.36969">
        <ele>570.8</ele>
        <time>2021-03-27T12:48:12Z</time>
      </trkpt>
      <trkpt lat="46.05194" lon="6.36973">
        <ele>571.2</ele>
        <time>2021-03-27T12:48:13Z</time>
      </trkpt>
      <trkpt lat="46.05192" lon="6.36976">
        <ele>571.4</ele>
        <time>2021-03-27T12:48:14Z</time>
      </trkpt>
      <trkpt lat="46.0519" lon="6.3698">
        <ele>571.6</ele>
        <time>2021-03-27T12:48:15Z</time>
      </trkpt>
      <trkpt lat="46.05188" lon="6.36983">
        <ele>571.8</ele>
        <time>2021-03-27T12:48:16Z</time>
      </trkpt>
      <trkpt lat="46.05186" lon="6.36987">
        <ele>572</ele>
        <time>2021-03-27T12:48:17Z</time>
      </trkpt>
      <trkpt lat="46.05183" lon="6.3699">
        <ele>572.4</ele>
        <time>2021-03-27T12:48:18Z</time>
      </trkpt>
      <trkpt lat="46.05181" lon="6.36994">
        <ele>572.4</ele>
        <time>2021-03-27T12:48:19Z</time>
      </trkpt>
      <trkpt lat="46.05179" lon="6.36998">
        <ele>572.6</ele>
        <time>2021-03-27T12:48:20Z</time>
      </trkpt>
      <trkpt lat="46.05177" lon="6.37002">
        <ele>572.6</ele>
        <time>2021-03-27T12:48:21Z</time>
      </trkpt>
      <trkpt lat="46.05176" lon="6.37006">
        <ele>573.2</ele>
        <time>2021-03-27T12:48:22Z</time>
      </trkpt>
      <trkpt lat="46.05174" lon="6.3701">
        <ele>573.4</ele>
        <time>2021-03-27T12:48:23Z</time>
      </trkpt>
      <trkpt lat="46.05172" lon="6.37014">
        <ele>573.4</ele>
        <time>2021-03-27T12:48:24Z</time>
      </trkpt>
      <trkpt lat="46.05171" lon="6.37018">
        <ele>573.8</ele>
        <time>2021-03-27T12:48:25Z</time>
      </trkpt>
      <trkpt lat="46.0517" lon="6.37022">
        <ele>573.8</ele>
        <time>2021-03-27T12:48:26Z</time>
      </trkpt>
      <trkpt lat="46.0517" lon="6.37027">
        <ele>574.2</ele>
        <time>2021-03-27T12:48:27Z</time>
      </trkpt>
      <trkpt lat="46.05169" lon="6.37031">
        <ele>574.6</ele>
        <time>2021-03-27T12:48:28Z</time>
      </trkpt>
      <trkpt lat="46.05167" lon="6.37041">
        <ele>575.2</ele>
        <time>2021-03-27T12:48:30Z</time>
      </trkpt>
      <trkpt lat="46.05166" lon="6.37046">
        <ele>575.6</ele>
        <time>2021-03-27T12:48:31Z</time>
      </trkpt>
      <trkpt lat="46.05165" lon="6.37057">
        <ele>576</ele>
        <time>2021-03-27T12:48:33Z</time>
      </trkpt>
      <trkpt lat="46.05164" lon="6.37063">
        <ele>576.4</ele>
        <time>2021-03-27T12:48:34Z</time>
      </trkpt>
      <trkpt lat="46.05163" lon="6.37073">
        <ele>577.2</ele>
        <time>2021-03-27T12:48:36Z</time>
      </trkpt>
      <trkpt lat="46.05162" lon="6.37079">
        <ele>577.2</ele>
        <time>2021-03-27T12:48:37Z</time>
      </trkpt>
      <trkpt lat="46.05162" lon="6.37084">
        <ele>577.2</ele>
        <time>2021-03-27T12:48:38Z</time>
      </trkpt>
      <trkpt lat="46.05161" lon="6.37089">
        <ele>577.6</ele>
        <time>2021-03-27T12:48:39Z</time>
      </trkpt>
      <trkpt lat="46.05161" lon="6.37094">
        <ele>577.6</ele>
        <time>2021-03-27T12:48:40Z</time>
      </trkpt>
      <trkpt lat="46.0516" lon="6.37105">
        <ele>578</ele>
        <time>2021-03-27T12:48:42Z</time>
      </trkpt>
      <trkpt lat="46.05159" lon="6.3711">
        <ele>578</ele>
        <time>2021-03-27T12:48:43Z</time>
      </trkpt>
      <trkpt lat="46.05159" lon="6.37116">
        <ele>578.2</ele>
        <time>2021-03-27T12:48:44Z</time>
      </trkpt>
      <trkpt lat="46.05158" lon="6.37121">
        <ele>578.2</ele>
        <time>2021-03-27T12:48:45Z</time>
      </trkpt>
      <trkpt lat="46.05158" lon="6.37127">
        <ele>578.6</ele>
        <time>2021-03-27T12:48:46Z</time>
      </trkpt>
      <trkpt lat="46.05158" lon="6.37138">
        <ele>578.8</ele>
        <time>2021-03-27T12:48:48Z</time>
      </trkpt>
      <trkpt lat="46.05158" lon="6.37143">
        <ele>579</ele>
        <time>2021-03-27T12:48:49Z</time>
      </trkpt>
      <trkpt lat="46.05159" lon="6.37149">
        <ele>579.2</ele>
        <time>2021-03-27T12:48:50Z</time>
      </trkpt>
      <trkpt lat="46.05158" lon="6.37154">
        <ele>579.4</ele>
        <time>2021-03-27T12:48:51Z</time>
      </trkpt>
      <trkpt lat="46.05157" lon="6.37159">
        <ele>579.6</ele>
        <time>2021-03-27T12:48:52Z</time>
      </trkpt>
      <trkpt lat="46.05157" lon="6.37169">
        <ele>580</ele>
        <time>2021-03-27T12:48:54Z</time>
      </trkpt>
      <trkpt lat="46.05157" lon="6.37174">
        <ele>580</ele>
        <time>2021-03-27T12:48:55Z</time>
      </trkpt>
      <trkpt lat="46.05157" lon="6.37179">
        <ele>580.2</ele>
        <time>2021-03-27T12:48:56Z</time>
      </trkpt>
      <trkpt lat="46.05157" lon="6.37184">
        <ele>580.4</ele>
        <time>2021-03-27T12:48:57Z</time>
      </trkpt>
      <trkpt lat="46.05157" lon="6.37189">
        <ele>580.6</ele>
        <time>2021-03-27T12:48:58Z</time>
      </trkpt>
      <trkpt lat="46.05158" lon="6.372">
        <ele>580.8</ele>
        <time>2021-03-27T12:49:00Z</time>
      </trkpt>
      <trkpt lat="46.05158" lon="6.37205">
        <ele>581</ele>
        <time>2021-03-27T12:49:01Z</time>
      </trkpt>
      <trkpt lat="46.05158" lon="6.37215">
        <ele>581.4</ele>
        <time>2021-03-27T12:49:03Z</time>
      </trkpt>
      <trkpt lat="46.05157" lon="6.3722">
        <ele>581.6</ele>
        <time>2021-03-27T12:49:04Z</time>
      </trkpt>
      <trkpt lat="46.05156" lon="6.37224">
        <ele>581.8</ele>
        <time>2021-03-27T12:49:05Z</time>
      </trkpt>
      <trkpt lat="46.05155" lon="6.37229">
        <ele>582.2</ele>
        <time>2021-03-27T12:49:06Z</time>
      </trkpt>
      <trkpt lat="46.05154" lon="6.37232">
        <ele>582.4</ele>
        <time>2021-03-27T12:49:07Z</time>
      </trkpt>
      <trkpt lat="46.05149" lon="6.37237">
        <ele>582.8</ele>
        <time>2021-03-27T12:49:09Z</time>
      </trkpt>
      <trkpt lat="46.05145" lon="6.37238">
        <ele>583.2</ele>
        <time>2021-03-27T12:49:10Z</time>
      </trkpt>
      <trkpt lat="46.05137" lon="6.37236">
        <ele>583.8</ele>
        <time>2021-03-27T12:49:13Z</time>
      </trkpt>
      <trkpt lat="46.05134" lon="6.37234">
        <ele>584</ele>
        <time>2021-03-27T12:49:14Z</time>
      </trkpt>
      <trkpt lat="46.05131" lon="6.37231">
        <ele>584.4</ele>
        <time>2021-03-27T12:49:15Z</time>
      </trkpt>
      <trkpt lat="46.05129" lon="6.37228">
        <ele>584.8</ele>
        <time>2021-03-27T12:49:16Z</time>
      </trkpt>
      <trkpt lat="46.05128" lon="6.37224">
        <ele>585</ele>
        <time>2021-03-27T12:49:17Z</time>
      </trkpt>
      <trkpt lat="46.05126" lon="6.3722">
        <ele>585.4</ele>
        <time>2021-03-27T12:49:18Z</time>
      </trkpt>
      <trkpt lat="46.05125" lon="6.37216">
        <ele>585.6</ele>
        <time>2021-03-27T12:49:19Z</time>
      </trkpt>
      <trkpt lat="46.05125" lon="6.37212">
        <ele>585.8</ele>
        <time>2021-03-27T12:49:20Z</time>
      </trkpt>
      <trkpt lat="46.05125" lon="6.37208">
        <ele>586</ele>
        <time>2021-03-27T12:49:21Z</time>
      </trkpt>
      <trkpt lat="46.05125" lon="6.37203">
        <ele>586.2</ele>
        <time>2021-03-27T12:49:22Z</time>
      </trkpt>
      <trkpt lat="46.05125" lon="6.37199">
        <ele>586.6</ele>
        <time>2021-03-27T12:49:23Z</time>
      </trkpt>
      <trkpt lat="46.05125" lon="6.37194">
        <ele>586.8</ele>
        <time>2021-03-27T12:49:24Z</time>
      </trkpt>
      <trkpt lat="46.05125" lon="6.37188">
        <ele>587</ele>
        <time>2021-03-27T12:49:25Z</time>
      </trkpt>
      <trkpt lat="46.05124" lon="6.37183">
        <ele>587.4</ele>
        <time>2021-03-27T12:49:26Z</time>
      </trkpt>
      <trkpt lat="46.05124" lon="6.37178">
        <ele>587.6</ele>
        <time>2021-03-27T12:49:27Z</time>
      </trkpt>
      <trkpt lat="46.05124" lon="6.37173">
        <ele>587.8</ele>
        <time>2021-03-27T12:49:28Z</time>
      </trkpt>
      <trkpt lat="46.05124" lon="6.37168">
        <ele>588.2</ele>
        <time>2021-03-27T12:49:29Z</time>
      </trkpt>
      <trkpt lat="46.05124" lon="6.37163">
        <ele>588.4</ele>
        <time>2021-03-27T12:49:30Z</time>
      </trkpt>
      <trkpt lat="46.05124" lon="6.37158">
        <ele>588.4</ele>
        <time>2021-03-27T12:49:31Z</time>
      </trkpt>
      <trkpt lat="46.05125" lon="6.37153">
        <ele>588.6</ele>
        <time>2021-03-27T12:49:32Z</time>
      </trkpt>
      <trkpt lat="46.05125" lon="6.37147">
        <ele>588.8</ele>
        <time>2021-03-27T12:49:33Z</time>
      </trkpt>
      <trkpt lat="46.05125" lon="6.37142">
        <ele>589</ele>
        <time>2021-03-27T12:49:34Z</time>
      </trkpt>
      <trkpt lat="46.05125" lon="6.37137">
        <ele>589</ele>
        <time>2021-03-27T12:49:35Z</time>
      </trkpt>
      <trkpt lat="46.05126" lon="6.37131">
        <ele>589.4</ele>
        <time>2021-03-27T12:49:36Z</time>
      </trkpt>
      <trkpt lat="46.05126" lon="6.37126">
        <ele>589.6</ele>
        <time>2021-03-27T12:49:37Z</time>
      </trkpt>
      <trkpt lat="46.05126" lon="6.37121">
        <ele>589.8</ele>
        <time>2021-03-27T12:49:38Z</time>
      </trkpt>
      <trkpt lat="46.05126" lon="6.37116">
        <ele>589.8</ele>
        <time>2021-03-27T12:49:39Z</time>
      </trkpt>
      <trkpt lat="46.05126" lon="6.37111">
        <ele>590.2</ele>
        <time>2021-03-27T12:49:40Z</time>
      </trkpt>
      <trkpt lat="46.05126" lon="6.37106">
        <ele>590</ele>
        <time>2021-03-27T12:49:41Z</time>
      </trkpt>
      <trkpt lat="46.05127" lon="6.37101">
        <ele>590.2</ele>
        <time>2021-03-27T12:49:42Z</time>
      </trkpt>
      <trkpt lat="46.05127" lon="6.37095">
        <ele>590.2</ele>
        <time>2021-03-27T12:49:43Z</time>
      </trkpt>
      <trkpt lat="46.05128" lon="6.3709">
        <ele>590.2</ele>
        <time>2021-03-27T12:49:44Z</time>
      </trkpt>
      <trkpt lat="46.05129" lon="6.37085">
        <ele>590.4</ele>
        <time>2021-03-27T12:49:45Z</time>
      </trkpt>
      <trkpt lat="46.05129" lon="6.3708">
        <ele>590.6</ele>
        <time>2021-03-27T12:49:46Z</time>
      </trkpt>
      <trkpt lat="46.0513" lon="6.37075">
        <ele>591</ele>
        <time>2021-03-27T12:49:47Z</time>
      </trkpt>
      <trkpt lat="46.05131" lon="6.3707">
        <ele>591.4</ele>
        <time>2021-03-27T12:49:48Z</time>
      </trkpt>
      <trkpt lat="46.05131" lon="6.37065">
        <ele>591.8</ele>
        <time>2021-03-27T12:49:49Z</time>
      </trkpt>
      <trkpt lat="46.05132" lon="6.3706">
        <ele>592.2</ele>
        <time>2021-03-27T12:49:50Z</time>
      </trkpt>
      <trkpt lat="46.05132" lon="6.37055">
        <ele>592.6</ele>
        <time>2021-03-27T12:49:51Z</time>
      </trkpt>
      <trkpt lat="46.05133" lon="6.3705">
        <ele>592.8</ele>
        <time>2021-03-27T12:49:52Z</time>
      </trkpt>
      <trkpt lat="46.05134" lon="6.37045">
        <ele>593</ele>
        <time>2021-03-27T12:49:53Z</time>
      </trkpt>
      <trkpt lat="46.05135" lon="6.3704">
        <ele>593</ele>
        <time>2021-03-27T12:49:54Z</time>
      </trkpt>
      <trkpt lat="46.05135" lon="6.37036">
        <ele>593.2</ele>
        <time>2021-03-27T12:49:55Z</time>
      </trkpt>
      <trkpt lat="46.05135" lon="6.37031">
        <ele>593.2</ele>
        <time>2021-03-27T12:49:56Z</time>
      </trkpt>
      <trkpt lat="46.05136" lon="6.37027">
        <ele>593.6</ele>
        <time>2021-03-27T12:49:57Z</time>
      </trkpt>
      <trkpt lat="46.05136" lon="6.37022">
        <ele>593.6</ele>
        <time>2021-03-27T12:49:58Z</time>
      </trkpt>
      <trkpt lat="46.05136" lon="6.37018">
        <ele>593.8</ele>
        <time>2021-03-27T12:49:59Z</time>
      </trkpt>
      <trkpt lat="46.05135" lon="6.37013">
        <ele>594</ele>
        <time>2021-03-27T12:50:00Z</time>
      </trkpt>
      <trkpt lat="46.05134" lon="6.37009">
        <ele>594.2</ele>
        <time>2021-03-27T12:50:01Z</time>
      </trkpt>
      <trkpt lat="46.05132" lon="6.37004">
        <ele>594.4</ele>
        <time>2021-03-27T12:50:02Z</time>
      </trkpt>
      <trkpt lat="46.05131" lon="6.36999">
        <ele>594.6</ele>
        <time>2021-03-27T12:50:03Z</time>
      </trkpt>
      <trkpt lat="46.05129" lon="6.36995">
        <ele>595</ele>
        <time>2021-03-27T12:50:04Z</time>
      </trkpt>
      <trkpt lat="46.05127" lon="6.3699">
        <ele>595.2</ele>
        <time>2021-03-27T12:50:05Z</time>
      </trkpt>
      <trkpt lat="46.05126" lon="6.36987">
        <ele>595.2</ele>
        <time>2021-03-27T12:50:06Z</time>
      </trkpt>
      <trkpt lat="46.05125" lon="6.36982">
        <ele>595.4</ele>
        <time>2021-03-27T12:50:07Z</time>
      </trkpt>
      <trkpt lat="46.05123" lon="6.36978">
        <ele>595.6</ele>
        <time>2021-03-27T12:50:08Z</time>
      </trkpt>
      <trkpt lat="46.05122" lon="6.36975">
        <ele>595.8</ele>
        <time>2021-03-27T12:50:09Z</time>
      </trkpt>
      <trkpt lat="46.0512" lon="6.36971">
        <ele>596</ele>
        <time>2021-03-27T12:50:10Z</time>
      </trkpt>
      <trkpt lat="46.0512" lon="6.36967">
        <ele>596.2</ele>
        <time>2021-03-27T12:50:11Z</time>
      </trkpt>
      <trkpt lat="46.05119" lon="6.36963">
        <ele>596.4</ele>
        <time>2021-03-27T12:50:12Z</time>
      </trkpt>
      <trkpt lat="46.05119" lon="6.36959">
        <ele>596.6</ele>
        <time>2021-03-27T12:50:13Z</time>
      </trkpt>
      <trkpt lat="46.0512" lon="6.36954">
        <ele>596.6</ele>
        <time>2021-03-27T12:50:14Z</time>
      </trkpt>
      <trkpt lat="46.05119" lon="6.36949">
        <ele>596.8</ele>
        <time>2021-03-27T12:50:15Z</time>
      </trkpt>
      <trkpt lat="46.05119" lon="6.36944">
        <ele>597</ele>
        <time>2021-03-27T12:50:16Z</time>
      </trkpt>
      <trkpt lat="46.05119" lon="6.36938">
        <ele>597</ele>
        <time>2021-03-27T12:50:17Z</time>
      </trkpt>
      <trkpt lat="46.05119" lon="6.36934">
        <ele>597.2</ele>
        <time>2021-03-27T12:50:18Z</time>
      </trkpt>
      <trkpt lat="46.0512" lon="6.36929">
        <ele>597.2</ele>
        <time>2021-03-27T12:50:19Z</time>
      </trkpt>
      <trkpt lat="46.05121" lon="6.36925">
        <ele>597.4</ele>
        <time>2021-03-27T12:50:20Z</time>
      </trkpt>
      <trkpt lat="46.05123" lon="6.36919">
        <ele>597.8</ele>
        <time>2021-03-27T12:50:21Z</time>
      </trkpt>
      <trkpt lat="46.05123" lon="6.36913">
        <ele>597.8</ele>
        <time>2021-03-27T12:50:22Z</time>
      </trkpt>
      <trkpt lat="46.05124" lon="6.36908">
        <ele>598</ele>
        <time>2021-03-27T12:50:23Z</time>
      </trkpt>
      <trkpt lat="46.05125" lon="6.36902">
        <ele>598.4</ele>
        <time>2021-03-27T12:50:24Z</time>
      </trkpt>
      <trkpt lat="46.05125" lon="6.36898">
        <ele>598.6</ele>
        <time>2021-03-27T12:50:25Z</time>
      </trkpt>
      <trkpt lat="46.05125" lon="6.36893">
        <ele>598.8</ele>
        <time>2021-03-27T12:50:26Z</time>
      </trkpt>
      <trkpt lat="46.05124" lon="6.36888">
        <ele>599</ele>
        <time>2021-03-27T12:50:27Z</time>
      </trkpt>
      <trkpt lat="46.05124" lon="6.36883">
        <ele>599.2</ele>
        <time>2021-03-27T12:50:28Z</time>
      </trkpt>
      <trkpt lat="46.05122" lon="6.36879">
        <ele>599.2</ele>
        <time>2021-03-27T12:50:29Z</time>
      </trkpt>
      <trkpt lat="46.0512" lon="6.36874">
        <ele>599.2</ele>
        <time>2021-03-27T12:50:30Z</time>
      </trkpt>
      <trkpt lat="46.05119" lon="6.3687">
        <ele>599.6</ele>
        <time>2021-03-27T12:50:31Z</time>
      </trkpt>
      <trkpt lat="46.05118" lon="6.36865">
        <ele>599.6</ele>
        <time>2021-03-27T12:50:32Z</time>
      </trkpt>
      <trkpt lat="46.05116" lon="6.36861">
        <ele>599.8</ele>
        <time>2021-03-27T12:50:33Z</time>
      </trkpt>
      <trkpt lat="46.05114" lon="6.36858">
        <ele>600.2</ele>
        <time>2021-03-27T12:50:34Z</time>
      </trkpt>
      <trkpt lat="46.05112" lon="6.36854">
        <ele>600.6</ele>
        <time>2021-03-27T12:50:35Z</time>
      </trkpt>
      <trkpt lat="46.05111" lon="6.36851">
        <ele>600.8</ele>
        <time>2021-03-27T12:50:36Z</time>
      </trkpt>
      <trkpt lat="46.05109" lon="6.36848">
        <ele>600.8</ele>
        <time>2021-03-27T12:50:37Z</time>
      </trkpt>
      <trkpt lat="46.05108" lon="6.36844">
        <ele>601.6</ele>
        <time>2021-03-27T12:50:38Z</time>
      </trkpt>
      <trkpt lat="46.05108" lon="6.3684">
        <ele>602</ele>
        <time>2021-03-27T12:50:39Z</time>
      </trkpt>
      <trkpt lat="46.05108" lon="6.36835">
        <ele>602</ele>
        <time>2021-03-27T12:50:40Z</time>
      </trkpt>
      <trkpt lat="46.05108" lon="6.3683">
        <ele>602.2</ele>
        <time>2021-03-27T12:50:41Z</time>
      </trkpt>
      <trkpt lat="46.05107" lon="6.36824">
        <ele>602.4</ele>
        <time>2021-03-27T12:50:42Z</time>
      </trkpt>
      <trkpt lat="46.05107" lon="6.36818">
        <ele>602.8</ele>
        <time>2021-03-27T12:50:43Z</time>
      </trkpt>
      <trkpt lat="46.05107" lon="6.36812">
        <ele>603</ele>
        <time>2021-03-27T12:50:44Z</time>
      </trkpt>
      <trkpt lat="46.05107" lon="6.36807">
        <ele>603</ele>
        <time>2021-03-27T12:50:45Z</time>
      </trkpt>
      <trkpt lat="46.05106" lon="6.36801">
        <ele>603.2</ele>
        <time>2021-03-27T12:50:46Z</time>
      </trkpt>
      <trkpt lat="46.05105" lon="6.36795">
        <ele>603.2</ele>
        <time>2021-03-27T12:50:47Z</time>
      </trkpt>
      <trkpt lat="46.05105" lon="6.36789">
        <ele>603.4</ele>
        <time>2021-03-27T12:50:48Z</time>
      </trkpt>
      <trkpt lat="46.05105" lon="6.36783">
        <ele>603.8</ele>
        <time>2021-03-27T12:50:49Z</time>
      </trkpt>
      <trkpt lat="46.05105" lon="6.36777">
        <ele>603.8</ele>
        <time>2021-03-27T12:50:50Z</time>
      </trkpt>
      <trkpt lat="46.05104" lon="6.36771">
        <ele>603.8</ele>
        <time>2021-03-27T12:50:51Z</time>
      </trkpt>
      <trkpt lat="46.05104" lon="6.36765">
        <ele>604</ele>
        <time>2021-03-27T12:50:52Z</time>
      </trkpt>
      <trkpt lat="46.05103" lon="6.3676">
        <ele>604.2</ele>
        <time>2021-03-27T12:50:53Z</time>
      </trkpt>
      <trkpt lat="46.05102" lon="6.36754">
        <ele>604.6</ele>
        <time>2021-03-27T12:50:54Z</time>
      </trkpt>
      <trkpt lat="46.05102" lon="6.36748">
        <ele>604.8</ele>
        <time>2021-03-27T12:50:55Z</time>
      </trkpt>
      <trkpt lat="46.05101" lon="6.36743">
        <ele>604.8</ele>
        <time>2021-03-27T12:50:56Z</time>
      </trkpt>
      <trkpt lat="46.051" lon="6.36737">
        <ele>605.4</ele>
        <time>2021-03-27T12:50:57Z</time>
      </trkpt>
      <trkpt lat="46.05099" lon="6.36732">
        <ele>605.6</ele>
        <time>2021-03-27T12:50:58Z</time>
      </trkpt>
      <trkpt lat="46.05097" lon="6.36727">
        <ele>605.8</ele>
        <time>2021-03-27T12:50:59Z</time>
      </trkpt>
      <trkpt lat="46.05096" lon="6.36723">
        <ele>606</ele>
        <time>2021-03-27T12:51:00Z</time>
      </trkpt>
      <trkpt lat="46.05095" lon="6.36719">
        <ele>606.4</ele>
        <time>2021-03-27T12:51:01Z</time>
      </trkpt>
      <trkpt lat="46.05094" lon="6.36714">
        <ele>606.4</ele>
        <time>2021-03-27T12:51:02Z</time>
      </trkpt>
      <trkpt lat="46.05093" lon="6.3671">
        <ele>606.6</ele>
        <time>2021-03-27T12:51:03Z</time>
      </trkpt>
      <trkpt lat="46.05092" lon="6.36706">
        <ele>606.8</ele>
        <time>2021-03-27T12:51:04Z</time>
      </trkpt>
      <trkpt lat="46.05091" lon="6.36702">
        <ele>607.2</ele>
        <time>2021-03-27T12:51:05Z</time>
      </trkpt>
      <trkpt lat="46.05089" lon="6.36698">
        <ele>607.4</ele>
        <time>2021-03-27T12:51:06Z</time>
      </trkpt>
      <trkpt lat="46.05088" lon="6.36694">
        <ele>607.8</ele>
        <time>2021-03-27T12:51:07Z</time>
      </trkpt>
      <trkpt lat="46.05087" lon="6.3669">
        <ele>608.2</ele>
        <time>2021-03-27T12:51:08Z</time>
      </trkpt>
      <trkpt lat="46.05085" lon="6.36686">
        <ele>608.6</ele>
        <time>2021-03-27T12:51:09Z</time>
      </trkpt>
      <trkpt lat="46.05083" lon="6.36682">
        <ele>608.6</ele>
        <time>2021-03-27T12:51:10Z</time>
      </trkpt>
      <trkpt lat="46.05081" lon="6.36677">
        <ele>608.8</ele>
        <time>2021-03-27T12:51:11Z</time>
      </trkpt>
      <trkpt lat="46.0508" lon="6.36673">
        <ele>608.8</ele>
        <time>2021-03-27T12:51:12Z</time>
      </trkpt>
      <trkpt lat="46.05079" lon="6.36668">
        <ele>609</ele>
        <time>2021-03-27T12:51:13Z</time>
      </trkpt>
      <trkpt lat="46.05079" lon="6.36663">
        <ele>609.2</ele>
        <time>2021-03-27T12:51:14Z</time>
      </trkpt>
      <trkpt lat="46.05078" lon="6.36659">
        <ele>609.4</ele>
        <time>2021-03-27T12:51:15Z</time>
      </trkpt>
      <trkpt lat="46.05078" lon="6.36653">
        <ele>609.6</ele>
        <time>2021-03-27T12:51:16Z</time>
      </trkpt>
      <trkpt lat="46.05077" lon="6.36648">
        <ele>610</ele>
        <time>2021-03-27T12:51:17Z</time>
      </trkpt>
      <trkpt lat="46.05076" lon="6.36643">
        <ele>610</ele>
        <time>2021-03-27T12:51:18Z</time>
      </trkpt>
      <trkpt lat="46.05075" lon="6.36639">
        <ele>610.4</ele>
        <time>2021-03-27T12:51:19Z</time>
      </trkpt>
      <trkpt lat="46.05074" lon="6.36635">
        <ele>610.8</ele>
        <time>2021-03-27T12:51:20Z</time>
      </trkpt>
      <trkpt lat="46.05073" lon="6.3663">
        <ele>611</ele>
        <time>2021-03-27T12:51:21Z</time>
      </trkpt>
      <trkpt lat="46.05073" lon="6.36625">
        <ele>611.2</ele>
        <time>2021-03-27T12:51:22Z</time>
      </trkpt>
      <trkpt lat="46.05072" lon="6.36621">
        <ele>611.6</ele>
        <time>2021-03-27T12:51:23Z</time>
      </trkpt>
      <trkpt lat="46.05071" lon="6.36616">
        <ele>611.8</ele>
        <time>2021-03-27T12:51:24Z</time>
      </trkpt>
      <trkpt lat="46.05069" lon="6.36613">
        <ele>612.2</ele>
        <time>2021-03-27T12:51:25Z</time>
      </trkpt>
      <trkpt lat="46.05067" lon="6.36609">
        <ele>612.2</ele>
        <time>2021-03-27T12:51:26Z</time>
      </trkpt>
      <trkpt lat="46.05066" lon="6.36605">
        <ele>612.4</ele>
        <time>2021-03-27T12:51:27Z</time>
      </trkpt>
      <trkpt lat="46.05064" lon="6.36602">
        <ele>612.4</ele>
        <time>2021-03-27T12:51:28Z</time>
      </trkpt>
      <trkpt lat="46.05064" lon="6.36598">
        <ele>612.6</ele>
        <time>2021-03-27T12:51:29Z</time>
      </trkpt>
      <trkpt lat="46.05063" lon="6.36594">
        <ele>613</ele>
        <time>2021-03-27T12:51:30Z</time>
      </trkpt>
      <trkpt lat="46.05062" lon="6.3659">
        <ele>613</ele>
        <time>2021-03-27T12:51:31Z</time>
      </trkpt>
      <trkpt lat="46.0506" lon="6.36586">
        <ele>613.4</ele>
        <time>2021-03-27T12:51:32Z</time>
      </trkpt>
      <trkpt lat="46.05059" lon="6.36582">
        <ele>613.6</ele>
        <time>2021-03-27T12:51:33Z</time>
      </trkpt>
      <trkpt lat="46.05058" lon="6.36578">
        <ele>613.8</ele>
        <time>2021-03-27T12:51:34Z</time>
      </trkpt>
      <trkpt lat="46.05056" lon="6.36574">
        <ele>614</ele>
        <time>2021-03-27T12:51:35Z</time>
      </trkpt>
      <trkpt lat="46.05054" lon="6.3657">
        <ele>614.2</ele>
        <time>2021-03-27T12:51:36Z</time>
      </trkpt>
      <trkpt lat="46.05054" lon="6.36565">
        <ele>614.4</ele>
        <time>2021-03-27T12:51:37Z</time>
      </trkpt>
      <trkpt lat="46.05053" lon="6.3656">
        <ele>614.6</ele>
        <time>2021-03-27T12:51:38Z</time>
      </trkpt>
      <trkpt lat="46.05052" lon="6.36554">
        <ele>614.8</ele>
        <time>2021-03-27T12:51:39Z</time>
      </trkpt>
      <trkpt lat="46.05053" lon="6.36551">
        <ele>614.8</ele>
        <time>2021-03-27T12:51:40Z</time>
      </trkpt>
      <trkpt lat="46.05053" lon="6.36546">
        <ele>615</ele>
        <time>2021-03-27T12:51:41Z</time>
      </trkpt>
      <trkpt lat="46.05054" lon="6.36541">
        <ele>615.2</ele>
        <time>2021-03-27T12:51:42Z</time>
      </trkpt>
      <trkpt lat="46.05055" lon="6.36536">
        <ele>615.2</ele>
        <time>2021-03-27T12:51:43Z</time>
      </trkpt>
      <trkpt lat="46.05056" lon="6.3653">
        <ele>615.4</ele>
        <time>2021-03-27T12:51:44Z</time>
      </trkpt>
      <trkpt lat="46.05058" lon="6.36523">
        <ele>615.6</ele>
        <time>2021-03-27T12:51:45Z</time>
      </trkpt>
      <trkpt lat="46.05058" lon="6.36516">
        <ele>616</ele>
        <time>2021-03-27T12:51:46Z</time>
      </trkpt>
      <trkpt lat="46.05059" lon="6.36509">
        <ele>616.2</ele>
        <time>2021-03-27T12:51:47Z</time>
      </trkpt>
      <trkpt lat="46.05058" lon="6.36503">
        <ele>616.6</ele>
        <time>2021-03-27T12:51:48Z</time>
      </trkpt>
      <trkpt lat="46.05058" lon="6.36497">
        <ele>616.8</ele>
        <time>2021-03-27T12:51:49Z</time>
      </trkpt>
      <trkpt lat="46.05058" lon="6.3649">
        <ele>617.2</ele>
        <time>2021-03-27T12:51:50Z</time>
      </trkpt>
      <trkpt lat="46.05058" lon="6.36483">
        <ele>617.4</ele>
        <time>2021-03-27T12:51:51Z</time>
      </trkpt>
      <trkpt lat="46.05057" lon="6.36477">
        <ele>617.6</ele>
        <time>2021-03-27T12:51:52Z</time>
      </trkpt>
      <trkpt lat="46.05057" lon="6.36471">
        <ele>617.8</ele>
        <time>2021-03-27T12:51:53Z</time>
      </trkpt>
      <trkpt lat="46.05057" lon="6.36465">
        <ele>618</ele>
        <time>2021-03-27T12:51:54Z</time>
      </trkpt>
      <trkpt lat="46.05057" lon="6.36459">
        <ele>618.2</ele>
        <time>2021-03-27T12:51:55Z</time>
      </trkpt>
      <trkpt lat="46.05057" lon="6.36453">
        <ele>618.4</ele>
        <time>2021-03-27T12:51:56Z</time>
      </trkpt>
      <trkpt lat="46.05057" lon="6.36448">
        <ele>618.8</ele>
        <time>2021-03-27T12:51:57Z</time>
      </trkpt>
      <trkpt lat="46.05056" lon="6.36442">
        <ele>619</ele>
        <time>2021-03-27T12:51:58Z</time>
      </trkpt>
      <trkpt lat="46.05056" lon="6.36437">
        <ele>619.4</ele>
        <time>2021-03-27T12:51:59Z</time>
      </trkpt>
      <trkpt lat="46.05055" lon="6.36431">
        <ele>619.6</ele>
        <time>2021-03-27T12:52:00Z</time>
      </trkpt>
      <trkpt lat="46.05054" lon="6.36426">
        <ele>619.8</ele>
        <time>2021-03-27T12:52:01Z</time>
      </trkpt>
      <trkpt lat="46.05054" lon="6.36421">
        <ele>620.2</ele>
        <time>2021-03-27T12:52:02Z</time>
      </trkpt>
      <trkpt lat="46.05054" lon="6.36416">
        <ele>620.2</ele>
        <time>2021-03-27T12:52:03Z</time>
      </trkpt>
      <trkpt lat="46.05055" lon="6.36412">
        <ele>620.2</ele>
        <time>2021-03-27T12:52:04Z</time>
      </trkpt>
      <trkpt lat="46.05055" lon="6.36408">
        <ele>620.4</ele>
        <time>2021-03-27T12:52:05Z</time>
      </trkpt>
      <trkpt lat="46.05055" lon="6.36403">
        <ele>620.6</ele>
        <time>2021-03-27T12:52:06Z</time>
      </trkpt>
      <trkpt lat="46.05056" lon="6.36399">
        <ele>621</ele>
        <time>2021-03-27T12:52:07Z</time>
      </trkpt>
      <trkpt lat="46.05057" lon="6.36395">
        <ele>621.2</ele>
        <time>2021-03-27T12:52:08Z</time>
      </trkpt>
      <trkpt lat="46.05057" lon="6.3639">
        <ele>621.6</ele>
        <time>2021-03-27T12:52:09Z</time>
      </trkpt>
      <trkpt lat="46.05057" lon="6.36385">
        <ele>621.6</ele>
        <time>2021-03-27T12:52:10Z</time>
      </trkpt>
      <trkpt lat="46.05056" lon="6.36381">
        <ele>621.8</ele>
        <time>2021-03-27T12:52:11Z</time>
      </trkpt>
      <trkpt lat="46.05057" lon="6.36376">
        <ele>622.2</ele>
        <time>2021-03-27T12:52:12Z</time>
      </trkpt>
      <trkpt lat="46.05057" lon="6.36371">
        <ele>622.4</ele>
        <time>2021-03-27T12:52:13Z</time>
      </trkpt>
      <trkpt lat="46.05057" lon="6.36366">
        <ele>622.6</ele>
        <time>2021-03-27T12:52:14Z</time>
      </trkpt>
      <trkpt lat="46.05057" lon="6.36361">
        <ele>622.8</ele>
        <time>2021-03-27T12:52:15Z</time>
      </trkpt>
      <trkpt lat="46.05056" lon="6.36357">
        <ele>623</ele>
        <time>2021-03-27T12:52:16Z</time>
      </trkpt>
      <trkpt lat="46.05056" lon="6.36353">
        <ele>623.4</ele>
        <time>2021-03-27T12:52:17Z</time>
      </trkpt>
      <trkpt lat="46.05056" lon="6.36349">
        <ele>623.4</ele>
        <time>2021-03-27T12:52:18Z</time>
      </trkpt>
      <trkpt lat="46.05055" lon="6.36344">
        <ele>623.8</ele>
        <time>2021-03-27T12:52:19Z</time>
      </trkpt>
      <trkpt lat="46.05055" lon="6.36338">
        <ele>623.8</ele>
        <time>2021-03-27T12:52:20Z</time>
      </trkpt>
      <trkpt lat="46.05055" lon="6.36332">
        <ele>624.2</ele>
        <time>2021-03-27T12:52:21Z</time>
      </trkpt>
      <trkpt lat="46.05055" lon="6.36328">
        <ele>624.4</ele>
        <time>2021-03-27T12:52:22Z</time>
      </trkpt>
      <trkpt lat="46.05056" lon="6.36322">
        <ele>624.6</ele>
        <time>2021-03-27T12:52:23Z</time>
      </trkpt>
      <trkpt lat="46.05056" lon="6.36318">
        <ele>624.8</ele>
        <time>2021-03-27T12:52:24Z</time>
      </trkpt>
      <trkpt lat="46.05055" lon="6.36313">
        <ele>625</ele>
        <time>2021-03-27T12:52:25Z</time>
      </trkpt>
      <trkpt lat="46.05055" lon="6.36309">
        <ele>625.2</ele>
        <time>2021-03-27T12:52:26Z</time>
      </trkpt>
      <trkpt lat="46.05054" lon="6.36304">
        <ele>625.2</ele>
        <time>2021-03-27T12:52:27Z</time>
      </trkpt>
      <trkpt lat="46.05054" lon="6.363">
        <ele>625.4</ele>
        <time>2021-03-27T12:52:28Z</time>
      </trkpt>
      <trkpt lat="46.05052" lon="6.36297">
        <ele>625.4</ele>
        <time>2021-03-27T12:52:29Z</time>
      </trkpt>
      <trkpt lat="46.05051" lon="6.36293">
        <ele>625.6</ele>
        <time>2021-03-27T12:52:30Z</time>
      </trkpt>
      <trkpt lat="46.0505" lon="6.36289">
        <ele>625.8</ele>
        <time>2021-03-27T12:52:31Z</time>
      </trkpt>
      <trkpt lat="46.05049" lon="6.36285">
        <ele>626</ele>
        <time>2021-03-27T12:52:32Z</time>
      </trkpt>
      <trkpt lat="46.05049" lon="6.3628">
        <ele>626.4</ele>
        <time>2021-03-27T12:52:33Z</time>
      </trkpt>
      <trkpt lat="46.05049" lon="6.36274">
        <ele>626.6</ele>
        <time>2021-03-27T12:52:34Z</time>
      </trkpt>
      <trkpt lat="46.05048" lon="6.36267">
        <ele>626.8</ele>
        <time>2021-03-27T12:52:35Z</time>
      </trkpt>
      <trkpt lat="46.05048" lon="6.36262">
        <ele>627</ele>
        <time>2021-03-27T12:52:36Z</time>
      </trkpt>
      <trkpt lat="46.05048" lon="6.36256">
        <ele>627.6</ele>
        <time>2021-03-27T12:52:37Z</time>
      </trkpt>
      <trkpt lat="46.05048" lon="6.36251">
        <ele>627.8</ele>
        <time>2021-03-27T12:52:38Z</time>
      </trkpt>
      <trkpt lat="46.05048" lon="6.36246">
        <ele>628</ele>
        <time>2021-03-27T12:52:39Z</time>
      </trkpt>
      <trkpt lat="46.05049" lon="6.36241">
        <ele>628.4</ele>
        <time>2021-03-27T12:52:40Z</time>
      </trkpt>
      <trkpt lat="46.05049" lon="6.36236">
        <ele>628.6</ele>
        <time>2021-03-27T12:52:41Z</time>
      </trkpt>
      <trkpt lat="46.05049" lon="6.3623">
        <ele>628.8</ele>
        <time>2021-03-27T12:52:42Z</time>
      </trkpt>
      <trkpt lat="46.05049" lon="6.36225">
        <ele>629</ele>
        <time>2021-03-27T12:52:43Z</time>
      </trkpt>
      <trkpt lat="46.05049" lon="6.3622">
        <ele>629.4</ele>
        <time>2021-03-27T12:52:44Z</time>
      </trkpt>
      <trkpt lat="46.05049" lon="6.36215">
        <ele>629.6</ele>
        <time>2021-03-27T12:52:45Z</time>
      </trkpt>
      <trkpt lat="46.05049" lon="6.3621">
        <ele>630</ele>
        <time>2021-03-27T12:52:46Z</time>
      </trkpt>
      <trkpt lat="46.05049" lon="6.36205">
        <ele>630.2</ele>
        <time>2021-03-27T12:52:47Z</time>
      </trkpt>
      <trkpt lat="46.05049" lon="6.362">
        <ele>630.6</ele>
        <time>2021-03-27T12:52:48Z</time>
      </trkpt>
      <trkpt lat="46.05048" lon="6.36195">
        <ele>631</ele>
        <time>2021-03-27T12:52:49Z</time>
      </trkpt>
      <trkpt lat="46.05048" lon="6.3619">
        <ele>631.2</ele>
        <time>2021-03-27T12:52:50Z</time>
      </trkpt>
      <trkpt lat="46.05047" lon="6.36186">
        <ele>631.2</ele>
        <time>2021-03-27T12:52:51Z</time>
      </trkpt>
      <trkpt lat="46.05046" lon="6.36182">
        <ele>631.4</ele>
        <time>2021-03-27T12:52:52Z</time>
      </trkpt>
      <trkpt lat="46.05045" lon="6.36177">
        <ele>631.8</ele>
        <time>2021-03-27T12:52:53Z</time>
      </trkpt>
      <trkpt lat="46.05044" lon="6.36172">
        <ele>631.8</ele>
        <time>2021-03-27T12:52:54Z</time>
      </trkpt>
      <trkpt lat="46.05044" lon="6.36168">
        <ele>632</ele>
        <time>2021-03-27T12:52:55Z</time>
      </trkpt>
      <trkpt lat="46.05044" lon="6.36162">
        <ele>632.2</ele>
        <time>2021-03-27T12:52:56Z</time>
      </trkpt>
      <trkpt lat="46.05046" lon="6.36153">
        <ele>632.6</ele>
        <time>2021-03-27T12:52:58Z</time>
      </trkpt>
      <trkpt lat="46.05047" lon="6.36149">
        <ele>632.8</ele>
        <time>2021-03-27T12:52:59Z</time>
      </trkpt>
      <trkpt lat="46.05047" lon="6.36145">
        <ele>633</ele>
        <time>2021-03-27T12:53:00Z</time>
      </trkpt>
      <trkpt lat="46.05048" lon="6.3614">
        <ele>633.2</ele>
        <time>2021-03-27T12:53:01Z</time>
      </trkpt>
      <trkpt lat="46.05048" lon="6.36135">
        <ele>633.2</ele>
        <time>2021-03-27T12:53:02Z</time>
      </trkpt>
      <trkpt lat="46.0505" lon="6.36131">
        <ele>633.4</ele>
        <time>2021-03-27T12:53:03Z</time>
      </trkpt>
      <trkpt lat="46.05051" lon="6.36126">
        <ele>633.8</ele>
        <time>2021-03-27T12:53:04Z</time>
      </trkpt>
      <trkpt lat="46.05053" lon="6.36123">
        <ele>634</ele>
        <time>2021-03-27T12:53:05Z</time>
      </trkpt>
      <trkpt lat="46.05055" lon="6.36113">
        <ele>634.4</ele>
        <time>2021-03-27T12:53:07Z</time>
      </trkpt>
      <trkpt lat="46.05055" lon="6.36109">
        <ele>634.6</ele>
        <time>2021-03-27T12:53:08Z</time>
      </trkpt>
      <trkpt lat="46.05055" lon="6.36104">
        <ele>634.8</ele>
        <time>2021-03-27T12:53:09Z</time>
      </trkpt>
      <trkpt lat="46.05054" lon="6.36095">
        <ele>635.2</ele>
        <time>2021-03-27T12:53:11Z</time>
      </trkpt>
      <trkpt lat="46.05055" lon="6.3609">
        <ele>635.4</ele>
        <time>2021-03-27T12:53:12Z</time>
      </trkpt>
      <trkpt lat="46.05056" lon="6.36085">
        <ele>635.6</ele>
        <time>2021-03-27T12:53:13Z</time>
      </trkpt>
      <trkpt lat="46.05058" lon="6.3608">
        <ele>635.8</ele>
        <time>2021-03-27T12:53:14Z</time>
      </trkpt>
      <trkpt lat="46.05059" lon="6.36074">
        <ele>635.8</ele>
        <time>2021-03-27T12:53:15Z</time>
      </trkpt>
      <trkpt lat="46.05061" lon="6.36068">
        <ele>636</ele>
        <time>2021-03-27T12:53:16Z</time>
      </trkpt>
      <trkpt lat="46.05061" lon="6.36063">
        <ele>636.4</ele>
        <time>2021-03-27T12:53:17Z</time>
      </trkpt>
      <trkpt lat="46.05061" lon="6.36057">
        <ele>636.6</ele>
        <time>2021-03-27T12:53:18Z</time>
      </trkpt>
      <trkpt lat="46.05062" lon="6.36048">
        <ele>637</ele>
        <time>2021-03-27T12:53:20Z</time>
      </trkpt>
      <trkpt lat="46.05062" lon="6.36042">
        <ele>637.4</ele>
        <time>2021-03-27T12:53:21Z</time>
      </trkpt>
      <trkpt lat="46.05063" lon="6.36036">
        <ele>637.8</ele>
        <time>2021-03-27T12:53:22Z</time>
      </trkpt>
      <trkpt lat="46.05064" lon="6.36025">
        <ele>638.6</ele>
        <time>2021-03-27T12:53:24Z</time>
      </trkpt>
      <trkpt lat="46.05064" lon="6.36019">
        <ele>638.8</ele>
        <time>2021-03-27T12:53:25Z</time>
      </trkpt>
      <trkpt lat="46.05064" lon="6.36014">
        <ele>638.8</ele>
        <time>2021-03-27T12:53:26Z</time>
      </trkpt>
      <trkpt lat="46.05063" lon="6.3601">
        <ele>639</ele>
        <time>2021-03-27T12:53:27Z</time>
      </trkpt>
      <trkpt lat="46.05063" lon="6.36006">
        <ele>639.4</ele>
        <time>2021-03-27T12:53:28Z</time>
      </trkpt>
      <trkpt lat="46.05061" lon="6.36002">
        <ele>639.6</ele>
        <time>2021-03-27T12:53:29Z</time>
      </trkpt>
      <trkpt lat="46.05059" lon="6.35998">
        <ele>639.6</ele>
        <time>2021-03-27T12:53:30Z</time>
      </trkpt>
      <trkpt lat="46.05056" lon="6.35995">
        <ele>640</ele>
        <time>2021-03-27T12:53:31Z</time>
      </trkpt>
      <trkpt lat="46.0505" lon="6.35989">
        <ele>640.2</ele>
        <time>2021-03-27T12:53:33Z</time>
      </trkpt>
      <trkpt lat="46.05047" lon="6.35987">
        <ele>640.4</ele>
        <time>2021-03-27T12:53:34Z</time>
      </trkpt>
      <trkpt lat="46.05043" lon="6.35984">
        <ele>640.6</ele>
        <time>2021-03-27T12:53:35Z</time>
      </trkpt>
      <trkpt lat="46.0504" lon="6.35982">
        <ele>640.8</ele>
        <time>2021-03-27T12:53:36Z</time>
      </trkpt>
      <trkpt lat="46.05036" lon="6.3598">
        <ele>641</ele>
        <time>2021-03-27T12:53:37Z</time>
      </trkpt>
      <trkpt lat="46.05032" lon="6.35979">
        <ele>641</ele>
        <time>2021-03-27T12:53:38Z</time>
      </trkpt>
      <trkpt lat="46.05027" lon="6.35977">
        <ele>641</ele>
        <time>2021-03-27T12:53:39Z</time>
      </trkpt>
      <trkpt lat="46.05023" lon="6.35974">
        <ele>641.2</ele>
        <time>2021-03-27T12:53:40Z</time>
      </trkpt>
      <trkpt lat="46.05019" lon="6.35971">
        <ele>641</ele>
        <time>2021-03-27T12:53:41Z</time>
      </trkpt>
      <trkpt lat="46.05014" lon="6.35968">
        <ele>641.2</ele>
        <time>2021-03-27T12:53:42Z</time>
      </trkpt>
      <trkpt lat="46.0501" lon="6.35965">
        <ele>641</ele>
        <time>2021-03-27T12:53:44Z</time>
      </trkpt>
      <trkpt lat="46.05005" lon="6.35962">
        <ele>641.2</ele>
        <time>2021-03-27T12:53:45Z</time>
      </trkpt>
      <trkpt lat="46.04995" lon="6.35957">
        <ele>641.2</ele>
        <time>2021-03-27T12:53:47Z</time>
      </trkpt>
      <trkpt lat="46.0499" lon="6.35954">
        <ele>641.2</ele>
        <time>2021-03-27T12:53:48Z</time>
      </trkpt>
      <trkpt lat="46.04985" lon="6.35951">
        <ele>641</ele>
        <time>2021-03-27T12:53:49Z</time>
      </trkpt>
      <trkpt lat="46.04981" lon="6.35947">
        <ele>641</ele>
        <time>2021-03-27T12:53:50Z</time>
      </trkpt>
      <trkpt lat="46.04977" lon="6.35944">
        <ele>641</ele>
        <time>2021-03-27T12:53:51Z</time>
      </trkpt>
      <trkpt lat="46.04972" lon="6.35941">
        <ele>641</ele>
        <time>2021-03-27T12:53:52Z</time>
      </trkpt>
      <trkpt lat="46.04968" lon="6.35938">
        <ele>641</ele>
        <time>2021-03-27T12:53:53Z</time>
      </trkpt>
      <trkpt lat="46.04963" lon="6.35935">
        <ele>640.8</ele>
        <time>2021-03-27T12:53:54Z</time>
      </trkpt>
      <trkpt lat="46.04959" lon="6.35932">
        <ele>641</ele>
        <time>2021-03-27T12:53:55Z</time>
      </trkpt>
      <trkpt lat="46.04954" lon="6.35929">
        <ele>640.8</ele>
        <time>2021-03-27T12:53:56Z</time>
      </trkpt>
      <trkpt lat="46.0495" lon="6.35926">
        <ele>640.8</ele>
        <time>2021-03-27T12:53:57Z</time>
      </trkpt>
      <trkpt lat="46.04946" lon="6.35922">
        <ele>640.8</ele>
        <time>2021-03-27T12:53:58Z</time>
      </trkpt>
      <trkpt lat="46.04941" lon="6.35919">
        <ele>640.8</ele>
        <time>2021-03-27T12:53:59Z</time>
      </trkpt>
      <trkpt lat="46.04937" lon="6.35916">
        <ele>640.8</ele>
        <time>2021-03-27T12:54:00Z</time>
      </trkpt>
      <trkpt lat="46.04933" lon="6.35913">
        <ele>640.8</ele>
        <time>2021-03-27T12:54:01Z</time>
      </trkpt>
      <trkpt lat="46.04929" lon="6.35911">
        <ele>641</ele>
        <time>2021-03-27T12:54:02Z</time>
      </trkpt>
      <trkpt lat="46.04925" lon="6.35908">
        <ele>641</ele>
        <time>2021-03-27T12:54:03Z</time>
      </trkpt>
      <trkpt lat="46.0492" lon="6.35905">
        <ele>641.2</ele>
        <time>2021-03-27T12:54:04Z</time>
      </trkpt>
      <trkpt lat="46.04917" lon="6.35902">
        <ele>641.2</ele>
        <time>2021-03-27T12:54:05Z</time>
      </trkpt>
      <trkpt lat="46.04913" lon="6.35899">
        <ele>641.4</ele>
        <time>2021-03-27T12:54:06Z</time>
      </trkpt>
      <trkpt lat="46.04909" lon="6.35896">
        <ele>641.4</ele>
        <time>2021-03-27T12:54:07Z</time>
      </trkpt>
      <trkpt lat="46.04905" lon="6.35893">
        <ele>641.4</ele>
        <time>2021-03-27T12:54:08Z</time>
      </trkpt>
      <trkpt lat="46.04901" lon="6.35891">
        <ele>641.4</ele>
        <time>2021-03-27T12:54:09Z</time>
      </trkpt>
      <trkpt lat="46.04897" lon="6.35888">
        <ele>641.6</ele>
        <time>2021-03-27T12:54:10Z</time>
      </trkpt>
      <trkpt lat="46.04893" lon="6.35886">
        <ele>641.8</ele>
        <time>2021-03-27T12:54:11Z</time>
      </trkpt>
      <trkpt lat="46.04889" lon="6.35883">
        <ele>642.2</ele>
        <time>2021-03-27T12:54:12Z</time>
      </trkpt>
      <trkpt lat="46.04884" lon="6.35881">
        <ele>642.4</ele>
        <time>2021-03-27T12:54:13Z</time>
      </trkpt>
      <trkpt lat="46.0488" lon="6.35879">
        <ele>642.6</ele>
        <time>2021-03-27T12:54:14Z</time>
      </trkpt>
      <trkpt lat="46.04876" lon="6.35877">
        <ele>642.8</ele>
        <time>2021-03-27T12:54:15Z</time>
      </trkpt>
      <trkpt lat="46.04871" lon="6.35875">
        <ele>642.8</ele>
        <time>2021-03-27T12:54:16Z</time>
      </trkpt>
      <trkpt lat="46.04867" lon="6.35873">
        <ele>643</ele>
        <time>2021-03-27T12:54:17Z</time>
      </trkpt>
      <trkpt lat="46.04862" lon="6.35871">
        <ele>643</ele>
        <time>2021-03-27T12:54:18Z</time>
      </trkpt>
      <trkpt lat="46.04857" lon="6.3587">
        <ele>643.2</ele>
        <time>2021-03-27T12:54:19Z</time>
      </trkpt>
      <trkpt lat="46.04853" lon="6.35868">
        <ele>643.2</ele>
        <time>2021-03-27T12:54:20Z</time>
      </trkpt>
      <trkpt lat="46.04848" lon="6.35867">
        <ele>643.4</ele>
        <time>2021-03-27T12:54:21Z</time>
      </trkpt>
      <trkpt lat="46.04843" lon="6.35866">
        <ele>643.8</ele>
        <time>2021-03-27T12:54:22Z</time>
      </trkpt>
      <trkpt lat="46.04838" lon="6.35865">
        <ele>643.8</ele>
        <time>2021-03-27T12:54:23Z</time>
      </trkpt>
      <trkpt lat="46.04833" lon="6.35864">
        <ele>644.2</ele>
        <time>2021-03-27T12:54:24Z</time>
      </trkpt>
      <trkpt lat="46.04829" lon="6.35863">
        <ele>644.4</ele>
        <time>2021-03-27T12:54:25Z</time>
      </trkpt>
      <trkpt lat="46.04824" lon="6.35862">
        <ele>644.6</ele>
        <time>2021-03-27T12:54:26Z</time>
      </trkpt>
      <trkpt lat="46.04819" lon="6.35862">
        <ele>645</ele>
        <time>2021-03-27T12:54:27Z</time>
      </trkpt>
      <trkpt lat="46.04815" lon="6.35862">
        <ele>645.6</ele>
        <time>2021-03-27T12:54:28Z</time>
      </trkpt>
      <trkpt lat="46.0481" lon="6.35862">
        <ele>646</ele>
        <time>2021-03-27T12:54:29Z</time>
      </trkpt>
      <trkpt lat="46.04806" lon="6.35863">
        <ele>646.2</ele>
        <time>2021-03-27T12:54:30Z</time>
      </trkpt>
      <trkpt lat="46.04802" lon="6.35863">
        <ele>646.8</ele>
        <time>2021-03-27T12:54:31Z</time>
      </trkpt>
      <trkpt lat="46.04798" lon="6.35864">
        <ele>647.2</ele>
        <time>2021-03-27T12:54:32Z</time>
      </trkpt>
      <trkpt lat="46.04794" lon="6.35865">
        <ele>647.4</ele>
        <time>2021-03-27T12:54:33Z</time>
      </trkpt>
      <trkpt lat="46.0479" lon="6.35865">
        <ele>647.4</ele>
        <time>2021-03-27T12:54:34Z</time>
      </trkpt>
      <trkpt lat="46.04786" lon="6.35864">
        <ele>647.6</ele>
        <time>2021-03-27T12:54:35Z</time>
      </trkpt>
      <trkpt lat="46.04782" lon="6.35864">
        <ele>647.8</ele>
        <time>2021-03-27T12:54:36Z</time>
      </trkpt>
      <trkpt lat="46.04778" lon="6.35864">
        <ele>647.8</ele>
        <time>2021-03-27T12:54:37Z</time>
      </trkpt>
      <trkpt lat="46.04775" lon="6.35864">
        <ele>648</ele>
        <time>2021-03-27T12:54:38Z</time>
      </trkpt>
      <trkpt lat="46.04771" lon="6.35864">
        <ele>648.4</ele>
        <time>2021-03-27T12:54:39Z</time>
      </trkpt>
      <trkpt lat="46.04767" lon="6.35864">
        <ele>648.8</ele>
        <time>2021-03-27T12:54:40Z</time>
      </trkpt>
      <trkpt lat="46.04763" lon="6.35863">
        <ele>649</ele>
        <time>2021-03-27T12:54:41Z</time>
      </trkpt>
      <trkpt lat="46.0476" lon="6.35863">
        <ele>649.2</ele>
        <time>2021-03-27T12:54:42Z</time>
      </trkpt>
      <trkpt lat="46.04757" lon="6.35862">
        <ele>649.4</ele>
        <time>2021-03-27T12:54:43Z</time>
      </trkpt>
      <trkpt lat="46.04754" lon="6.35859">
        <ele>649.6</ele>
        <time>2021-03-27T12:54:44Z</time>
      </trkpt>
      <trkpt lat="46.04752" lon="6.35856">
        <ele>650.2</ele>
        <time>2021-03-27T12:54:45Z</time>
      </trkpt>
      <trkpt lat="46.0475" lon="6.35852">
        <ele>650.6</ele>
        <time>2021-03-27T12:54:46Z</time>
      </trkpt>
      <trkpt lat="46.0475" lon="6.35847">
        <ele>650.8</ele>
        <time>2021-03-27T12:54:47Z</time>
      </trkpt>
      <trkpt lat="46.0475" lon="6.35842">
        <ele>651</ele>
        <time>2021-03-27T12:54:48Z</time>
      </trkpt>
      <trkpt lat="46.04751" lon="6.35837">
        <ele>651.2</ele>
        <time>2021-03-27T12:54:49Z</time>
      </trkpt>
      <trkpt lat="46.04751" lon="6.35832">
        <ele>651.6</ele>
        <time>2021-03-27T12:54:50Z</time>
      </trkpt>
      <trkpt lat="46.04752" lon="6.35826">
        <ele>651.8</ele>
        <time>2021-03-27T12:54:51Z</time>
      </trkpt>
      <trkpt lat="46.04752" lon="6.35821">
        <ele>652</ele>
        <time>2021-03-27T12:54:52Z</time>
      </trkpt>
      <trkpt lat="46.04752" lon="6.35816">
        <ele>652.2</ele>
        <time>2021-03-27T12:54:53Z</time>
      </trkpt>
      <trkpt lat="46.04753" lon="6.35811">
        <ele>652.4</ele>
        <time>2021-03-27T12:54:54Z</time>
      </trkpt>
      <trkpt lat="46.04753" lon="6.35806">
        <ele>652.6</ele>
        <time>2021-03-27T12:54:55Z</time>
      </trkpt>
      <trkpt lat="46.04754" lon="6.35801">
        <ele>652.6</ele>
        <time>2021-03-27T12:54:56Z</time>
      </trkpt>
      <trkpt lat="46.04754" lon="6.35797">
        <ele>652.6</ele>
        <time>2021-03-27T12:54:57Z</time>
      </trkpt>
      <trkpt lat="46.04755" lon="6.35792">
        <ele>652.8</ele>
        <time>2021-03-27T12:54:58Z</time>
      </trkpt>
      <trkpt lat="46.04755" lon="6.35786">
        <ele>652.8</ele>
        <time>2021-03-27T12:54:59Z</time>
      </trkpt>
      <trkpt lat="46.04756" lon="6.3578">
        <ele>652.8</ele>
        <time>2021-03-27T12:55:00Z</time>
      </trkpt>
      <trkpt lat="46.04756" lon="6.35774">
        <ele>652.8</ele>
        <time>2021-03-27T12:55:01Z</time>
      </trkpt>
      <trkpt lat="46.04757" lon="6.35767">
        <ele>652.8</ele>
        <time>2021-03-27T12:55:02Z</time>
      </trkpt>
      <trkpt lat="46.04758" lon="6.3576">
        <ele>652.8</ele>
        <time>2021-03-27T12:55:03Z</time>
      </trkpt>
      <trkpt lat="46.04758" lon="6.35752">
        <ele>652.8</ele>
        <time>2021-03-27T12:55:04Z</time>
      </trkpt>
      <trkpt lat="46.04759" lon="6.35745">
        <ele>652.8</ele>
        <time>2021-03-27T12:55:05Z</time>
      </trkpt>
      <trkpt lat="46.04759" lon="6.35736">
        <ele>652.6</ele>
        <time>2021-03-27T12:55:06Z</time>
      </trkpt>
      <trkpt lat="46.0476" lon="6.35728">
        <ele>652.6</ele>
        <time>2021-03-27T12:55:07Z</time>
      </trkpt>
      <trkpt lat="46.0476" lon="6.35719">
        <ele>652.6</ele>
        <time>2021-03-27T12:55:08Z</time>
      </trkpt>
      <trkpt lat="46.04761" lon="6.35711">
        <ele>652.4</ele>
        <time>2021-03-27T12:55:09Z</time>
      </trkpt>
      <trkpt lat="46.04762" lon="6.35702">
        <ele>652.2</ele>
        <time>2021-03-27T12:55:10Z</time>
      </trkpt>
      <trkpt lat="46.04764" lon="6.35694">
        <ele>651.8</ele>
        <time>2021-03-27T12:55:11Z</time>
      </trkpt>
      <trkpt lat="46.04765" lon="6.35685">
        <ele>651.8</ele>
        <time>2021-03-27T12:55:12Z</time>
      </trkpt>
      <trkpt lat="46.04766" lon="6.35677">
        <ele>651.2</ele>
        <time>2021-03-27T12:55:13Z</time>
      </trkpt>
      <trkpt lat="46.04767" lon="6.35668">
        <ele>651</ele>
        <time>2021-03-27T12:55:14Z</time>
      </trkpt>
      <trkpt lat="46.04768" lon="6.3566">
        <ele>650.8</ele>
        <time>2021-03-27T12:55:15Z</time>
      </trkpt>
      <trkpt lat="46.04769" lon="6.35651">
        <ele>650.2</ele>
        <time>2021-03-27T12:55:16Z</time>
      </trkpt>
      <trkpt lat="46.0477" lon="6.35643">
        <ele>649.8</ele>
        <time>2021-03-27T12:55:17Z</time>
      </trkpt>
      <trkpt lat="46.04771" lon="6.35634">
        <ele>649.8</ele>
        <time>2021-03-27T12:55:18Z</time>
      </trkpt>
      <trkpt lat="46.04773" lon="6.35625">
        <ele>649.4</ele>
        <time>2021-03-27T12:55:19Z</time>
      </trkpt>
      <trkpt lat="46.04774" lon="6.35616">
        <ele>649.4</ele>
        <time>2021-03-27T12:55:20Z</time>
      </trkpt>
      <trkpt lat="46.04775" lon="6.35607">
        <ele>649.2</ele>
        <time>2021-03-27T12:55:21Z</time>
      </trkpt>
      <trkpt lat="46.04776" lon="6.35598">
        <ele>649.2</ele>
        <time>2021-03-27T12:55:22Z</time>
      </trkpt>
      <trkpt lat="46.04777" lon="6.35589">
        <ele>649.2</ele>
        <time>2021-03-27T12:55:23Z</time>
      </trkpt>
      <trkpt lat="46.04777" lon="6.3558">
        <ele>649.2</ele>
        <time>2021-03-27T12:55:24Z</time>
      </trkpt>
      <trkpt lat="46.04778" lon="6.35571">
        <ele>649</ele>
        <time>2021-03-27T12:55:25Z</time>
      </trkpt>
      <trkpt lat="46.04778" lon="6.35562">
        <ele>648.8</ele>
        <time>2021-03-27T12:55:26Z</time>
      </trkpt>
      <trkpt lat="46.04779" lon="6.35553">
        <ele>649</ele>
        <time>2021-03-27T12:55:27Z</time>
      </trkpt>
      <trkpt lat="46.0478" lon="6.35544">
        <ele>649</ele>
        <time>2021-03-27T12:55:28Z</time>
      </trkpt>
      <trkpt lat="46.04781" lon="6.35535">
        <ele>649</ele>
        <time>2021-03-27T12:55:29Z</time>
      </trkpt>
      <trkpt lat="46.04782" lon="6.35526">
        <ele>649</ele>
        <time>2021-03-27T12:55:30Z</time>
      </trkpt>
      <trkpt lat="46.04783" lon="6.35518">
        <ele>648.8</ele>
        <time>2021-03-27T12:55:31Z</time>
      </trkpt>
      <trkpt lat="46.04784" lon="6.35509">
        <ele>648.8</ele>
        <time>2021-03-27T12:55:32Z</time>
      </trkpt>
      <trkpt lat="46.04784" lon="6.355">
        <ele>648.8</ele>
        <time>2021-03-27T12:55:33Z</time>
      </trkpt>
      <trkpt lat="46.04785" lon="6.35491">
        <ele>648.8</ele>
        <time>2021-03-27T12:55:34Z</time>
      </trkpt>
      <trkpt lat="46.04786" lon="6.35482">
        <ele>648.6</ele>
        <time>2021-03-27T12:55:35Z</time>
      </trkpt>
      <trkpt lat="46.04786" lon="6.35473">
        <ele>648.6</ele>
        <time>2021-03-27T12:55:36Z</time>
      </trkpt>
      <trkpt lat="46.04785" lon="6.35464">
        <ele>648.6</ele>
        <time>2021-03-27T12:55:37Z</time>
      </trkpt>
      <trkpt lat="46.04784" lon="6.35455">
        <ele>648.6</ele>
        <time>2021-03-27T12:55:38Z</time>
      </trkpt>
      <trkpt lat="46.04784" lon="6.35446">
        <ele>648.4</ele>
        <time>2021-03-27T12:55:39Z</time>
      </trkpt>
      <trkpt lat="46.04782" lon="6.35437">
        <ele>648.4</ele>
        <time>2021-03-27T12:55:40Z</time>
      </trkpt>
      <trkpt lat="46.04782" lon="6.35428">
        <ele>648.4</ele>
        <time>2021-03-27T12:55:41Z</time>
      </trkpt>
      <trkpt lat="46.04781" lon="6.35419">
        <ele>648.6</ele>
        <time>2021-03-27T12:55:42Z</time>
      </trkpt>
      <trkpt lat="46.0478" lon="6.3541">
        <ele>648.6</ele>
        <time>2021-03-27T12:55:43Z</time>
      </trkpt>
      <trkpt lat="46.04779" lon="6.354">
        <ele>648.4</ele>
        <time>2021-03-27T12:55:44Z</time>
      </trkpt>
      <trkpt lat="46.04779" lon="6.35391">
        <ele>648.4</ele>
        <time>2021-03-27T12:55:45Z</time>
      </trkpt>
      <trkpt lat="46.04778" lon="6.35382">
        <ele>648.4</ele>
        <time>2021-03-27T12:55:46Z</time>
      </trkpt>
      <trkpt lat="46.04778" lon="6.35373">
        <ele>648.4</ele>
        <time>2021-03-27T12:55:47Z</time>
      </trkpt>
      <trkpt lat="46.04778" lon="6.35364">
        <ele>648.4</ele>
        <time>2021-03-27T12:55:48Z</time>
      </trkpt>
      <trkpt lat="46.04777" lon="6.35356">
        <ele>648.4</ele>
        <time>2021-03-27T12:55:49Z</time>
      </trkpt>
      <trkpt lat="46.04776" lon="6.35347">
        <ele>648.4</ele>
        <time>2021-03-27T12:55:50Z</time>
      </trkpt>
      <trkpt lat="46.04776" lon="6.35339">
        <ele>648.4</ele>
        <time>2021-03-27T12:55:51Z</time>
      </trkpt>
      <trkpt lat="46.04776" lon="6.35331">
        <ele>648.6</ele>
        <time>2021-03-27T12:55:52Z</time>
      </trkpt>
      <trkpt lat="46.04775" lon="6.35324">
        <ele>648.6</ele>
        <time>2021-03-27T12:55:53Z</time>
      </trkpt>
      <trkpt lat="46.04775" lon="6.35316">
        <ele>648.6</ele>
        <time>2021-03-27T12:55:54Z</time>
      </trkpt>
      <trkpt lat="46.04774" lon="6.35309">
        <ele>648.6</ele>
        <time>2021-03-27T12:55:55Z</time>
      </trkpt>
      <trkpt lat="46.04774" lon="6.35302">
        <ele>648.8</ele>
        <time>2021-03-27T12:55:56Z</time>
      </trkpt>
      <trkpt lat="46.04774" lon="6.35295">
        <ele>649</ele>
        <time>2021-03-27T12:55:57Z</time>
      </trkpt>
      <trkpt lat="46.04775" lon="6.35288">
        <ele>649</ele>
        <time>2021-03-27T12:55:58Z</time>
      </trkpt>
      <trkpt lat="46.04776" lon="6.35281">
        <ele>649.4</ele>
        <time>2021-03-27T12:55:59Z</time>
      </trkpt>
      <trkpt lat="46.04776" lon="6.35274">
        <ele>649.4</ele>
        <time>2021-03-27T12:56:00Z</time>
      </trkpt>
      <trkpt lat="46.04776" lon="6.35267">
        <ele>649.6</ele>
        <time>2021-03-27T12:56:01Z</time>
      </trkpt>
      <trkpt lat="46.04776" lon="6.3526">
        <ele>649.6</ele>
        <time>2021-03-27T12:56:02Z</time>
      </trkpt>
      <trkpt lat="46.04776" lon="6.35253">
        <ele>649.8</ele>
        <time>2021-03-27T12:56:03Z</time>
      </trkpt>
      <trkpt lat="46.04775" lon="6.35246">
        <ele>649.8</ele>
        <time>2021-03-27T12:56:04Z</time>
      </trkpt>
      <trkpt lat="46.04775" lon="6.35239">
        <ele>650.2</ele>
        <time>2021-03-27T12:56:05Z</time>
      </trkpt>
      <trkpt lat="46.04775" lon="6.35232">
        <ele>650.4</ele>
        <time>2021-03-27T12:56:06Z</time>
      </trkpt>
      <trkpt lat="46.04775" lon="6.35225">
        <ele>650.4</ele>
        <time>2021-03-27T12:56:07Z</time>
      </trkpt>
      <trkpt lat="46.04776" lon="6.35218">
        <ele>650.6</ele>
        <time>2021-03-27T12:56:08Z</time>
      </trkpt>
      <trkpt lat="46.04777" lon="6.35212">
        <ele>651</ele>
        <time>2021-03-27T12:56:09Z</time>
      </trkpt>
      <trkpt lat="46.04777" lon="6.35205">
        <ele>651.6</ele>
        <time>2021-03-27T12:56:10Z</time>
      </trkpt>
      <trkpt lat="46.04778" lon="6.35198">
        <ele>651.8</ele>
        <time>2021-03-27T12:56:11Z</time>
      </trkpt>
      <trkpt lat="46.04778" lon="6.35191">
        <ele>652</ele>
        <time>2021-03-27T12:56:12Z</time>
      </trkpt>
      <trkpt lat="46.04778" lon="6.35184">
        <ele>652.2</ele>
        <time>2021-03-27T12:56:13Z</time>
      </trkpt>
      <trkpt lat="46.04779" lon="6.35178">
        <ele>652.4</ele>
        <time>2021-03-27T12:56:14Z</time>
      </trkpt>
      <trkpt lat="46.0478" lon="6.35171">
        <ele>652.6</ele>
        <time>2021-03-27T12:56:15Z</time>
      </trkpt>
      <trkpt lat="46.04782" lon="6.35165">
        <ele>652.8</ele>
        <time>2021-03-27T12:56:16Z</time>
      </trkpt>
      <trkpt lat="46.04784" lon="6.35159">
        <ele>653</ele>
        <time>2021-03-27T12:56:17Z</time>
      </trkpt>
      <trkpt lat="46.04787" lon="6.35153">
        <ele>653</ele>
        <time>2021-03-27T12:56:18Z</time>
      </trkpt>
      <trkpt lat="46.04791" lon="6.35148">
        <ele>653</ele>
        <time>2021-03-27T12:56:19Z</time>
      </trkpt>
      <trkpt lat="46.04794" lon="6.35143">
        <ele>653</ele>
        <time>2021-03-27T12:56:20Z</time>
      </trkpt>
      <trkpt lat="46.04798" lon="6.35138">
        <ele>653.2</ele>
        <time>2021-03-27T12:56:21Z</time>
      </trkpt>
      <trkpt lat="46.04801" lon="6.35133">
        <ele>653.2</ele>
        <time>2021-03-27T12:56:22Z</time>
      </trkpt>
      <trkpt lat="46.04805" lon="6.35129">
        <ele>653.4</ele>
        <time>2021-03-27T12:56:23Z</time>
      </trkpt>
      <trkpt lat="46.04809" lon="6.35124">
        <ele>653.4</ele>
        <time>2021-03-27T12:56:24Z</time>
      </trkpt>
      <trkpt lat="46.04813" lon="6.35119">
        <ele>653.4</ele>
        <time>2021-03-27T12:56:25Z</time>
      </trkpt>
      <trkpt lat="46.04816" lon="6.35114">
        <ele>653.6</ele>
        <time>2021-03-27T12:56:26Z</time>
      </trkpt>
      <trkpt lat="46.04821" lon="6.35108">
        <ele>653.8</ele>
        <time>2021-03-27T12:56:27Z</time>
      </trkpt>
      <trkpt lat="46.04825" lon="6.35103">
        <ele>654</ele>
        <time>2021-03-27T12:56:28Z</time>
      </trkpt>
      <trkpt lat="46.04829" lon="6.35097">
        <ele>654</ele>
        <time>2021-03-27T12:56:29Z</time>
      </trkpt>
      <trkpt lat="46.04834" lon="6.35091">
        <ele>654.4</ele>
        <time>2021-03-27T12:56:30Z</time>
      </trkpt>
      <trkpt lat="46.04838" lon="6.35085">
        <ele>654.6</ele>
        <time>2021-03-27T12:56:31Z</time>
      </trkpt>
      <trkpt lat="46.04842" lon="6.35078">
        <ele>654.6</ele>
        <time>2021-03-27T12:56:32Z</time>
      </trkpt>
      <trkpt lat="46.04845" lon="6.35071">
        <ele>654.6</ele>
        <time>2021-03-27T12:56:33Z</time>
      </trkpt>
      <trkpt lat="46.04848" lon="6.35064">
        <ele>654.8</ele>
        <time>2021-03-27T12:56:34Z</time>
      </trkpt>
      <trkpt lat="46.04851" lon="6.35057">
        <ele>655</ele>
        <time>2021-03-27T12:56:35Z</time>
      </trkpt>
      <trkpt lat="46.04854" lon="6.35049">
        <ele>655</ele>
        <time>2021-03-27T12:56:36Z</time>
      </trkpt>
      <trkpt lat="46.04856" lon="6.3504">
        <ele>655</ele>
        <time>2021-03-27T12:56:37Z</time>
      </trkpt>
      <trkpt lat="46.04858" lon="6.35031">
        <ele>655.2</ele>
        <time>2021-03-27T12:56:38Z</time>
      </trkpt>
      <trkpt lat="46.0486" lon="6.35023">
        <ele>655</ele>
        <time>2021-03-27T12:56:39Z</time>
      </trkpt>
      <trkpt lat="46.04862" lon="6.35014">
        <ele>655</ele>
        <time>2021-03-27T12:56:40Z</time>
      </trkpt>
      <trkpt lat="46.04864" lon="6.35005">
        <ele>655</ele>
        <time>2021-03-27T12:56:41Z</time>
      </trkpt>
      <trkpt lat="46.04865" lon="6.34996">
        <ele>655.2</ele>
        <time>2021-03-27T12:56:42Z</time>
      </trkpt>
      <trkpt lat="46.04867" lon="6.34987">
        <ele>655.2</ele>
        <time>2021-03-27T12:56:43Z</time>
      </trkpt>
      <trkpt lat="46.04868" lon="6.34979">
        <ele>655.2</ele>
        <time>2021-03-27T12:56:44Z</time>
      </trkpt>
      <trkpt lat="46.0487" lon="6.3497">
        <ele>655</ele>
        <time>2021-03-27T12:56:45Z</time>
      </trkpt>
      <trkpt lat="46.04872" lon="6.34961">
        <ele>655</ele>
        <time>2021-03-27T12:56:46Z</time>
      </trkpt>
      <trkpt lat="46.04873" lon="6.34953">
        <ele>655.2</ele>
        <time>2021-03-27T12:56:47Z</time>
      </trkpt>
      <trkpt lat="46.04875" lon="6.34944">
        <ele>655</ele>
        <time>2021-03-27T12:56:48Z</time>
      </trkpt>
      <trkpt lat="46.04877" lon="6.34935">
        <ele>655</ele>
        <time>2021-03-27T12:56:49Z</time>
      </trkpt>
      <trkpt lat="46.04879" lon="6.34927">
        <ele>655</ele>
        <time>2021-03-27T12:56:50Z</time>
      </trkpt>
      <trkpt lat="46.0488" lon="6.34918">
        <ele>655</ele>
        <time>2021-03-27T12:56:51Z</time>
      </trkpt>
      <trkpt lat="46.04882" lon="6.3491">
        <ele>655</ele>
        <time>2021-03-27T12:56:52Z</time>
      </trkpt>
      <trkpt lat="46.04884" lon="6.34901">
        <ele>655</ele>
        <time>2021-03-27T12:56:53Z</time>
      </trkpt>
      <trkpt lat="46.04885" lon="6.34893">
        <ele>655</ele>
        <time>2021-03-27T12:56:54Z</time>
      </trkpt>
      <trkpt lat="46.04887" lon="6.34884">
        <ele>655</ele>
        <time>2021-03-27T12:56:55Z</time>
      </trkpt>
      <trkpt lat="46.04888" lon="6.34876">
        <ele>655</ele>
        <time>2021-03-27T12:56:56Z</time>
      </trkpt>
      <trkpt lat="46.0489" lon="6.34867">
        <ele>655</ele>
        <time>2021-03-27T12:56:57Z</time>
      </trkpt>
      <trkpt lat="46.04891" lon="6.34858">
        <ele>655</ele>
        <time>2021-03-27T12:56:58Z</time>
      </trkpt>
      <trkpt lat="46.04892" lon="6.3485">
        <ele>655</ele>
        <time>2021-03-27T12:56:59Z</time>
      </trkpt>
      <trkpt lat="46.04893" lon="6.34841">
        <ele>655</ele>
        <time>2021-03-27T12:57:00Z</time>
      </trkpt>
      <trkpt lat="46.04893" lon="6.34832">
        <ele>655.2</ele>
        <time>2021-03-27T12:57:01Z</time>
      </trkpt>
      <trkpt lat="46.04894" lon="6.34822">
        <ele>655.2</ele>
        <time>2021-03-27T12:57:02Z</time>
      </trkpt>
      <trkpt lat="46.04895" lon="6.34813">
        <ele>655.2</ele>
        <time>2021-03-27T12:57:03Z</time>
      </trkpt>
      <trkpt lat="46.04895" lon="6.34803">
        <ele>655.2</ele>
        <time>2021-03-27T12:57:04Z</time>
      </trkpt>
      <trkpt lat="46.04896" lon="6.34793">
        <ele>655.2</ele>
        <time>2021-03-27T12:57:05Z</time>
      </trkpt>
      <trkpt lat="46.04896" lon="6.34784">
        <ele>655.2</ele>
        <time>2021-03-27T12:57:06Z</time>
      </trkpt>
      <trkpt lat="46.04897" lon="6.34774">
        <ele>655.2</ele>
        <time>2021-03-27T12:57:07Z</time>
      </trkpt>
      <trkpt lat="46.04898" lon="6.34764">
        <ele>655.2</ele>
        <time>2021-03-27T12:57:08Z</time>
      </trkpt>
      <trkpt lat="46.04899" lon="6.34754">
        <ele>655</ele>
        <time>2021-03-27T12:57:09Z</time>
      </trkpt>
      <trkpt lat="46.04899" lon="6.34744">
        <ele>655.2</ele>
        <time>2021-03-27T12:57:10Z</time>
      </trkpt>
      <trkpt lat="46.049" lon="6.34734">
        <ele>655.2</ele>
        <time>2021-03-27T12:57:11Z</time>
      </trkpt>
      <trkpt lat="46.049" lon="6.34724">
        <ele>655.2</ele>
        <time>2021-03-27T12:57:12Z</time>
      </trkpt>
      <trkpt lat="46.04901" lon="6.34714">
        <ele>655.4</ele>
        <time>2021-03-27T12:57:13Z</time>
      </trkpt>
      <trkpt lat="46.04903" lon="6.34704">
        <ele>655.4</ele>
        <time>2021-03-27T12:57:14Z</time>
      </trkpt>
      <trkpt lat="46.04904" lon="6.34693">
        <ele>655.2</ele>
        <time>2021-03-27T12:57:15Z</time>
      </trkpt>
      <trkpt lat="46.04904" lon="6.34683">
        <ele>655.2</ele>
        <time>2021-03-27T12:57:16Z</time>
      </trkpt>
      <trkpt lat="46.04905" lon="6.34672">
        <ele>655.2</ele>
        <time>2021-03-27T12:57:17Z</time>
      </trkpt>
      <trkpt lat="46.04905" lon="6.34661">
        <ele>655.2</ele>
        <time>2021-03-27T12:57:18Z</time>
      </trkpt>
      <trkpt lat="46.04906" lon="6.3465">
        <ele>655.2</ele>
        <time>2021-03-27T12:57:19Z</time>
      </trkpt>
      <trkpt lat="46.04906" lon="6.34639">
        <ele>655</ele>
        <time>2021-03-27T12:57:20Z</time>
      </trkpt>
      <trkpt lat="46.04906" lon="6.34628">
        <ele>655</ele>
        <time>2021-03-27T12:57:21Z</time>
      </trkpt>
      <trkpt lat="46.04906" lon="6.34617">
        <ele>655</ele>
        <time>2021-03-27T12:57:22Z</time>
      </trkpt>
      <trkpt lat="46.04906" lon="6.34607">
        <ele>655</ele>
        <time>2021-03-27T12:57:23Z</time>
      </trkpt>
      <trkpt lat="46.04906" lon="6.34597">
        <ele>655.2</ele>
        <time>2021-03-27T12:57:24Z</time>
      </trkpt>
      <trkpt lat="46.04907" lon="6.34587">
        <ele>655.2</ele>
        <time>2021-03-27T12:57:25Z</time>
      </trkpt>
      <trkpt lat="46.04907" lon="6.34578">
        <ele>655.2</ele>
        <time>2021-03-27T12:57:26Z</time>
      </trkpt>
      <trkpt lat="46.04907" lon="6.34569">
        <ele>655</ele>
        <time>2021-03-27T12:57:27Z</time>
      </trkpt>
      <trkpt lat="46.04907" lon="6.3456">
        <ele>655.2</ele>
        <time>2021-03-27T12:57:28Z</time>
      </trkpt>
      <trkpt lat="46.04907" lon="6.34552">
        <ele>655.2</ele>
        <time>2021-03-27T12:57:29Z</time>
      </trkpt>
      <trkpt lat="46.04906" lon="6.34544">
        <ele>655.2</ele>
        <time>2021-03-27T12:57:30Z</time>
      </trkpt>
      <trkpt lat="46.04906" lon="6.34536">
        <ele>655.4</ele>
        <time>2021-03-27T12:57:31Z</time>
      </trkpt>
      <trkpt lat="46.04905" lon="6.34527">
        <ele>655.4</ele>
        <time>2021-03-27T12:57:32Z</time>
      </trkpt>
      <trkpt lat="46.04904" lon="6.34519">
        <ele>655.4</ele>
        <time>2021-03-27T12:57:33Z</time>
      </trkpt>
      <trkpt lat="46.04903" lon="6.34511">
        <ele>655.4</ele>
        <time>2021-03-27T12:57:34Z</time>
      </trkpt>
      <trkpt lat="46.04902" lon="6.34503">
        <ele>656</ele>
        <time>2021-03-27T12:57:35Z</time>
      </trkpt>
      <trkpt lat="46.04901" lon="6.34495">
        <ele>656.4</ele>
        <time>2021-03-27T12:57:36Z</time>
      </trkpt>
      <trkpt lat="46.04899" lon="6.34479">
        <ele>657</ele>
        <time>2021-03-27T12:57:38Z</time>
      </trkpt>
      <trkpt lat="46.04898" lon="6.34471">
        <ele>657.2</ele>
        <time>2021-03-27T12:57:39Z</time>
      </trkpt>
      <trkpt lat="46.04897" lon="6.34463">
        <ele>657.4</ele>
        <time>2021-03-27T12:57:40Z</time>
      </trkpt>
      <trkpt lat="46.04896" lon="6.34455">
        <ele>657.6</ele>
        <time>2021-03-27T12:57:41Z</time>
      </trkpt>
      <trkpt lat="46.04894" lon="6.34439">
        <ele>657.8</ele>
        <time>2021-03-27T12:57:43Z</time>
      </trkpt>
      <trkpt lat="46.04893" lon="6.34431">
        <ele>657.8</ele>
        <time>2021-03-27T12:57:44Z</time>
      </trkpt>
      <trkpt lat="46.04892" lon="6.34422">
        <ele>657.8</ele>
        <time>2021-03-27T12:57:45Z</time>
      </trkpt>
      <trkpt lat="46.04891" lon="6.34414">
        <ele>657.8</ele>
        <time>2021-03-27T12:57:46Z</time>
      </trkpt>
      <trkpt lat="46.0489" lon="6.34406">
        <ele>658</ele>
        <time>2021-03-27T12:57:47Z</time>
      </trkpt>
      <trkpt lat="46.04889" lon="6.34398">
        <ele>658</ele>
        <time>2021-03-27T12:57:48Z</time>
      </trkpt>
      <trkpt lat="46.04887" lon="6.3439">
        <ele>658</ele>
        <time>2021-03-27T12:57:49Z</time>
      </trkpt>
      <trkpt lat="46.04886" lon="6.34382">
        <ele>658</ele>
        <time>2021-03-27T12:57:50Z</time>
      </trkpt>
      <trkpt lat="46.04884" lon="6.34374">
        <ele>658.2</ele>
        <time>2021-03-27T12:57:51Z</time>
      </trkpt>
      <trkpt lat="46.04883" lon="6.34366">
        <ele>658.2</ele>
        <time>2021-03-27T12:57:52Z</time>
      </trkpt>
      <trkpt lat="46.04881" lon="6.34359">
        <ele>658.2</ele>
        <time>2021-03-27T12:57:53Z</time>
      </trkpt>
      <trkpt lat="46.0488" lon="6.34351">
        <ele>658.4</ele>
        <time>2021-03-27T12:57:54Z</time>
      </trkpt>
      <trkpt lat="46.0488" lon="6.34343">
        <ele>658.6</ele>
        <time>2021-03-27T12:57:55Z</time>
      </trkpt>
      <trkpt lat="46.04879" lon="6.34335">
        <ele>658.6</ele>
        <time>2021-03-27T12:57:56Z</time>
      </trkpt>
      <trkpt lat="46.04878" lon="6.34327">
        <ele>658.8</ele>
        <time>2021-03-27T12:57:57Z</time>
      </trkpt>
      <trkpt lat="46.04877" lon="6.34319">
        <ele>658.8</ele>
        <time>2021-03-27T12:57:58Z</time>
      </trkpt>
      <trkpt lat="46.04876" lon="6.3431">
        <ele>659</ele>
        <time>2021-03-27T12:57:59Z</time>
      </trkpt>
      <trkpt lat="46.04875" lon="6.34301">
        <ele>659</ele>
        <time>2021-03-27T12:58:00Z</time>
      </trkpt>
      <trkpt lat="46.04875" lon="6.34291">
        <ele>659.2</ele>
        <time>2021-03-27T12:58:01Z</time>
      </trkpt>
      <trkpt lat="46.04875" lon="6.34282">
        <ele>659.4</ele>
        <time>2021-03-27T12:58:02Z</time>
      </trkpt>
      <trkpt lat="46.04875" lon="6.34271">
        <ele>659.4</ele>
        <time>2021-03-27T12:58:03Z</time>
      </trkpt>
      <trkpt lat="46.04876" lon="6.34261">
        <ele>659.4</ele>
        <time>2021-03-27T12:58:04Z</time>
      </trkpt>
      <trkpt lat="46.04877" lon="6.3425">
        <ele>659.4</ele>
        <time>2021-03-27T12:58:05Z</time>
      </trkpt>
      <trkpt lat="46.04878" lon="6.34239">
        <ele>659.6</ele>
        <time>2021-03-27T12:58:06Z</time>
      </trkpt>
      <trkpt lat="46.04879" lon="6.34229">
        <ele>659.4</ele>
        <time>2021-03-27T12:58:07Z</time>
      </trkpt>
      <trkpt lat="46.0488" lon="6.34218">
        <ele>659.6</ele>
        <time>2021-03-27T12:58:08Z</time>
      </trkpt>
      <trkpt lat="46.04881" lon="6.34207">
        <ele>659.6</ele>
        <time>2021-03-27T12:58:09Z</time>
      </trkpt>
      <trkpt lat="46.04882" lon="6.34197">
        <ele>659.4</ele>
        <time>2021-03-27T12:58:10Z</time>
      </trkpt>
      <trkpt lat="46.04883" lon="6.34186">
        <ele>659.2</ele>
        <time>2021-03-27T12:58:11Z</time>
      </trkpt>
      <trkpt lat="46.04885" lon="6.34175">
        <ele>658.2</ele>
        <time>2021-03-27T12:58:12Z</time>
      </trkpt>
      <trkpt lat="46.04886" lon="6.34164">
        <ele>657.6</ele>
        <time>2021-03-27T12:58:13Z</time>
      </trkpt>
      <trkpt lat="46.04887" lon="6.34153">
        <ele>657</ele>
        <time>2021-03-27T12:58:14Z</time>
      </trkpt>
      <trkpt lat="46.04889" lon="6.34142">
        <ele>656.8</ele>
        <time>2021-03-27T12:58:15Z</time>
      </trkpt>
      <trkpt lat="46.0489" lon="6.34131">
        <ele>656.6</ele>
        <time>2021-03-27T12:58:16Z</time>
      </trkpt>
      <trkpt lat="46.04893" lon="6.34119">
        <ele>656.2</ele>
        <time>2021-03-27T12:58:17Z</time>
      </trkpt>
      <trkpt lat="46.04895" lon="6.34108">
        <ele>656.4</ele>
        <time>2021-03-27T12:58:18Z</time>
      </trkpt>
      <trkpt lat="46.04898" lon="6.34096">
        <ele>656.2</ele>
        <time>2021-03-27T12:58:19Z</time>
      </trkpt>
      <trkpt lat="46.04901" lon="6.34084">
        <ele>656.2</ele>
        <time>2021-03-27T12:58:20Z</time>
      </trkpt>
      <trkpt lat="46.04904" lon="6.34071">
        <ele>655.8</ele>
        <time>2021-03-27T12:58:21Z</time>
      </trkpt>
      <trkpt lat="46.04907" lon="6.34059">
        <ele>655.2</ele>
        <time>2021-03-27T12:58:22Z</time>
      </trkpt>
      <trkpt lat="46.0491" lon="6.34046">
        <ele>654.8</ele>
        <time>2021-03-27T12:58:23Z</time>
      </trkpt>
      <trkpt lat="46.04913" lon="6.34033">
        <ele>654</ele>
        <time>2021-03-27T12:58:24Z</time>
      </trkpt>
      <trkpt lat="46.04916" lon="6.3402">
        <ele>652.8</ele>
        <time>2021-03-27T12:58:25Z</time>
      </trkpt>
      <trkpt lat="46.04918" lon="6.34007">
        <ele>651.8</ele>
        <time>2021-03-27T12:58:26Z</time>
      </trkpt>
      <trkpt lat="46.0492" lon="6.33994">
        <ele>651.4</ele>
        <time>2021-03-27T12:58:27Z</time>
      </trkpt>
      <trkpt lat="46.04922" lon="6.33981">
        <ele>650.6</ele>
        <time>2021-03-27T12:58:28Z</time>
      </trkpt>
      <trkpt lat="46.04924" lon="6.33969">
        <ele>649.4</ele>
        <time>2021-03-27T12:58:29Z</time>
      </trkpt>
      <trkpt lat="46.04926" lon="6.33956">
        <ele>648</ele>
        <time>2021-03-27T12:58:30Z</time>
      </trkpt>
      <trkpt lat="46.04928" lon="6.33943">
        <ele>647.4</ele>
        <time>2021-03-27T12:58:31Z</time>
      </trkpt>
      <trkpt lat="46.0493" lon="6.33931">
        <ele>646.8</ele>
        <time>2021-03-27T12:58:32Z</time>
      </trkpt>
      <trkpt lat="46.04931" lon="6.33918">
        <ele>645.8</ele>
        <time>2021-03-27T12:58:33Z</time>
      </trkpt>
      <trkpt lat="46.04932" lon="6.33905">
        <ele>644.6</ele>
        <time>2021-03-27T12:58:34Z</time>
      </trkpt>
      <trkpt lat="46.04933" lon="6.33893">
        <ele>644</ele>
        <time>2021-03-27T12:58:35Z</time>
      </trkpt>
      <trkpt lat="46.04933" lon="6.3388">
        <ele>643.4</ele>
        <time>2021-03-27T12:58:36Z</time>
      </trkpt>
      <trkpt lat="46.04934" lon="6.33868">
        <ele>643.4</ele>
        <time>2021-03-27T12:58:37Z</time>
      </trkpt>
      <trkpt lat="46.04934" lon="6.33855">
        <ele>643.2</ele>
        <time>2021-03-27T12:58:38Z</time>
      </trkpt>
      <trkpt lat="46.04934" lon="6.33843">
        <ele>643</ele>
        <time>2021-03-27T12:58:39Z</time>
      </trkpt>
      <trkpt lat="46.04934" lon="6.3383">
        <ele>642.6</ele>
        <time>2021-03-27T12:58:40Z</time>
      </trkpt>
      <trkpt lat="46.04934" lon="6.33818">
        <ele>642.4</ele>
        <time>2021-03-27T12:58:41Z</time>
      </trkpt>
      <trkpt lat="46.04934" lon="6.33805">
        <ele>642</ele>
        <time>2021-03-27T12:58:42Z</time>
      </trkpt>
      <trkpt lat="46.04935" lon="6.33792">
        <ele>641.8</ele>
        <time>2021-03-27T12:58:43Z</time>
      </trkpt>
      <trkpt lat="46.04935" lon="6.33779">
        <ele>641.6</ele>
        <time>2021-03-27T12:58:44Z</time>
      </trkpt>
      <trkpt lat="46.04935" lon="6.33767">
        <ele>641.4</ele>
        <time>2021-03-27T12:58:45Z</time>
      </trkpt>
      <trkpt lat="46.04936" lon="6.33754">
        <ele>641.2</ele>
        <time>2021-03-27T12:58:46Z</time>
      </trkpt>
      <trkpt lat="46.04936" lon="6.33742">
        <ele>641</ele>
        <time>2021-03-27T12:58:47Z</time>
      </trkpt>
      <trkpt lat="46.04937" lon="6.33729">
        <ele>640.6</ele>
        <time>2021-03-27T12:58:48Z</time>
      </trkpt>
      <trkpt lat="46.04938" lon="6.33717">
        <ele>640.4</ele>
        <time>2021-03-27T12:58:49Z</time>
      </trkpt>
      <trkpt lat="46.04938" lon="6.33705">
        <ele>640.4</ele>
        <time>2021-03-27T12:58:50Z</time>
      </trkpt>
      <trkpt lat="46.04939" lon="6.33693">
        <ele>640.2</ele>
        <time>2021-03-27T12:58:51Z</time>
      </trkpt>
      <trkpt lat="46.04939" lon="6.33681">
        <ele>640</ele>
        <time>2021-03-27T12:58:52Z</time>
      </trkpt>
      <trkpt lat="46.0494" lon="6.33669">
        <ele>639.6</ele>
        <time>2021-03-27T12:58:53Z</time>
      </trkpt>
      <trkpt lat="46.04941" lon="6.33657">
        <ele>639.6</ele>
        <time>2021-03-27T12:58:54Z</time>
      </trkpt>
      <trkpt lat="46.04942" lon="6.33645">
        <ele>639.4</ele>
        <time>2021-03-27T12:58:55Z</time>
      </trkpt>
      <trkpt lat="46.04942" lon="6.33634">
        <ele>638.6</ele>
        <time>2021-03-27T12:58:56Z</time>
      </trkpt>
      <trkpt lat="46.04943" lon="6.33623">
        <ele>637.8</ele>
        <time>2021-03-27T12:58:57Z</time>
      </trkpt>
      <trkpt lat="46.04944" lon="6.33612">
        <ele>637.6</ele>
        <time>2021-03-27T12:58:58Z</time>
      </trkpt>
      <trkpt lat="46.04945" lon="6.33601">
        <ele>637.4</ele>
        <time>2021-03-27T12:58:59Z</time>
      </trkpt>
      <trkpt lat="46.04947" lon="6.33591">
        <ele>637.2</ele>
        <time>2021-03-27T12:59:00Z</time>
      </trkpt>
      <trkpt lat="46.04949" lon="6.3358">
        <ele>637</ele>
        <time>2021-03-27T12:59:01Z</time>
      </trkpt>
      <trkpt lat="46.0495" lon="6.33571">
        <ele>637.2</ele>
        <time>2021-03-27T12:59:02Z</time>
      </trkpt>
      <trkpt lat="46.04951" lon="6.33561">
        <ele>637</ele>
        <time>2021-03-27T12:59:03Z</time>
      </trkpt>
      <trkpt lat="46.04953" lon="6.33551">
        <ele>636.8</ele>
        <time>2021-03-27T12:59:04Z</time>
      </trkpt>
      <trkpt lat="46.04955" lon="6.33542">
        <ele>636.8</ele>
        <time>2021-03-27T12:59:05Z</time>
      </trkpt>
      <trkpt lat="46.04958" lon="6.33532">
        <ele>636.6</ele>
        <time>2021-03-27T12:59:06Z</time>
      </trkpt>
      <trkpt lat="46.04961" lon="6.33522">
        <ele>636.6</ele>
        <time>2021-03-27T12:59:07Z</time>
      </trkpt>
      <trkpt lat="46.04966" lon="6.33512">
        <ele>636.4</ele>
        <time>2021-03-27T12:59:08Z</time>
      </trkpt>
      <trkpt lat="46.0497" lon="6.33504">
        <ele>636.4</ele>
        <time>2021-03-27T12:59:09Z</time>
      </trkpt>
      <trkpt lat="46.04976" lon="6.33496">
        <ele>636.4</ele>
        <time>2021-03-27T12:59:10Z</time>
      </trkpt>
      <trkpt lat="46.04981" lon="6.33488">
        <ele>636.2</ele>
        <time>2021-03-27T12:59:11Z</time>
      </trkpt>
      <trkpt lat="46.04988" lon="6.33481">
        <ele>636</ele>
        <time>2021-03-27T12:59:12Z</time>
      </trkpt>
      <trkpt lat="46.04994" lon="6.33474">
        <ele>636</ele>
        <time>2021-03-27T12:59:13Z</time>
      </trkpt>
      <trkpt lat="46.05001" lon="6.33467">
        <ele>635.8</ele>
        <time>2021-03-27T12:59:14Z</time>
      </trkpt>
      <trkpt lat="46.05007" lon="6.33459">
        <ele>635.8</ele>
        <time>2021-03-27T12:59:15Z</time>
      </trkpt>
      <trkpt lat="46.05014" lon="6.33452">
        <ele>635.6</ele>
        <time>2021-03-27T12:59:16Z</time>
      </trkpt>
      <trkpt lat="46.05021" lon="6.33444">
        <ele>635.8</ele>
        <time>2021-03-27T12:59:17Z</time>
      </trkpt>
      <trkpt lat="46.05028" lon="6.33436">
        <ele>635.6</ele>
        <time>2021-03-27T12:59:18Z</time>
      </trkpt>
      <trkpt lat="46.05035" lon="6.33428">
        <ele>635.6</ele>
        <time>2021-03-27T12:59:19Z</time>
      </trkpt>
      <trkpt lat="46.05041" lon="6.33421">
        <ele>635.2</ele>
        <time>2021-03-27T12:59:20Z</time>
      </trkpt>
      <trkpt lat="46.05048" lon="6.33413">
        <ele>635</ele>
        <time>2021-03-27T12:59:21Z</time>
      </trkpt>
      <trkpt lat="46.05054" lon="6.33406">
        <ele>634.8</ele>
        <time>2021-03-27T12:59:22Z</time>
      </trkpt>
      <trkpt lat="46.05061" lon="6.33399">
        <ele>634.4</ele>
        <time>2021-03-27T12:59:23Z</time>
      </trkpt>
      <trkpt lat="46.05067" lon="6.33391">
        <ele>634.2</ele>
        <time>2021-03-27T12:59:24Z</time>
      </trkpt>
      <trkpt lat="46.05073" lon="6.33384">
        <ele>633.8</ele>
        <time>2021-03-27T12:59:25Z</time>
      </trkpt>
      <trkpt lat="46.05079" lon="6.33376">
        <ele>633.6</ele>
        <time>2021-03-27T12:59:26Z</time>
      </trkpt>
      <trkpt lat="46.05086" lon="6.33369">
        <ele>633</ele>
        <time>2021-03-27T12:59:27Z</time>
      </trkpt>
      <trkpt lat="46.05092" lon="6.33361">
        <ele>632.8</ele>
        <time>2021-03-27T12:59:28Z</time>
      </trkpt>
      <trkpt lat="46.05098" lon="6.33354">
        <ele>632.6</ele>
        <time>2021-03-27T12:59:29Z</time>
      </trkpt>
      <trkpt lat="46.05103" lon="6.33345">
        <ele>632.4</ele>
        <time>2021-03-27T12:59:30Z</time>
      </trkpt>
      <trkpt lat="46.05108" lon="6.33337">
        <ele>632.2</ele>
        <time>2021-03-27T12:59:31Z</time>
      </trkpt>
      <trkpt lat="46.05112" lon="6.33328">
        <ele>632.4</ele>
        <time>2021-03-27T12:59:32Z</time>
      </trkpt>
      <trkpt lat="46.05116" lon="6.33319">
        <ele>632.2</ele>
        <time>2021-03-27T12:59:33Z</time>
      </trkpt>
      <trkpt lat="46.0512" lon="6.33309">
        <ele>632.2</ele>
        <time>2021-03-27T12:59:34Z</time>
      </trkpt>
      <trkpt lat="46.05123" lon="6.333">
        <ele>632</ele>
        <time>2021-03-27T12:59:35Z</time>
      </trkpt>
      <trkpt lat="46.05126" lon="6.3329">
        <ele>632</ele>
        <time>2021-03-27T12:59:36Z</time>
      </trkpt>
      <trkpt lat="46.0513" lon="6.33281">
        <ele>632.2</ele>
        <time>2021-03-27T12:59:37Z</time>
      </trkpt>
      <trkpt lat="46.05133" lon="6.33271">
        <ele>632</ele>
        <time>2021-03-27T12:59:38Z</time>
      </trkpt>
      <trkpt lat="46.05136" lon="6.33262">
        <ele>632</ele>
        <time>2021-03-27T12:59:39Z</time>
      </trkpt>
      <trkpt lat="46.05139" lon="6.33252">
        <ele>631.8</ele>
        <time>2021-03-27T12:59:40Z</time>
      </trkpt>
      <trkpt lat="46.05142" lon="6.33242">
        <ele>631.8</ele>
        <time>2021-03-27T12:59:41Z</time>
      </trkpt>
      <trkpt lat="46.05146" lon="6.33232">
        <ele>631.6</ele>
        <time>2021-03-27T12:59:42Z</time>
      </trkpt>
      <trkpt lat="46.05149" lon="6.33223">
        <ele>631.6</ele>
        <time>2021-03-27T12:59:43Z</time>
      </trkpt>
      <trkpt lat="46.05152" lon="6.33213">
        <ele>631.6</ele>
        <time>2021-03-27T12:59:44Z</time>
      </trkpt>
      <trkpt lat="46.05155" lon="6.33202">
        <ele>631.6</ele>
        <time>2021-03-27T12:59:45Z</time>
      </trkpt>
      <trkpt lat="46.05159" lon="6.33192">
        <ele>631.4</ele>
        <time>2021-03-27T12:59:46Z</time>
      </trkpt>
      <trkpt lat="46.05162" lon="6.33182">
        <ele>631.4</ele>
        <time>2021-03-27T12:59:47Z</time>
      </trkpt>
      <trkpt lat="46.05165" lon="6.33172">
        <ele>631.4</ele>
        <time>2021-03-27T12:59:48Z</time>
      </trkpt>
      <trkpt lat="46.05169" lon="6.33162">
        <ele>631.2</ele>
        <time>2021-03-27T12:59:49Z</time>
      </trkpt>
      <trkpt lat="46.05172" lon="6.33152">
        <ele>631.2</ele>
        <time>2021-03-27T12:59:50Z</time>
      </trkpt>
      <trkpt lat="46.05175" lon="6.33142">
        <ele>631</ele>
        <time>2021-03-27T12:59:51Z</time>
      </trkpt>
      <trkpt lat="46.05178" lon="6.33132">
        <ele>631</ele>
        <time>2021-03-27T12:59:52Z</time>
      </trkpt>
      <trkpt lat="46.05181" lon="6.33122">
        <ele>631</ele>
        <time>2021-03-27T12:59:53Z</time>
      </trkpt>
      <trkpt lat="46.05185" lon="6.33113">
        <ele>630.8</ele>
        <time>2021-03-27T12:59:54Z</time>
      </trkpt>
      <trkpt lat="46.05188" lon="6.33103">
        <ele>631</ele>
        <time>2021-03-27T12:59:55Z</time>
      </trkpt>
      <trkpt lat="46.05191" lon="6.33093">
        <ele>630.6</ele>
        <time>2021-03-27T12:59:56Z</time>
      </trkpt>
      <trkpt lat="46.05194" lon="6.33083">
        <ele>630.4</ele>
        <time>2021-03-27T12:59:57Z</time>
      </trkpt>
      <trkpt lat="46.05198" lon="6.33073">
        <ele>630.4</ele>
        <time>2021-03-27T12:59:58Z</time>
      </trkpt>
      <trkpt lat="46.05202" lon="6.33062">
        <ele>630.2</ele>
        <time>2021-03-27T12:59:59Z</time>
      </trkpt>
      <trkpt lat="46.05206" lon="6.33052">
        <ele>630</ele>
        <time>2021-03-27T13:00:00Z</time>
      </trkpt>
      <trkpt lat="46.05211" lon="6.33042">
        <ele>629.6</ele>
        <time>2021-03-27T13:00:01Z</time>
      </trkpt>
      <trkpt lat="46.05216" lon="6.33033">
        <ele>629.2</ele>
        <time>2021-03-27T13:00:02Z</time>
      </trkpt>
      <trkpt lat="46.05222" lon="6.33024">
        <ele>629</ele>
        <time>2021-03-27T13:00:03Z</time>
      </trkpt>
      <trkpt lat="46.05229" lon="6.33016">
        <ele>628.6</ele>
        <time>2021-03-27T13:00:04Z</time>
      </trkpt>
      <trkpt lat="46.05235" lon="6.33009">
        <ele>628.6</ele>
        <time>2021-03-27T13:00:05Z</time>
      </trkpt>
      <trkpt lat="46.05242" lon="6.33003">
        <ele>628</ele>
        <time>2021-03-27T13:00:06Z</time>
      </trkpt>
      <trkpt lat="46.0525" lon="6.32997">
        <ele>627.6</ele>
        <time>2021-03-27T13:00:07Z</time>
      </trkpt>
      <trkpt lat="46.05258" lon="6.32992">
        <ele>626.8</ele>
        <time>2021-03-27T13:00:08Z</time>
      </trkpt>
      <trkpt lat="46.05264" lon="6.32987">
        <ele>626.2</ele>
        <time>2021-03-27T13:00:09Z</time>
      </trkpt>
      <trkpt lat="46.05271" lon="6.32982">
        <ele>625.4</ele>
        <time>2021-03-27T13:00:10Z</time>
      </trkpt>
      <trkpt lat="46.05278" lon="6.32978">
        <ele>625.2</ele>
        <time>2021-03-27T13:00:11Z</time>
      </trkpt>
      <trkpt lat="46.05284" lon="6.32973">
        <ele>624.8</ele>
        <time>2021-03-27T13:00:12Z</time>
      </trkpt>
      <trkpt lat="46.0529" lon="6.32969">
        <ele>624.8</ele>
        <time>2021-03-27T13:00:13Z</time>
      </trkpt>
      <trkpt lat="46.05296" lon="6.32964">
        <ele>624.8</ele>
        <time>2021-03-27T13:00:14Z</time>
      </trkpt>
      <trkpt lat="46.05302" lon="6.32959">
        <ele>624.4</ele>
        <time>2021-03-27T13:00:15Z</time>
      </trkpt>
      <trkpt lat="46.05308" lon="6.32954">
        <ele>624.4</ele>
        <time>2021-03-27T13:00:16Z</time>
      </trkpt>
      <trkpt lat="46.05312" lon="6.32947">
        <ele>624.2</ele>
        <time>2021-03-27T13:00:17Z</time>
      </trkpt>
      <trkpt lat="46.05316" lon="6.32941">
        <ele>624</ele>
        <time>2021-03-27T13:00:18Z</time>
      </trkpt>
      <trkpt lat="46.05319" lon="6.32935">
        <ele>624.2</ele>
        <time>2021-03-27T13:00:19Z</time>
      </trkpt>
      <trkpt lat="46.0532" lon="6.32929">
        <ele>624</ele>
        <time>2021-03-27T13:00:20Z</time>
      </trkpt>
      <trkpt lat="46.05321" lon="6.32923">
        <ele>624</ele>
        <time>2021-03-27T13:00:21Z</time>
      </trkpt>
      <trkpt lat="46.0532" lon="6.32917">
        <ele>623.6</ele>
        <time>2021-03-27T13:00:22Z</time>
      </trkpt>
      <trkpt lat="46.05317" lon="6.32913">
        <ele>623.2</ele>
        <time>2021-03-27T13:00:23Z</time>
      </trkpt>
      <trkpt lat="46.05313" lon="6.3291">
        <ele>623</ele>
        <time>2021-03-27T13:00:24Z</time>
      </trkpt>
      <trkpt lat="46.05308" lon="6.32907">
        <ele>622.4</ele>
        <time>2021-03-27T13:00:25Z</time>
      </trkpt>
      <trkpt lat="46.05302" lon="6.32903">
        <ele>621.8</ele>
        <time>2021-03-27T13:00:26Z</time>
      </trkpt>
      <trkpt lat="46.05297" lon="6.32897">
        <ele>621.4</ele>
        <time>2021-03-27T13:00:27Z</time>
      </trkpt>
      <trkpt lat="46.05291" lon="6.32891">
        <ele>621</ele>
        <time>2021-03-27T13:00:28Z</time>
      </trkpt>
      <trkpt lat="46.05286" lon="6.32884">
        <ele>621</ele>
        <time>2021-03-27T13:00:29Z</time>
      </trkpt>
      <trkpt lat="46.0528" lon="6.32877">
        <ele>621</ele>
        <time>2021-03-27T13:00:30Z</time>
      </trkpt>
      <trkpt lat="46.05274" lon="6.32869">
        <ele>620.6</ele>
        <time>2021-03-27T13:00:31Z</time>
      </trkpt>
      <trkpt lat="46.05268" lon="6.32862">
        <ele>620.4</ele>
        <time>2021-03-27T13:00:32Z</time>
      </trkpt>
      <trkpt lat="46.05262" lon="6.32855">
        <ele>620</ele>
        <time>2021-03-27T13:00:33Z</time>
      </trkpt>
      <trkpt lat="46.05256" lon="6.32848">
        <ele>619.4</ele>
        <time>2021-03-27T13:00:34Z</time>
      </trkpt>
      <trkpt lat="46.0525" lon="6.3284">
        <ele>618.8</ele>
        <time>2021-03-27T13:00:35Z</time>
      </trkpt>
      <trkpt lat="46.05244" lon="6.32832">
        <ele>618.4</ele>
        <time>2021-03-27T13:00:36Z</time>
      </trkpt>
      <trkpt lat="46.05239" lon="6.32825">
        <ele>617.8</ele>
        <time>2021-03-27T13:00:37Z</time>
      </trkpt>
      <trkpt lat="46.05233" lon="6.32817">
        <ele>617.2</ele>
        <time>2021-03-27T13:00:38Z</time>
      </trkpt>
      <trkpt lat="46.05228" lon="6.3281">
        <ele>616.8</ele>
        <time>2021-03-27T13:00:39Z</time>
      </trkpt>
      <trkpt lat="46.05222" lon="6.32802">
        <ele>616.8</ele>
        <time>2021-03-27T13:00:40Z</time>
      </trkpt>
      <trkpt lat="46.05217" lon="6.32795">
        <ele>616.6</ele>
        <time>2021-03-27T13:00:41Z</time>
      </trkpt>
      <trkpt lat="46.05212" lon="6.32788">
        <ele>616.6</ele>
        <time>2021-03-27T13:00:42Z</time>
      </trkpt>
      <trkpt lat="46.05208" lon="6.3278">
        <ele>616.2</ele>
        <time>2021-03-27T13:00:43Z</time>
      </trkpt>
      <trkpt lat="46.05205" lon="6.3277">
        <ele>616.2</ele>
        <time>2021-03-27T13:00:44Z</time>
      </trkpt>
      <trkpt lat="46.05204" lon="6.32761">
        <ele>616.2</ele>
        <time>2021-03-27T13:00:45Z</time>
      </trkpt>
      <trkpt lat="46.05203" lon="6.32751">
        <ele>616</ele>
        <time>2021-03-27T13:00:46Z</time>
      </trkpt>
      <trkpt lat="46.05201" lon="6.32742">
        <ele>616</ele>
        <time>2021-03-27T13:00:47Z</time>
      </trkpt>
      <trkpt lat="46.05198" lon="6.32733">
        <ele>616</ele>
        <time>2021-03-27T13:00:48Z</time>
      </trkpt>
      <trkpt lat="46.05195" lon="6.32724">
        <ele>616</ele>
        <time>2021-03-27T13:00:49Z</time>
      </trkpt>
      <trkpt lat="46.05192" lon="6.32716">
        <ele>616</ele>
        <time>2021-03-27T13:00:50Z</time>
      </trkpt>
      <trkpt lat="46.05189" lon="6.32708">
        <ele>616</ele>
        <time>2021-03-27T13:00:51Z</time>
      </trkpt>
      <trkpt lat="46.05187" lon="6.32699">
        <ele>616</ele>
        <time>2021-03-27T13:00:52Z</time>
      </trkpt>
      <trkpt lat="46.05186" lon="6.3269">
        <ele>616.4</ele>
        <time>2021-03-27T13:00:53Z</time>
      </trkpt>
      <trkpt lat="46.05186" lon="6.32681">
        <ele>616.4</ele>
        <time>2021-03-27T13:00:54Z</time>
      </trkpt>
      <trkpt lat="46.05185" lon="6.32672">
        <ele>616.6</ele>
        <time>2021-03-27T13:00:55Z</time>
      </trkpt>
      <trkpt lat="46.05186" lon="6.32663">
        <ele>616.8</ele>
        <time>2021-03-27T13:00:56Z</time>
      </trkpt>
      <trkpt lat="46.05186" lon="6.32654">
        <ele>616.8</ele>
        <time>2021-03-27T13:00:57Z</time>
      </trkpt>
      <trkpt lat="46.05187" lon="6.32645">
        <ele>616.8</ele>
        <time>2021-03-27T13:00:58Z</time>
      </trkpt>
      <trkpt lat="46.05188" lon="6.32636">
        <ele>616.8</ele>
        <time>2021-03-27T13:00:59Z</time>
      </trkpt>
      <trkpt lat="46.0519" lon="6.32627">
        <ele>616.8</ele>
        <time>2021-03-27T13:01:00Z</time>
      </trkpt>
      <trkpt lat="46.05192" lon="6.32619">
        <ele>616.8</ele>
        <time>2021-03-27T13:01:01Z</time>
      </trkpt>
      <trkpt lat="46.05194" lon="6.3261">
        <ele>617</ele>
        <time>2021-03-27T13:01:02Z</time>
      </trkpt>
      <trkpt lat="46.05196" lon="6.32601">
        <ele>617</ele>
        <time>2021-03-27T13:01:03Z</time>
      </trkpt>
      <trkpt lat="46.05197" lon="6.32593">
        <ele>617.2</ele>
        <time>2021-03-27T13:01:04Z</time>
      </trkpt>
      <trkpt lat="46.05201" lon="6.32575">
        <ele>617.2</ele>
        <time>2021-03-27T13:01:06Z</time>
      </trkpt>
      <trkpt lat="46.05205" lon="6.32557">
        <ele>617.4</ele>
        <time>2021-03-27T13:01:08Z</time>
      </trkpt>
      <trkpt lat="46.05207" lon="6.32548">
        <ele>617.4</ele>
        <time>2021-03-27T13:01:09Z</time>
      </trkpt>
      <trkpt lat="46.05209" lon="6.32539">
        <ele>617.4</ele>
        <time>2021-03-27T13:01:10Z</time>
      </trkpt>
      <trkpt lat="46.05212" lon="6.3252">
        <ele>617.6</ele>
        <time>2021-03-27T13:01:12Z</time>
      </trkpt>
      <trkpt lat="46.05214" lon="6.32511">
        <ele>617.6</ele>
        <time>2021-03-27T13:01:13Z</time>
      </trkpt>
      <trkpt lat="46.05216" lon="6.32502">
        <ele>617.8</ele>
        <time>2021-03-27T13:01:14Z</time>
      </trkpt>
      <trkpt lat="46.0522" lon="6.32483">
        <ele>618</ele>
        <time>2021-03-27T13:01:16Z</time>
      </trkpt>
      <trkpt lat="46.05223" lon="6.32474">
        <ele>618</ele>
        <time>2021-03-27T13:01:17Z</time>
      </trkpt>
      <trkpt lat="46.05227" lon="6.32455">
        <ele>618</ele>
        <time>2021-03-27T13:01:19Z</time>
      </trkpt>
      <trkpt lat="46.05229" lon="6.32446">
        <ele>618</ele>
        <time>2021-03-27T13:01:20Z</time>
      </trkpt>
      <trkpt lat="46.05231" lon="6.32436">
        <ele>618</ele>
        <time>2021-03-27T13:01:21Z</time>
      </trkpt>
      <trkpt lat="46.05235" lon="6.32418">
        <ele>618</ele>
        <time>2021-03-27T13:01:23Z</time>
      </trkpt>
      <trkpt lat="46.05236" lon="6.32408">
        <ele>618</ele>
        <time>2021-03-27T13:01:24Z</time>
      </trkpt>
      <trkpt lat="46.05237" lon="6.32399">
        <ele>618</ele>
        <time>2021-03-27T13:01:25Z</time>
      </trkpt>
      <trkpt lat="46.05237" lon="6.3239">
        <ele>618</ele>
        <time>2021-03-27T13:01:26Z</time>
      </trkpt>
      <trkpt lat="46.05236" lon="6.3238">
        <ele>618</ele>
        <time>2021-03-27T13:01:27Z</time>
      </trkpt>
      <trkpt lat="46.05234" lon="6.32372">
        <ele>618.2</ele>
        <time>2021-03-27T13:01:28Z</time>
      </trkpt>
      <trkpt lat="46.05227" lon="6.32361">
        <ele>618</ele>
        <time>2021-03-27T13:01:30Z</time>
      </trkpt>
      <trkpt lat="46.05223" lon="6.32357">
        <ele>618.2</ele>
        <time>2021-03-27T13:01:31Z</time>
      </trkpt>
      <trkpt lat="46.0522" lon="6.32355">
        <ele>618</ele>
        <time>2021-03-27T13:01:32Z</time>
      </trkpt>
      <trkpt lat="46.05216" lon="6.32353">
        <ele>618.2</ele>
        <time>2021-03-27T13:01:33Z</time>
      </trkpt>
      <trkpt lat="46.05212" lon="6.32351">
        <ele>618.2</ele>
        <time>2021-03-27T13:01:34Z</time>
      </trkpt>
      <trkpt lat="46.05208" lon="6.32349">
        <ele>618.2</ele>
        <time>2021-03-27T13:01:35Z</time>
      </trkpt>
      <trkpt lat="46.05205" lon="6.32348">
        <ele>618.2</ele>
        <time>2021-03-27T13:01:36Z</time>
      </trkpt>
      <trkpt lat="46.05201" lon="6.32346">
        <ele>618.6</ele>
        <time>2021-03-27T13:01:37Z</time>
      </trkpt>
      <trkpt lat="46.05197" lon="6.32344">
        <ele>618.6</ele>
        <time>2021-03-27T13:01:38Z</time>
      </trkpt>
      <trkpt lat="46.05194" lon="6.32343">
        <ele>618.8</ele>
        <time>2021-03-27T13:01:39Z</time>
      </trkpt>
      <trkpt lat="46.0519" lon="6.32342">
        <ele>619</ele>
        <time>2021-03-27T13:01:40Z</time>
      </trkpt>
      <trkpt lat="46.05183" lon="6.32339">
        <ele>619.6</ele>
        <time>2021-03-27T13:01:42Z</time>
      </trkpt>
      <trkpt lat="46.0518" lon="6.32338">
        <ele>620.4</ele>
        <time>2021-03-27T13:01:43Z</time>
      </trkpt>
      <trkpt lat="46.05177" lon="6.32336">
        <ele>620.8</ele>
        <time>2021-03-27T13:01:44Z</time>
      </trkpt>
      <trkpt lat="46.05174" lon="6.32335">
        <ele>621</ele>
        <time>2021-03-27T13:01:45Z</time>
      </trkpt>
      <trkpt lat="46.0517" lon="6.32334">
        <ele>621.4</ele>
        <time>2021-03-27T13:01:46Z</time>
      </trkpt>
      <trkpt lat="46.05167" lon="6.32333">
        <ele>622</ele>
        <time>2021-03-27T13:01:47Z</time>
      </trkpt>
      <trkpt lat="46.05164" lon="6.32332">
        <ele>622</ele>
        <time>2021-03-27T13:01:48Z</time>
      </trkpt>
      <trkpt lat="46.05161" lon="6.3233">
        <ele>622.4</ele>
        <time>2021-03-27T13:01:49Z</time>
      </trkpt>
      <trkpt lat="46.05158" lon="6.32329">
        <ele>622.8</ele>
        <time>2021-03-27T13:01:50Z</time>
      </trkpt>
      <trkpt lat="46.05155" lon="6.32327">
        <ele>623.2</ele>
        <time>2021-03-27T13:01:51Z</time>
      </trkpt>
      <trkpt lat="46.05152" lon="6.32326">
        <ele>623.6</ele>
        <time>2021-03-27T13:01:52Z</time>
      </trkpt>
      <trkpt lat="46.05149" lon="6.32324">
        <ele>623.6</ele>
        <time>2021-03-27T13:01:53Z</time>
      </trkpt>
      <trkpt lat="46.05146" lon="6.32323">
        <ele>624</ele>
        <time>2021-03-27T13:01:54Z</time>
      </trkpt>
      <trkpt lat="46.05144" lon="6.32321">
        <ele>624.2</ele>
        <time>2021-03-27T13:01:55Z</time>
      </trkpt>
      <trkpt lat="46.05141" lon="6.3232">
        <ele>624.6</ele>
        <time>2021-03-27T13:01:56Z</time>
      </trkpt>
      <trkpt lat="46.05139" lon="6.32318">
        <ele>624.8</ele>
        <time>2021-03-27T13:01:57Z</time>
      </trkpt>
      <trkpt lat="46.05137" lon="6.32317">
        <ele>625.4</ele>
        <time>2021-03-27T13:01:58Z</time>
      </trkpt>
      <trkpt lat="46.05134" lon="6.32315">
        <ele>625.6</ele>
        <time>2021-03-27T13:01:59Z</time>
      </trkpt>
      <trkpt lat="46.05132" lon="6.32314">
        <ele>626</ele>
        <time>2021-03-27T13:02:00Z</time>
      </trkpt>
      <trkpt lat="46.0513" lon="6.32312">
        <ele>626.4</ele>
        <time>2021-03-27T13:02:01Z</time>
      </trkpt>
      <trkpt lat="46.05128" lon="6.3231">
        <ele>626.6</ele>
        <time>2021-03-27T13:02:02Z</time>
      </trkpt>
      <trkpt lat="46.05126" lon="6.32309">
        <ele>627</ele>
        <time>2021-03-27T13:02:03Z</time>
      </trkpt>
      <trkpt lat="46.05123" lon="6.32307">
        <ele>627.2</ele>
        <time>2021-03-27T13:02:04Z</time>
      </trkpt>
      <trkpt lat="46.0512" lon="6.32306">
        <ele>627.6</ele>
        <time>2021-03-27T13:02:05Z</time>
      </trkpt>
      <trkpt lat="46.05117" lon="6.32304">
        <ele>627.8</ele>
        <time>2021-03-27T13:02:06Z</time>
      </trkpt>
      <trkpt lat="46.05115" lon="6.32302">
        <ele>628.2</ele>
        <time>2021-03-27T13:02:07Z</time>
      </trkpt>
      <trkpt lat="46.05113" lon="6.32301">
        <ele>628.8</ele>
        <time>2021-03-27T13:02:08Z</time>
      </trkpt>
      <trkpt lat="46.05107" lon="6.32298">
        <ele>629</ele>
        <time>2021-03-27T13:02:10Z</time>
      </trkpt>
      <trkpt lat="46.05104" lon="6.32297">
        <ele>629.2</ele>
        <time>2021-03-27T13:02:11Z</time>
      </trkpt>
      <trkpt lat="46.05101" lon="6.32295">
        <ele>629.6</ele>
        <time>2021-03-27T13:02:12Z</time>
      </trkpt>
      <trkpt lat="46.05098" lon="6.32294">
        <ele>630</ele>
        <time>2021-03-27T13:02:13Z</time>
      </trkpt>
      <trkpt lat="46.05095" lon="6.32293">
        <ele>630.4</ele>
        <time>2021-03-27T13:02:14Z</time>
      </trkpt>
      <trkpt lat="46.05093" lon="6.32294">
        <ele>630.8</ele>
        <time>2021-03-27T13:02:15Z</time>
      </trkpt>
      <trkpt lat="46.0509" lon="6.32293">
        <ele>630.8</ele>
        <time>2021-03-27T13:02:16Z</time>
      </trkpt>
      <trkpt lat="46.05088" lon="6.32293">
        <ele>631.2</ele>
        <time>2021-03-27T13:02:17Z</time>
      </trkpt>
      <trkpt lat="46.05083" lon="6.32291">
        <ele>632</ele>
        <time>2021-03-27T13:02:19Z</time>
      </trkpt>
      <trkpt lat="46.0508" lon="6.32291">
        <ele>632.4</ele>
        <time>2021-03-27T13:02:20Z</time>
      </trkpt>
      <trkpt lat="46.05077" lon="6.3229">
        <ele>632.6</ele>
        <time>2021-03-27T13:02:21Z</time>
      </trkpt>
      <trkpt lat="46.05075" lon="6.3229">
        <ele>632.6</ele>
        <time>2021-03-27T13:02:22Z</time>
      </trkpt>
      <trkpt lat="46.05073" lon="6.3229">
        <ele>632.8</ele>
        <time>2021-03-27T13:02:23Z</time>
      </trkpt>
      <trkpt lat="46.05071" lon="6.3229">
        <ele>633</ele>
        <time>2021-03-27T13:02:24Z</time>
      </trkpt>
      <trkpt lat="46.05069" lon="6.32289">
        <ele>633</ele>
        <time>2021-03-27T13:02:25Z</time>
      </trkpt>
      <trkpt lat="46.05066" lon="6.32289">
        <ele>633.2</ele>
        <time>2021-03-27T13:02:26Z</time>
      </trkpt>
      <trkpt lat="46.05063" lon="6.32288">
        <ele>633.2</ele>
        <time>2021-03-27T13:02:27Z</time>
      </trkpt>
      <trkpt lat="46.05061" lon="6.32288">
        <ele>633.2</ele>
        <time>2021-03-27T13:02:28Z</time>
      </trkpt>
      <trkpt lat="46.05058" lon="6.32288">
        <ele>633.6</ele>
        <time>2021-03-27T13:02:29Z</time>
      </trkpt>
      <trkpt lat="46.05055" lon="6.32288">
        <ele>633.8</ele>
        <time>2021-03-27T13:02:30Z</time>
      </trkpt>
      <trkpt lat="46.0505" lon="6.32288">
        <ele>634.8</ele>
        <time>2021-03-27T13:02:32Z</time>
      </trkpt>
      <trkpt lat="46.05049" lon="6.32288">
        <ele>635</ele>
        <time>2021-03-27T13:02:33Z</time>
      </trkpt>
      <trkpt lat="46.05047" lon="6.32288">
        <ele>635.4</ele>
        <time>2021-03-27T13:02:34Z</time>
      </trkpt>
      <trkpt lat="46.05042" lon="6.32287">
        <ele>636</ele>
        <time>2021-03-27T13:02:36Z</time>
      </trkpt>
      <trkpt lat="46.0504" lon="6.32287">
        <ele>636</ele>
        <time>2021-03-27T13:02:37Z</time>
      </trkpt>
      <trkpt lat="46.05038" lon="6.32286">
        <ele>636.4</ele>
        <time>2021-03-27T13:02:38Z</time>
      </trkpt>
      <trkpt lat="46.05035" lon="6.32286">
        <ele>636.6</ele>
        <time>2021-03-27T13:02:39Z</time>
      </trkpt>
      <trkpt lat="46.05033" lon="6.32285">
        <ele>636.8</ele>
        <time>2021-03-27T13:02:40Z</time>
      </trkpt>
      <trkpt lat="46.05031" lon="6.32285">
        <ele>637.4</ele>
        <time>2021-03-27T13:02:41Z</time>
      </trkpt>
      <trkpt lat="46.05029" lon="6.32285">
        <ele>637.6</ele>
        <time>2021-03-27T13:02:42Z</time>
      </trkpt>
      <trkpt lat="46.05027" lon="6.32285">
        <ele>638</ele>
        <time>2021-03-27T13:02:43Z</time>
      </trkpt>
      <trkpt lat="46.05022" lon="6.32284">
        <ele>638.8</ele>
        <time>2021-03-27T13:02:45Z</time>
      </trkpt>
      <trkpt lat="46.05021" lon="6.32284">
        <ele>639</ele>
        <time>2021-03-27T13:02:46Z</time>
      </trkpt>
      <trkpt lat="46.05019" lon="6.32284">
        <ele>639.4</ele>
        <time>2021-03-27T13:02:47Z</time>
      </trkpt>
      <trkpt lat="46.05016" lon="6.32284">
        <ele>640</ele>
        <time>2021-03-27T13:02:49Z</time>
      </trkpt>
      <trkpt lat="46.05014" lon="6.32284">
        <ele>640.4</ele>
        <time>2021-03-27T13:02:50Z</time>
      </trkpt>
      <trkpt lat="46.05013" lon="6.32283">
        <ele>640.6</ele>
        <time>2021-03-27T13:02:51Z</time>
      </trkpt>
      <trkpt lat="46.05011" lon="6.32282">
        <ele>641</ele>
        <time>2021-03-27T13:02:52Z</time>
      </trkpt>
      <trkpt lat="46.05008" lon="6.32282">
        <ele>641.4</ele>
        <time>2021-03-27T13:02:53Z</time>
      </trkpt>
      <trkpt lat="46.05006" lon="6.32281">
        <ele>641.6</ele>
        <time>2021-03-27T13:02:54Z</time>
      </trkpt>
      <trkpt lat="46.05004" lon="6.32281">
        <ele>642</ele>
        <time>2021-03-27T13:02:55Z</time>
      </trkpt>
      <trkpt lat="46.05002" lon="6.3228">
        <ele>642.2</ele>
        <time>2021-03-27T13:02:56Z</time>
      </trkpt>
      <trkpt lat="46.04997" lon="6.32277">
        <ele>642.8</ele>
        <time>2021-03-27T13:02:58Z</time>
      </trkpt>
      <trkpt lat="46.04994" lon="6.32275">
        <ele>643</ele>
        <time>2021-03-27T13:02:59Z</time>
      </trkpt>
      <trkpt lat="46.04992" lon="6.32273">
        <ele>643.4</ele>
        <time>2021-03-27T13:03:00Z</time>
      </trkpt>
      <trkpt lat="46.04989" lon="6.32271">
        <ele>643.6</ele>
        <time>2021-03-27T13:03:01Z</time>
      </trkpt>
      <trkpt lat="46.04988" lon="6.32269">
        <ele>644</ele>
        <time>2021-03-27T13:03:02Z</time>
      </trkpt>
      <trkpt lat="46.04986" lon="6.32266">
        <ele>644.2</ele>
        <time>2021-03-27T13:03:03Z</time>
      </trkpt>
      <trkpt lat="46.04982" lon="6.3226">
        <ele>644.8</ele>
        <time>2021-03-27T13:03:05Z</time>
      </trkpt>
      <trkpt lat="46.04981" lon="6.32257">
        <ele>645</ele>
        <time>2021-03-27T13:03:06Z</time>
      </trkpt>
      <trkpt lat="46.0498" lon="6.32253">
        <ele>645.4</ele>
        <time>2021-03-27T13:03:07Z</time>
      </trkpt>
      <trkpt lat="46.04977" lon="6.32247">
        <ele>645.6</ele>
        <time>2021-03-27T13:03:09Z</time>
      </trkpt>
      <trkpt lat="46.04976" lon="6.32243">
        <ele>645.8</ele>
        <time>2021-03-27T13:03:10Z</time>
      </trkpt>
      <trkpt lat="46.04975" lon="6.3224">
        <ele>645.8</ele>
        <time>2021-03-27T13:03:11Z</time>
      </trkpt>
      <trkpt lat="46.04974" lon="6.32236">
        <ele>645.8</ele>
        <time>2021-03-27T13:03:12Z</time>
      </trkpt>
      <trkpt lat="46.04973" lon="6.32233">
        <ele>646</ele>
        <time>2021-03-27T13:03:13Z</time>
      </trkpt>
      <trkpt lat="46.04973" lon="6.32229">
        <ele>646.2</ele>
        <time>2021-03-27T13:03:14Z</time>
      </trkpt>
      <trkpt lat="46.04972" lon="6.32225">
        <ele>646.4</ele>
        <time>2021-03-27T13:03:15Z</time>
      </trkpt>
      <trkpt lat="46.04971" lon="6.32222">
        <ele>646.6</ele>
        <time>2021-03-27T13:03:16Z</time>
      </trkpt>
      <trkpt lat="46.04971" lon="6.32219">
        <ele>647</ele>
        <time>2021-03-27T13:03:17Z</time>
      </trkpt>
      <trkpt lat="46.04971" lon="6.32215">
        <ele>647.2</ele>
        <time>2021-03-27T13:03:18Z</time>
      </trkpt>
      <trkpt lat="46.0497" lon="6.32212">
        <ele>647.6</ele>
        <time>2021-03-27T13:03:19Z</time>
      </trkpt>
      <trkpt lat="46.0497" lon="6.32208">
        <ele>648</ele>
        <time>2021-03-27T13:03:20Z</time>
      </trkpt>
      <trkpt lat="46.04969" lon="6.32205">
        <ele>648.4</ele>
        <time>2021-03-27T13:03:21Z</time>
      </trkpt>
      <trkpt lat="46.04969" lon="6.32201">
        <ele>648.6</ele>
        <time>2021-03-27T13:03:22Z</time>
      </trkpt>
      <trkpt lat="46.04969" lon="6.32198">
        <ele>648.8</ele>
        <time>2021-03-27T13:03:23Z</time>
      </trkpt>
      <trkpt lat="46.04968" lon="6.32194">
        <ele>648.8</ele>
        <time>2021-03-27T13:03:24Z</time>
      </trkpt>
      <trkpt lat="46.04967" lon="6.3219">
        <ele>649</ele>
        <time>2021-03-27T13:03:25Z</time>
      </trkpt>
      <trkpt lat="46.04967" lon="6.32186">
        <ele>649.4</ele>
        <time>2021-03-27T13:03:26Z</time>
      </trkpt>
      <trkpt lat="46.04967" lon="6.32182">
        <ele>649.4</ele>
        <time>2021-03-27T13:03:27Z</time>
      </trkpt>
      <trkpt lat="46.04967" lon="6.32178">
        <ele>649.6</ele>
        <time>2021-03-27T13:03:28Z</time>
      </trkpt>
      <trkpt lat="46.04967" lon="6.32174">
        <ele>649.8</ele>
        <time>2021-03-27T13:03:29Z</time>
      </trkpt>
      <trkpt lat="46.04966" lon="6.3217">
        <ele>650.2</ele>
        <time>2021-03-27T13:03:30Z</time>
      </trkpt>
      <trkpt lat="46.04966" lon="6.32166">
        <ele>650.8</ele>
        <time>2021-03-27T13:03:31Z</time>
      </trkpt>
      <trkpt lat="46.04966" lon="6.32162">
        <ele>651.2</ele>
        <time>2021-03-27T13:03:32Z</time>
      </trkpt>
      <trkpt lat="46.04965" lon="6.32158">
        <ele>651.2</ele>
        <time>2021-03-27T13:03:33Z</time>
      </trkpt>
      <trkpt lat="46.04965" lon="6.32154">
        <ele>651.4</ele>
        <time>2021-03-27T13:03:34Z</time>
      </trkpt>
      <trkpt lat="46.04965" lon="6.3215">
        <ele>651.8</ele>
        <time>2021-03-27T13:03:35Z</time>
      </trkpt>
      <trkpt lat="46.04965" lon="6.32146">
        <ele>652.2</ele>
        <time>2021-03-27T13:03:36Z</time>
      </trkpt>
      <trkpt lat="46.04965" lon="6.32142">
        <ele>652.6</ele>
        <time>2021-03-27T13:03:37Z</time>
      </trkpt>
      <trkpt lat="46.04965" lon="6.32138">
        <ele>652.8</ele>
        <time>2021-03-27T13:03:38Z</time>
      </trkpt>
      <trkpt lat="46.04965" lon="6.32134">
        <ele>653</ele>
        <time>2021-03-27T13:03:39Z</time>
      </trkpt>
      <trkpt lat="46.04964" lon="6.3213">
        <ele>653</ele>
        <time>2021-03-27T13:03:40Z</time>
      </trkpt>
      <trkpt lat="46.04964" lon="6.32126">
        <ele>653.4</ele>
        <time>2021-03-27T13:03:41Z</time>
      </trkpt>
      <trkpt lat="46.04963" lon="6.32122">
        <ele>653.4</ele>
        <time>2021-03-27T13:03:42Z</time>
      </trkpt>
      <trkpt lat="46.04963" lon="6.32118">
        <ele>653.6</ele>
        <time>2021-03-27T13:03:43Z</time>
      </trkpt>
      <trkpt lat="46.04962" lon="6.32114">
        <ele>654</ele>
        <time>2021-03-27T13:03:44Z</time>
      </trkpt>
      <trkpt lat="46.04962" lon="6.3211">
        <ele>654</ele>
        <time>2021-03-27T13:03:45Z</time>
      </trkpt>
      <trkpt lat="46.04961" lon="6.32106">
        <ele>654.2</ele>
        <time>2021-03-27T13:03:46Z</time>
      </trkpt>
      <trkpt lat="46.04961" lon="6.32102">
        <ele>654.4</ele>
        <time>2021-03-27T13:03:47Z</time>
      </trkpt>
      <trkpt lat="46.0496" lon="6.32098">
        <ele>654.8</ele>
        <time>2021-03-27T13:03:48Z</time>
      </trkpt>
      <trkpt lat="46.0496" lon="6.32094">
        <ele>654.8</ele>
        <time>2021-03-27T13:03:49Z</time>
      </trkpt>
      <trkpt lat="46.04959" lon="6.3209">
        <ele>655.2</ele>
        <time>2021-03-27T13:03:50Z</time>
      </trkpt>
      <trkpt lat="46.04959" lon="6.32086">
        <ele>655.2</ele>
        <time>2021-03-27T13:03:51Z</time>
      </trkpt>
      <trkpt lat="46.04958" lon="6.32082">
        <ele>655.4</ele>
        <time>2021-03-27T13:03:52Z</time>
      </trkpt>
      <trkpt lat="46.04958" lon="6.32078">
        <ele>655.6</ele>
        <time>2021-03-27T13:03:53Z</time>
      </trkpt>
      <trkpt lat="46.04957" lon="6.32075">
        <ele>656.2</ele>
        <time>2021-03-27T13:03:54Z</time>
      </trkpt>
      <trkpt lat="46.04956" lon="6.32071">
        <ele>656.2</ele>
        <time>2021-03-27T13:03:55Z</time>
      </trkpt>
      <trkpt lat="46.04956" lon="6.32067">
        <ele>656.6</ele>
        <time>2021-03-27T13:03:56Z</time>
      </trkpt>
      <trkpt lat="46.04955" lon="6.32063">
        <ele>656.8</ele>
        <time>2021-03-27T13:03:57Z</time>
      </trkpt>
      <trkpt lat="46.04954" lon="6.32059">
        <ele>657</ele>
        <time>2021-03-27T13:03:58Z</time>
      </trkpt>
      <trkpt lat="46.04954" lon="6.32055">
        <ele>657</ele>
        <time>2021-03-27T13:03:59Z</time>
      </trkpt>
      <trkpt lat="46.04953" lon="6.32051">
        <ele>657.2</ele>
        <time>2021-03-27T13:04:00Z</time>
      </trkpt>
      <trkpt lat="46.04953" lon="6.32047">
        <ele>657.4</ele>
        <time>2021-03-27T13:04:01Z</time>
      </trkpt>
      <trkpt lat="46.04952" lon="6.32044">
        <ele>657.4</ele>
        <time>2021-03-27T13:04:02Z</time>
      </trkpt>
      <trkpt lat="46.04952" lon="6.3204">
        <ele>657.6</ele>
        <time>2021-03-27T13:04:03Z</time>
      </trkpt>
      <trkpt lat="46.04951" lon="6.32036">
        <ele>657.6</ele>
        <time>2021-03-27T13:04:04Z</time>
      </trkpt>
      <trkpt lat="46.0495" lon="6.32032">
        <ele>658</ele>
        <time>2021-03-27T13:04:05Z</time>
      </trkpt>
      <trkpt lat="46.0495" lon="6.32029">
        <ele>658</ele>
        <time>2021-03-27T13:04:06Z</time>
      </trkpt>
      <trkpt lat="46.04949" lon="6.32025">
        <ele>658.4</ele>
        <time>2021-03-27T13:04:07Z</time>
      </trkpt>
      <trkpt lat="46.04948" lon="6.32021">
        <ele>658.4</ele>
        <time>2021-03-27T13:04:08Z</time>
      </trkpt>
      <trkpt lat="46.04947" lon="6.32017">
        <ele>658.8</ele>
        <time>2021-03-27T13:04:09Z</time>
      </trkpt>
      <trkpt lat="46.04947" lon="6.32013">
        <ele>659.2</ele>
        <time>2021-03-27T13:04:10Z</time>
      </trkpt>
      <trkpt lat="46.04946" lon="6.32009">
        <ele>659.4</ele>
        <time>2021-03-27T13:04:11Z</time>
      </trkpt>
      <trkpt lat="46.04946" lon="6.32005">
        <ele>659.6</ele>
        <time>2021-03-27T13:04:12Z</time>
      </trkpt>
      <trkpt lat="46.04945" lon="6.32001">
        <ele>659.4</ele>
        <time>2021-03-27T13:04:13Z</time>
      </trkpt>
      <trkpt lat="46.04944" lon="6.31997">
        <ele>659.6</ele>
        <time>2021-03-27T13:04:14Z</time>
      </trkpt>
      <trkpt lat="46.04943" lon="6.31993">
        <ele>660</ele>
        <time>2021-03-27T13:04:15Z</time>
      </trkpt>
      <trkpt lat="46.04942" lon="6.31988">
        <ele>660</ele>
        <time>2021-03-27T13:04:16Z</time>
      </trkpt>
      <trkpt lat="46.04942" lon="6.31984">
        <ele>660.2</ele>
        <time>2021-03-27T13:04:17Z</time>
      </trkpt>
      <trkpt lat="46.04941" lon="6.3198">
        <ele>660.6</ele>
        <time>2021-03-27T13:04:18Z</time>
      </trkpt>
      <trkpt lat="46.0494" lon="6.31976">
        <ele>661.2</ele>
        <time>2021-03-27T13:04:19Z</time>
      </trkpt>
      <trkpt lat="46.04939" lon="6.31972">
        <ele>661.6</ele>
        <time>2021-03-27T13:04:20Z</time>
      </trkpt>
      <trkpt lat="46.04939" lon="6.31968">
        <ele>661.8</ele>
        <time>2021-03-27T13:04:21Z</time>
      </trkpt>
      <trkpt lat="46.04938" lon="6.31964">
        <ele>662.2</ele>
        <time>2021-03-27T13:04:22Z</time>
      </trkpt>
      <trkpt lat="46.04937" lon="6.3196">
        <ele>662.4</ele>
        <time>2021-03-27T13:04:23Z</time>
      </trkpt>
      <trkpt lat="46.04936" lon="6.31956">
        <ele>662.8</ele>
        <time>2021-03-27T13:04:24Z</time>
      </trkpt>
      <trkpt lat="46.04935" lon="6.31952">
        <ele>663</ele>
        <time>2021-03-27T13:04:25Z</time>
      </trkpt>
      <trkpt lat="46.04935" lon="6.31948">
        <ele>663</ele>
        <time>2021-03-27T13:04:26Z</time>
      </trkpt>
      <trkpt lat="46.04934" lon="6.31944">
        <ele>663</ele>
        <time>2021-03-27T13:04:27Z</time>
      </trkpt>
      <trkpt lat="46.04933" lon="6.3194">
        <ele>663.2</ele>
        <time>2021-03-27T13:04:28Z</time>
      </trkpt>
      <trkpt lat="46.04932" lon="6.31936">
        <ele>663.4</ele>
        <time>2021-03-27T13:04:29Z</time>
      </trkpt>
      <trkpt lat="46.04932" lon="6.31933">
        <ele>663.4</ele>
        <time>2021-03-27T13:04:30Z</time>
      </trkpt>
      <trkpt lat="46.04931" lon="6.31928">
        <ele>663.6</ele>
        <time>2021-03-27T13:04:31Z</time>
      </trkpt>
      <trkpt lat="46.0493" lon="6.31924">
        <ele>664.2</ele>
        <time>2021-03-27T13:04:32Z</time>
      </trkpt>
      <trkpt lat="46.04929" lon="6.3192">
        <ele>664.6</ele>
        <time>2021-03-27T13:04:33Z</time>
      </trkpt>
      <trkpt lat="46.04928" lon="6.31916">
        <ele>664.8</ele>
        <time>2021-03-27T13:04:34Z</time>
      </trkpt>
      <trkpt lat="46.04928" lon="6.31913">
        <ele>665.2</ele>
        <time>2021-03-27T13:04:35Z</time>
      </trkpt>
      <trkpt lat="46.04927" lon="6.31909">
        <ele>665.2</ele>
        <time>2021-03-27T13:04:36Z</time>
      </trkpt>
      <trkpt lat="46.04926" lon="6.31905">
        <ele>665.4</ele>
        <time>2021-03-27T13:04:37Z</time>
      </trkpt>
      <trkpt lat="46.04925" lon="6.31901">
        <ele>665.4</ele>
        <time>2021-03-27T13:04:38Z</time>
      </trkpt>
      <trkpt lat="46.04925" lon="6.31897">
        <ele>665.4</ele>
        <time>2021-03-27T13:04:39Z</time>
      </trkpt>
      <trkpt lat="46.04924" lon="6.31893">
        <ele>665.6</ele>
        <time>2021-03-27T13:04:40Z</time>
      </trkpt>
      <trkpt lat="46.04923" lon="6.31889">
        <ele>665.6</ele>
        <time>2021-03-27T13:04:41Z</time>
      </trkpt>
      <trkpt lat="46.04922" lon="6.31884">
        <ele>665.8</ele>
        <time>2021-03-27T13:04:42Z</time>
      </trkpt>
      <trkpt lat="46.04922" lon="6.3188">
        <ele>666</ele>
        <time>2021-03-27T13:04:43Z</time>
      </trkpt>
      <trkpt lat="46.04921" lon="6.31876">
        <ele>666.2</ele>
        <time>2021-03-27T13:04:44Z</time>
      </trkpt>
      <trkpt lat="46.0492" lon="6.31872">
        <ele>666.4</ele>
        <time>2021-03-27T13:04:45Z</time>
      </trkpt>
      <trkpt lat="46.0492" lon="6.31868">
        <ele>666.6</ele>
        <time>2021-03-27T13:04:46Z</time>
      </trkpt>
      <trkpt lat="46.04919" lon="6.31863">
        <ele>666.8</ele>
        <time>2021-03-27T13:04:47Z</time>
      </trkpt>
      <trkpt lat="46.04918" lon="6.31859">
        <ele>667</ele>
        <time>2021-03-27T13:04:48Z</time>
      </trkpt>
      <trkpt lat="46.04918" lon="6.31854">
        <ele>667.2</ele>
        <time>2021-03-27T13:04:49Z</time>
      </trkpt>
      <trkpt lat="46.04917" lon="6.31849">
        <ele>667.4</ele>
        <time>2021-03-27T13:04:50Z</time>
      </trkpt>
      <trkpt lat="46.04916" lon="6.31844">
        <ele>667.4</ele>
        <time>2021-03-27T13:04:51Z</time>
      </trkpt>
      <trkpt lat="46.04916" lon="6.3184">
        <ele>667.6</ele>
        <time>2021-03-27T13:04:52Z</time>
      </trkpt>
      <trkpt lat="46.04915" lon="6.31835">
        <ele>667.8</ele>
        <time>2021-03-27T13:04:53Z</time>
      </trkpt>
      <trkpt lat="46.04914" lon="6.3183">
        <ele>668</ele>
        <time>2021-03-27T13:04:54Z</time>
      </trkpt>
      <trkpt lat="46.04914" lon="6.31825">
        <ele>668</ele>
        <time>2021-03-27T13:04:55Z</time>
      </trkpt>
      <trkpt lat="46.04914" lon="6.3182">
        <ele>668</ele>
        <time>2021-03-27T13:04:56Z</time>
      </trkpt>
      <trkpt lat="46.04914" lon="6.31815">
        <ele>668</ele>
        <time>2021-03-27T13:04:57Z</time>
      </trkpt>
      <trkpt lat="46.04914" lon="6.31809">
        <ele>668.4</ele>
        <time>2021-03-27T13:04:58Z</time>
      </trkpt>
      <trkpt lat="46.04914" lon="6.31804">
        <ele>668.4</ele>
        <time>2021-03-27T13:04:59Z</time>
      </trkpt>
      <trkpt lat="46.04914" lon="6.31798">
        <ele>668.4</ele>
        <time>2021-03-27T13:05:00Z</time>
      </trkpt>
      <trkpt lat="46.04913" lon="6.31793">
        <ele>668.6</ele>
        <time>2021-03-27T13:05:01Z</time>
      </trkpt>
      <trkpt lat="46.04913" lon="6.31787">
        <ele>668.6</ele>
        <time>2021-03-27T13:05:02Z</time>
      </trkpt>
      <trkpt lat="46.04913" lon="6.31782">
        <ele>668.8</ele>
        <time>2021-03-27T13:05:03Z</time>
      </trkpt>
      <trkpt lat="46.04913" lon="6.31777">
        <ele>669</ele>
        <time>2021-03-27T13:05:04Z</time>
      </trkpt>
      <trkpt lat="46.04913" lon="6.31771">
        <ele>669</ele>
        <time>2021-03-27T13:05:05Z</time>
      </trkpt>
      <trkpt lat="46.04913" lon="6.31766">
        <ele>669.2</ele>
        <time>2021-03-27T13:05:06Z</time>
      </trkpt>
      <trkpt lat="46.04913" lon="6.31761">
        <ele>669.4</ele>
        <time>2021-03-27T13:05:07Z</time>
      </trkpt>
      <trkpt lat="46.04913" lon="6.31755">
        <ele>669.8</ele>
        <time>2021-03-27T13:05:08Z</time>
      </trkpt>
      <trkpt lat="46.04913" lon="6.3175">
        <ele>670</ele>
        <time>2021-03-27T13:05:09Z</time>
      </trkpt>
      <trkpt lat="46.04913" lon="6.31745">
        <ele>670</ele>
        <time>2021-03-27T13:05:10Z</time>
      </trkpt>
      <trkpt lat="46.04914" lon="6.31739">
        <ele>670.2</ele>
        <time>2021-03-27T13:05:11Z</time>
      </trkpt>
      <trkpt lat="46.04914" lon="6.31734">
        <ele>670.4</ele>
        <time>2021-03-27T13:05:12Z</time>
      </trkpt>
      <trkpt lat="46.04914" lon="6.31729">
        <ele>670.6</ele>
        <time>2021-03-27T13:05:13Z</time>
      </trkpt>
      <trkpt lat="46.04915" lon="6.31724">
        <ele>671</ele>
        <time>2021-03-27T13:05:14Z</time>
      </trkpt>
      <trkpt lat="46.04915" lon="6.31718">
        <ele>671.2</ele>
        <time>2021-03-27T13:05:15Z</time>
      </trkpt>
      <trkpt lat="46.04915" lon="6.31713">
        <ele>671.4</ele>
        <time>2021-03-27T13:05:16Z</time>
      </trkpt>
      <trkpt lat="46.04915" lon="6.31708">
        <ele>671.4</ele>
        <time>2021-03-27T13:05:17Z</time>
      </trkpt>
      <trkpt lat="46.04915" lon="6.31703">
        <ele>671.4</ele>
        <time>2021-03-27T13:05:18Z</time>
      </trkpt>
      <trkpt lat="46.04915" lon="6.31698">
        <ele>671.8</ele>
        <time>2021-03-27T13:05:19Z</time>
      </trkpt>
      <trkpt lat="46.04915" lon="6.31693">
        <ele>672.4</ele>
        <time>2021-03-27T13:05:20Z</time>
      </trkpt>
      <trkpt lat="46.04915" lon="6.31687">
        <ele>672.8</ele>
        <time>2021-03-27T13:05:21Z</time>
      </trkpt>
      <trkpt lat="46.04915" lon="6.31682">
        <ele>673</ele>
        <time>2021-03-27T13:05:22Z</time>
      </trkpt>
      <trkpt lat="46.04916" lon="6.31677">
        <ele>673.2</ele>
        <time>2021-03-27T13:05:23Z</time>
      </trkpt>
      <trkpt lat="46.04917" lon="6.31671">
        <ele>673.4</ele>
        <time>2021-03-27T13:05:24Z</time>
      </trkpt>
      <trkpt lat="46.04917" lon="6.31666">
        <ele>673.6</ele>
        <time>2021-03-27T13:05:25Z</time>
      </trkpt>
      <trkpt lat="46.04918" lon="6.3166">
        <ele>673.8</ele>
        <time>2021-03-27T13:05:26Z</time>
      </trkpt>
      <trkpt lat="46.0492" lon="6.31654">
        <ele>674</ele>
        <time>2021-03-27T13:05:27Z</time>
      </trkpt>
      <trkpt lat="46.04921" lon="6.31648">
        <ele>674</ele>
        <time>2021-03-27T13:05:28Z</time>
      </trkpt>
      <trkpt lat="46.04923" lon="6.31642">
        <ele>674.2</ele>
        <time>2021-03-27T13:05:29Z</time>
      </trkpt>
      <trkpt lat="46.04924" lon="6.31635">
        <ele>674.4</ele>
        <time>2021-03-27T13:05:30Z</time>
      </trkpt>
      <trkpt lat="46.04925" lon="6.31628">
        <ele>674.6</ele>
        <time>2021-03-27T13:05:31Z</time>
      </trkpt>
      <trkpt lat="46.04927" lon="6.31621">
        <ele>674.4</ele>
        <time>2021-03-27T13:05:32Z</time>
      </trkpt>
      <trkpt lat="46.04928" lon="6.31614">
        <ele>674.6</ele>
        <time>2021-03-27T13:05:33Z</time>
      </trkpt>
      <trkpt lat="46.04928" lon="6.31606">
        <ele>674.6</ele>
        <time>2021-03-27T13:05:34Z</time>
      </trkpt>
      <trkpt lat="46.04928" lon="6.31597">
        <ele>674.6</ele>
        <time>2021-03-27T13:05:35Z</time>
      </trkpt>
      <trkpt lat="46.04928" lon="6.31588">
        <ele>674.6</ele>
        <time>2021-03-27T13:05:36Z</time>
      </trkpt>
      <trkpt lat="46.04927" lon="6.31579">
        <ele>674.6</ele>
        <time>2021-03-27T13:05:37Z</time>
      </trkpt>
      <trkpt lat="46.04926" lon="6.31569">
        <ele>674.6</ele>
        <time>2021-03-27T13:05:38Z</time>
      </trkpt>
      <trkpt lat="46.04924" lon="6.3156">
        <ele>674.6</ele>
        <time>2021-03-27T13:05:39Z</time>
      </trkpt>
      <trkpt lat="46.04923" lon="6.31551">
        <ele>674.4</ele>
        <time>2021-03-27T13:05:40Z</time>
      </trkpt>
      <trkpt lat="46.04921" lon="6.31543">
        <ele>674.4</ele>
        <time>2021-03-27T13:05:41Z</time>
      </trkpt>
      <trkpt lat="46.0492" lon="6.31536">
        <ele>674.4</ele>
        <time>2021-03-27T13:05:42Z</time>
      </trkpt>
      <trkpt lat="46.04918" lon="6.3153">
        <ele>674.4</ele>
        <time>2021-03-27T13:05:43Z</time>
      </trkpt>
      <trkpt lat="46.04917" lon="6.31524">
        <ele>674.4</ele>
        <time>2021-03-27T13:05:44Z</time>
      </trkpt>
      <trkpt lat="46.04915" lon="6.31519">
        <ele>674.4</ele>
        <time>2021-03-27T13:05:45Z</time>
      </trkpt>
      <trkpt lat="46.04914" lon="6.31515">
        <ele>674.4</ele>
        <time>2021-03-27T13:05:46Z</time>
      </trkpt>
      <trkpt lat="46.04912" lon="6.3151">
        <ele>674.4</ele>
        <time>2021-03-27T13:05:47Z</time>
      </trkpt>
      <trkpt lat="46.0491" lon="6.31505">
        <ele>674.4</ele>
        <time>2021-03-27T13:05:48Z</time>
      </trkpt>
      <trkpt lat="46.04909" lon="6.31501">
        <ele>674.4</ele>
        <time>2021-03-27T13:05:49Z</time>
      </trkpt>
      <trkpt lat="46.04908" lon="6.31496">
        <ele>674.4</ele>
        <time>2021-03-27T13:05:50Z</time>
      </trkpt>
      <trkpt lat="46.04907" lon="6.31491">
        <ele>674.4</ele>
        <time>2021-03-27T13:05:51Z</time>
      </trkpt>
      <trkpt lat="46.04906" lon="6.31486">
        <ele>674.6</ele>
        <time>2021-03-27T13:05:52Z</time>
      </trkpt>
      <trkpt lat="46.04905" lon="6.31482">
        <ele>675</ele>
        <time>2021-03-27T13:05:53Z</time>
      </trkpt>
      <trkpt lat="46.04905" lon="6.31477">
        <ele>675.2</ele>
        <time>2021-03-27T13:05:54Z</time>
      </trkpt>
      <trkpt lat="46.04905" lon="6.31473">
        <ele>675.4</ele>
        <time>2021-03-27T13:05:55Z</time>
      </trkpt>
      <trkpt lat="46.04905" lon="6.31469">
        <ele>675.8</ele>
        <time>2021-03-27T13:05:56Z</time>
      </trkpt>
      <trkpt lat="46.04905" lon="6.31465">
        <ele>676.2</ele>
        <time>2021-03-27T13:05:57Z</time>
      </trkpt>
      <trkpt lat="46.04904" lon="6.31461">
        <ele>676.6</ele>
        <time>2021-03-27T13:05:58Z</time>
      </trkpt>
      <trkpt lat="46.04904" lon="6.31457">
        <ele>676.8</ele>
        <time>2021-03-27T13:05:59Z</time>
      </trkpt>
      <trkpt lat="46.04903" lon="6.31453">
        <ele>677</ele>
        <time>2021-03-27T13:06:00Z</time>
      </trkpt>
      <trkpt lat="46.04903" lon="6.31449">
        <ele>677.4</ele>
        <time>2021-03-27T13:06:01Z</time>
      </trkpt>
      <trkpt lat="46.04903" lon="6.31445">
        <ele>677.8</ele>
        <time>2021-03-27T13:06:02Z</time>
      </trkpt>
      <trkpt lat="46.04903" lon="6.31441">
        <ele>678</ele>
        <time>2021-03-27T13:06:03Z</time>
      </trkpt>
      <trkpt lat="46.04903" lon="6.31437">
        <ele>678.4</ele>
        <time>2021-03-27T13:06:04Z</time>
      </trkpt>
      <trkpt lat="46.04902" lon="6.31433">
        <ele>678.8</ele>
        <time>2021-03-27T13:06:05Z</time>
      </trkpt>
      <trkpt lat="46.04901" lon="6.31429">
        <ele>679</ele>
        <time>2021-03-27T13:06:06Z</time>
      </trkpt>
      <trkpt lat="46.04901" lon="6.31425">
        <ele>679.2</ele>
        <time>2021-03-27T13:06:07Z</time>
      </trkpt>
      <trkpt lat="46.049" lon="6.3142">
        <ele>679.6</ele>
        <time>2021-03-27T13:06:08Z</time>
      </trkpt>
      <trkpt lat="46.049" lon="6.31416">
        <ele>679.6</ele>
        <time>2021-03-27T13:06:09Z</time>
      </trkpt>
      <trkpt lat="46.04899" lon="6.31411">
        <ele>680</ele>
        <time>2021-03-27T13:06:10Z</time>
      </trkpt>
      <trkpt lat="46.04899" lon="6.31407">
        <ele>680</ele>
        <time>2021-03-27T13:06:11Z</time>
      </trkpt>
      <trkpt lat="46.04898" lon="6.31402">
        <ele>680.4</ele>
        <time>2021-03-27T13:06:12Z</time>
      </trkpt>
      <trkpt lat="46.04897" lon="6.31398">
        <ele>680.8</ele>
        <time>2021-03-27T13:06:13Z</time>
      </trkpt>
      <trkpt lat="46.04897" lon="6.31394">
        <ele>681</ele>
        <time>2021-03-27T13:06:14Z</time>
      </trkpt>
      <trkpt lat="46.04896" lon="6.3139">
        <ele>681.6</ele>
        <time>2021-03-27T13:06:15Z</time>
      </trkpt>
      <trkpt lat="46.04896" lon="6.31386">
        <ele>681.8</ele>
        <time>2021-03-27T13:06:16Z</time>
      </trkpt>
      <trkpt lat="46.04895" lon="6.31382">
        <ele>682.2</ele>
        <time>2021-03-27T13:06:17Z</time>
      </trkpt>
      <trkpt lat="46.04895" lon="6.31377">
        <ele>682.6</ele>
        <time>2021-03-27T13:06:18Z</time>
      </trkpt>
      <trkpt lat="46.04895" lon="6.31373">
        <ele>682.8</ele>
        <time>2021-03-27T13:06:19Z</time>
      </trkpt>
      <trkpt lat="46.04894" lon="6.31369">
        <ele>683.2</ele>
        <time>2021-03-27T13:06:20Z</time>
      </trkpt>
      <trkpt lat="46.04894" lon="6.31365">
        <ele>683.4</ele>
        <time>2021-03-27T13:06:21Z</time>
      </trkpt>
      <trkpt lat="46.04894" lon="6.3136">
        <ele>683.6</ele>
        <time>2021-03-27T13:06:22Z</time>
      </trkpt>
      <trkpt lat="46.04893" lon="6.31356">
        <ele>683.8</ele>
        <time>2021-03-27T13:06:23Z</time>
      </trkpt>
      <trkpt lat="46.04892" lon="6.31352">
        <ele>683.8</ele>
        <time>2021-03-27T13:06:24Z</time>
      </trkpt>
      <trkpt lat="46.04892" lon="6.31348">
        <ele>684</ele>
        <time>2021-03-27T13:06:25Z</time>
      </trkpt>
      <trkpt lat="46.04891" lon="6.31343">
        <ele>684.4</ele>
        <time>2021-03-27T13:06:26Z</time>
      </trkpt>
      <trkpt lat="46.04891" lon="6.31339">
        <ele>684.8</ele>
        <time>2021-03-27T13:06:27Z</time>
      </trkpt>
      <trkpt lat="46.0489" lon="6.31335">
        <ele>685.2</ele>
        <time>2021-03-27T13:06:28Z</time>
      </trkpt>
      <trkpt lat="46.04889" lon="6.3133">
        <ele>685.2</ele>
        <time>2021-03-27T13:06:29Z</time>
      </trkpt>
      <trkpt lat="46.04888" lon="6.31326">
        <ele>685.6</ele>
        <time>2021-03-27T13:06:30Z</time>
      </trkpt>
      <trkpt lat="46.04888" lon="6.31321">
        <ele>685.8</ele>
        <time>2021-03-27T13:06:31Z</time>
      </trkpt>
      <trkpt lat="46.04887" lon="6.31317">
        <ele>686.2</ele>
        <time>2021-03-27T13:06:32Z</time>
      </trkpt>
      <trkpt lat="46.04886" lon="6.31312">
        <ele>686.6</ele>
        <time>2021-03-27T13:06:33Z</time>
      </trkpt>
      <trkpt lat="46.04885" lon="6.31308">
        <ele>686.6</ele>
        <time>2021-03-27T13:06:34Z</time>
      </trkpt>
      <trkpt lat="46.04883" lon="6.31304">
        <ele>687</ele>
        <time>2021-03-27T13:06:35Z</time>
      </trkpt>
      <trkpt lat="46.04882" lon="6.313">
        <ele>687</ele>
        <time>2021-03-27T13:06:36Z</time>
      </trkpt>
      <trkpt lat="46.0488" lon="6.31296">
        <ele>687.2</ele>
        <time>2021-03-27T13:06:37Z</time>
      </trkpt>
      <trkpt lat="46.04879" lon="6.31292">
        <ele>687.6</ele>
        <time>2021-03-27T13:06:38Z</time>
      </trkpt>
      <trkpt lat="46.04877" lon="6.31289">
        <ele>687.8</ele>
        <time>2021-03-27T13:06:39Z</time>
      </trkpt>
      <trkpt lat="46.04875" lon="6.31286">
        <ele>688</ele>
        <time>2021-03-27T13:06:40Z</time>
      </trkpt>
      <trkpt lat="46.04873" lon="6.31283">
        <ele>688.4</ele>
        <time>2021-03-27T13:06:41Z</time>
      </trkpt>
      <trkpt lat="46.04871" lon="6.3128">
        <ele>688.6</ele>
        <time>2021-03-27T13:06:42Z</time>
      </trkpt>
      <trkpt lat="46.04868" lon="6.31278">
        <ele>688.6</ele>
        <time>2021-03-27T13:06:43Z</time>
      </trkpt>
      <trkpt lat="46.04866" lon="6.31275">
        <ele>688.8</ele>
        <time>2021-03-27T13:06:44Z</time>
      </trkpt>
      <trkpt lat="46.04864" lon="6.31273">
        <ele>688.8</ele>
        <time>2021-03-27T13:06:45Z</time>
      </trkpt>
      <trkpt lat="46.04862" lon="6.3127">
        <ele>689</ele>
        <time>2021-03-27T13:06:46Z</time>
      </trkpt>
      <trkpt lat="46.0486" lon="6.31268">
        <ele>689.4</ele>
        <time>2021-03-27T13:06:47Z</time>
      </trkpt>
      <trkpt lat="46.04857" lon="6.31266">
        <ele>689.8</ele>
        <time>2021-03-27T13:06:48Z</time>
      </trkpt>
      <trkpt lat="46.04855" lon="6.31264">
        <ele>690.2</ele>
        <time>2021-03-27T13:06:49Z</time>
      </trkpt>
      <trkpt lat="46.04853" lon="6.31262">
        <ele>690.4</ele>
        <time>2021-03-27T13:06:50Z</time>
      </trkpt>
      <trkpt lat="46.0485" lon="6.31261">
        <ele>690.8</ele>
        <time>2021-03-27T13:06:51Z</time>
      </trkpt>
      <trkpt lat="46.04847" lon="6.31259">
        <ele>691</ele>
        <time>2021-03-27T13:06:52Z</time>
      </trkpt>
      <trkpt lat="46.04844" lon="6.31258">
        <ele>691.2</ele>
        <time>2021-03-27T13:06:53Z</time>
      </trkpt>
      <trkpt lat="46.04842" lon="6.31256">
        <ele>691.6</ele>
        <time>2021-03-27T13:06:54Z</time>
      </trkpt>
      <trkpt lat="46.04839" lon="6.31255">
        <ele>691.6</ele>
        <time>2021-03-27T13:06:55Z</time>
      </trkpt>
      <trkpt lat="46.04837" lon="6.31253">
        <ele>691.8</ele>
        <time>2021-03-27T13:06:56Z</time>
      </trkpt>
      <trkpt lat="46.04834" lon="6.31252">
        <ele>692.2</ele>
        <time>2021-03-27T13:06:57Z</time>
      </trkpt>
      <trkpt lat="46.04832" lon="6.3125">
        <ele>692.4</ele>
        <time>2021-03-27T13:06:58Z</time>
      </trkpt>
      <trkpt lat="46.04829" lon="6.31248">
        <ele>692.6</ele>
        <time>2021-03-27T13:06:59Z</time>
      </trkpt>
      <trkpt lat="46.04827" lon="6.31247">
        <ele>692.6</ele>
        <time>2021-03-27T13:07:00Z</time>
      </trkpt>
      <trkpt lat="46.04824" lon="6.31245">
        <ele>692.6</ele>
        <time>2021-03-27T13:07:01Z</time>
      </trkpt>
      <trkpt lat="46.04822" lon="6.31244">
        <ele>693</ele>
        <time>2021-03-27T13:07:02Z</time>
      </trkpt>
      <trkpt lat="46.04819" lon="6.31242">
        <ele>693.2</ele>
        <time>2021-03-27T13:07:03Z</time>
      </trkpt>
      <trkpt lat="46.04817" lon="6.31241">
        <ele>693.4</ele>
        <time>2021-03-27T13:07:04Z</time>
      </trkpt>
      <trkpt lat="46.04814" lon="6.31239">
        <ele>693.8</ele>
        <time>2021-03-27T13:07:05Z</time>
      </trkpt>
      <trkpt lat="46.04811" lon="6.31238">
        <ele>694</ele>
        <time>2021-03-27T13:07:06Z</time>
      </trkpt>
      <trkpt lat="46.04809" lon="6.31236">
        <ele>694.4</ele>
        <time>2021-03-27T13:07:07Z</time>
      </trkpt>
      <trkpt lat="46.04806" lon="6.31234">
        <ele>694.8</ele>
        <time>2021-03-27T13:07:08Z</time>
      </trkpt>
      <trkpt lat="46.04803" lon="6.31233">
        <ele>695</ele>
        <time>2021-03-27T13:07:09Z</time>
      </trkpt>
      <trkpt lat="46.04801" lon="6.31231">
        <ele>695.4</ele>
        <time>2021-03-27T13:07:10Z</time>
      </trkpt>
      <trkpt lat="46.04798" lon="6.3123">
        <ele>695.6</ele>
        <time>2021-03-27T13:07:11Z</time>
      </trkpt>
      <trkpt lat="46.04795" lon="6.31229">
        <ele>695.6</ele>
        <time>2021-03-27T13:07:12Z</time>
      </trkpt>
      <trkpt lat="46.04793" lon="6.31227">
        <ele>696</ele>
        <time>2021-03-27T13:07:13Z</time>
      </trkpt>
      <trkpt lat="46.0479" lon="6.31226">
        <ele>696.2</ele>
        <time>2021-03-27T13:07:14Z</time>
      </trkpt>
      <trkpt lat="46.04787" lon="6.31225">
        <ele>696.2</ele>
        <time>2021-03-27T13:07:15Z</time>
      </trkpt>
      <trkpt lat="46.04784" lon="6.31224">
        <ele>696.6</ele>
        <time>2021-03-27T13:07:16Z</time>
      </trkpt>
      <trkpt lat="46.04781" lon="6.31223">
        <ele>696.8</ele>
        <time>2021-03-27T13:07:17Z</time>
      </trkpt>
      <trkpt lat="46.04778" lon="6.31222">
        <ele>697.2</ele>
        <time>2021-03-27T13:07:18Z</time>
      </trkpt>
      <trkpt lat="46.04776" lon="6.3122">
        <ele>697.2</ele>
        <time>2021-03-27T13:07:19Z</time>
      </trkpt>
      <trkpt lat="46.04773" lon="6.31218">
        <ele>697.6</ele>
        <time>2021-03-27T13:07:20Z</time>
      </trkpt>
      <trkpt lat="46.04771" lon="6.31216">
        <ele>697.8</ele>
        <time>2021-03-27T13:07:21Z</time>
      </trkpt>
      <trkpt lat="46.04769" lon="6.31214">
        <ele>698.2</ele>
        <time>2021-03-27T13:07:22Z</time>
      </trkpt>
      <trkpt lat="46.04767" lon="6.31213">
        <ele>698.4</ele>
        <time>2021-03-27T13:07:23Z</time>
      </trkpt>
      <trkpt lat="46.04765" lon="6.31211">
        <ele>698.6</ele>
        <time>2021-03-27T13:07:24Z</time>
      </trkpt>
      <trkpt lat="46.04763" lon="6.31209">
        <ele>698.8</ele>
        <time>2021-03-27T13:07:25Z</time>
      </trkpt>
      <trkpt lat="46.04761" lon="6.31208">
        <ele>699.2</ele>
        <time>2021-03-27T13:07:26Z</time>
      </trkpt>
      <trkpt lat="46.04759" lon="6.31206">
        <ele>699.4</ele>
        <time>2021-03-27T13:07:27Z</time>
      </trkpt>
      <trkpt lat="46.04757" lon="6.31204">
        <ele>699.6</ele>
        <time>2021-03-27T13:07:28Z</time>
      </trkpt>
      <trkpt lat="46.04755" lon="6.31204">
        <ele>699.8</ele>
        <time>2021-03-27T13:07:29Z</time>
      </trkpt>
      <trkpt lat="46.04752" lon="6.31202">
        <ele>699.8</ele>
        <time>2021-03-27T13:07:30Z</time>
      </trkpt>
      <trkpt lat="46.0475" lon="6.31201">
        <ele>700.2</ele>
        <time>2021-03-27T13:07:31Z</time>
      </trkpt>
      <trkpt lat="46.04748" lon="6.312">
        <ele>700.6</ele>
        <time>2021-03-27T13:07:32Z</time>
      </trkpt>
      <trkpt lat="46.04746" lon="6.31198">
        <ele>701</ele>
        <time>2021-03-27T13:07:33Z</time>
      </trkpt>
      <trkpt lat="46.04744" lon="6.31198">
        <ele>701.2</ele>
        <time>2021-03-27T13:07:34Z</time>
      </trkpt>
      <trkpt lat="46.04742" lon="6.31197">
        <ele>701.2</ele>
        <time>2021-03-27T13:07:35Z</time>
      </trkpt>
      <trkpt lat="46.0474" lon="6.31196">
        <ele>701.4</ele>
        <time>2021-03-27T13:07:36Z</time>
      </trkpt>
      <trkpt lat="46.04738" lon="6.31195">
        <ele>701.8</ele>
        <time>2021-03-27T13:07:37Z</time>
      </trkpt>
      <trkpt lat="46.04737" lon="6.31194">
        <ele>702.2</ele>
        <time>2021-03-27T13:07:38Z</time>
      </trkpt>
      <trkpt lat="46.04735" lon="6.31193">
        <ele>702.6</ele>
        <time>2021-03-27T13:07:39Z</time>
      </trkpt>
      <trkpt lat="46.04732" lon="6.31193">
        <ele>702.8</ele>
        <time>2021-03-27T13:07:40Z</time>
      </trkpt>
      <trkpt lat="46.04731" lon="6.31192">
        <ele>703.2</ele>
        <time>2021-03-27T13:07:41Z</time>
      </trkpt>
      <trkpt lat="46.04728" lon="6.31192">
        <ele>703.4</ele>
        <time>2021-03-27T13:07:42Z</time>
      </trkpt>
      <trkpt lat="46.04725" lon="6.31192">
        <ele>703.8</ele>
        <time>2021-03-27T13:07:43Z</time>
      </trkpt>
      <trkpt lat="46.04723" lon="6.31193">
        <ele>703.8</ele>
        <time>2021-03-27T13:07:44Z</time>
      </trkpt>
      <trkpt lat="46.04721" lon="6.31194">
        <ele>704.4</ele>
        <time>2021-03-27T13:07:45Z</time>
      </trkpt>
      <trkpt lat="46.04719" lon="6.31196">
        <ele>704.6</ele>
        <time>2021-03-27T13:07:46Z</time>
      </trkpt>
      <trkpt lat="46.04718" lon="6.31198">
        <ele>705</ele>
        <time>2021-03-27T13:07:47Z</time>
      </trkpt>
      <trkpt lat="46.04717" lon="6.312">
        <ele>705.4</ele>
        <time>2021-03-27T13:07:48Z</time>
      </trkpt>
      <trkpt lat="46.04716" lon="6.31203">
        <ele>705.8</ele>
        <time>2021-03-27T13:07:49Z</time>
      </trkpt>
      <trkpt lat="46.04715" lon="6.31206">
        <ele>706</ele>
        <time>2021-03-27T13:07:50Z</time>
      </trkpt>
      <trkpt lat="46.04715" lon="6.31209">
        <ele>706.2</ele>
        <time>2021-03-27T13:07:51Z</time>
      </trkpt>
      <trkpt lat="46.04714" lon="6.31213">
        <ele>706.6</ele>
        <time>2021-03-27T13:07:52Z</time>
      </trkpt>
      <trkpt lat="46.04714" lon="6.31217">
        <ele>706.6</ele>
        <time>2021-03-27T13:07:53Z</time>
      </trkpt>
      <trkpt lat="46.04714" lon="6.31221">
        <ele>707</ele>
        <time>2021-03-27T13:07:54Z</time>
      </trkpt>
      <trkpt lat="46.04715" lon="6.31225">
        <ele>707.2</ele>
        <time>2021-03-27T13:07:55Z</time>
      </trkpt>
      <trkpt lat="46.04714" lon="6.31229">
        <ele>707.4</ele>
        <time>2021-03-27T13:07:56Z</time>
      </trkpt>
      <trkpt lat="46.04713" lon="6.31233">
        <ele>707.4</ele>
        <time>2021-03-27T13:07:57Z</time>
      </trkpt>
      <trkpt lat="46.04713" lon="6.31236">
        <ele>707.8</ele>
        <time>2021-03-27T13:07:58Z</time>
      </trkpt>
      <trkpt lat="46.04712" lon="6.3124">
        <ele>708</ele>
        <time>2021-03-27T13:07:59Z</time>
      </trkpt>
      <trkpt lat="46.04712" lon="6.31244">
        <ele>708.2</ele>
        <time>2021-03-27T13:08:00Z</time>
      </trkpt>
      <trkpt lat="46.04711" lon="6.31248">
        <ele>708.6</ele>
        <time>2021-03-27T13:08:01Z</time>
      </trkpt>
      <trkpt lat="46.04711" lon="6.31252">
        <ele>708.8</ele>
        <time>2021-03-27T13:08:02Z</time>
      </trkpt>
      <trkpt lat="46.04711" lon="6.31256">
        <ele>709.2</ele>
        <time>2021-03-27T13:08:03Z</time>
      </trkpt>
      <trkpt lat="46.04711" lon="6.31259">
        <ele>709.4</ele>
        <time>2021-03-27T13:08:04Z</time>
      </trkpt>
      <trkpt lat="46.04711" lon="6.31263">
        <ele>709.6</ele>
        <time>2021-03-27T13:08:05Z</time>
      </trkpt>
      <trkpt lat="46.04711" lon="6.31267">
        <ele>710</ele>
        <time>2021-03-27T13:08:06Z</time>
      </trkpt>
      <trkpt lat="46.04711" lon="6.31271">
        <ele>710</ele>
        <time>2021-03-27T13:08:07Z</time>
      </trkpt>
      <trkpt lat="46.04711" lon="6.31275">
        <ele>710.4</ele>
        <time>2021-03-27T13:08:08Z</time>
      </trkpt>
      <trkpt lat="46.04711" lon="6.31279">
        <ele>710.6</ele>
        <time>2021-03-27T13:08:09Z</time>
      </trkpt>
      <trkpt lat="46.04711" lon="6.31283">
        <ele>711</ele>
        <time>2021-03-27T13:08:10Z</time>
      </trkpt>
      <trkpt lat="46.04711" lon="6.31286">
        <ele>711</ele>
        <time>2021-03-27T13:08:11Z</time>
      </trkpt>
      <trkpt lat="46.0471" lon="6.3129">
        <ele>711.4</ele>
        <time>2021-03-27T13:08:12Z</time>
      </trkpt>
      <trkpt lat="46.0471" lon="6.31294">
        <ele>711.6</ele>
        <time>2021-03-27T13:08:13Z</time>
      </trkpt>
      <trkpt lat="46.0471" lon="6.31298">
        <ele>712</ele>
        <time>2021-03-27T13:08:14Z</time>
      </trkpt>
      <trkpt lat="46.0471" lon="6.31302">
        <ele>712.2</ele>
        <time>2021-03-27T13:08:15Z</time>
      </trkpt>
      <trkpt lat="46.0471" lon="6.31306">
        <ele>712.4</ele>
        <time>2021-03-27T13:08:16Z</time>
      </trkpt>
      <trkpt lat="46.0471" lon="6.3131">
        <ele>712.8</ele>
        <time>2021-03-27T13:08:17Z</time>
      </trkpt>
      <trkpt lat="46.0471" lon="6.31314">
        <ele>712.8</ele>
        <time>2021-03-27T13:08:18Z</time>
      </trkpt>
      <trkpt lat="46.04709" lon="6.31318">
        <ele>713</ele>
        <time>2021-03-27T13:08:19Z</time>
      </trkpt>
      <trkpt lat="46.04709" lon="6.31323">
        <ele>713.4</ele>
        <time>2021-03-27T13:08:20Z</time>
      </trkpt>
      <trkpt lat="46.04708" lon="6.31328">
        <ele>713.8</ele>
        <time>2021-03-27T13:08:21Z</time>
      </trkpt>
      <trkpt lat="46.04708" lon="6.31333">
        <ele>713.8</ele>
        <time>2021-03-27T13:08:22Z</time>
      </trkpt>
      <trkpt lat="46.04707" lon="6.31338">
        <ele>714</ele>
        <time>2021-03-27T13:08:23Z</time>
      </trkpt>
      <trkpt lat="46.04707" lon="6.31343">
        <ele>714.2</ele>
        <time>2021-03-27T13:08:24Z</time>
      </trkpt>
      <trkpt lat="46.04706" lon="6.31348">
        <ele>714.4</ele>
        <time>2021-03-27T13:08:25Z</time>
      </trkpt>
      <trkpt lat="46.04706" lon="6.31354">
        <ele>714.6</ele>
        <time>2021-03-27T13:08:26Z</time>
      </trkpt>
      <trkpt lat="46.04705" lon="6.31359">
        <ele>714.8</ele>
        <time>2021-03-27T13:08:27Z</time>
      </trkpt>
      <trkpt lat="46.04704" lon="6.31364">
        <ele>714.8</ele>
        <time>2021-03-27T13:08:28Z</time>
      </trkpt>
      <trkpt lat="46.04703" lon="6.31369">
        <ele>715.2</ele>
        <time>2021-03-27T13:08:29Z</time>
      </trkpt>
      <trkpt lat="46.04703" lon="6.31373">
        <ele>715.2</ele>
        <time>2021-03-27T13:08:30Z</time>
      </trkpt>
      <trkpt lat="46.04702" lon="6.31378">
        <ele>715.6</ele>
        <time>2021-03-27T13:08:31Z</time>
      </trkpt>
      <trkpt lat="46.04702" lon="6.31383">
        <ele>715.6</ele>
        <time>2021-03-27T13:08:32Z</time>
      </trkpt>
      <trkpt lat="46.047" lon="6.31388">
        <ele>715.8</ele>
        <time>2021-03-27T13:08:33Z</time>
      </trkpt>
      <trkpt lat="46.04699" lon="6.31393">
        <ele>715.8</ele>
        <time>2021-03-27T13:08:34Z</time>
      </trkpt>
      <trkpt lat="46.04697" lon="6.31398">
        <ele>716</ele>
        <time>2021-03-27T13:08:35Z</time>
      </trkpt>
      <trkpt lat="46.04696" lon="6.31404">
        <ele>716</ele>
        <time>2021-03-27T13:08:36Z</time>
      </trkpt>
      <trkpt lat="46.04694" lon="6.31409">
        <ele>716</ele>
        <time>2021-03-27T13:08:37Z</time>
      </trkpt>
      <trkpt lat="46.04692" lon="6.31414">
        <ele>716</ele>
        <time>2021-03-27T13:08:38Z</time>
      </trkpt>
      <trkpt lat="46.04691" lon="6.3142">
        <ele>716.2</ele>
        <time>2021-03-27T13:08:39Z</time>
      </trkpt>
      <trkpt lat="46.04689" lon="6.31426">
        <ele>716.2</ele>
        <time>2021-03-27T13:08:40Z</time>
      </trkpt>
      <trkpt lat="46.04688" lon="6.31432">
        <ele>716.2</ele>
        <time>2021-03-27T13:08:41Z</time>
      </trkpt>
      <trkpt lat="46.04687" lon="6.31438">
        <ele>716.4</ele>
        <time>2021-03-27T13:08:42Z</time>
      </trkpt>
      <trkpt lat="46.04686" lon="6.31444">
        <ele>716.6</ele>
        <time>2021-03-27T13:08:43Z</time>
      </trkpt>
      <trkpt lat="46.04685" lon="6.3145">
        <ele>716.8</ele>
        <time>2021-03-27T13:08:44Z</time>
      </trkpt>
      <trkpt lat="46.04684" lon="6.31456">
        <ele>717</ele>
        <time>2021-03-27T13:08:45Z</time>
      </trkpt>
      <trkpt lat="46.04684" lon="6.31463">
        <ele>717</ele>
        <time>2021-03-27T13:08:46Z</time>
      </trkpt>
      <trkpt lat="46.04683" lon="6.3147">
        <ele>717.2</ele>
        <time>2021-03-27T13:08:47Z</time>
      </trkpt>
      <trkpt lat="46.04684" lon="6.31477">
        <ele>717.2</ele>
        <time>2021-03-27T13:08:48Z</time>
      </trkpt>
      <trkpt lat="46.04684" lon="6.31484">
        <ele>717.2</ele>
        <time>2021-03-27T13:08:49Z</time>
      </trkpt>
      <trkpt lat="46.04685" lon="6.31491">
        <ele>717.2</ele>
        <time>2021-03-27T13:08:50Z</time>
      </trkpt>
      <trkpt lat="46.04685" lon="6.31499">
        <ele>717.2</ele>
        <time>2021-03-27T13:08:51Z</time>
      </trkpt>
      <trkpt lat="46.04685" lon="6.31507">
        <ele>717.2</ele>
        <time>2021-03-27T13:08:52Z</time>
      </trkpt>
      <trkpt lat="46.04685" lon="6.31514">
        <ele>717.4</ele>
        <time>2021-03-27T13:08:53Z</time>
      </trkpt>
      <trkpt lat="46.04686" lon="6.31522">
        <ele>717.2</ele>
        <time>2021-03-27T13:08:54Z</time>
      </trkpt>
      <trkpt lat="46.04685" lon="6.31531">
        <ele>717.4</ele>
        <time>2021-03-27T13:08:55Z</time>
      </trkpt>
      <trkpt lat="46.04684" lon="6.3154">
        <ele>717.4</ele>
        <time>2021-03-27T13:08:56Z</time>
      </trkpt>
      <trkpt lat="46.04681" lon="6.31557">
        <ele>717.6</ele>
        <time>2021-03-27T13:08:58Z</time>
      </trkpt>
      <trkpt lat="46.04679" lon="6.31564">
        <ele>717.6</ele>
        <time>2021-03-27T13:08:59Z</time>
      </trkpt>
      <trkpt lat="46.04676" lon="6.31571">
        <ele>717.6</ele>
        <time>2021-03-27T13:09:00Z</time>
      </trkpt>
      <trkpt lat="46.04674" lon="6.31577">
        <ele>717.6</ele>
        <time>2021-03-27T13:09:01Z</time>
      </trkpt>
      <trkpt lat="46.04672" lon="6.31583">
        <ele>717.6</ele>
        <time>2021-03-27T13:09:02Z</time>
      </trkpt>
      <trkpt lat="46.0467" lon="6.31588">
        <ele>717.6</ele>
        <time>2021-03-27T13:09:03Z</time>
      </trkpt>
      <trkpt lat="46.04667" lon="6.31592">
        <ele>717.6</ele>
        <time>2021-03-27T13:09:04Z</time>
      </trkpt>
      <trkpt lat="46.04664" lon="6.31595">
        <ele>717.6</ele>
        <time>2021-03-27T13:09:05Z</time>
      </trkpt>
      <trkpt lat="46.04657" lon="6.31595">
        <ele>718.2</ele>
        <time>2021-03-27T13:09:07Z</time>
      </trkpt>
      <trkpt lat="46.04653" lon="6.31593">
        <ele>718.6</ele>
        <time>2021-03-27T13:09:08Z</time>
      </trkpt>
      <trkpt lat="46.04648" lon="6.31587">
        <ele>719.2</ele>
        <time>2021-03-27T13:09:10Z</time>
      </trkpt>
      <trkpt lat="46.04647" lon="6.31582">
        <ele>719.8</ele>
        <time>2021-03-27T13:09:11Z</time>
      </trkpt>
      <trkpt lat="46.04647" lon="6.31577">
        <ele>720.2</ele>
        <time>2021-03-27T13:09:12Z</time>
      </trkpt>
      <trkpt lat="46.04648" lon="6.31572">
        <ele>720.8</ele>
        <time>2021-03-27T13:09:13Z</time>
      </trkpt>
      <trkpt lat="46.0465" lon="6.31568">
        <ele>721</ele>
        <time>2021-03-27T13:09:14Z</time>
      </trkpt>
      <trkpt lat="46.04652" lon="6.31563">
        <ele>721</ele>
        <time>2021-03-27T13:09:15Z</time>
      </trkpt>
      <trkpt lat="46.04654" lon="6.31559">
        <ele>721.2</ele>
        <time>2021-03-27T13:09:16Z</time>
      </trkpt>
      <trkpt lat="46.04656" lon="6.31555">
        <ele>721.6</ele>
        <time>2021-03-27T13:09:17Z</time>
      </trkpt>
      <trkpt lat="46.04656" lon="6.31551">
        <ele>721.6</ele>
        <time>2021-03-27T13:09:18Z</time>
      </trkpt>
      <trkpt lat="46.04657" lon="6.31547">
        <ele>721.8</ele>
        <time>2021-03-27T13:09:19Z</time>
      </trkpt>
      <trkpt lat="46.04656" lon="6.31543">
        <ele>721.8</ele>
        <time>2021-03-27T13:09:20Z</time>
      </trkpt>
      <trkpt lat="46.04656" lon="6.31538">
        <ele>722</ele>
        <time>2021-03-27T13:09:21Z</time>
      </trkpt>
      <trkpt lat="46.04655" lon="6.31535">
        <ele>722</ele>
        <time>2021-03-27T13:09:22Z</time>
      </trkpt>
      <trkpt lat="46.04655" lon="6.31532">
        <ele>722.4</ele>
        <time>2021-03-27T13:09:23Z</time>
      </trkpt>
      <trkpt lat="46.04655" lon="6.31529">
        <ele>722.8</ele>
        <time>2021-03-27T13:09:24Z</time>
      </trkpt>
      <trkpt lat="46.04655" lon="6.31525">
        <ele>722.8</ele>
        <time>2021-03-27T13:09:25Z</time>
      </trkpt>
      <trkpt lat="46.04655" lon="6.31522">
        <ele>723</ele>
        <time>2021-03-27T13:09:26Z</time>
      </trkpt>
      <trkpt lat="46.04655" lon="6.31519">
        <ele>723.2</ele>
        <time>2021-03-27T13:09:27Z</time>
      </trkpt>
      <trkpt lat="46.04656" lon="6.31515">
        <ele>723.4</ele>
        <time>2021-03-27T13:09:28Z</time>
      </trkpt>
      <trkpt lat="46.04655" lon="6.31511">
        <ele>723.6</ele>
        <time>2021-03-27T13:09:29Z</time>
      </trkpt>
      <trkpt lat="46.04654" lon="6.31507">
        <ele>723.8</ele>
        <time>2021-03-27T13:09:30Z</time>
      </trkpt>
      <trkpt lat="46.04654" lon="6.31503">
        <ele>724</ele>
        <time>2021-03-27T13:09:31Z</time>
      </trkpt>
      <trkpt lat="46.04652" lon="6.31499">
        <ele>724.2</ele>
        <time>2021-03-27T13:09:32Z</time>
      </trkpt>
      <trkpt lat="46.04651" lon="6.31495">
        <ele>724.4</ele>
        <time>2021-03-27T13:09:33Z</time>
      </trkpt>
      <trkpt lat="46.0465" lon="6.31491">
        <ele>724.6</ele>
        <time>2021-03-27T13:09:34Z</time>
      </trkpt>
      <trkpt lat="46.04649" lon="6.31488">
        <ele>724.6</ele>
        <time>2021-03-27T13:09:35Z</time>
      </trkpt>
      <trkpt lat="46.04649" lon="6.31483">
        <ele>725.2</ele>
        <time>2021-03-27T13:09:36Z</time>
      </trkpt>
      <trkpt lat="46.04649" lon="6.31479">
        <ele>725.4</ele>
        <time>2021-03-27T13:09:37Z</time>
      </trkpt>
      <trkpt lat="46.04649" lon="6.31476">
        <ele>725.8</ele>
        <time>2021-03-27T13:09:38Z</time>
      </trkpt>
      <trkpt lat="46.04649" lon="6.31472">
        <ele>726.2</ele>
        <time>2021-03-27T13:09:39Z</time>
      </trkpt>
      <trkpt lat="46.04649" lon="6.31468">
        <ele>726.4</ele>
        <time>2021-03-27T13:09:40Z</time>
      </trkpt>
      <trkpt lat="46.04648" lon="6.31463">
        <ele>726.8</ele>
        <time>2021-03-27T13:09:41Z</time>
      </trkpt>
      <trkpt lat="46.04647" lon="6.31458">
        <ele>726.8</ele>
        <time>2021-03-27T13:09:42Z</time>
      </trkpt>
      <trkpt lat="46.04647" lon="6.31453">
        <ele>727.2</ele>
        <time>2021-03-27T13:09:43Z</time>
      </trkpt>
      <trkpt lat="46.04646" lon="6.31447">
        <ele>727.4</ele>
        <time>2021-03-27T13:09:44Z</time>
      </trkpt>
      <trkpt lat="46.04646" lon="6.31441">
        <ele>727.4</ele>
        <time>2021-03-27T13:09:45Z</time>
      </trkpt>
      <trkpt lat="46.04646" lon="6.31435">
        <ele>727.6</ele>
        <time>2021-03-27T13:09:46Z</time>
      </trkpt>
      <trkpt lat="46.04646" lon="6.3143">
        <ele>727.8</ele>
        <time>2021-03-27T13:09:47Z</time>
      </trkpt>
      <trkpt lat="46.04645" lon="6.31424">
        <ele>727.8</ele>
        <time>2021-03-27T13:09:48Z</time>
      </trkpt>
      <trkpt lat="46.04645" lon="6.31419">
        <ele>728</ele>
        <time>2021-03-27T13:09:49Z</time>
      </trkpt>
      <trkpt lat="46.04645" lon="6.31414">
        <ele>728</ele>
        <time>2021-03-27T13:09:50Z</time>
      </trkpt>
      <trkpt lat="46.04644" lon="6.31409">
        <ele>728</ele>
        <time>2021-03-27T13:09:51Z</time>
      </trkpt>
      <trkpt lat="46.04644" lon="6.31404">
        <ele>728.2</ele>
        <time>2021-03-27T13:09:52Z</time>
      </trkpt>
      <trkpt lat="46.04645" lon="6.31399">
        <ele>728.6</ele>
        <time>2021-03-27T13:09:53Z</time>
      </trkpt>
      <trkpt lat="46.04645" lon="6.31394">
        <ele>728.8</ele>
        <time>2021-03-27T13:09:54Z</time>
      </trkpt>
      <trkpt lat="46.04646" lon="6.31389">
        <ele>729.2</ele>
        <time>2021-03-27T13:09:55Z</time>
      </trkpt>
      <trkpt lat="46.04646" lon="6.31384">
        <ele>729.4</ele>
        <time>2021-03-27T13:09:56Z</time>
      </trkpt>
      <trkpt lat="46.04647" lon="6.31379">
        <ele>729.6</ele>
        <time>2021-03-27T13:09:57Z</time>
      </trkpt>
      <trkpt lat="46.04648" lon="6.31374">
        <ele>730</ele>
        <time>2021-03-27T13:09:58Z</time>
      </trkpt>
      <trkpt lat="46.04649" lon="6.3137">
        <ele>730.4</ele>
        <time>2021-03-27T13:09:59Z</time>
      </trkpt>
      <trkpt lat="46.0465" lon="6.31366">
        <ele>730.6</ele>
        <time>2021-03-27T13:10:00Z</time>
      </trkpt>
      <trkpt lat="46.0465" lon="6.31361">
        <ele>731</ele>
        <time>2021-03-27T13:10:01Z</time>
      </trkpt>
      <trkpt lat="46.0465" lon="6.31357">
        <ele>731.2</ele>
        <time>2021-03-27T13:10:02Z</time>
      </trkpt>
      <trkpt lat="46.04651" lon="6.31352">
        <ele>731.4</ele>
        <time>2021-03-27T13:10:03Z</time>
      </trkpt>
      <trkpt lat="46.04651" lon="6.31347">
        <ele>731.8</ele>
        <time>2021-03-27T13:10:04Z</time>
      </trkpt>
      <trkpt lat="46.0465" lon="6.31342">
        <ele>732</ele>
        <time>2021-03-27T13:10:05Z</time>
      </trkpt>
      <trkpt lat="46.0465" lon="6.31338">
        <ele>732.2</ele>
        <time>2021-03-27T13:10:06Z</time>
      </trkpt>
      <trkpt lat="46.04648" lon="6.31334">
        <ele>732.4</ele>
        <time>2021-03-27T13:10:07Z</time>
      </trkpt>
      <trkpt lat="46.04646" lon="6.31331">
        <ele>732.6</ele>
        <time>2021-03-27T13:10:08Z</time>
      </trkpt>
      <trkpt lat="46.04643" lon="6.31329">
        <ele>732.6</ele>
        <time>2021-03-27T13:10:09Z</time>
      </trkpt>
      <trkpt lat="46.0464" lon="6.31327">
        <ele>733</ele>
        <time>2021-03-27T13:10:10Z</time>
      </trkpt>
      <trkpt lat="46.04637" lon="6.31326">
        <ele>733.4</ele>
        <time>2021-03-27T13:10:11Z</time>
      </trkpt>
      <trkpt lat="46.04634" lon="6.31327">
        <ele>733.6</ele>
        <time>2021-03-27T13:10:12Z</time>
      </trkpt>
      <trkpt lat="46.0463" lon="6.31328">
        <ele>733.6</ele>
        <time>2021-03-27T13:10:13Z</time>
      </trkpt>
      <trkpt lat="46.04628" lon="6.31331">
        <ele>733.8</ele>
        <time>2021-03-27T13:10:14Z</time>
      </trkpt>
      <trkpt lat="46.04625" lon="6.31334">
        <ele>734.2</ele>
        <time>2021-03-27T13:10:15Z</time>
      </trkpt>
      <trkpt lat="46.04623" lon="6.31337">
        <ele>734.4</ele>
        <time>2021-03-27T13:10:16Z</time>
      </trkpt>
      <trkpt lat="46.04621" lon="6.31341">
        <ele>734.4</ele>
        <time>2021-03-27T13:10:17Z</time>
      </trkpt>
      <trkpt lat="46.0462" lon="6.31344">
        <ele>734.6</ele>
        <time>2021-03-27T13:10:18Z</time>
      </trkpt>
      <trkpt lat="46.04619" lon="6.31348">
        <ele>735.2</ele>
        <time>2021-03-27T13:10:19Z</time>
      </trkpt>
      <trkpt lat="46.04618" lon="6.31352">
        <ele>735.4</ele>
        <time>2021-03-27T13:10:20Z</time>
      </trkpt>
      <trkpt lat="46.04616" lon="6.31357">
        <ele>735.8</ele>
        <time>2021-03-27T13:10:21Z</time>
      </trkpt>
      <trkpt lat="46.04615" lon="6.31361">
        <ele>736</ele>
        <time>2021-03-27T13:10:22Z</time>
      </trkpt>
      <trkpt lat="46.04614" lon="6.31365">
        <ele>736.4</ele>
        <time>2021-03-27T13:10:23Z</time>
      </trkpt>
      <trkpt lat="46.04612" lon="6.31369">
        <ele>736.8</ele>
        <time>2021-03-27T13:10:24Z</time>
      </trkpt>
      <trkpt lat="46.04612" lon="6.31373">
        <ele>737</ele>
        <time>2021-03-27T13:10:25Z</time>
      </trkpt>
      <trkpt lat="46.04611" lon="6.31377">
        <ele>737</ele>
        <time>2021-03-27T13:10:26Z</time>
      </trkpt>
      <trkpt lat="46.0461" lon="6.31381">
        <ele>737.4</ele>
        <time>2021-03-27T13:10:27Z</time>
      </trkpt>
      <trkpt lat="46.04609" lon="6.31385">
        <ele>737.6</ele>
        <time>2021-03-27T13:10:28Z</time>
      </trkpt>
      <trkpt lat="46.04608" lon="6.31388">
        <ele>737.8</ele>
        <time>2021-03-27T13:10:29Z</time>
      </trkpt>
      <trkpt lat="46.04607" lon="6.31392">
        <ele>737.8</ele>
        <time>2021-03-27T13:10:30Z</time>
      </trkpt>
      <trkpt lat="46.04606" lon="6.31396">
        <ele>738</ele>
        <time>2021-03-27T13:10:31Z</time>
      </trkpt>
      <trkpt lat="46.04604" lon="6.31399">
        <ele>738.4</ele>
        <time>2021-03-27T13:10:32Z</time>
      </trkpt>
      <trkpt lat="46.04603" lon="6.31403">
        <ele>738.8</ele>
        <time>2021-03-27T13:10:33Z</time>
      </trkpt>
      <trkpt lat="46.04602" lon="6.31406">
        <ele>739</ele>
        <time>2021-03-27T13:10:34Z</time>
      </trkpt>
      <trkpt lat="46.046" lon="6.31409">
        <ele>739.2</ele>
        <time>2021-03-27T13:10:35Z</time>
      </trkpt>
      <trkpt lat="46.04599" lon="6.31411">
        <ele>739.6</ele>
        <time>2021-03-27T13:10:36Z</time>
      </trkpt>
      <trkpt lat="46.04597" lon="6.31414">
        <ele>740</ele>
        <time>2021-03-27T13:10:37Z</time>
      </trkpt>
      <trkpt lat="46.04596" lon="6.31416">
        <ele>740.2</ele>
        <time>2021-03-27T13:10:38Z</time>
      </trkpt>
      <trkpt lat="46.04594" lon="6.31419">
        <ele>740.4</ele>
        <time>2021-03-27T13:10:39Z</time>
      </trkpt>
      <trkpt lat="46.04592" lon="6.31422">
        <ele>740.6</ele>
        <time>2021-03-27T13:10:40Z</time>
      </trkpt>
      <trkpt lat="46.0459" lon="6.31425">
        <ele>741</ele>
        <time>2021-03-27T13:10:41Z</time>
      </trkpt>
      <trkpt lat="46.04588" lon="6.31428">
        <ele>741.2</ele>
        <time>2021-03-27T13:10:42Z</time>
      </trkpt>
      <trkpt lat="46.04588" lon="6.3143">
        <ele>741.4</ele>
        <time>2021-03-27T13:10:43Z</time>
      </trkpt>
      <trkpt lat="46.04587" lon="6.31434">
        <ele>741.4</ele>
        <time>2021-03-27T13:10:44Z</time>
      </trkpt>
      <trkpt lat="46.04587" lon="6.31436">
        <ele>741.6</ele>
        <time>2021-03-27T13:10:45Z</time>
      </trkpt>
      <trkpt lat="46.04585" lon="6.31439">
        <ele>742.2</ele>
        <time>2021-03-27T13:10:46Z</time>
      </trkpt>
      <trkpt lat="46.04584" lon="6.31441">
        <ele>742.2</ele>
        <time>2021-03-27T13:10:47Z</time>
      </trkpt>
      <trkpt lat="46.04583" lon="6.31444">
        <ele>742.6</ele>
        <time>2021-03-27T13:10:48Z</time>
      </trkpt>
      <trkpt lat="46.04581" lon="6.31446">
        <ele>742.8</ele>
        <time>2021-03-27T13:10:49Z</time>
      </trkpt>
      <trkpt lat="46.04579" lon="6.31449">
        <ele>742.8</ele>
        <time>2021-03-27T13:10:50Z</time>
      </trkpt>
      <trkpt lat="46.04577" lon="6.31451">
        <ele>743</ele>
        <time>2021-03-27T13:10:51Z</time>
      </trkpt>
      <trkpt lat="46.04575" lon="6.31453">
        <ele>743</ele>
        <time>2021-03-27T13:10:52Z</time>
      </trkpt>
      <trkpt lat="46.04573" lon="6.31455">
        <ele>743.2</ele>
        <time>2021-03-27T13:10:53Z</time>
      </trkpt>
      <trkpt lat="46.04572" lon="6.31457">
        <ele>743.6</ele>
        <time>2021-03-27T13:10:54Z</time>
      </trkpt>
      <trkpt lat="46.0457" lon="6.3146">
        <ele>743.6</ele>
        <time>2021-03-27T13:10:55Z</time>
      </trkpt>
      <trkpt lat="46.04569" lon="6.31463">
        <ele>744</ele>
        <time>2021-03-27T13:10:56Z</time>
      </trkpt>
      <trkpt lat="46.04567" lon="6.31466">
        <ele>744.2</ele>
        <time>2021-03-27T13:10:57Z</time>
      </trkpt>
      <trkpt lat="46.04565" lon="6.3147">
        <ele>744.6</ele>
        <time>2021-03-27T13:10:58Z</time>
      </trkpt>
      <trkpt lat="46.04563" lon="6.31473">
        <ele>745</ele>
        <time>2021-03-27T13:10:59Z</time>
      </trkpt>
      <trkpt lat="46.04561" lon="6.31476">
        <ele>745.2</ele>
        <time>2021-03-27T13:11:00Z</time>
      </trkpt>
      <trkpt lat="46.04559" lon="6.31479">
        <ele>745.4</ele>
        <time>2021-03-27T13:11:01Z</time>
      </trkpt>
      <trkpt lat="46.04557" lon="6.31482">
        <ele>745.8</ele>
        <time>2021-03-27T13:11:02Z</time>
      </trkpt>
      <trkpt lat="46.04554" lon="6.31485">
        <ele>746</ele>
        <time>2021-03-27T13:11:03Z</time>
      </trkpt>
      <trkpt lat="46.04552" lon="6.31487">
        <ele>746.4</ele>
        <time>2021-03-27T13:11:04Z</time>
      </trkpt>
      <trkpt lat="46.0455" lon="6.31488">
        <ele>746.6</ele>
        <time>2021-03-27T13:11:05Z</time>
      </trkpt>
      <trkpt lat="46.04547" lon="6.3149">
        <ele>746.8</ele>
        <time>2021-03-27T13:11:06Z</time>
      </trkpt>
      <trkpt lat="46.04545" lon="6.31491">
        <ele>747</ele>
        <time>2021-03-27T13:11:07Z</time>
      </trkpt>
      <trkpt lat="46.04542" lon="6.31492">
        <ele>747.6</ele>
        <time>2021-03-27T13:11:08Z</time>
      </trkpt>
      <trkpt lat="46.0454" lon="6.31494">
        <ele>747.8</ele>
        <time>2021-03-27T13:11:09Z</time>
      </trkpt>
      <trkpt lat="46.04537" lon="6.31494">
        <ele>748</ele>
        <time>2021-03-27T13:11:10Z</time>
      </trkpt>
      <trkpt lat="46.04535" lon="6.31495">
        <ele>748.2</ele>
        <time>2021-03-27T13:11:11Z</time>
      </trkpt>
      <trkpt lat="46.04532" lon="6.31496">
        <ele>748.6</ele>
        <time>2021-03-27T13:11:12Z</time>
      </trkpt>
      <trkpt lat="46.04529" lon="6.31496">
        <ele>748.8</ele>
        <time>2021-03-27T13:11:13Z</time>
      </trkpt>
      <trkpt lat="46.04527" lon="6.31495">
        <ele>749.4</ele>
        <time>2021-03-27T13:11:14Z</time>
      </trkpt>
      <trkpt lat="46.04524" lon="6.31495">
        <ele>749.6</ele>
        <time>2021-03-27T13:11:15Z</time>
      </trkpt>
      <trkpt lat="46.04522" lon="6.31494">
        <ele>750</ele>
        <time>2021-03-27T13:11:16Z</time>
      </trkpt>
      <trkpt lat="46.04519" lon="6.31493">
        <ele>750.2</ele>
        <time>2021-03-27T13:11:17Z</time>
      </trkpt>
      <trkpt lat="46.04517" lon="6.31492">
        <ele>750.4</ele>
        <time>2021-03-27T13:11:18Z</time>
      </trkpt>
      <trkpt lat="46.04515" lon="6.31491">
        <ele>750.8</ele>
        <time>2021-03-27T13:11:19Z</time>
      </trkpt>
      <trkpt lat="46.04512" lon="6.31489">
        <ele>751</ele>
        <time>2021-03-27T13:11:20Z</time>
      </trkpt>
      <trkpt lat="46.0451" lon="6.31488">
        <ele>751.2</ele>
        <time>2021-03-27T13:11:21Z</time>
      </trkpt>
      <trkpt lat="46.04508" lon="6.31486">
        <ele>751.4</ele>
        <time>2021-03-27T13:11:22Z</time>
      </trkpt>
      <trkpt lat="46.04506" lon="6.31484">
        <ele>751.6</ele>
        <time>2021-03-27T13:11:23Z</time>
      </trkpt>
      <trkpt lat="46.04504" lon="6.31482">
        <ele>752</ele>
        <time>2021-03-27T13:11:24Z</time>
      </trkpt>
      <trkpt lat="46.04502" lon="6.31479">
        <ele>752</ele>
        <time>2021-03-27T13:11:25Z</time>
      </trkpt>
      <trkpt lat="46.045" lon="6.31477">
        <ele>752.2</ele>
        <time>2021-03-27T13:11:26Z</time>
      </trkpt>
      <trkpt lat="46.04498" lon="6.31475">
        <ele>752.4</ele>
        <time>2021-03-27T13:11:27Z</time>
      </trkpt>
      <trkpt lat="46.04497" lon="6.31473">
        <ele>752.6</ele>
        <time>2021-03-27T13:11:28Z</time>
      </trkpt>
      <trkpt lat="46.04496" lon="6.3147">
        <ele>752.6</ele>
        <time>2021-03-27T13:11:29Z</time>
      </trkpt>
      <trkpt lat="46.04494" lon="6.31466">
        <ele>753</ele>
        <time>2021-03-27T13:11:30Z</time>
      </trkpt>
      <trkpt lat="46.04493" lon="6.31463">
        <ele>753</ele>
        <time>2021-03-27T13:11:31Z</time>
      </trkpt>
      <trkpt lat="46.04491" lon="6.3146">
        <ele>753</ele>
        <time>2021-03-27T13:11:32Z</time>
      </trkpt>
      <trkpt lat="46.0449" lon="6.31457">
        <ele>753.2</ele>
        <time>2021-03-27T13:11:33Z</time>
      </trkpt>
      <trkpt lat="46.04488" lon="6.31453">
        <ele>753.4</ele>
        <time>2021-03-27T13:11:34Z</time>
      </trkpt>
      <trkpt lat="46.04486" lon="6.3145">
        <ele>753.6</ele>
        <time>2021-03-27T13:11:35Z</time>
      </trkpt>
      <trkpt lat="46.04485" lon="6.31447">
        <ele>753.8</ele>
        <time>2021-03-27T13:11:36Z</time>
      </trkpt>
      <trkpt lat="46.04483" lon="6.31444">
        <ele>754</ele>
        <time>2021-03-27T13:11:37Z</time>
      </trkpt>
      <trkpt lat="46.04481" lon="6.31442">
        <ele>754.6</ele>
        <time>2021-03-27T13:11:38Z</time>
      </trkpt>
      <trkpt lat="46.0448" lon="6.31439">
        <ele>755</ele>
        <time>2021-03-27T13:11:39Z</time>
      </trkpt>
      <trkpt lat="46.04479" lon="6.31435">
        <ele>755.2</ele>
        <time>2021-03-27T13:11:40Z</time>
      </trkpt>
      <trkpt lat="46.04477" lon="6.31432">
        <ele>755.4</ele>
        <time>2021-03-27T13:11:41Z</time>
      </trkpt>
      <trkpt lat="46.04476" lon="6.3143">
        <ele>755.8</ele>
        <time>2021-03-27T13:11:42Z</time>
      </trkpt>
      <trkpt lat="46.04474" lon="6.31428">
        <ele>756.2</ele>
        <time>2021-03-27T13:11:43Z</time>
      </trkpt>
      <trkpt lat="46.04472" lon="6.31425">
        <ele>756.4</ele>
        <time>2021-03-27T13:11:44Z</time>
      </trkpt>
      <trkpt lat="46.04471" lon="6.31422">
        <ele>756.4</ele>
        <time>2021-03-27T13:11:45Z</time>
      </trkpt>
      <trkpt lat="46.04469" lon="6.31419">
        <ele>756.4</ele>
        <time>2021-03-27T13:11:46Z</time>
      </trkpt>
      <trkpt lat="46.04468" lon="6.31416">
        <ele>756.6</ele>
        <time>2021-03-27T13:11:47Z</time>
      </trkpt>
      <trkpt lat="46.04466" lon="6.31413">
        <ele>757</ele>
        <time>2021-03-27T13:11:48Z</time>
      </trkpt>
      <trkpt lat="46.04465" lon="6.3141">
        <ele>757</ele>
        <time>2021-03-27T13:11:49Z</time>
      </trkpt>
      <trkpt lat="46.04463" lon="6.31407">
        <ele>757.4</ele>
        <time>2021-03-27T13:11:50Z</time>
      </trkpt>
      <trkpt lat="46.04461" lon="6.31404">
        <ele>757.6</ele>
        <time>2021-03-27T13:11:51Z</time>
      </trkpt>
      <trkpt lat="46.04459" lon="6.31402">
        <ele>757.8</ele>
        <time>2021-03-27T13:11:52Z</time>
      </trkpt>
      <trkpt lat="46.04457" lon="6.31399">
        <ele>758</ele>
        <time>2021-03-27T13:11:53Z</time>
      </trkpt>
      <trkpt lat="46.04456" lon="6.31396">
        <ele>758.2</ele>
        <time>2021-03-27T13:11:54Z</time>
      </trkpt>
      <trkpt lat="46.04455" lon="6.31393">
        <ele>758.4</ele>
        <time>2021-03-27T13:11:55Z</time>
      </trkpt>
      <trkpt lat="46.04453" lon="6.3139">
        <ele>758.6</ele>
        <time>2021-03-27T13:11:56Z</time>
      </trkpt>
      <trkpt lat="46.04451" lon="6.31387">
        <ele>758.8</ele>
        <time>2021-03-27T13:11:57Z</time>
      </trkpt>
      <trkpt lat="46.0445" lon="6.31384">
        <ele>759</ele>
        <time>2021-03-27T13:11:58Z</time>
      </trkpt>
      <trkpt lat="46.04449" lon="6.31381">
        <ele>758.8</ele>
        <time>2021-03-27T13:11:59Z</time>
      </trkpt>
      <trkpt lat="46.04448" lon="6.31378">
        <ele>759.2</ele>
        <time>2021-03-27T13:12:00Z</time>
      </trkpt>
      <trkpt lat="46.04448" lon="6.31375">
        <ele>759.6</ele>
        <time>2021-03-27T13:12:01Z</time>
      </trkpt>
      <trkpt lat="46.04447" lon="6.31371">
        <ele>760</ele>
        <time>2021-03-27T13:12:02Z</time>
      </trkpt>
      <trkpt lat="46.04447" lon="6.31368">
        <ele>760.2</ele>
        <time>2021-03-27T13:12:03Z</time>
      </trkpt>
      <trkpt lat="46.04446" lon="6.31364">
        <ele>760.6</ele>
        <time>2021-03-27T13:12:04Z</time>
      </trkpt>
      <trkpt lat="46.04446" lon="6.3136">
        <ele>760.6</ele>
        <time>2021-03-27T13:12:05Z</time>
      </trkpt>
      <trkpt lat="46.04445" lon="6.31356">
        <ele>760.8</ele>
        <time>2021-03-27T13:12:06Z</time>
      </trkpt>
      <trkpt lat="46.04445" lon="6.31352">
        <ele>760.8</ele>
        <time>2021-03-27T13:12:07Z</time>
      </trkpt>
      <trkpt lat="46.04445" lon="6.31347">
        <ele>761</ele>
        <time>2021-03-27T13:12:08Z</time>
      </trkpt>
      <trkpt lat="46.04445" lon="6.31343">
        <ele>761.2</ele>
        <time>2021-03-27T13:12:09Z</time>
      </trkpt>
      <trkpt lat="46.04444" lon="6.31338">
        <ele>761.4</ele>
        <time>2021-03-27T13:12:10Z</time>
      </trkpt>
      <trkpt lat="46.04445" lon="6.31333">
        <ele>761.8</ele>
        <time>2021-03-27T13:12:11Z</time>
      </trkpt>
      <trkpt lat="46.04445" lon="6.31328">
        <ele>762</ele>
        <time>2021-03-27T13:12:12Z</time>
      </trkpt>
      <trkpt lat="46.04445" lon="6.31322">
        <ele>762.2</ele>
        <time>2021-03-27T13:12:13Z</time>
      </trkpt>
      <trkpt lat="46.04445" lon="6.31317">
        <ele>762.4</ele>
        <time>2021-03-27T13:12:14Z</time>
      </trkpt>
      <trkpt lat="46.04445" lon="6.31312">
        <ele>762.6</ele>
        <time>2021-03-27T13:12:15Z</time>
      </trkpt>
      <trkpt lat="46.04445" lon="6.31306">
        <ele>763</ele>
        <time>2021-03-27T13:12:16Z</time>
      </trkpt>
      <trkpt lat="46.04445" lon="6.31301">
        <ele>763.2</ele>
        <time>2021-03-27T13:12:17Z</time>
      </trkpt>
      <trkpt lat="46.04445" lon="6.31295">
        <ele>763.4</ele>
        <time>2021-03-27T13:12:18Z</time>
      </trkpt>
      <trkpt lat="46.04445" lon="6.31289">
        <ele>763.4</ele>
        <time>2021-03-27T13:12:19Z</time>
      </trkpt>
      <trkpt lat="46.04446" lon="6.31284">
        <ele>763.6</ele>
        <time>2021-03-27T13:12:20Z</time>
      </trkpt>
      <trkpt lat="46.04446" lon="6.31279">
        <ele>763.6</ele>
        <time>2021-03-27T13:12:21Z</time>
      </trkpt>
      <trkpt lat="46.04446" lon="6.31274">
        <ele>763.8</ele>
        <time>2021-03-27T13:12:22Z</time>
      </trkpt>
      <trkpt lat="46.04446" lon="6.31269">
        <ele>764</ele>
        <time>2021-03-27T13:12:23Z</time>
      </trkpt>
      <trkpt lat="46.04446" lon="6.31265">
        <ele>764.2</ele>
        <time>2021-03-27T13:12:24Z</time>
      </trkpt>
      <trkpt lat="46.04447" lon="6.31259">
        <ele>764.2</ele>
        <time>2021-03-27T13:12:25Z</time>
      </trkpt>
      <trkpt lat="46.04447" lon="6.31254">
        <ele>764.2</ele>
        <time>2021-03-27T13:12:26Z</time>
      </trkpt>
      <trkpt lat="46.04448" lon="6.31248">
        <ele>764.2</ele>
        <time>2021-03-27T13:12:27Z</time>
      </trkpt>
      <trkpt lat="46.04449" lon="6.31242">
        <ele>764.4</ele>
        <time>2021-03-27T13:12:28Z</time>
      </trkpt>
      <trkpt lat="46.04449" lon="6.31236">
        <ele>764.4</ele>
        <time>2021-03-27T13:12:29Z</time>
      </trkpt>
      <trkpt lat="46.0445" lon="6.3123">
        <ele>764.4</ele>
        <time>2021-03-27T13:12:30Z</time>
      </trkpt>
      <trkpt lat="46.0445" lon="6.31224">
        <ele>764.4</ele>
        <time>2021-03-27T13:12:31Z</time>
      </trkpt>
      <trkpt lat="46.04451" lon="6.31218">
        <ele>764.4</ele>
        <time>2021-03-27T13:12:32Z</time>
      </trkpt>
      <trkpt lat="46.04451" lon="6.31212">
        <ele>764.4</ele>
        <time>2021-03-27T13:12:33Z</time>
      </trkpt>
      <trkpt lat="46.04452" lon="6.31205">
        <ele>764.4</ele>
        <time>2021-03-27T13:12:34Z</time>
      </trkpt>
      <trkpt lat="46.04453" lon="6.31198">
        <ele>764.4</ele>
        <time>2021-03-27T13:12:35Z</time>
      </trkpt>
      <trkpt lat="46.04453" lon="6.31192">
        <ele>764.4</ele>
        <time>2021-03-27T13:12:36Z</time>
      </trkpt>
      <trkpt lat="46.04453" lon="6.31185">
        <ele>764.4</ele>
        <time>2021-03-27T13:12:37Z</time>
      </trkpt>
      <trkpt lat="46.04454" lon="6.31178">
        <ele>764.4</ele>
        <time>2021-03-27T13:12:38Z</time>
      </trkpt>
      <trkpt lat="46.04454" lon="6.31171">
        <ele>764.6</ele>
        <time>2021-03-27T13:12:39Z</time>
      </trkpt>
      <trkpt lat="46.04453" lon="6.31165">
        <ele>764.6</ele>
        <time>2021-03-27T13:12:40Z</time>
      </trkpt>
      <trkpt lat="46.04453" lon="6.31159">
        <ele>764.4</ele>
        <time>2021-03-27T13:12:41Z</time>
      </trkpt>
      <trkpt lat="46.04451" lon="6.31153">
        <ele>764.6</ele>
        <time>2021-03-27T13:12:42Z</time>
      </trkpt>
      <trkpt lat="46.0445" lon="6.31147">
        <ele>764.6</ele>
        <time>2021-03-27T13:12:43Z</time>
      </trkpt>
      <trkpt lat="46.04448" lon="6.31141">
        <ele>764.6</ele>
        <time>2021-03-27T13:12:44Z</time>
      </trkpt>
      <trkpt lat="46.04445" lon="6.31135">
        <ele>764.6</ele>
        <time>2021-03-27T13:12:45Z</time>
      </trkpt>
      <trkpt lat="46.04442" lon="6.31129">
        <ele>764.6</ele>
        <time>2021-03-27T13:12:46Z</time>
      </trkpt>
      <trkpt lat="46.04439" lon="6.31124">
        <ele>764.4</ele>
        <time>2021-03-27T13:12:47Z</time>
      </trkpt>
      <trkpt lat="46.04434" lon="6.31119">
        <ele>764.4</ele>
        <time>2021-03-27T13:12:48Z</time>
      </trkpt>
      <trkpt lat="46.04429" lon="6.31114">
        <ele>764.4</ele>
        <time>2021-03-27T13:12:49Z</time>
      </trkpt>
      <trkpt lat="46.04423" lon="6.31108">
        <ele>764.4</ele>
        <time>2021-03-27T13:12:50Z</time>
      </trkpt>
      <trkpt lat="46.04419" lon="6.31102">
        <ele>764.2</ele>
        <time>2021-03-27T13:12:51Z</time>
      </trkpt>
      <trkpt lat="46.04415" lon="6.31095">
        <ele>764.4</ele>
        <time>2021-03-27T13:12:52Z</time>
      </trkpt>
      <trkpt lat="46.04411" lon="6.31088">
        <ele>764</ele>
        <time>2021-03-27T13:12:53Z</time>
      </trkpt>
      <trkpt lat="46.04407" lon="6.31082">
        <ele>763.4</ele>
        <time>2021-03-27T13:12:54Z</time>
      </trkpt>
      <trkpt lat="46.04404" lon="6.31075">
        <ele>762.6</ele>
        <time>2021-03-27T13:12:55Z</time>
      </trkpt>
      <trkpt lat="46.044" lon="6.31068">
        <ele>761.6</ele>
        <time>2021-03-27T13:12:56Z</time>
      </trkpt>
      <trkpt lat="46.04397" lon="6.31059">
        <ele>761</ele>
        <time>2021-03-27T13:12:57Z</time>
      </trkpt>
      <trkpt lat="46.04394" lon="6.3105">
        <ele>760.6</ele>
        <time>2021-03-27T13:12:58Z</time>
      </trkpt>
      <trkpt lat="46.04391" lon="6.31041">
        <ele>760.2</ele>
        <time>2021-03-27T13:12:59Z</time>
      </trkpt>
      <trkpt lat="46.04389" lon="6.31032">
        <ele>760.2</ele>
        <time>2021-03-27T13:13:00Z</time>
      </trkpt>
      <trkpt lat="46.04388" lon="6.31023">
        <ele>760</ele>
        <time>2021-03-27T13:13:01Z</time>
      </trkpt>
      <trkpt lat="46.04388" lon="6.31015">
        <ele>760</ele>
        <time>2021-03-27T13:13:02Z</time>
      </trkpt>
      <trkpt lat="46.04387" lon="6.31006">
        <ele>759.8</ele>
        <time>2021-03-27T13:13:03Z</time>
      </trkpt>
      <trkpt lat="46.04387" lon="6.30997">
        <ele>759.8</ele>
        <time>2021-03-27T13:13:04Z</time>
      </trkpt>
      <trkpt lat="46.04388" lon="6.30989">
        <ele>759.8</ele>
        <time>2021-03-27T13:13:05Z</time>
      </trkpt>
      <trkpt lat="46.04389" lon="6.30982">
        <ele>760</ele>
        <time>2021-03-27T13:13:06Z</time>
      </trkpt>
      <trkpt lat="46.04389" lon="6.30975">
        <ele>759.8</ele>
        <time>2021-03-27T13:13:07Z</time>
      </trkpt>
      <trkpt lat="46.0439" lon="6.3097">
        <ele>759.8</ele>
        <time>2021-03-27T13:13:08Z</time>
      </trkpt>
      <trkpt lat="46.0439" lon="6.30965">
        <ele>760</ele>
        <time>2021-03-27T13:13:09Z</time>
      </trkpt>
      <trkpt lat="46.0439" lon="6.30961">
        <ele>759.8</ele>
        <time>2021-03-27T13:13:10Z</time>
      </trkpt>
      <trkpt lat="46.04391" lon="6.30957">
        <ele>759.8</ele>
        <time>2021-03-27T13:13:11Z</time>
      </trkpt>
      <trkpt lat="46.0439" lon="6.30953">
        <ele>760</ele>
        <time>2021-03-27T13:13:12Z</time>
      </trkpt>
      <trkpt lat="46.0439" lon="6.30949">
        <ele>760</ele>
        <time>2021-03-27T13:13:13Z</time>
      </trkpt>
      <trkpt lat="46.0439" lon="6.30946">
        <ele>760.2</ele>
        <time>2021-03-27T13:13:14Z</time>
      </trkpt>
      <trkpt lat="46.04391" lon="6.30942">
        <ele>760.6</ele>
        <time>2021-03-27T13:13:15Z</time>
      </trkpt>
      <trkpt lat="46.04392" lon="6.30938">
        <ele>761.6</ele>
        <time>2021-03-27T13:13:16Z</time>
      </trkpt>
      <trkpt lat="46.04392" lon="6.30935">
        <ele>762.6</ele>
        <time>2021-03-27T13:13:17Z</time>
      </trkpt>
      <trkpt lat="46.04393" lon="6.30931">
        <ele>763.4</ele>
        <time>2021-03-27T13:13:18Z</time>
      </trkpt>
      <trkpt lat="46.04393" lon="6.30927">
        <ele>763.8</ele>
        <time>2021-03-27T13:13:19Z</time>
      </trkpt>
      <trkpt lat="46.04394" lon="6.30924">
        <ele>764.4</ele>
        <time>2021-03-27T13:13:20Z</time>
      </trkpt>
      <trkpt lat="46.04395" lon="6.3092">
        <ele>764.8</ele>
        <time>2021-03-27T13:13:21Z</time>
      </trkpt>
      <trkpt lat="46.04396" lon="6.30917">
        <ele>765.4</ele>
        <time>2021-03-27T13:13:22Z</time>
      </trkpt>
      <trkpt lat="46.04396" lon="6.30913">
        <ele>765.6</ele>
        <time>2021-03-27T13:13:23Z</time>
      </trkpt>
      <trkpt lat="46.04397" lon="6.3091">
        <ele>766</ele>
        <time>2021-03-27T13:13:24Z</time>
      </trkpt>
      <trkpt lat="46.04398" lon="6.30907">
        <ele>766.4</ele>
        <time>2021-03-27T13:13:25Z</time>
      </trkpt>
      <trkpt lat="46.04398" lon="6.30903">
        <ele>766.6</ele>
        <time>2021-03-27T13:13:26Z</time>
      </trkpt>
      <trkpt lat="46.04399" lon="6.309">
        <ele>767.2</ele>
        <time>2021-03-27T13:13:27Z</time>
      </trkpt>
      <trkpt lat="46.044" lon="6.30897">
        <ele>767.4</ele>
        <time>2021-03-27T13:13:28Z</time>
      </trkpt>
      <trkpt lat="46.044" lon="6.30893">
        <ele>767.8</ele>
        <time>2021-03-27T13:13:29Z</time>
      </trkpt>
      <trkpt lat="46.04401" lon="6.3089">
        <ele>768</ele>
        <time>2021-03-27T13:13:30Z</time>
      </trkpt>
      <trkpt lat="46.04402" lon="6.30887">
        <ele>768.4</ele>
        <time>2021-03-27T13:13:31Z</time>
      </trkpt>
      <trkpt lat="46.04403" lon="6.30883">
        <ele>768.8</ele>
        <time>2021-03-27T13:13:32Z</time>
      </trkpt>
      <trkpt lat="46.04403" lon="6.30879">
        <ele>769</ele>
        <time>2021-03-27T13:13:33Z</time>
      </trkpt>
      <trkpt lat="46.04404" lon="6.30876">
        <ele>769.4</ele>
        <time>2021-03-27T13:13:34Z</time>
      </trkpt>
      <trkpt lat="46.04404" lon="6.30872">
        <ele>769.8</ele>
        <time>2021-03-27T13:13:35Z</time>
      </trkpt>
      <trkpt lat="46.04405" lon="6.30869">
        <ele>770.2</ele>
        <time>2021-03-27T13:13:36Z</time>
      </trkpt>
      <trkpt lat="46.04406" lon="6.30866">
        <ele>770.6</ele>
        <time>2021-03-27T13:13:37Z</time>
      </trkpt>
      <trkpt lat="46.04407" lon="6.30862">
        <ele>770.8</ele>
        <time>2021-03-27T13:13:38Z</time>
      </trkpt>
      <trkpt lat="46.04408" lon="6.30859">
        <ele>771.2</ele>
        <time>2021-03-27T13:13:39Z</time>
      </trkpt>
      <trkpt lat="46.04408" lon="6.30855">
        <ele>771.6</ele>
        <time>2021-03-27T13:13:40Z</time>
      </trkpt>
      <trkpt lat="46.04409" lon="6.30852">
        <ele>771.6</ele>
        <time>2021-03-27T13:13:41Z</time>
      </trkpt>
      <trkpt lat="46.04409" lon="6.30848">
        <ele>772.2</ele>
        <time>2021-03-27T13:13:42Z</time>
      </trkpt>
      <trkpt lat="46.0441" lon="6.30844">
        <ele>772.2</ele>
        <time>2021-03-27T13:13:43Z</time>
      </trkpt>
      <trkpt lat="46.04411" lon="6.30841">
        <ele>772.6</ele>
        <time>2021-03-27T13:13:44Z</time>
      </trkpt>
      <trkpt lat="46.04412" lon="6.30837">
        <ele>773</ele>
        <time>2021-03-27T13:13:45Z</time>
      </trkpt>
      <trkpt lat="46.04413" lon="6.30833">
        <ele>773.2</ele>
        <time>2021-03-27T13:13:46Z</time>
      </trkpt>
      <trkpt lat="46.04414" lon="6.30829">
        <ele>773.4</ele>
        <time>2021-03-27T13:13:47Z</time>
      </trkpt>
      <trkpt lat="46.04415" lon="6.30825">
        <ele>773.4</ele>
        <time>2021-03-27T13:13:48Z</time>
      </trkpt>
      <trkpt lat="46.04415" lon="6.3082">
        <ele>773.8</ele>
        <time>2021-03-27T13:13:49Z</time>
      </trkpt>
      <trkpt lat="46.04416" lon="6.30816">
        <ele>774.2</ele>
        <time>2021-03-27T13:13:50Z</time>
      </trkpt>
      <trkpt lat="46.04416" lon="6.30812">
        <ele>774.4</ele>
        <time>2021-03-27T13:13:51Z</time>
      </trkpt>
      <trkpt lat="46.04417" lon="6.30808">
        <ele>774.4</ele>
        <time>2021-03-27T13:13:52Z</time>
      </trkpt>
      <trkpt lat="46.04418" lon="6.30804">
        <ele>774.6</ele>
        <time>2021-03-27T13:13:53Z</time>
      </trkpt>
      <trkpt lat="46.04419" lon="6.308">
        <ele>774.8</ele>
        <time>2021-03-27T13:13:54Z</time>
      </trkpt>
      <trkpt lat="46.0442" lon="6.30795">
        <ele>775</ele>
        <time>2021-03-27T13:13:55Z</time>
      </trkpt>
      <trkpt lat="46.04421" lon="6.30791">
        <ele>775.4</ele>
        <time>2021-03-27T13:13:56Z</time>
      </trkpt>
      <trkpt lat="46.04422" lon="6.30787">
        <ele>775.8</ele>
        <time>2021-03-27T13:13:57Z</time>
      </trkpt>
      <trkpt lat="46.04423" lon="6.30782">
        <ele>775.8</ele>
        <time>2021-03-27T13:13:58Z</time>
      </trkpt>
      <trkpt lat="46.04423" lon="6.30777">
        <ele>776</ele>
        <time>2021-03-27T13:13:59Z</time>
      </trkpt>
      <trkpt lat="46.04424" lon="6.30772">
        <ele>776.2</ele>
        <time>2021-03-27T13:14:00Z</time>
      </trkpt>
      <trkpt lat="46.04424" lon="6.30766">
        <ele>776.2</ele>
        <time>2021-03-27T13:14:01Z</time>
      </trkpt>
      <trkpt lat="46.04424" lon="6.30761">
        <ele>776.2</ele>
        <time>2021-03-27T13:14:02Z</time>
      </trkpt>
      <trkpt lat="46.04425" lon="6.30756">
        <ele>776.4</ele>
        <time>2021-03-27T13:14:03Z</time>
      </trkpt>
      <trkpt lat="46.04425" lon="6.3075">
        <ele>776.4</ele>
        <time>2021-03-27T13:14:04Z</time>
      </trkpt>
      <trkpt lat="46.04424" lon="6.30744">
        <ele>776.6</ele>
        <time>2021-03-27T13:14:05Z</time>
      </trkpt>
      <trkpt lat="46.04423" lon="6.30739">
        <ele>776.6</ele>
        <time>2021-03-27T13:14:06Z</time>
      </trkpt>
      <trkpt lat="46.04422" lon="6.30733">
        <ele>776.6</ele>
        <time>2021-03-27T13:14:07Z</time>
      </trkpt>
      <trkpt lat="46.04421" lon="6.30727">
        <ele>776.6</ele>
        <time>2021-03-27T13:14:08Z</time>
      </trkpt>
      <trkpt lat="46.04421" lon="6.30721">
        <ele>776.8</ele>
        <time>2021-03-27T13:14:09Z</time>
      </trkpt>
      <trkpt lat="46.0442" lon="6.30715">
        <ele>776.8</ele>
        <time>2021-03-27T13:14:10Z</time>
      </trkpt>
      <trkpt lat="46.0442" lon="6.30709">
        <ele>776.8</ele>
        <time>2021-03-27T13:14:11Z</time>
      </trkpt>
      <trkpt lat="46.0442" lon="6.30703">
        <ele>776.8</ele>
        <time>2021-03-27T13:14:12Z</time>
      </trkpt>
      <trkpt lat="46.0442" lon="6.30697">
        <ele>776.8</ele>
        <time>2021-03-27T13:14:13Z</time>
      </trkpt>
      <trkpt lat="46.04421" lon="6.3069">
        <ele>776.8</ele>
        <time>2021-03-27T13:14:14Z</time>
      </trkpt>
      <trkpt lat="46.04422" lon="6.30684">
        <ele>777</ele>
        <time>2021-03-27T13:14:15Z</time>
      </trkpt>
      <trkpt lat="46.04423" lon="6.30677">
        <ele>776.8</ele>
        <time>2021-03-27T13:14:16Z</time>
      </trkpt>
      <trkpt lat="46.04423" lon="6.30671">
        <ele>776.8</ele>
        <time>2021-03-27T13:14:17Z</time>
      </trkpt>
      <trkpt lat="46.04423" lon="6.30665">
        <ele>776.8</ele>
        <time>2021-03-27T13:14:18Z</time>
      </trkpt>
      <trkpt lat="46.04423" lon="6.30659">
        <ele>776.6</ele>
        <time>2021-03-27T13:14:19Z</time>
      </trkpt>
      <trkpt lat="46.04422" lon="6.30654">
        <ele>776.6</ele>
        <time>2021-03-27T13:14:20Z</time>
      </trkpt>
      <trkpt lat="46.0442" lon="6.30649">
        <ele>776.8</ele>
        <time>2021-03-27T13:14:21Z</time>
      </trkpt>
      <trkpt lat="46.04418" lon="6.30645">
        <ele>776.8</ele>
        <time>2021-03-27T13:14:22Z</time>
      </trkpt>
      <trkpt lat="46.04417" lon="6.3064">
        <ele>776.8</ele>
        <time>2021-03-27T13:14:23Z</time>
      </trkpt>
      <trkpt lat="46.04416" lon="6.30636">
        <ele>776.8</ele>
        <time>2021-03-27T13:14:24Z</time>
      </trkpt>
      <trkpt lat="46.04416" lon="6.30631">
        <ele>776.8</ele>
        <time>2021-03-27T13:14:25Z</time>
      </trkpt>
      <trkpt lat="46.04416" lon="6.30627">
        <ele>776.8</ele>
        <time>2021-03-27T13:14:26Z</time>
      </trkpt>
      <trkpt lat="46.04416" lon="6.30622">
        <ele>777</ele>
        <time>2021-03-27T13:14:27Z</time>
      </trkpt>
      <trkpt lat="46.04416" lon="6.30617">
        <ele>777.2</ele>
        <time>2021-03-27T13:14:28Z</time>
      </trkpt>
      <trkpt lat="46.04417" lon="6.30612">
        <ele>777.4</ele>
        <time>2021-03-27T13:14:29Z</time>
      </trkpt>
      <trkpt lat="46.04418" lon="6.30607">
        <ele>777.8</ele>
        <time>2021-03-27T13:14:30Z</time>
      </trkpt>
      <trkpt lat="46.04419" lon="6.30603">
        <ele>778</ele>
        <time>2021-03-27T13:14:31Z</time>
      </trkpt>
      <trkpt lat="46.04421" lon="6.30597">
        <ele>778.4</ele>
        <time>2021-03-27T13:14:32Z</time>
      </trkpt>
      <trkpt lat="46.04422" lon="6.30592">
        <ele>778.6</ele>
        <time>2021-03-27T13:14:33Z</time>
      </trkpt>
      <trkpt lat="46.04422" lon="6.30586">
        <ele>778.8</ele>
        <time>2021-03-27T13:14:34Z</time>
      </trkpt>
      <trkpt lat="46.04423" lon="6.3058">
        <ele>779.2</ele>
        <time>2021-03-27T13:14:35Z</time>
      </trkpt>
      <trkpt lat="46.04424" lon="6.30574">
        <ele>779.2</ele>
        <time>2021-03-27T13:14:36Z</time>
      </trkpt>
      <trkpt lat="46.04426" lon="6.30567">
        <ele>779.2</ele>
        <time>2021-03-27T13:14:37Z</time>
      </trkpt>
      <trkpt lat="46.04427" lon="6.30561">
        <ele>779.4</ele>
        <time>2021-03-27T13:14:38Z</time>
      </trkpt>
      <trkpt lat="46.04429" lon="6.30554">
        <ele>779.4</ele>
        <time>2021-03-27T13:14:39Z</time>
      </trkpt>
      <trkpt lat="46.0443" lon="6.30547">
        <ele>779.4</ele>
        <time>2021-03-27T13:14:40Z</time>
      </trkpt>
      <trkpt lat="46.04431" lon="6.30539">
        <ele>779.6</ele>
        <time>2021-03-27T13:14:41Z</time>
      </trkpt>
      <trkpt lat="46.04433" lon="6.30532">
        <ele>779.4</ele>
        <time>2021-03-27T13:14:42Z</time>
      </trkpt>
      <trkpt lat="46.04434" lon="6.30524">
        <ele>779.4</ele>
        <time>2021-03-27T13:14:43Z</time>
      </trkpt>
      <trkpt lat="46.04436" lon="6.30516">
        <ele>779.6</ele>
        <time>2021-03-27T13:14:44Z</time>
      </trkpt>
      <trkpt lat="46.04438" lon="6.30509">
        <ele>779.6</ele>
        <time>2021-03-27T13:14:45Z</time>
      </trkpt>
      <trkpt lat="46.04439" lon="6.30501">
        <ele>779.2</ele>
        <time>2021-03-27T13:14:46Z</time>
      </trkpt>
      <trkpt lat="46.04441" lon="6.30493">
        <ele>779</ele>
        <time>2021-03-27T13:14:47Z</time>
      </trkpt>
      <trkpt lat="46.04443" lon="6.30484">
        <ele>779.2</ele>
        <time>2021-03-27T13:14:48Z</time>
      </trkpt>
      <trkpt lat="46.04445" lon="6.30476">
        <ele>778.8</ele>
        <time>2021-03-27T13:14:49Z</time>
      </trkpt>
      <trkpt lat="46.04446" lon="6.30468">
        <ele>778.8</ele>
        <time>2021-03-27T13:14:50Z</time>
      </trkpt>
      <trkpt lat="46.04448" lon="6.3046">
        <ele>778.6</ele>
        <time>2021-03-27T13:14:51Z</time>
      </trkpt>
      <trkpt lat="46.04449" lon="6.30452">
        <ele>778.4</ele>
        <time>2021-03-27T13:14:52Z</time>
      </trkpt>
      <trkpt lat="46.04449" lon="6.30444">
        <ele>778.2</ele>
        <time>2021-03-27T13:14:53Z</time>
      </trkpt>
      <trkpt lat="46.0445" lon="6.30437">
        <ele>778.2</ele>
        <time>2021-03-27T13:14:54Z</time>
      </trkpt>
      <trkpt lat="46.04451" lon="6.3043">
        <ele>778</ele>
        <time>2021-03-27T13:14:55Z</time>
      </trkpt>
      <trkpt lat="46.04451" lon="6.30423">
        <ele>778</ele>
        <time>2021-03-27T13:14:56Z</time>
      </trkpt>
      <trkpt lat="46.04451" lon="6.30416">
        <ele>778</ele>
        <time>2021-03-27T13:14:57Z</time>
      </trkpt>
      <trkpt lat="46.04451" lon="6.30408">
        <ele>777.8</ele>
        <time>2021-03-27T13:14:58Z</time>
      </trkpt>
      <trkpt lat="46.04451" lon="6.30401">
        <ele>777.8</ele>
        <time>2021-03-27T13:14:59Z</time>
      </trkpt>
      <trkpt lat="46.04451" lon="6.30393">
        <ele>777.8</ele>
        <time>2021-03-27T13:15:00Z</time>
      </trkpt>
      <trkpt lat="46.04451" lon="6.30385">
        <ele>777.8</ele>
        <time>2021-03-27T13:15:01Z</time>
      </trkpt>
      <trkpt lat="46.04451" lon="6.30377">
        <ele>777.8</ele>
        <time>2021-03-27T13:15:02Z</time>
      </trkpt>
      <trkpt lat="46.0445" lon="6.3037">
        <ele>777.6</ele>
        <time>2021-03-27T13:15:03Z</time>
      </trkpt>
      <trkpt lat="46.0445" lon="6.30362">
        <ele>777.8</ele>
        <time>2021-03-27T13:15:04Z</time>
      </trkpt>
      <trkpt lat="46.04449" lon="6.30355">
        <ele>777.8</ele>
        <time>2021-03-27T13:15:05Z</time>
      </trkpt>
      <trkpt lat="46.04449" lon="6.30347">
        <ele>777.8</ele>
        <time>2021-03-27T13:15:06Z</time>
      </trkpt>
      <trkpt lat="46.04448" lon="6.3034">
        <ele>778</ele>
        <time>2021-03-27T13:15:07Z</time>
      </trkpt>
      <trkpt lat="46.04447" lon="6.30334">
        <ele>778</ele>
        <time>2021-03-27T13:15:08Z</time>
      </trkpt>
      <trkpt lat="46.04445" lon="6.30327">
        <ele>778.2</ele>
        <time>2021-03-27T13:15:09Z</time>
      </trkpt>
      <trkpt lat="46.04444" lon="6.30322">
        <ele>778.2</ele>
        <time>2021-03-27T13:15:10Z</time>
      </trkpt>
      <trkpt lat="46.04443" lon="6.30317">
        <ele>778.4</ele>
        <time>2021-03-27T13:15:11Z</time>
      </trkpt>
      <trkpt lat="46.04443" lon="6.30311">
        <ele>778.4</ele>
        <time>2021-03-27T13:15:12Z</time>
      </trkpt>
      <trkpt lat="46.04442" lon="6.30306">
        <ele>778.8</ele>
        <time>2021-03-27T13:15:13Z</time>
      </trkpt>
      <trkpt lat="46.04442" lon="6.303">
        <ele>778.8</ele>
        <time>2021-03-27T13:15:14Z</time>
      </trkpt>
      <trkpt lat="46.04441" lon="6.30293">
        <ele>778.6</ele>
        <time>2021-03-27T13:15:15Z</time>
      </trkpt>
      <trkpt lat="46.04441" lon="6.30287">
        <ele>779</ele>
        <time>2021-03-27T13:15:16Z</time>
      </trkpt>
      <trkpt lat="46.04441" lon="6.3028">
        <ele>779.2</ele>
        <time>2021-03-27T13:15:17Z</time>
      </trkpt>
      <trkpt lat="46.04441" lon="6.30273">
        <ele>779.4</ele>
        <time>2021-03-27T13:15:18Z</time>
      </trkpt>
      <trkpt lat="46.04441" lon="6.30266">
        <ele>779.6</ele>
        <time>2021-03-27T13:15:19Z</time>
      </trkpt>
      <trkpt lat="46.04441" lon="6.30258">
        <ele>779.6</ele>
        <time>2021-03-27T13:15:20Z</time>
      </trkpt>
      <trkpt lat="46.04441" lon="6.3025">
        <ele>779.4</ele>
        <time>2021-03-27T13:15:21Z</time>
      </trkpt>
      <trkpt lat="46.04441" lon="6.30243">
        <ele>779.4</ele>
        <time>2021-03-27T13:15:22Z</time>
      </trkpt>
      <trkpt lat="46.04441" lon="6.30226">
        <ele>779.6</ele>
        <time>2021-03-27T13:15:24Z</time>
      </trkpt>
      <trkpt lat="46.04442" lon="6.30218">
        <ele>779.6</ele>
        <time>2021-03-27T13:15:25Z</time>
      </trkpt>
      <trkpt lat="46.04445" lon="6.30209">
        <ele>779.6</ele>
        <time>2021-03-27T13:15:26Z</time>
      </trkpt>
      <trkpt lat="46.04448" lon="6.302">
        <ele>779.6</ele>
        <time>2021-03-27T13:15:27Z</time>
      </trkpt>
      <trkpt lat="46.04454" lon="6.30191">
        <ele>779.6</ele>
        <time>2021-03-27T13:15:28Z</time>
      </trkpt>
      <trkpt lat="46.0446" lon="6.30182">
        <ele>779.4</ele>
        <time>2021-03-27T13:15:29Z</time>
      </trkpt>
      <trkpt lat="46.04466" lon="6.30175">
        <ele>779.2</ele>
        <time>2021-03-27T13:15:30Z</time>
      </trkpt>
      <trkpt lat="46.04478" lon="6.30163">
        <ele>778.8</ele>
        <time>2021-03-27T13:15:32Z</time>
      </trkpt>
      <trkpt lat="46.04484" lon="6.30159">
        <ele>778.6</ele>
        <time>2021-03-27T13:15:33Z</time>
      </trkpt>
      <trkpt lat="46.04488" lon="6.30156">
        <ele>778.2</ele>
        <time>2021-03-27T13:15:34Z</time>
      </trkpt>
      <trkpt lat="46.04492" lon="6.30153">
        <ele>777.8</ele>
        <time>2021-03-27T13:15:35Z</time>
      </trkpt>
      <trkpt lat="46.04495" lon="6.30149">
        <ele>776.8</ele>
        <time>2021-03-27T13:15:36Z</time>
      </trkpt>
      <trkpt lat="46.04496" lon="6.30145">
        <ele>775.2</ele>
        <time>2021-03-27T13:15:37Z</time>
      </trkpt>
      <trkpt lat="46.04497" lon="6.3014">
        <ele>773.8</ele>
        <time>2021-03-27T13:15:38Z</time>
      </trkpt>
      <trkpt lat="46.04496" lon="6.30135">
        <ele>773</ele>
        <time>2021-03-27T13:15:39Z</time>
      </trkpt>
      <trkpt lat="46.04494" lon="6.30131">
        <ele>772.2</ele>
        <time>2021-03-27T13:15:40Z</time>
      </trkpt>
      <trkpt lat="46.04493" lon="6.30127">
        <ele>772</ele>
        <time>2021-03-27T13:15:41Z</time>
      </trkpt>
      <trkpt lat="46.04491" lon="6.30124">
        <ele>771.8</ele>
        <time>2021-03-27T13:15:42Z</time>
      </trkpt>
      <trkpt lat="46.04487" lon="6.30116">
        <ele>771.6</ele>
        <time>2021-03-27T13:15:44Z</time>
      </trkpt>
      <trkpt lat="46.04485" lon="6.30112">
        <ele>771.8</ele>
        <time>2021-03-27T13:15:45Z</time>
      </trkpt>
      <trkpt lat="46.04484" lon="6.30109">
        <ele>771.6</ele>
        <time>2021-03-27T13:15:46Z</time>
      </trkpt>
      <trkpt lat="46.04482" lon="6.30106">
        <ele>771.6</ele>
        <time>2021-03-27T13:15:47Z</time>
      </trkpt>
      <trkpt lat="46.0448" lon="6.30102">
        <ele>771.8</ele>
        <time>2021-03-27T13:15:48Z</time>
      </trkpt>
      <trkpt lat="46.04478" lon="6.30099">
        <ele>771.6</ele>
        <time>2021-03-27T13:15:49Z</time>
      </trkpt>
      <trkpt lat="46.04476" lon="6.30096">
        <ele>771.8</ele>
        <time>2021-03-27T13:15:50Z</time>
      </trkpt>
      <trkpt lat="46.04474" lon="6.30093">
        <ele>772.2</ele>
        <time>2021-03-27T13:15:51Z</time>
      </trkpt>
      <trkpt lat="46.04471" lon="6.3009">
        <ele>772.4</ele>
        <time>2021-03-27T13:15:52Z</time>
      </trkpt>
      <trkpt lat="46.04469" lon="6.30087">
        <ele>772.6</ele>
        <time>2021-03-27T13:15:53Z</time>
      </trkpt>
      <trkpt lat="46.04467" lon="6.30084">
        <ele>772.6</ele>
        <time>2021-03-27T13:15:54Z</time>
      </trkpt>
      <trkpt lat="46.04465" lon="6.30082">
        <ele>773.2</ele>
        <time>2021-03-27T13:15:55Z</time>
      </trkpt>
      <trkpt lat="46.04463" lon="6.3008">
        <ele>773.4</ele>
        <time>2021-03-27T13:15:56Z</time>
      </trkpt>
      <trkpt lat="46.0446" lon="6.30078">
        <ele>773.8</ele>
        <time>2021-03-27T13:15:57Z</time>
      </trkpt>
      <trkpt lat="46.04458" lon="6.30076">
        <ele>774</ele>
        <time>2021-03-27T13:15:58Z</time>
      </trkpt>
      <trkpt lat="46.04456" lon="6.30075">
        <ele>774.2</ele>
        <time>2021-03-27T13:15:59Z</time>
      </trkpt>
      <trkpt lat="46.04454" lon="6.30073">
        <ele>774.6</ele>
        <time>2021-03-27T13:16:00Z</time>
      </trkpt>
      <trkpt lat="46.04452" lon="6.30071">
        <ele>774.6</ele>
        <time>2021-03-27T13:16:01Z</time>
      </trkpt>
      <trkpt lat="46.0445" lon="6.30069">
        <ele>774.8</ele>
        <time>2021-03-27T13:16:02Z</time>
      </trkpt>
      <trkpt lat="46.04448" lon="6.30067">
        <ele>775</ele>
        <time>2021-03-27T13:16:03Z</time>
      </trkpt>
      <trkpt lat="46.04446" lon="6.30066">
        <ele>775.6</ele>
        <time>2021-03-27T13:16:04Z</time>
      </trkpt>
      <trkpt lat="46.04444" lon="6.30064">
        <ele>776</ele>
        <time>2021-03-27T13:16:05Z</time>
      </trkpt>
      <trkpt lat="46.04442" lon="6.30062">
        <ele>776.2</ele>
        <time>2021-03-27T13:16:06Z</time>
      </trkpt>
      <trkpt lat="46.04441" lon="6.3006">
        <ele>776.8</ele>
        <time>2021-03-27T13:16:07Z</time>
      </trkpt>
      <trkpt lat="46.04439" lon="6.30059">
        <ele>777.2</ele>
        <time>2021-03-27T13:16:08Z</time>
      </trkpt>
      <trkpt lat="46.04438" lon="6.30057">
        <ele>777.6</ele>
        <time>2021-03-27T13:16:09Z</time>
      </trkpt>
      <trkpt lat="46.04437" lon="6.30056">
        <ele>777.8</ele>
        <time>2021-03-27T13:16:10Z</time>
      </trkpt>
      <trkpt lat="46.04435" lon="6.30055">
        <ele>778.4</ele>
        <time>2021-03-27T13:16:11Z</time>
      </trkpt>
      <trkpt lat="46.04433" lon="6.30053">
        <ele>778.8</ele>
        <time>2021-03-27T13:16:12Z</time>
      </trkpt>
      <trkpt lat="46.0443" lon="6.30052">
        <ele>779.2</ele>
        <time>2021-03-27T13:16:13Z</time>
      </trkpt>
      <trkpt lat="46.04428" lon="6.30051">
        <ele>779.6</ele>
        <time>2021-03-27T13:16:14Z</time>
      </trkpt>
      <trkpt lat="46.04426" lon="6.3005">
        <ele>780.2</ele>
        <time>2021-03-27T13:16:15Z</time>
      </trkpt>
      <trkpt lat="46.04425" lon="6.30048">
        <ele>780.4</ele>
        <time>2021-03-27T13:16:16Z</time>
      </trkpt>
      <trkpt lat="46.04423" lon="6.30047">
        <ele>780.6</ele>
        <time>2021-03-27T13:16:17Z</time>
      </trkpt>
      <trkpt lat="46.04421" lon="6.30046">
        <ele>781</ele>
        <time>2021-03-27T13:16:18Z</time>
      </trkpt>
      <trkpt lat="46.04419" lon="6.30045">
        <ele>781.2</ele>
        <time>2021-03-27T13:16:19Z</time>
      </trkpt>
      <trkpt lat="46.04418" lon="6.30044">
        <ele>781.6</ele>
        <time>2021-03-27T13:16:20Z</time>
      </trkpt>
      <trkpt lat="46.04416" lon="6.30043">
        <ele>781.8</ele>
        <time>2021-03-27T13:16:21Z</time>
      </trkpt>
      <trkpt lat="46.04415" lon="6.30042">
        <ele>782</ele>
        <time>2021-03-27T13:16:22Z</time>
      </trkpt>
      <trkpt lat="46.04413" lon="6.30041">
        <ele>782.4</ele>
        <time>2021-03-27T13:16:23Z</time>
      </trkpt>
      <trkpt lat="46.04411" lon="6.3004">
        <ele>782.8</ele>
        <time>2021-03-27T13:16:24Z</time>
      </trkpt>
      <trkpt lat="46.04409" lon="6.30039">
        <ele>783.4</ele>
        <time>2021-03-27T13:16:25Z</time>
      </trkpt>
      <trkpt lat="46.04408" lon="6.30038">
        <ele>783.6</ele>
        <time>2021-03-27T13:16:26Z</time>
      </trkpt>
      <trkpt lat="46.04406" lon="6.30037">
        <ele>783.8</ele>
        <time>2021-03-27T13:16:27Z</time>
      </trkpt>
      <trkpt lat="46.04404" lon="6.30035">
        <ele>784</ele>
        <time>2021-03-27T13:16:28Z</time>
      </trkpt>
      <trkpt lat="46.04403" lon="6.30034">
        <ele>784.4</ele>
        <time>2021-03-27T13:16:29Z</time>
      </trkpt>
      <trkpt lat="46.04401" lon="6.30033">
        <ele>784.6</ele>
        <time>2021-03-27T13:16:30Z</time>
      </trkpt>
      <trkpt lat="46.044" lon="6.30032">
        <ele>785</ele>
        <time>2021-03-27T13:16:31Z</time>
      </trkpt>
      <trkpt lat="46.04398" lon="6.3003">
        <ele>785.2</ele>
        <time>2021-03-27T13:16:32Z</time>
      </trkpt>
      <trkpt lat="46.04396" lon="6.30029">
        <ele>785.6</ele>
        <time>2021-03-27T13:16:33Z</time>
      </trkpt>
      <trkpt lat="46.04395" lon="6.30028">
        <ele>786</ele>
        <time>2021-03-27T13:16:34Z</time>
      </trkpt>
      <trkpt lat="46.04393" lon="6.30027">
        <ele>786.4</ele>
        <time>2021-03-27T13:16:35Z</time>
      </trkpt>
      <trkpt lat="46.04392" lon="6.30026">
        <ele>786.6</ele>
        <time>2021-03-27T13:16:36Z</time>
      </trkpt>
      <trkpt lat="46.0439" lon="6.30024">
        <ele>786.6</ele>
        <time>2021-03-27T13:16:37Z</time>
      </trkpt>
      <trkpt lat="46.04388" lon="6.30023">
        <ele>786.8</ele>
        <time>2021-03-27T13:16:38Z</time>
      </trkpt>
      <trkpt lat="46.04385" lon="6.30021">
        <ele>787.2</ele>
        <time>2021-03-27T13:16:39Z</time>
      </trkpt>
      <trkpt lat="46.04383" lon="6.3002">
        <ele>787.4</ele>
        <time>2021-03-27T13:16:40Z</time>
      </trkpt>
      <trkpt lat="46.04381" lon="6.30018">
        <ele>787.8</ele>
        <time>2021-03-27T13:16:41Z</time>
      </trkpt>
      <trkpt lat="46.04379" lon="6.30017">
        <ele>788.2</ele>
        <time>2021-03-27T13:16:42Z</time>
      </trkpt>
      <trkpt lat="46.04377" lon="6.30016">
        <ele>788.4</ele>
        <time>2021-03-27T13:16:43Z</time>
      </trkpt>
      <trkpt lat="46.04375" lon="6.30014">
        <ele>788.8</ele>
        <time>2021-03-27T13:16:44Z</time>
      </trkpt>
      <trkpt lat="46.04373" lon="6.30013">
        <ele>788.8</ele>
        <time>2021-03-27T13:16:45Z</time>
      </trkpt>
      <trkpt lat="46.04371" lon="6.30012">
        <ele>789.4</ele>
        <time>2021-03-27T13:16:46Z</time>
      </trkpt>
      <trkpt lat="46.0437" lon="6.3001">
        <ele>789.6</ele>
        <time>2021-03-27T13:16:47Z</time>
      </trkpt>
      <trkpt lat="46.04368" lon="6.30009">
        <ele>790</ele>
        <time>2021-03-27T13:16:48Z</time>
      </trkpt>
      <trkpt lat="46.04366" lon="6.30008">
        <ele>790.2</ele>
        <time>2021-03-27T13:16:49Z</time>
      </trkpt>
      <trkpt lat="46.04365" lon="6.30008">
        <ele>790.6</ele>
        <time>2021-03-27T13:16:50Z</time>
      </trkpt>
      <trkpt lat="46.04363" lon="6.30007">
        <ele>790.6</ele>
        <time>2021-03-27T13:16:51Z</time>
      </trkpt>
      <trkpt lat="46.04361" lon="6.30006">
        <ele>791</ele>
        <time>2021-03-27T13:16:52Z</time>
      </trkpt>
      <trkpt lat="46.04359" lon="6.30006">
        <ele>791.4</ele>
        <time>2021-03-27T13:16:53Z</time>
      </trkpt>
      <trkpt lat="46.04358" lon="6.30005">
        <ele>791.6</ele>
        <time>2021-03-27T13:16:54Z</time>
      </trkpt>
      <trkpt lat="46.04356" lon="6.30005">
        <ele>791.6</ele>
        <time>2021-03-27T13:16:55Z</time>
      </trkpt>
      <trkpt lat="46.04353" lon="6.30005">
        <ele>792</ele>
        <time>2021-03-27T13:16:56Z</time>
      </trkpt>
      <trkpt lat="46.04351" lon="6.30005">
        <ele>792.6</ele>
        <time>2021-03-27T13:16:57Z</time>
      </trkpt>
      <trkpt lat="46.04349" lon="6.30004">
        <ele>793</ele>
        <time>2021-03-27T13:16:58Z</time>
      </trkpt>
      <trkpt lat="46.04347" lon="6.30004">
        <ele>793.4</ele>
        <time>2021-03-27T13:16:59Z</time>
      </trkpt>
      <trkpt lat="46.04345" lon="6.30003">
        <ele>793.8</ele>
        <time>2021-03-27T13:17:00Z</time>
      </trkpt>
      <trkpt lat="46.04343" lon="6.30003">
        <ele>794.2</ele>
        <time>2021-03-27T13:17:01Z</time>
      </trkpt>
      <trkpt lat="46.04341" lon="6.30002">
        <ele>794.4</ele>
        <time>2021-03-27T13:17:02Z</time>
      </trkpt>
      <trkpt lat="46.04338" lon="6.30002">
        <ele>794.6</ele>
        <time>2021-03-27T13:17:03Z</time>
      </trkpt>
      <trkpt lat="46.04336" lon="6.30002">
        <ele>795</ele>
        <time>2021-03-27T13:17:04Z</time>
      </trkpt>
      <trkpt lat="46.04334" lon="6.30002">
        <ele>795.4</ele>
        <time>2021-03-27T13:17:05Z</time>
      </trkpt>
      <trkpt lat="46.04332" lon="6.30001">
        <ele>795.6</ele>
        <time>2021-03-27T13:17:06Z</time>
      </trkpt>
      <trkpt lat="46.0433" lon="6.30002">
        <ele>796</ele>
        <time>2021-03-27T13:17:07Z</time>
      </trkpt>
      <trkpt lat="46.04328" lon="6.30002">
        <ele>796.4</ele>
        <time>2021-03-27T13:17:08Z</time>
      </trkpt>
      <trkpt lat="46.04327" lon="6.30003">
        <ele>796.6</ele>
        <time>2021-03-27T13:17:09Z</time>
      </trkpt>
      <trkpt lat="46.04325" lon="6.30003">
        <ele>796.8</ele>
        <time>2021-03-27T13:17:10Z</time>
      </trkpt>
      <trkpt lat="46.04324" lon="6.30003">
        <ele>797.2</ele>
        <time>2021-03-27T13:17:11Z</time>
      </trkpt>
      <trkpt lat="46.04323" lon="6.30003">
        <ele>797.4</ele>
        <time>2021-03-27T13:17:12Z</time>
      </trkpt>
      <trkpt lat="46.04321" lon="6.30003">
        <ele>797.8</ele>
        <time>2021-03-27T13:17:13Z</time>
      </trkpt>
      <trkpt lat="46.04319" lon="6.30004">
        <ele>798</ele>
        <time>2021-03-27T13:17:14Z</time>
      </trkpt>
      <trkpt lat="46.04317" lon="6.30004">
        <ele>798.2</ele>
        <time>2021-03-27T13:17:15Z</time>
      </trkpt>
      <trkpt lat="46.04316" lon="6.30003">
        <ele>798.6</ele>
        <time>2021-03-27T13:17:16Z</time>
      </trkpt>
      <trkpt lat="46.04315" lon="6.30003">
        <ele>799</ele>
        <time>2021-03-27T13:17:17Z</time>
      </trkpt>
      <trkpt lat="46.04313" lon="6.30004">
        <ele>799.2</ele>
        <time>2021-03-27T13:17:18Z</time>
      </trkpt>
      <trkpt lat="46.04312" lon="6.30004">
        <ele>799.8</ele>
        <time>2021-03-27T13:17:19Z</time>
      </trkpt>
      <trkpt lat="46.0431" lon="6.30005">
        <ele>800</ele>
        <time>2021-03-27T13:17:20Z</time>
      </trkpt>
      <trkpt lat="46.04308" lon="6.30005">
        <ele>800.4</ele>
        <time>2021-03-27T13:17:21Z</time>
      </trkpt>
      <trkpt lat="46.04307" lon="6.30005">
        <ele>800.4</ele>
        <time>2021-03-27T13:17:22Z</time>
      </trkpt>
      <trkpt lat="46.04306" lon="6.30005">
        <ele>800.6</ele>
        <time>2021-03-27T13:17:23Z</time>
      </trkpt>
      <trkpt lat="46.04303" lon="6.30005">
        <ele>800.8</ele>
        <time>2021-03-27T13:17:24Z</time>
      </trkpt>
      <trkpt lat="46.04302" lon="6.30005">
        <ele>801.2</ele>
        <time>2021-03-27T13:17:25Z</time>
      </trkpt>
      <trkpt lat="46.043" lon="6.30005">
        <ele>801.4</ele>
        <time>2021-03-27T13:17:26Z</time>
      </trkpt>
      <trkpt lat="46.04297" lon="6.30005">
        <ele>801.4</ele>
        <time>2021-03-27T13:17:27Z</time>
      </trkpt>
      <trkpt lat="46.04295" lon="6.30005">
        <ele>801.8</ele>
        <time>2021-03-27T13:17:28Z</time>
      </trkpt>
      <trkpt lat="46.04293" lon="6.30005">
        <ele>802.4</ele>
        <time>2021-03-27T13:17:29Z</time>
      </trkpt>
      <trkpt lat="46.04292" lon="6.30005">
        <ele>802.4</ele>
        <time>2021-03-27T13:17:30Z</time>
      </trkpt>
      <trkpt lat="46.0429" lon="6.30006">
        <ele>802.6</ele>
        <time>2021-03-27T13:17:31Z</time>
      </trkpt>
      <trkpt lat="46.04287" lon="6.30006">
        <ele>803.2</ele>
        <time>2021-03-27T13:17:33Z</time>
      </trkpt>
      <trkpt lat="46.04285" lon="6.30006">
        <ele>803.4</ele>
        <time>2021-03-27T13:17:34Z</time>
      </trkpt>
      <trkpt lat="46.04283" lon="6.30005">
        <ele>803.6</ele>
        <time>2021-03-27T13:17:35Z</time>
      </trkpt>
      <trkpt lat="46.0428" lon="6.30005">
        <ele>804</ele>
        <time>2021-03-27T13:17:36Z</time>
      </trkpt>
      <trkpt lat="46.04278" lon="6.30005">
        <ele>804.4</ele>
        <time>2021-03-27T13:17:37Z</time>
      </trkpt>
      <trkpt lat="46.04276" lon="6.30005">
        <ele>804.8</ele>
        <time>2021-03-27T13:17:38Z</time>
      </trkpt>
      <trkpt lat="46.04273" lon="6.30005">
        <ele>804.8</ele>
        <time>2021-03-27T13:17:39Z</time>
      </trkpt>
      <trkpt lat="46.04272" lon="6.30005">
        <ele>805.2</ele>
        <time>2021-03-27T13:17:40Z</time>
      </trkpt>
      <trkpt lat="46.0427" lon="6.30005">
        <ele>805.4</ele>
        <time>2021-03-27T13:17:41Z</time>
      </trkpt>
      <trkpt lat="46.04268" lon="6.30005">
        <ele>805.6</ele>
        <time>2021-03-27T13:17:42Z</time>
      </trkpt>
      <trkpt lat="46.04267" lon="6.30005">
        <ele>805.8</ele>
        <time>2021-03-27T13:17:43Z</time>
      </trkpt>
      <trkpt lat="46.04265" lon="6.30004">
        <ele>806</ele>
        <time>2021-03-27T13:17:44Z</time>
      </trkpt>
      <trkpt lat="46.04264" lon="6.30004">
        <ele>806.4</ele>
        <time>2021-03-27T13:17:45Z</time>
      </trkpt>
      <trkpt lat="46.04261" lon="6.30004">
        <ele>806.6</ele>
        <time>2021-03-27T13:17:46Z</time>
      </trkpt>
      <trkpt lat="46.04258" lon="6.30003">
        <ele>806.8</ele>
        <time>2021-03-27T13:17:47Z</time>
      </trkpt>
      <trkpt lat="46.04254" lon="6.30003">
        <ele>807.4</ele>
        <time>2021-03-27T13:17:49Z</time>
      </trkpt>
      <trkpt lat="46.04252" lon="6.30003">
        <ele>807.6</ele>
        <time>2021-03-27T13:17:50Z</time>
      </trkpt>
      <trkpt lat="46.04251" lon="6.30003">
        <ele>807.6</ele>
        <time>2021-03-27T13:17:51Z</time>
      </trkpt>
      <trkpt lat="46.04248" lon="6.30003">
        <ele>808</ele>
        <time>2021-03-27T13:17:52Z</time>
      </trkpt>
      <trkpt lat="46.04246" lon="6.30003">
        <ele>808</ele>
        <time>2021-03-27T13:17:53Z</time>
      </trkpt>
      <trkpt lat="46.04244" lon="6.30003">
        <ele>808.4</ele>
        <time>2021-03-27T13:17:54Z</time>
      </trkpt>
      <trkpt lat="46.04243" lon="6.30002">
        <ele>808.4</ele>
        <time>2021-03-27T13:17:55Z</time>
      </trkpt>
      <trkpt lat="46.04241" lon="6.30002">
        <ele>808.8</ele>
        <time>2021-03-27T13:17:56Z</time>
      </trkpt>
      <trkpt lat="46.04239" lon="6.30002">
        <ele>809</ele>
        <time>2021-03-27T13:17:57Z</time>
      </trkpt>
      <trkpt lat="46.04236" lon="6.30002">
        <ele>809.2</ele>
        <time>2021-03-27T13:17:58Z</time>
      </trkpt>
      <trkpt lat="46.04234" lon="6.30001">
        <ele>809.8</ele>
        <time>2021-03-27T13:17:59Z</time>
      </trkpt>
      <trkpt lat="46.04229" lon="6.3">
        <ele>810.4</ele>
        <time>2021-03-27T13:18:01Z</time>
      </trkpt>
      <trkpt lat="46.04226" lon="6.29999">
        <ele>810.8</ele>
        <time>2021-03-27T13:18:02Z</time>
      </trkpt>
      <trkpt lat="46.04224" lon="6.29998">
        <ele>811.2</ele>
        <time>2021-03-27T13:18:03Z</time>
      </trkpt>
      <trkpt lat="46.04222" lon="6.29997">
        <ele>811.6</ele>
        <time>2021-03-27T13:18:04Z</time>
      </trkpt>
      <trkpt lat="46.04219" lon="6.29996">
        <ele>812.2</ele>
        <time>2021-03-27T13:18:05Z</time>
      </trkpt>
      <trkpt lat="46.04215" lon="6.29995">
        <ele>812.6</ele>
        <time>2021-03-27T13:18:07Z</time>
      </trkpt>
      <trkpt lat="46.04212" lon="6.29994">
        <ele>812.8</ele>
        <time>2021-03-27T13:18:08Z</time>
      </trkpt>
      <trkpt lat="46.04209" lon="6.29993">
        <ele>813.2</ele>
        <time>2021-03-27T13:18:09Z</time>
      </trkpt>
      <trkpt lat="46.04206" lon="6.29993">
        <ele>813.4</ele>
        <time>2021-03-27T13:18:10Z</time>
      </trkpt>
      <trkpt lat="46.04204" lon="6.29992">
        <ele>813.8</ele>
        <time>2021-03-27T13:18:11Z</time>
      </trkpt>
      <trkpt lat="46.04199" lon="6.2999">
        <ele>814.2</ele>
        <time>2021-03-27T13:18:13Z</time>
      </trkpt>
      <trkpt lat="46.04197" lon="6.29989">
        <ele>814.4</ele>
        <time>2021-03-27T13:18:14Z</time>
      </trkpt>
      <trkpt lat="46.04194" lon="6.29989">
        <ele>814.6</ele>
        <time>2021-03-27T13:18:15Z</time>
      </trkpt>
      <trkpt lat="46.04192" lon="6.29988">
        <ele>814.8</ele>
        <time>2021-03-27T13:18:16Z</time>
      </trkpt>
      <trkpt lat="46.0419" lon="6.29988">
        <ele>815</ele>
        <time>2021-03-27T13:18:17Z</time>
      </trkpt>
      <trkpt lat="46.04187" lon="6.29987">
        <ele>815.4</ele>
        <time>2021-03-27T13:18:19Z</time>
      </trkpt>
      <trkpt lat="46.04185" lon="6.29986">
        <ele>815.6</ele>
        <time>2021-03-27T13:18:20Z</time>
      </trkpt>
      <trkpt lat="46.04184" lon="6.29986">
        <ele>815.8</ele>
        <time>2021-03-27T13:18:21Z</time>
      </trkpt>
      <trkpt lat="46.04182" lon="6.29986">
        <ele>816</ele>
        <time>2021-03-27T13:18:22Z</time>
      </trkpt>
      <trkpt lat="46.04181" lon="6.29985">
        <ele>816.2</ele>
        <time>2021-03-27T13:18:23Z</time>
      </trkpt>
      <trkpt lat="46.04179" lon="6.29984">
        <ele>816.4</ele>
        <time>2021-03-27T13:18:24Z</time>
      </trkpt>
      <trkpt lat="46.04178" lon="6.29984">
        <ele>816.2</ele>
        <time>2021-03-27T13:18:25Z</time>
      </trkpt>
      <trkpt lat="46.04175" lon="6.29983">
        <ele>816.6</ele>
        <time>2021-03-27T13:18:26Z</time>
      </trkpt>
      <trkpt lat="46.04173" lon="6.29983">
        <ele>816.8</ele>
        <time>2021-03-27T13:18:27Z</time>
      </trkpt>
      <trkpt lat="46.04171" lon="6.29984">
        <ele>817</ele>
        <time>2021-03-27T13:18:28Z</time>
      </trkpt>
      <trkpt lat="46.04168" lon="6.29986">
        <ele>817.4</ele>
        <time>2021-03-27T13:18:29Z</time>
      </trkpt>
      <trkpt lat="46.04167" lon="6.2999">
        <ele>817.6</ele>
        <time>2021-03-27T13:18:30Z</time>
      </trkpt>
      <trkpt lat="46.04166" lon="6.29993">
        <ele>818</ele>
        <time>2021-03-27T13:18:31Z</time>
      </trkpt>
      <trkpt lat="46.04165" lon="6.29997">
        <ele>818</ele>
        <time>2021-03-27T13:18:32Z</time>
      </trkpt>
      <trkpt lat="46.04163" lon="6.30001">
        <ele>818.6</ele>
        <time>2021-03-27T13:18:33Z</time>
      </trkpt>
      <trkpt lat="46.04162" lon="6.30005">
        <ele>818.8</ele>
        <time>2021-03-27T13:18:34Z</time>
      </trkpt>
      <trkpt lat="46.04161" lon="6.30009">
        <ele>819</ele>
        <time>2021-03-27T13:18:35Z</time>
      </trkpt>
      <trkpt lat="46.04159" lon="6.30012">
        <ele>819.2</ele>
        <time>2021-03-27T13:18:36Z</time>
      </trkpt>
      <trkpt lat="46.04158" lon="6.30016">
        <ele>819.4</ele>
        <time>2021-03-27T13:18:37Z</time>
      </trkpt>
      <trkpt lat="46.04157" lon="6.3002">
        <ele>819.6</ele>
        <time>2021-03-27T13:18:38Z</time>
      </trkpt>
      <trkpt lat="46.04156" lon="6.30024">
        <ele>820</ele>
        <time>2021-03-27T13:18:39Z</time>
      </trkpt>
      <trkpt lat="46.04154" lon="6.30028">
        <ele>820.2</ele>
        <time>2021-03-27T13:18:40Z</time>
      </trkpt>
      <trkpt lat="46.04151" lon="6.30035">
        <ele>820.6</ele>
        <time>2021-03-27T13:18:42Z</time>
      </trkpt>
      <trkpt lat="46.04148" lon="6.30043">
        <ele>820.8</ele>
        <time>2021-03-27T13:18:44Z</time>
      </trkpt>
      <trkpt lat="46.04147" lon="6.30046">
        <ele>821.2</ele>
        <time>2021-03-27T13:18:45Z</time>
      </trkpt>
      <trkpt lat="46.04145" lon="6.3005">
        <ele>821.2</ele>
        <time>2021-03-27T13:18:46Z</time>
      </trkpt>
      <trkpt lat="46.04143" lon="6.30054">
        <ele>821.4</ele>
        <time>2021-03-27T13:18:47Z</time>
      </trkpt>
      <trkpt lat="46.04141" lon="6.30058">
        <ele>821.4</ele>
        <time>2021-03-27T13:18:48Z</time>
      </trkpt>
      <trkpt lat="46.04139" lon="6.30062">
        <ele>821.8</ele>
        <time>2021-03-27T13:18:49Z</time>
      </trkpt>
      <trkpt lat="46.04137" lon="6.30066">
        <ele>822</ele>
        <time>2021-03-27T13:18:50Z</time>
      </trkpt>
      <trkpt lat="46.04135" lon="6.30069">
        <ele>822</ele>
        <time>2021-03-27T13:18:51Z</time>
      </trkpt>
      <trkpt lat="46.04131" lon="6.30077">
        <ele>822.4</ele>
        <time>2021-03-27T13:18:53Z</time>
      </trkpt>
      <trkpt lat="46.04129" lon="6.30081">
        <ele>822.4</ele>
        <time>2021-03-27T13:18:54Z</time>
      </trkpt>
      <trkpt lat="46.04127" lon="6.30085">
        <ele>822.6</ele>
        <time>2021-03-27T13:18:55Z</time>
      </trkpt>
      <trkpt lat="46.04125" lon="6.30089">
        <ele>822.8</ele>
        <time>2021-03-27T13:18:56Z</time>
      </trkpt>
      <trkpt lat="46.04123" lon="6.30093">
        <ele>823</ele>
        <time>2021-03-27T13:18:57Z</time>
      </trkpt>
      <trkpt lat="46.0412" lon="6.30097">
        <ele>823.4</ele>
        <time>2021-03-27T13:18:58Z</time>
      </trkpt>
      <trkpt lat="46.04117" lon="6.30101">
        <ele>823.4</ele>
        <time>2021-03-27T13:18:59Z</time>
      </trkpt>
      <trkpt lat="46.04114" lon="6.30104">
        <ele>823.8</ele>
        <time>2021-03-27T13:19:00Z</time>
      </trkpt>
      <trkpt lat="46.04111" lon="6.30107">
        <ele>823.6</ele>
        <time>2021-03-27T13:19:01Z</time>
      </trkpt>
      <trkpt lat="46.04107" lon="6.30109">
        <ele>824</ele>
        <time>2021-03-27T13:19:02Z</time>
      </trkpt>
      <trkpt lat="46.04105" lon="6.30111">
        <ele>824</ele>
        <time>2021-03-27T13:19:03Z</time>
      </trkpt>
      <trkpt lat="46.04102" lon="6.30112">
        <ele>824.2</ele>
        <time>2021-03-27T13:19:04Z</time>
      </trkpt>
      <trkpt lat="46.04098" lon="6.30112">
        <ele>824.4</ele>
        <time>2021-03-27T13:19:05Z</time>
      </trkpt>
      <trkpt lat="46.04095" lon="6.30112">
        <ele>824.4</ele>
        <time>2021-03-27T13:19:06Z</time>
      </trkpt>
      <trkpt lat="46.04092" lon="6.30112">
        <ele>824.4</ele>
        <time>2021-03-27T13:19:07Z</time>
      </trkpt>
      <trkpt lat="46.04089" lon="6.30111">
        <ele>824.6</ele>
        <time>2021-03-27T13:19:08Z</time>
      </trkpt>
      <trkpt lat="46.04086" lon="6.3011">
        <ele>825</ele>
        <time>2021-03-27T13:19:09Z</time>
      </trkpt>
      <trkpt lat="46.04083" lon="6.30109">
        <ele>825.2</ele>
        <time>2021-03-27T13:19:10Z</time>
      </trkpt>
      <trkpt lat="46.0408" lon="6.30107">
        <ele>825.6</ele>
        <time>2021-03-27T13:19:11Z</time>
      </trkpt>
      <trkpt lat="46.04077" lon="6.30105">
        <ele>825.8</ele>
        <time>2021-03-27T13:19:12Z</time>
      </trkpt>
      <trkpt lat="46.04074" lon="6.30102">
        <ele>826</ele>
        <time>2021-03-27T13:19:13Z</time>
      </trkpt>
      <trkpt lat="46.04072" lon="6.30099">
        <ele>826.2</ele>
        <time>2021-03-27T13:19:14Z</time>
      </trkpt>
      <trkpt lat="46.0407" lon="6.30095">
        <ele>826.2</ele>
        <time>2021-03-27T13:19:15Z</time>
      </trkpt>
      <trkpt lat="46.04068" lon="6.30091">
        <ele>826.4</ele>
        <time>2021-03-27T13:19:16Z</time>
      </trkpt>
      <trkpt lat="46.04066" lon="6.30088">
        <ele>826.6</ele>
        <time>2021-03-27T13:19:17Z</time>
      </trkpt>
      <trkpt lat="46.04064" lon="6.30083">
        <ele>826.8</ele>
        <time>2021-03-27T13:19:18Z</time>
      </trkpt>
      <trkpt lat="46.04062" lon="6.30079">
        <ele>827</ele>
        <time>2021-03-27T13:19:19Z</time>
      </trkpt>
      <trkpt lat="46.0406" lon="6.30075">
        <ele>827.4</ele>
        <time>2021-03-27T13:19:20Z</time>
      </trkpt>
      <trkpt lat="46.04059" lon="6.3007">
        <ele>827.8</ele>
        <time>2021-03-27T13:19:21Z</time>
      </trkpt>
      <trkpt lat="46.04058" lon="6.30066">
        <ele>827.8</ele>
        <time>2021-03-27T13:19:22Z</time>
      </trkpt>
      <trkpt lat="46.04056" lon="6.30061">
        <ele>828.2</ele>
        <time>2021-03-27T13:19:23Z</time>
      </trkpt>
      <trkpt lat="46.04053" lon="6.30053">
        <ele>828.2</ele>
        <time>2021-03-27T13:19:25Z</time>
      </trkpt>
      <trkpt lat="46.04052" lon="6.30048">
        <ele>828.4</ele>
        <time>2021-03-27T13:19:26Z</time>
      </trkpt>
      <trkpt lat="46.04051" lon="6.30043">
        <ele>828.6</ele>
        <time>2021-03-27T13:19:27Z</time>
      </trkpt>
      <trkpt lat="46.04049" lon="6.30039">
        <ele>829</ele>
        <time>2021-03-27T13:19:28Z</time>
      </trkpt>
      <trkpt lat="46.04048" lon="6.30034">
        <ele>829.2</ele>
        <time>2021-03-27T13:19:29Z</time>
      </trkpt>
      <trkpt lat="46.04047" lon="6.3003">
        <ele>829.2</ele>
        <time>2021-03-27T13:19:30Z</time>
      </trkpt>
      <trkpt lat="46.04046" lon="6.30025">
        <ele>829.2</ele>
        <time>2021-03-27T13:19:31Z</time>
      </trkpt>
      <trkpt lat="46.04044" lon="6.30021">
        <ele>829.4</ele>
        <time>2021-03-27T13:19:32Z</time>
      </trkpt>
      <trkpt lat="46.04043" lon="6.30016">
        <ele>829.6</ele>
        <time>2021-03-27T13:19:33Z</time>
      </trkpt>
      <trkpt lat="46.04043" lon="6.30012">
        <ele>829.8</ele>
        <time>2021-03-27T13:19:34Z</time>
      </trkpt>
      <trkpt lat="46.04042" lon="6.30007">
        <ele>830</ele>
        <time>2021-03-27T13:19:35Z</time>
      </trkpt>
      <trkpt lat="46.04041" lon="6.30002">
        <ele>830</ele>
        <time>2021-03-27T13:19:36Z</time>
      </trkpt>
      <trkpt lat="46.04039" lon="6.29993">
        <ele>830.4</ele>
        <time>2021-03-27T13:19:38Z</time>
      </trkpt>
      <trkpt lat="46.04038" lon="6.29989">
        <ele>830.6</ele>
        <time>2021-03-27T13:19:39Z</time>
      </trkpt>
      <trkpt lat="46.04037" lon="6.29984">
        <ele>830.6</ele>
        <time>2021-03-27T13:19:40Z</time>
      </trkpt>
      <trkpt lat="46.04035" lon="6.2998">
        <ele>831</ele>
        <time>2021-03-27T13:19:41Z</time>
      </trkpt>
      <trkpt lat="46.04034" lon="6.29976">
        <ele>831</ele>
        <time>2021-03-27T13:19:42Z</time>
      </trkpt>
      <trkpt lat="46.04032" lon="6.29972">
        <ele>831</ele>
        <time>2021-03-27T13:19:43Z</time>
      </trkpt>
      <trkpt lat="46.04031" lon="6.29967">
        <ele>831.2</ele>
        <time>2021-03-27T13:19:44Z</time>
      </trkpt>
      <trkpt lat="46.0403" lon="6.29963">
        <ele>831.2</ele>
        <time>2021-03-27T13:19:45Z</time>
      </trkpt>
      <trkpt lat="46.04029" lon="6.29959">
        <ele>831.4</ele>
        <time>2021-03-27T13:19:46Z</time>
      </trkpt>
      <trkpt lat="46.04027" lon="6.29954">
        <ele>831.6</ele>
        <time>2021-03-27T13:19:47Z</time>
      </trkpt>
      <trkpt lat="46.04026" lon="6.2995">
        <ele>831.6</ele>
        <time>2021-03-27T13:19:48Z</time>
      </trkpt>
      <trkpt lat="46.04024" lon="6.29946">
        <ele>831.6</ele>
        <time>2021-03-27T13:19:49Z</time>
      </trkpt>
      <trkpt lat="46.04022" lon="6.29942">
        <ele>832</ele>
        <time>2021-03-27T13:19:50Z</time>
      </trkpt>
      <trkpt lat="46.0402" lon="6.29938">
        <ele>832.2</ele>
        <time>2021-03-27T13:19:51Z</time>
      </trkpt>
      <trkpt lat="46.04018" lon="6.29935">
        <ele>832.4</ele>
        <time>2021-03-27T13:19:52Z</time>
      </trkpt>
      <trkpt lat="46.04015" lon="6.29931">
        <ele>832.6</ele>
        <time>2021-03-27T13:19:53Z</time>
      </trkpt>
      <trkpt lat="46.04013" lon="6.29928">
        <ele>832.8</ele>
        <time>2021-03-27T13:19:54Z</time>
      </trkpt>
      <trkpt lat="46.0401" lon="6.29924">
        <ele>832.8</ele>
        <time>2021-03-27T13:19:55Z</time>
      </trkpt>
      <trkpt lat="46.04008" lon="6.29921">
        <ele>833</ele>
        <time>2021-03-27T13:19:56Z</time>
      </trkpt>
      <trkpt lat="46.04005" lon="6.29918">
        <ele>833.4</ele>
        <time>2021-03-27T13:19:57Z</time>
      </trkpt>
      <trkpt lat="46.04002" lon="6.29915">
        <ele>833.6</ele>
        <time>2021-03-27T13:19:58Z</time>
      </trkpt>
      <trkpt lat="46.04" lon="6.29912">
        <ele>833.8</ele>
        <time>2021-03-27T13:19:59Z</time>
      </trkpt>
      <trkpt lat="46.03997" lon="6.29909">
        <ele>834</ele>
        <time>2021-03-27T13:20:00Z</time>
      </trkpt>
      <trkpt lat="46.03995" lon="6.29906">
        <ele>834.2</ele>
        <time>2021-03-27T13:20:01Z</time>
      </trkpt>
      <trkpt lat="46.03993" lon="6.29903">
        <ele>834.2</ele>
        <time>2021-03-27T13:20:02Z</time>
      </trkpt>
      <trkpt lat="46.03991" lon="6.29899">
        <ele>834.4</ele>
        <time>2021-03-27T13:20:03Z</time>
      </trkpt>
      <trkpt lat="46.03988" lon="6.29895">
        <ele>834.6</ele>
        <time>2021-03-27T13:20:04Z</time>
      </trkpt>
      <trkpt lat="46.03986" lon="6.29892">
        <ele>834.8</ele>
        <time>2021-03-27T13:20:05Z</time>
      </trkpt>
      <trkpt lat="46.03984" lon="6.29888">
        <ele>835</ele>
        <time>2021-03-27T13:20:06Z</time>
      </trkpt>
      <trkpt lat="46.03982" lon="6.29884">
        <ele>835.2</ele>
        <time>2021-03-27T13:20:07Z</time>
      </trkpt>
      <trkpt lat="46.0398" lon="6.2988">
        <ele>835.4</ele>
        <time>2021-03-27T13:20:08Z</time>
      </trkpt>
      <trkpt lat="46.03978" lon="6.29875">
        <ele>835.4</ele>
        <time>2021-03-27T13:20:09Z</time>
      </trkpt>
      <trkpt lat="46.03977" lon="6.29871">
        <ele>835.6</ele>
        <time>2021-03-27T13:20:10Z</time>
      </trkpt>
      <trkpt lat="46.03976" lon="6.29867">
        <ele>835.6</ele>
        <time>2021-03-27T13:20:11Z</time>
      </trkpt>
      <trkpt lat="46.03975" lon="6.29862">
        <ele>836</ele>
        <time>2021-03-27T13:20:12Z</time>
      </trkpt>
      <trkpt lat="46.03974" lon="6.29858">
        <ele>836.2</ele>
        <time>2021-03-27T13:20:13Z</time>
      </trkpt>
      <trkpt lat="46.03972" lon="6.29854">
        <ele>836.4</ele>
        <time>2021-03-27T13:20:14Z</time>
      </trkpt>
      <trkpt lat="46.03971" lon="6.2985">
        <ele>836.8</ele>
        <time>2021-03-27T13:20:15Z</time>
      </trkpt>
      <trkpt lat="46.0397" lon="6.29846">
        <ele>836.8</ele>
        <time>2021-03-27T13:20:16Z</time>
      </trkpt>
      <trkpt lat="46.03969" lon="6.29841">
        <ele>837.2</ele>
        <time>2021-03-27T13:20:17Z</time>
      </trkpt>
      <trkpt lat="46.03969" lon="6.29837">
        <ele>837.2</ele>
        <time>2021-03-27T13:20:18Z</time>
      </trkpt>
      <trkpt lat="46.03968" lon="6.29832">
        <ele>837.6</ele>
        <time>2021-03-27T13:20:19Z</time>
      </trkpt>
      <trkpt lat="46.03967" lon="6.29828">
        <ele>837.6</ele>
        <time>2021-03-27T13:20:20Z</time>
      </trkpt>
      <trkpt lat="46.03966" lon="6.29823">
        <ele>837.6</ele>
        <time>2021-03-27T13:20:21Z</time>
      </trkpt>
      <trkpt lat="46.03964" lon="6.29818">
        <ele>837.8</ele>
        <time>2021-03-27T13:20:22Z</time>
      </trkpt>
      <trkpt lat="46.03963" lon="6.29814">
        <ele>837.8</ele>
        <time>2021-03-27T13:20:23Z</time>
      </trkpt>
      <trkpt lat="46.03961" lon="6.29809">
        <ele>837.8</ele>
        <time>2021-03-27T13:20:24Z</time>
      </trkpt>
      <trkpt lat="46.0396" lon="6.29804">
        <ele>837.8</ele>
        <time>2021-03-27T13:20:25Z</time>
      </trkpt>
      <trkpt lat="46.03958" lon="6.29799">
        <ele>838</ele>
        <time>2021-03-27T13:20:26Z</time>
      </trkpt>
      <trkpt lat="46.03957" lon="6.29794">
        <ele>838.2</ele>
        <time>2021-03-27T13:20:27Z</time>
      </trkpt>
      <trkpt lat="46.03956" lon="6.2979">
        <ele>838.6</ele>
        <time>2021-03-27T13:20:28Z</time>
      </trkpt>
      <trkpt lat="46.03954" lon="6.29786">
        <ele>838.8</ele>
        <time>2021-03-27T13:20:29Z</time>
      </trkpt>
      <trkpt lat="46.03953" lon="6.29782">
        <ele>839.2</ele>
        <time>2021-03-27T13:20:30Z</time>
      </trkpt>
      <trkpt lat="46.03951" lon="6.29778">
        <ele>839.2</ele>
        <time>2021-03-27T13:20:31Z</time>
      </trkpt>
      <trkpt lat="46.03948" lon="6.29774">
        <ele>839.8</ele>
        <time>2021-03-27T13:20:32Z</time>
      </trkpt>
      <trkpt lat="46.03946" lon="6.29771">
        <ele>840.2</ele>
        <time>2021-03-27T13:20:33Z</time>
      </trkpt>
      <trkpt lat="46.03944" lon="6.29768">
        <ele>840.6</ele>
        <time>2021-03-27T13:20:34Z</time>
      </trkpt>
      <trkpt lat="46.03941" lon="6.29765">
        <ele>840.8</ele>
        <time>2021-03-27T13:20:35Z</time>
      </trkpt>
      <trkpt lat="46.03939" lon="6.29762">
        <ele>841</ele>
        <time>2021-03-27T13:20:36Z</time>
      </trkpt>
      <trkpt lat="46.03937" lon="6.2976">
        <ele>841.2</ele>
        <time>2021-03-27T13:20:37Z</time>
      </trkpt>
      <trkpt lat="46.03935" lon="6.29757">
        <ele>841.2</ele>
        <time>2021-03-27T13:20:38Z</time>
      </trkpt>
      <trkpt lat="46.03932" lon="6.29755">
        <ele>841.4</ele>
        <time>2021-03-27T13:20:39Z</time>
      </trkpt>
      <trkpt lat="46.0393" lon="6.29752">
        <ele>841.6</ele>
        <time>2021-03-27T13:20:40Z</time>
      </trkpt>
      <trkpt lat="46.03928" lon="6.2975">
        <ele>841.8</ele>
        <time>2021-03-27T13:20:41Z</time>
      </trkpt>
      <trkpt lat="46.03926" lon="6.29748">
        <ele>841.8</ele>
        <time>2021-03-27T13:20:42Z</time>
      </trkpt>
      <trkpt lat="46.03923" lon="6.29746">
        <ele>842</ele>
        <time>2021-03-27T13:20:43Z</time>
      </trkpt>
      <trkpt lat="46.03921" lon="6.29744">
        <ele>842</ele>
        <time>2021-03-27T13:20:44Z</time>
      </trkpt>
      <trkpt lat="46.03919" lon="6.29742">
        <ele>842.2</ele>
        <time>2021-03-27T13:20:45Z</time>
      </trkpt>
      <trkpt lat="46.03917" lon="6.2974">
        <ele>842.4</ele>
        <time>2021-03-27T13:20:46Z</time>
      </trkpt>
      <trkpt lat="46.03915" lon="6.29738">
        <ele>842.4</ele>
        <time>2021-03-27T13:20:47Z</time>
      </trkpt>
      <trkpt lat="46.03914" lon="6.29736">
        <ele>842.6</ele>
        <time>2021-03-27T13:20:48Z</time>
      </trkpt>
      <trkpt lat="46.03912" lon="6.29734">
        <ele>843</ele>
        <time>2021-03-27T13:20:49Z</time>
      </trkpt>
      <trkpt lat="46.0391" lon="6.29732">
        <ele>843</ele>
        <time>2021-03-27T13:20:50Z</time>
      </trkpt>
      <trkpt lat="46.03907" lon="6.29729">
        <ele>843.4</ele>
        <time>2021-03-27T13:20:51Z</time>
      </trkpt>
      <trkpt lat="46.03904" lon="6.29727">
        <ele>843.6</ele>
        <time>2021-03-27T13:20:52Z</time>
      </trkpt>
      <trkpt lat="46.03901" lon="6.29725">
        <ele>844</ele>
        <time>2021-03-27T13:20:53Z</time>
      </trkpt>
      <trkpt lat="46.03898" lon="6.29723">
        <ele>844.4</ele>
        <time>2021-03-27T13:20:54Z</time>
      </trkpt>
      <trkpt lat="46.03895" lon="6.2972">
        <ele>844.4</ele>
        <time>2021-03-27T13:20:55Z</time>
      </trkpt>
      <trkpt lat="46.03892" lon="6.29718">
        <ele>844.6</ele>
        <time>2021-03-27T13:20:56Z</time>
      </trkpt>
      <trkpt lat="46.03888" lon="6.29715">
        <ele>844.8</ele>
        <time>2021-03-27T13:20:57Z</time>
      </trkpt>
      <trkpt lat="46.03884" lon="6.29712">
        <ele>845</ele>
        <time>2021-03-27T13:20:58Z</time>
      </trkpt>
      <trkpt lat="46.03882" lon="6.2971">
        <ele>845</ele>
        <time>2021-03-27T13:20:59Z</time>
      </trkpt>
      <trkpt lat="46.03879" lon="6.29707">
        <ele>845.2</ele>
        <time>2021-03-27T13:21:00Z</time>
      </trkpt>
      <trkpt lat="46.03876" lon="6.29705">
        <ele>845.2</ele>
        <time>2021-03-27T13:21:01Z</time>
      </trkpt>
      <trkpt lat="46.03874" lon="6.29703">
        <ele>845.4</ele>
        <time>2021-03-27T13:21:02Z</time>
      </trkpt>
      <trkpt lat="46.03871" lon="6.29701">
        <ele>845.6</ele>
        <time>2021-03-27T13:21:03Z</time>
      </trkpt>
      <trkpt lat="46.03869" lon="6.29698">
        <ele>845.8</ele>
        <time>2021-03-27T13:21:04Z</time>
      </trkpt>
      <trkpt lat="46.03867" lon="6.29696">
        <ele>846</ele>
        <time>2021-03-27T13:21:05Z</time>
      </trkpt>
      <trkpt lat="46.03865" lon="6.29694">
        <ele>846</ele>
        <time>2021-03-27T13:21:06Z</time>
      </trkpt>
      <trkpt lat="46.03862" lon="6.29691">
        <ele>846</ele>
        <time>2021-03-27T13:21:07Z</time>
      </trkpt>
      <trkpt lat="46.03861" lon="6.29689">
        <ele>846.4</ele>
        <time>2021-03-27T13:21:08Z</time>
      </trkpt>
      <trkpt lat="46.03858" lon="6.29687">
        <ele>846.6</ele>
        <time>2021-03-27T13:21:09Z</time>
      </trkpt>
      <trkpt lat="46.03855" lon="6.29684">
        <ele>847</ele>
        <time>2021-03-27T13:21:10Z</time>
      </trkpt>
      <trkpt lat="46.03851" lon="6.2968">
        <ele>847.2</ele>
        <time>2021-03-27T13:21:11Z</time>
      </trkpt>
      <trkpt lat="46.03847" lon="6.29677">
        <ele>847.2</ele>
        <time>2021-03-27T13:21:12Z</time>
      </trkpt>
      <trkpt lat="46.03843" lon="6.29674">
        <ele>847.6</ele>
        <time>2021-03-27T13:21:13Z</time>
      </trkpt>
      <trkpt lat="46.03839" lon="6.2967">
        <ele>847.8</ele>
        <time>2021-03-27T13:21:14Z</time>
      </trkpt>
      <trkpt lat="46.03836" lon="6.29666">
        <ele>847.8</ele>
        <time>2021-03-27T13:21:15Z</time>
      </trkpt>
      <trkpt lat="46.03833" lon="6.29663">
        <ele>848.2</ele>
        <time>2021-03-27T13:21:16Z</time>
      </trkpt>
      <trkpt lat="46.0383" lon="6.29659">
        <ele>848.2</ele>
        <time>2021-03-27T13:21:17Z</time>
      </trkpt>
      <trkpt lat="46.03827" lon="6.29655">
        <ele>848.6</ele>
        <time>2021-03-27T13:21:18Z</time>
      </trkpt>
      <trkpt lat="46.03825" lon="6.29651">
        <ele>848.8</ele>
        <time>2021-03-27T13:21:19Z</time>
      </trkpt>
      <trkpt lat="46.03822" lon="6.29648">
        <ele>849</ele>
        <time>2021-03-27T13:21:20Z</time>
      </trkpt>
      <trkpt lat="46.0382" lon="6.29644">
        <ele>849.2</ele>
        <time>2021-03-27T13:21:21Z</time>
      </trkpt>
      <trkpt lat="46.03817" lon="6.2964">
        <ele>849.4</ele>
        <time>2021-03-27T13:21:22Z</time>
      </trkpt>
      <trkpt lat="46.03815" lon="6.29636">
        <ele>849.4</ele>
        <time>2021-03-27T13:21:23Z</time>
      </trkpt>
      <trkpt lat="46.03812" lon="6.29632">
        <ele>849.6</ele>
        <time>2021-03-27T13:21:24Z</time>
      </trkpt>
      <trkpt lat="46.0381" lon="6.29628">
        <ele>849.8</ele>
        <time>2021-03-27T13:21:25Z</time>
      </trkpt>
      <trkpt lat="46.03809" lon="6.29623">
        <ele>849.8</ele>
        <time>2021-03-27T13:21:26Z</time>
      </trkpt>
      <trkpt lat="46.03807" lon="6.29619">
        <ele>850.2</ele>
        <time>2021-03-27T13:21:27Z</time>
      </trkpt>
      <trkpt lat="46.03805" lon="6.29614">
        <ele>850.4</ele>
        <time>2021-03-27T13:21:28Z</time>
      </trkpt>
      <trkpt lat="46.03804" lon="6.29609">
        <ele>850.6</ele>
        <time>2021-03-27T13:21:29Z</time>
      </trkpt>
      <trkpt lat="46.03803" lon="6.29605">
        <ele>850.8</ele>
        <time>2021-03-27T13:21:30Z</time>
      </trkpt>
      <trkpt lat="46.03802" lon="6.296">
        <ele>850.8</ele>
        <time>2021-03-27T13:21:31Z</time>
      </trkpt>
      <trkpt lat="46.03801" lon="6.29595">
        <ele>851.2</ele>
        <time>2021-03-27T13:21:32Z</time>
      </trkpt>
      <trkpt lat="46.038" lon="6.2959">
        <ele>851.2</ele>
        <time>2021-03-27T13:21:33Z</time>
      </trkpt>
      <trkpt lat="46.03799" lon="6.29586">
        <ele>851.2</ele>
        <time>2021-03-27T13:21:34Z</time>
      </trkpt>
      <trkpt lat="46.03798" lon="6.29581">
        <ele>851.4</ele>
        <time>2021-03-27T13:21:35Z</time>
      </trkpt>
      <trkpt lat="46.03796" lon="6.29576">
        <ele>851.6</ele>
        <time>2021-03-27T13:21:36Z</time>
      </trkpt>
      <trkpt lat="46.03795" lon="6.29571">
        <ele>851.6</ele>
        <time>2021-03-27T13:21:37Z</time>
      </trkpt>
      <trkpt lat="46.03793" lon="6.29567">
        <ele>851.8</ele>
        <time>2021-03-27T13:21:38Z</time>
      </trkpt>
      <trkpt lat="46.03791" lon="6.29562">
        <ele>852</ele>
        <time>2021-03-27T13:21:39Z</time>
      </trkpt>
      <trkpt lat="46.03789" lon="6.29557">
        <ele>852.4</ele>
        <time>2021-03-27T13:21:40Z</time>
      </trkpt>
      <trkpt lat="46.03787" lon="6.29553">
        <ele>852.4</ele>
        <time>2021-03-27T13:21:41Z</time>
      </trkpt>
      <trkpt lat="46.03785" lon="6.29549">
        <ele>852.8</ele>
        <time>2021-03-27T13:21:42Z</time>
      </trkpt>
      <trkpt lat="46.03783" lon="6.29544">
        <ele>852.8</ele>
        <time>2021-03-27T13:21:43Z</time>
      </trkpt>
      <trkpt lat="46.03781" lon="6.29541">
        <ele>853.2</ele>
        <time>2021-03-27T13:21:44Z</time>
      </trkpt>
      <trkpt lat="46.03778" lon="6.29537">
        <ele>853.4</ele>
        <time>2021-03-27T13:21:45Z</time>
      </trkpt>
      <trkpt lat="46.03776" lon="6.29533">
        <ele>853.6</ele>
        <time>2021-03-27T13:21:46Z</time>
      </trkpt>
      <trkpt lat="46.03773" lon="6.2953">
        <ele>853.8</ele>
        <time>2021-03-27T13:21:47Z</time>
      </trkpt>
      <trkpt lat="46.03771" lon="6.29527">
        <ele>854</ele>
        <time>2021-03-27T13:21:48Z</time>
      </trkpt>
      <trkpt lat="46.03768" lon="6.29524">
        <ele>854.2</ele>
        <time>2021-03-27T13:21:49Z</time>
      </trkpt>
      <trkpt lat="46.03765" lon="6.29521">
        <ele>854</ele>
        <time>2021-03-27T13:21:50Z</time>
      </trkpt>
      <trkpt lat="46.03762" lon="6.29518">
        <ele>854.6</ele>
        <time>2021-03-27T13:21:51Z</time>
      </trkpt>
      <trkpt lat="46.03759" lon="6.29515">
        <ele>854.6</ele>
        <time>2021-03-27T13:21:52Z</time>
      </trkpt>
      <trkpt lat="46.03756" lon="6.29512">
        <ele>854.8</ele>
        <time>2021-03-27T13:21:53Z</time>
      </trkpt>
      <trkpt lat="46.03753" lon="6.29509">
        <ele>855</ele>
        <time>2021-03-27T13:21:54Z</time>
      </trkpt>
      <trkpt lat="46.0375" lon="6.29507">
        <ele>855.2</ele>
        <time>2021-03-27T13:21:55Z</time>
      </trkpt>
      <trkpt lat="46.03747" lon="6.29504">
        <ele>855</ele>
        <time>2021-03-27T13:21:56Z</time>
      </trkpt>
      <trkpt lat="46.03744" lon="6.29501">
        <ele>855.4</ele>
        <time>2021-03-27T13:21:57Z</time>
      </trkpt>
      <trkpt lat="46.03741" lon="6.29498">
        <ele>855.4</ele>
        <time>2021-03-27T13:21:58Z</time>
      </trkpt>
      <trkpt lat="46.03739" lon="6.29495">
        <ele>855.6</ele>
        <time>2021-03-27T13:21:59Z</time>
      </trkpt>
      <trkpt lat="46.03736" lon="6.29492">
        <ele>856</ele>
        <time>2021-03-27T13:22:00Z</time>
      </trkpt>
      <trkpt lat="46.03734" lon="6.29489">
        <ele>856</ele>
        <time>2021-03-27T13:22:01Z</time>
      </trkpt>
      <trkpt lat="46.03731" lon="6.29485">
        <ele>856.4</ele>
        <time>2021-03-27T13:22:02Z</time>
      </trkpt>
      <trkpt lat="46.03729" lon="6.29482">
        <ele>856.6</ele>
        <time>2021-03-27T13:22:03Z</time>
      </trkpt>
      <trkpt lat="46.03726" lon="6.29478">
        <ele>856.6</ele>
        <time>2021-03-27T13:22:04Z</time>
      </trkpt>
      <trkpt lat="46.03724" lon="6.29475">
        <ele>857</ele>
        <time>2021-03-27T13:22:05Z</time>
      </trkpt>
      <trkpt lat="46.03722" lon="6.29471">
        <ele>857.2</ele>
        <time>2021-03-27T13:22:06Z</time>
      </trkpt>
      <trkpt lat="46.0372" lon="6.29467">
        <ele>857.4</ele>
        <time>2021-03-27T13:22:07Z</time>
      </trkpt>
      <trkpt lat="46.03718" lon="6.29464">
        <ele>857.8</ele>
        <time>2021-03-27T13:22:08Z</time>
      </trkpt>
      <trkpt lat="46.03716" lon="6.2946">
        <ele>857.8</ele>
        <time>2021-03-27T13:22:09Z</time>
      </trkpt>
      <trkpt lat="46.03714" lon="6.29456">
        <ele>858</ele>
        <time>2021-03-27T13:22:10Z</time>
      </trkpt>
      <trkpt lat="46.03713" lon="6.29452">
        <ele>858.2</ele>
        <time>2021-03-27T13:22:11Z</time>
      </trkpt>
      <trkpt lat="46.03711" lon="6.29448">
        <ele>858.4</ele>
        <time>2021-03-27T13:22:12Z</time>
      </trkpt>
      <trkpt lat="46.03708" lon="6.29444">
        <ele>858.8</ele>
        <time>2021-03-27T13:22:13Z</time>
      </trkpt>
      <trkpt lat="46.03706" lon="6.2944">
        <ele>858.8</ele>
        <time>2021-03-27T13:22:14Z</time>
      </trkpt>
      <trkpt lat="46.03704" lon="6.29436">
        <ele>859</ele>
        <time>2021-03-27T13:22:15Z</time>
      </trkpt>
      <trkpt lat="46.03703" lon="6.29432">
        <ele>859.2</ele>
        <time>2021-03-27T13:22:16Z</time>
      </trkpt>
      <trkpt lat="46.037" lon="6.29428">
        <ele>859.2</ele>
        <time>2021-03-27T13:22:17Z</time>
      </trkpt>
      <trkpt lat="46.03698" lon="6.29424">
        <ele>859.4</ele>
        <time>2021-03-27T13:22:18Z</time>
      </trkpt>
      <trkpt lat="46.03696" lon="6.29421">
        <ele>859.4</ele>
        <time>2021-03-27T13:22:19Z</time>
      </trkpt>
      <trkpt lat="46.03694" lon="6.29417">
        <ele>859.6</ele>
        <time>2021-03-27T13:22:20Z</time>
      </trkpt>
      <trkpt lat="46.03692" lon="6.29413">
        <ele>859.6</ele>
        <time>2021-03-27T13:22:21Z</time>
      </trkpt>
      <trkpt lat="46.0369" lon="6.29409">
        <ele>859.8</ele>
        <time>2021-03-27T13:22:22Z</time>
      </trkpt>
      <trkpt lat="46.03688" lon="6.29405">
        <ele>860</ele>
        <time>2021-03-27T13:22:23Z</time>
      </trkpt>
      <trkpt lat="46.03686" lon="6.29402">
        <ele>860</ele>
        <time>2021-03-27T13:22:24Z</time>
      </trkpt>
      <trkpt lat="46.03684" lon="6.29398">
        <ele>860.2</ele>
        <time>2021-03-27T13:22:25Z</time>
      </trkpt>
      <trkpt lat="46.03681" lon="6.29394">
        <ele>860.2</ele>
        <time>2021-03-27T13:22:26Z</time>
      </trkpt>
      <trkpt lat="46.03679" lon="6.29391">
        <ele>860.4</ele>
        <time>2021-03-27T13:22:27Z</time>
      </trkpt>
      <trkpt lat="46.03677" lon="6.29387">
        <ele>860.8</ele>
        <time>2021-03-27T13:22:28Z</time>
      </trkpt>
      <trkpt lat="46.03675" lon="6.29384">
        <ele>861</ele>
        <time>2021-03-27T13:22:29Z</time>
      </trkpt>
      <trkpt lat="46.03672" lon="6.29381">
        <ele>861</ele>
        <time>2021-03-27T13:22:30Z</time>
      </trkpt>
      <trkpt lat="46.0367" lon="6.29378">
        <ele>861.2</ele>
        <time>2021-03-27T13:22:31Z</time>
      </trkpt>
      <trkpt lat="46.03667" lon="6.29375">
        <ele>861.4</ele>
        <time>2021-03-27T13:22:32Z</time>
      </trkpt>
      <trkpt lat="46.03665" lon="6.29372">
        <ele>861.4</ele>
        <time>2021-03-27T13:22:33Z</time>
      </trkpt>
      <trkpt lat="46.03662" lon="6.29368">
        <ele>861.4</ele>
        <time>2021-03-27T13:22:34Z</time>
      </trkpt>
      <trkpt lat="46.0366" lon="6.29365">
        <ele>861.6</ele>
        <time>2021-03-27T13:22:35Z</time>
      </trkpt>
      <trkpt lat="46.03657" lon="6.29362">
        <ele>861.4</ele>
        <time>2021-03-27T13:22:36Z</time>
      </trkpt>
      <trkpt lat="46.03655" lon="6.29359">
        <ele>861.6</ele>
        <time>2021-03-27T13:22:37Z</time>
      </trkpt>
      <trkpt lat="46.03653" lon="6.29355">
        <ele>861.8</ele>
        <time>2021-03-27T13:22:38Z</time>
      </trkpt>
      <trkpt lat="46.0365" lon="6.29352">
        <ele>862</ele>
        <time>2021-03-27T13:22:39Z</time>
      </trkpt>
      <trkpt lat="46.03648" lon="6.29349">
        <ele>862.8</ele>
        <time>2021-03-27T13:22:40Z</time>
      </trkpt>
      <trkpt lat="46.03645" lon="6.29346">
        <ele>863.4</ele>
        <time>2021-03-27T13:22:41Z</time>
      </trkpt>
      <trkpt lat="46.03643" lon="6.29343">
        <ele>864</ele>
        <time>2021-03-27T13:22:42Z</time>
      </trkpt>
      <trkpt lat="46.0364" lon="6.2934">
        <ele>864.4</ele>
        <time>2021-03-27T13:22:43Z</time>
      </trkpt>
      <trkpt lat="46.03637" lon="6.29337">
        <ele>864.4</ele>
        <time>2021-03-27T13:22:44Z</time>
      </trkpt>
      <trkpt lat="46.03635" lon="6.29333">
        <ele>864.6</ele>
        <time>2021-03-27T13:22:45Z</time>
      </trkpt>
      <trkpt lat="46.03632" lon="6.2933">
        <ele>864.6</ele>
        <time>2021-03-27T13:22:46Z</time>
      </trkpt>
      <trkpt lat="46.0363" lon="6.29327">
        <ele>864.8</ele>
        <time>2021-03-27T13:22:47Z</time>
      </trkpt>
      <trkpt lat="46.03627" lon="6.29324">
        <ele>864.6</ele>
        <time>2021-03-27T13:22:48Z</time>
      </trkpt>
      <trkpt lat="46.03624" lon="6.29321">
        <ele>865</ele>
        <time>2021-03-27T13:22:49Z</time>
      </trkpt>
      <trkpt lat="46.03621" lon="6.29318">
        <ele>865.4</ele>
        <time>2021-03-27T13:22:50Z</time>
      </trkpt>
      <trkpt lat="46.03618" lon="6.29315">
        <ele>865.6</ele>
        <time>2021-03-27T13:22:51Z</time>
      </trkpt>
      <trkpt lat="46.03616" lon="6.29312">
        <ele>865.6</ele>
        <time>2021-03-27T13:22:52Z</time>
      </trkpt>
      <trkpt lat="46.03613" lon="6.29309">
        <ele>865.8</ele>
        <time>2021-03-27T13:22:53Z</time>
      </trkpt>
      <trkpt lat="46.0361" lon="6.29306">
        <ele>866</ele>
        <time>2021-03-27T13:22:54Z</time>
      </trkpt>
      <trkpt lat="46.03608" lon="6.29303">
        <ele>866.2</ele>
        <time>2021-03-27T13:22:55Z</time>
      </trkpt>
      <trkpt lat="46.03606" lon="6.29301">
        <ele>866.4</ele>
        <time>2021-03-27T13:22:56Z</time>
      </trkpt>
      <trkpt lat="46.03603" lon="6.29298">
        <ele>866.6</ele>
        <time>2021-03-27T13:22:57Z</time>
      </trkpt>
      <trkpt lat="46.03601" lon="6.29295">
        <ele>866.6</ele>
        <time>2021-03-27T13:22:58Z</time>
      </trkpt>
      <trkpt lat="46.03599" lon="6.29292">
        <ele>866.8</ele>
        <time>2021-03-27T13:22:59Z</time>
      </trkpt>
      <trkpt lat="46.03596" lon="6.29289">
        <ele>867</ele>
        <time>2021-03-27T13:23:00Z</time>
      </trkpt>
      <trkpt lat="46.03594" lon="6.29286">
        <ele>867</ele>
        <time>2021-03-27T13:23:01Z</time>
      </trkpt>
      <trkpt lat="46.03591" lon="6.29283">
        <ele>867.4</ele>
        <time>2021-03-27T13:23:02Z</time>
      </trkpt>
      <trkpt lat="46.03589" lon="6.2928">
        <ele>867.6</ele>
        <time>2021-03-27T13:23:03Z</time>
      </trkpt>
      <trkpt lat="46.03587" lon="6.29277">
        <ele>867.8</ele>
        <time>2021-03-27T13:23:04Z</time>
      </trkpt>
      <trkpt lat="46.03584" lon="6.29274">
        <ele>868</ele>
        <time>2021-03-27T13:23:05Z</time>
      </trkpt>
      <trkpt lat="46.03582" lon="6.29271">
        <ele>868.2</ele>
        <time>2021-03-27T13:23:06Z</time>
      </trkpt>
      <trkpt lat="46.0358" lon="6.29268">
        <ele>868.4</ele>
        <time>2021-03-27T13:23:07Z</time>
      </trkpt>
      <trkpt lat="46.03577" lon="6.29265">
        <ele>868.6</ele>
        <time>2021-03-27T13:23:08Z</time>
      </trkpt>
      <trkpt lat="46.03575" lon="6.29261">
        <ele>868.8</ele>
        <time>2021-03-27T13:23:09Z</time>
      </trkpt>
      <trkpt lat="46.03573" lon="6.29257">
        <ele>868.8</ele>
        <time>2021-03-27T13:23:10Z</time>
      </trkpt>
      <trkpt lat="46.0357" lon="6.29254">
        <ele>869</ele>
        <time>2021-03-27T13:23:11Z</time>
      </trkpt>
      <trkpt lat="46.03568" lon="6.2925">
        <ele>869.2</ele>
        <time>2021-03-27T13:23:12Z</time>
      </trkpt>
      <trkpt lat="46.03566" lon="6.29247">
        <ele>869.4</ele>
        <time>2021-03-27T13:23:13Z</time>
      </trkpt>
      <trkpt lat="46.03563" lon="6.29243">
        <ele>869.4</ele>
        <time>2021-03-27T13:23:14Z</time>
      </trkpt>
      <trkpt lat="46.03561" lon="6.29239">
        <ele>869.8</ele>
        <time>2021-03-27T13:23:15Z</time>
      </trkpt>
      <trkpt lat="46.03558" lon="6.29236">
        <ele>869.8</ele>
        <time>2021-03-27T13:23:16Z</time>
      </trkpt>
      <trkpt lat="46.03555" lon="6.29232">
        <ele>870</ele>
        <time>2021-03-27T13:23:17Z</time>
      </trkpt>
      <trkpt lat="46.03553" lon="6.29229">
        <ele>870</ele>
        <time>2021-03-27T13:23:18Z</time>
      </trkpt>
      <trkpt lat="46.03551" lon="6.29225">
        <ele>870.2</ele>
        <time>2021-03-27T13:23:19Z</time>
      </trkpt>
      <trkpt lat="46.03548" lon="6.29222">
        <ele>870.2</ele>
        <time>2021-03-27T13:23:20Z</time>
      </trkpt>
      <trkpt lat="46.03546" lon="6.29218">
        <ele>870.4</ele>
        <time>2021-03-27T13:23:21Z</time>
      </trkpt>
      <trkpt lat="46.03544" lon="6.29215">
        <ele>870.4</ele>
        <time>2021-03-27T13:23:22Z</time>
      </trkpt>
      <trkpt lat="46.03542" lon="6.29211">
        <ele>870.4</ele>
        <time>2021-03-27T13:23:23Z</time>
      </trkpt>
      <trkpt lat="46.03539" lon="6.29207">
        <ele>870.4</ele>
        <time>2021-03-27T13:23:24Z</time>
      </trkpt>
      <trkpt lat="46.03537" lon="6.29203">
        <ele>870.6</ele>
        <time>2021-03-27T13:23:25Z</time>
      </trkpt>
      <trkpt lat="46.03536" lon="6.29199">
        <ele>870.8</ele>
        <time>2021-03-27T13:23:26Z</time>
      </trkpt>
      <trkpt lat="46.03534" lon="6.29195">
        <ele>870.8</ele>
        <time>2021-03-27T13:23:27Z</time>
      </trkpt>
      <trkpt lat="46.03532" lon="6.29191">
        <ele>870.8</ele>
        <time>2021-03-27T13:23:28Z</time>
      </trkpt>
      <trkpt lat="46.0353" lon="6.29187">
        <ele>871.2</ele>
        <time>2021-03-27T13:23:29Z</time>
      </trkpt>
      <trkpt lat="46.03528" lon="6.29183">
        <ele>871.6</ele>
        <time>2021-03-27T13:23:30Z</time>
      </trkpt>
      <trkpt lat="46.03526" lon="6.29178">
        <ele>872</ele>
        <time>2021-03-27T13:23:31Z</time>
      </trkpt>
      <trkpt lat="46.03524" lon="6.29174">
        <ele>872.4</ele>
        <time>2021-03-27T13:23:32Z</time>
      </trkpt>
      <trkpt lat="46.03523" lon="6.2917">
        <ele>872.4</ele>
        <time>2021-03-27T13:23:33Z</time>
      </trkpt>
      <trkpt lat="46.03521" lon="6.29165">
        <ele>872.6</ele>
        <time>2021-03-27T13:23:34Z</time>
      </trkpt>
      <trkpt lat="46.03519" lon="6.29161">
        <ele>872.8</ele>
        <time>2021-03-27T13:23:35Z</time>
      </trkpt>
      <trkpt lat="46.03517" lon="6.29156">
        <ele>873</ele>
        <time>2021-03-27T13:23:36Z</time>
      </trkpt>
      <trkpt lat="46.03516" lon="6.29152">
        <ele>873.4</ele>
        <time>2021-03-27T13:23:37Z</time>
      </trkpt>
      <trkpt lat="46.03514" lon="6.29148">
        <ele>873.6</ele>
        <time>2021-03-27T13:23:38Z</time>
      </trkpt>
      <trkpt lat="46.03512" lon="6.29143">
        <ele>873.8</ele>
        <time>2021-03-27T13:23:39Z</time>
      </trkpt>
      <trkpt lat="46.0351" lon="6.29139">
        <ele>873.8</ele>
        <time>2021-03-27T13:23:40Z</time>
      </trkpt>
      <trkpt lat="46.03509" lon="6.29135">
        <ele>874</ele>
        <time>2021-03-27T13:23:41Z</time>
      </trkpt>
      <trkpt lat="46.03507" lon="6.29132">
        <ele>874.2</ele>
        <time>2021-03-27T13:23:42Z</time>
      </trkpt>
      <trkpt lat="46.03506" lon="6.29127">
        <ele>874.4</ele>
        <time>2021-03-27T13:23:43Z</time>
      </trkpt>
      <trkpt lat="46.03504" lon="6.29123">
        <ele>874.6</ele>
        <time>2021-03-27T13:23:44Z</time>
      </trkpt>
      <trkpt lat="46.03503" lon="6.29119">
        <ele>874.6</ele>
        <time>2021-03-27T13:23:45Z</time>
      </trkpt>
      <trkpt lat="46.03502" lon="6.29114">
        <ele>874.8</ele>
        <time>2021-03-27T13:23:46Z</time>
      </trkpt>
      <trkpt lat="46.035" lon="6.29109">
        <ele>875.2</ele>
        <time>2021-03-27T13:23:47Z</time>
      </trkpt>
      <trkpt lat="46.03499" lon="6.29105">
        <ele>875.2</ele>
        <time>2021-03-27T13:23:48Z</time>
      </trkpt>
      <trkpt lat="46.03498" lon="6.291">
        <ele>875.4</ele>
        <time>2021-03-27T13:23:49Z</time>
      </trkpt>
      <trkpt lat="46.03497" lon="6.29096">
        <ele>875.4</ele>
        <time>2021-03-27T13:23:50Z</time>
      </trkpt>
      <trkpt lat="46.03497" lon="6.29091">
        <ele>875.6</ele>
        <time>2021-03-27T13:23:51Z</time>
      </trkpt>
      <trkpt lat="46.03496" lon="6.29086">
        <ele>875.8</ele>
        <time>2021-03-27T13:23:52Z</time>
      </trkpt>
      <trkpt lat="46.03495" lon="6.29081">
        <ele>876.2</ele>
        <time>2021-03-27T13:23:53Z</time>
      </trkpt>
      <trkpt lat="46.03494" lon="6.29076">
        <ele>876.2</ele>
        <time>2021-03-27T13:23:54Z</time>
      </trkpt>
      <trkpt lat="46.03493" lon="6.29071">
        <ele>876.4</ele>
        <time>2021-03-27T13:23:55Z</time>
      </trkpt>
      <trkpt lat="46.03493" lon="6.29067">
        <ele>876.6</ele>
        <time>2021-03-27T13:23:56Z</time>
      </trkpt>
      <trkpt lat="46.03492" lon="6.29062">
        <ele>876.8</ele>
        <time>2021-03-27T13:23:57Z</time>
      </trkpt>
      <trkpt lat="46.03491" lon="6.29057">
        <ele>877.2</ele>
        <time>2021-03-27T13:23:58Z</time>
      </trkpt>
      <trkpt lat="46.0349" lon="6.29053">
        <ele>877.4</ele>
        <time>2021-03-27T13:23:59Z</time>
      </trkpt>
      <trkpt lat="46.03489" lon="6.29048">
        <ele>877.4</ele>
        <time>2021-03-27T13:24:00Z</time>
      </trkpt>
      <trkpt lat="46.03488" lon="6.29044">
        <ele>877.4</ele>
        <time>2021-03-27T13:24:01Z</time>
      </trkpt>
      <trkpt lat="46.03487" lon="6.29039">
        <ele>877.6</ele>
        <time>2021-03-27T13:24:02Z</time>
      </trkpt>
      <trkpt lat="46.03486" lon="6.29035">
        <ele>877.8</ele>
        <time>2021-03-27T13:24:03Z</time>
      </trkpt>
      <trkpt lat="46.03484" lon="6.29031">
        <ele>877.8</ele>
        <time>2021-03-27T13:24:04Z</time>
      </trkpt>
      <trkpt lat="46.03483" lon="6.29026">
        <ele>878</ele>
        <time>2021-03-27T13:24:05Z</time>
      </trkpt>
      <trkpt lat="46.03482" lon="6.29022">
        <ele>878.2</ele>
        <time>2021-03-27T13:24:06Z</time>
      </trkpt>
      <trkpt lat="46.03481" lon="6.29017">
        <ele>878.4</ele>
        <time>2021-03-27T13:24:07Z</time>
      </trkpt>
      <trkpt lat="46.0348" lon="6.29012">
        <ele>878.4</ele>
        <time>2021-03-27T13:24:08Z</time>
      </trkpt>
      <trkpt lat="46.03478" lon="6.29008">
        <ele>878.4</ele>
        <time>2021-03-27T13:24:09Z</time>
      </trkpt>
      <trkpt lat="46.03477" lon="6.29004">
        <ele>878.8</ele>
        <time>2021-03-27T13:24:10Z</time>
      </trkpt>
      <trkpt lat="46.03475" lon="6.29">
        <ele>878.8</ele>
        <time>2021-03-27T13:24:11Z</time>
      </trkpt>
      <trkpt lat="46.03473" lon="6.28995">
        <ele>879</ele>
        <time>2021-03-27T13:24:12Z</time>
      </trkpt>
      <trkpt lat="46.03471" lon="6.28991">
        <ele>879.2</ele>
        <time>2021-03-27T13:24:13Z</time>
      </trkpt>
      <trkpt lat="46.03468" lon="6.28987">
        <ele>879.4</ele>
        <time>2021-03-27T13:24:14Z</time>
      </trkpt>
      <trkpt lat="46.03466" lon="6.28984">
        <ele>879.4</ele>
        <time>2021-03-27T13:24:15Z</time>
      </trkpt>
      <trkpt lat="46.03464" lon="6.2898">
        <ele>879.8</ele>
        <time>2021-03-27T13:24:16Z</time>
      </trkpt>
      <trkpt lat="46.03462" lon="6.28976">
        <ele>879.8</ele>
        <time>2021-03-27T13:24:17Z</time>
      </trkpt>
      <trkpt lat="46.03459" lon="6.28973">
        <ele>880.2</ele>
        <time>2021-03-27T13:24:18Z</time>
      </trkpt>
      <trkpt lat="46.03457" lon="6.28969">
        <ele>880.4</ele>
        <time>2021-03-27T13:24:19Z</time>
      </trkpt>
      <trkpt lat="46.03454" lon="6.28966">
        <ele>880.8</ele>
        <time>2021-03-27T13:24:20Z</time>
      </trkpt>
      <trkpt lat="46.03452" lon="6.28963">
        <ele>881.2</ele>
        <time>2021-03-27T13:24:21Z</time>
      </trkpt>
      <trkpt lat="46.03449" lon="6.2896">
        <ele>881.6</ele>
        <time>2021-03-27T13:24:22Z</time>
      </trkpt>
      <trkpt lat="46.03446" lon="6.28957">
        <ele>881.8</ele>
        <time>2021-03-27T13:24:23Z</time>
      </trkpt>
      <trkpt lat="46.03443" lon="6.28954">
        <ele>881.8</ele>
        <time>2021-03-27T13:24:24Z</time>
      </trkpt>
      <trkpt lat="46.03441" lon="6.28951">
        <ele>882</ele>
        <time>2021-03-27T13:24:25Z</time>
      </trkpt>
      <trkpt lat="46.03438" lon="6.28949">
        <ele>882.4</ele>
        <time>2021-03-27T13:24:26Z</time>
      </trkpt>
      <trkpt lat="46.03435" lon="6.28946">
        <ele>882.8</ele>
        <time>2021-03-27T13:24:27Z</time>
      </trkpt>
      <trkpt lat="46.03432" lon="6.28943">
        <ele>883.2</ele>
        <time>2021-03-27T13:24:28Z</time>
      </trkpt>
      <trkpt lat="46.03429" lon="6.28941">
        <ele>883.4</ele>
        <time>2021-03-27T13:24:29Z</time>
      </trkpt>
      <trkpt lat="46.03426" lon="6.28939">
        <ele>883.4</ele>
        <time>2021-03-27T13:24:30Z</time>
      </trkpt>
      <trkpt lat="46.03423" lon="6.28936">
        <ele>883.6</ele>
        <time>2021-03-27T13:24:31Z</time>
      </trkpt>
      <trkpt lat="46.0342" lon="6.28934">
        <ele>883.8</ele>
        <time>2021-03-27T13:24:32Z</time>
      </trkpt>
      <trkpt lat="46.03417" lon="6.28931">
        <ele>884</ele>
        <time>2021-03-27T13:24:33Z</time>
      </trkpt>
      <trkpt lat="46.03414" lon="6.28928">
        <ele>884.4</ele>
        <time>2021-03-27T13:24:34Z</time>
      </trkpt>
      <trkpt lat="46.03412" lon="6.28926">
        <ele>884.6</ele>
        <time>2021-03-27T13:24:35Z</time>
      </trkpt>
      <trkpt lat="46.03409" lon="6.28923">
        <ele>884.6</ele>
        <time>2021-03-27T13:24:36Z</time>
      </trkpt>
      <trkpt lat="46.03406" lon="6.2892">
        <ele>884.8</ele>
        <time>2021-03-27T13:24:37Z</time>
      </trkpt>
      <trkpt lat="46.03403" lon="6.28918">
        <ele>885</ele>
        <time>2021-03-27T13:24:38Z</time>
      </trkpt>
      <trkpt lat="46.034" lon="6.28915">
        <ele>885</ele>
        <time>2021-03-27T13:24:39Z</time>
      </trkpt>
      <trkpt lat="46.03397" lon="6.28912">
        <ele>885.2</ele>
        <time>2021-03-27T13:24:40Z</time>
      </trkpt>
      <trkpt lat="46.03394" lon="6.2891">
        <ele>885.4</ele>
        <time>2021-03-27T13:24:41Z</time>
      </trkpt>
      <trkpt lat="46.03391" lon="6.28907">
        <ele>885.4</ele>
        <time>2021-03-27T13:24:42Z</time>
      </trkpt>
      <trkpt lat="46.03387" lon="6.28905">
        <ele>885.4</ele>
        <time>2021-03-27T13:24:43Z</time>
      </trkpt>
      <trkpt lat="46.03384" lon="6.28902">
        <ele>885.8</ele>
        <time>2021-03-27T13:24:44Z</time>
      </trkpt>
      <trkpt lat="46.03381" lon="6.289">
        <ele>886</ele>
        <time>2021-03-27T13:24:45Z</time>
      </trkpt>
      <trkpt lat="46.03378" lon="6.28897">
        <ele>885.8</ele>
        <time>2021-03-27T13:24:46Z</time>
      </trkpt>
      <trkpt lat="46.03376" lon="6.28894">
        <ele>886</ele>
        <time>2021-03-27T13:24:47Z</time>
      </trkpt>
      <trkpt lat="46.03373" lon="6.28891">
        <ele>886.2</ele>
        <time>2021-03-27T13:24:48Z</time>
      </trkpt>
      <trkpt lat="46.0337" lon="6.28888">
        <ele>886.2</ele>
        <time>2021-03-27T13:24:49Z</time>
      </trkpt>
      <trkpt lat="46.03368" lon="6.28884">
        <ele>886.2</ele>
        <time>2021-03-27T13:24:50Z</time>
      </trkpt>
      <trkpt lat="46.03365" lon="6.28881">
        <ele>886.4</ele>
        <time>2021-03-27T13:24:51Z</time>
      </trkpt>
      <trkpt lat="46.03363" lon="6.28877">
        <ele>886.4</ele>
        <time>2021-03-27T13:24:52Z</time>
      </trkpt>
      <trkpt lat="46.03361" lon="6.28873">
        <ele>886.6</ele>
        <time>2021-03-27T13:24:53Z</time>
      </trkpt>
      <trkpt lat="46.03359" lon="6.28869">
        <ele>887</ele>
        <time>2021-03-27T13:24:54Z</time>
      </trkpt>
      <trkpt lat="46.03357" lon="6.28865">
        <ele>887.2</ele>
        <time>2021-03-27T13:24:55Z</time>
      </trkpt>
      <trkpt lat="46.03355" lon="6.28861">
        <ele>887.4</ele>
        <time>2021-03-27T13:24:56Z</time>
      </trkpt>
      <trkpt lat="46.03354" lon="6.28856">
        <ele>887.6</ele>
        <time>2021-03-27T13:24:57Z</time>
      </trkpt>
      <trkpt lat="46.03352" lon="6.28852">
        <ele>887.8</ele>
        <time>2021-03-27T13:24:58Z</time>
      </trkpt>
      <trkpt lat="46.03351" lon="6.28848">
        <ele>888.4</ele>
        <time>2021-03-27T13:24:59Z</time>
      </trkpt>
      <trkpt lat="46.03349" lon="6.28843">
        <ele>888.8</ele>
        <time>2021-03-27T13:25:00Z</time>
      </trkpt>
      <trkpt lat="46.03348" lon="6.28839">
        <ele>889.2</ele>
        <time>2021-03-27T13:25:01Z</time>
      </trkpt>
      <trkpt lat="46.03347" lon="6.28834">
        <ele>889.4</ele>
        <time>2021-03-27T13:25:02Z</time>
      </trkpt>
      <trkpt lat="46.03347" lon="6.2883">
        <ele>889.4</ele>
        <time>2021-03-27T13:25:03Z</time>
      </trkpt>
      <trkpt lat="46.03346" lon="6.28825">
        <ele>889.6</ele>
        <time>2021-03-27T13:25:04Z</time>
      </trkpt>
      <trkpt lat="46.03345" lon="6.28821">
        <ele>889.4</ele>
        <time>2021-03-27T13:25:05Z</time>
      </trkpt>
      <trkpt lat="46.03344" lon="6.28816">
        <ele>889.8</ele>
        <time>2021-03-27T13:25:06Z</time>
      </trkpt>
      <trkpt lat="46.03342" lon="6.28812">
        <ele>890.2</ele>
        <time>2021-03-27T13:25:07Z</time>
      </trkpt>
      <trkpt lat="46.03341" lon="6.28807">
        <ele>890.2</ele>
        <time>2021-03-27T13:25:08Z</time>
      </trkpt>
      <trkpt lat="46.0334" lon="6.28803">
        <ele>890.4</ele>
        <time>2021-03-27T13:25:09Z</time>
      </trkpt>
      <trkpt lat="46.03339" lon="6.28799">
        <ele>890.4</ele>
        <time>2021-03-27T13:25:10Z</time>
      </trkpt>
      <trkpt lat="46.03338" lon="6.28794">
        <ele>890.8</ele>
        <time>2021-03-27T13:25:11Z</time>
      </trkpt>
      <trkpt lat="46.03336" lon="6.2879">
        <ele>890.8</ele>
        <time>2021-03-27T13:25:12Z</time>
      </trkpt>
      <trkpt lat="46.03335" lon="6.28786">
        <ele>891.2</ele>
        <time>2021-03-27T13:25:13Z</time>
      </trkpt>
      <trkpt lat="46.03333" lon="6.28782">
        <ele>891.6</ele>
        <time>2021-03-27T13:25:14Z</time>
      </trkpt>
      <trkpt lat="46.03331" lon="6.28778">
        <ele>891.8</ele>
        <time>2021-03-27T13:25:15Z</time>
      </trkpt>
      <trkpt lat="46.0333" lon="6.28773">
        <ele>891.8</ele>
        <time>2021-03-27T13:25:16Z</time>
      </trkpt>
      <trkpt lat="46.03328" lon="6.28769">
        <ele>892.2</ele>
        <time>2021-03-27T13:25:17Z</time>
      </trkpt>
      <trkpt lat="46.03326" lon="6.28765">
        <ele>892.2</ele>
        <time>2021-03-27T13:25:18Z</time>
      </trkpt>
      <trkpt lat="46.03325" lon="6.28761">
        <ele>892.4</ele>
        <time>2021-03-27T13:25:19Z</time>
      </trkpt>
      <trkpt lat="46.03323" lon="6.28757">
        <ele>892.6</ele>
        <time>2021-03-27T13:25:20Z</time>
      </trkpt>
      <trkpt lat="46.03322" lon="6.28754">
        <ele>892.8</ele>
        <time>2021-03-27T13:25:21Z</time>
      </trkpt>
      <trkpt lat="46.0332" lon="6.2875">
        <ele>893</ele>
        <time>2021-03-27T13:25:22Z</time>
      </trkpt>
      <trkpt lat="46.03318" lon="6.28747">
        <ele>893.4</ele>
        <time>2021-03-27T13:25:23Z</time>
      </trkpt>
      <trkpt lat="46.03317" lon="6.28743">
        <ele>893.6</ele>
        <time>2021-03-27T13:25:24Z</time>
      </trkpt>
      <trkpt lat="46.03315" lon="6.2874">
        <ele>894</ele>
        <time>2021-03-27T13:25:25Z</time>
      </trkpt>
      <trkpt lat="46.03313" lon="6.28737">
        <ele>894.2</ele>
        <time>2021-03-27T13:25:26Z</time>
      </trkpt>
      <trkpt lat="46.03312" lon="6.28734">
        <ele>894.4</ele>
        <time>2021-03-27T13:25:27Z</time>
      </trkpt>
      <trkpt lat="46.0331" lon="6.28731">
        <ele>894.8</ele>
        <time>2021-03-27T13:25:28Z</time>
      </trkpt>
      <trkpt lat="46.03309" lon="6.28729">
        <ele>894.8</ele>
        <time>2021-03-27T13:25:29Z</time>
      </trkpt>
      <trkpt lat="46.03307" lon="6.28727">
        <ele>895.2</ele>
        <time>2021-03-27T13:25:30Z</time>
      </trkpt>
      <trkpt lat="46.03305" lon="6.28725">
        <ele>895.4</ele>
        <time>2021-03-27T13:25:31Z</time>
      </trkpt>
      <trkpt lat="46.03303" lon="6.28723">
        <ele>895.6</ele>
        <time>2021-03-27T13:25:32Z</time>
      </trkpt>
      <trkpt lat="46.033" lon="6.28722">
        <ele>895.8</ele>
        <time>2021-03-27T13:25:33Z</time>
      </trkpt>
      <trkpt lat="46.03297" lon="6.2872">
        <ele>896</ele>
        <time>2021-03-27T13:25:34Z</time>
      </trkpt>
      <trkpt lat="46.03294" lon="6.28719">
        <ele>896.2</ele>
        <time>2021-03-27T13:25:35Z</time>
      </trkpt>
      <trkpt lat="46.0329" lon="6.28717">
        <ele>896.6</ele>
        <time>2021-03-27T13:25:36Z</time>
      </trkpt>
      <trkpt lat="46.03287" lon="6.28716">
        <ele>896.6</ele>
        <time>2021-03-27T13:25:37Z</time>
      </trkpt>
      <trkpt lat="46.03284" lon="6.28715">
        <ele>896.6</ele>
        <time>2021-03-27T13:25:38Z</time>
      </trkpt>
      <trkpt lat="46.0328" lon="6.28714">
        <ele>896.8</ele>
        <time>2021-03-27T13:25:39Z</time>
      </trkpt>
      <trkpt lat="46.03277" lon="6.28713">
        <ele>897.2</ele>
        <time>2021-03-27T13:25:40Z</time>
      </trkpt>
      <trkpt lat="46.03273" lon="6.28712">
        <ele>897.4</ele>
        <time>2021-03-27T13:25:41Z</time>
      </trkpt>
      <trkpt lat="46.0327" lon="6.2871">
        <ele>897.6</ele>
        <time>2021-03-27T13:25:42Z</time>
      </trkpt>
      <trkpt lat="46.03267" lon="6.28709">
        <ele>897.6</ele>
        <time>2021-03-27T13:25:43Z</time>
      </trkpt>
      <trkpt lat="46.03264" lon="6.28709">
        <ele>897.6</ele>
        <time>2021-03-27T13:25:44Z</time>
      </trkpt>
      <trkpt lat="46.03261" lon="6.28707">
        <ele>897.6</ele>
        <time>2021-03-27T13:25:45Z</time>
      </trkpt>
      <trkpt lat="46.03258" lon="6.28706">
        <ele>897.8</ele>
        <time>2021-03-27T13:25:46Z</time>
      </trkpt>
      <trkpt lat="46.03255" lon="6.28704">
        <ele>897.8</ele>
        <time>2021-03-27T13:25:47Z</time>
      </trkpt>
      <trkpt lat="46.03252" lon="6.28703">
        <ele>898.2</ele>
        <time>2021-03-27T13:25:48Z</time>
      </trkpt>
      <trkpt lat="46.03249" lon="6.28701">
        <ele>898.2</ele>
        <time>2021-03-27T13:25:49Z</time>
      </trkpt>
      <trkpt lat="46.03245" lon="6.28699">
        <ele>898.4</ele>
        <time>2021-03-27T13:25:50Z</time>
      </trkpt>
      <trkpt lat="46.03242" lon="6.28696">
        <ele>898.6</ele>
        <time>2021-03-27T13:25:51Z</time>
      </trkpt>
      <trkpt lat="46.03239" lon="6.28694">
        <ele>898.8</ele>
        <time>2021-03-27T13:25:52Z</time>
      </trkpt>
      <trkpt lat="46.03236" lon="6.28692">
        <ele>898.8</ele>
        <time>2021-03-27T13:25:53Z</time>
      </trkpt>
      <trkpt lat="46.03232" lon="6.2869">
        <ele>899</ele>
        <time>2021-03-27T13:25:54Z</time>
      </trkpt>
      <trkpt lat="46.03229" lon="6.28687">
        <ele>899</ele>
        <time>2021-03-27T13:25:55Z</time>
      </trkpt>
      <trkpt lat="46.03226" lon="6.28685">
        <ele>899.2</ele>
        <time>2021-03-27T13:25:56Z</time>
      </trkpt>
      <trkpt lat="46.03223" lon="6.28682">
        <ele>899.2</ele>
        <time>2021-03-27T13:25:57Z</time>
      </trkpt>
      <trkpt lat="46.03221" lon="6.2868">
        <ele>899.2</ele>
        <time>2021-03-27T13:25:58Z</time>
      </trkpt>
      <trkpt lat="46.03218" lon="6.28678">
        <ele>899.4</ele>
        <time>2021-03-27T13:25:59Z</time>
      </trkpt>
      <trkpt lat="46.03215" lon="6.28675">
        <ele>899.4</ele>
        <time>2021-03-27T13:26:00Z</time>
      </trkpt>
      <trkpt lat="46.03213" lon="6.28672">
        <ele>899.4</ele>
        <time>2021-03-27T13:26:01Z</time>
      </trkpt>
      <trkpt lat="46.0321" lon="6.28668">
        <ele>899.4</ele>
        <time>2021-03-27T13:26:02Z</time>
      </trkpt>
      <trkpt lat="46.03208" lon="6.28665">
        <ele>899.4</ele>
        <time>2021-03-27T13:26:03Z</time>
      </trkpt>
      <trkpt lat="46.03205" lon="6.28661">
        <ele>899.6</ele>
        <time>2021-03-27T13:26:04Z</time>
      </trkpt>
      <trkpt lat="46.03203" lon="6.28658">
        <ele>899.8</ele>
        <time>2021-03-27T13:26:05Z</time>
      </trkpt>
      <trkpt lat="46.03201" lon="6.28654">
        <ele>899.8</ele>
        <time>2021-03-27T13:26:06Z</time>
      </trkpt>
      <trkpt lat="46.03198" lon="6.28651">
        <ele>900</ele>
        <time>2021-03-27T13:26:07Z</time>
      </trkpt>
      <trkpt lat="46.03196" lon="6.28647">
        <ele>900.2</ele>
        <time>2021-03-27T13:26:08Z</time>
      </trkpt>
      <trkpt lat="46.03194" lon="6.28643">
        <ele>900.4</ele>
        <time>2021-03-27T13:26:09Z</time>
      </trkpt>
      <trkpt lat="46.03192" lon="6.28639">
        <ele>900.6</ele>
        <time>2021-03-27T13:26:10Z</time>
      </trkpt>
      <trkpt lat="46.03191" lon="6.28634">
        <ele>900.6</ele>
        <time>2021-03-27T13:26:11Z</time>
      </trkpt>
      <trkpt lat="46.03189" lon="6.2863">
        <ele>901</ele>
        <time>2021-03-27T13:26:12Z</time>
      </trkpt>
      <trkpt lat="46.03188" lon="6.28625">
        <ele>901.4</ele>
        <time>2021-03-27T13:26:13Z</time>
      </trkpt>
      <trkpt lat="46.03186" lon="6.28621">
        <ele>901.8</ele>
        <time>2021-03-27T13:26:14Z</time>
      </trkpt>
      <trkpt lat="46.03185" lon="6.28616">
        <ele>902.2</ele>
        <time>2021-03-27T13:26:15Z</time>
      </trkpt>
      <trkpt lat="46.03184" lon="6.28611">
        <ele>902.4</ele>
        <time>2021-03-27T13:26:16Z</time>
      </trkpt>
      <trkpt lat="46.03183" lon="6.28607">
        <ele>902.6</ele>
        <time>2021-03-27T13:26:17Z</time>
      </trkpt>
      <trkpt lat="46.03182" lon="6.28602">
        <ele>902.8</ele>
        <time>2021-03-27T13:26:18Z</time>
      </trkpt>
      <trkpt lat="46.03181" lon="6.28598">
        <ele>903.2</ele>
        <time>2021-03-27T13:26:19Z</time>
      </trkpt>
      <trkpt lat="46.0318" lon="6.28593">
        <ele>903.6</ele>
        <time>2021-03-27T13:26:20Z</time>
      </trkpt>
      <trkpt lat="46.03178" lon="6.28589">
        <ele>903.8</ele>
        <time>2021-03-27T13:26:21Z</time>
      </trkpt>
      <trkpt lat="46.03177" lon="6.28584">
        <ele>904</ele>
        <time>2021-03-27T13:26:22Z</time>
      </trkpt>
      <trkpt lat="46.03177" lon="6.2858">
        <ele>904</ele>
        <time>2021-03-27T13:26:23Z</time>
      </trkpt>
      <trkpt lat="46.03176" lon="6.28575">
        <ele>904.2</ele>
        <time>2021-03-27T13:26:24Z</time>
      </trkpt>
      <trkpt lat="46.03175" lon="6.28571">
        <ele>904.2</ele>
        <time>2021-03-27T13:26:25Z</time>
      </trkpt>
      <trkpt lat="46.03174" lon="6.28566">
        <ele>904.4</ele>
        <time>2021-03-27T13:26:26Z</time>
      </trkpt>
      <trkpt lat="46.03172" lon="6.28563">
        <ele>904.8</ele>
        <time>2021-03-27T13:26:27Z</time>
      </trkpt>
      <trkpt lat="46.03171" lon="6.28559">
        <ele>905</ele>
        <time>2021-03-27T13:26:28Z</time>
      </trkpt>
      <trkpt lat="46.03169" lon="6.28555">
        <ele>905.4</ele>
        <time>2021-03-27T13:26:29Z</time>
      </trkpt>
      <trkpt lat="46.03167" lon="6.28551">
        <ele>905.6</ele>
        <time>2021-03-27T13:26:30Z</time>
      </trkpt>
      <trkpt lat="46.03165" lon="6.28547">
        <ele>906</ele>
        <time>2021-03-27T13:26:31Z</time>
      </trkpt>
      <trkpt lat="46.03164" lon="6.28544">
        <ele>906.2</ele>
        <time>2021-03-27T13:26:32Z</time>
      </trkpt>
      <trkpt lat="46.03162" lon="6.28541">
        <ele>906.4</ele>
        <time>2021-03-27T13:26:33Z</time>
      </trkpt>
      <trkpt lat="46.03159" lon="6.28537">
        <ele>906.8</ele>
        <time>2021-03-27T13:26:34Z</time>
      </trkpt>
      <trkpt lat="46.03157" lon="6.28535">
        <ele>907</ele>
        <time>2021-03-27T13:26:35Z</time>
      </trkpt>
      <trkpt lat="46.03154" lon="6.28533">
        <ele>907.2</ele>
        <time>2021-03-27T13:26:36Z</time>
      </trkpt>
      <trkpt lat="46.03151" lon="6.28531">
        <ele>907.4</ele>
        <time>2021-03-27T13:26:37Z</time>
      </trkpt>
      <trkpt lat="46.03149" lon="6.2853">
        <ele>907.8</ele>
        <time>2021-03-27T13:26:38Z</time>
      </trkpt>
      <trkpt lat="46.03146" lon="6.28528">
        <ele>907.8</ele>
        <time>2021-03-27T13:26:39Z</time>
      </trkpt>
      <trkpt lat="46.03144" lon="6.28526">
        <ele>908</ele>
        <time>2021-03-27T13:26:40Z</time>
      </trkpt>
      <trkpt lat="46.03141" lon="6.28525">
        <ele>908</ele>
        <time>2021-03-27T13:26:41Z</time>
      </trkpt>
      <trkpt lat="46.03139" lon="6.28524">
        <ele>908.4</ele>
        <time>2021-03-27T13:26:42Z</time>
      </trkpt>
      <trkpt lat="46.03136" lon="6.28522">
        <ele>908.6</ele>
        <time>2021-03-27T13:26:43Z</time>
      </trkpt>
      <trkpt lat="46.03133" lon="6.28521">
        <ele>908.8</ele>
        <time>2021-03-27T13:26:44Z</time>
      </trkpt>
      <trkpt lat="46.0313" lon="6.2852">
        <ele>909</ele>
        <time>2021-03-27T13:26:45Z</time>
      </trkpt>
      <trkpt lat="46.03126" lon="6.28519">
        <ele>909.4</ele>
        <time>2021-03-27T13:26:46Z</time>
      </trkpt>
      <trkpt lat="46.03123" lon="6.28518">
        <ele>909.6</ele>
        <time>2021-03-27T13:26:47Z</time>
      </trkpt>
      <trkpt lat="46.03119" lon="6.28517">
        <ele>910</ele>
        <time>2021-03-27T13:26:48Z</time>
      </trkpt>
      <trkpt lat="46.03116" lon="6.28516">
        <ele>910.2</ele>
        <time>2021-03-27T13:26:49Z</time>
      </trkpt>
      <trkpt lat="46.03113" lon="6.28516">
        <ele>910.2</ele>
        <time>2021-03-27T13:26:50Z</time>
      </trkpt>
      <trkpt lat="46.0311" lon="6.28515">
        <ele>910.4</ele>
        <time>2021-03-27T13:26:51Z</time>
      </trkpt>
      <trkpt lat="46.03106" lon="6.28515">
        <ele>910.6</ele>
        <time>2021-03-27T13:26:52Z</time>
      </trkpt>
      <trkpt lat="46.03103" lon="6.28514">
        <ele>910.6</ele>
        <time>2021-03-27T13:26:53Z</time>
      </trkpt>
      <trkpt lat="46.031" lon="6.28513">
        <ele>910.6</ele>
        <time>2021-03-27T13:26:54Z</time>
      </trkpt>
      <trkpt lat="46.03097" lon="6.28513">
        <ele>910.6</ele>
        <time>2021-03-27T13:26:55Z</time>
      </trkpt>
      <trkpt lat="46.03093" lon="6.28513">
        <ele>911</ele>
        <time>2021-03-27T13:26:56Z</time>
      </trkpt>
      <trkpt lat="46.0309" lon="6.28512">
        <ele>911.2</ele>
        <time>2021-03-27T13:26:57Z</time>
      </trkpt>
      <trkpt lat="46.03087" lon="6.28511">
        <ele>911.2</ele>
        <time>2021-03-27T13:26:58Z</time>
      </trkpt>
      <trkpt lat="46.03084" lon="6.2851">
        <ele>911.6</ele>
        <time>2021-03-27T13:26:59Z</time>
      </trkpt>
      <trkpt lat="46.03081" lon="6.28508">
        <ele>912</ele>
        <time>2021-03-27T13:27:00Z</time>
      </trkpt>
      <trkpt lat="46.03078" lon="6.28507">
        <ele>912</ele>
        <time>2021-03-27T13:27:01Z</time>
      </trkpt>
      <trkpt lat="46.03075" lon="6.28506">
        <ele>912.2</ele>
        <time>2021-03-27T13:27:02Z</time>
      </trkpt>
      <trkpt lat="46.03072" lon="6.28504">
        <ele>912.4</ele>
        <time>2021-03-27T13:27:03Z</time>
      </trkpt>
      <trkpt lat="46.03069" lon="6.28501">
        <ele>912.8</ele>
        <time>2021-03-27T13:27:04Z</time>
      </trkpt>
      <trkpt lat="46.03066" lon="6.28499">
        <ele>912.8</ele>
        <time>2021-03-27T13:27:05Z</time>
      </trkpt>
      <trkpt lat="46.03063" lon="6.28497">
        <ele>912.8</ele>
        <time>2021-03-27T13:27:06Z</time>
      </trkpt>
      <trkpt lat="46.0306" lon="6.28495">
        <ele>913</ele>
        <time>2021-03-27T13:27:07Z</time>
      </trkpt>
      <trkpt lat="46.03057" lon="6.28492">
        <ele>913</ele>
        <time>2021-03-27T13:27:08Z</time>
      </trkpt>
      <trkpt lat="46.03054" lon="6.2849">
        <ele>913</ele>
        <time>2021-03-27T13:27:09Z</time>
      </trkpt>
      <trkpt lat="46.03052" lon="6.28487">
        <ele>913.4</ele>
        <time>2021-03-27T13:27:10Z</time>
      </trkpt>
      <trkpt lat="46.03049" lon="6.28484">
        <ele>913.2</ele>
        <time>2021-03-27T13:27:11Z</time>
      </trkpt>
      <trkpt lat="46.03046" lon="6.28482">
        <ele>913.4</ele>
        <time>2021-03-27T13:27:12Z</time>
      </trkpt>
      <trkpt lat="46.03044" lon="6.28479">
        <ele>913.4</ele>
        <time>2021-03-27T13:27:13Z</time>
      </trkpt>
      <trkpt lat="46.03041" lon="6.28476">
        <ele>914</ele>
        <time>2021-03-27T13:27:14Z</time>
      </trkpt>
      <trkpt lat="46.03039" lon="6.28473">
        <ele>914.4</ele>
        <time>2021-03-27T13:27:15Z</time>
      </trkpt>
      <trkpt lat="46.03036" lon="6.2847">
        <ele>914.4</ele>
        <time>2021-03-27T13:27:16Z</time>
      </trkpt>
      <trkpt lat="46.03034" lon="6.28467">
        <ele>914.6</ele>
        <time>2021-03-27T13:27:17Z</time>
      </trkpt>
      <trkpt lat="46.03031" lon="6.28464">
        <ele>915</ele>
        <time>2021-03-27T13:27:18Z</time>
      </trkpt>
      <trkpt lat="46.03029" lon="6.28461">
        <ele>915</ele>
        <time>2021-03-27T13:27:19Z</time>
      </trkpt>
      <trkpt lat="46.03026" lon="6.28458">
        <ele>915.4</ele>
        <time>2021-03-27T13:27:20Z</time>
      </trkpt>
      <trkpt lat="46.03023" lon="6.28455">
        <ele>915.6</ele>
        <time>2021-03-27T13:27:21Z</time>
      </trkpt>
      <trkpt lat="46.03021" lon="6.28452">
        <ele>915.6</ele>
        <time>2021-03-27T13:27:22Z</time>
      </trkpt>
      <trkpt lat="46.03018" lon="6.28449">
        <ele>915.8</ele>
        <time>2021-03-27T13:27:23Z</time>
      </trkpt>
      <trkpt lat="46.03016" lon="6.28446">
        <ele>916</ele>
        <time>2021-03-27T13:27:24Z</time>
      </trkpt>
      <trkpt lat="46.03013" lon="6.28443">
        <ele>916</ele>
        <time>2021-03-27T13:27:25Z</time>
      </trkpt>
      <trkpt lat="46.03011" lon="6.2844">
        <ele>916.2</ele>
        <time>2021-03-27T13:27:26Z</time>
      </trkpt>
      <trkpt lat="46.03009" lon="6.28436">
        <ele>916.2</ele>
        <time>2021-03-27T13:27:27Z</time>
      </trkpt>
      <trkpt lat="46.03006" lon="6.28433">
        <ele>916.2</ele>
        <time>2021-03-27T13:27:28Z</time>
      </trkpt>
      <trkpt lat="46.03004" lon="6.2843">
        <ele>916.4</ele>
        <time>2021-03-27T13:27:29Z</time>
      </trkpt>
      <trkpt lat="46.03002" lon="6.28427">
        <ele>916.2</ele>
        <time>2021-03-27T13:27:30Z</time>
      </trkpt>
      <trkpt lat="46.02999" lon="6.28424">
        <ele>916.6</ele>
        <time>2021-03-27T13:27:31Z</time>
      </trkpt>
      <trkpt lat="46.02997" lon="6.28421">
        <ele>916.8</ele>
        <time>2021-03-27T13:27:32Z</time>
      </trkpt>
      <trkpt lat="46.02994" lon="6.28418">
        <ele>917</ele>
        <time>2021-03-27T13:27:33Z</time>
      </trkpt>
      <trkpt lat="46.02992" lon="6.28415">
        <ele>917.2</ele>
        <time>2021-03-27T13:27:34Z</time>
      </trkpt>
      <trkpt lat="46.02989" lon="6.28411">
        <ele>917.4</ele>
        <time>2021-03-27T13:27:35Z</time>
      </trkpt>
      <trkpt lat="46.02987" lon="6.28408">
        <ele>917.4</ele>
        <time>2021-03-27T13:27:36Z</time>
      </trkpt>
      <trkpt lat="46.02984" lon="6.28405">
        <ele>917.6</ele>
        <time>2021-03-27T13:27:37Z</time>
      </trkpt>
      <trkpt lat="46.02982" lon="6.28402">
        <ele>917.8</ele>
        <time>2021-03-27T13:27:38Z</time>
      </trkpt>
      <trkpt lat="46.0298" lon="6.28399">
        <ele>918</ele>
        <time>2021-03-27T13:27:39Z</time>
      </trkpt>
      <trkpt lat="46.02978" lon="6.28396">
        <ele>918</ele>
        <time>2021-03-27T13:27:40Z</time>
      </trkpt>
      <trkpt lat="46.02975" lon="6.28393">
        <ele>918</ele>
        <time>2021-03-27T13:27:41Z</time>
      </trkpt>
      <trkpt lat="46.02973" lon="6.2839">
        <ele>918.4</ele>
        <time>2021-03-27T13:27:42Z</time>
      </trkpt>
      <trkpt lat="46.0297" lon="6.28387">
        <ele>918.4</ele>
        <time>2021-03-27T13:27:43Z</time>
      </trkpt>
      <trkpt lat="46.02968" lon="6.28384">
        <ele>918.6</ele>
        <time>2021-03-27T13:27:44Z</time>
      </trkpt>
      <trkpt lat="46.02966" lon="6.2838">
        <ele>918.8</ele>
        <time>2021-03-27T13:27:45Z</time>
      </trkpt>
      <trkpt lat="46.02963" lon="6.28377">
        <ele>919.2</ele>
        <time>2021-03-27T13:27:46Z</time>
      </trkpt>
      <trkpt lat="46.02961" lon="6.28374">
        <ele>919.4</ele>
        <time>2021-03-27T13:27:47Z</time>
      </trkpt>
      <trkpt lat="46.02958" lon="6.28371">
        <ele>919.8</ele>
        <time>2021-03-27T13:27:48Z</time>
      </trkpt>
      <trkpt lat="46.02956" lon="6.28367">
        <ele>920</ele>
        <time>2021-03-27T13:27:49Z</time>
      </trkpt>
      <trkpt lat="46.02953" lon="6.28364">
        <ele>920.2</ele>
        <time>2021-03-27T13:27:50Z</time>
      </trkpt>
      <trkpt lat="46.02951" lon="6.28361">
        <ele>920.6</ele>
        <time>2021-03-27T13:27:51Z</time>
      </trkpt>
      <trkpt lat="46.02948" lon="6.28357">
        <ele>920.8</ele>
        <time>2021-03-27T13:27:52Z</time>
      </trkpt>
      <trkpt lat="46.02946" lon="6.28354">
        <ele>921.2</ele>
        <time>2021-03-27T13:27:53Z</time>
      </trkpt>
      <trkpt lat="46.02944" lon="6.28351">
        <ele>921.4</ele>
        <time>2021-03-27T13:27:54Z</time>
      </trkpt>
      <trkpt lat="46.02941" lon="6.28347">
        <ele>921.4</ele>
        <time>2021-03-27T13:27:55Z</time>
      </trkpt>
      <trkpt lat="46.02939" lon="6.28344">
        <ele>921.6</ele>
        <time>2021-03-27T13:27:56Z</time>
      </trkpt>
      <trkpt lat="46.02936" lon="6.28341">
        <ele>921.6</ele>
        <time>2021-03-27T13:27:57Z</time>
      </trkpt>
      <trkpt lat="46.02934" lon="6.28337">
        <ele>921.6</ele>
        <time>2021-03-27T13:27:58Z</time>
      </trkpt>
      <trkpt lat="46.02932" lon="6.28334">
        <ele>922</ele>
        <time>2021-03-27T13:27:59Z</time>
      </trkpt>
      <trkpt lat="46.0293" lon="6.28331">
        <ele>922.2</ele>
        <time>2021-03-27T13:28:00Z</time>
      </trkpt>
      <trkpt lat="46.02927" lon="6.28328">
        <ele>922.2</ele>
        <time>2021-03-27T13:28:01Z</time>
      </trkpt>
      <trkpt lat="46.02925" lon="6.28324">
        <ele>922.4</ele>
        <time>2021-03-27T13:28:02Z</time>
      </trkpt>
      <trkpt lat="46.02922" lon="6.28321">
        <ele>922.6</ele>
        <time>2021-03-27T13:28:03Z</time>
      </trkpt>
      <trkpt lat="46.0292" lon="6.28318">
        <ele>922.8</ele>
        <time>2021-03-27T13:28:04Z</time>
      </trkpt>
      <trkpt lat="46.02918" lon="6.28315">
        <ele>923.4</ele>
        <time>2021-03-27T13:28:05Z</time>
      </trkpt>
      <trkpt lat="46.02915" lon="6.28312">
        <ele>923.6</ele>
        <time>2021-03-27T13:28:06Z</time>
      </trkpt>
      <trkpt lat="46.02913" lon="6.28308">
        <ele>923.8</ele>
        <time>2021-03-27T13:28:07Z</time>
      </trkpt>
      <trkpt lat="46.02911" lon="6.28305">
        <ele>924</ele>
        <time>2021-03-27T13:28:08Z</time>
      </trkpt>
      <trkpt lat="46.02909" lon="6.28302">
        <ele>924.2</ele>
        <time>2021-03-27T13:28:09Z</time>
      </trkpt>
      <trkpt lat="46.02906" lon="6.28299">
        <ele>924.2</ele>
        <time>2021-03-27T13:28:10Z</time>
      </trkpt>
      <trkpt lat="46.02904" lon="6.28296">
        <ele>924.6</ele>
        <time>2021-03-27T13:28:11Z</time>
      </trkpt>
      <trkpt lat="46.02902" lon="6.28293">
        <ele>924.6</ele>
        <time>2021-03-27T13:28:12Z</time>
      </trkpt>
      <trkpt lat="46.02899" lon="6.2829">
        <ele>924.6</ele>
        <time>2021-03-27T13:28:13Z</time>
      </trkpt>
      <trkpt lat="46.02897" lon="6.28287">
        <ele>925</ele>
        <time>2021-03-27T13:28:14Z</time>
      </trkpt>
      <trkpt lat="46.02895" lon="6.28283">
        <ele>925.2</ele>
        <time>2021-03-27T13:28:15Z</time>
      </trkpt>
      <trkpt lat="46.02892" lon="6.2828">
        <ele>925.4</ele>
        <time>2021-03-27T13:28:16Z</time>
      </trkpt>
      <trkpt lat="46.0289" lon="6.28278">
        <ele>926</ele>
        <time>2021-03-27T13:28:17Z</time>
      </trkpt>
      <trkpt lat="46.02887" lon="6.28275">
        <ele>926.2</ele>
        <time>2021-03-27T13:28:18Z</time>
      </trkpt>
      <trkpt lat="46.02885" lon="6.28273">
        <ele>926.2</ele>
        <time>2021-03-27T13:28:19Z</time>
      </trkpt>
      <trkpt lat="46.02882" lon="6.28271">
        <ele>926.8</ele>
        <time>2021-03-27T13:28:20Z</time>
      </trkpt>
      <trkpt lat="46.02879" lon="6.28269">
        <ele>927</ele>
        <time>2021-03-27T13:28:21Z</time>
      </trkpt>
      <trkpt lat="46.02876" lon="6.28268">
        <ele>927.2</ele>
        <time>2021-03-27T13:28:22Z</time>
      </trkpt>
      <trkpt lat="46.02873" lon="6.28266">
        <ele>927.4</ele>
        <time>2021-03-27T13:28:23Z</time>
      </trkpt>
      <trkpt lat="46.0287" lon="6.28265">
        <ele>927.6</ele>
        <time>2021-03-27T13:28:24Z</time>
      </trkpt>
      <trkpt lat="46.02867" lon="6.28264">
        <ele>927.8</ele>
        <time>2021-03-27T13:28:25Z</time>
      </trkpt>
      <trkpt lat="46.02864" lon="6.28263">
        <ele>928.2</ele>
        <time>2021-03-27T13:28:26Z</time>
      </trkpt>
      <trkpt lat="46.02861" lon="6.28263">
        <ele>928.6</ele>
        <time>2021-03-27T13:28:27Z</time>
      </trkpt>
      <trkpt lat="46.02858" lon="6.28263">
        <ele>928.6</ele>
        <time>2021-03-27T13:28:28Z</time>
      </trkpt>
      <trkpt lat="46.02855" lon="6.28262">
        <ele>928.8</ele>
        <time>2021-03-27T13:28:29Z</time>
      </trkpt>
      <trkpt lat="46.02852" lon="6.28263">
        <ele>929</ele>
        <time>2021-03-27T13:28:30Z</time>
      </trkpt>
      <trkpt lat="46.02848" lon="6.28263">
        <ele>929.4</ele>
        <time>2021-03-27T13:28:31Z</time>
      </trkpt>
      <trkpt lat="46.02845" lon="6.28264">
        <ele>929.4</ele>
        <time>2021-03-27T13:28:32Z</time>
      </trkpt>
      <trkpt lat="46.02842" lon="6.28266">
        <ele>929.4</ele>
        <time>2021-03-27T13:28:33Z</time>
      </trkpt>
      <trkpt lat="46.02839" lon="6.28267">
        <ele>929.8</ele>
        <time>2021-03-27T13:28:34Z</time>
      </trkpt>
      <trkpt lat="46.02835" lon="6.28269">
        <ele>929.6</ele>
        <time>2021-03-27T13:28:35Z</time>
      </trkpt>
      <trkpt lat="46.02832" lon="6.28272">
        <ele>929.8</ele>
        <time>2021-03-27T13:28:36Z</time>
      </trkpt>
      <trkpt lat="46.02829" lon="6.28274">
        <ele>930</ele>
        <time>2021-03-27T13:28:37Z</time>
      </trkpt>
      <trkpt lat="46.02826" lon="6.28277">
        <ele>930.2</ele>
        <time>2021-03-27T13:28:38Z</time>
      </trkpt>
      <trkpt lat="46.02823" lon="6.2828">
        <ele>930.4</ele>
        <time>2021-03-27T13:28:39Z</time>
      </trkpt>
      <trkpt lat="46.02821" lon="6.28284">
        <ele>930.4</ele>
        <time>2021-03-27T13:28:40Z</time>
      </trkpt>
      <trkpt lat="46.02818" lon="6.28287">
        <ele>930.4</ele>
        <time>2021-03-27T13:28:41Z</time>
      </trkpt>
      <trkpt lat="46.02816" lon="6.28291">
        <ele>930.8</ele>
        <time>2021-03-27T13:28:42Z</time>
      </trkpt>
      <trkpt lat="46.02813" lon="6.28295">
        <ele>930.8</ele>
        <time>2021-03-27T13:28:43Z</time>
      </trkpt>
      <trkpt lat="46.02811" lon="6.28299">
        <ele>931.2</ele>
        <time>2021-03-27T13:28:44Z</time>
      </trkpt>
      <trkpt lat="46.02809" lon="6.28304">
        <ele>931.2</ele>
        <time>2021-03-27T13:28:45Z</time>
      </trkpt>
      <trkpt lat="46.02807" lon="6.28308">
        <ele>931.4</ele>
        <time>2021-03-27T13:28:46Z</time>
      </trkpt>
      <trkpt lat="46.02805" lon="6.28313">
        <ele>931.6</ele>
        <time>2021-03-27T13:28:47Z</time>
      </trkpt>
      <trkpt lat="46.02803" lon="6.28319">
        <ele>932</ele>
        <time>2021-03-27T13:28:48Z</time>
      </trkpt>
      <trkpt lat="46.02801" lon="6.28324">
        <ele>932.2</ele>
        <time>2021-03-27T13:28:49Z</time>
      </trkpt>
      <trkpt lat="46.02799" lon="6.28329">
        <ele>932.4</ele>
        <time>2021-03-27T13:28:50Z</time>
      </trkpt>
      <trkpt lat="46.02798" lon="6.28334">
        <ele>932.4</ele>
        <time>2021-03-27T13:28:51Z</time>
      </trkpt>
      <trkpt lat="46.02796" lon="6.2834">
        <ele>932.4</ele>
        <time>2021-03-27T13:28:52Z</time>
      </trkpt>
      <trkpt lat="46.02794" lon="6.28345">
        <ele>932.6</ele>
        <time>2021-03-27T13:28:53Z</time>
      </trkpt>
      <trkpt lat="46.02792" lon="6.2835">
        <ele>933</ele>
        <time>2021-03-27T13:28:54Z</time>
      </trkpt>
      <trkpt lat="46.0279" lon="6.28356">
        <ele>933.2</ele>
        <time>2021-03-27T13:28:55Z</time>
      </trkpt>
      <trkpt lat="46.02789" lon="6.28361">
        <ele>933.4</ele>
        <time>2021-03-27T13:28:56Z</time>
      </trkpt>
      <trkpt lat="46.02787" lon="6.28367">
        <ele>933.6</ele>
        <time>2021-03-27T13:28:57Z</time>
      </trkpt>
      <trkpt lat="46.02785" lon="6.28372">
        <ele>933.8</ele>
        <time>2021-03-27T13:28:58Z</time>
      </trkpt>
      <trkpt lat="46.02783" lon="6.28378">
        <ele>933.8</ele>
        <time>2021-03-27T13:28:59Z</time>
      </trkpt>
      <trkpt lat="46.02781" lon="6.28384">
        <ele>933.8</ele>
        <time>2021-03-27T13:29:00Z</time>
      </trkpt>
      <trkpt lat="46.02779" lon="6.28389">
        <ele>933.8</ele>
        <time>2021-03-27T13:29:01Z</time>
      </trkpt>
      <trkpt lat="46.02777" lon="6.28395">
        <ele>933.8</ele>
        <time>2021-03-27T13:29:02Z</time>
      </trkpt>
      <trkpt lat="46.02775" lon="6.28401">
        <ele>933.8</ele>
        <time>2021-03-27T13:29:03Z</time>
      </trkpt>
      <trkpt lat="46.02773" lon="6.28407">
        <ele>933.8</ele>
        <time>2021-03-27T13:29:04Z</time>
      </trkpt>
      <trkpt lat="46.02771" lon="6.28413">
        <ele>933.8</ele>
        <time>2021-03-27T13:29:05Z</time>
      </trkpt>
      <trkpt lat="46.02769" lon="6.28419">
        <ele>933.8</ele>
        <time>2021-03-27T13:29:06Z</time>
      </trkpt>
      <trkpt lat="46.02767" lon="6.28425">
        <ele>934</ele>
        <time>2021-03-27T13:29:07Z</time>
      </trkpt>
      <trkpt lat="46.02766" lon="6.28431">
        <ele>934</ele>
        <time>2021-03-27T13:29:08Z</time>
      </trkpt>
      <trkpt lat="46.02764" lon="6.28437">
        <ele>934.2</ele>
        <time>2021-03-27T13:29:09Z</time>
      </trkpt>
      <trkpt lat="46.02761" lon="6.28443">
        <ele>934.2</ele>
        <time>2021-03-27T13:29:10Z</time>
      </trkpt>
      <trkpt lat="46.0276" lon="6.28449">
        <ele>934.2</ele>
        <time>2021-03-27T13:29:11Z</time>
      </trkpt>
      <trkpt lat="46.02758" lon="6.28455">
        <ele>934.4</ele>
        <time>2021-03-27T13:29:12Z</time>
      </trkpt>
      <trkpt lat="46.02756" lon="6.28461">
        <ele>934.2</ele>
        <time>2021-03-27T13:29:13Z</time>
      </trkpt>
      <trkpt lat="46.02754" lon="6.28467">
        <ele>934.2</ele>
        <time>2021-03-27T13:29:14Z</time>
      </trkpt>
      <trkpt lat="46.02752" lon="6.28473">
        <ele>934.4</ele>
        <time>2021-03-27T13:29:15Z</time>
      </trkpt>
      <trkpt lat="46.02749" lon="6.28479">
        <ele>934.2</ele>
        <time>2021-03-27T13:29:16Z</time>
      </trkpt>
      <trkpt lat="46.02747" lon="6.28485">
        <ele>934.2</ele>
        <time>2021-03-27T13:29:17Z</time>
      </trkpt>
      <trkpt lat="46.02745" lon="6.28491">
        <ele>934.4</ele>
        <time>2021-03-27T13:29:18Z</time>
      </trkpt>
      <trkpt lat="46.02743" lon="6.28497">
        <ele>934.8</ele>
        <time>2021-03-27T13:29:19Z</time>
      </trkpt>
      <trkpt lat="46.02741" lon="6.28503">
        <ele>934.8</ele>
        <time>2021-03-27T13:29:20Z</time>
      </trkpt>
      <trkpt lat="46.02739" lon="6.28509">
        <ele>934.8</ele>
        <time>2021-03-27T13:29:21Z</time>
      </trkpt>
      <trkpt lat="46.02737" lon="6.28515">
        <ele>935.2</ele>
        <time>2021-03-27T13:29:22Z</time>
      </trkpt>
      <trkpt lat="46.02735" lon="6.28521">
        <ele>935</ele>
        <time>2021-03-27T13:29:23Z</time>
      </trkpt>
      <trkpt lat="46.02733" lon="6.28528">
        <ele>935.2</ele>
        <time>2021-03-27T13:29:24Z</time>
      </trkpt>
      <trkpt lat="46.02731" lon="6.28534">
        <ele>935.2</ele>
        <time>2021-03-27T13:29:25Z</time>
      </trkpt>
      <trkpt lat="46.02729" lon="6.2854">
        <ele>935.4</ele>
        <time>2021-03-27T13:29:26Z</time>
      </trkpt>
      <trkpt lat="46.02727" lon="6.28546">
        <ele>935.4</ele>
        <time>2021-03-27T13:29:27Z</time>
      </trkpt>
      <trkpt lat="46.02725" lon="6.28553">
        <ele>935.4</ele>
        <time>2021-03-27T13:29:28Z</time>
      </trkpt>
      <trkpt lat="46.02723" lon="6.28559">
        <ele>935.6</ele>
        <time>2021-03-27T13:29:29Z</time>
      </trkpt>
      <trkpt lat="46.02721" lon="6.28565">
        <ele>935.8</ele>
        <time>2021-03-27T13:29:30Z</time>
      </trkpt>
      <trkpt lat="46.02719" lon="6.28571">
        <ele>936</ele>
        <time>2021-03-27T13:29:31Z</time>
      </trkpt>
      <trkpt lat="46.02717" lon="6.28577">
        <ele>935.8</ele>
        <time>2021-03-27T13:29:32Z</time>
      </trkpt>
      <trkpt lat="46.02715" lon="6.28583">
        <ele>936</ele>
        <time>2021-03-27T13:29:33Z</time>
      </trkpt>
      <trkpt lat="46.02713" lon="6.28589">
        <ele>936</ele>
        <time>2021-03-27T13:29:34Z</time>
      </trkpt>
      <trkpt lat="46.0271" lon="6.28595">
        <ele>936</ele>
        <time>2021-03-27T13:29:35Z</time>
      </trkpt>
      <trkpt lat="46.02708" lon="6.28602">
        <ele>936.2</ele>
        <time>2021-03-27T13:29:36Z</time>
      </trkpt>
      <trkpt lat="46.02706" lon="6.28608">
        <ele>936.2</ele>
        <time>2021-03-27T13:29:37Z</time>
      </trkpt>
      <trkpt lat="46.02704" lon="6.28614">
        <ele>936.2</ele>
        <time>2021-03-27T13:29:38Z</time>
      </trkpt>
      <trkpt lat="46.02702" lon="6.2862">
        <ele>936.4</ele>
        <time>2021-03-27T13:29:39Z</time>
      </trkpt>
      <trkpt lat="46.027" lon="6.28627">
        <ele>936.4</ele>
        <time>2021-03-27T13:29:40Z</time>
      </trkpt>
      <trkpt lat="46.02698" lon="6.28633">
        <ele>936.8</ele>
        <time>2021-03-27T13:29:41Z</time>
      </trkpt>
      <trkpt lat="46.02695" lon="6.28639">
        <ele>936.8</ele>
        <time>2021-03-27T13:29:42Z</time>
      </trkpt>
      <trkpt lat="46.02693" lon="6.28645">
        <ele>936.8</ele>
        <time>2021-03-27T13:29:43Z</time>
      </trkpt>
      <trkpt lat="46.0269" lon="6.28651">
        <ele>937</ele>
        <time>2021-03-27T13:29:44Z</time>
      </trkpt>
      <trkpt lat="46.02688" lon="6.28656">
        <ele>937</ele>
        <time>2021-03-27T13:29:45Z</time>
      </trkpt>
      <trkpt lat="46.02685" lon="6.28662">
        <ele>937.2</ele>
        <time>2021-03-27T13:29:46Z</time>
      </trkpt>
      <trkpt lat="46.02683" lon="6.28668">
        <ele>937.2</ele>
        <time>2021-03-27T13:29:47Z</time>
      </trkpt>
      <trkpt lat="46.0268" lon="6.28673">
        <ele>937.2</ele>
        <time>2021-03-27T13:29:48Z</time>
      </trkpt>
      <trkpt lat="46.02676" lon="6.28678">
        <ele>937.2</ele>
        <time>2021-03-27T13:29:49Z</time>
      </trkpt>
      <trkpt lat="46.02673" lon="6.28683">
        <ele>937.4</ele>
        <time>2021-03-27T13:29:50Z</time>
      </trkpt>
      <trkpt lat="46.0267" lon="6.28688">
        <ele>937.6</ele>
        <time>2021-03-27T13:29:51Z</time>
      </trkpt>
      <trkpt lat="46.02666" lon="6.28693">
        <ele>937.8</ele>
        <time>2021-03-27T13:29:52Z</time>
      </trkpt>
      <trkpt lat="46.02662" lon="6.28698">
        <ele>937.8</ele>
        <time>2021-03-27T13:29:53Z</time>
      </trkpt>
      <trkpt lat="46.02659" lon="6.28702">
        <ele>937.6</ele>
        <time>2021-03-27T13:29:54Z</time>
      </trkpt>
      <trkpt lat="46.02655" lon="6.28707">
        <ele>937.8</ele>
        <time>2021-03-27T13:29:55Z</time>
      </trkpt>
      <trkpt lat="46.02651" lon="6.28711">
        <ele>937.8</ele>
        <time>2021-03-27T13:29:56Z</time>
      </trkpt>
      <trkpt lat="46.02647" lon="6.28715">
        <ele>938</ele>
        <time>2021-03-27T13:29:57Z</time>
      </trkpt>
      <trkpt lat="46.02643" lon="6.28719">
        <ele>938</ele>
        <time>2021-03-27T13:29:58Z</time>
      </trkpt>
      <trkpt lat="46.02639" lon="6.28722">
        <ele>938</ele>
        <time>2021-03-27T13:29:59Z</time>
      </trkpt>
      <trkpt lat="46.02635" lon="6.28725">
        <ele>938</ele>
        <time>2021-03-27T13:30:00Z</time>
      </trkpt>
      <trkpt lat="46.0263" lon="6.28728">
        <ele>938.2</ele>
        <time>2021-03-27T13:30:01Z</time>
      </trkpt>
      <trkpt lat="46.02626" lon="6.28731">
        <ele>938.2</ele>
        <time>2021-03-27T13:30:02Z</time>
      </trkpt>
      <trkpt lat="46.02621" lon="6.28733">
        <ele>938.4</ele>
        <time>2021-03-27T13:30:03Z</time>
      </trkpt>
      <trkpt lat="46.02617" lon="6.28735">
        <ele>938.6</ele>
        <time>2021-03-27T13:30:04Z</time>
      </trkpt>
      <trkpt lat="46.02612" lon="6.28737">
        <ele>938.6</ele>
        <time>2021-03-27T13:30:05Z</time>
      </trkpt>
      <trkpt lat="46.02607" lon="6.28738">
        <ele>938.6</ele>
        <time>2021-03-27T13:30:06Z</time>
      </trkpt>
      <trkpt lat="46.02602" lon="6.28739">
        <ele>938.6</ele>
        <time>2021-03-27T13:30:07Z</time>
      </trkpt>
      <trkpt lat="46.02598" lon="6.2874">
        <ele>938.8</ele>
        <time>2021-03-27T13:30:08Z</time>
      </trkpt>
      <trkpt lat="46.02593" lon="6.28741">
        <ele>938.6</ele>
        <time>2021-03-27T13:30:09Z</time>
      </trkpt>
      <trkpt lat="46.02588" lon="6.28742">
        <ele>938.8</ele>
        <time>2021-03-27T13:30:10Z</time>
      </trkpt>
      <trkpt lat="46.02584" lon="6.28743">
        <ele>938.8</ele>
        <time>2021-03-27T13:30:11Z</time>
      </trkpt>
      <trkpt lat="46.02579" lon="6.28744">
        <ele>938.8</ele>
        <time>2021-03-27T13:30:12Z</time>
      </trkpt>
      <trkpt lat="46.02574" lon="6.28745">
        <ele>939</ele>
        <time>2021-03-27T13:30:13Z</time>
      </trkpt>
      <trkpt lat="46.02569" lon="6.28746">
        <ele>938.8</ele>
        <time>2021-03-27T13:30:14Z</time>
      </trkpt>
      <trkpt lat="46.02565" lon="6.28747">
        <ele>939</ele>
        <time>2021-03-27T13:30:15Z</time>
      </trkpt>
      <trkpt lat="46.0256" lon="6.28748">
        <ele>939</ele>
        <time>2021-03-27T13:30:16Z</time>
      </trkpt>
      <trkpt lat="46.02555" lon="6.28749">
        <ele>939.2</ele>
        <time>2021-03-27T13:30:17Z</time>
      </trkpt>
      <trkpt lat="46.02551" lon="6.2875">
        <ele>939.2</ele>
        <time>2021-03-27T13:30:18Z</time>
      </trkpt>
      <trkpt lat="46.02546" lon="6.28751">
        <ele>939.2</ele>
        <time>2021-03-27T13:30:19Z</time>
      </trkpt>
      <trkpt lat="46.02541" lon="6.28751">
        <ele>939.4</ele>
        <time>2021-03-27T13:30:20Z</time>
      </trkpt>
      <trkpt lat="46.02536" lon="6.28752">
        <ele>939.4</ele>
        <time>2021-03-27T13:30:21Z</time>
      </trkpt>
      <trkpt lat="46.02531" lon="6.28753">
        <ele>939.4</ele>
        <time>2021-03-27T13:30:22Z</time>
      </trkpt>
      <trkpt lat="46.02526" lon="6.28754">
        <ele>939.4</ele>
        <time>2021-03-27T13:30:23Z</time>
      </trkpt>
      <trkpt lat="46.02521" lon="6.28755">
        <ele>939.6</ele>
        <time>2021-03-27T13:30:24Z</time>
      </trkpt>
      <trkpt lat="46.02516" lon="6.28756">
        <ele>939.6</ele>
        <time>2021-03-27T13:30:25Z</time>
      </trkpt>
      <trkpt lat="46.02511" lon="6.28757">
        <ele>939.8</ele>
        <time>2021-03-27T13:30:26Z</time>
      </trkpt>
      <trkpt lat="46.02506" lon="6.28758">
        <ele>939.8</ele>
        <time>2021-03-27T13:30:27Z</time>
      </trkpt>
      <trkpt lat="46.02501" lon="6.28759">
        <ele>940</ele>
        <time>2021-03-27T13:30:28Z</time>
      </trkpt>
      <trkpt lat="46.02496" lon="6.28757">
        <ele>940.2</ele>
        <time>2021-03-27T13:30:29Z</time>
      </trkpt>
      <trkpt lat="46.02491" lon="6.28754">
        <ele>940.6</ele>
        <time>2021-03-27T13:30:30Z</time>
      </trkpt>
      <trkpt lat="46.02477" lon="6.28745">
        <ele>941</ele>
        <time>2021-03-27T13:30:33Z</time>
      </trkpt>
      <trkpt lat="46.02473" lon="6.28741">
        <ele>941.2</ele>
        <time>2021-03-27T13:30:34Z</time>
      </trkpt>
      <trkpt lat="46.02468" lon="6.28737">
        <ele>941.2</ele>
        <time>2021-03-27T13:30:35Z</time>
      </trkpt>
      <trkpt lat="46.02464" lon="6.28733">
        <ele>941.2</ele>
        <time>2021-03-27T13:30:36Z</time>
      </trkpt>
      <trkpt lat="46.02459" lon="6.28729">
        <ele>941.2</ele>
        <time>2021-03-27T13:30:37Z</time>
      </trkpt>
      <trkpt lat="46.02455" lon="6.28725">
        <ele>941.2</ele>
        <time>2021-03-27T13:30:38Z</time>
      </trkpt>
      <trkpt lat="46.02452" lon="6.28721">
        <ele>941.4</ele>
        <time>2021-03-27T13:30:39Z</time>
      </trkpt>
      <trkpt lat="46.02448" lon="6.28716">
        <ele>941.2</ele>
        <time>2021-03-27T13:30:40Z</time>
      </trkpt>
      <trkpt lat="46.02444" lon="6.28711">
        <ele>941.2</ele>
        <time>2021-03-27T13:30:41Z</time>
      </trkpt>
      <trkpt lat="46.0244" lon="6.28706">
        <ele>941.2</ele>
        <time>2021-03-27T13:30:42Z</time>
      </trkpt>
      <trkpt lat="46.02436" lon="6.287">
        <ele>941</ele>
        <time>2021-03-27T13:30:43Z</time>
      </trkpt>
      <trkpt lat="46.02432" lon="6.28693">
        <ele>941</ele>
        <time>2021-03-27T13:30:44Z</time>
      </trkpt>
      <trkpt lat="46.02429" lon="6.28685">
        <ele>940.6</ele>
        <time>2021-03-27T13:30:45Z</time>
      </trkpt>
      <trkpt lat="46.02425" lon="6.28677">
        <ele>940.4</ele>
        <time>2021-03-27T13:30:46Z</time>
      </trkpt>
      <trkpt lat="46.02422" lon="6.28668">
        <ele>940.2</ele>
        <time>2021-03-27T13:30:47Z</time>
      </trkpt>
      <trkpt lat="46.02419" lon="6.28658">
        <ele>939.8</ele>
        <time>2021-03-27T13:30:48Z</time>
      </trkpt>
      <trkpt lat="46.02416" lon="6.28648">
        <ele>939.4</ele>
        <time>2021-03-27T13:30:49Z</time>
      </trkpt>
      <trkpt lat="46.02414" lon="6.28638">
        <ele>939</ele>
        <time>2021-03-27T13:30:50Z</time>
      </trkpt>
      <trkpt lat="46.02411" lon="6.28626">
        <ele>938.8</ele>
        <time>2021-03-27T13:30:51Z</time>
      </trkpt>
      <trkpt lat="46.02408" lon="6.28615">
        <ele>938.8</ele>
        <time>2021-03-27T13:30:52Z</time>
      </trkpt>
      <trkpt lat="46.02404" lon="6.28603">
        <ele>938.8</ele>
        <time>2021-03-27T13:30:53Z</time>
      </trkpt>
      <trkpt lat="46.02401" lon="6.2859">
        <ele>938.6</ele>
        <time>2021-03-27T13:30:54Z</time>
      </trkpt>
      <trkpt lat="46.02397" lon="6.28578">
        <ele>938</ele>
        <time>2021-03-27T13:30:55Z</time>
      </trkpt>
      <trkpt lat="46.02392" lon="6.28565">
        <ele>937.6</ele>
        <time>2021-03-27T13:30:56Z</time>
      </trkpt>
      <trkpt lat="46.02387" lon="6.28554">
        <ele>936.6</ele>
        <time>2021-03-27T13:30:57Z</time>
      </trkpt>
      <trkpt lat="46.02381" lon="6.28542">
        <ele>936.2</ele>
        <time>2021-03-27T13:30:58Z</time>
      </trkpt>
      <trkpt lat="46.02375" lon="6.28531">
        <ele>935.8</ele>
        <time>2021-03-27T13:30:59Z</time>
      </trkpt>
      <trkpt lat="46.02367" lon="6.28522">
        <ele>935.4</ele>
        <time>2021-03-27T13:31:00Z</time>
      </trkpt>
      <trkpt lat="46.02358" lon="6.28514">
        <ele>935.4</ele>
        <time>2021-03-27T13:31:01Z</time>
      </trkpt>
      <trkpt lat="46.02349" lon="6.28508">
        <ele>934.8</ele>
        <time>2021-03-27T13:31:02Z</time>
      </trkpt>
      <trkpt lat="46.02339" lon="6.28503">
        <ele>934.4</ele>
        <time>2021-03-27T13:31:03Z</time>
      </trkpt>
      <trkpt lat="46.02329" lon="6.28498">
        <ele>933.6</ele>
        <time>2021-03-27T13:31:04Z</time>
      </trkpt>
      <trkpt lat="46.02319" lon="6.28495">
        <ele>932.8</ele>
        <time>2021-03-27T13:31:05Z</time>
      </trkpt>
      <trkpt lat="46.02309" lon="6.28492">
        <ele>932.2</ele>
        <time>2021-03-27T13:31:06Z</time>
      </trkpt>
      <trkpt lat="46.02299" lon="6.28488">
        <ele>931.6</ele>
        <time>2021-03-27T13:31:07Z</time>
      </trkpt>
      <trkpt lat="46.02289" lon="6.28485">
        <ele>931</ele>
        <time>2021-03-27T13:31:08Z</time>
      </trkpt>
      <trkpt lat="46.02281" lon="6.2848">
        <ele>930.6</ele>
        <time>2021-03-27T13:31:09Z</time>
      </trkpt>
      <trkpt lat="46.02274" lon="6.28471">
        <ele>930.4</ele>
        <time>2021-03-27T13:31:10Z</time>
      </trkpt>
      <trkpt lat="46.02267" lon="6.28462">
        <ele>929.6</ele>
        <time>2021-03-27T13:31:11Z</time>
      </trkpt>
      <trkpt lat="46.02262" lon="6.2845">
        <ele>929</ele>
        <time>2021-03-27T13:31:12Z</time>
      </trkpt>
      <trkpt lat="46.02258" lon="6.28438">
        <ele>928.4</ele>
        <time>2021-03-27T13:31:13Z</time>
      </trkpt>
      <trkpt lat="46.02254" lon="6.28426">
        <ele>927.8</ele>
        <time>2021-03-27T13:31:14Z</time>
      </trkpt>
      <trkpt lat="46.0225" lon="6.28413">
        <ele>927.2</ele>
        <time>2021-03-27T13:31:15Z</time>
      </trkpt>
      <trkpt lat="46.02246" lon="6.28399">
        <ele>926.6</ele>
        <time>2021-03-27T13:31:16Z</time>
      </trkpt>
      <trkpt lat="46.02241" lon="6.28386">
        <ele>926.2</ele>
        <time>2021-03-27T13:31:17Z</time>
      </trkpt>
      <trkpt lat="46.02236" lon="6.28372">
        <ele>925.2</ele>
        <time>2021-03-27T13:31:18Z</time>
      </trkpt>
      <trkpt lat="46.02231" lon="6.28358">
        <ele>924.6</ele>
        <time>2021-03-27T13:31:19Z</time>
      </trkpt>
      <trkpt lat="46.02226" lon="6.28344">
        <ele>924.2</ele>
        <time>2021-03-27T13:31:20Z</time>
      </trkpt>
      <trkpt lat="46.02221" lon="6.2833">
        <ele>924</ele>
        <time>2021-03-27T13:31:21Z</time>
      </trkpt>
      <trkpt lat="46.02215" lon="6.28315">
        <ele>923.6</ele>
        <time>2021-03-27T13:31:22Z</time>
      </trkpt>
      <trkpt lat="46.0221" lon="6.28301">
        <ele>923.4</ele>
        <time>2021-03-27T13:31:23Z</time>
      </trkpt>
      <trkpt lat="46.02203" lon="6.28287">
        <ele>923.2</ele>
        <time>2021-03-27T13:31:24Z</time>
      </trkpt>
      <trkpt lat="46.02196" lon="6.28273">
        <ele>922.4</ele>
        <time>2021-03-27T13:31:25Z</time>
      </trkpt>
      <trkpt lat="46.02189" lon="6.2826">
        <ele>922</ele>
        <time>2021-03-27T13:31:26Z</time>
      </trkpt>
      <trkpt lat="46.02181" lon="6.28247">
        <ele>921.4</ele>
        <time>2021-03-27T13:31:27Z</time>
      </trkpt>
      <trkpt lat="46.02173" lon="6.28236">
        <ele>920.8</ele>
        <time>2021-03-27T13:31:28Z</time>
      </trkpt>
      <trkpt lat="46.02164" lon="6.28225">
        <ele>920</ele>
        <time>2021-03-27T13:31:29Z</time>
      </trkpt>
      <trkpt lat="46.02155" lon="6.28215">
        <ele>919</ele>
        <time>2021-03-27T13:31:30Z</time>
      </trkpt>
      <trkpt lat="46.02147" lon="6.28204">
        <ele>918.4</ele>
        <time>2021-03-27T13:31:31Z</time>
      </trkpt>
      <trkpt lat="46.02138" lon="6.28194">
        <ele>917.8</ele>
        <time>2021-03-27T13:31:32Z</time>
      </trkpt>
      <trkpt lat="46.02129" lon="6.28185">
        <ele>917.4</ele>
        <time>2021-03-27T13:31:33Z</time>
      </trkpt>
      <trkpt lat="46.0212" lon="6.28176">
        <ele>916.8</ele>
        <time>2021-03-27T13:31:34Z</time>
      </trkpt>
      <trkpt lat="46.02109" lon="6.28168">
        <ele>916.4</ele>
        <time>2021-03-27T13:31:35Z</time>
      </trkpt>
      <trkpt lat="46.02099" lon="6.28162">
        <ele>915.6</ele>
        <time>2021-03-27T13:31:36Z</time>
      </trkpt>
      <trkpt lat="46.02088" lon="6.28157">
        <ele>914.8</ele>
        <time>2021-03-27T13:31:37Z</time>
      </trkpt>
      <trkpt lat="46.02077" lon="6.28153">
        <ele>914.4</ele>
        <time>2021-03-27T13:31:38Z</time>
      </trkpt>
      <trkpt lat="46.02066" lon="6.28149">
        <ele>914</ele>
        <time>2021-03-27T13:31:39Z</time>
      </trkpt>
      <trkpt lat="46.02055" lon="6.28145">
        <ele>913.2</ele>
        <time>2021-03-27T13:31:40Z</time>
      </trkpt>
      <trkpt lat="46.02043" lon="6.28141">
        <ele>912.8</ele>
        <time>2021-03-27T13:31:41Z</time>
      </trkpt>
      <trkpt lat="46.02032" lon="6.28137">
        <ele>912.2</ele>
        <time>2021-03-27T13:31:42Z</time>
      </trkpt>
      <trkpt lat="46.02022" lon="6.28133">
        <ele>910.8</ele>
        <time>2021-03-27T13:31:43Z</time>
      </trkpt>
      <trkpt lat="46.02011" lon="6.28128">
        <ele>909.8</ele>
        <time>2021-03-27T13:31:44Z</time>
      </trkpt>
      <trkpt lat="46.02001" lon="6.28121">
        <ele>909.2</ele>
        <time>2021-03-27T13:31:45Z</time>
      </trkpt>
      <trkpt lat="46.01991" lon="6.28113">
        <ele>908</ele>
        <time>2021-03-27T13:31:46Z</time>
      </trkpt>
      <trkpt lat="46.01983" lon="6.28102">
        <ele>907.4</ele>
        <time>2021-03-27T13:31:47Z</time>
      </trkpt>
      <trkpt lat="46.01976" lon="6.2809">
        <ele>907</ele>
        <time>2021-03-27T13:31:48Z</time>
      </trkpt>
      <trkpt lat="46.01969" lon="6.28078">
        <ele>906.4</ele>
        <time>2021-03-27T13:31:49Z</time>
      </trkpt>
      <trkpt lat="46.01963" lon="6.28066">
        <ele>906.4</ele>
        <time>2021-03-27T13:31:50Z</time>
      </trkpt>
      <trkpt lat="46.01958" lon="6.28053">
        <ele>905.6</ele>
        <time>2021-03-27T13:31:51Z</time>
      </trkpt>
      <trkpt lat="46.01952" lon="6.28041">
        <ele>904.4</ele>
        <time>2021-03-27T13:31:52Z</time>
      </trkpt>
      <trkpt lat="46.01946" lon="6.28028">
        <ele>903.6</ele>
        <time>2021-03-27T13:31:53Z</time>
      </trkpt>
      <trkpt lat="46.01941" lon="6.28015">
        <ele>903</ele>
        <time>2021-03-27T13:31:54Z</time>
      </trkpt>
      <trkpt lat="46.01935" lon="6.28003">
        <ele>902.8</ele>
        <time>2021-03-27T13:31:55Z</time>
      </trkpt>
      <trkpt lat="46.0193" lon="6.27992">
        <ele>902.4</ele>
        <time>2021-03-27T13:31:56Z</time>
      </trkpt>
      <trkpt lat="46.01924" lon="6.27982">
        <ele>902.4</ele>
        <time>2021-03-27T13:31:57Z</time>
      </trkpt>
      <trkpt lat="46.01916" lon="6.27974">
        <ele>902</ele>
        <time>2021-03-27T13:31:58Z</time>
      </trkpt>
      <trkpt lat="46.01907" lon="6.27972">
        <ele>901.8</ele>
        <time>2021-03-27T13:31:59Z</time>
      </trkpt>
      <trkpt lat="46.01898" lon="6.27976">
        <ele>901.4</ele>
        <time>2021-03-27T13:32:00Z</time>
      </trkpt>
      <trkpt lat="46.01893" lon="6.27986">
        <ele>901.2</ele>
        <time>2021-03-27T13:32:01Z</time>
      </trkpt>
      <trkpt lat="46.0189" lon="6.27997">
        <ele>900.8</ele>
        <time>2021-03-27T13:32:02Z</time>
      </trkpt>
      <trkpt lat="46.01889" lon="6.2801">
        <ele>900.4</ele>
        <time>2021-03-27T13:32:03Z</time>
      </trkpt>
      <trkpt lat="46.01891" lon="6.28023">
        <ele>900.2</ele>
        <time>2021-03-27T13:32:04Z</time>
      </trkpt>
      <trkpt lat="46.01895" lon="6.28037">
        <ele>899.4</ele>
        <time>2021-03-27T13:32:05Z</time>
      </trkpt>
      <trkpt lat="46.01899" lon="6.28051">
        <ele>898.4</ele>
        <time>2021-03-27T13:32:06Z</time>
      </trkpt>
      <trkpt lat="46.01903" lon="6.28065">
        <ele>897.8</ele>
        <time>2021-03-27T13:32:07Z</time>
      </trkpt>
      <trkpt lat="46.01907" lon="6.28079">
        <ele>897.2</ele>
        <time>2021-03-27T13:32:08Z</time>
      </trkpt>
      <trkpt lat="46.0191" lon="6.28094">
        <ele>896.6</ele>
        <time>2021-03-27T13:32:09Z</time>
      </trkpt>
      <trkpt lat="46.01914" lon="6.28108">
        <ele>896.2</ele>
        <time>2021-03-27T13:32:10Z</time>
      </trkpt>
      <trkpt lat="46.01919" lon="6.28122">
        <ele>896</ele>
        <time>2021-03-27T13:32:11Z</time>
      </trkpt>
      <trkpt lat="46.01923" lon="6.28136">
        <ele>895.8</ele>
        <time>2021-03-27T13:32:12Z</time>
      </trkpt>
      <trkpt lat="46.01927" lon="6.2815">
        <ele>895.8</ele>
        <time>2021-03-27T13:32:13Z</time>
      </trkpt>
      <trkpt lat="46.01931" lon="6.28164">
        <ele>895.6</ele>
        <time>2021-03-27T13:32:14Z</time>
      </trkpt>
      <trkpt lat="46.01935" lon="6.28177">
        <ele>895.4</ele>
        <time>2021-03-27T13:32:15Z</time>
      </trkpt>
      <trkpt lat="46.01941" lon="6.28191">
        <ele>895.2</ele>
        <time>2021-03-27T13:32:16Z</time>
      </trkpt>
      <trkpt lat="46.01945" lon="6.28204">
        <ele>895</ele>
        <time>2021-03-27T13:32:17Z</time>
      </trkpt>
      <trkpt lat="46.01951" lon="6.28217">
        <ele>894.2</ele>
        <time>2021-03-27T13:32:18Z</time>
      </trkpt>
      <trkpt lat="46.01956" lon="6.28229">
        <ele>893.8</ele>
        <time>2021-03-27T13:32:19Z</time>
      </trkpt>
      <trkpt lat="46.01964" lon="6.28241">
        <ele>893.2</ele>
        <time>2021-03-27T13:32:20Z</time>
      </trkpt>
      <trkpt lat="46.01972" lon="6.28252">
        <ele>892.8</ele>
        <time>2021-03-27T13:32:21Z</time>
      </trkpt>
      <trkpt lat="46.0198" lon="6.28263">
        <ele>892.2</ele>
        <time>2021-03-27T13:32:22Z</time>
      </trkpt>
      <trkpt lat="46.0199" lon="6.28272">
        <ele>891.8</ele>
        <time>2021-03-27T13:32:23Z</time>
      </trkpt>
      <trkpt lat="46.01999" lon="6.28281">
        <ele>891.4</ele>
        <time>2021-03-27T13:32:24Z</time>
      </trkpt>
      <trkpt lat="46.02009" lon="6.28288">
        <ele>891</ele>
        <time>2021-03-27T13:32:25Z</time>
      </trkpt>
      <trkpt lat="46.02019" lon="6.28294">
        <ele>890.8</ele>
        <time>2021-03-27T13:32:26Z</time>
      </trkpt>
      <trkpt lat="46.02029" lon="6.283">
        <ele>890</ele>
        <time>2021-03-27T13:32:27Z</time>
      </trkpt>
      <trkpt lat="46.02039" lon="6.28306">
        <ele>889.4</ele>
        <time>2021-03-27T13:32:28Z</time>
      </trkpt>
      <trkpt lat="46.02048" lon="6.28313">
        <ele>889.2</ele>
        <time>2021-03-27T13:32:29Z</time>
      </trkpt>
      <trkpt lat="46.02056" lon="6.28322">
        <ele>889</ele>
        <time>2021-03-27T13:32:30Z</time>
      </trkpt>
      <trkpt lat="46.02062" lon="6.28333">
        <ele>888.6</ele>
        <time>2021-03-27T13:32:31Z</time>
      </trkpt>
      <trkpt lat="46.02065" lon="6.28345">
        <ele>888.2</ele>
        <time>2021-03-27T13:32:32Z</time>
      </trkpt>
      <trkpt lat="46.02065" lon="6.28357">
        <ele>887.6</ele>
        <time>2021-03-27T13:32:33Z</time>
      </trkpt>
      <trkpt lat="46.02063" lon="6.28367">
        <ele>887</ele>
        <time>2021-03-27T13:32:34Z</time>
      </trkpt>
      <trkpt lat="46.02057" lon="6.28371">
        <ele>886.6</ele>
        <time>2021-03-27T13:32:35Z</time>
      </trkpt>
      <trkpt lat="46.02051" lon="6.2837">
        <ele>886.4</ele>
        <time>2021-03-27T13:32:36Z</time>
      </trkpt>
      <trkpt lat="46.02042" lon="6.28365">
        <ele>886.2</ele>
        <time>2021-03-27T13:32:37Z</time>
      </trkpt>
      <trkpt lat="46.0203" lon="6.28359">
        <ele>886</ele>
        <time>2021-03-27T13:32:38Z</time>
      </trkpt>
      <trkpt lat="46.0202" lon="6.28353">
        <ele>885.4</ele>
        <time>2021-03-27T13:32:39Z</time>
      </trkpt>
      <trkpt lat="46.0201" lon="6.28348">
        <ele>885</ele>
        <time>2021-03-27T13:32:40Z</time>
      </trkpt>
      <trkpt lat="46.02" lon="6.28343">
        <ele>884.8</ele>
        <time>2021-03-27T13:32:41Z</time>
      </trkpt>
      <trkpt lat="46.0199" lon="6.28338">
        <ele>884</ele>
        <time>2021-03-27T13:32:42Z</time>
      </trkpt>
      <trkpt lat="46.01981" lon="6.28333">
        <ele>883.6</ele>
        <time>2021-03-27T13:32:43Z</time>
      </trkpt>
      <trkpt lat="46.01971" lon="6.28328">
        <ele>882.8</ele>
        <time>2021-03-27T13:32:44Z</time>
      </trkpt>
      <trkpt lat="46.01961" lon="6.28323">
        <ele>881.6</ele>
        <time>2021-03-27T13:32:45Z</time>
      </trkpt>
      <trkpt lat="46.01951" lon="6.28317">
        <ele>880.6</ele>
        <time>2021-03-27T13:32:46Z</time>
      </trkpt>
      <trkpt lat="46.01941" lon="6.28312">
        <ele>880</ele>
        <time>2021-03-27T13:32:47Z</time>
      </trkpt>
      <trkpt lat="46.01931" lon="6.28307">
        <ele>879.2</ele>
        <time>2021-03-27T13:32:48Z</time>
      </trkpt>
      <trkpt lat="46.01921" lon="6.28301">
        <ele>878.6</ele>
        <time>2021-03-27T13:32:49Z</time>
      </trkpt>
      <trkpt lat="46.01911" lon="6.28296">
        <ele>878.2</ele>
        <time>2021-03-27T13:32:50Z</time>
      </trkpt>
      <trkpt lat="46.01901" lon="6.2829">
        <ele>878</ele>
        <time>2021-03-27T13:32:51Z</time>
      </trkpt>
      <trkpt lat="46.01891" lon="6.28285">
        <ele>877.8</ele>
        <time>2021-03-27T13:32:52Z</time>
      </trkpt>
      <trkpt lat="46.01881" lon="6.28279">
        <ele>877.6</ele>
        <time>2021-03-27T13:32:53Z</time>
      </trkpt>
      <trkpt lat="46.01871" lon="6.28274">
        <ele>877.6</ele>
        <time>2021-03-27T13:32:54Z</time>
      </trkpt>
      <trkpt lat="46.01862" lon="6.28269">
        <ele>877.2</ele>
        <time>2021-03-27T13:32:55Z</time>
      </trkpt>
      <trkpt lat="46.01852" lon="6.28264">
        <ele>877</ele>
        <time>2021-03-27T13:32:56Z</time>
      </trkpt>
      <trkpt lat="46.01842" lon="6.28258">
        <ele>876.6</ele>
        <time>2021-03-27T13:32:57Z</time>
      </trkpt>
      <trkpt lat="46.01832" lon="6.28253">
        <ele>875.6</ele>
        <time>2021-03-27T13:32:58Z</time>
      </trkpt>
      <trkpt lat="46.01822" lon="6.28247">
        <ele>874.6</ele>
        <time>2021-03-27T13:32:59Z</time>
      </trkpt>
      <trkpt lat="46.01812" lon="6.28242">
        <ele>873.8</ele>
        <time>2021-03-27T13:33:00Z</time>
      </trkpt>
      <trkpt lat="46.01802" lon="6.28237">
        <ele>873.2</ele>
        <time>2021-03-27T13:33:01Z</time>
      </trkpt>
      <trkpt lat="46.01792" lon="6.28232">
        <ele>872.8</ele>
        <time>2021-03-27T13:33:02Z</time>
      </trkpt>
      <trkpt lat="46.01782" lon="6.28226">
        <ele>872.6</ele>
        <time>2021-03-27T13:33:03Z</time>
      </trkpt>
      <trkpt lat="46.01772" lon="6.28221">
        <ele>871.8</ele>
        <time>2021-03-27T13:33:04Z</time>
      </trkpt>
      <trkpt lat="46.01762" lon="6.28215">
        <ele>871.4</ele>
        <time>2021-03-27T13:33:05Z</time>
      </trkpt>
      <trkpt lat="46.01753" lon="6.28209">
        <ele>871</ele>
        <time>2021-03-27T13:33:06Z</time>
      </trkpt>
      <trkpt lat="46.01744" lon="6.28201">
        <ele>870.4</ele>
        <time>2021-03-27T13:33:07Z</time>
      </trkpt>
      <trkpt lat="46.01735" lon="6.28192">
        <ele>870</ele>
        <time>2021-03-27T13:33:08Z</time>
      </trkpt>
      <trkpt lat="46.01727" lon="6.28182">
        <ele>869</ele>
        <time>2021-03-27T13:33:09Z</time>
      </trkpt>
      <trkpt lat="46.01719" lon="6.28172">
        <ele>868.2</ele>
        <time>2021-03-27T13:33:10Z</time>
      </trkpt>
      <trkpt lat="46.01711" lon="6.28162">
        <ele>867.2</ele>
        <time>2021-03-27T13:33:11Z</time>
      </trkpt>
      <trkpt lat="46.01704" lon="6.28151">
        <ele>866.6</ele>
        <time>2021-03-27T13:33:12Z</time>
      </trkpt>
      <trkpt lat="46.01696" lon="6.2814">
        <ele>866.2</ele>
        <time>2021-03-27T13:33:13Z</time>
      </trkpt>
      <trkpt lat="46.01689" lon="6.28129">
        <ele>865.8</ele>
        <time>2021-03-27T13:33:14Z</time>
      </trkpt>
      <trkpt lat="46.01681" lon="6.28117">
        <ele>865.6</ele>
        <time>2021-03-27T13:33:15Z</time>
      </trkpt>
      <trkpt lat="46.01674" lon="6.28106">
        <ele>865.6</ele>
        <time>2021-03-27T13:33:16Z</time>
      </trkpt>
      <trkpt lat="46.01667" lon="6.28094">
        <ele>865.2</ele>
        <time>2021-03-27T13:33:17Z</time>
      </trkpt>
      <trkpt lat="46.01659" lon="6.28082">
        <ele>864.8</ele>
        <time>2021-03-27T13:33:18Z</time>
      </trkpt>
      <trkpt lat="46.01652" lon="6.2807">
        <ele>864</ele>
        <time>2021-03-27T13:33:19Z</time>
      </trkpt>
      <trkpt lat="46.01644" lon="6.28058">
        <ele>863.6</ele>
        <time>2021-03-27T13:33:20Z</time>
      </trkpt>
      <trkpt lat="46.01637" lon="6.28045">
        <ele>863</ele>
        <time>2021-03-27T13:33:21Z</time>
      </trkpt>
      <trkpt lat="46.01631" lon="6.28032">
        <ele>862.4</ele>
        <time>2021-03-27T13:33:22Z</time>
      </trkpt>
      <trkpt lat="46.01625" lon="6.28018">
        <ele>861.8</ele>
        <time>2021-03-27T13:33:23Z</time>
      </trkpt>
      <trkpt lat="46.0162" lon="6.28004">
        <ele>861.2</ele>
        <time>2021-03-27T13:33:24Z</time>
      </trkpt>
      <trkpt lat="46.01615" lon="6.27988">
        <ele>860.6</ele>
        <time>2021-03-27T13:33:25Z</time>
      </trkpt>
      <trkpt lat="46.01611" lon="6.27972">
        <ele>860</ele>
        <time>2021-03-27T13:33:26Z</time>
      </trkpt>
      <trkpt lat="46.01608" lon="6.27957">
        <ele>859</ele>
        <time>2021-03-27T13:33:27Z</time>
      </trkpt>
      <trkpt lat="46.01605" lon="6.27941">
        <ele>859</ele>
        <time>2021-03-27T13:33:28Z</time>
      </trkpt>
      <trkpt lat="46.01602" lon="6.27925">
        <ele>858.4</ele>
        <time>2021-03-27T13:33:29Z</time>
      </trkpt>
      <trkpt lat="46.01599" lon="6.27909">
        <ele>857.8</ele>
        <time>2021-03-27T13:33:30Z</time>
      </trkpt>
      <trkpt lat="46.01597" lon="6.27893">
        <ele>857</ele>
        <time>2021-03-27T13:33:31Z</time>
      </trkpt>
      <trkpt lat="46.01594" lon="6.27877">
        <ele>856</ele>
        <time>2021-03-27T13:33:32Z</time>
      </trkpt>
      <trkpt lat="46.01592" lon="6.27861">
        <ele>855</ele>
        <time>2021-03-27T13:33:33Z</time>
      </trkpt>
      <trkpt lat="46.0159" lon="6.27845">
        <ele>854.2</ele>
        <time>2021-03-27T13:33:34Z</time>
      </trkpt>
      <trkpt lat="46.01588" lon="6.27829">
        <ele>853.8</ele>
        <time>2021-03-27T13:33:35Z</time>
      </trkpt>
      <trkpt lat="46.01586" lon="6.27813">
        <ele>853</ele>
        <time>2021-03-27T13:33:36Z</time>
      </trkpt>
      <trkpt lat="46.01584" lon="6.27798">
        <ele>852.6</ele>
        <time>2021-03-27T13:33:37Z</time>
      </trkpt>
      <trkpt lat="46.01582" lon="6.27782">
        <ele>852.2</ele>
        <time>2021-03-27T13:33:38Z</time>
      </trkpt>
      <trkpt lat="46.0158" lon="6.27767">
        <ele>851.8</ele>
        <time>2021-03-27T13:33:39Z</time>
      </trkpt>
      <trkpt lat="46.01578" lon="6.27751">
        <ele>851.2</ele>
        <time>2021-03-27T13:33:40Z</time>
      </trkpt>
      <trkpt lat="46.01575" lon="6.27736">
        <ele>851</ele>
        <time>2021-03-27T13:33:41Z</time>
      </trkpt>
      <trkpt lat="46.01572" lon="6.27721">
        <ele>850</ele>
        <time>2021-03-27T13:33:42Z</time>
      </trkpt>
      <trkpt lat="46.01569" lon="6.27706">
        <ele>849</ele>
        <time>2021-03-27T13:33:43Z</time>
      </trkpt>
      <trkpt lat="46.01566" lon="6.27691">
        <ele>848.4</ele>
        <time>2021-03-27T13:33:44Z</time>
      </trkpt>
      <trkpt lat="46.01562" lon="6.27676">
        <ele>847.4</ele>
        <time>2021-03-27T13:33:45Z</time>
      </trkpt>
      <trkpt lat="46.01559" lon="6.2766">
        <ele>847</ele>
        <time>2021-03-27T13:33:46Z</time>
      </trkpt>
      <trkpt lat="46.01557" lon="6.27645">
        <ele>846.2</ele>
        <time>2021-03-27T13:33:47Z</time>
      </trkpt>
      <trkpt lat="46.01555" lon="6.2763">
        <ele>845.8</ele>
        <time>2021-03-27T13:33:48Z</time>
      </trkpt>
      <trkpt lat="46.01555" lon="6.27614">
        <ele>845.4</ele>
        <time>2021-03-27T13:33:49Z</time>
      </trkpt>
      <trkpt lat="46.01555" lon="6.27597">
        <ele>845.4</ele>
        <time>2021-03-27T13:33:50Z</time>
      </trkpt>
      <trkpt lat="46.01555" lon="6.27581">
        <ele>845</ele>
        <time>2021-03-27T13:33:51Z</time>
      </trkpt>
      <trkpt lat="46.01556" lon="6.27565">
        <ele>844.2</ele>
        <time>2021-03-27T13:33:52Z</time>
      </trkpt>
      <trkpt lat="46.01558" lon="6.27549">
        <ele>843.6</ele>
        <time>2021-03-27T13:33:53Z</time>
      </trkpt>
      <trkpt lat="46.01558" lon="6.27532">
        <ele>843</ele>
        <time>2021-03-27T13:33:54Z</time>
      </trkpt>
      <trkpt lat="46.01557" lon="6.27516">
        <ele>842</ele>
        <time>2021-03-27T13:33:55Z</time>
      </trkpt>
      <trkpt lat="46.01554" lon="6.27501">
        <ele>841.4</ele>
        <time>2021-03-27T13:33:56Z</time>
      </trkpt>
      <trkpt lat="46.01548" lon="6.27488">
        <ele>840.8</ele>
        <time>2021-03-27T13:33:57Z</time>
      </trkpt>
      <trkpt lat="46.0154" lon="6.27478">
        <ele>840.6</ele>
        <time>2021-03-27T13:33:58Z</time>
      </trkpt>
      <trkpt lat="46.0153" lon="6.27469">
        <ele>840.4</ele>
        <time>2021-03-27T13:33:59Z</time>
      </trkpt>
      <trkpt lat="46.01519" lon="6.27463">
        <ele>840.2</ele>
        <time>2021-03-27T13:34:00Z</time>
      </trkpt>
      <trkpt lat="46.01509" lon="6.27456">
        <ele>839.8</ele>
        <time>2021-03-27T13:34:01Z</time>
      </trkpt>
      <trkpt lat="46.01498" lon="6.2745">
        <ele>839.4</ele>
        <time>2021-03-27T13:34:02Z</time>
      </trkpt>
      <trkpt lat="46.01487" lon="6.27443">
        <ele>838.6</ele>
        <time>2021-03-27T13:34:03Z</time>
      </trkpt>
      <trkpt lat="46.01477" lon="6.27434">
        <ele>837.6</ele>
        <time>2021-03-27T13:34:04Z</time>
      </trkpt>
      <trkpt lat="46.01468" lon="6.27424">
        <ele>836.8</ele>
        <time>2021-03-27T13:34:05Z</time>
      </trkpt>
      <trkpt lat="46.01459" lon="6.27412">
        <ele>836</ele>
        <time>2021-03-27T13:34:06Z</time>
      </trkpt>
      <trkpt lat="46.01451" lon="6.27399">
        <ele>835.6</ele>
        <time>2021-03-27T13:34:07Z</time>
      </trkpt>
      <trkpt lat="46.01443" lon="6.27386">
        <ele>834.6</ele>
        <time>2021-03-27T13:34:08Z</time>
      </trkpt>
      <trkpt lat="46.01437" lon="6.27373">
        <ele>833.4</ele>
        <time>2021-03-27T13:34:09Z</time>
      </trkpt>
      <trkpt lat="46.0143" lon="6.27359">
        <ele>832.8</ele>
        <time>2021-03-27T13:34:10Z</time>
      </trkpt>
      <trkpt lat="46.01424" lon="6.27346">
        <ele>832.2</ele>
        <time>2021-03-27T13:34:11Z</time>
      </trkpt>
      <trkpt lat="46.01417" lon="6.27332">
        <ele>832.2</ele>
        <time>2021-03-27T13:34:12Z</time>
      </trkpt>
      <trkpt lat="46.01411" lon="6.27318">
        <ele>831.6</ele>
        <time>2021-03-27T13:34:13Z</time>
      </trkpt>
      <trkpt lat="46.01404" lon="6.27305">
        <ele>831.2</ele>
        <time>2021-03-27T13:34:14Z</time>
      </trkpt>
      <trkpt lat="46.01398" lon="6.27291">
        <ele>830.8</ele>
        <time>2021-03-27T13:34:15Z</time>
      </trkpt>
      <trkpt lat="46.01392" lon="6.27278">
        <ele>829.6</ele>
        <time>2021-03-27T13:34:16Z</time>
      </trkpt>
      <trkpt lat="46.01385" lon="6.27264">
        <ele>828.6</ele>
        <time>2021-03-27T13:34:17Z</time>
      </trkpt>
      <trkpt lat="46.01378" lon="6.2725">
        <ele>827.8</ele>
        <time>2021-03-27T13:34:18Z</time>
      </trkpt>
      <trkpt lat="46.01372" lon="6.27237">
        <ele>827.4</ele>
        <time>2021-03-27T13:34:19Z</time>
      </trkpt>
      <trkpt lat="46.01365" lon="6.27222">
        <ele>827.2</ele>
        <time>2021-03-27T13:34:20Z</time>
      </trkpt>
      <trkpt lat="46.01359" lon="6.27208">
        <ele>826.8</ele>
        <time>2021-03-27T13:34:21Z</time>
      </trkpt>
      <trkpt lat="46.01354" lon="6.27193">
        <ele>825.8</ele>
        <time>2021-03-27T13:34:22Z</time>
      </trkpt>
      <trkpt lat="46.0135" lon="6.27178">
        <ele>825.2</ele>
        <time>2021-03-27T13:34:23Z</time>
      </trkpt>
      <trkpt lat="46.01347" lon="6.27163">
        <ele>824.2</ele>
        <time>2021-03-27T13:34:24Z</time>
      </trkpt>
      <trkpt lat="46.01345" lon="6.27147">
        <ele>823.8</ele>
        <time>2021-03-27T13:34:25Z</time>
      </trkpt>
      <trkpt lat="46.01342" lon="6.27132">
        <ele>823.4</ele>
        <time>2021-03-27T13:34:26Z</time>
      </trkpt>
      <trkpt lat="46.01338" lon="6.27116">
        <ele>822.4</ele>
        <time>2021-03-27T13:34:27Z</time>
      </trkpt>
      <trkpt lat="46.01334" lon="6.27101">
        <ele>821.6</ele>
        <time>2021-03-27T13:34:28Z</time>
      </trkpt>
      <trkpt lat="46.01329" lon="6.27087">
        <ele>820.6</ele>
        <time>2021-03-27T13:34:29Z</time>
      </trkpt>
      <trkpt lat="46.01324" lon="6.27073">
        <ele>819.8</ele>
        <time>2021-03-27T13:34:30Z</time>
      </trkpt>
      <trkpt lat="46.01319" lon="6.27059">
        <ele>819</ele>
        <time>2021-03-27T13:34:31Z</time>
      </trkpt>
      <trkpt lat="46.01314" lon="6.27044">
        <ele>818.6</ele>
        <time>2021-03-27T13:34:32Z</time>
      </trkpt>
      <trkpt lat="46.0131" lon="6.2703">
        <ele>818</ele>
        <time>2021-03-27T13:34:33Z</time>
      </trkpt>
      <trkpt lat="46.01306" lon="6.27014">
        <ele>817.6</ele>
        <time>2021-03-27T13:34:34Z</time>
      </trkpt>
      <trkpt lat="46.01303" lon="6.26999">
        <ele>817.6</ele>
        <time>2021-03-27T13:34:35Z</time>
      </trkpt>
      <trkpt lat="46.01302" lon="6.26982">
        <ele>817.4</ele>
        <time>2021-03-27T13:34:36Z</time>
      </trkpt>
      <trkpt lat="46.01302" lon="6.26966">
        <ele>817</ele>
        <time>2021-03-27T13:34:37Z</time>
      </trkpt>
      <trkpt lat="46.01303" lon="6.26951">
        <ele>816</ele>
        <time>2021-03-27T13:34:38Z</time>
      </trkpt>
      <trkpt lat="46.01306" lon="6.26935">
        <ele>815.6</ele>
        <time>2021-03-27T13:34:39Z</time>
      </trkpt>
      <trkpt lat="46.0131" lon="6.2692">
        <ele>814.6</ele>
        <time>2021-03-27T13:34:40Z</time>
      </trkpt>
      <trkpt lat="46.01315" lon="6.26906">
        <ele>814.4</ele>
        <time>2021-03-27T13:34:41Z</time>
      </trkpt>
      <trkpt lat="46.01321" lon="6.26892">
        <ele>813.6</ele>
        <time>2021-03-27T13:34:42Z</time>
      </trkpt>
      <trkpt lat="46.01326" lon="6.26878">
        <ele>812.6</ele>
        <time>2021-03-27T13:34:43Z</time>
      </trkpt>
      <trkpt lat="46.01331" lon="6.26864">
        <ele>811.8</ele>
        <time>2021-03-27T13:34:44Z</time>
      </trkpt>
      <trkpt lat="46.01334" lon="6.26849">
        <ele>811.2</ele>
        <time>2021-03-27T13:34:45Z</time>
      </trkpt>
      <trkpt lat="46.01334" lon="6.26834">
        <ele>810.6</ele>
        <time>2021-03-27T13:34:46Z</time>
      </trkpt>
      <trkpt lat="46.01331" lon="6.26821">
        <ele>810.2</ele>
        <time>2021-03-27T13:34:47Z</time>
      </trkpt>
      <trkpt lat="46.01327" lon="6.26807">
        <ele>810</ele>
        <time>2021-03-27T13:34:48Z</time>
      </trkpt>
      <trkpt lat="46.01321" lon="6.26792">
        <ele>809.4</ele>
        <time>2021-03-27T13:34:49Z</time>
      </trkpt>
      <trkpt lat="46.01317" lon="6.26777">
        <ele>809.2</ele>
        <time>2021-03-27T13:34:50Z</time>
      </trkpt>
      <trkpt lat="46.01313" lon="6.26762">
        <ele>808.8</ele>
        <time>2021-03-27T13:34:51Z</time>
      </trkpt>
      <trkpt lat="46.01309" lon="6.26746">
        <ele>808.2</ele>
        <time>2021-03-27T13:34:52Z</time>
      </trkpt>
      <trkpt lat="46.01306" lon="6.26731">
        <ele>807.4</ele>
        <time>2021-03-27T13:34:53Z</time>
      </trkpt>
      <trkpt lat="46.01302" lon="6.26717">
        <ele>806.4</ele>
        <time>2021-03-27T13:34:54Z</time>
      </trkpt>
      <trkpt lat="46.01297" lon="6.26705">
        <ele>805.8</ele>
        <time>2021-03-27T13:34:55Z</time>
      </trkpt>
      <trkpt lat="46.01288" lon="6.26694">
        <ele>805</ele>
        <time>2021-03-27T13:34:56Z</time>
      </trkpt>
      <trkpt lat="46.01279" lon="6.26683">
        <ele>804.2</ele>
        <time>2021-03-27T13:34:57Z</time>
      </trkpt>
      <trkpt lat="46.01268" lon="6.26674">
        <ele>803.6</ele>
        <time>2021-03-27T13:34:58Z</time>
      </trkpt>
      <trkpt lat="46.01258" lon="6.26663">
        <ele>803</ele>
        <time>2021-03-27T13:34:59Z</time>
      </trkpt>
      <trkpt lat="46.01248" lon="6.26652">
        <ele>802.6</ele>
        <time>2021-03-27T13:35:00Z</time>
      </trkpt>
      <trkpt lat="46.01239" lon="6.2664">
        <ele>802.2</ele>
        <time>2021-03-27T13:35:01Z</time>
      </trkpt>
      <trkpt lat="46.01232" lon="6.26627">
        <ele>802</ele>
        <time>2021-03-27T13:35:02Z</time>
      </trkpt>
      <trkpt lat="46.01225" lon="6.26613">
        <ele>801.4</ele>
        <time>2021-03-27T13:35:03Z</time>
      </trkpt>
      <trkpt lat="46.01219" lon="6.26599">
        <ele>800.8</ele>
        <time>2021-03-27T13:35:04Z</time>
      </trkpt>
      <trkpt lat="46.01214" lon="6.26584">
        <ele>800.4</ele>
        <time>2021-03-27T13:35:05Z</time>
      </trkpt>
      <trkpt lat="46.0121" lon="6.26569">
        <ele>799.6</ele>
        <time>2021-03-27T13:35:06Z</time>
      </trkpt>
      <trkpt lat="46.01205" lon="6.26554">
        <ele>798.4</ele>
        <time>2021-03-27T13:35:07Z</time>
      </trkpt>
      <trkpt lat="46.01201" lon="6.26538">
        <ele>797.6</ele>
        <time>2021-03-27T13:35:08Z</time>
      </trkpt>
      <trkpt lat="46.01197" lon="6.26523">
        <ele>796.6</ele>
        <time>2021-03-27T13:35:09Z</time>
      </trkpt>
      <trkpt lat="46.01193" lon="6.26508">
        <ele>795.8</ele>
        <time>2021-03-27T13:35:10Z</time>
      </trkpt>
      <trkpt lat="46.01189" lon="6.26493">
        <ele>795.6</ele>
        <time>2021-03-27T13:35:11Z</time>
      </trkpt>
      <trkpt lat="46.01184" lon="6.26478">
        <ele>795.2</ele>
        <time>2021-03-27T13:35:12Z</time>
      </trkpt>
      <trkpt lat="46.01177" lon="6.26464">
        <ele>794.8</ele>
        <time>2021-03-27T13:35:13Z</time>
      </trkpt>
      <trkpt lat="46.01171" lon="6.2645">
        <ele>793.8</ele>
        <time>2021-03-27T13:35:14Z</time>
      </trkpt>
      <trkpt lat="46.01163" lon="6.26437">
        <ele>793.2</ele>
        <time>2021-03-27T13:35:15Z</time>
      </trkpt>
      <trkpt lat="46.01154" lon="6.26426">
        <ele>792.6</ele>
        <time>2021-03-27T13:35:16Z</time>
      </trkpt>
      <trkpt lat="46.01143" lon="6.26418">
        <ele>792.2</ele>
        <time>2021-03-27T13:35:17Z</time>
      </trkpt>
      <trkpt lat="46.01132" lon="6.26411">
        <ele>790.8</ele>
        <time>2021-03-27T13:35:18Z</time>
      </trkpt>
      <trkpt lat="46.01121" lon="6.26405">
        <ele>789.6</ele>
        <time>2021-03-27T13:35:19Z</time>
      </trkpt>
      <trkpt lat="46.01111" lon="6.264">
        <ele>788.6</ele>
        <time>2021-03-27T13:35:20Z</time>
      </trkpt>
      <trkpt lat="46.011" lon="6.26393">
        <ele>787.4</ele>
        <time>2021-03-27T13:35:21Z</time>
      </trkpt>
      <trkpt lat="46.01089" lon="6.26387">
        <ele>786.4</ele>
        <time>2021-03-27T13:35:22Z</time>
      </trkpt>
      <trkpt lat="46.01079" lon="6.26379">
        <ele>785.6</ele>
        <time>2021-03-27T13:35:23Z</time>
      </trkpt>
      <trkpt lat="46.01068" lon="6.26372">
        <ele>785.2</ele>
        <time>2021-03-27T13:35:24Z</time>
      </trkpt>
      <trkpt lat="46.01058" lon="6.26366">
        <ele>784.6</ele>
        <time>2021-03-27T13:35:25Z</time>
      </trkpt>
      <trkpt lat="46.01047" lon="6.26361">
        <ele>783.8</ele>
        <time>2021-03-27T13:35:26Z</time>
      </trkpt>
      <trkpt lat="46.01037" lon="6.26355">
        <ele>783.2</ele>
        <time>2021-03-27T13:35:27Z</time>
      </trkpt>
      <trkpt lat="46.01027" lon="6.26347">
        <ele>782</ele>
        <time>2021-03-27T13:35:28Z</time>
      </trkpt>
      <trkpt lat="46.01019" lon="6.26337">
        <ele>781.4</ele>
        <time>2021-03-27T13:35:29Z</time>
      </trkpt>
      <trkpt lat="46.01011" lon="6.26326">
        <ele>780.8</ele>
        <time>2021-03-27T13:35:30Z</time>
      </trkpt>
      <trkpt lat="46.01003" lon="6.26314">
        <ele>780.2</ele>
        <time>2021-03-27T13:35:31Z</time>
      </trkpt>
      <trkpt lat="46.00996" lon="6.26304">
        <ele>779.4</ele>
        <time>2021-03-27T13:35:32Z</time>
      </trkpt>
      <trkpt lat="46.00988" lon="6.26295">
        <ele>778.6</ele>
        <time>2021-03-27T13:35:33Z</time>
      </trkpt>
      <trkpt lat="46.00978" lon="6.26288">
        <ele>778</ele>
        <time>2021-03-27T13:35:34Z</time>
      </trkpt>
      <trkpt lat="46.00968" lon="6.26282">
        <ele>777.4</ele>
        <time>2021-03-27T13:35:35Z</time>
      </trkpt>
      <trkpt lat="46.00958" lon="6.26278">
        <ele>777</ele>
        <time>2021-03-27T13:35:36Z</time>
      </trkpt>
      <trkpt lat="46.00948" lon="6.26273">
        <ele>776.6</ele>
        <time>2021-03-27T13:35:37Z</time>
      </trkpt>
      <trkpt lat="46.00938" lon="6.26266">
        <ele>776.4</ele>
        <time>2021-03-27T13:35:38Z</time>
      </trkpt>
      <trkpt lat="46.00929" lon="6.26258">
        <ele>776.2</ele>
        <time>2021-03-27T13:35:39Z</time>
      </trkpt>
      <trkpt lat="46.00922" lon="6.26247">
        <ele>776</ele>
        <time>2021-03-27T13:35:40Z</time>
      </trkpt>
      <trkpt lat="46.00917" lon="6.26234">
        <ele>775.8</ele>
        <time>2021-03-27T13:35:41Z</time>
      </trkpt>
      <trkpt lat="46.00914" lon="6.26219">
        <ele>775</ele>
        <time>2021-03-27T13:35:42Z</time>
      </trkpt>
      <trkpt lat="46.00913" lon="6.26204">
        <ele>773.8</ele>
        <time>2021-03-27T13:35:43Z</time>
      </trkpt>
      <trkpt lat="46.00912" lon="6.26189">
        <ele>772.8</ele>
        <time>2021-03-27T13:35:44Z</time>
      </trkpt>
      <trkpt lat="46.0091" lon="6.26174">
        <ele>772</ele>
        <time>2021-03-27T13:35:45Z</time>
      </trkpt>
      <trkpt lat="46.00906" lon="6.2616">
        <ele>771.2</ele>
        <time>2021-03-27T13:35:46Z</time>
      </trkpt>
      <trkpt lat="46.009" lon="6.26147">
        <ele>770.8</ele>
        <time>2021-03-27T13:35:47Z</time>
      </trkpt>
      <trkpt lat="46.00894" lon="6.26136">
        <ele>770.4</ele>
        <time>2021-03-27T13:35:48Z</time>
      </trkpt>
      <trkpt lat="46.00886" lon="6.26127">
        <ele>770.2</ele>
        <time>2021-03-27T13:35:49Z</time>
      </trkpt>
      <trkpt lat="46.00878" lon="6.26118">
        <ele>770</ele>
        <time>2021-03-27T13:35:50Z</time>
      </trkpt>
      <trkpt lat="46.00869" lon="6.2611">
        <ele>770</ele>
        <time>2021-03-27T13:35:51Z</time>
      </trkpt>
      <trkpt lat="46.0086" lon="6.26101">
        <ele>770</ele>
        <time>2021-03-27T13:35:52Z</time>
      </trkpt>
      <trkpt lat="46.00853" lon="6.26092">
        <ele>769.8</ele>
        <time>2021-03-27T13:35:53Z</time>
      </trkpt>
      <trkpt lat="46.00846" lon="6.26081">
        <ele>769.6</ele>
        <time>2021-03-27T13:35:54Z</time>
      </trkpt>
      <trkpt lat="46.0084" lon="6.26069">
        <ele>769.2</ele>
        <time>2021-03-27T13:35:55Z</time>
      </trkpt>
      <trkpt lat="46.00835" lon="6.26057">
        <ele>768.8</ele>
        <time>2021-03-27T13:35:56Z</time>
      </trkpt>
      <trkpt lat="46.0083" lon="6.26045">
        <ele>768</ele>
        <time>2021-03-27T13:35:57Z</time>
      </trkpt>
      <trkpt lat="46.00826" lon="6.26032">
        <ele>767</ele>
        <time>2021-03-27T13:35:58Z</time>
      </trkpt>
      <trkpt lat="46.0082" lon="6.2602">
        <ele>766.4</ele>
        <time>2021-03-27T13:35:59Z</time>
      </trkpt>
      <trkpt lat="46.00814" lon="6.26009">
        <ele>765</ele>
        <time>2021-03-27T13:36:00Z</time>
      </trkpt>
      <trkpt lat="46.00805" lon="6.26">
        <ele>764</ele>
        <time>2021-03-27T13:36:01Z</time>
      </trkpt>
      <trkpt lat="46.00797" lon="6.25992">
        <ele>763.2</ele>
        <time>2021-03-27T13:36:02Z</time>
      </trkpt>
      <trkpt lat="46.00788" lon="6.25985">
        <ele>763</ele>
        <time>2021-03-27T13:36:03Z</time>
      </trkpt>
      <trkpt lat="46.00778" lon="6.25979">
        <ele>762.6</ele>
        <time>2021-03-27T13:36:04Z</time>
      </trkpt>
      <trkpt lat="46.00769" lon="6.25973">
        <ele>762.6</ele>
        <time>2021-03-27T13:36:05Z</time>
      </trkpt>
      <trkpt lat="46.00759" lon="6.25967">
        <ele>762.2</ele>
        <time>2021-03-27T13:36:06Z</time>
      </trkpt>
      <trkpt lat="46.0075" lon="6.25961">
        <ele>761.6</ele>
        <time>2021-03-27T13:36:07Z</time>
      </trkpt>
      <trkpt lat="46.00741" lon="6.25953">
        <ele>761.4</ele>
        <time>2021-03-27T13:36:08Z</time>
      </trkpt>
      <trkpt lat="46.00733" lon="6.25943">
        <ele>761</ele>
        <time>2021-03-27T13:36:09Z</time>
      </trkpt>
      <trkpt lat="46.00727" lon="6.25932">
        <ele>760.6</ele>
        <time>2021-03-27T13:36:10Z</time>
      </trkpt>
      <trkpt lat="46.00721" lon="6.25921">
        <ele>760</ele>
        <time>2021-03-27T13:36:11Z</time>
      </trkpt>
      <trkpt lat="46.00715" lon="6.2591">
        <ele>759.6</ele>
        <time>2021-03-27T13:36:12Z</time>
      </trkpt>
      <trkpt lat="46.00708" lon="6.259">
        <ele>758.2</ele>
        <time>2021-03-27T13:36:13Z</time>
      </trkpt>
      <trkpt lat="46.00702" lon="6.2589">
        <ele>756.6</ele>
        <time>2021-03-27T13:36:14Z</time>
      </trkpt>
      <trkpt lat="46.00695" lon="6.25881">
        <ele>755.8</ele>
        <time>2021-03-27T13:36:15Z</time>
      </trkpt>
      <trkpt lat="46.00688" lon="6.25873">
        <ele>755.4</ele>
        <time>2021-03-27T13:36:16Z</time>
      </trkpt>
      <trkpt lat="46.00681" lon="6.25864">
        <ele>755</ele>
        <time>2021-03-27T13:36:17Z</time>
      </trkpt>
      <trkpt lat="46.00673" lon="6.25856">
        <ele>754.8</ele>
        <time>2021-03-27T13:36:18Z</time>
      </trkpt>
      <trkpt lat="46.00666" lon="6.25849">
        <ele>754.8</ele>
        <time>2021-03-27T13:36:19Z</time>
      </trkpt>
      <trkpt lat="46.00657" lon="6.25842">
        <ele>754.6</ele>
        <time>2021-03-27T13:36:20Z</time>
      </trkpt>
      <trkpt lat="46.00647" lon="6.25837">
        <ele>754.2</ele>
        <time>2021-03-27T13:36:21Z</time>
      </trkpt>
      <trkpt lat="46.00637" lon="6.25834">
        <ele>753.2</ele>
        <time>2021-03-27T13:36:22Z</time>
      </trkpt>
      <trkpt lat="46.00627" lon="6.25832">
        <ele>752</ele>
        <time>2021-03-27T13:36:23Z</time>
      </trkpt>
      <trkpt lat="46.00617" lon="6.25831">
        <ele>751.2</ele>
        <time>2021-03-27T13:36:24Z</time>
      </trkpt>
      <trkpt lat="46.00607" lon="6.25831">
        <ele>750.6</ele>
        <time>2021-03-27T13:36:25Z</time>
      </trkpt>
      <trkpt lat="46.00597" lon="6.2583">
        <ele>750</ele>
        <time>2021-03-27T13:36:26Z</time>
      </trkpt>
      <trkpt lat="46.00588" lon="6.25828">
        <ele>750</ele>
        <time>2021-03-27T13:36:27Z</time>
      </trkpt>
      <trkpt lat="46.00578" lon="6.25824">
        <ele>749.8</ele>
        <time>2021-03-27T13:36:28Z</time>
      </trkpt>
      <trkpt lat="46.0057" lon="6.25818">
        <ele>749.4</ele>
        <time>2021-03-27T13:36:29Z</time>
      </trkpt>
      <trkpt lat="46.00562" lon="6.25809">
        <ele>749.2</ele>
        <time>2021-03-27T13:36:30Z</time>
      </trkpt>
      <trkpt lat="46.00556" lon="6.25797">
        <ele>748.6</ele>
        <time>2021-03-27T13:36:31Z</time>
      </trkpt>
      <trkpt lat="46.00552" lon="6.25784">
        <ele>747.8</ele>
        <time>2021-03-27T13:36:32Z</time>
      </trkpt>
      <trkpt lat="46.00549" lon="6.2577">
        <ele>747.4</ele>
        <time>2021-03-27T13:36:33Z</time>
      </trkpt>
      <trkpt lat="46.00546" lon="6.25756">
        <ele>746.4</ele>
        <time>2021-03-27T13:36:34Z</time>
      </trkpt>
      <trkpt lat="46.00542" lon="6.25742">
        <ele>745.6</ele>
        <time>2021-03-27T13:36:35Z</time>
      </trkpt>
      <trkpt lat="46.00537" lon="6.2573">
        <ele>745</ele>
        <time>2021-03-27T13:36:36Z</time>
      </trkpt>
      <trkpt lat="46.0053" lon="6.25719">
        <ele>744.6</ele>
        <time>2021-03-27T13:36:37Z</time>
      </trkpt>
      <trkpt lat="46.00521" lon="6.25711">
        <ele>743.8</ele>
        <time>2021-03-27T13:36:38Z</time>
      </trkpt>
      <trkpt lat="46.0051" lon="6.25705">
        <ele>742.6</ele>
        <time>2021-03-27T13:36:39Z</time>
      </trkpt>
      <trkpt lat="46.005" lon="6.25701">
        <ele>741.8</ele>
        <time>2021-03-27T13:36:40Z</time>
      </trkpt>
      <trkpt lat="46.00489" lon="6.25698">
        <ele>741.2</ele>
        <time>2021-03-27T13:36:41Z</time>
      </trkpt>
      <trkpt lat="46.00478" lon="6.25696">
        <ele>740.8</ele>
        <time>2021-03-27T13:36:42Z</time>
      </trkpt>
      <trkpt lat="46.00467" lon="6.25696">
        <ele>740.8</ele>
        <time>2021-03-27T13:36:43Z</time>
      </trkpt>
      <trkpt lat="46.00456" lon="6.25696">
        <ele>740.6</ele>
        <time>2021-03-27T13:36:44Z</time>
      </trkpt>
      <trkpt lat="46.00445" lon="6.25697">
        <ele>740</ele>
        <time>2021-03-27T13:36:45Z</time>
      </trkpt>
      <trkpt lat="46.00434" lon="6.257">
        <ele>739.6</ele>
        <time>2021-03-27T13:36:46Z</time>
      </trkpt>
      <trkpt lat="46.00423" lon="6.25705">
        <ele>739</ele>
        <time>2021-03-27T13:36:47Z</time>
      </trkpt>
      <trkpt lat="46.00413" lon="6.25709">
        <ele>738.6</ele>
        <time>2021-03-27T13:36:48Z</time>
      </trkpt>
      <trkpt lat="46.00402" lon="6.25712">
        <ele>737.8</ele>
        <time>2021-03-27T13:36:49Z</time>
      </trkpt>
      <trkpt lat="46.00392" lon="6.25713">
        <ele>737.2</ele>
        <time>2021-03-27T13:36:50Z</time>
      </trkpt>
      <trkpt lat="46.00381" lon="6.2571">
        <ele>736</ele>
        <time>2021-03-27T13:36:51Z</time>
      </trkpt>
      <trkpt lat="46.00372" lon="6.25705">
        <ele>734.4</ele>
        <time>2021-03-27T13:36:52Z</time>
      </trkpt>
      <trkpt lat="46.00363" lon="6.25698">
        <ele>734.4</ele>
        <time>2021-03-27T13:36:53Z</time>
      </trkpt>
      <trkpt lat="46.00354" lon="6.2569">
        <ele>733.4</ele>
        <time>2021-03-27T13:36:54Z</time>
      </trkpt>
      <trkpt lat="46.00346" lon="6.25681">
        <ele>732.8</ele>
        <time>2021-03-27T13:36:55Z</time>
      </trkpt>
      <trkpt lat="46.00339" lon="6.2567">
        <ele>732.6</ele>
        <time>2021-03-27T13:36:56Z</time>
      </trkpt>
      <trkpt lat="46.00333" lon="6.25658">
        <ele>732.2</ele>
        <time>2021-03-27T13:36:57Z</time>
      </trkpt>
      <trkpt lat="46.00327" lon="6.25646">
        <ele>731.2</ele>
        <time>2021-03-27T13:36:58Z</time>
      </trkpt>
      <trkpt lat="46.00319" lon="6.25635">
        <ele>730</ele>
        <time>2021-03-27T13:36:59Z</time>
      </trkpt>
      <trkpt lat="46.00309" lon="6.25626">
        <ele>729.2</ele>
        <time>2021-03-27T13:37:00Z</time>
      </trkpt>
      <trkpt lat="46.00299" lon="6.25621">
        <ele>728.8</ele>
        <time>2021-03-27T13:37:01Z</time>
      </trkpt>
      <trkpt lat="46.0029" lon="6.25617">
        <ele>728</ele>
        <time>2021-03-27T13:37:02Z</time>
      </trkpt>
      <trkpt lat="46.0028" lon="6.25616">
        <ele>727.6</ele>
        <time>2021-03-27T13:37:03Z</time>
      </trkpt>
      <trkpt lat="46.0027" lon="6.25614">
        <ele>727.2</ele>
        <time>2021-03-27T13:37:04Z</time>
      </trkpt>
      <trkpt lat="46.0026" lon="6.25613">
        <ele>726.8</ele>
        <time>2021-03-27T13:37:05Z</time>
      </trkpt>
      <trkpt lat="46.0025" lon="6.25612">
        <ele>726.6</ele>
        <time>2021-03-27T13:37:06Z</time>
      </trkpt>
      <trkpt lat="46.0024" lon="6.25611">
        <ele>726.4</ele>
        <time>2021-03-27T13:37:07Z</time>
      </trkpt>
      <trkpt lat="46.0023" lon="6.2561">
        <ele>725.6</ele>
        <time>2021-03-27T13:37:08Z</time>
      </trkpt>
      <trkpt lat="46.0022" lon="6.25608">
        <ele>724.8</ele>
        <time>2021-03-27T13:37:09Z</time>
      </trkpt>
      <trkpt lat="46.0021" lon="6.25605">
        <ele>723.6</ele>
        <time>2021-03-27T13:37:10Z</time>
      </trkpt>
      <trkpt lat="46.00199" lon="6.256">
        <ele>723.2</ele>
        <time>2021-03-27T13:37:11Z</time>
      </trkpt>
      <trkpt lat="46.00189" lon="6.25595">
        <ele>722.8</ele>
        <time>2021-03-27T13:37:12Z</time>
      </trkpt>
      <trkpt lat="46.0018" lon="6.25588">
        <ele>722.6</ele>
        <time>2021-03-27T13:37:13Z</time>
      </trkpt>
      <trkpt lat="46.0017" lon="6.25582">
        <ele>722.6</ele>
        <time>2021-03-27T13:37:14Z</time>
      </trkpt>
      <trkpt lat="46.0016" lon="6.25576">
        <ele>722.4</ele>
        <time>2021-03-27T13:37:15Z</time>
      </trkpt>
      <trkpt lat="46.0015" lon="6.2557">
        <ele>722.4</ele>
        <time>2021-03-27T13:37:16Z</time>
      </trkpt>
      <trkpt lat="46.00141" lon="6.25563">
        <ele>722.2</ele>
        <time>2021-03-27T13:37:17Z</time>
      </trkpt>
      <trkpt lat="46.00131" lon="6.25556">
        <ele>722</ele>
        <time>2021-03-27T13:37:18Z</time>
      </trkpt>
      <trkpt lat="46.00122" lon="6.25548">
        <ele>721.4</ele>
        <time>2021-03-27T13:37:19Z</time>
      </trkpt>
      <trkpt lat="46.00114" lon="6.25539">
        <ele>720.6</ele>
        <time>2021-03-27T13:37:20Z</time>
      </trkpt>
      <trkpt lat="46.00107" lon="6.25528">
        <ele>719.4</ele>
        <time>2021-03-27T13:37:21Z</time>
      </trkpt>
      <trkpt lat="46.00101" lon="6.25516">
        <ele>718.8</ele>
        <time>2021-03-27T13:37:22Z</time>
      </trkpt>
      <trkpt lat="46.00096" lon="6.25503">
        <ele>718.2</ele>
        <time>2021-03-27T13:37:23Z</time>
      </trkpt>
      <trkpt lat="46.00091" lon="6.25489">
        <ele>717.4</ele>
        <time>2021-03-27T13:37:24Z</time>
      </trkpt>
      <trkpt lat="46.00088" lon="6.25475">
        <ele>716.6</ele>
        <time>2021-03-27T13:37:25Z</time>
      </trkpt>
      <trkpt lat="46.00086" lon="6.2546">
        <ele>716</ele>
        <time>2021-03-27T13:37:26Z</time>
      </trkpt>
      <trkpt lat="46.00085" lon="6.25445">
        <ele>715.6</ele>
        <time>2021-03-27T13:37:27Z</time>
      </trkpt>
      <trkpt lat="46.00085" lon="6.2543">
        <ele>715.4</ele>
        <time>2021-03-27T13:37:28Z</time>
      </trkpt>
      <trkpt lat="46.00086" lon="6.25414">
        <ele>715.2</ele>
        <time>2021-03-27T13:37:29Z</time>
      </trkpt>
      <trkpt lat="46.00087" lon="6.25399">
        <ele>714.8</ele>
        <time>2021-03-27T13:37:30Z</time>
      </trkpt>
      <trkpt lat="46.00089" lon="6.25383">
        <ele>714.2</ele>
        <time>2021-03-27T13:37:31Z</time>
      </trkpt>
      <trkpt lat="46.00089" lon="6.25368">
        <ele>714</ele>
        <time>2021-03-27T13:37:32Z</time>
      </trkpt>
      <trkpt lat="46.0009" lon="6.25338">
        <ele>712.8</ele>
        <time>2021-03-27T13:37:34Z</time>
      </trkpt>
      <trkpt lat="46.00089" lon="6.25323">
        <ele>712.4</ele>
        <time>2021-03-27T13:37:35Z</time>
      </trkpt>
      <trkpt lat="46.00088" lon="6.25308">
        <ele>712</ele>
        <time>2021-03-27T13:37:36Z</time>
      </trkpt>
      <trkpt lat="46.00087" lon="6.25293">
        <ele>711.2</ele>
        <time>2021-03-27T13:37:37Z</time>
      </trkpt>
      <trkpt lat="46.00085" lon="6.25278">
        <ele>710.8</ele>
        <time>2021-03-27T13:37:38Z</time>
      </trkpt>
      <trkpt lat="46.00083" lon="6.25249">
        <ele>709.6</ele>
        <time>2021-03-27T13:37:40Z</time>
      </trkpt>
      <trkpt lat="46.00082" lon="6.25234">
        <ele>708.8</ele>
        <time>2021-03-27T13:37:41Z</time>
      </trkpt>
      <trkpt lat="46.0008" lon="6.25218">
        <ele>708.2</ele>
        <time>2021-03-27T13:37:42Z</time>
      </trkpt>
      <trkpt lat="46.00079" lon="6.25203">
        <ele>707.4</ele>
        <time>2021-03-27T13:37:43Z</time>
      </trkpt>
      <trkpt lat="46.00077" lon="6.25188">
        <ele>706.8</ele>
        <time>2021-03-27T13:37:44Z</time>
      </trkpt>
      <trkpt lat="46.0007" lon="6.25161">
        <ele>705.8</ele>
        <time>2021-03-27T13:37:46Z</time>
      </trkpt>
      <trkpt lat="46.00065" lon="6.25148">
        <ele>705.4</ele>
        <time>2021-03-27T13:37:47Z</time>
      </trkpt>
      <trkpt lat="46.00058" lon="6.25137">
        <ele>705</ele>
        <time>2021-03-27T13:37:48Z</time>
      </trkpt>
      <trkpt lat="46.0005" lon="6.2513">
        <ele>705</ele>
        <time>2021-03-27T13:37:49Z</time>
      </trkpt>
      <trkpt lat="46.00041" lon="6.25122">
        <ele>704.6</ele>
        <time>2021-03-27T13:37:50Z</time>
      </trkpt>
      <trkpt lat="46.00031" lon="6.25116">
        <ele>704.2</ele>
        <time>2021-03-27T13:37:51Z</time>
      </trkpt>
      <trkpt lat="46.00021" lon="6.25111">
        <ele>703.6</ele>
        <time>2021-03-27T13:37:52Z</time>
      </trkpt>
      <trkpt lat="46.0001" lon="6.25107">
        <ele>703.2</ele>
        <time>2021-03-27T13:37:53Z</time>
      </trkpt>
      <trkpt lat="46" lon="6.25103">
        <ele>702.6</ele>
        <time>2021-03-27T13:37:54Z</time>
      </trkpt>
      <trkpt lat="45.99989" lon="6.25099">
        <ele>701.4</ele>
        <time>2021-03-27T13:37:55Z</time>
      </trkpt>
      <trkpt lat="45.99979" lon="6.25095">
        <ele>700.8</ele>
        <time>2021-03-27T13:37:56Z</time>
      </trkpt>
      <trkpt lat="45.9996" lon="6.25085">
        <ele>700</ele>
        <time>2021-03-27T13:37:58Z</time>
      </trkpt>
      <trkpt lat="45.9995" lon="6.25079">
        <ele>699.4</ele>
        <time>2021-03-27T13:37:59Z</time>
      </trkpt>
      <trkpt lat="45.9994" lon="6.25073">
        <ele>698.6</ele>
        <time>2021-03-27T13:38:00Z</time>
      </trkpt>
      <trkpt lat="45.9993" lon="6.25067">
        <ele>697.6</ele>
        <time>2021-03-27T13:38:01Z</time>
      </trkpt>
      <trkpt lat="45.99921" lon="6.25061">
        <ele>696.6</ele>
        <time>2021-03-27T13:38:02Z</time>
      </trkpt>
      <trkpt lat="45.99911" lon="6.25055">
        <ele>696</ele>
        <time>2021-03-27T13:38:03Z</time>
      </trkpt>
      <trkpt lat="45.99901" lon="6.2505">
        <ele>695.4</ele>
        <time>2021-03-27T13:38:04Z</time>
      </trkpt>
      <trkpt lat="45.99891" lon="6.25045">
        <ele>695</ele>
        <time>2021-03-27T13:38:05Z</time>
      </trkpt>
      <trkpt lat="45.99881" lon="6.25041">
        <ele>694.8</ele>
        <time>2021-03-27T13:38:06Z</time>
      </trkpt>
      <trkpt lat="45.99871" lon="6.25038">
        <ele>694.2</ele>
        <time>2021-03-27T13:38:07Z</time>
      </trkpt>
      <trkpt lat="45.9986" lon="6.25036">
        <ele>693.4</ele>
        <time>2021-03-27T13:38:08Z</time>
      </trkpt>
      <trkpt lat="45.99839" lon="6.25031">
        <ele>692.4</ele>
        <time>2021-03-27T13:38:10Z</time>
      </trkpt>
      <trkpt lat="45.99829" lon="6.25028">
        <ele>692</ele>
        <time>2021-03-27T13:38:11Z</time>
      </trkpt>
      <trkpt lat="45.99818" lon="6.25025">
        <ele>691.4</ele>
        <time>2021-03-27T13:38:12Z</time>
      </trkpt>
      <trkpt lat="45.99808" lon="6.25023">
        <ele>690.6</ele>
        <time>2021-03-27T13:38:13Z</time>
      </trkpt>
      <trkpt lat="45.99798" lon="6.25019">
        <ele>689.8</ele>
        <time>2021-03-27T13:38:14Z</time>
      </trkpt>
      <trkpt lat="45.99778" lon="6.25011">
        <ele>689.4</ele>
        <time>2021-03-27T13:38:16Z</time>
      </trkpt>
      <trkpt lat="45.99769" lon="6.25006">
        <ele>689</ele>
        <time>2021-03-27T13:38:17Z</time>
      </trkpt>
      <trkpt lat="45.99761" lon="6.25001">
        <ele>688.6</ele>
        <time>2021-03-27T13:38:18Z</time>
      </trkpt>
      <trkpt lat="45.99752" lon="6.24995">
        <ele>688.4</ele>
        <time>2021-03-27T13:38:19Z</time>
      </trkpt>
      <trkpt lat="45.99745" lon="6.24989">
        <ele>688.2</ele>
        <time>2021-03-27T13:38:20Z</time>
      </trkpt>
      <trkpt lat="45.99737" lon="6.24984">
        <ele>687.6</ele>
        <time>2021-03-27T13:38:21Z</time>
      </trkpt>
      <trkpt lat="45.9973" lon="6.24978">
        <ele>687</ele>
        <time>2021-03-27T13:38:22Z</time>
      </trkpt>
      <trkpt lat="45.99723" lon="6.24973">
        <ele>686.4</ele>
        <time>2021-03-27T13:38:23Z</time>
      </trkpt>
      <trkpt lat="45.99716" lon="6.24968">
        <ele>686.2</ele>
        <time>2021-03-27T13:38:24Z</time>
      </trkpt>
      <trkpt lat="45.99709" lon="6.24963">
        <ele>686</ele>
        <time>2021-03-27T13:38:25Z</time>
      </trkpt>
      <trkpt lat="45.99703" lon="6.24959">
        <ele>685.8</ele>
        <time>2021-03-27T13:38:26Z</time>
      </trkpt>
      <trkpt lat="45.99696" lon="6.24954">
        <ele>686</ele>
        <time>2021-03-27T13:38:27Z</time>
      </trkpt>
      <trkpt lat="45.9969" lon="6.24949">
        <ele>685.8</ele>
        <time>2021-03-27T13:38:28Z</time>
      </trkpt>
      <trkpt lat="45.99684" lon="6.24944">
        <ele>685.8</ele>
        <time>2021-03-27T13:38:29Z</time>
      </trkpt>
      <trkpt lat="45.99679" lon="6.24939">
        <ele>686</ele>
        <time>2021-03-27T13:38:30Z</time>
      </trkpt>
      <trkpt lat="45.99674" lon="6.24935">
        <ele>686</ele>
        <time>2021-03-27T13:38:31Z</time>
      </trkpt>
      <trkpt lat="45.99671" lon="6.24932">
        <ele>685.8</ele>
        <time>2021-03-27T13:38:32Z</time>
      </trkpt>
      <trkpt lat="45.99669" lon="6.2493">
        <ele>686</ele>
        <time>2021-03-27T13:38:33Z</time>
      </trkpt>
      <trkpt lat="45.99666" lon="6.2493">
        <ele>686.2</ele>
        <time>2021-03-27T13:38:34Z</time>
      </trkpt>
      <trkpt lat="45.99663" lon="6.24933">
        <ele>686.4</ele>
        <time>2021-03-27T13:38:35Z</time>
      </trkpt>
      <trkpt lat="45.99659" lon="6.24938">
        <ele>686.6</ele>
        <time>2021-03-27T13:38:36Z</time>
      </trkpt>
      <trkpt lat="45.99655" lon="6.24944">
        <ele>686.8</ele>
        <time>2021-03-27T13:38:37Z</time>
      </trkpt>
      <trkpt lat="45.99652" lon="6.24951">
        <ele>686.8</ele>
        <time>2021-03-27T13:38:38Z</time>
      </trkpt>
      <trkpt lat="45.99651" lon="6.24959">
        <ele>687.2</ele>
        <time>2021-03-27T13:38:39Z</time>
      </trkpt>
      <trkpt lat="45.99651" lon="6.24967">
        <ele>687.4</ele>
        <time>2021-03-27T13:38:40Z</time>
      </trkpt>
      <trkpt lat="45.99649" lon="6.24975">
        <ele>688</ele>
        <time>2021-03-27T13:38:41Z</time>
      </trkpt>
      <trkpt lat="45.99648" lon="6.24984">
        <ele>688</ele>
        <time>2021-03-27T13:38:42Z</time>
      </trkpt>
      <trkpt lat="45.99646" lon="6.24993">
        <ele>687.8</ele>
        <time>2021-03-27T13:38:43Z</time>
      </trkpt>
      <trkpt lat="45.99644" lon="6.25002">
        <ele>688</ele>
        <time>2021-03-27T13:38:44Z</time>
      </trkpt>
      <trkpt lat="45.99643" lon="6.25011">
        <ele>688</ele>
        <time>2021-03-27T13:38:45Z</time>
      </trkpt>
      <trkpt lat="45.99643" lon="6.25021">
        <ele>688</ele>
        <time>2021-03-27T13:38:46Z</time>
      </trkpt>
      <trkpt lat="45.99643" lon="6.25031">
        <ele>688</ele>
        <time>2021-03-27T13:38:47Z</time>
      </trkpt>
      <trkpt lat="45.99643" lon="6.25041">
        <ele>687.8</ele>
        <time>2021-03-27T13:38:48Z</time>
      </trkpt>
      <trkpt lat="45.99642" lon="6.2505">
        <ele>688</ele>
        <time>2021-03-27T13:38:49Z</time>
      </trkpt>
      <trkpt lat="45.99641" lon="6.2506">
        <ele>687.8</ele>
        <time>2021-03-27T13:38:50Z</time>
      </trkpt>
      <trkpt lat="45.99641" lon="6.25069">
        <ele>687.4</ele>
        <time>2021-03-27T13:38:51Z</time>
      </trkpt>
      <trkpt lat="45.99639" lon="6.25078">
        <ele>687.2</ele>
        <time>2021-03-27T13:38:52Z</time>
      </trkpt>
      <trkpt lat="45.99637" lon="6.25088">
        <ele>687</ele>
        <time>2021-03-27T13:38:53Z</time>
      </trkpt>
      <trkpt lat="45.99636" lon="6.25098">
        <ele>687</ele>
        <time>2021-03-27T13:38:54Z</time>
      </trkpt>
      <trkpt lat="45.99635" lon="6.25109">
        <ele>686.8</ele>
        <time>2021-03-27T13:38:55Z</time>
      </trkpt>
      <trkpt lat="45.99634" lon="6.25121">
        <ele>686.6</ele>
        <time>2021-03-27T13:38:56Z</time>
      </trkpt>
      <trkpt lat="45.99632" lon="6.25133">
        <ele>686.6</ele>
        <time>2021-03-27T13:38:57Z</time>
      </trkpt>
      <trkpt lat="45.99631" lon="6.25145">
        <ele>686.4</ele>
        <time>2021-03-27T13:38:58Z</time>
      </trkpt>
      <trkpt lat="45.9963" lon="6.25156">
        <ele>686.4</ele>
        <time>2021-03-27T13:38:59Z</time>
      </trkpt>
      <trkpt lat="45.99629" lon="6.25168">
        <ele>686.4</ele>
        <time>2021-03-27T13:39:00Z</time>
      </trkpt>
      <trkpt lat="45.99628" lon="6.2518">
        <ele>686</ele>
        <time>2021-03-27T13:39:01Z</time>
      </trkpt>
      <trkpt lat="45.99628" lon="6.25205">
        <ele>685.6</ele>
        <time>2021-03-27T13:39:03Z</time>
      </trkpt>
      <trkpt lat="45.99631" lon="6.25229">
        <ele>685.2</ele>
        <time>2021-03-27T13:39:05Z</time>
      </trkpt>
      <trkpt lat="45.9964" lon="6.25252">
        <ele>684.2</ele>
        <time>2021-03-27T13:39:07Z</time>
      </trkpt>
      <trkpt lat="45.99647" lon="6.2526">
        <ele>683.2</ele>
        <time>2021-03-27T13:39:08Z</time>
      </trkpt>
      <trkpt lat="45.99655" lon="6.25267">
        <ele>682.6</ele>
        <time>2021-03-27T13:39:09Z</time>
      </trkpt>
      <trkpt lat="45.99664" lon="6.25271">
        <ele>682.2</ele>
        <time>2021-03-27T13:39:10Z</time>
      </trkpt>
      <trkpt lat="45.99673" lon="6.25275">
        <ele>681.6</ele>
        <time>2021-03-27T13:39:11Z</time>
      </trkpt>
      <trkpt lat="45.99683" lon="6.25277">
        <ele>681.6</ele>
        <time>2021-03-27T13:39:12Z</time>
      </trkpt>
      <trkpt lat="45.99692" lon="6.25279">
        <ele>681.4</ele>
        <time>2021-03-27T13:39:13Z</time>
      </trkpt>
      <trkpt lat="45.99702" lon="6.25282">
        <ele>681.4</ele>
        <time>2021-03-27T13:39:14Z</time>
      </trkpt>
      <trkpt lat="45.99712" lon="6.25286">
        <ele>681</ele>
        <time>2021-03-27T13:39:15Z</time>
      </trkpt>
      <trkpt lat="45.99721" lon="6.25293">
        <ele>679.8</ele>
        <time>2021-03-27T13:39:16Z</time>
      </trkpt>
      <trkpt lat="45.99728" lon="6.253">
        <ele>679.2</ele>
        <time>2021-03-27T13:39:17Z</time>
      </trkpt>
      <trkpt lat="45.99734" lon="6.25309">
        <ele>678.2</ele>
        <time>2021-03-27T13:39:18Z</time>
      </trkpt>
      <trkpt lat="45.99738" lon="6.25319">
        <ele>678.2</ele>
        <time>2021-03-27T13:39:19Z</time>
      </trkpt>
      <trkpt lat="45.99739" lon="6.25328">
        <ele>677.6</ele>
        <time>2021-03-27T13:39:20Z</time>
      </trkpt>
      <trkpt lat="45.99738" lon="6.25336">
        <ele>677</ele>
        <time>2021-03-27T13:39:21Z</time>
      </trkpt>
      <trkpt lat="45.99735" lon="6.25342">
        <ele>676.4</ele>
        <time>2021-03-27T13:39:22Z</time>
      </trkpt>
      <trkpt lat="45.9973" lon="6.25345">
        <ele>676</ele>
        <time>2021-03-27T13:39:23Z</time>
      </trkpt>
      <trkpt lat="45.99724" lon="6.25347">
        <ele>675.4</ele>
        <time>2021-03-27T13:39:24Z</time>
      </trkpt>
      <trkpt lat="45.99718" lon="6.25347">
        <ele>674.8</ele>
        <time>2021-03-27T13:39:25Z</time>
      </trkpt>
      <trkpt lat="45.99706" lon="6.25345">
        <ele>673.8</ele>
        <time>2021-03-27T13:39:27Z</time>
      </trkpt>
      <trkpt lat="45.997" lon="6.25344">
        <ele>673.4</ele>
        <time>2021-03-27T13:39:28Z</time>
      </trkpt>
      <trkpt lat="45.99693" lon="6.25343">
        <ele>673</ele>
        <time>2021-03-27T13:39:29Z</time>
      </trkpt>
      <trkpt lat="45.99687" lon="6.25342">
        <ele>673</ele>
        <time>2021-03-27T13:39:30Z</time>
      </trkpt>
      <trkpt lat="45.99681" lon="6.25342">
        <ele>673</ele>
        <time>2021-03-27T13:39:31Z</time>
      </trkpt>
      <trkpt lat="45.99675" lon="6.25341">
        <ele>672.8</ele>
        <time>2021-03-27T13:39:32Z</time>
      </trkpt>
      <trkpt lat="45.99668" lon="6.2534">
        <ele>672.4</ele>
        <time>2021-03-27T13:39:33Z</time>
      </trkpt>
      <trkpt lat="45.99662" lon="6.25339">
        <ele>672.2</ele>
        <time>2021-03-27T13:39:34Z</time>
      </trkpt>
      <trkpt lat="45.99656" lon="6.25338">
        <ele>672</ele>
        <time>2021-03-27T13:39:35Z</time>
      </trkpt>
      <trkpt lat="45.9965" lon="6.25337">
        <ele>671.8</ele>
        <time>2021-03-27T13:39:36Z</time>
      </trkpt>
      <trkpt lat="45.99643" lon="6.25336">
        <ele>671.2</ele>
        <time>2021-03-27T13:39:37Z</time>
      </trkpt>
      <trkpt lat="45.99636" lon="6.25335">
        <ele>670.8</ele>
        <time>2021-03-27T13:39:38Z</time>
      </trkpt>
      <trkpt lat="45.99629" lon="6.25334">
        <ele>670.4</ele>
        <time>2021-03-27T13:39:39Z</time>
      </trkpt>
      <trkpt lat="45.99622" lon="6.25333">
        <ele>670.4</ele>
        <time>2021-03-27T13:39:40Z</time>
      </trkpt>
      <trkpt lat="45.99615" lon="6.25332">
        <ele>670.2</ele>
        <time>2021-03-27T13:39:41Z</time>
      </trkpt>
      <trkpt lat="45.99607" lon="6.25331">
        <ele>670</ele>
        <time>2021-03-27T13:39:42Z</time>
      </trkpt>
      <trkpt lat="45.996" lon="6.25328">
        <ele>669.4</ele>
        <time>2021-03-27T13:39:43Z</time>
      </trkpt>
      <trkpt lat="45.99592" lon="6.25324">
        <ele>669.2</ele>
        <time>2021-03-27T13:39:44Z</time>
      </trkpt>
      <trkpt lat="45.99584" lon="6.25319">
        <ele>669</ele>
        <time>2021-03-27T13:39:45Z</time>
      </trkpt>
      <trkpt lat="45.99577" lon="6.25313">
        <ele>668.8</ele>
        <time>2021-03-27T13:39:46Z</time>
      </trkpt>
      <trkpt lat="45.9957" lon="6.25306">
        <ele>668.6</ele>
        <time>2021-03-27T13:39:47Z</time>
      </trkpt>
      <trkpt lat="45.99563" lon="6.25299">
        <ele>668.2</ele>
        <time>2021-03-27T13:39:48Z</time>
      </trkpt>
      <trkpt lat="45.99556" lon="6.25293">
        <ele>667.6</ele>
        <time>2021-03-27T13:39:49Z</time>
      </trkpt>
      <trkpt lat="45.99547" lon="6.25289">
        <ele>667</ele>
        <time>2021-03-27T13:39:50Z</time>
      </trkpt>
      <trkpt lat="45.99539" lon="6.25285">
        <ele>666.8</ele>
        <time>2021-03-27T13:39:51Z</time>
      </trkpt>
      <trkpt lat="45.9953" lon="6.25281">
        <ele>666.6</ele>
        <time>2021-03-27T13:39:52Z</time>
      </trkpt>
      <trkpt lat="45.99521" lon="6.25278">
        <ele>666.4</ele>
        <time>2021-03-27T13:39:53Z</time>
      </trkpt>
      <trkpt lat="45.99502" lon="6.25271">
        <ele>665.2</ele>
        <time>2021-03-27T13:39:55Z</time>
      </trkpt>
      <trkpt lat="45.99493" lon="6.25267">
        <ele>664.8</ele>
        <time>2021-03-27T13:39:56Z</time>
      </trkpt>
      <trkpt lat="45.99484" lon="6.25261">
        <ele>664.2</ele>
        <time>2021-03-27T13:39:57Z</time>
      </trkpt>
      <trkpt lat="45.99475" lon="6.25255">
        <ele>664</ele>
        <time>2021-03-27T13:39:58Z</time>
      </trkpt>
      <trkpt lat="45.99468" lon="6.25245">
        <ele>663.4</ele>
        <time>2021-03-27T13:39:59Z</time>
      </trkpt>
      <trkpt lat="45.99462" lon="6.25235">
        <ele>663</ele>
        <time>2021-03-27T13:40:00Z</time>
      </trkpt>
      <trkpt lat="45.99458" lon="6.25223">
        <ele>662.4</ele>
        <time>2021-03-27T13:40:01Z</time>
      </trkpt>
      <trkpt lat="45.99454" lon="6.2521">
        <ele>661.4</ele>
        <time>2021-03-27T13:40:02Z</time>
      </trkpt>
      <trkpt lat="45.9945" lon="6.25198">
        <ele>660.4</ele>
        <time>2021-03-27T13:40:03Z</time>
      </trkpt>
      <trkpt lat="45.99446" lon="6.25185">
        <ele>659.4</ele>
        <time>2021-03-27T13:40:04Z</time>
      </trkpt>
      <trkpt lat="45.99441" lon="6.25173">
        <ele>658.6</ele>
        <time>2021-03-27T13:40:05Z</time>
      </trkpt>
      <trkpt lat="45.99435" lon="6.25162">
        <ele>657.8</ele>
        <time>2021-03-27T13:40:06Z</time>
      </trkpt>
      <trkpt lat="45.9943" lon="6.25151">
        <ele>657.4</ele>
        <time>2021-03-27T13:40:07Z</time>
      </trkpt>
      <trkpt lat="45.99424" lon="6.25139">
        <ele>656.8</ele>
        <time>2021-03-27T13:40:08Z</time>
      </trkpt>
      <trkpt lat="45.99419" lon="6.25128">
        <ele>656.4</ele>
        <time>2021-03-27T13:40:09Z</time>
      </trkpt>
      <trkpt lat="45.99413" lon="6.25116">
        <ele>656.2</ele>
        <time>2021-03-27T13:40:10Z</time>
      </trkpt>
      <trkpt lat="45.99408" lon="6.25105">
        <ele>656</ele>
        <time>2021-03-27T13:40:11Z</time>
      </trkpt>
      <trkpt lat="45.99403" lon="6.25093">
        <ele>655.8</ele>
        <time>2021-03-27T13:40:12Z</time>
      </trkpt>
      <trkpt lat="45.99399" lon="6.25081">
        <ele>655.6</ele>
        <time>2021-03-27T13:40:13Z</time>
      </trkpt>
      <trkpt lat="45.99397" lon="6.25068">
        <ele>655</ele>
        <time>2021-03-27T13:40:14Z</time>
      </trkpt>
      <trkpt lat="45.99395" lon="6.25055">
        <ele>654.2</ele>
        <time>2021-03-27T13:40:15Z</time>
      </trkpt>
      <trkpt lat="45.99395" lon="6.25041">
        <ele>653.4</ele>
        <time>2021-03-27T13:40:16Z</time>
      </trkpt>
      <trkpt lat="45.99395" lon="6.25028">
        <ele>653</ele>
        <time>2021-03-27T13:40:17Z</time>
      </trkpt>
      <trkpt lat="45.99394" lon="6.25015">
        <ele>652.4</ele>
        <time>2021-03-27T13:40:18Z</time>
      </trkpt>
      <trkpt lat="45.99394" lon="6.25001">
        <ele>652.2</ele>
        <time>2021-03-27T13:40:19Z</time>
      </trkpt>
      <trkpt lat="45.99394" lon="6.24988">
        <ele>652</ele>
        <time>2021-03-27T13:40:20Z</time>
      </trkpt>
      <trkpt lat="45.99394" lon="6.24962">
        <ele>651.6</ele>
        <time>2021-03-27T13:40:22Z</time>
      </trkpt>
      <trkpt lat="45.99393" lon="6.24948">
        <ele>651.2</ele>
        <time>2021-03-27T13:40:23Z</time>
      </trkpt>
      <trkpt lat="45.99391" lon="6.24935">
        <ele>650.6</ele>
        <time>2021-03-27T13:40:24Z</time>
      </trkpt>
      <trkpt lat="45.99389" lon="6.24922">
        <ele>649.4</ele>
        <time>2021-03-27T13:40:25Z</time>
      </trkpt>
      <trkpt lat="45.99386" lon="6.2491">
        <ele>648.8</ele>
        <time>2021-03-27T13:40:26Z</time>
      </trkpt>
      <trkpt lat="45.99382" lon="6.24897">
        <ele>648.4</ele>
        <time>2021-03-27T13:40:27Z</time>
      </trkpt>
      <trkpt lat="45.99378" lon="6.24885">
        <ele>648.2</ele>
        <time>2021-03-27T13:40:28Z</time>
      </trkpt>
      <trkpt lat="45.99373" lon="6.24873">
        <ele>648.2</ele>
        <time>2021-03-27T13:40:29Z</time>
      </trkpt>
      <trkpt lat="45.99366" lon="6.24862">
        <ele>648</ele>
        <time>2021-03-27T13:40:30Z</time>
      </trkpt>
      <trkpt lat="45.99359" lon="6.24852">
        <ele>647.8</ele>
        <time>2021-03-27T13:40:31Z</time>
      </trkpt>
      <trkpt lat="45.99352" lon="6.24843">
        <ele>647.6</ele>
        <time>2021-03-27T13:40:32Z</time>
      </trkpt>
      <trkpt lat="45.99344" lon="6.24835">
        <ele>647</ele>
        <time>2021-03-27T13:40:33Z</time>
      </trkpt>
      <trkpt lat="45.99335" lon="6.24827">
        <ele>646.8</ele>
        <time>2021-03-27T13:40:34Z</time>
      </trkpt>
      <trkpt lat="45.99326" lon="6.24821">
        <ele>646.6</ele>
        <time>2021-03-27T13:40:35Z</time>
      </trkpt>
      <trkpt lat="45.99318" lon="6.24816">
        <ele>646</ele>
        <time>2021-03-27T13:40:36Z</time>
      </trkpt>
      <trkpt lat="45.99308" lon="6.24812">
        <ele>645.2</ele>
        <time>2021-03-27T13:40:37Z</time>
      </trkpt>
      <trkpt lat="45.993" lon="6.24809">
        <ele>644.8</ele>
        <time>2021-03-27T13:40:38Z</time>
      </trkpt>
      <trkpt lat="45.9929" lon="6.24807">
        <ele>643.8</ele>
        <time>2021-03-27T13:40:39Z</time>
      </trkpt>
      <trkpt lat="45.99271" lon="6.24806">
        <ele>642.8</ele>
        <time>2021-03-27T13:40:41Z</time>
      </trkpt>
      <trkpt lat="45.99261" lon="6.24806">
        <ele>642.6</ele>
        <time>2021-03-27T13:40:42Z</time>
      </trkpt>
      <trkpt lat="45.9925" lon="6.24808">
        <ele>642.4</ele>
        <time>2021-03-27T13:40:43Z</time>
      </trkpt>
      <trkpt lat="45.9924" lon="6.24809">
        <ele>642.2</ele>
        <time>2021-03-27T13:40:44Z</time>
      </trkpt>
      <trkpt lat="45.99229" lon="6.2481">
        <ele>642</ele>
        <time>2021-03-27T13:40:45Z</time>
      </trkpt>
      <trkpt lat="45.99219" lon="6.24812">
        <ele>641.4</ele>
        <time>2021-03-27T13:40:46Z</time>
      </trkpt>
      <trkpt lat="45.99209" lon="6.24813">
        <ele>640.4</ele>
        <time>2021-03-27T13:40:47Z</time>
      </trkpt>
      <trkpt lat="45.9919" lon="6.24816">
        <ele>639.2</ele>
        <time>2021-03-27T13:40:49Z</time>
      </trkpt>
      <trkpt lat="45.9918" lon="6.24818">
        <ele>638.8</ele>
        <time>2021-03-27T13:40:50Z</time>
      </trkpt>
      <trkpt lat="45.99171" lon="6.24819">
        <ele>638.6</ele>
        <time>2021-03-27T13:40:51Z</time>
      </trkpt>
      <trkpt lat="45.99162" lon="6.2482">
        <ele>638.2</ele>
        <time>2021-03-27T13:40:52Z</time>
      </trkpt>
      <trkpt lat="45.99154" lon="6.24822">
        <ele>637.4</ele>
        <time>2021-03-27T13:40:53Z</time>
      </trkpt>
      <trkpt lat="45.99145" lon="6.24824">
        <ele>637</ele>
        <time>2021-03-27T13:40:54Z</time>
      </trkpt>
      <trkpt lat="45.99138" lon="6.24825">
        <ele>636.8</ele>
        <time>2021-03-27T13:40:55Z</time>
      </trkpt>
      <trkpt lat="45.9913" lon="6.24826">
        <ele>636.8</ele>
        <time>2021-03-27T13:40:56Z</time>
      </trkpt>
      <trkpt lat="45.99124" lon="6.24828">
        <ele>636.8</ele>
        <time>2021-03-27T13:40:57Z</time>
      </trkpt>
      <trkpt lat="45.99118" lon="6.24829">
        <ele>636.6</ele>
        <time>2021-03-27T13:40:58Z</time>
      </trkpt>
      <trkpt lat="45.99112" lon="6.2483">
        <ele>636.6</ele>
        <time>2021-03-27T13:40:59Z</time>
      </trkpt>
      <trkpt lat="45.99105" lon="6.24832">
        <ele>636.6</ele>
        <time>2021-03-27T13:41:00Z</time>
      </trkpt>
      <trkpt lat="45.99099" lon="6.24833">
        <ele>636.6</ele>
        <time>2021-03-27T13:41:01Z</time>
      </trkpt>
      <trkpt lat="45.99094" lon="6.24833">
        <ele>636.8</ele>
        <time>2021-03-27T13:41:02Z</time>
      </trkpt>
      <trkpt lat="45.99088" lon="6.24834">
        <ele>637.2</ele>
        <time>2021-03-27T13:41:03Z</time>
      </trkpt>
      <trkpt lat="45.99083" lon="6.24835">
        <ele>637.8</ele>
        <time>2021-03-27T13:41:04Z</time>
      </trkpt>
      <trkpt lat="45.99079" lon="6.24836">
        <ele>638.2</ele>
        <time>2021-03-27T13:41:05Z</time>
      </trkpt>
      <trkpt lat="45.99074" lon="6.24837">
        <ele>639</ele>
        <time>2021-03-27T13:41:06Z</time>
      </trkpt>
      <trkpt lat="45.99069" lon="6.24838">
        <ele>639.6</ele>
        <time>2021-03-27T13:41:07Z</time>
      </trkpt>
      <trkpt lat="45.99065" lon="6.24838">
        <ele>640.2</ele>
        <time>2021-03-27T13:41:08Z</time>
      </trkpt>
      <trkpt lat="45.9906" lon="6.24839">
        <ele>640.8</ele>
        <time>2021-03-27T13:41:09Z</time>
      </trkpt>
      <trkpt lat="45.99056" lon="6.2484">
        <ele>641.4</ele>
        <time>2021-03-27T13:41:10Z</time>
      </trkpt>
      <trkpt lat="45.99051" lon="6.24841">
        <ele>641.8</ele>
        <time>2021-03-27T13:41:11Z</time>
      </trkpt>
      <trkpt lat="45.99047" lon="6.24842">
        <ele>642.2</ele>
        <time>2021-03-27T13:41:12Z</time>
      </trkpt>
      <trkpt lat="45.99042" lon="6.24843">
        <ele>642.6</ele>
        <time>2021-03-27T13:41:13Z</time>
      </trkpt>
      <trkpt lat="45.99038" lon="6.24843">
        <ele>642.8</ele>
        <time>2021-03-27T13:41:14Z</time>
      </trkpt>
      <trkpt lat="45.99034" lon="6.24844">
        <ele>643.2</ele>
        <time>2021-03-27T13:41:15Z</time>
      </trkpt>
      <trkpt lat="45.9903" lon="6.24845">
        <ele>643.8</ele>
        <time>2021-03-27T13:41:16Z</time>
      </trkpt>
      <trkpt lat="45.99026" lon="6.24846">
        <ele>644.2</ele>
        <time>2021-03-27T13:41:17Z</time>
      </trkpt>
      <trkpt lat="45.99022" lon="6.24847">
        <ele>644.4</ele>
        <time>2021-03-27T13:41:18Z</time>
      </trkpt>
      <trkpt lat="45.99018" lon="6.24848">
        <ele>644.6</ele>
        <time>2021-03-27T13:41:19Z</time>
      </trkpt>
      <trkpt lat="45.99014" lon="6.24849">
        <ele>645.2</ele>
        <time>2021-03-27T13:41:20Z</time>
      </trkpt>
      <trkpt lat="45.9901" lon="6.24849">
        <ele>645.4</ele>
        <time>2021-03-27T13:41:21Z</time>
      </trkpt>
      <trkpt lat="45.99006" lon="6.2485">
        <ele>645.6</ele>
        <time>2021-03-27T13:41:22Z</time>
      </trkpt>
      <trkpt lat="45.99003" lon="6.2485">
        <ele>645.8</ele>
        <time>2021-03-27T13:41:23Z</time>
      </trkpt>
      <trkpt lat="45.98999" lon="6.24851">
        <ele>646</ele>
        <time>2021-03-27T13:41:24Z</time>
      </trkpt>
      <trkpt lat="45.98995" lon="6.24851">
        <ele>646.4</ele>
        <time>2021-03-27T13:41:25Z</time>
      </trkpt>
      <trkpt lat="45.98992" lon="6.24852">
        <ele>647</ele>
        <time>2021-03-27T13:41:26Z</time>
      </trkpt>
      <trkpt lat="45.98988" lon="6.24852">
        <ele>647</ele>
        <time>2021-03-27T13:41:27Z</time>
      </trkpt>
      <trkpt lat="45.98985" lon="6.24853">
        <ele>647.4</ele>
        <time>2021-03-27T13:41:28Z</time>
      </trkpt>
      <trkpt lat="45.98981" lon="6.24854">
        <ele>647.6</ele>
        <time>2021-03-27T13:41:29Z</time>
      </trkpt>
      <trkpt lat="45.98978" lon="6.24854">
        <ele>647.8</ele>
        <time>2021-03-27T13:41:30Z</time>
      </trkpt>
      <trkpt lat="45.98974" lon="6.24855">
        <ele>648</ele>
        <time>2021-03-27T13:41:31Z</time>
      </trkpt>
      <trkpt lat="45.9897" lon="6.24855">
        <ele>648.2</ele>
        <time>2021-03-27T13:41:32Z</time>
      </trkpt>
      <trkpt lat="45.98965" lon="6.24855">
        <ele>648.4</ele>
        <time>2021-03-27T13:41:33Z</time>
      </trkpt>
      <trkpt lat="45.98961" lon="6.24855">
        <ele>648.6</ele>
        <time>2021-03-27T13:41:34Z</time>
      </trkpt>
      <trkpt lat="45.98955" lon="6.24855">
        <ele>648.8</ele>
        <time>2021-03-27T13:41:35Z</time>
      </trkpt>
      <trkpt lat="45.9895" lon="6.24854">
        <ele>648.8</ele>
        <time>2021-03-27T13:41:36Z</time>
      </trkpt>
      <trkpt lat="45.98946" lon="6.24853">
        <ele>649</ele>
        <time>2021-03-27T13:41:37Z</time>
      </trkpt>
      <trkpt lat="45.98941" lon="6.24852">
        <ele>649.2</ele>
        <time>2021-03-27T13:41:38Z</time>
      </trkpt>
      <trkpt lat="45.98937" lon="6.2485">
        <ele>649.6</ele>
        <time>2021-03-27T13:41:39Z</time>
      </trkpt>
      <trkpt lat="45.98933" lon="6.24847">
        <ele>649.8</ele>
        <time>2021-03-27T13:41:40Z</time>
      </trkpt>
      <trkpt lat="45.98929" lon="6.24844">
        <ele>649.8</ele>
        <time>2021-03-27T13:41:41Z</time>
      </trkpt>
      <trkpt lat="45.98925" lon="6.24841">
        <ele>650</ele>
        <time>2021-03-27T13:41:42Z</time>
      </trkpt>
      <trkpt lat="45.98921" lon="6.24837">
        <ele>650.2</ele>
        <time>2021-03-27T13:41:43Z</time>
      </trkpt>
      <trkpt lat="45.98918" lon="6.24833">
        <ele>650.4</ele>
        <time>2021-03-27T13:41:44Z</time>
      </trkpt>
      <trkpt lat="45.98915" lon="6.24829">
        <ele>650.4</ele>
        <time>2021-03-27T13:41:45Z</time>
      </trkpt>
      <trkpt lat="45.98913" lon="6.24824">
        <ele>650.6</ele>
        <time>2021-03-27T13:41:46Z</time>
      </trkpt>
      <trkpt lat="45.98911" lon="6.2482">
        <ele>650.8</ele>
        <time>2021-03-27T13:41:47Z</time>
      </trkpt>
      <trkpt lat="45.98909" lon="6.24815">
        <ele>650.6</ele>
        <time>2021-03-27T13:41:48Z</time>
      </trkpt>
      <trkpt lat="45.98907" lon="6.2481">
        <ele>650.8</ele>
        <time>2021-03-27T13:41:49Z</time>
      </trkpt>
      <trkpt lat="45.98906" lon="6.24805">
        <ele>650.8</ele>
        <time>2021-03-27T13:41:50Z</time>
      </trkpt>
      <trkpt lat="45.98905" lon="6.248">
        <ele>650.8</ele>
        <time>2021-03-27T13:41:51Z</time>
      </trkpt>
      <trkpt lat="45.98905" lon="6.24795">
        <ele>651.2</ele>
        <time>2021-03-27T13:41:52Z</time>
      </trkpt>
      <trkpt lat="45.98904" lon="6.2479">
        <ele>651.4</ele>
        <time>2021-03-27T13:41:53Z</time>
      </trkpt>
      <trkpt lat="45.98904" lon="6.24784">
        <ele>651.4</ele>
        <time>2021-03-27T13:41:54Z</time>
      </trkpt>
      <trkpt lat="45.98903" lon="6.24779">
        <ele>651.8</ele>
        <time>2021-03-27T13:41:55Z</time>
      </trkpt>
      <trkpt lat="45.98903" lon="6.24774">
        <ele>652.2</ele>
        <time>2021-03-27T13:41:56Z</time>
      </trkpt>
      <trkpt lat="45.98902" lon="6.24768">
        <ele>652.6</ele>
        <time>2021-03-27T13:41:57Z</time>
      </trkpt>
      <trkpt lat="45.98902" lon="6.24763">
        <ele>653</ele>
        <time>2021-03-27T13:41:58Z</time>
      </trkpt>
      <trkpt lat="45.98902" lon="6.24757">
        <ele>653.4</ele>
        <time>2021-03-27T13:41:59Z</time>
      </trkpt>
      <trkpt lat="45.98902" lon="6.24752">
        <ele>653.8</ele>
        <time>2021-03-27T13:42:00Z</time>
      </trkpt>
      <trkpt lat="45.98903" lon="6.24747">
        <ele>654.2</ele>
        <time>2021-03-27T13:42:01Z</time>
      </trkpt>
      <trkpt lat="45.98903" lon="6.24741">
        <ele>654.6</ele>
        <time>2021-03-27T13:42:02Z</time>
      </trkpt>
      <trkpt lat="45.98904" lon="6.24736">
        <ele>654.8</ele>
        <time>2021-03-27T13:42:03Z</time>
      </trkpt>
      <trkpt lat="45.98904" lon="6.2473">
        <ele>655</ele>
        <time>2021-03-27T13:42:04Z</time>
      </trkpt>
      <trkpt lat="45.98904" lon="6.24725">
        <ele>655.2</ele>
        <time>2021-03-27T13:42:05Z</time>
      </trkpt>
      <trkpt lat="45.98904" lon="6.24719">
        <ele>655.2</ele>
        <time>2021-03-27T13:42:06Z</time>
      </trkpt>
      <trkpt lat="45.98905" lon="6.24714">
        <ele>655.4</ele>
        <time>2021-03-27T13:42:07Z</time>
      </trkpt>
      <trkpt lat="45.98905" lon="6.24709">
        <ele>655.4</ele>
        <time>2021-03-27T13:42:08Z</time>
      </trkpt>
      <trkpt lat="45.98905" lon="6.24703">
        <ele>655.8</ele>
        <time>2021-03-27T13:42:09Z</time>
      </trkpt>
      <trkpt lat="45.98906" lon="6.24698">
        <ele>655.8</ele>
        <time>2021-03-27T13:42:10Z</time>
      </trkpt>
      <trkpt lat="45.98907" lon="6.24693">
        <ele>656</ele>
        <time>2021-03-27T13:42:11Z</time>
      </trkpt>
      <trkpt lat="45.98908" lon="6.24687">
        <ele>656.2</ele>
        <time>2021-03-27T13:42:12Z</time>
      </trkpt>
      <trkpt lat="45.98908" lon="6.24682">
        <ele>656.4</ele>
        <time>2021-03-27T13:42:13Z</time>
      </trkpt>
      <trkpt lat="45.98909" lon="6.24677">
        <ele>656.8</ele>
        <time>2021-03-27T13:42:14Z</time>
      </trkpt>
      <trkpt lat="45.98908" lon="6.24672">
        <ele>657</ele>
        <time>2021-03-27T13:42:15Z</time>
      </trkpt>
      <trkpt lat="45.98908" lon="6.24667">
        <ele>657.2</ele>
        <time>2021-03-27T13:42:16Z</time>
      </trkpt>
      <trkpt lat="45.98909" lon="6.24661">
        <ele>657.4</ele>
        <time>2021-03-27T13:42:17Z</time>
      </trkpt>
      <trkpt lat="45.98908" lon="6.24656">
        <ele>657.8</ele>
        <time>2021-03-27T13:42:18Z</time>
      </trkpt>
      <trkpt lat="45.98908" lon="6.24651">
        <ele>657.8</ele>
        <time>2021-03-27T13:42:19Z</time>
      </trkpt>
      <trkpt lat="45.98909" lon="6.24645">
        <ele>658.2</ele>
        <time>2021-03-27T13:42:20Z</time>
      </trkpt>
      <trkpt lat="45.98909" lon="6.2464">
        <ele>658.4</ele>
        <time>2021-03-27T13:42:21Z</time>
      </trkpt>
      <trkpt lat="45.98908" lon="6.24635">
        <ele>658.6</ele>
        <time>2021-03-27T13:42:22Z</time>
      </trkpt>
      <trkpt lat="45.98908" lon="6.24629">
        <ele>659</ele>
        <time>2021-03-27T13:42:23Z</time>
      </trkpt>
      <trkpt lat="45.98908" lon="6.24624">
        <ele>659.4</ele>
        <time>2021-03-27T13:42:24Z</time>
      </trkpt>
      <trkpt lat="45.98908" lon="6.24619">
        <ele>659.6</ele>
        <time>2021-03-27T13:42:25Z</time>
      </trkpt>
      <trkpt lat="45.98908" lon="6.24613">
        <ele>660</ele>
        <time>2021-03-27T13:42:26Z</time>
      </trkpt>
      <trkpt lat="45.98907" lon="6.24608">
        <ele>660.2</ele>
        <time>2021-03-27T13:42:27Z</time>
      </trkpt>
      <trkpt lat="45.98907" lon="6.24603">
        <ele>660.6</ele>
        <time>2021-03-27T13:42:28Z</time>
      </trkpt>
      <trkpt lat="45.98907" lon="6.24597">
        <ele>660.6</ele>
        <time>2021-03-27T13:42:29Z</time>
      </trkpt>
      <trkpt lat="45.98907" lon="6.24592">
        <ele>661</ele>
        <time>2021-03-27T13:42:30Z</time>
      </trkpt>
      <trkpt lat="45.98906" lon="6.24587">
        <ele>661</ele>
        <time>2021-03-27T13:42:31Z</time>
      </trkpt>
      <trkpt lat="45.98905" lon="6.24582">
        <ele>661.2</ele>
        <time>2021-03-27T13:42:32Z</time>
      </trkpt>
      <trkpt lat="45.98904" lon="6.24577">
        <ele>661.4</ele>
        <time>2021-03-27T13:42:33Z</time>
      </trkpt>
      <trkpt lat="45.98903" lon="6.24572">
        <ele>661.6</ele>
        <time>2021-03-27T13:42:34Z</time>
      </trkpt>
      <trkpt lat="45.98901" lon="6.24567">
        <ele>662</ele>
        <time>2021-03-27T13:42:35Z</time>
      </trkpt>
      <trkpt lat="45.989" lon="6.24562">
        <ele>662.2</ele>
        <time>2021-03-27T13:42:36Z</time>
      </trkpt>
      <trkpt lat="45.98898" lon="6.24557">
        <ele>662.4</ele>
        <time>2021-03-27T13:42:37Z</time>
      </trkpt>
      <trkpt lat="45.98897" lon="6.24551">
        <ele>662.6</ele>
        <time>2021-03-27T13:42:38Z</time>
      </trkpt>
      <trkpt lat="45.98895" lon="6.24546">
        <ele>662.8</ele>
        <time>2021-03-27T13:42:39Z</time>
      </trkpt>
      <trkpt lat="45.98894" lon="6.2454">
        <ele>663.2</ele>
        <time>2021-03-27T13:42:40Z</time>
      </trkpt>
      <trkpt lat="45.98893" lon="6.24534">
        <ele>663.4</ele>
        <time>2021-03-27T13:42:41Z</time>
      </trkpt>
      <trkpt lat="45.98891" lon="6.24529">
        <ele>663.6</ele>
        <time>2021-03-27T13:42:42Z</time>
      </trkpt>
      <trkpt lat="45.98891" lon="6.24524">
        <ele>663.8</ele>
        <time>2021-03-27T13:42:43Z</time>
      </trkpt>
      <trkpt lat="45.9889" lon="6.24519">
        <ele>663.8</ele>
        <time>2021-03-27T13:42:44Z</time>
      </trkpt>
      <trkpt lat="45.9889" lon="6.24514">
        <ele>664</ele>
        <time>2021-03-27T13:42:45Z</time>
      </trkpt>
      <trkpt lat="45.98889" lon="6.2451">
        <ele>664</ele>
        <time>2021-03-27T13:42:46Z</time>
      </trkpt>
      <trkpt lat="45.98888" lon="6.24505">
        <ele>664</ele>
        <time>2021-03-27T13:42:47Z</time>
      </trkpt>
      <trkpt lat="45.98886" lon="6.24501">
        <ele>664.4</ele>
        <time>2021-03-27T13:42:48Z</time>
      </trkpt>
      <trkpt lat="45.98885" lon="6.24496">
        <ele>664.4</ele>
        <time>2021-03-27T13:42:49Z</time>
      </trkpt>
      <trkpt lat="45.98883" lon="6.24491">
        <ele>664.6</ele>
        <time>2021-03-27T13:42:50Z</time>
      </trkpt>
      <trkpt lat="45.98882" lon="6.24486">
        <ele>664.6</ele>
        <time>2021-03-27T13:42:51Z</time>
      </trkpt>
      <trkpt lat="45.9888" lon="6.24482">
        <ele>664.8</ele>
        <time>2021-03-27T13:42:52Z</time>
      </trkpt>
      <trkpt lat="45.98879" lon="6.24477">
        <ele>664.8</ele>
        <time>2021-03-27T13:42:53Z</time>
      </trkpt>
      <trkpt lat="45.98877" lon="6.24472">
        <ele>665.2</ele>
        <time>2021-03-27T13:42:54Z</time>
      </trkpt>
      <trkpt lat="45.98876" lon="6.24467">
        <ele>665.4</ele>
        <time>2021-03-27T13:42:55Z</time>
      </trkpt>
      <trkpt lat="45.98874" lon="6.24462">
        <ele>665.8</ele>
        <time>2021-03-27T13:42:56Z</time>
      </trkpt>
      <trkpt lat="45.98872" lon="6.24457">
        <ele>665.8</ele>
        <time>2021-03-27T13:42:57Z</time>
      </trkpt>
      <trkpt lat="45.98871" lon="6.24452">
        <ele>666.2</ele>
        <time>2021-03-27T13:42:58Z</time>
      </trkpt>
      <trkpt lat="45.98869" lon="6.24447">
        <ele>666.4</ele>
        <time>2021-03-27T13:42:59Z</time>
      </trkpt>
      <trkpt lat="45.98867" lon="6.24443">
        <ele>666.4</ele>
        <time>2021-03-27T13:43:00Z</time>
      </trkpt>
      <trkpt lat="45.98865" lon="6.24438">
        <ele>666.8</ele>
        <time>2021-03-27T13:43:01Z</time>
      </trkpt>
      <trkpt lat="45.98863" lon="6.24433">
        <ele>666.8</ele>
        <time>2021-03-27T13:43:02Z</time>
      </trkpt>
      <trkpt lat="45.98861" lon="6.24428">
        <ele>667</ele>
        <time>2021-03-27T13:43:03Z</time>
      </trkpt>
      <trkpt lat="45.9886" lon="6.24424">
        <ele>667.2</ele>
        <time>2021-03-27T13:43:04Z</time>
      </trkpt>
      <trkpt lat="45.98859" lon="6.24419">
        <ele>667.2</ele>
        <time>2021-03-27T13:43:05Z</time>
      </trkpt>
      <trkpt lat="45.98859" lon="6.24415">
        <ele>667.4</ele>
        <time>2021-03-27T13:43:06Z</time>
      </trkpt>
      <trkpt lat="45.98859" lon="6.2441">
        <ele>667.4</ele>
        <time>2021-03-27T13:43:07Z</time>
      </trkpt>
      <trkpt lat="45.98857" lon="6.24406">
        <ele>667.8</ele>
        <time>2021-03-27T13:43:08Z</time>
      </trkpt>
      <trkpt lat="45.98856" lon="6.24401">
        <ele>668</ele>
        <time>2021-03-27T13:43:09Z</time>
      </trkpt>
      <trkpt lat="45.98856" lon="6.24396">
        <ele>668.2</ele>
        <time>2021-03-27T13:43:10Z</time>
      </trkpt>
      <trkpt lat="45.98856" lon="6.24392">
        <ele>668.4</ele>
        <time>2021-03-27T13:43:11Z</time>
      </trkpt>
      <trkpt lat="45.98855" lon="6.24387">
        <ele>668.4</ele>
        <time>2021-03-27T13:43:12Z</time>
      </trkpt>
      <trkpt lat="45.98855" lon="6.24382">
        <ele>668.6</ele>
        <time>2021-03-27T13:43:13Z</time>
      </trkpt>
      <trkpt lat="45.98854" lon="6.24377">
        <ele>669</ele>
        <time>2021-03-27T13:43:14Z</time>
      </trkpt>
      <trkpt lat="45.98854" lon="6.24372">
        <ele>669</ele>
        <time>2021-03-27T13:43:15Z</time>
      </trkpt>
      <trkpt lat="45.98852" lon="6.24366">
        <ele>669</ele>
        <time>2021-03-27T13:43:16Z</time>
      </trkpt>
      <trkpt lat="45.98852" lon="6.24361">
        <ele>669.4</ele>
        <time>2021-03-27T13:43:17Z</time>
      </trkpt>
      <trkpt lat="45.98851" lon="6.24355">
        <ele>669.4</ele>
        <time>2021-03-27T13:43:18Z</time>
      </trkpt>
      <trkpt lat="45.9885" lon="6.2435">
        <ele>669.6</ele>
        <time>2021-03-27T13:43:19Z</time>
      </trkpt>
      <trkpt lat="45.9885" lon="6.24344">
        <ele>669.8</ele>
        <time>2021-03-27T13:43:20Z</time>
      </trkpt>
      <trkpt lat="45.9885" lon="6.24338">
        <ele>670</ele>
        <time>2021-03-27T13:43:21Z</time>
      </trkpt>
      <trkpt lat="45.9885" lon="6.24332">
        <ele>670.2</ele>
        <time>2021-03-27T13:43:22Z</time>
      </trkpt>
      <trkpt lat="45.9885" lon="6.24327">
        <ele>670.2</ele>
        <time>2021-03-27T13:43:23Z</time>
      </trkpt>
      <trkpt lat="45.9885" lon="6.24321">
        <ele>670.2</ele>
        <time>2021-03-27T13:43:24Z</time>
      </trkpt>
      <trkpt lat="45.9885" lon="6.24316">
        <ele>670.6</ele>
        <time>2021-03-27T13:43:25Z</time>
      </trkpt>
      <trkpt lat="45.9885" lon="6.2431">
        <ele>670.8</ele>
        <time>2021-03-27T13:43:26Z</time>
      </trkpt>
      <trkpt lat="45.98851" lon="6.24305">
        <ele>671.2</ele>
        <time>2021-03-27T13:43:27Z</time>
      </trkpt>
      <trkpt lat="45.98851" lon="6.243">
        <ele>671.6</ele>
        <time>2021-03-27T13:43:28Z</time>
      </trkpt>
      <trkpt lat="45.98851" lon="6.24295">
        <ele>671.8</ele>
        <time>2021-03-27T13:43:29Z</time>
      </trkpt>
      <trkpt lat="45.98851" lon="6.2429">
        <ele>672</ele>
        <time>2021-03-27T13:43:30Z</time>
      </trkpt>
      <trkpt lat="45.98851" lon="6.24285">
        <ele>672.4</ele>
        <time>2021-03-27T13:43:31Z</time>
      </trkpt>
      <trkpt lat="45.98852" lon="6.2428">
        <ele>672.8</ele>
        <time>2021-03-27T13:43:32Z</time>
      </trkpt>
      <trkpt lat="45.98853" lon="6.24275">
        <ele>673.2</ele>
        <time>2021-03-27T13:43:33Z</time>
      </trkpt>
      <trkpt lat="45.98853" lon="6.2427">
        <ele>673.4</ele>
        <time>2021-03-27T13:43:34Z</time>
      </trkpt>
      <trkpt lat="45.98853" lon="6.24265">
        <ele>673.6</ele>
        <time>2021-03-27T13:43:35Z</time>
      </trkpt>
      <trkpt lat="45.98854" lon="6.2426">
        <ele>674</ele>
        <time>2021-03-27T13:43:36Z</time>
      </trkpt>
      <trkpt lat="45.98854" lon="6.24255">
        <ele>674.2</ele>
        <time>2021-03-27T13:43:37Z</time>
      </trkpt>
      <trkpt lat="45.98854" lon="6.2425">
        <ele>674.2</ele>
        <time>2021-03-27T13:43:38Z</time>
      </trkpt>
      <trkpt lat="45.98853" lon="6.24245">
        <ele>674.6</ele>
        <time>2021-03-27T13:43:39Z</time>
      </trkpt>
      <trkpt lat="45.98853" lon="6.2424">
        <ele>674.8</ele>
        <time>2021-03-27T13:43:40Z</time>
      </trkpt>
      <trkpt lat="45.98852" lon="6.24234">
        <ele>675</ele>
        <time>2021-03-27T13:43:41Z</time>
      </trkpt>
      <trkpt lat="45.98851" lon="6.24229">
        <ele>675.2</ele>
        <time>2021-03-27T13:43:42Z</time>
      </trkpt>
      <trkpt lat="45.98851" lon="6.24224">
        <ele>675.4</ele>
        <time>2021-03-27T13:43:43Z</time>
      </trkpt>
      <trkpt lat="45.9885" lon="6.2422">
        <ele>675.6</ele>
        <time>2021-03-27T13:43:44Z</time>
      </trkpt>
      <trkpt lat="45.98849" lon="6.24215">
        <ele>675.8</ele>
        <time>2021-03-27T13:43:45Z</time>
      </trkpt>
      <trkpt lat="45.98848" lon="6.2421">
        <ele>675.8</ele>
        <time>2021-03-27T13:43:46Z</time>
      </trkpt>
      <trkpt lat="45.98848" lon="6.24205">
        <ele>676.4</ele>
        <time>2021-03-27T13:43:47Z</time>
      </trkpt>
      <trkpt lat="45.98847" lon="6.242">
        <ele>676.4</ele>
        <time>2021-03-27T13:43:48Z</time>
      </trkpt>
      <trkpt lat="45.98846" lon="6.24195">
        <ele>676.6</ele>
        <time>2021-03-27T13:43:49Z</time>
      </trkpt>
      <trkpt lat="45.98845" lon="6.24191">
        <ele>677</ele>
        <time>2021-03-27T13:43:50Z</time>
      </trkpt>
      <trkpt lat="45.98845" lon="6.24186">
        <ele>677</ele>
        <time>2021-03-27T13:43:51Z</time>
      </trkpt>
      <trkpt lat="45.98844" lon="6.24181">
        <ele>677.2</ele>
        <time>2021-03-27T13:43:52Z</time>
      </trkpt>
      <trkpt lat="45.98843" lon="6.24176">
        <ele>677.4</ele>
        <time>2021-03-27T13:43:53Z</time>
      </trkpt>
      <trkpt lat="45.98842" lon="6.24172">
        <ele>677.4</ele>
        <time>2021-03-27T13:43:54Z</time>
      </trkpt>
      <trkpt lat="45.98841" lon="6.24167">
        <ele>677.6</ele>
        <time>2021-03-27T13:43:55Z</time>
      </trkpt>
      <trkpt lat="45.98841" lon="6.24162">
        <ele>677.6</ele>
        <time>2021-03-27T13:43:56Z</time>
      </trkpt>
      <trkpt lat="45.9884" lon="6.24157">
        <ele>677.6</ele>
        <time>2021-03-27T13:43:57Z</time>
      </trkpt>
      <trkpt lat="45.98839" lon="6.24152">
        <ele>678</ele>
        <time>2021-03-27T13:43:58Z</time>
      </trkpt>
      <trkpt lat="45.98838" lon="6.24148">
        <ele>678</ele>
        <time>2021-03-27T13:43:59Z</time>
      </trkpt>
      <trkpt lat="45.98838" lon="6.24143">
        <ele>678.2</ele>
        <time>2021-03-27T13:44:00Z</time>
      </trkpt>
      <trkpt lat="45.98837" lon="6.24139">
        <ele>678.6</ele>
        <time>2021-03-27T13:44:01Z</time>
      </trkpt>
      <trkpt lat="45.98837" lon="6.24134">
        <ele>679</ele>
        <time>2021-03-27T13:44:02Z</time>
      </trkpt>
      <trkpt lat="45.98836" lon="6.24129">
        <ele>679.6</ele>
        <time>2021-03-27T13:44:03Z</time>
      </trkpt>
      <trkpt lat="45.98835" lon="6.24124">
        <ele>679.8</ele>
        <time>2021-03-27T13:44:04Z</time>
      </trkpt>
      <trkpt lat="45.98835" lon="6.2412">
        <ele>680.2</ele>
        <time>2021-03-27T13:44:05Z</time>
      </trkpt>
      <trkpt lat="45.98834" lon="6.24115">
        <ele>680.4</ele>
        <time>2021-03-27T13:44:06Z</time>
      </trkpt>
      <trkpt lat="45.98833" lon="6.2411">
        <ele>680.8</ele>
        <time>2021-03-27T13:44:07Z</time>
      </trkpt>
      <trkpt lat="45.98832" lon="6.24106">
        <ele>681.2</ele>
        <time>2021-03-27T13:44:08Z</time>
      </trkpt>
      <trkpt lat="45.98832" lon="6.24101">
        <ele>681.4</ele>
        <time>2021-03-27T13:44:09Z</time>
      </trkpt>
      <trkpt lat="45.98831" lon="6.24097">
        <ele>681.6</ele>
        <time>2021-03-27T13:44:10Z</time>
      </trkpt>
      <trkpt lat="45.9883" lon="6.24092">
        <ele>682</ele>
        <time>2021-03-27T13:44:11Z</time>
      </trkpt>
      <trkpt lat="45.9883" lon="6.24088">
        <ele>682.2</ele>
        <time>2021-03-27T13:44:12Z</time>
      </trkpt>
      <trkpt lat="45.98829" lon="6.24083">
        <ele>682.6</ele>
        <time>2021-03-27T13:44:13Z</time>
      </trkpt>
      <trkpt lat="45.98828" lon="6.24078">
        <ele>682.6</ele>
        <time>2021-03-27T13:44:14Z</time>
      </trkpt>
      <trkpt lat="45.98828" lon="6.24074">
        <ele>683</ele>
        <time>2021-03-27T13:44:15Z</time>
      </trkpt>
      <trkpt lat="45.98827" lon="6.24069">
        <ele>683</ele>
        <time>2021-03-27T13:44:16Z</time>
      </trkpt>
      <trkpt lat="45.98826" lon="6.24065">
        <ele>683.2</ele>
        <time>2021-03-27T13:44:17Z</time>
      </trkpt>
      <trkpt lat="45.98826" lon="6.2406">
        <ele>683.4</ele>
        <time>2021-03-27T13:44:18Z</time>
      </trkpt>
      <trkpt lat="45.98825" lon="6.24055">
        <ele>683.4</ele>
        <time>2021-03-27T13:44:19Z</time>
      </trkpt>
      <trkpt lat="45.98825" lon="6.24051">
        <ele>683.6</ele>
        <time>2021-03-27T13:44:20Z</time>
      </trkpt>
      <trkpt lat="45.98824" lon="6.24046">
        <ele>684</ele>
        <time>2021-03-27T13:44:21Z</time>
      </trkpt>
      <trkpt lat="45.98823" lon="6.24041">
        <ele>684.2</ele>
        <time>2021-03-27T13:44:22Z</time>
      </trkpt>
      <trkpt lat="45.98823" lon="6.24037">
        <ele>684.6</ele>
        <time>2021-03-27T13:44:23Z</time>
      </trkpt>
      <trkpt lat="45.98822" lon="6.24032">
        <ele>684.6</ele>
        <time>2021-03-27T13:44:24Z</time>
      </trkpt>
      <trkpt lat="45.98821" lon="6.24027">
        <ele>685</ele>
        <time>2021-03-27T13:44:25Z</time>
      </trkpt>
      <trkpt lat="45.98821" lon="6.24023">
        <ele>685.2</ele>
        <time>2021-03-27T13:44:26Z</time>
      </trkpt>
      <trkpt lat="45.9882" lon="6.24018">
        <ele>685.4</ele>
        <time>2021-03-27T13:44:27Z</time>
      </trkpt>
      <trkpt lat="45.98819" lon="6.24014">
        <ele>685.6</ele>
        <time>2021-03-27T13:44:28Z</time>
      </trkpt>
      <trkpt lat="45.98818" lon="6.24009">
        <ele>686</ele>
        <time>2021-03-27T13:44:29Z</time>
      </trkpt>
      <trkpt lat="45.98817" lon="6.24005">
        <ele>686.2</ele>
        <time>2021-03-27T13:44:30Z</time>
      </trkpt>
      <trkpt lat="45.98816" lon="6.24">
        <ele>686.8</ele>
        <time>2021-03-27T13:44:31Z</time>
      </trkpt>
      <trkpt lat="45.98815" lon="6.23996">
        <ele>687.2</ele>
        <time>2021-03-27T13:44:32Z</time>
      </trkpt>
      <trkpt lat="45.98815" lon="6.23991">
        <ele>687.4</ele>
        <time>2021-03-27T13:44:33Z</time>
      </trkpt>
      <trkpt lat="45.98814" lon="6.23987">
        <ele>687.6</ele>
        <time>2021-03-27T13:44:34Z</time>
      </trkpt>
      <trkpt lat="45.98813" lon="6.23982">
        <ele>687.6</ele>
        <time>2021-03-27T13:44:35Z</time>
      </trkpt>
      <trkpt lat="45.98812" lon="6.23978">
        <ele>687.8</ele>
        <time>2021-03-27T13:44:36Z</time>
      </trkpt>
      <trkpt lat="45.9881" lon="6.23974">
        <ele>688.2</ele>
        <time>2021-03-27T13:44:37Z</time>
      </trkpt>
      <trkpt lat="45.98809" lon="6.23969">
        <ele>688.4</ele>
        <time>2021-03-27T13:44:38Z</time>
      </trkpt>
      <trkpt lat="45.98808" lon="6.23965">
        <ele>688.6</ele>
        <time>2021-03-27T13:44:39Z</time>
      </trkpt>
      <trkpt lat="45.98806" lon="6.23961">
        <ele>688.6</ele>
        <time>2021-03-27T13:44:40Z</time>
      </trkpt>
      <trkpt lat="45.98804" lon="6.23957">
        <ele>689</ele>
        <time>2021-03-27T13:44:41Z</time>
      </trkpt>
      <trkpt lat="45.98802" lon="6.23953">
        <ele>689.2</ele>
        <time>2021-03-27T13:44:42Z</time>
      </trkpt>
      <trkpt lat="45.988" lon="6.2395">
        <ele>689.4</ele>
        <time>2021-03-27T13:44:43Z</time>
      </trkpt>
      <trkpt lat="45.98797" lon="6.23946">
        <ele>689.4</ele>
        <time>2021-03-27T13:44:44Z</time>
      </trkpt>
      <trkpt lat="45.98795" lon="6.23943">
        <ele>689.6</ele>
        <time>2021-03-27T13:44:45Z</time>
      </trkpt>
      <trkpt lat="45.98793" lon="6.23939">
        <ele>690</ele>
        <time>2021-03-27T13:44:46Z</time>
      </trkpt>
      <trkpt lat="45.9879" lon="6.23936">
        <ele>690.2</ele>
        <time>2021-03-27T13:44:47Z</time>
      </trkpt>
      <trkpt lat="45.98788" lon="6.23933">
        <ele>690.2</ele>
        <time>2021-03-27T13:44:48Z</time>
      </trkpt>
      <trkpt lat="45.98786" lon="6.2393">
        <ele>690.4</ele>
        <time>2021-03-27T13:44:49Z</time>
      </trkpt>
      <trkpt lat="45.98784" lon="6.23926">
        <ele>691</ele>
        <time>2021-03-27T13:44:50Z</time>
      </trkpt>
      <trkpt lat="45.98782" lon="6.23923">
        <ele>691.2</ele>
        <time>2021-03-27T13:44:51Z</time>
      </trkpt>
      <trkpt lat="45.9878" lon="6.2392">
        <ele>691.6</ele>
        <time>2021-03-27T13:44:52Z</time>
      </trkpt>
      <trkpt lat="45.98778" lon="6.23917">
        <ele>691.8</ele>
        <time>2021-03-27T13:44:53Z</time>
      </trkpt>
      <trkpt lat="45.98776" lon="6.23913">
        <ele>691.8</ele>
        <time>2021-03-27T13:44:54Z</time>
      </trkpt>
      <trkpt lat="45.98774" lon="6.2391">
        <ele>692</ele>
        <time>2021-03-27T13:44:55Z</time>
      </trkpt>
      <trkpt lat="45.98772" lon="6.23907">
        <ele>692</ele>
        <time>2021-03-27T13:44:56Z</time>
      </trkpt>
      <trkpt lat="45.98771" lon="6.23903">
        <ele>692</ele>
        <time>2021-03-27T13:44:57Z</time>
      </trkpt>
      <trkpt lat="45.9877" lon="6.23899">
        <ele>692.2</ele>
        <time>2021-03-27T13:44:58Z</time>
      </trkpt>
      <trkpt lat="45.98769" lon="6.23895">
        <ele>692.4</ele>
        <time>2021-03-27T13:44:59Z</time>
      </trkpt>
      <trkpt lat="45.98768" lon="6.2389">
        <ele>692.4</ele>
        <time>2021-03-27T13:45:00Z</time>
      </trkpt>
      <trkpt lat="45.98767" lon="6.23886">
        <ele>692.4</ele>
        <time>2021-03-27T13:45:01Z</time>
      </trkpt>
      <trkpt lat="45.98768" lon="6.23882">
        <ele>692.8</ele>
        <time>2021-03-27T13:45:02Z</time>
      </trkpt>
      <trkpt lat="45.98768" lon="6.23877">
        <ele>693</ele>
        <time>2021-03-27T13:45:03Z</time>
      </trkpt>
      <trkpt lat="45.98769" lon="6.23872">
        <ele>693.4</ele>
        <time>2021-03-27T13:45:04Z</time>
      </trkpt>
      <trkpt lat="45.9877" lon="6.23868">
        <ele>693.8</ele>
        <time>2021-03-27T13:45:05Z</time>
      </trkpt>
      <trkpt lat="45.98771" lon="6.23864">
        <ele>694.4</ele>
        <time>2021-03-27T13:45:06Z</time>
      </trkpt>
      <trkpt lat="45.98773" lon="6.2386">
        <ele>694.8</ele>
        <time>2021-03-27T13:45:07Z</time>
      </trkpt>
      <trkpt lat="45.98774" lon="6.23856">
        <ele>695.2</ele>
        <time>2021-03-27T13:45:08Z</time>
      </trkpt>
      <trkpt lat="45.98776" lon="6.23852">
        <ele>695.2</ele>
        <time>2021-03-27T13:45:09Z</time>
      </trkpt>
      <trkpt lat="45.98778" lon="6.23848">
        <ele>695.4</ele>
        <time>2021-03-27T13:45:10Z</time>
      </trkpt>
      <trkpt lat="45.98779" lon="6.23844">
        <ele>695.6</ele>
        <time>2021-03-27T13:45:11Z</time>
      </trkpt>
      <trkpt lat="45.98781" lon="6.23841">
        <ele>696</ele>
        <time>2021-03-27T13:45:12Z</time>
      </trkpt>
      <trkpt lat="45.98782" lon="6.23837">
        <ele>696.2</ele>
        <time>2021-03-27T13:45:13Z</time>
      </trkpt>
      <trkpt lat="45.98783" lon="6.23832">
        <ele>696.4</ele>
        <time>2021-03-27T13:45:14Z</time>
      </trkpt>
      <trkpt lat="45.98784" lon="6.23828">
        <ele>696.8</ele>
        <time>2021-03-27T13:45:15Z</time>
      </trkpt>
      <trkpt lat="45.98785" lon="6.23823">
        <ele>697.2</ele>
        <time>2021-03-27T13:45:16Z</time>
      </trkpt>
      <trkpt lat="45.98785" lon="6.23819">
        <ele>697.4</ele>
        <time>2021-03-27T13:45:17Z</time>
      </trkpt>
      <trkpt lat="45.98786" lon="6.23814">
        <ele>697.8</ele>
        <time>2021-03-27T13:45:18Z</time>
      </trkpt>
      <trkpt lat="45.98786" lon="6.23809">
        <ele>698.2</ele>
        <time>2021-03-27T13:45:19Z</time>
      </trkpt>
      <trkpt lat="45.98786" lon="6.23804">
        <ele>698.4</ele>
        <time>2021-03-27T13:45:20Z</time>
      </trkpt>
      <trkpt lat="45.98785" lon="6.23799">
        <ele>698.6</ele>
        <time>2021-03-27T13:45:21Z</time>
      </trkpt>
      <trkpt lat="45.98785" lon="6.23795">
        <ele>698.8</ele>
        <time>2021-03-27T13:45:22Z</time>
      </trkpt>
      <trkpt lat="45.98784" lon="6.2379">
        <ele>699.2</ele>
        <time>2021-03-27T13:45:23Z</time>
      </trkpt>
      <trkpt lat="45.98784" lon="6.23785">
        <ele>699.2</ele>
        <time>2021-03-27T13:45:24Z</time>
      </trkpt>
      <trkpt lat="45.98783" lon="6.23781">
        <ele>699.2</ele>
        <time>2021-03-27T13:45:25Z</time>
      </trkpt>
      <trkpt lat="45.98782" lon="6.23777">
        <ele>699.4</ele>
        <time>2021-03-27T13:45:26Z</time>
      </trkpt>
      <trkpt lat="45.9878" lon="6.23773">
        <ele>699.8</ele>
        <time>2021-03-27T13:45:27Z</time>
      </trkpt>
      <trkpt lat="45.98778" lon="6.23769">
        <ele>700</ele>
        <time>2021-03-27T13:45:28Z</time>
      </trkpt>
      <trkpt lat="45.98777" lon="6.23766">
        <ele>700.4</ele>
        <time>2021-03-27T13:45:29Z</time>
      </trkpt>
      <trkpt lat="45.98775" lon="6.23763">
        <ele>700.4</ele>
        <time>2021-03-27T13:45:30Z</time>
      </trkpt>
      <trkpt lat="45.98773" lon="6.2376">
        <ele>700.6</ele>
        <time>2021-03-27T13:45:31Z</time>
      </trkpt>
      <trkpt lat="45.9877" lon="6.23757">
        <ele>701</ele>
        <time>2021-03-27T13:45:32Z</time>
      </trkpt>
      <trkpt lat="45.98768" lon="6.23754">
        <ele>701.2</ele>
        <time>2021-03-27T13:45:33Z</time>
      </trkpt>
      <trkpt lat="45.98766" lon="6.23751">
        <ele>701.2</ele>
        <time>2021-03-27T13:45:34Z</time>
      </trkpt>
      <trkpt lat="45.98763" lon="6.23748">
        <ele>701.2</ele>
        <time>2021-03-27T13:45:35Z</time>
      </trkpt>
      <trkpt lat="45.98761" lon="6.23745">
        <ele>701.4</ele>
        <time>2021-03-27T13:45:36Z</time>
      </trkpt>
      <trkpt lat="45.98758" lon="6.23743">
        <ele>701.4</ele>
        <time>2021-03-27T13:45:37Z</time>
      </trkpt>
      <trkpt lat="45.98756" lon="6.2374">
        <ele>701.6</ele>
        <time>2021-03-27T13:45:38Z</time>
      </trkpt>
      <trkpt lat="45.98754" lon="6.23737">
        <ele>701.4</ele>
        <time>2021-03-27T13:45:39Z</time>
      </trkpt>
      <trkpt lat="45.98751" lon="6.23735">
        <ele>701.6</ele>
        <time>2021-03-27T13:45:40Z</time>
      </trkpt>
      <trkpt lat="45.98749" lon="6.23732">
        <ele>701.6</ele>
        <time>2021-03-27T13:45:41Z</time>
      </trkpt>
      <trkpt lat="45.98747" lon="6.23729">
        <ele>702</ele>
        <time>2021-03-27T13:45:42Z</time>
      </trkpt>
      <trkpt lat="45.98744" lon="6.23725">
        <ele>702.2</ele>
        <time>2021-03-27T13:45:43Z</time>
      </trkpt>
      <trkpt lat="45.98742" lon="6.23723">
        <ele>702.6</ele>
        <time>2021-03-27T13:45:44Z</time>
      </trkpt>
      <trkpt lat="45.9874" lon="6.2372">
        <ele>703</ele>
        <time>2021-03-27T13:45:45Z</time>
      </trkpt>
      <trkpt lat="45.98738" lon="6.23717">
        <ele>703.2</ele>
        <time>2021-03-27T13:45:46Z</time>
      </trkpt>
      <trkpt lat="45.98736" lon="6.23714">
        <ele>703.6</ele>
        <time>2021-03-27T13:45:47Z</time>
      </trkpt>
      <trkpt lat="45.98734" lon="6.23711">
        <ele>703.6</ele>
        <time>2021-03-27T13:45:48Z</time>
      </trkpt>
      <trkpt lat="45.98732" lon="6.23708">
        <ele>704</ele>
        <time>2021-03-27T13:45:49Z</time>
      </trkpt>
      <trkpt lat="45.98731" lon="6.23704">
        <ele>704.2</ele>
        <time>2021-03-27T13:45:50Z</time>
      </trkpt>
      <trkpt lat="45.98729" lon="6.237">
        <ele>704.6</ele>
        <time>2021-03-27T13:45:51Z</time>
      </trkpt>
      <trkpt lat="45.98728" lon="6.23697">
        <ele>704.8</ele>
        <time>2021-03-27T13:45:52Z</time>
      </trkpt>
      <trkpt lat="45.98726" lon="6.23692">
        <ele>705</ele>
        <time>2021-03-27T13:45:53Z</time>
      </trkpt>
      <trkpt lat="45.98725" lon="6.23688">
        <ele>705.2</ele>
        <time>2021-03-27T13:45:54Z</time>
      </trkpt>
      <trkpt lat="45.98724" lon="6.23683">
        <ele>705.6</ele>
        <time>2021-03-27T13:45:55Z</time>
      </trkpt>
      <trkpt lat="45.98723" lon="6.23679">
        <ele>705.8</ele>
        <time>2021-03-27T13:45:56Z</time>
      </trkpt>
      <trkpt lat="45.98721" lon="6.23674">
        <ele>706</ele>
        <time>2021-03-27T13:45:57Z</time>
      </trkpt>
      <trkpt lat="45.9872" lon="6.23669">
        <ele>706.2</ele>
        <time>2021-03-27T13:45:58Z</time>
      </trkpt>
      <trkpt lat="45.98719" lon="6.23664">
        <ele>706.6</ele>
        <time>2021-03-27T13:45:59Z</time>
      </trkpt>
      <trkpt lat="45.98718" lon="6.23659">
        <ele>706.6</ele>
        <time>2021-03-27T13:46:00Z</time>
      </trkpt>
      <trkpt lat="45.98716" lon="6.23654">
        <ele>706.8</ele>
        <time>2021-03-27T13:46:01Z</time>
      </trkpt>
      <trkpt lat="45.98715" lon="6.2365">
        <ele>707.4</ele>
        <time>2021-03-27T13:46:02Z</time>
      </trkpt>
      <trkpt lat="45.98713" lon="6.23646">
        <ele>707.8</ele>
        <time>2021-03-27T13:46:03Z</time>
      </trkpt>
      <trkpt lat="45.98712" lon="6.23642">
        <ele>708</ele>
        <time>2021-03-27T13:46:04Z</time>
      </trkpt>
      <trkpt lat="45.9871" lon="6.23637">
        <ele>708.2</ele>
        <time>2021-03-27T13:46:05Z</time>
      </trkpt>
      <trkpt lat="45.98708" lon="6.23633">
        <ele>708.4</ele>
        <time>2021-03-27T13:46:06Z</time>
      </trkpt>
      <trkpt lat="45.98706" lon="6.23629">
        <ele>708.8</ele>
        <time>2021-03-27T13:46:07Z</time>
      </trkpt>
      <trkpt lat="45.98703" lon="6.23625">
        <ele>709</ele>
        <time>2021-03-27T13:46:08Z</time>
      </trkpt>
      <trkpt lat="45.98701" lon="6.23621">
        <ele>709.4</ele>
        <time>2021-03-27T13:46:09Z</time>
      </trkpt>
      <trkpt lat="45.98699" lon="6.23617">
        <ele>709.6</ele>
        <time>2021-03-27T13:46:10Z</time>
      </trkpt>
      <trkpt lat="45.98697" lon="6.23613">
        <ele>709.6</ele>
        <time>2021-03-27T13:46:11Z</time>
      </trkpt>
      <trkpt lat="45.98695" lon="6.23609">
        <ele>709.8</ele>
        <time>2021-03-27T13:46:12Z</time>
      </trkpt>
      <trkpt lat="45.98693" lon="6.23606">
        <ele>710</ele>
        <time>2021-03-27T13:46:13Z</time>
      </trkpt>
      <trkpt lat="45.98691" lon="6.23602">
        <ele>710.4</ele>
        <time>2021-03-27T13:46:14Z</time>
      </trkpt>
      <trkpt lat="45.98689" lon="6.23598">
        <ele>710.8</ele>
        <time>2021-03-27T13:46:15Z</time>
      </trkpt>
      <trkpt lat="45.98688" lon="6.23594">
        <ele>710.8</ele>
        <time>2021-03-27T13:46:16Z</time>
      </trkpt>
      <trkpt lat="45.98686" lon="6.2359">
        <ele>710.8</ele>
        <time>2021-03-27T13:46:17Z</time>
      </trkpt>
      <trkpt lat="45.98685" lon="6.23587">
        <ele>711</ele>
        <time>2021-03-27T13:46:18Z</time>
      </trkpt>
      <trkpt lat="45.98684" lon="6.23582">
        <ele>711.2</ele>
        <time>2021-03-27T13:46:19Z</time>
      </trkpt>
      <trkpt lat="45.98683" lon="6.23578">
        <ele>711.4</ele>
        <time>2021-03-27T13:46:20Z</time>
      </trkpt>
      <trkpt lat="45.98683" lon="6.23574">
        <ele>711.6</ele>
        <time>2021-03-27T13:46:21Z</time>
      </trkpt>
      <trkpt lat="45.98682" lon="6.23569">
        <ele>711.8</ele>
        <time>2021-03-27T13:46:22Z</time>
      </trkpt>
      <trkpt lat="45.98682" lon="6.23565">
        <ele>712</ele>
        <time>2021-03-27T13:46:23Z</time>
      </trkpt>
      <trkpt lat="45.98682" lon="6.2356">
        <ele>712</ele>
        <time>2021-03-27T13:46:24Z</time>
      </trkpt>
      <trkpt lat="45.98682" lon="6.23556">
        <ele>712.4</ele>
        <time>2021-03-27T13:46:25Z</time>
      </trkpt>
      <trkpt lat="45.98682" lon="6.23551">
        <ele>712.6</ele>
        <time>2021-03-27T13:46:26Z</time>
      </trkpt>
      <trkpt lat="45.98683" lon="6.23547">
        <ele>712.8</ele>
        <time>2021-03-27T13:46:27Z</time>
      </trkpt>
      <trkpt lat="45.98683" lon="6.23542">
        <ele>713</ele>
        <time>2021-03-27T13:46:28Z</time>
      </trkpt>
      <trkpt lat="45.98684" lon="6.23538">
        <ele>713</ele>
        <time>2021-03-27T13:46:29Z</time>
      </trkpt>
      <trkpt lat="45.98685" lon="6.23534">
        <ele>713</ele>
        <time>2021-03-27T13:46:30Z</time>
      </trkpt>
      <trkpt lat="45.98687" lon="6.23529">
        <ele>713.2</ele>
        <time>2021-03-27T13:46:31Z</time>
      </trkpt>
      <trkpt lat="45.98688" lon="6.23525">
        <ele>713.6</ele>
        <time>2021-03-27T13:46:32Z</time>
      </trkpt>
      <trkpt lat="45.98689" lon="6.23521">
        <ele>713.8</ele>
        <time>2021-03-27T13:46:33Z</time>
      </trkpt>
      <trkpt lat="45.98691" lon="6.23517">
        <ele>714</ele>
        <time>2021-03-27T13:46:34Z</time>
      </trkpt>
      <trkpt lat="45.98692" lon="6.23513">
        <ele>714.2</ele>
        <time>2021-03-27T13:46:35Z</time>
      </trkpt>
      <trkpt lat="45.98693" lon="6.23508">
        <ele>714.4</ele>
        <time>2021-03-27T13:46:36Z</time>
      </trkpt>
      <trkpt lat="45.98694" lon="6.23504">
        <ele>714.8</ele>
        <time>2021-03-27T13:46:37Z</time>
      </trkpt>
      <trkpt lat="45.98695" lon="6.23499">
        <ele>715.2</ele>
        <time>2021-03-27T13:46:38Z</time>
      </trkpt>
      <trkpt lat="45.98696" lon="6.23495">
        <ele>715.2</ele>
        <time>2021-03-27T13:46:39Z</time>
      </trkpt>
      <trkpt lat="45.98697" lon="6.2349">
        <ele>715.4</ele>
        <time>2021-03-27T13:46:40Z</time>
      </trkpt>
      <trkpt lat="45.98698" lon="6.23486">
        <ele>715.6</ele>
        <time>2021-03-27T13:46:41Z</time>
      </trkpt>
      <trkpt lat="45.98699" lon="6.23482">
        <ele>715.8</ele>
        <time>2021-03-27T13:46:42Z</time>
      </trkpt>
      <trkpt lat="45.987" lon="6.23478">
        <ele>716</ele>
        <time>2021-03-27T13:46:43Z</time>
      </trkpt>
      <trkpt lat="45.98701" lon="6.23473">
        <ele>716.2</ele>
        <time>2021-03-27T13:46:44Z</time>
      </trkpt>
      <trkpt lat="45.98702" lon="6.23469">
        <ele>716.2</ele>
        <time>2021-03-27T13:46:45Z</time>
      </trkpt>
      <trkpt lat="45.98703" lon="6.23464">
        <ele>716.4</ele>
        <time>2021-03-27T13:46:46Z</time>
      </trkpt>
      <trkpt lat="45.98703" lon="6.2346">
        <ele>716.8</ele>
        <time>2021-03-27T13:46:47Z</time>
      </trkpt>
      <trkpt lat="45.98704" lon="6.23455">
        <ele>717.2</ele>
        <time>2021-03-27T13:46:48Z</time>
      </trkpt>
      <trkpt lat="45.98704" lon="6.23451">
        <ele>717.2</ele>
        <time>2021-03-27T13:46:49Z</time>
      </trkpt>
      <trkpt lat="45.98704" lon="6.23446">
        <ele>717.6</ele>
        <time>2021-03-27T13:46:50Z</time>
      </trkpt>
      <trkpt lat="45.98704" lon="6.23441">
        <ele>717.8</ele>
        <time>2021-03-27T13:46:51Z</time>
      </trkpt>
      <trkpt lat="45.98704" lon="6.23436">
        <ele>718</ele>
        <time>2021-03-27T13:46:52Z</time>
      </trkpt>
      <trkpt lat="45.98704" lon="6.23431">
        <ele>718.4</ele>
        <time>2021-03-27T13:46:53Z</time>
      </trkpt>
      <trkpt lat="45.98704" lon="6.23427">
        <ele>718.4</ele>
        <time>2021-03-27T13:46:54Z</time>
      </trkpt>
      <trkpt lat="45.98704" lon="6.23422">
        <ele>718.6</ele>
        <time>2021-03-27T13:46:55Z</time>
      </trkpt>
      <trkpt lat="45.98704" lon="6.23417">
        <ele>718.8</ele>
        <time>2021-03-27T13:46:56Z</time>
      </trkpt>
      <trkpt lat="45.98704" lon="6.23412">
        <ele>719</ele>
        <time>2021-03-27T13:46:57Z</time>
      </trkpt>
      <trkpt lat="45.98704" lon="6.23407">
        <ele>719</ele>
        <time>2021-03-27T13:46:58Z</time>
      </trkpt>
      <trkpt lat="45.98703" lon="6.23402">
        <ele>719</ele>
        <time>2021-03-27T13:46:59Z</time>
      </trkpt>
      <trkpt lat="45.98703" lon="6.23398">
        <ele>719.2</ele>
        <time>2021-03-27T13:47:00Z</time>
      </trkpt>
      <trkpt lat="45.98703" lon="6.23393">
        <ele>719.4</ele>
        <time>2021-03-27T13:47:01Z</time>
      </trkpt>
      <trkpt lat="45.98702" lon="6.23389">
        <ele>719.6</ele>
        <time>2021-03-27T13:47:02Z</time>
      </trkpt>
      <trkpt lat="45.98701" lon="6.23384">
        <ele>719.8</ele>
        <time>2021-03-27T13:47:03Z</time>
      </trkpt>
      <trkpt lat="45.98701" lon="6.2338">
        <ele>720</ele>
        <time>2021-03-27T13:47:04Z</time>
      </trkpt>
      <trkpt lat="45.987" lon="6.23375">
        <ele>720</ele>
        <time>2021-03-27T13:47:05Z</time>
      </trkpt>
      <trkpt lat="45.98699" lon="6.23371">
        <ele>720.2</ele>
        <time>2021-03-27T13:47:06Z</time>
      </trkpt>
      <trkpt lat="45.98698" lon="6.23366">
        <ele>720.4</ele>
        <time>2021-03-27T13:47:07Z</time>
      </trkpt>
      <trkpt lat="45.98697" lon="6.23362">
        <ele>720.4</ele>
        <time>2021-03-27T13:47:08Z</time>
      </trkpt>
      <trkpt lat="45.98695" lon="6.23357">
        <ele>720.6</ele>
        <time>2021-03-27T13:47:09Z</time>
      </trkpt>
      <trkpt lat="45.98694" lon="6.23353">
        <ele>720.8</ele>
        <time>2021-03-27T13:47:10Z</time>
      </trkpt>
      <trkpt lat="45.98693" lon="6.23349">
        <ele>721.2</ele>
        <time>2021-03-27T13:47:11Z</time>
      </trkpt>
      <trkpt lat="45.98692" lon="6.23344">
        <ele>721.6</ele>
        <time>2021-03-27T13:47:12Z</time>
      </trkpt>
      <trkpt lat="45.98691" lon="6.2334">
        <ele>722</ele>
        <time>2021-03-27T13:47:13Z</time>
      </trkpt>
      <trkpt lat="45.9869" lon="6.23336">
        <ele>722.2</ele>
        <time>2021-03-27T13:47:14Z</time>
      </trkpt>
      <trkpt lat="45.98688" lon="6.23332">
        <ele>722.6</ele>
        <time>2021-03-27T13:47:15Z</time>
      </trkpt>
      <trkpt lat="45.98687" lon="6.23328">
        <ele>722.8</ele>
        <time>2021-03-27T13:47:16Z</time>
      </trkpt>
      <trkpt lat="45.98686" lon="6.23324">
        <ele>723</ele>
        <time>2021-03-27T13:47:17Z</time>
      </trkpt>
      <trkpt lat="45.98684" lon="6.23319">
        <ele>723</ele>
        <time>2021-03-27T13:47:18Z</time>
      </trkpt>
      <trkpt lat="45.98683" lon="6.23315">
        <ele>723.4</ele>
        <time>2021-03-27T13:47:19Z</time>
      </trkpt>
      <trkpt lat="45.98682" lon="6.23311">
        <ele>723.4</ele>
        <time>2021-03-27T13:47:20Z</time>
      </trkpt>
      <trkpt lat="45.9868" lon="6.23307">
        <ele>723.6</ele>
        <time>2021-03-27T13:47:21Z</time>
      </trkpt>
      <trkpt lat="45.98679" lon="6.23303">
        <ele>723.8</ele>
        <time>2021-03-27T13:47:22Z</time>
      </trkpt>
      <trkpt lat="45.98678" lon="6.23299">
        <ele>724.4</ele>
        <time>2021-03-27T13:47:23Z</time>
      </trkpt>
      <trkpt lat="45.98676" lon="6.23295">
        <ele>724.8</ele>
        <time>2021-03-27T13:47:24Z</time>
      </trkpt>
      <trkpt lat="45.98675" lon="6.23291">
        <ele>725.2</ele>
        <time>2021-03-27T13:47:25Z</time>
      </trkpt>
      <trkpt lat="45.98674" lon="6.23287">
        <ele>725.6</ele>
        <time>2021-03-27T13:47:26Z</time>
      </trkpt>
      <trkpt lat="45.98673" lon="6.23283">
        <ele>726</ele>
        <time>2021-03-27T13:47:27Z</time>
      </trkpt>
      <trkpt lat="45.98672" lon="6.23279">
        <ele>726.4</ele>
        <time>2021-03-27T13:47:28Z</time>
      </trkpt>
      <trkpt lat="45.9867" lon="6.23275">
        <ele>726.6</ele>
        <time>2021-03-27T13:47:29Z</time>
      </trkpt>
      <trkpt lat="45.98669" lon="6.23271">
        <ele>726.8</ele>
        <time>2021-03-27T13:47:30Z</time>
      </trkpt>
      <trkpt lat="45.98668" lon="6.23267">
        <ele>726.8</ele>
        <time>2021-03-27T13:47:31Z</time>
      </trkpt>
      <trkpt lat="45.98667" lon="6.23263">
        <ele>727</ele>
        <time>2021-03-27T13:47:32Z</time>
      </trkpt>
      <trkpt lat="45.98665" lon="6.23259">
        <ele>727.4</ele>
        <time>2021-03-27T13:47:33Z</time>
      </trkpt>
      <trkpt lat="45.98664" lon="6.23255">
        <ele>727.6</ele>
        <time>2021-03-27T13:47:34Z</time>
      </trkpt>
      <trkpt lat="45.98663" lon="6.23251">
        <ele>727.8</ele>
        <time>2021-03-27T13:47:35Z</time>
      </trkpt>
      <trkpt lat="45.98663" lon="6.23247">
        <ele>727.8</ele>
        <time>2021-03-27T13:47:36Z</time>
      </trkpt>
      <trkpt lat="45.98662" lon="6.23243">
        <ele>728.2</ele>
        <time>2021-03-27T13:47:37Z</time>
      </trkpt>
      <trkpt lat="45.98661" lon="6.2324">
        <ele>728.2</ele>
        <time>2021-03-27T13:47:38Z</time>
      </trkpt>
      <trkpt lat="45.9866" lon="6.23236">
        <ele>728.4</ele>
        <time>2021-03-27T13:47:39Z</time>
      </trkpt>
      <trkpt lat="45.98659" lon="6.23232">
        <ele>728.8</ele>
        <time>2021-03-27T13:47:40Z</time>
      </trkpt>
      <trkpt lat="45.98657" lon="6.23228">
        <ele>729</ele>
        <time>2021-03-27T13:47:41Z</time>
      </trkpt>
      <trkpt lat="45.98656" lon="6.23224">
        <ele>729.2</ele>
        <time>2021-03-27T13:47:42Z</time>
      </trkpt>
      <trkpt lat="45.98654" lon="6.23219">
        <ele>729.4</ele>
        <time>2021-03-27T13:47:43Z</time>
      </trkpt>
      <trkpt lat="45.98653" lon="6.23215">
        <ele>729.8</ele>
        <time>2021-03-27T13:47:44Z</time>
      </trkpt>
      <trkpt lat="45.98651" lon="6.23211">
        <ele>730</ele>
        <time>2021-03-27T13:47:45Z</time>
      </trkpt>
      <trkpt lat="45.98649" lon="6.23207">
        <ele>730</ele>
        <time>2021-03-27T13:47:46Z</time>
      </trkpt>
      <trkpt lat="45.98648" lon="6.23203">
        <ele>730.2</ele>
        <time>2021-03-27T13:47:47Z</time>
      </trkpt>
      <trkpt lat="45.98647" lon="6.23198">
        <ele>730.2</ele>
        <time>2021-03-27T13:47:48Z</time>
      </trkpt>
      <trkpt lat="45.98646" lon="6.23194">
        <ele>730.2</ele>
        <time>2021-03-27T13:47:49Z</time>
      </trkpt>
      <trkpt lat="45.98645" lon="6.23189">
        <ele>730.2</ele>
        <time>2021-03-27T13:47:50Z</time>
      </trkpt>
      <trkpt lat="45.98644" lon="6.23184">
        <ele>730.6</ele>
        <time>2021-03-27T13:47:51Z</time>
      </trkpt>
      <trkpt lat="45.98643" lon="6.23179">
        <ele>731</ele>
        <time>2021-03-27T13:47:52Z</time>
      </trkpt>
      <trkpt lat="45.98642" lon="6.23175">
        <ele>731.4</ele>
        <time>2021-03-27T13:47:53Z</time>
      </trkpt>
      <trkpt lat="45.98641" lon="6.2317">
        <ele>731.4</ele>
        <time>2021-03-27T13:47:54Z</time>
      </trkpt>
      <trkpt lat="45.9864" lon="6.23166">
        <ele>731.8</ele>
        <time>2021-03-27T13:47:55Z</time>
      </trkpt>
      <trkpt lat="45.98639" lon="6.23161">
        <ele>731.8</ele>
        <time>2021-03-27T13:47:56Z</time>
      </trkpt>
      <trkpt lat="45.98639" lon="6.23157">
        <ele>731.8</ele>
        <time>2021-03-27T13:47:57Z</time>
      </trkpt>
      <trkpt lat="45.98638" lon="6.23153">
        <ele>732.2</ele>
        <time>2021-03-27T13:47:58Z</time>
      </trkpt>
      <trkpt lat="45.98638" lon="6.23148">
        <ele>732</ele>
        <time>2021-03-27T13:47:59Z</time>
      </trkpt>
      <trkpt lat="45.98637" lon="6.23144">
        <ele>732.2</ele>
        <time>2021-03-27T13:48:00Z</time>
      </trkpt>
      <trkpt lat="45.98637" lon="6.23139">
        <ele>732.4</ele>
        <time>2021-03-27T13:48:01Z</time>
      </trkpt>
      <trkpt lat="45.98636" lon="6.23135">
        <ele>732.4</ele>
        <time>2021-03-27T13:48:02Z</time>
      </trkpt>
      <trkpt lat="45.98636" lon="6.2313">
        <ele>732.6</ele>
        <time>2021-03-27T13:48:03Z</time>
      </trkpt>
      <trkpt lat="45.98636" lon="6.23126">
        <ele>733</ele>
        <time>2021-03-27T13:48:04Z</time>
      </trkpt>
      <trkpt lat="45.98635" lon="6.23121">
        <ele>733.4</ele>
        <time>2021-03-27T13:48:05Z</time>
      </trkpt>
      <trkpt lat="45.98635" lon="6.23117">
        <ele>733.4</ele>
        <time>2021-03-27T13:48:06Z</time>
      </trkpt>
      <trkpt lat="45.98635" lon="6.23112">
        <ele>733.6</ele>
        <time>2021-03-27T13:48:07Z</time>
      </trkpt>
      <trkpt lat="45.98635" lon="6.23107">
        <ele>734</ele>
        <time>2021-03-27T13:48:08Z</time>
      </trkpt>
      <trkpt lat="45.98635" lon="6.23103">
        <ele>734.4</ele>
        <time>2021-03-27T13:48:09Z</time>
      </trkpt>
      <trkpt lat="45.98635" lon="6.23098">
        <ele>734.6</ele>
        <time>2021-03-27T13:48:10Z</time>
      </trkpt>
      <trkpt lat="45.98635" lon="6.23094">
        <ele>735.2</ele>
        <time>2021-03-27T13:48:11Z</time>
      </trkpt>
      <trkpt lat="45.98635" lon="6.23089">
        <ele>735.4</ele>
        <time>2021-03-27T13:48:12Z</time>
      </trkpt>
      <trkpt lat="45.98635" lon="6.23084">
        <ele>735.8</ele>
        <time>2021-03-27T13:48:13Z</time>
      </trkpt>
      <trkpt lat="45.98635" lon="6.2308">
        <ele>735.8</ele>
        <time>2021-03-27T13:48:14Z</time>
      </trkpt>
      <trkpt lat="45.98635" lon="6.23075">
        <ele>736.2</ele>
        <time>2021-03-27T13:48:15Z</time>
      </trkpt>
      <trkpt lat="45.98635" lon="6.2307">
        <ele>736</ele>
        <time>2021-03-27T13:48:16Z</time>
      </trkpt>
      <trkpt lat="45.98635" lon="6.23066">
        <ele>736.4</ele>
        <time>2021-03-27T13:48:17Z</time>
      </trkpt>
      <trkpt lat="45.98635" lon="6.23061">
        <ele>736.2</ele>
        <time>2021-03-27T13:48:18Z</time>
      </trkpt>
      <trkpt lat="45.98634" lon="6.23056">
        <ele>736.8</ele>
        <time>2021-03-27T13:48:19Z</time>
      </trkpt>
      <trkpt lat="45.98634" lon="6.23052">
        <ele>737</ele>
        <time>2021-03-27T13:48:20Z</time>
      </trkpt>
      <trkpt lat="45.98634" lon="6.23047">
        <ele>737.4</ele>
        <time>2021-03-27T13:48:21Z</time>
      </trkpt>
      <trkpt lat="45.98634" lon="6.23043">
        <ele>737.4</ele>
        <time>2021-03-27T13:48:22Z</time>
      </trkpt>
      <trkpt lat="45.98634" lon="6.23038">
        <ele>737.4</ele>
        <time>2021-03-27T13:48:23Z</time>
      </trkpt>
      <trkpt lat="45.98634" lon="6.23033">
        <ele>737.6</ele>
        <time>2021-03-27T13:48:24Z</time>
      </trkpt>
      <trkpt lat="45.98634" lon="6.23028">
        <ele>737.8</ele>
        <time>2021-03-27T13:48:25Z</time>
      </trkpt>
      <trkpt lat="45.98634" lon="6.23024">
        <ele>738.2</ele>
        <time>2021-03-27T13:48:26Z</time>
      </trkpt>
      <trkpt lat="45.98634" lon="6.23019">
        <ele>738.2</ele>
        <time>2021-03-27T13:48:27Z</time>
      </trkpt>
      <trkpt lat="45.98634" lon="6.23014">
        <ele>738.4</ele>
        <time>2021-03-27T13:48:28Z</time>
      </trkpt>
      <trkpt lat="45.98634" lon="6.2301">
        <ele>738.6</ele>
        <time>2021-03-27T13:48:29Z</time>
      </trkpt>
      <trkpt lat="45.98634" lon="6.23005">
        <ele>739</ele>
        <time>2021-03-27T13:48:30Z</time>
      </trkpt>
      <trkpt lat="45.98634" lon="6.23">
        <ele>739.2</ele>
        <time>2021-03-27T13:48:31Z</time>
      </trkpt>
      <trkpt lat="45.98634" lon="6.22996">
        <ele>739.6</ele>
        <time>2021-03-27T13:48:32Z</time>
      </trkpt>
      <trkpt lat="45.98634" lon="6.22991">
        <ele>739.8</ele>
        <time>2021-03-27T13:48:33Z</time>
      </trkpt>
      <trkpt lat="45.98634" lon="6.22987">
        <ele>739.8</ele>
        <time>2021-03-27T13:48:34Z</time>
      </trkpt>
      <trkpt lat="45.98633" lon="6.22982">
        <ele>740</ele>
        <time>2021-03-27T13:48:35Z</time>
      </trkpt>
      <trkpt lat="45.98633" lon="6.22978">
        <ele>740.2</ele>
        <time>2021-03-27T13:48:36Z</time>
      </trkpt>
      <trkpt lat="45.98633" lon="6.22973">
        <ele>740.8</ele>
        <time>2021-03-27T13:48:37Z</time>
      </trkpt>
      <trkpt lat="45.98632" lon="6.22969">
        <ele>741</ele>
        <time>2021-03-27T13:48:38Z</time>
      </trkpt>
      <trkpt lat="45.98631" lon="6.22964">
        <ele>741</ele>
        <time>2021-03-27T13:48:39Z</time>
      </trkpt>
      <trkpt lat="45.98631" lon="6.2296">
        <ele>741.4</ele>
        <time>2021-03-27T13:48:40Z</time>
      </trkpt>
      <trkpt lat="45.9863" lon="6.22955">
        <ele>741.6</ele>
        <time>2021-03-27T13:48:41Z</time>
      </trkpt>
      <trkpt lat="45.98629" lon="6.22951">
        <ele>741.8</ele>
        <time>2021-03-27T13:48:42Z</time>
      </trkpt>
      <trkpt lat="45.98628" lon="6.22947">
        <ele>741.8</ele>
        <time>2021-03-27T13:48:43Z</time>
      </trkpt>
      <trkpt lat="45.98627" lon="6.22942">
        <ele>742</ele>
        <time>2021-03-27T13:48:44Z</time>
      </trkpt>
      <trkpt lat="45.98626" lon="6.22938">
        <ele>742.2</ele>
        <time>2021-03-27T13:48:45Z</time>
      </trkpt>
      <trkpt lat="45.98625" lon="6.22933">
        <ele>742.8</ele>
        <time>2021-03-27T13:48:46Z</time>
      </trkpt>
      <trkpt lat="45.98624" lon="6.22929">
        <ele>743</ele>
        <time>2021-03-27T13:48:47Z</time>
      </trkpt>
      <trkpt lat="45.98623" lon="6.22925">
        <ele>743.2</ele>
        <time>2021-03-27T13:48:48Z</time>
      </trkpt>
      <trkpt lat="45.98621" lon="6.2292">
        <ele>743.6</ele>
        <time>2021-03-27T13:48:49Z</time>
      </trkpt>
      <trkpt lat="45.9862" lon="6.22916">
        <ele>743.8</ele>
        <time>2021-03-27T13:48:50Z</time>
      </trkpt>
      <trkpt lat="45.98619" lon="6.22911">
        <ele>744.2</ele>
        <time>2021-03-27T13:48:51Z</time>
      </trkpt>
      <trkpt lat="45.98617" lon="6.22907">
        <ele>744.4</ele>
        <time>2021-03-27T13:48:52Z</time>
      </trkpt>
      <trkpt lat="45.98615" lon="6.22903">
        <ele>744.6</ele>
        <time>2021-03-27T13:48:53Z</time>
      </trkpt>
      <trkpt lat="45.98614" lon="6.22899">
        <ele>745</ele>
        <time>2021-03-27T13:48:54Z</time>
      </trkpt>
      <trkpt lat="45.98612" lon="6.22895">
        <ele>745.4</ele>
        <time>2021-03-27T13:48:55Z</time>
      </trkpt>
      <trkpt lat="45.9861" lon="6.22891">
        <ele>745.4</ele>
        <time>2021-03-27T13:48:56Z</time>
      </trkpt>
      <trkpt lat="45.98608" lon="6.22887">
        <ele>745.8</ele>
        <time>2021-03-27T13:48:57Z</time>
      </trkpt>
      <trkpt lat="45.98606" lon="6.22884">
        <ele>746</ele>
        <time>2021-03-27T13:48:58Z</time>
      </trkpt>
      <trkpt lat="45.98604" lon="6.2288">
        <ele>746.4</ele>
        <time>2021-03-27T13:48:59Z</time>
      </trkpt>
      <trkpt lat="45.98602" lon="6.22876">
        <ele>746.6</ele>
        <time>2021-03-27T13:49:00Z</time>
      </trkpt>
      <trkpt lat="45.986" lon="6.22873">
        <ele>746.8</ele>
        <time>2021-03-27T13:49:01Z</time>
      </trkpt>
      <trkpt lat="45.98598" lon="6.22869">
        <ele>747</ele>
        <time>2021-03-27T13:49:02Z</time>
      </trkpt>
      <trkpt lat="45.98596" lon="6.22866">
        <ele>747.2</ele>
        <time>2021-03-27T13:49:03Z</time>
      </trkpt>
      <trkpt lat="45.98594" lon="6.22863">
        <ele>747.4</ele>
        <time>2021-03-27T13:49:04Z</time>
      </trkpt>
      <trkpt lat="45.98591" lon="6.2286">
        <ele>747.4</ele>
        <time>2021-03-27T13:49:05Z</time>
      </trkpt>
      <trkpt lat="45.98589" lon="6.22857">
        <ele>747.8</ele>
        <time>2021-03-27T13:49:06Z</time>
      </trkpt>
      <trkpt lat="45.98586" lon="6.22854">
        <ele>748.2</ele>
        <time>2021-03-27T13:49:07Z</time>
      </trkpt>
      <trkpt lat="45.98583" lon="6.22851">
        <ele>748.2</ele>
        <time>2021-03-27T13:49:08Z</time>
      </trkpt>
      <trkpt lat="45.98581" lon="6.22849">
        <ele>748.4</ele>
        <time>2021-03-27T13:49:09Z</time>
      </trkpt>
      <trkpt lat="45.98578" lon="6.22846">
        <ele>748.4</ele>
        <time>2021-03-27T13:49:10Z</time>
      </trkpt>
      <trkpt lat="45.98575" lon="6.22843">
        <ele>748.6</ele>
        <time>2021-03-27T13:49:11Z</time>
      </trkpt>
      <trkpt lat="45.98573" lon="6.22841">
        <ele>748.8</ele>
        <time>2021-03-27T13:49:12Z</time>
      </trkpt>
      <trkpt lat="45.9857" lon="6.22838">
        <ele>749</ele>
        <time>2021-03-27T13:49:13Z</time>
      </trkpt>
      <trkpt lat="45.98567" lon="6.22835">
        <ele>749.2</ele>
        <time>2021-03-27T13:49:14Z</time>
      </trkpt>
      <trkpt lat="45.98564" lon="6.22833">
        <ele>749.4</ele>
        <time>2021-03-27T13:49:15Z</time>
      </trkpt>
      <trkpt lat="45.98561" lon="6.22831">
        <ele>749.6</ele>
        <time>2021-03-27T13:49:16Z</time>
      </trkpt>
      <trkpt lat="45.98558" lon="6.2283">
        <ele>749.8</ele>
        <time>2021-03-27T13:49:17Z</time>
      </trkpt>
      <trkpt lat="45.98555" lon="6.22829">
        <ele>750.2</ele>
        <time>2021-03-27T13:49:18Z</time>
      </trkpt>
      <trkpt lat="45.98551" lon="6.22827">
        <ele>750.4</ele>
        <time>2021-03-27T13:49:19Z</time>
      </trkpt>
      <trkpt lat="45.98548" lon="6.22826">
        <ele>750.6</ele>
        <time>2021-03-27T13:49:20Z</time>
      </trkpt>
      <trkpt lat="45.98545" lon="6.22825">
        <ele>750.8</ele>
        <time>2021-03-27T13:49:21Z</time>
      </trkpt>
      <trkpt lat="45.98541" lon="6.22824">
        <ele>750.8</ele>
        <time>2021-03-27T13:49:22Z</time>
      </trkpt>
      <trkpt lat="45.98538" lon="6.22823">
        <ele>751</ele>
        <time>2021-03-27T13:49:23Z</time>
      </trkpt>
      <trkpt lat="45.98535" lon="6.22821">
        <ele>751.2</ele>
        <time>2021-03-27T13:49:24Z</time>
      </trkpt>
      <trkpt lat="45.98532" lon="6.2282">
        <ele>751.4</ele>
        <time>2021-03-27T13:49:25Z</time>
      </trkpt>
      <trkpt lat="45.98529" lon="6.22819">
        <ele>751.6</ele>
        <time>2021-03-27T13:49:26Z</time>
      </trkpt>
      <trkpt lat="45.98525" lon="6.22819">
        <ele>751.8</ele>
        <time>2021-03-27T13:49:27Z</time>
      </trkpt>
      <trkpt lat="45.98522" lon="6.2282">
        <ele>752.2</ele>
        <time>2021-03-27T13:49:28Z</time>
      </trkpt>
      <trkpt lat="45.98518" lon="6.22819">
        <ele>752.4</ele>
        <time>2021-03-27T13:49:29Z</time>
      </trkpt>
      <trkpt lat="45.98515" lon="6.22819">
        <ele>752.6</ele>
        <time>2021-03-27T13:49:30Z</time>
      </trkpt>
      <trkpt lat="45.98512" lon="6.22819">
        <ele>752.8</ele>
        <time>2021-03-27T13:49:31Z</time>
      </trkpt>
      <trkpt lat="45.98508" lon="6.22819">
        <ele>753</ele>
        <time>2021-03-27T13:49:32Z</time>
      </trkpt>
      <trkpt lat="45.98505" lon="6.22819">
        <ele>753.4</ele>
        <time>2021-03-27T13:49:33Z</time>
      </trkpt>
      <trkpt lat="45.98501" lon="6.22819">
        <ele>753.6</ele>
        <time>2021-03-27T13:49:34Z</time>
      </trkpt>
      <trkpt lat="45.98498" lon="6.2282">
        <ele>754</ele>
        <time>2021-03-27T13:49:35Z</time>
      </trkpt>
      <trkpt lat="45.98495" lon="6.2282">
        <ele>754.4</ele>
        <time>2021-03-27T13:49:36Z</time>
      </trkpt>
      <trkpt lat="45.98492" lon="6.22821">
        <ele>754.8</ele>
        <time>2021-03-27T13:49:37Z</time>
      </trkpt>
      <trkpt lat="45.98488" lon="6.22822">
        <ele>755</ele>
        <time>2021-03-27T13:49:38Z</time>
      </trkpt>
      <trkpt lat="45.98485" lon="6.22823">
        <ele>755</ele>
        <time>2021-03-27T13:49:39Z</time>
      </trkpt>
      <trkpt lat="45.98482" lon="6.22824">
        <ele>755.4</ele>
        <time>2021-03-27T13:49:40Z</time>
      </trkpt>
      <trkpt lat="45.98479" lon="6.22824">
        <ele>755.6</ele>
        <time>2021-03-27T13:49:41Z</time>
      </trkpt>
      <trkpt lat="45.98475" lon="6.22825">
        <ele>755.6</ele>
        <time>2021-03-27T13:49:42Z</time>
      </trkpt>
      <trkpt lat="45.98472" lon="6.22827">
        <ele>755.8</ele>
        <time>2021-03-27T13:49:43Z</time>
      </trkpt>
      <trkpt lat="45.98469" lon="6.22828">
        <ele>755.8</ele>
        <time>2021-03-27T13:49:44Z</time>
      </trkpt>
      <trkpt lat="45.98465" lon="6.2283">
        <ele>756.2</ele>
        <time>2021-03-27T13:49:45Z</time>
      </trkpt>
      <trkpt lat="45.98462" lon="6.22831">
        <ele>756.2</ele>
        <time>2021-03-27T13:49:46Z</time>
      </trkpt>
      <trkpt lat="45.98459" lon="6.22833">
        <ele>756.6</ele>
        <time>2021-03-27T13:49:47Z</time>
      </trkpt>
      <trkpt lat="45.98455" lon="6.22835">
        <ele>756.6</ele>
        <time>2021-03-27T13:49:48Z</time>
      </trkpt>
      <trkpt lat="45.98452" lon="6.22837">
        <ele>756.8</ele>
        <time>2021-03-27T13:49:49Z</time>
      </trkpt>
      <trkpt lat="45.98448" lon="6.2284">
        <ele>757.2</ele>
        <time>2021-03-27T13:49:50Z</time>
      </trkpt>
      <trkpt lat="45.98445" lon="6.22842">
        <ele>757.2</ele>
        <time>2021-03-27T13:49:51Z</time>
      </trkpt>
      <trkpt lat="45.98441" lon="6.22844">
        <ele>757.2</ele>
        <time>2021-03-27T13:49:52Z</time>
      </trkpt>
      <trkpt lat="45.98437" lon="6.22847">
        <ele>757.4</ele>
        <time>2021-03-27T13:49:53Z</time>
      </trkpt>
      <trkpt lat="45.98433" lon="6.22849">
        <ele>757.4</ele>
        <time>2021-03-27T13:49:54Z</time>
      </trkpt>
      <trkpt lat="45.98429" lon="6.22851">
        <ele>757.4</ele>
        <time>2021-03-27T13:49:55Z</time>
      </trkpt>
      <trkpt lat="45.98426" lon="6.22854">
        <ele>757.6</ele>
        <time>2021-03-27T13:49:56Z</time>
      </trkpt>
      <trkpt lat="45.98422" lon="6.22856">
        <ele>757.8</ele>
        <time>2021-03-27T13:49:57Z</time>
      </trkpt>
      <trkpt lat="45.98418" lon="6.22859">
        <ele>757.6</ele>
        <time>2021-03-27T13:49:58Z</time>
      </trkpt>
      <trkpt lat="45.98414" lon="6.22861">
        <ele>757.8</ele>
        <time>2021-03-27T13:49:59Z</time>
      </trkpt>
      <trkpt lat="45.9841" lon="6.22863">
        <ele>757.6</ele>
        <time>2021-03-27T13:50:00Z</time>
      </trkpt>
      <trkpt lat="45.98406" lon="6.22865">
        <ele>757.8</ele>
        <time>2021-03-27T13:50:01Z</time>
      </trkpt>
      <trkpt lat="45.98402" lon="6.22867">
        <ele>757.8</ele>
        <time>2021-03-27T13:50:02Z</time>
      </trkpt>
      <trkpt lat="45.98399" lon="6.22869">
        <ele>758</ele>
        <time>2021-03-27T13:50:03Z</time>
      </trkpt>
      <trkpt lat="45.98395" lon="6.22872">
        <ele>758.2</ele>
        <time>2021-03-27T13:50:04Z</time>
      </trkpt>
      <trkpt lat="45.98391" lon="6.22874">
        <ele>758.2</ele>
        <time>2021-03-27T13:50:05Z</time>
      </trkpt>
      <trkpt lat="45.98388" lon="6.22877">
        <ele>758.2</ele>
        <time>2021-03-27T13:50:06Z</time>
      </trkpt>
      <trkpt lat="45.98384" lon="6.2288">
        <ele>758.6</ele>
        <time>2021-03-27T13:50:07Z</time>
      </trkpt>
      <trkpt lat="45.98381" lon="6.22882">
        <ele>758.6</ele>
        <time>2021-03-27T13:50:08Z</time>
      </trkpt>
      <trkpt lat="45.98377" lon="6.22885">
        <ele>758.8</ele>
        <time>2021-03-27T13:50:09Z</time>
      </trkpt>
      <trkpt lat="45.98373" lon="6.22887">
        <ele>759</ele>
        <time>2021-03-27T13:50:10Z</time>
      </trkpt>
      <trkpt lat="45.98369" lon="6.22889">
        <ele>759.2</ele>
        <time>2021-03-27T13:50:11Z</time>
      </trkpt>
      <trkpt lat="45.98365" lon="6.22892">
        <ele>759.4</ele>
        <time>2021-03-27T13:50:12Z</time>
      </trkpt>
      <trkpt lat="45.98362" lon="6.22894">
        <ele>759.6</ele>
        <time>2021-03-27T13:50:13Z</time>
      </trkpt>
      <trkpt lat="45.98358" lon="6.22896">
        <ele>759.6</ele>
        <time>2021-03-27T13:50:14Z</time>
      </trkpt>
      <trkpt lat="45.98354" lon="6.22898">
        <ele>760</ele>
        <time>2021-03-27T13:50:15Z</time>
      </trkpt>
      <trkpt lat="45.9835" lon="6.22901">
        <ele>760</ele>
        <time>2021-03-27T13:50:16Z</time>
      </trkpt>
      <trkpt lat="45.98347" lon="6.22903">
        <ele>760</ele>
        <time>2021-03-27T13:50:17Z</time>
      </trkpt>
      <trkpt lat="45.98343" lon="6.22906">
        <ele>760.2</ele>
        <time>2021-03-27T13:50:18Z</time>
      </trkpt>
      <trkpt lat="45.98339" lon="6.22908">
        <ele>760.4</ele>
        <time>2021-03-27T13:50:19Z</time>
      </trkpt>
      <trkpt lat="45.98335" lon="6.2291">
        <ele>760.8</ele>
        <time>2021-03-27T13:50:20Z</time>
      </trkpt>
      <trkpt lat="45.98331" lon="6.22912">
        <ele>760.8</ele>
        <time>2021-03-27T13:50:21Z</time>
      </trkpt>
      <trkpt lat="45.98328" lon="6.22915">
        <ele>761</ele>
        <time>2021-03-27T13:50:22Z</time>
      </trkpt>
      <trkpt lat="45.98324" lon="6.22917">
        <ele>761.2</ele>
        <time>2021-03-27T13:50:23Z</time>
      </trkpt>
      <trkpt lat="45.9832" lon="6.2292">
        <ele>761.4</ele>
        <time>2021-03-27T13:50:24Z</time>
      </trkpt>
      <trkpt lat="45.98317" lon="6.22922">
        <ele>761.6</ele>
        <time>2021-03-27T13:50:25Z</time>
      </trkpt>
      <trkpt lat="45.98313" lon="6.22925">
        <ele>762.2</ele>
        <time>2021-03-27T13:50:26Z</time>
      </trkpt>
      <trkpt lat="45.98309" lon="6.22927">
        <ele>762.4</ele>
        <time>2021-03-27T13:50:27Z</time>
      </trkpt>
      <trkpt lat="45.98305" lon="6.2293">
        <ele>762.6</ele>
        <time>2021-03-27T13:50:28Z</time>
      </trkpt>
      <trkpt lat="45.98301" lon="6.22932">
        <ele>762.8</ele>
        <time>2021-03-27T13:50:29Z</time>
      </trkpt>
      <trkpt lat="45.98297" lon="6.22934">
        <ele>763.2</ele>
        <time>2021-03-27T13:50:30Z</time>
      </trkpt>
      <trkpt lat="45.98293" lon="6.22937">
        <ele>763.4</ele>
        <time>2021-03-27T13:50:31Z</time>
      </trkpt>
      <trkpt lat="45.98289" lon="6.22939">
        <ele>763.4</ele>
        <time>2021-03-27T13:50:32Z</time>
      </trkpt>
      <trkpt lat="45.98285" lon="6.22941">
        <ele>763.6</ele>
        <time>2021-03-27T13:50:33Z</time>
      </trkpt>
      <trkpt lat="45.98281" lon="6.22943">
        <ele>763.8</ele>
        <time>2021-03-27T13:50:34Z</time>
      </trkpt>
      <trkpt lat="45.98276" lon="6.22944">
        <ele>763.8</ele>
        <time>2021-03-27T13:50:35Z</time>
      </trkpt>
      <trkpt lat="45.98272" lon="6.22945">
        <ele>764</ele>
        <time>2021-03-27T13:50:36Z</time>
      </trkpt>
      <trkpt lat="45.98267" lon="6.22945">
        <ele>764.4</ele>
        <time>2021-03-27T13:50:37Z</time>
      </trkpt>
      <trkpt lat="45.98263" lon="6.22944">
        <ele>764.2</ele>
        <time>2021-03-27T13:50:38Z</time>
      </trkpt>
      <trkpt lat="45.98258" lon="6.22943">
        <ele>764.4</ele>
        <time>2021-03-27T13:50:39Z</time>
      </trkpt>
      <trkpt lat="45.98254" lon="6.22941">
        <ele>764.6</ele>
        <time>2021-03-27T13:50:40Z</time>
      </trkpt>
      <trkpt lat="45.98249" lon="6.22938">
        <ele>764.8</ele>
        <time>2021-03-27T13:50:41Z</time>
      </trkpt>
      <trkpt lat="45.98245" lon="6.22935">
        <ele>765</ele>
        <time>2021-03-27T13:50:42Z</time>
      </trkpt>
      <trkpt lat="45.98241" lon="6.22931">
        <ele>765</ele>
        <time>2021-03-27T13:50:43Z</time>
      </trkpt>
      <trkpt lat="45.98237" lon="6.22927">
        <ele>764.8</ele>
        <time>2021-03-27T13:50:44Z</time>
      </trkpt>
      <trkpt lat="45.98233" lon="6.22921">
        <ele>765.2</ele>
        <time>2021-03-27T13:50:45Z</time>
      </trkpt>
      <trkpt lat="45.9823" lon="6.22916">
        <ele>765.2</ele>
        <time>2021-03-27T13:50:46Z</time>
      </trkpt>
      <trkpt lat="45.98226" lon="6.22909">
        <ele>765.2</ele>
        <time>2021-03-27T13:50:47Z</time>
      </trkpt>
      <trkpt lat="45.98223" lon="6.22903">
        <ele>765.2</ele>
        <time>2021-03-27T13:50:48Z</time>
      </trkpt>
      <trkpt lat="45.98219" lon="6.22896">
        <ele>765.2</ele>
        <time>2021-03-27T13:50:49Z</time>
      </trkpt>
      <trkpt lat="45.98216" lon="6.22889">
        <ele>765.2</ele>
        <time>2021-03-27T13:50:50Z</time>
      </trkpt>
      <trkpt lat="45.98213" lon="6.22882">
        <ele>765.2</ele>
        <time>2021-03-27T13:50:51Z</time>
      </trkpt>
      <trkpt lat="45.9821" lon="6.22875">
        <ele>765.2</ele>
        <time>2021-03-27T13:50:52Z</time>
      </trkpt>
      <trkpt lat="45.98207" lon="6.22868">
        <ele>765.2</ele>
        <time>2021-03-27T13:50:53Z</time>
      </trkpt>
      <trkpt lat="45.98203" lon="6.2286">
        <ele>765.2</ele>
        <time>2021-03-27T13:50:54Z</time>
      </trkpt>
      <trkpt lat="45.98199" lon="6.22853">
        <ele>765.2</ele>
        <time>2021-03-27T13:50:55Z</time>
      </trkpt>
      <trkpt lat="45.98195" lon="6.22845">
        <ele>765.2</ele>
        <time>2021-03-27T13:50:56Z</time>
      </trkpt>
      <trkpt lat="45.98191" lon="6.22837">
        <ele>765.2</ele>
        <time>2021-03-27T13:50:57Z</time>
      </trkpt>
      <trkpt lat="45.98187" lon="6.2283">
        <ele>765.2</ele>
        <time>2021-03-27T13:50:58Z</time>
      </trkpt>
      <trkpt lat="45.98183" lon="6.22822">
        <ele>765.2</ele>
        <time>2021-03-27T13:50:59Z</time>
      </trkpt>
      <trkpt lat="45.98179" lon="6.22814">
        <ele>765</ele>
        <time>2021-03-27T13:51:00Z</time>
      </trkpt>
      <trkpt lat="45.98175" lon="6.22807">
        <ele>765</ele>
        <time>2021-03-27T13:51:01Z</time>
      </trkpt>
      <trkpt lat="45.98171" lon="6.22799">
        <ele>764.6</ele>
        <time>2021-03-27T13:51:02Z</time>
      </trkpt>
      <trkpt lat="45.98167" lon="6.22791">
        <ele>764.4</ele>
        <time>2021-03-27T13:51:03Z</time>
      </trkpt>
      <trkpt lat="45.98163" lon="6.22784">
        <ele>764.2</ele>
        <time>2021-03-27T13:51:04Z</time>
      </trkpt>
      <trkpt lat="45.98159" lon="6.22776">
        <ele>764.2</ele>
        <time>2021-03-27T13:51:05Z</time>
      </trkpt>
      <trkpt lat="45.98155" lon="6.22769">
        <ele>764.2</ele>
        <time>2021-03-27T13:51:06Z</time>
      </trkpt>
      <trkpt lat="45.98151" lon="6.22762">
        <ele>764.2</ele>
        <time>2021-03-27T13:51:07Z</time>
      </trkpt>
      <trkpt lat="45.98147" lon="6.22755">
        <ele>764.4</ele>
        <time>2021-03-27T13:51:08Z</time>
      </trkpt>
      <trkpt lat="45.98142" lon="6.22748">
        <ele>764.4</ele>
        <time>2021-03-27T13:51:09Z</time>
      </trkpt>
      <trkpt lat="45.98138" lon="6.22742">
        <ele>764.2</ele>
        <time>2021-03-27T13:51:10Z</time>
      </trkpt>
      <trkpt lat="45.98133" lon="6.22735">
        <ele>764.2</ele>
        <time>2021-03-27T13:51:11Z</time>
      </trkpt>
      <trkpt lat="45.98128" lon="6.22728">
        <ele>764.2</ele>
        <time>2021-03-27T13:51:12Z</time>
      </trkpt>
      <trkpt lat="45.98123" lon="6.22722">
        <ele>764</ele>
        <time>2021-03-27T13:51:13Z</time>
      </trkpt>
      <trkpt lat="45.98118" lon="6.22715">
        <ele>764</ele>
        <time>2021-03-27T13:51:14Z</time>
      </trkpt>
      <trkpt lat="45.98113" lon="6.22709">
        <ele>764.2</ele>
        <time>2021-03-27T13:51:15Z</time>
      </trkpt>
      <trkpt lat="45.98108" lon="6.22702">
        <ele>764</ele>
        <time>2021-03-27T13:51:16Z</time>
      </trkpt>
      <trkpt lat="45.98104" lon="6.22695">
        <ele>764</ele>
        <time>2021-03-27T13:51:17Z</time>
      </trkpt>
      <trkpt lat="45.98099" lon="6.22689">
        <ele>764.2</ele>
        <time>2021-03-27T13:51:18Z</time>
      </trkpt>
      <trkpt lat="45.98094" lon="6.22682">
        <ele>764.2</ele>
        <time>2021-03-27T13:51:19Z</time>
      </trkpt>
      <trkpt lat="45.98089" lon="6.22675">
        <ele>764</ele>
        <time>2021-03-27T13:51:20Z</time>
      </trkpt>
      <trkpt lat="45.98084" lon="6.22669">
        <ele>764.2</ele>
        <time>2021-03-27T13:51:21Z</time>
      </trkpt>
      <trkpt lat="45.9808" lon="6.22663">
        <ele>764</ele>
        <time>2021-03-27T13:51:22Z</time>
      </trkpt>
      <trkpt lat="45.98075" lon="6.22656">
        <ele>764.2</ele>
        <time>2021-03-27T13:51:23Z</time>
      </trkpt>
      <trkpt lat="45.9807" lon="6.2265">
        <ele>764.2</ele>
        <time>2021-03-27T13:51:24Z</time>
      </trkpt>
      <trkpt lat="45.98065" lon="6.22644">
        <ele>764.2</ele>
        <time>2021-03-27T13:51:25Z</time>
      </trkpt>
      <trkpt lat="45.9806" lon="6.22637">
        <ele>764.2</ele>
        <time>2021-03-27T13:51:26Z</time>
      </trkpt>
      <trkpt lat="45.98056" lon="6.2263">
        <ele>764.2</ele>
        <time>2021-03-27T13:51:27Z</time>
      </trkpt>
      <trkpt lat="45.98051" lon="6.22624">
        <ele>764.2</ele>
        <time>2021-03-27T13:51:28Z</time>
      </trkpt>
      <trkpt lat="45.98046" lon="6.22617">
        <ele>764.2</ele>
        <time>2021-03-27T13:51:29Z</time>
      </trkpt>
      <trkpt lat="45.98042" lon="6.22611">
        <ele>764.4</ele>
        <time>2021-03-27T13:51:30Z</time>
      </trkpt>
      <trkpt lat="45.98037" lon="6.22604">
        <ele>764.4</ele>
        <time>2021-03-27T13:51:31Z</time>
      </trkpt>
      <trkpt lat="45.98033" lon="6.22598">
        <ele>764.4</ele>
        <time>2021-03-27T13:51:32Z</time>
      </trkpt>
      <trkpt lat="45.98028" lon="6.22592">
        <ele>764.6</ele>
        <time>2021-03-27T13:51:33Z</time>
      </trkpt>
      <trkpt lat="45.98023" lon="6.22586">
        <ele>764.6</ele>
        <time>2021-03-27T13:51:34Z</time>
      </trkpt>
      <trkpt lat="45.98019" lon="6.22579">
        <ele>764.6</ele>
        <time>2021-03-27T13:51:35Z</time>
      </trkpt>
      <trkpt lat="45.98014" lon="6.22573">
        <ele>764.6</ele>
        <time>2021-03-27T13:51:36Z</time>
      </trkpt>
      <trkpt lat="45.9801" lon="6.22567">
        <ele>764.8</ele>
        <time>2021-03-27T13:51:37Z</time>
      </trkpt>
      <trkpt lat="45.98005" lon="6.22562">
        <ele>764.8</ele>
        <time>2021-03-27T13:51:38Z</time>
      </trkpt>
      <trkpt lat="45.98" lon="6.22556">
        <ele>764.8</ele>
        <time>2021-03-27T13:51:39Z</time>
      </trkpt>
      <trkpt lat="45.97995" lon="6.22551">
        <ele>764.8</ele>
        <time>2021-03-27T13:51:40Z</time>
      </trkpt>
      <trkpt lat="45.97991" lon="6.22545">
        <ele>764.8</ele>
        <time>2021-03-27T13:51:41Z</time>
      </trkpt>
      <trkpt lat="45.97986" lon="6.2254">
        <ele>764.8</ele>
        <time>2021-03-27T13:51:42Z</time>
      </trkpt>
      <trkpt lat="45.97981" lon="6.22535">
        <ele>765</ele>
        <time>2021-03-27T13:51:43Z</time>
      </trkpt>
      <trkpt lat="45.97977" lon="6.2253">
        <ele>764.8</ele>
        <time>2021-03-27T13:51:44Z</time>
      </trkpt>
      <trkpt lat="45.97972" lon="6.22525">
        <ele>765</ele>
        <time>2021-03-27T13:51:45Z</time>
      </trkpt>
      <trkpt lat="45.97967" lon="6.22519">
        <ele>764.8</ele>
        <time>2021-03-27T13:51:46Z</time>
      </trkpt>
      <trkpt lat="45.97962" lon="6.22514">
        <ele>765</ele>
        <time>2021-03-27T13:51:47Z</time>
      </trkpt>
      <trkpt lat="45.97958" lon="6.22509">
        <ele>765.2</ele>
        <time>2021-03-27T13:51:48Z</time>
      </trkpt>
      <trkpt lat="45.97953" lon="6.22504">
        <ele>765.2</ele>
        <time>2021-03-27T13:51:49Z</time>
      </trkpt>
      <trkpt lat="45.97948" lon="6.22499">
        <ele>765.4</ele>
        <time>2021-03-27T13:51:50Z</time>
      </trkpt>
      <trkpt lat="45.97943" lon="6.22494">
        <ele>765.2</ele>
        <time>2021-03-27T13:51:51Z</time>
      </trkpt>
      <trkpt lat="45.97938" lon="6.22488">
        <ele>765.4</ele>
        <time>2021-03-27T13:51:52Z</time>
      </trkpt>
      <trkpt lat="45.97934" lon="6.22483">
        <ele>765.4</ele>
        <time>2021-03-27T13:51:53Z</time>
      </trkpt>
      <trkpt lat="45.97929" lon="6.22477">
        <ele>765.6</ele>
        <time>2021-03-27T13:51:54Z</time>
      </trkpt>
      <trkpt lat="45.97924" lon="6.22471">
        <ele>765.6</ele>
        <time>2021-03-27T13:51:55Z</time>
      </trkpt>
      <trkpt lat="45.9792" lon="6.22464">
        <ele>765.8</ele>
        <time>2021-03-27T13:51:56Z</time>
      </trkpt>
      <trkpt lat="45.97917" lon="6.22457">
        <ele>765.8</ele>
        <time>2021-03-27T13:51:57Z</time>
      </trkpt>
      <trkpt lat="45.97913" lon="6.22449">
        <ele>766</ele>
        <time>2021-03-27T13:51:58Z</time>
      </trkpt>
      <trkpt lat="45.9791" lon="6.22442">
        <ele>766</ele>
        <time>2021-03-27T13:51:59Z</time>
      </trkpt>
      <trkpt lat="45.97907" lon="6.22434">
        <ele>766.2</ele>
        <time>2021-03-27T13:52:00Z</time>
      </trkpt>
      <trkpt lat="45.97905" lon="6.22426">
        <ele>766.2</ele>
        <time>2021-03-27T13:52:01Z</time>
      </trkpt>
      <trkpt lat="45.97902" lon="6.22418">
        <ele>766</ele>
        <time>2021-03-27T13:52:02Z</time>
      </trkpt>
      <trkpt lat="45.979" lon="6.2241">
        <ele>766</ele>
        <time>2021-03-27T13:52:03Z</time>
      </trkpt>
      <trkpt lat="45.97897" lon="6.22402">
        <ele>766.2</ele>
        <time>2021-03-27T13:52:04Z</time>
      </trkpt>
      <trkpt lat="45.97895" lon="6.22394">
        <ele>766.2</ele>
        <time>2021-03-27T13:52:05Z</time>
      </trkpt>
      <trkpt lat="45.97893" lon="6.22386">
        <ele>766.2</ele>
        <time>2021-03-27T13:52:06Z</time>
      </trkpt>
      <trkpt lat="45.9789" lon="6.22378">
        <ele>766.4</ele>
        <time>2021-03-27T13:52:07Z</time>
      </trkpt>
      <trkpt lat="45.97887" lon="6.2237">
        <ele>766.4</ele>
        <time>2021-03-27T13:52:08Z</time>
      </trkpt>
      <trkpt lat="45.97885" lon="6.22363">
        <ele>766.4</ele>
        <time>2021-03-27T13:52:09Z</time>
      </trkpt>
      <trkpt lat="45.97882" lon="6.22356">
        <ele>766.4</ele>
        <time>2021-03-27T13:52:10Z</time>
      </trkpt>
      <trkpt lat="45.9788" lon="6.22349">
        <ele>766.4</ele>
        <time>2021-03-27T13:52:11Z</time>
      </trkpt>
      <trkpt lat="45.97877" lon="6.22342">
        <ele>766.4</ele>
        <time>2021-03-27T13:52:12Z</time>
      </trkpt>
      <trkpt lat="45.97874" lon="6.22335">
        <ele>766.6</ele>
        <time>2021-03-27T13:52:13Z</time>
      </trkpt>
      <trkpt lat="45.97871" lon="6.22328">
        <ele>766.6</ele>
        <time>2021-03-27T13:52:14Z</time>
      </trkpt>
      <trkpt lat="45.97868" lon="6.22322">
        <ele>766.6</ele>
        <time>2021-03-27T13:52:15Z</time>
      </trkpt>
      <trkpt lat="45.97864" lon="6.22316">
        <ele>766.6</ele>
        <time>2021-03-27T13:52:16Z</time>
      </trkpt>
      <trkpt lat="45.97861" lon="6.22311">
        <ele>766.8</ele>
        <time>2021-03-27T13:52:17Z</time>
      </trkpt>
      <trkpt lat="45.97857" lon="6.22306">
        <ele>766.8</ele>
        <time>2021-03-27T13:52:18Z</time>
      </trkpt>
      <trkpt lat="45.97853" lon="6.223">
        <ele>767</ele>
        <time>2021-03-27T13:52:19Z</time>
      </trkpt>
      <trkpt lat="45.97849" lon="6.22295">
        <ele>767</ele>
        <time>2021-03-27T13:52:20Z</time>
      </trkpt>
      <trkpt lat="45.97845" lon="6.22289">
        <ele>767.2</ele>
        <time>2021-03-27T13:52:21Z</time>
      </trkpt>
      <trkpt lat="45.97841" lon="6.22284">
        <ele>767.2</ele>
        <time>2021-03-27T13:52:22Z</time>
      </trkpt>
      <trkpt lat="45.97837" lon="6.22278">
        <ele>767.2</ele>
        <time>2021-03-27T13:52:23Z</time>
      </trkpt>
      <trkpt lat="45.97833" lon="6.22273">
        <ele>767.4</ele>
        <time>2021-03-27T13:52:24Z</time>
      </trkpt>
      <trkpt lat="45.97829" lon="6.22268">
        <ele>767.4</ele>
        <time>2021-03-27T13:52:25Z</time>
      </trkpt>
      <trkpt lat="45.97825" lon="6.22263">
        <ele>767.4</ele>
        <time>2021-03-27T13:52:26Z</time>
      </trkpt>
      <trkpt lat="45.97821" lon="6.22259">
        <ele>767.4</ele>
        <time>2021-03-27T13:52:27Z</time>
      </trkpt>
      <trkpt lat="45.97816" lon="6.22254">
        <ele>767.4</ele>
        <time>2021-03-27T13:52:28Z</time>
      </trkpt>
      <trkpt lat="45.97812" lon="6.22249">
        <ele>767.8</ele>
        <time>2021-03-27T13:52:29Z</time>
      </trkpt>
      <trkpt lat="45.97808" lon="6.22244">
        <ele>767.8</ele>
        <time>2021-03-27T13:52:30Z</time>
      </trkpt>
      <trkpt lat="45.97803" lon="6.22239">
        <ele>767.8</ele>
        <time>2021-03-27T13:52:31Z</time>
      </trkpt>
      <trkpt lat="45.97799" lon="6.22234">
        <ele>768</ele>
        <time>2021-03-27T13:52:32Z</time>
      </trkpt>
      <trkpt lat="45.97795" lon="6.22229">
        <ele>768</ele>
        <time>2021-03-27T13:52:33Z</time>
      </trkpt>
      <trkpt lat="45.97791" lon="6.22223">
        <ele>768</ele>
        <time>2021-03-27T13:52:34Z</time>
      </trkpt>
      <trkpt lat="45.97787" lon="6.22218">
        <ele>768.4</ele>
        <time>2021-03-27T13:52:35Z</time>
      </trkpt>
      <trkpt lat="45.97784" lon="6.22212">
        <ele>768.6</ele>
        <time>2021-03-27T13:52:36Z</time>
      </trkpt>
      <trkpt lat="45.9778" lon="6.22207">
        <ele>768.8</ele>
        <time>2021-03-27T13:52:37Z</time>
      </trkpt>
      <trkpt lat="45.97776" lon="6.22201">
        <ele>768.6</ele>
        <time>2021-03-27T13:52:38Z</time>
      </trkpt>
      <trkpt lat="45.97773" lon="6.22195">
        <ele>768.8</ele>
        <time>2021-03-27T13:52:39Z</time>
      </trkpt>
      <trkpt lat="45.97771" lon="6.2219">
        <ele>768.8</ele>
        <time>2021-03-27T13:52:40Z</time>
      </trkpt>
      <trkpt lat="45.97768" lon="6.22184">
        <ele>768.8</ele>
        <time>2021-03-27T13:52:41Z</time>
      </trkpt>
      <trkpt lat="45.97765" lon="6.22178">
        <ele>769</ele>
        <time>2021-03-27T13:52:42Z</time>
      </trkpt>
      <trkpt lat="45.97762" lon="6.22172">
        <ele>769.2</ele>
        <time>2021-03-27T13:52:43Z</time>
      </trkpt>
      <trkpt lat="45.97759" lon="6.22167">
        <ele>769.2</ele>
        <time>2021-03-27T13:52:44Z</time>
      </trkpt>
      <trkpt lat="45.97757" lon="6.22162">
        <ele>769.4</ele>
        <time>2021-03-27T13:52:45Z</time>
      </trkpt>
      <trkpt lat="45.97755" lon="6.22157">
        <ele>769.8</ele>
        <time>2021-03-27T13:52:46Z</time>
      </trkpt>
      <trkpt lat="45.97752" lon="6.22152">
        <ele>769.8</ele>
        <time>2021-03-27T13:52:47Z</time>
      </trkpt>
      <trkpt lat="45.9775" lon="6.22147">
        <ele>770.2</ele>
        <time>2021-03-27T13:52:48Z</time>
      </trkpt>
      <trkpt lat="45.97748" lon="6.22142">
        <ele>770.2</ele>
        <time>2021-03-27T13:52:49Z</time>
      </trkpt>
      <trkpt lat="45.97746" lon="6.22137">
        <ele>770.2</ele>
        <time>2021-03-27T13:52:50Z</time>
      </trkpt>
      <trkpt lat="45.97744" lon="6.22132">
        <ele>770.4</ele>
        <time>2021-03-27T13:52:51Z</time>
      </trkpt>
      <trkpt lat="45.97741" lon="6.22128">
        <ele>770.6</ele>
        <time>2021-03-27T13:52:52Z</time>
      </trkpt>
      <trkpt lat="45.97739" lon="6.22124">
        <ele>771</ele>
        <time>2021-03-27T13:52:53Z</time>
      </trkpt>
      <trkpt lat="45.97737" lon="6.22119">
        <ele>771.4</ele>
        <time>2021-03-27T13:52:54Z</time>
      </trkpt>
      <trkpt lat="45.97735" lon="6.22115">
        <ele>771.8</ele>
        <time>2021-03-27T13:52:55Z</time>
      </trkpt>
      <trkpt lat="45.97733" lon="6.22111">
        <ele>772.2</ele>
        <time>2021-03-27T13:52:56Z</time>
      </trkpt>
      <trkpt lat="45.97731" lon="6.22106">
        <ele>772.6</ele>
        <time>2021-03-27T13:52:57Z</time>
      </trkpt>
      <trkpt lat="45.97729" lon="6.22102">
        <ele>773</ele>
        <time>2021-03-27T13:52:58Z</time>
      </trkpt>
      <trkpt lat="45.97727" lon="6.22097">
        <ele>773.2</ele>
        <time>2021-03-27T13:52:59Z</time>
      </trkpt>
      <trkpt lat="45.97725" lon="6.22093">
        <ele>773.6</ele>
        <time>2021-03-27T13:53:00Z</time>
      </trkpt>
      <trkpt lat="45.97723" lon="6.22088">
        <ele>774</ele>
        <time>2021-03-27T13:53:01Z</time>
      </trkpt>
      <trkpt lat="45.9772" lon="6.22084">
        <ele>774.2</ele>
        <time>2021-03-27T13:53:02Z</time>
      </trkpt>
      <trkpt lat="45.97718" lon="6.22079">
        <ele>774.6</ele>
        <time>2021-03-27T13:53:03Z</time>
      </trkpt>
      <trkpt lat="45.97716" lon="6.22075">
        <ele>774.8</ele>
        <time>2021-03-27T13:53:04Z</time>
      </trkpt>
      <trkpt lat="45.97714" lon="6.22071">
        <ele>775.2</ele>
        <time>2021-03-27T13:53:05Z</time>
      </trkpt>
      <trkpt lat="45.97712" lon="6.22066">
        <ele>775.6</ele>
        <time>2021-03-27T13:53:06Z</time>
      </trkpt>
      <trkpt lat="45.9771" lon="6.22062">
        <ele>775.8</ele>
        <time>2021-03-27T13:53:07Z</time>
      </trkpt>
      <trkpt lat="45.97708" lon="6.22058">
        <ele>776.2</ele>
        <time>2021-03-27T13:53:08Z</time>
      </trkpt>
      <trkpt lat="45.97705" lon="6.22054">
        <ele>776.6</ele>
        <time>2021-03-27T13:53:09Z</time>
      </trkpt>
      <trkpt lat="45.97704" lon="6.2205">
        <ele>776.8</ele>
        <time>2021-03-27T13:53:10Z</time>
      </trkpt>
      <trkpt lat="45.97702" lon="6.22047">
        <ele>777</ele>
        <time>2021-03-27T13:53:11Z</time>
      </trkpt>
      <trkpt lat="45.97698" lon="6.22041">
        <ele>777.6</ele>
        <time>2021-03-27T13:53:13Z</time>
      </trkpt>
      <trkpt lat="45.97696" lon="6.22038">
        <ele>777.8</ele>
        <time>2021-03-27T13:53:14Z</time>
      </trkpt>
      <trkpt lat="45.97693" lon="6.22032">
        <ele>778.2</ele>
        <time>2021-03-27T13:53:16Z</time>
      </trkpt>
      <trkpt lat="45.97691" lon="6.22029">
        <ele>778.6</ele>
        <time>2021-03-27T13:53:17Z</time>
      </trkpt>
      <trkpt lat="45.97689" lon="6.22027">
        <ele>778.8</ele>
        <time>2021-03-27T13:53:18Z</time>
      </trkpt>
      <trkpt lat="45.97684" lon="6.22023">
        <ele>779</ele>
        <time>2021-03-27T13:53:20Z</time>
      </trkpt>
      <trkpt lat="45.97682" lon="6.22022">
        <ele>779.2</ele>
        <time>2021-03-27T13:53:21Z</time>
      </trkpt>
      <trkpt lat="45.97677" lon="6.22018">
        <ele>779.6</ele>
        <time>2021-03-27T13:53:23Z</time>
      </trkpt>
      <trkpt lat="45.97674" lon="6.22016">
        <ele>780</ele>
        <time>2021-03-27T13:53:24Z</time>
      </trkpt>
      <trkpt lat="45.97671" lon="6.22014">
        <ele>780.2</ele>
        <time>2021-03-27T13:53:25Z</time>
      </trkpt>
      <trkpt lat="45.97665" lon="6.22012">
        <ele>780.6</ele>
        <time>2021-03-27T13:53:27Z</time>
      </trkpt>
      <trkpt lat="45.97663" lon="6.22011">
        <ele>780.8</ele>
        <time>2021-03-27T13:53:28Z</time>
      </trkpt>
      <trkpt lat="45.97658" lon="6.22009">
        <ele>781.4</ele>
        <time>2021-03-27T13:53:30Z</time>
      </trkpt>
      <trkpt lat="45.97655" lon="6.22008">
        <ele>781.6</ele>
        <time>2021-03-27T13:53:31Z</time>
      </trkpt>
      <trkpt lat="45.97653" lon="6.22007">
        <ele>781.8</ele>
        <time>2021-03-27T13:53:32Z</time>
      </trkpt>
      <trkpt lat="45.97648" lon="6.22005">
        <ele>782.2</ele>
        <time>2021-03-27T13:53:34Z</time>
      </trkpt>
      <trkpt lat="45.97644" lon="6.22004">
        <ele>782.6</ele>
        <time>2021-03-27T13:53:35Z</time>
      </trkpt>
      <trkpt lat="45.97637" lon="6.22002">
        <ele>783</ele>
        <time>2021-03-27T13:53:37Z</time>
      </trkpt>
      <trkpt lat="45.97633" lon="6.22001">
        <ele>783.2</ele>
        <time>2021-03-27T13:53:38Z</time>
      </trkpt>
      <trkpt lat="45.97629" lon="6.22001">
        <ele>783.2</ele>
        <time>2021-03-27T13:53:39Z</time>
      </trkpt>
      <trkpt lat="45.97621" lon="6.22">
        <ele>783.8</ele>
        <time>2021-03-27T13:53:41Z</time>
      </trkpt>
      <trkpt lat="45.97617" lon="6.21999">
        <ele>784</ele>
        <time>2021-03-27T13:53:42Z</time>
      </trkpt>
      <trkpt lat="45.97613" lon="6.21998">
        <ele>784.2</ele>
        <time>2021-03-27T13:53:43Z</time>
      </trkpt>
      <trkpt lat="45.9761" lon="6.21997">
        <ele>784.4</ele>
        <time>2021-03-27T13:53:44Z</time>
      </trkpt>
      <trkpt lat="45.97606" lon="6.21997">
        <ele>784.4</ele>
        <time>2021-03-27T13:53:45Z</time>
      </trkpt>
      <trkpt lat="45.97603" lon="6.21996">
        <ele>784.4</ele>
        <time>2021-03-27T13:53:46Z</time>
      </trkpt>
      <trkpt lat="45.97595" lon="6.21994">
        <ele>785</ele>
        <time>2021-03-27T13:53:48Z</time>
      </trkpt>
      <trkpt lat="45.97591" lon="6.21993">
        <ele>785.2</ele>
        <time>2021-03-27T13:53:49Z</time>
      </trkpt>
      <trkpt lat="45.97587" lon="6.21991">
        <ele>785.4</ele>
        <time>2021-03-27T13:53:50Z</time>
      </trkpt>
      <trkpt lat="45.97582" lon="6.21989">
        <ele>785.6</ele>
        <time>2021-03-27T13:53:51Z</time>
      </trkpt>
      <trkpt lat="45.97577" lon="6.21986">
        <ele>785.6</ele>
        <time>2021-03-27T13:53:52Z</time>
      </trkpt>
      <trkpt lat="45.97572" lon="6.21982">
        <ele>786</ele>
        <time>2021-03-27T13:53:53Z</time>
      </trkpt>
      <trkpt lat="45.97568" lon="6.21978">
        <ele>786.2</ele>
        <time>2021-03-27T13:53:54Z</time>
      </trkpt>
      <trkpt lat="45.97566" lon="6.21973">
        <ele>786.4</ele>
        <time>2021-03-27T13:53:55Z</time>
      </trkpt>
      <trkpt lat="45.97564" lon="6.21968">
        <ele>786.6</ele>
        <time>2021-03-27T13:53:56Z</time>
      </trkpt>
      <trkpt lat="45.97562" lon="6.21958">
        <ele>786.8</ele>
        <time>2021-03-27T13:53:58Z</time>
      </trkpt>
      <trkpt lat="45.97563" lon="6.21953">
        <ele>786.8</ele>
        <time>2021-03-27T13:53:59Z</time>
      </trkpt>
      <trkpt lat="45.97565" lon="6.21948">
        <ele>787</ele>
        <time>2021-03-27T13:54:00Z</time>
      </trkpt>
      <trkpt lat="45.97566" lon="6.21944">
        <ele>787</ele>
        <time>2021-03-27T13:54:01Z</time>
      </trkpt>
      <trkpt lat="45.97567" lon="6.21934">
        <ele>787.6</ele>
        <time>2021-03-27T13:54:03Z</time>
      </trkpt>
      <trkpt lat="45.97568" lon="6.21929">
        <ele>788</ele>
        <time>2021-03-27T13:54:04Z</time>
      </trkpt>
      <trkpt lat="45.97569" lon="6.21923">
        <ele>788.2</ele>
        <time>2021-03-27T13:54:05Z</time>
      </trkpt>
      <trkpt lat="45.9757" lon="6.21919">
        <ele>788.4</ele>
        <time>2021-03-27T13:54:06Z</time>
      </trkpt>
      <trkpt lat="45.9757" lon="6.21914">
        <ele>788.6</ele>
        <time>2021-03-27T13:54:07Z</time>
      </trkpt>
      <trkpt lat="45.9757" lon="6.21909">
        <ele>788.8</ele>
        <time>2021-03-27T13:54:08Z</time>
      </trkpt>
      <trkpt lat="45.97569" lon="6.21905">
        <ele>789</ele>
        <time>2021-03-27T13:54:09Z</time>
      </trkpt>
      <trkpt lat="45.97569" lon="6.219">
        <ele>789.2</ele>
        <time>2021-03-27T13:54:10Z</time>
      </trkpt>
      <trkpt lat="45.97568" lon="6.21896">
        <ele>789.6</ele>
        <time>2021-03-27T13:54:11Z</time>
      </trkpt>
      <trkpt lat="45.97567" lon="6.21892">
        <ele>789.8</ele>
        <time>2021-03-27T13:54:12Z</time>
      </trkpt>
      <trkpt lat="45.97566" lon="6.21887">
        <ele>790</ele>
        <time>2021-03-27T13:54:13Z</time>
      </trkpt>
      <trkpt lat="45.97565" lon="6.21883">
        <ele>790.2</ele>
        <time>2021-03-27T13:54:14Z</time>
      </trkpt>
      <trkpt lat="45.97564" lon="6.21878">
        <ele>790.2</ele>
        <time>2021-03-27T13:54:15Z</time>
      </trkpt>
      <trkpt lat="45.97562" lon="6.21874">
        <ele>790.4</ele>
        <time>2021-03-27T13:54:16Z</time>
      </trkpt>
      <trkpt lat="45.9756" lon="6.21867">
        <ele>791.2</ele>
        <time>2021-03-27T13:54:18Z</time>
      </trkpt>
      <trkpt lat="45.97558" lon="6.21863">
        <ele>791.4</ele>
        <time>2021-03-27T13:54:19Z</time>
      </trkpt>
      <trkpt lat="45.97557" lon="6.21859">
        <ele>791.6</ele>
        <time>2021-03-27T13:54:20Z</time>
      </trkpt>
      <trkpt lat="45.97555" lon="6.21856">
        <ele>792</ele>
        <time>2021-03-27T13:54:21Z</time>
      </trkpt>
      <trkpt lat="45.97553" lon="6.21852">
        <ele>792.2</ele>
        <time>2021-03-27T13:54:22Z</time>
      </trkpt>
      <trkpt lat="45.97552" lon="6.21849">
        <ele>792.6</ele>
        <time>2021-03-27T13:54:23Z</time>
      </trkpt>
      <trkpt lat="45.9755" lon="6.21845">
        <ele>793</ele>
        <time>2021-03-27T13:54:24Z</time>
      </trkpt>
      <trkpt lat="45.97547" lon="6.21838">
        <ele>793.4</ele>
        <time>2021-03-27T13:54:26Z</time>
      </trkpt>
      <trkpt lat="45.97545" lon="6.21834">
        <ele>793.2</ele>
        <time>2021-03-27T13:54:27Z</time>
      </trkpt>
      <trkpt lat="45.97543" lon="6.2183">
        <ele>793.6</ele>
        <time>2021-03-27T13:54:28Z</time>
      </trkpt>
      <trkpt lat="45.97541" lon="6.21826">
        <ele>794</ele>
        <time>2021-03-27T13:54:29Z</time>
      </trkpt>
      <trkpt lat="45.9754" lon="6.21823">
        <ele>794</ele>
        <time>2021-03-27T13:54:30Z</time>
      </trkpt>
      <trkpt lat="45.97538" lon="6.21819">
        <ele>794.4</ele>
        <time>2021-03-27T13:54:31Z</time>
      </trkpt>
      <trkpt lat="45.97536" lon="6.21812">
        <ele>794.4</ele>
        <time>2021-03-27T13:54:33Z</time>
      </trkpt>
      <trkpt lat="45.97536" lon="6.21807">
        <ele>794.6</ele>
        <time>2021-03-27T13:54:34Z</time>
      </trkpt>
      <trkpt lat="45.97535" lon="6.21803">
        <ele>794.6</ele>
        <time>2021-03-27T13:54:35Z</time>
      </trkpt>
      <trkpt lat="45.97534" lon="6.21798">
        <ele>794.8</ele>
        <time>2021-03-27T13:54:36Z</time>
      </trkpt>
      <trkpt lat="45.97534" lon="6.21794">
        <ele>795</ele>
        <time>2021-03-27T13:54:37Z</time>
      </trkpt>
      <trkpt lat="45.97533" lon="6.2179">
        <ele>795.2</ele>
        <time>2021-03-27T13:54:38Z</time>
      </trkpt>
      <trkpt lat="45.97532" lon="6.21781">
        <ele>795.8</ele>
        <time>2021-03-27T13:54:40Z</time>
      </trkpt>
      <trkpt lat="45.97532" lon="6.21776">
        <ele>796</ele>
        <time>2021-03-27T13:54:41Z</time>
      </trkpt>
      <trkpt lat="45.97531" lon="6.21771">
        <ele>796.2</ele>
        <time>2021-03-27T13:54:42Z</time>
      </trkpt>
      <trkpt lat="45.97531" lon="6.21767">
        <ele>796.4</ele>
        <time>2021-03-27T13:54:43Z</time>
      </trkpt>
      <trkpt lat="45.97531" lon="6.21763">
        <ele>796.4</ele>
        <time>2021-03-27T13:54:44Z</time>
      </trkpt>
      <trkpt lat="45.9753" lon="6.21758">
        <ele>796.8</ele>
        <time>2021-03-27T13:54:45Z</time>
      </trkpt>
      <trkpt lat="45.9753" lon="6.21754">
        <ele>797</ele>
        <time>2021-03-27T13:54:46Z</time>
      </trkpt>
      <trkpt lat="45.97529" lon="6.21749">
        <ele>797.4</ele>
        <time>2021-03-27T13:54:47Z</time>
      </trkpt>
      <trkpt lat="45.97529" lon="6.21744">
        <ele>797.4</ele>
        <time>2021-03-27T13:54:48Z</time>
      </trkpt>
      <trkpt lat="45.97528" lon="6.2174">
        <ele>798</ele>
        <time>2021-03-27T13:54:49Z</time>
      </trkpt>
      <trkpt lat="45.97528" lon="6.21735">
        <ele>798.2</ele>
        <time>2021-03-27T13:54:50Z</time>
      </trkpt>
      <trkpt lat="45.97527" lon="6.21731">
        <ele>798.6</ele>
        <time>2021-03-27T13:54:51Z</time>
      </trkpt>
      <trkpt lat="45.97527" lon="6.21726">
        <ele>798.8</ele>
        <time>2021-03-27T13:54:52Z</time>
      </trkpt>
      <trkpt lat="45.97526" lon="6.21717">
        <ele>799.2</ele>
        <time>2021-03-27T13:54:54Z</time>
      </trkpt>
      <trkpt lat="45.97526" lon="6.21712">
        <ele>799.4</ele>
        <time>2021-03-27T13:54:55Z</time>
      </trkpt>
      <trkpt lat="45.97526" lon="6.21708">
        <ele>799.6</ele>
        <time>2021-03-27T13:54:56Z</time>
      </trkpt>
      <trkpt lat="45.97526" lon="6.21703">
        <ele>800</ele>
        <time>2021-03-27T13:54:57Z</time>
      </trkpt>
      <trkpt lat="45.97526" lon="6.21699">
        <ele>800.2</ele>
        <time>2021-03-27T13:54:58Z</time>
      </trkpt>
      <trkpt lat="45.97526" lon="6.21694">
        <ele>800.2</ele>
        <time>2021-03-27T13:54:59Z</time>
      </trkpt>
      <trkpt lat="45.97526" lon="6.21686">
        <ele>800.6</ele>
        <time>2021-03-27T13:55:01Z</time>
      </trkpt>
      <trkpt lat="45.97527" lon="6.21683">
        <ele>800.6</ele>
        <time>2021-03-27T13:55:02Z</time>
      </trkpt>
      <trkpt lat="45.97527" lon="6.21679">
        <ele>800.6</ele>
        <time>2021-03-27T13:55:03Z</time>
      </trkpt>
      <trkpt lat="45.97528" lon="6.21676">
        <ele>800.8</ele>
        <time>2021-03-27T13:55:04Z</time>
      </trkpt>
      <trkpt lat="45.97529" lon="6.21673">
        <ele>801</ele>
        <time>2021-03-27T13:55:05Z</time>
      </trkpt>
      <trkpt lat="45.9753" lon="6.21666">
        <ele>801.6</ele>
        <time>2021-03-27T13:55:07Z</time>
      </trkpt>
      <trkpt lat="45.97532" lon="6.21659">
        <ele>802.2</ele>
        <time>2021-03-27T13:55:09Z</time>
      </trkpt>
      <trkpt lat="45.97533" lon="6.21656">
        <ele>802.4</ele>
        <time>2021-03-27T13:55:10Z</time>
      </trkpt>
      <trkpt lat="45.97534" lon="6.21653">
        <ele>803</ele>
        <time>2021-03-27T13:55:11Z</time>
      </trkpt>
      <trkpt lat="45.97536" lon="6.2165">
        <ele>803.2</ele>
        <time>2021-03-27T13:55:12Z</time>
      </trkpt>
      <trkpt lat="45.97537" lon="6.21648">
        <ele>803.4</ele>
        <time>2021-03-27T13:55:13Z</time>
      </trkpt>
      <trkpt lat="45.97538" lon="6.21646">
        <ele>803.8</ele>
        <time>2021-03-27T13:55:14Z</time>
      </trkpt>
      <trkpt lat="45.97539" lon="6.21643">
        <ele>804.2</ele>
        <time>2021-03-27T13:55:15Z</time>
      </trkpt>
      <trkpt lat="45.9754" lon="6.21641">
        <ele>804.4</ele>
        <time>2021-03-27T13:55:16Z</time>
      </trkpt>
      <trkpt lat="45.97542" lon="6.21639">
        <ele>804.6</ele>
        <time>2021-03-27T13:55:17Z</time>
      </trkpt>
      <trkpt lat="45.97543" lon="6.21637">
        <ele>805</ele>
        <time>2021-03-27T13:55:18Z</time>
      </trkpt>
      <trkpt lat="45.97545" lon="6.21635">
        <ele>805.4</ele>
        <time>2021-03-27T13:55:19Z</time>
      </trkpt>
      <trkpt lat="45.97547" lon="6.21634">
        <ele>806</ele>
        <time>2021-03-27T13:55:20Z</time>
      </trkpt>
      <trkpt lat="45.97549" lon="6.21633">
        <ele>806.4</ele>
        <time>2021-03-27T13:55:21Z</time>
      </trkpt>
      <trkpt lat="45.9755" lon="6.21632">
        <ele>806.8</ele>
        <time>2021-03-27T13:55:22Z</time>
      </trkpt>
      <trkpt lat="45.97553" lon="6.21632">
        <ele>807</ele>
        <time>2021-03-27T13:55:23Z</time>
      </trkpt>
      <trkpt lat="45.97554" lon="6.21632">
        <ele>807.4</ele>
        <time>2021-03-27T13:55:24Z</time>
      </trkpt>
      <trkpt lat="45.97558" lon="6.21632">
        <ele>807.8</ele>
        <time>2021-03-27T13:55:26Z</time>
      </trkpt>
      <trkpt lat="45.9756" lon="6.21632">
        <ele>808.2</ele>
        <time>2021-03-27T13:55:27Z</time>
      </trkpt>
      <trkpt lat="45.97562" lon="6.21633">
        <ele>808.4</ele>
        <time>2021-03-27T13:55:28Z</time>
      </trkpt>
      <trkpt lat="45.97565" lon="6.21634">
        <ele>809.2</ele>
        <time>2021-03-27T13:55:30Z</time>
      </trkpt>
      <trkpt lat="45.97567" lon="6.21635">
        <ele>809.6</ele>
        <time>2021-03-27T13:55:31Z</time>
      </trkpt>
      <trkpt lat="45.97568" lon="6.21635">
        <ele>810</ele>
        <time>2021-03-27T13:55:32Z</time>
      </trkpt>
      <trkpt lat="45.9757" lon="6.21636">
        <ele>810.4</ele>
        <time>2021-03-27T13:55:33Z</time>
      </trkpt>
      <trkpt lat="45.97572" lon="6.21637">
        <ele>810.6</ele>
        <time>2021-03-27T13:55:34Z</time>
      </trkpt>
      <trkpt lat="45.97574" lon="6.21638">
        <ele>811.2</ele>
        <time>2021-03-27T13:55:35Z</time>
      </trkpt>
      <trkpt lat="45.9758" lon="6.2164">
        <ele>811.8</ele>
        <time>2021-03-27T13:55:37Z</time>
      </trkpt>
      <trkpt lat="45.97582" lon="6.21641">
        <ele>812.2</ele>
        <time>2021-03-27T13:55:38Z</time>
      </trkpt>
      <trkpt lat="45.97586" lon="6.21643">
        <ele>812.8</ele>
        <time>2021-03-27T13:55:40Z</time>
      </trkpt>
      <trkpt lat="45.97589" lon="6.21644">
        <ele>813</ele>
        <time>2021-03-27T13:55:41Z</time>
      </trkpt>
      <trkpt lat="45.97591" lon="6.21645">
        <ele>813.2</ele>
        <time>2021-03-27T13:55:42Z</time>
      </trkpt>
      <trkpt lat="45.97596" lon="6.21646">
        <ele>813.8</ele>
        <time>2021-03-27T13:55:44Z</time>
      </trkpt>
      <trkpt lat="45.97598" lon="6.21647">
        <ele>814</ele>
        <time>2021-03-27T13:55:45Z</time>
      </trkpt>
      <trkpt lat="45.97601" lon="6.21648">
        <ele>814.4</ele>
        <time>2021-03-27T13:55:46Z</time>
      </trkpt>
      <trkpt lat="45.97603" lon="6.2165">
        <ele>814.6</ele>
        <time>2021-03-27T13:55:47Z</time>
      </trkpt>
      <trkpt lat="45.97608" lon="6.21652">
        <ele>814.8</ele>
        <time>2021-03-27T13:55:49Z</time>
      </trkpt>
      <trkpt lat="45.9761" lon="6.21653">
        <ele>815.2</ele>
        <time>2021-03-27T13:55:50Z</time>
      </trkpt>
      <trkpt lat="45.97615" lon="6.21654">
        <ele>815.6</ele>
        <time>2021-03-27T13:55:52Z</time>
      </trkpt>
      <trkpt lat="45.97618" lon="6.21655">
        <ele>816</ele>
        <time>2021-03-27T13:55:53Z</time>
      </trkpt>
      <trkpt lat="45.97621" lon="6.21656">
        <ele>816.2</ele>
        <time>2021-03-27T13:55:54Z</time>
      </trkpt>
      <trkpt lat="45.97626" lon="6.21658">
        <ele>816.8</ele>
        <time>2021-03-27T13:55:56Z</time>
      </trkpt>
      <trkpt lat="45.97628" lon="6.21659">
        <ele>817</ele>
        <time>2021-03-27T13:55:57Z</time>
      </trkpt>
      <trkpt lat="45.97633" lon="6.21661">
        <ele>817.6</ele>
        <time>2021-03-27T13:55:59Z</time>
      </trkpt>
      <trkpt lat="45.97636" lon="6.21663">
        <ele>818</ele>
        <time>2021-03-27T13:56:00Z</time>
      </trkpt>
      <trkpt lat="45.97638" lon="6.21664">
        <ele>818.2</ele>
        <time>2021-03-27T13:56:01Z</time>
      </trkpt>
      <trkpt lat="45.97643" lon="6.21666">
        <ele>818.8</ele>
        <time>2021-03-27T13:56:03Z</time>
      </trkpt>
      <trkpt lat="45.97645" lon="6.21666">
        <ele>819.2</ele>
        <time>2021-03-27T13:56:04Z</time>
      </trkpt>
      <trkpt lat="45.97648" lon="6.21666">
        <ele>819.4</ele>
        <time>2021-03-27T13:56:05Z</time>
      </trkpt>
      <trkpt lat="45.9765" lon="6.21665">
        <ele>819.8</ele>
        <time>2021-03-27T13:56:06Z</time>
      </trkpt>
      <trkpt lat="45.97653" lon="6.21663">
        <ele>820</ele>
        <time>2021-03-27T13:56:07Z</time>
      </trkpt>
      <trkpt lat="45.97655" lon="6.21662">
        <ele>820.4</ele>
        <time>2021-03-27T13:56:08Z</time>
      </trkpt>
      <trkpt lat="45.97657" lon="6.21659">
        <ele>820.6</ele>
        <time>2021-03-27T13:56:09Z</time>
      </trkpt>
      <trkpt lat="45.97659" lon="6.21657">
        <ele>820.8</ele>
        <time>2021-03-27T13:56:10Z</time>
      </trkpt>
      <trkpt lat="45.97662" lon="6.21654">
        <ele>821.2</ele>
        <time>2021-03-27T13:56:11Z</time>
      </trkpt>
      <trkpt lat="45.97664" lon="6.21651">
        <ele>821.2</ele>
        <time>2021-03-27T13:56:12Z</time>
      </trkpt>
      <trkpt lat="45.97665" lon="6.21648">
        <ele>821.6</ele>
        <time>2021-03-27T13:56:13Z</time>
      </trkpt>
      <trkpt lat="45.97669" lon="6.21643">
        <ele>821.8</ele>
        <time>2021-03-27T13:56:15Z</time>
      </trkpt>
      <trkpt lat="45.97671" lon="6.2164">
        <ele>822</ele>
        <time>2021-03-27T13:56:16Z</time>
      </trkpt>
      <trkpt lat="45.97673" lon="6.21637">
        <ele>822.2</ele>
        <time>2021-03-27T13:56:17Z</time>
      </trkpt>
      <trkpt lat="45.97674" lon="6.21634">
        <ele>822</ele>
        <time>2021-03-27T13:56:18Z</time>
      </trkpt>
      <trkpt lat="45.97676" lon="6.21631">
        <ele>822.2</ele>
        <time>2021-03-27T13:56:19Z</time>
      </trkpt>
      <trkpt lat="45.97678" lon="6.21628">
        <ele>822.6</ele>
        <time>2021-03-27T13:56:20Z</time>
      </trkpt>
      <trkpt lat="45.97679" lon="6.21625">
        <ele>822.8</ele>
        <time>2021-03-27T13:56:21Z</time>
      </trkpt>
      <trkpt lat="45.97681" lon="6.21622">
        <ele>822.8</ele>
        <time>2021-03-27T13:56:22Z</time>
      </trkpt>
      <trkpt lat="45.97683" lon="6.21619">
        <ele>823</ele>
        <time>2021-03-27T13:56:23Z</time>
      </trkpt>
      <trkpt lat="45.97684" lon="6.21616">
        <ele>823</ele>
        <time>2021-03-27T13:56:24Z</time>
      </trkpt>
      <trkpt lat="45.97685" lon="6.21613">
        <ele>823.2</ele>
        <time>2021-03-27T13:56:25Z</time>
      </trkpt>
      <trkpt lat="45.97687" lon="6.2161">
        <ele>823.4</ele>
        <time>2021-03-27T13:56:26Z</time>
      </trkpt>
      <trkpt lat="45.97689" lon="6.21607">
        <ele>823.8</ele>
        <time>2021-03-27T13:56:27Z</time>
      </trkpt>
      <trkpt lat="45.9769" lon="6.21604">
        <ele>824</ele>
        <time>2021-03-27T13:56:28Z</time>
      </trkpt>
      <trkpt lat="45.97692" lon="6.21602">
        <ele>824.2</ele>
        <time>2021-03-27T13:56:29Z</time>
      </trkpt>
      <trkpt lat="45.97694" lon="6.21599">
        <ele>824.4</ele>
        <time>2021-03-27T13:56:30Z</time>
      </trkpt>
      <trkpt lat="45.97695" lon="6.21596">
        <ele>824.6</ele>
        <time>2021-03-27T13:56:31Z</time>
      </trkpt>
      <trkpt lat="45.97696" lon="6.21593">
        <ele>825</ele>
        <time>2021-03-27T13:56:32Z</time>
      </trkpt>
      <trkpt lat="45.97698" lon="6.2159">
        <ele>825.2</ele>
        <time>2021-03-27T13:56:33Z</time>
      </trkpt>
      <trkpt lat="45.97699" lon="6.21587">
        <ele>825.6</ele>
        <time>2021-03-27T13:56:34Z</time>
      </trkpt>
      <trkpt lat="45.97701" lon="6.21584">
        <ele>825.6</ele>
        <time>2021-03-27T13:56:35Z</time>
      </trkpt>
      <trkpt lat="45.97702" lon="6.21581">
        <ele>826</ele>
        <time>2021-03-27T13:56:36Z</time>
      </trkpt>
      <trkpt lat="45.97704" lon="6.21579">
        <ele>826.2</ele>
        <time>2021-03-27T13:56:37Z</time>
      </trkpt>
      <trkpt lat="45.97706" lon="6.21576">
        <ele>826.6</ele>
        <time>2021-03-27T13:56:38Z</time>
      </trkpt>
      <trkpt lat="45.97707" lon="6.21573">
        <ele>826.8</ele>
        <time>2021-03-27T13:56:39Z</time>
      </trkpt>
      <trkpt lat="45.97709" lon="6.2157">
        <ele>827.4</ele>
        <time>2021-03-27T13:56:40Z</time>
      </trkpt>
      <trkpt lat="45.97711" lon="6.21567">
        <ele>827.8</ele>
        <time>2021-03-27T13:56:41Z</time>
      </trkpt>
      <trkpt lat="45.97712" lon="6.21564">
        <ele>828</ele>
        <time>2021-03-27T13:56:42Z</time>
      </trkpt>
      <trkpt lat="45.97714" lon="6.21561">
        <ele>828.2</ele>
        <time>2021-03-27T13:56:43Z</time>
      </trkpt>
      <trkpt lat="45.97716" lon="6.21558">
        <ele>828.4</ele>
        <time>2021-03-27T13:56:44Z</time>
      </trkpt>
      <trkpt lat="45.97717" lon="6.21555">
        <ele>828.8</ele>
        <time>2021-03-27T13:56:45Z</time>
      </trkpt>
      <trkpt lat="45.97719" lon="6.21552">
        <ele>829.2</ele>
        <time>2021-03-27T13:56:46Z</time>
      </trkpt>
      <trkpt lat="45.9772" lon="6.21549">
        <ele>829.6</ele>
        <time>2021-03-27T13:56:47Z</time>
      </trkpt>
      <trkpt lat="45.97722" lon="6.21546">
        <ele>829.8</ele>
        <time>2021-03-27T13:56:48Z</time>
      </trkpt>
      <trkpt lat="45.97724" lon="6.21543">
        <ele>830.2</ele>
        <time>2021-03-27T13:56:49Z</time>
      </trkpt>
      <trkpt lat="45.97726" lon="6.2154">
        <ele>830.6</ele>
        <time>2021-03-27T13:56:50Z</time>
      </trkpt>
      <trkpt lat="45.97728" lon="6.21537">
        <ele>830.8</ele>
        <time>2021-03-27T13:56:51Z</time>
      </trkpt>
      <trkpt lat="45.9773" lon="6.21534">
        <ele>831</ele>
        <time>2021-03-27T13:56:52Z</time>
      </trkpt>
      <trkpt lat="45.97731" lon="6.2153">
        <ele>831.4</ele>
        <time>2021-03-27T13:56:53Z</time>
      </trkpt>
      <trkpt lat="45.97733" lon="6.21527">
        <ele>831.6</ele>
        <time>2021-03-27T13:56:54Z</time>
      </trkpt>
      <trkpt lat="45.97735" lon="6.21523">
        <ele>832</ele>
        <time>2021-03-27T13:56:55Z</time>
      </trkpt>
      <trkpt lat="45.97736" lon="6.2152">
        <ele>832.2</ele>
        <time>2021-03-27T13:56:56Z</time>
      </trkpt>
      <trkpt lat="45.97738" lon="6.21517">
        <ele>832.4</ele>
        <time>2021-03-27T13:56:57Z</time>
      </trkpt>
      <trkpt lat="45.9774" lon="6.21513">
        <ele>832.6</ele>
        <time>2021-03-27T13:56:58Z</time>
      </trkpt>
      <trkpt lat="45.97741" lon="6.2151">
        <ele>832.6</ele>
        <time>2021-03-27T13:56:59Z</time>
      </trkpt>
      <trkpt lat="45.97743" lon="6.21507">
        <ele>832.6</ele>
        <time>2021-03-27T13:57:00Z</time>
      </trkpt>
      <trkpt lat="45.97745" lon="6.21504">
        <ele>832.8</ele>
        <time>2021-03-27T13:57:01Z</time>
      </trkpt>
      <trkpt lat="45.97747" lon="6.21501">
        <ele>833</ele>
        <time>2021-03-27T13:57:02Z</time>
      </trkpt>
      <trkpt lat="45.97749" lon="6.21497">
        <ele>833.4</ele>
        <time>2021-03-27T13:57:03Z</time>
      </trkpt>
      <trkpt lat="45.97751" lon="6.21494">
        <ele>833.6</ele>
        <time>2021-03-27T13:57:04Z</time>
      </trkpt>
      <trkpt lat="45.97754" lon="6.2149">
        <ele>833.6</ele>
        <time>2021-03-27T13:57:05Z</time>
      </trkpt>
      <trkpt lat="45.97756" lon="6.21487">
        <ele>833.8</ele>
        <time>2021-03-27T13:57:06Z</time>
      </trkpt>
      <trkpt lat="45.97758" lon="6.21483">
        <ele>834</ele>
        <time>2021-03-27T13:57:07Z</time>
      </trkpt>
      <trkpt lat="45.9776" lon="6.2148">
        <ele>834.2</ele>
        <time>2021-03-27T13:57:08Z</time>
      </trkpt>
      <trkpt lat="45.97762" lon="6.21476">
        <ele>834.6</ele>
        <time>2021-03-27T13:57:09Z</time>
      </trkpt>
      <trkpt lat="45.97764" lon="6.21472">
        <ele>834.6</ele>
        <time>2021-03-27T13:57:10Z</time>
      </trkpt>
      <trkpt lat="45.97766" lon="6.21468">
        <ele>834.8</ele>
        <time>2021-03-27T13:57:11Z</time>
      </trkpt>
      <trkpt lat="45.97767" lon="6.21464">
        <ele>835</ele>
        <time>2021-03-27T13:57:12Z</time>
      </trkpt>
      <trkpt lat="45.97769" lon="6.2146">
        <ele>835.2</ele>
        <time>2021-03-27T13:57:13Z</time>
      </trkpt>
      <trkpt lat="45.97771" lon="6.21457">
        <ele>835.2</ele>
        <time>2021-03-27T13:57:14Z</time>
      </trkpt>
      <trkpt lat="45.97773" lon="6.21453">
        <ele>835.6</ele>
        <time>2021-03-27T13:57:15Z</time>
      </trkpt>
      <trkpt lat="45.97775" lon="6.21449">
        <ele>835.6</ele>
        <time>2021-03-27T13:57:16Z</time>
      </trkpt>
      <trkpt lat="45.97777" lon="6.21446">
        <ele>835.8</ele>
        <time>2021-03-27T13:57:17Z</time>
      </trkpt>
      <trkpt lat="45.97779" lon="6.21443">
        <ele>836</ele>
        <time>2021-03-27T13:57:18Z</time>
      </trkpt>
      <trkpt lat="45.97781" lon="6.2144">
        <ele>836.2</ele>
        <time>2021-03-27T13:57:19Z</time>
      </trkpt>
      <trkpt lat="45.97783" lon="6.21436">
        <ele>836.2</ele>
        <time>2021-03-27T13:57:20Z</time>
      </trkpt>
      <trkpt lat="45.97785" lon="6.21433">
        <ele>836.4</ele>
        <time>2021-03-27T13:57:21Z</time>
      </trkpt>
      <trkpt lat="45.97787" lon="6.21429">
        <ele>836.4</ele>
        <time>2021-03-27T13:57:22Z</time>
      </trkpt>
      <trkpt lat="45.97789" lon="6.21425">
        <ele>836.6</ele>
        <time>2021-03-27T13:57:23Z</time>
      </trkpt>
      <trkpt lat="45.9779" lon="6.21421">
        <ele>836.8</ele>
        <time>2021-03-27T13:57:24Z</time>
      </trkpt>
      <trkpt lat="45.97792" lon="6.21418">
        <ele>837</ele>
        <time>2021-03-27T13:57:25Z</time>
      </trkpt>
      <trkpt lat="45.97794" lon="6.21414">
        <ele>837.4</ele>
        <time>2021-03-27T13:57:26Z</time>
      </trkpt>
      <trkpt lat="45.97796" lon="6.21411">
        <ele>837.4</ele>
        <time>2021-03-27T13:57:27Z</time>
      </trkpt>
      <trkpt lat="45.97798" lon="6.21407">
        <ele>837.8</ele>
        <time>2021-03-27T13:57:28Z</time>
      </trkpt>
      <trkpt lat="45.978" lon="6.21404">
        <ele>838.2</ele>
        <time>2021-03-27T13:57:29Z</time>
      </trkpt>
      <trkpt lat="45.97802" lon="6.214">
        <ele>838.4</ele>
        <time>2021-03-27T13:57:30Z</time>
      </trkpt>
      <trkpt lat="45.97803" lon="6.21397">
        <ele>838.6</ele>
        <time>2021-03-27T13:57:31Z</time>
      </trkpt>
      <trkpt lat="45.97805" lon="6.21393">
        <ele>838.6</ele>
        <time>2021-03-27T13:57:32Z</time>
      </trkpt>
      <trkpt lat="45.97807" lon="6.21389">
        <ele>838.8</ele>
        <time>2021-03-27T13:57:33Z</time>
      </trkpt>
      <trkpt lat="45.9781" lon="6.21385">
        <ele>839</ele>
        <time>2021-03-27T13:57:34Z</time>
      </trkpt>
      <trkpt lat="45.97812" lon="6.21382">
        <ele>839.4</ele>
        <time>2021-03-27T13:57:35Z</time>
      </trkpt>
      <trkpt lat="45.97814" lon="6.21378">
        <ele>839.6</ele>
        <time>2021-03-27T13:57:36Z</time>
      </trkpt>
      <trkpt lat="45.97817" lon="6.21374">
        <ele>839.8</ele>
        <time>2021-03-27T13:57:37Z</time>
      </trkpt>
      <trkpt lat="45.9782" lon="6.2137">
        <ele>840</ele>
        <time>2021-03-27T13:57:38Z</time>
      </trkpt>
      <trkpt lat="45.97823" lon="6.21365">
        <ele>840.2</ele>
        <time>2021-03-27T13:57:39Z</time>
      </trkpt>
      <trkpt lat="45.97826" lon="6.2136">
        <ele>840.6</ele>
        <time>2021-03-27T13:57:40Z</time>
      </trkpt>
      <trkpt lat="45.97829" lon="6.21355">
        <ele>840.6</ele>
        <time>2021-03-27T13:57:41Z</time>
      </trkpt>
      <trkpt lat="45.97831" lon="6.2135">
        <ele>840.6</ele>
        <time>2021-03-27T13:57:42Z</time>
      </trkpt>
      <trkpt lat="45.97835" lon="6.21344">
        <ele>840.8</ele>
        <time>2021-03-27T13:57:43Z</time>
      </trkpt>
      <trkpt lat="45.97837" lon="6.21338">
        <ele>840.6</ele>
        <time>2021-03-27T13:57:44Z</time>
      </trkpt>
      <trkpt lat="45.9784" lon="6.21332">
        <ele>840.6</ele>
        <time>2021-03-27T13:57:45Z</time>
      </trkpt>
      <trkpt lat="45.97842" lon="6.21326">
        <ele>840.6</ele>
        <time>2021-03-27T13:57:46Z</time>
      </trkpt>
      <trkpt lat="45.97846" lon="6.21314">
        <ele>840.8</ele>
        <time>2021-03-27T13:57:48Z</time>
      </trkpt>
      <trkpt lat="45.97848" lon="6.21308">
        <ele>840.6</ele>
        <time>2021-03-27T13:57:49Z</time>
      </trkpt>
      <trkpt lat="45.9785" lon="6.21303">
        <ele>840.8</ele>
        <time>2021-03-27T13:57:50Z</time>
      </trkpt>
      <trkpt lat="45.97851" lon="6.21297">
        <ele>840.8</ele>
        <time>2021-03-27T13:57:51Z</time>
      </trkpt>
      <trkpt lat="45.97853" lon="6.21291">
        <ele>840.8</ele>
        <time>2021-03-27T13:57:52Z</time>
      </trkpt>
      <trkpt lat="45.97855" lon="6.21286">
        <ele>840.8</ele>
        <time>2021-03-27T13:57:53Z</time>
      </trkpt>
      <trkpt lat="45.97856" lon="6.21279">
        <ele>840.8</ele>
        <time>2021-03-27T13:57:54Z</time>
      </trkpt>
      <trkpt lat="45.97858" lon="6.21273">
        <ele>841.2</ele>
        <time>2021-03-27T13:57:55Z</time>
      </trkpt>
      <trkpt lat="45.9786" lon="6.21266">
        <ele>841.2</ele>
        <time>2021-03-27T13:57:56Z</time>
      </trkpt>
      <trkpt lat="45.97861" lon="6.2126">
        <ele>841.2</ele>
        <time>2021-03-27T13:57:57Z</time>
      </trkpt>
      <trkpt lat="45.97863" lon="6.21253">
        <ele>841.2</ele>
        <time>2021-03-27T13:57:58Z</time>
      </trkpt>
      <trkpt lat="45.97864" lon="6.21248">
        <ele>841.2</ele>
        <time>2021-03-27T13:57:59Z</time>
      </trkpt>
      <trkpt lat="45.97865" lon="6.21245">
        <ele>841.4</ele>
        <time>2021-03-27T13:58:00Z</time>
      </trkpt>
      <trkpt lat="45.97866" lon="6.21243">
        <ele>841.4</ele>
        <time>2021-03-27T13:58:01Z</time>
      </trkpt>
      <trkpt lat="45.97866" lon="6.21242">
        <ele>841.6</ele>
        <time>2021-03-27T13:58:02Z</time>
      </trkpt>
      <trkpt lat="45.97867" lon="6.21242">
        <ele>841.6</ele>
        <time>2021-03-27T13:58:03Z</time>
      </trkpt>
      <trkpt lat="45.97867" lon="6.21242">
        <ele>841.8</ele>
        <time>2021-03-27T13:58:04Z</time>
      </trkpt>
      <trkpt lat="45.97867" lon="6.21242">
        <ele>842</ele>
        <time>2021-03-27T13:58:05Z</time>
      </trkpt>
      <trkpt lat="45.97867" lon="6.21242">
        <ele>841.8</ele>
        <time>2021-03-27T13:58:06Z</time>
      </trkpt>
      <trkpt lat="45.97866" lon="6.21242">
        <ele>842</ele>
        <time>2021-03-27T13:58:07Z</time>
      </trkpt>
      <trkpt lat="45.97866" lon="6.21243">
        <ele>842</ele>
        <time>2021-03-27T13:58:08Z</time>
      </trkpt>
      <trkpt lat="45.97865" lon="6.21243">
        <ele>842.2</ele>
        <time>2021-03-27T13:58:09Z</time>
      </trkpt>
      <trkpt lat="45.97865" lon="6.21243">
        <ele>842.2</ele>
        <time>2021-03-27T13:58:10Z</time>
      </trkpt>
      <trkpt lat="45.97866" lon="6.21244">
        <ele>842.2</ele>
        <time>2021-03-27T13:58:11Z</time>
      </trkpt>
      <trkpt lat="45.97866" lon="6.21244">
        <ele>842.2</ele>
        <time>2021-03-27T13:58:12Z</time>
      </trkpt>
      <trkpt lat="45.97866" lon="6.21244">
        <ele>842.4</ele>
        <time>2021-03-27T13:58:13Z</time>
      </trkpt>
      <trkpt lat="45.97866" lon="6.21243">
        <ele>842.4</ele>
        <time>2021-03-27T13:58:14Z</time>
      </trkpt>
      <trkpt lat="45.97866" lon="6.21243">
        <ele>842.4</ele>
        <time>2021-03-27T13:58:15Z</time>
      </trkpt>
      <trkpt lat="45.97866" lon="6.21243">
        <ele>842.2</ele>
        <time>2021-03-27T13:58:16Z</time>
      </trkpt>
      <trkpt lat="45.97866" lon="6.21243">
        <ele>842.2</ele>
        <time>2021-03-27T13:58:17Z</time>
      </trkpt>
      <trkpt lat="45.97867" lon="6.21243">
        <ele>842.4</ele>
        <time>2021-03-27T13:58:18Z</time>
      </trkpt>
      <trkpt lat="45.97866" lon="6.21242">
        <ele>842.4</ele>
        <time>2021-03-27T13:58:19Z</time>
      </trkpt>
      <trkpt lat="45.97866" lon="6.21242">
        <ele>842.2</ele>
        <time>2021-03-27T13:58:20Z</time>
      </trkpt>
      <trkpt lat="45.97866" lon="6.21241">
        <ele>842.4</ele>
        <time>2021-03-27T13:58:21Z</time>
      </trkpt>
      <trkpt lat="45.97866" lon="6.2124">
        <ele>842.4</ele>
        <time>2021-03-27T13:58:22Z</time>
      </trkpt>
      <trkpt lat="45.97865" lon="6.21239">
        <ele>842.2</ele>
        <time>2021-03-27T13:58:23Z</time>
      </trkpt>
      <trkpt lat="45.97864" lon="6.21239">
        <ele>842.2</ele>
        <time>2021-03-27T13:58:24Z</time>
      </trkpt>
      <trkpt lat="45.97863" lon="6.21238">
        <ele>842.2</ele>
        <time>2021-03-27T13:58:25Z</time>
      </trkpt>
      <trkpt lat="45.97863" lon="6.21237">
        <ele>842.2</ele>
        <time>2021-03-27T13:58:26Z</time>
      </trkpt>
      <trkpt lat="45.97863" lon="6.21237">
        <ele>842.2</ele>
        <time>2021-03-27T13:58:27Z</time>
      </trkpt>
      <trkpt lat="45.97863" lon="6.21238">
        <ele>842.2</ele>
        <time>2021-03-27T13:58:28Z</time>
      </trkpt>
      <trkpt lat="45.97863" lon="6.21237">
        <ele>842.2</ele>
        <time>2021-03-27T13:58:29Z</time>
      </trkpt>
      <trkpt lat="45.97862" lon="6.21236">
        <ele>842.2</ele>
        <time>2021-03-27T13:58:30Z</time>
      </trkpt>
      <trkpt lat="45.97861" lon="6.21235">
        <ele>842.2</ele>
        <time>2021-03-27T13:58:31Z</time>
      </trkpt>
      <trkpt lat="45.97861" lon="6.21234">
        <ele>842.2</ele>
        <time>2021-03-27T13:58:32Z</time>
      </trkpt>
      <trkpt lat="45.9786" lon="6.21234">
        <ele>842.2</ele>
        <time>2021-03-27T13:58:33Z</time>
      </trkpt>
      <trkpt lat="45.9786" lon="6.21233">
        <ele>842.2</ele>
        <time>2021-03-27T13:58:34Z</time>
      </trkpt>
      <trkpt lat="45.9786" lon="6.21232">
        <ele>842.2</ele>
        <time>2021-03-27T13:58:35Z</time>
      </trkpt>
      <trkpt lat="45.97859" lon="6.21232">
        <ele>842.2</ele>
        <time>2021-03-27T13:58:36Z</time>
      </trkpt>
      <trkpt lat="45.97859" lon="6.21232">
        <ele>842.2</ele>
        <time>2021-03-27T13:58:37Z</time>
      </trkpt>
      <trkpt lat="45.97859" lon="6.21232">
        <ele>842.2</ele>
        <time>2021-03-27T13:58:38Z</time>
      </trkpt>
      <trkpt lat="45.97859" lon="6.21232">
        <ele>842.2</ele>
        <time>2021-03-27T13:58:39Z</time>
      </trkpt>
      <trkpt lat="45.97859" lon="6.21232">
        <ele>842.2</ele>
        <time>2021-03-27T13:58:40Z</time>
      </trkpt>
      <trkpt lat="45.97859" lon="6.21232">
        <ele>842.2</ele>
        <time>2021-03-27T13:58:41Z</time>
      </trkpt>
      <trkpt lat="45.97859" lon="6.21232">
        <ele>842.2</ele>
        <time>2021-03-27T13:58:42Z</time>
      </trkpt>
      <trkpt lat="45.97859" lon="6.21233">
        <ele>842.4</ele>
        <time>2021-03-27T13:58:43Z</time>
      </trkpt>
      <trkpt lat="45.97858" lon="6.21233">
        <ele>842.2</ele>
        <time>2021-03-27T13:58:44Z</time>
      </trkpt>
      <trkpt lat="45.97858" lon="6.21233">
        <ele>842.2</ele>
        <time>2021-03-27T13:58:45Z</time>
      </trkpt>
      <trkpt lat="45.97858" lon="6.21233">
        <ele>842.2</ele>
        <time>2021-03-27T13:58:46Z</time>
      </trkpt>
      <trkpt lat="45.97858" lon="6.21233">
        <ele>842.2</ele>
        <time>2021-03-27T13:58:47Z</time>
      </trkpt>
      <trkpt lat="45.97859" lon="6.21233">
        <ele>842.2</ele>
        <time>2021-03-27T13:58:48Z</time>
      </trkpt>
      <trkpt lat="45.9786" lon="6.21233">
        <ele>842.2</ele>
        <time>2021-03-27T13:58:49Z</time>
      </trkpt>
      <trkpt lat="45.9786" lon="6.21233">
        <ele>842.2</ele>
        <time>2021-03-27T13:58:50Z</time>
      </trkpt>
      <trkpt lat="45.9786" lon="6.21233">
        <ele>842.2</ele>
        <time>2021-03-27T13:58:51Z</time>
      </trkpt>
      <trkpt lat="45.97861" lon="6.21234">
        <ele>842.2</ele>
        <time>2021-03-27T13:58:52Z</time>
      </trkpt>
      <trkpt lat="45.97862" lon="6.21234">
        <ele>842.2</ele>
        <time>2021-03-27T13:58:53Z</time>
      </trkpt>
      <trkpt lat="45.97862" lon="6.21235">
        <ele>842.2</ele>
        <time>2021-03-27T13:58:54Z</time>
      </trkpt>
      <trkpt lat="45.97863" lon="6.21235">
        <ele>842.4</ele>
        <time>2021-03-27T13:58:55Z</time>
      </trkpt>
      <trkpt lat="45.97863" lon="6.21235">
        <ele>842.4</ele>
        <time>2021-03-27T13:58:56Z</time>
      </trkpt>
      <trkpt lat="45.97864" lon="6.21236">
        <ele>842.4</ele>
        <time>2021-03-27T13:58:57Z</time>
      </trkpt>
      <trkpt lat="45.97864" lon="6.21236">
        <ele>842.4</ele>
        <time>2021-03-27T13:58:58Z</time>
      </trkpt>
      <trkpt lat="45.97864" lon="6.21235">
        <ele>842.4</ele>
        <time>2021-03-27T13:58:59Z</time>
      </trkpt>
      <trkpt lat="45.97864" lon="6.21235">
        <ele>842.4</ele>
        <time>2021-03-27T13:59:00Z</time>
      </trkpt>
      <trkpt lat="45.97864" lon="6.21235">
        <ele>842.4</ele>
        <time>2021-03-27T13:59:01Z</time>
      </trkpt>
      <trkpt lat="45.97865" lon="6.21235">
        <ele>842.4</ele>
        <time>2021-03-27T13:59:02Z</time>
      </trkpt>
      <trkpt lat="45.97865" lon="6.21235">
        <ele>842.2</ele>
        <time>2021-03-27T13:59:03Z</time>
      </trkpt>
      <trkpt lat="45.97866" lon="6.21235">
        <ele>842.4</ele>
        <time>2021-03-27T13:59:04Z</time>
      </trkpt>
      <trkpt lat="45.97866" lon="6.21235">
        <ele>842.4</ele>
        <time>2021-03-27T13:59:05Z</time>
      </trkpt>
      <trkpt lat="45.97867" lon="6.21235">
        <ele>842.4</ele>
        <time>2021-03-27T13:59:06Z</time>
      </trkpt>
      <trkpt lat="45.97867" lon="6.21236">
        <ele>842.4</ele>
        <time>2021-03-27T13:59:07Z</time>
      </trkpt>
      <trkpt lat="45.97868" lon="6.21236">
        <ele>842.4</ele>
        <time>2021-03-27T13:59:08Z</time>
      </trkpt>
      <trkpt lat="45.97868" lon="6.21236">
        <ele>842.4</ele>
        <time>2021-03-27T13:59:09Z</time>
      </trkpt>
      <trkpt lat="45.97869" lon="6.21237">
        <ele>842.2</ele>
        <time>2021-03-27T13:59:10Z</time>
      </trkpt>
      <trkpt lat="45.9787" lon="6.21238">
        <ele>842.2</ele>
        <time>2021-03-27T13:59:11Z</time>
      </trkpt>
      <trkpt lat="45.97871" lon="6.21238">
        <ele>842.4</ele>
        <time>2021-03-27T13:59:12Z</time>
      </trkpt>
      <trkpt lat="45.97871" lon="6.21237">
        <ele>842.4</ele>
        <time>2021-03-27T13:59:13Z</time>
      </trkpt>
      <trkpt lat="45.97871" lon="6.21235">
        <ele>842.2</ele>
        <time>2021-03-27T13:59:14Z</time>
      </trkpt>
      <trkpt lat="45.9787" lon="6.21234">
        <ele>842.4</ele>
        <time>2021-03-27T13:59:15Z</time>
      </trkpt>
      <trkpt lat="45.9787" lon="6.21233">
        <ele>842.2</ele>
        <time>2021-03-27T13:59:16Z</time>
      </trkpt>
      <trkpt lat="45.97869" lon="6.21232">
        <ele>842.4</ele>
        <time>2021-03-27T13:59:17Z</time>
      </trkpt>
      <trkpt lat="45.97868" lon="6.2123">
        <ele>842.4</ele>
        <time>2021-03-27T13:59:18Z</time>
      </trkpt>
      <trkpt lat="45.97868" lon="6.21229">
        <ele>842.4</ele>
        <time>2021-03-27T13:59:19Z</time>
      </trkpt>
      <trkpt lat="45.97868" lon="6.21229">
        <ele>842.4</ele>
        <time>2021-03-27T13:59:20Z</time>
      </trkpt>
      <trkpt lat="45.97868" lon="6.21228">
        <ele>842.4</ele>
        <time>2021-03-27T13:59:21Z</time>
      </trkpt>
      <trkpt lat="45.97868" lon="6.21228">
        <ele>842.4</ele>
        <time>2021-03-27T13:59:22Z</time>
      </trkpt>
      <trkpt lat="45.97867" lon="6.21228">
        <ele>842.4</ele>
        <time>2021-03-27T13:59:23Z</time>
      </trkpt>
      <trkpt lat="45.97866" lon="6.21227">
        <ele>842.2</ele>
        <time>2021-03-27T13:59:24Z</time>
      </trkpt>
      <trkpt lat="45.97866" lon="6.21227">
        <ele>842.4</ele>
        <time>2021-03-27T13:59:25Z</time>
      </trkpt>
      <trkpt lat="45.97866" lon="6.21226">
        <ele>842.4</ele>
        <time>2021-03-27T13:59:26Z</time>
      </trkpt>
      <trkpt lat="45.97866" lon="6.21224">
        <ele>842.4</ele>
        <time>2021-03-27T13:59:27Z</time>
      </trkpt>
      <trkpt lat="45.97866" lon="6.21222">
        <ele>842.6</ele>
        <time>2021-03-27T13:59:28Z</time>
      </trkpt>
      <trkpt lat="45.97867" lon="6.21218">
        <ele>842.4</ele>
        <time>2021-03-27T13:59:29Z</time>
      </trkpt>
      <trkpt lat="45.97868" lon="6.21214">
        <ele>842.4</ele>
        <time>2021-03-27T13:59:30Z</time>
      </trkpt>
      <trkpt lat="45.9787" lon="6.21209">
        <ele>842.4</ele>
        <time>2021-03-27T13:59:31Z</time>
      </trkpt>
      <trkpt lat="45.97873" lon="6.21203">
        <ele>842.4</ele>
        <time>2021-03-27T13:59:32Z</time>
      </trkpt>
      <trkpt lat="45.97875" lon="6.21197">
        <ele>842.4</ele>
        <time>2021-03-27T13:59:33Z</time>
      </trkpt>
      <trkpt lat="45.97878" lon="6.2119">
        <ele>842.4</ele>
        <time>2021-03-27T13:59:34Z</time>
      </trkpt>
      <trkpt lat="45.9788" lon="6.21182">
        <ele>842.4</ele>
        <time>2021-03-27T13:59:35Z</time>
      </trkpt>
      <trkpt lat="45.97883" lon="6.21175">
        <ele>842.4</ele>
        <time>2021-03-27T13:59:36Z</time>
      </trkpt>
      <trkpt lat="45.97886" lon="6.21167">
        <ele>842.4</ele>
        <time>2021-03-27T13:59:37Z</time>
      </trkpt>
      <trkpt lat="45.9789" lon="6.21158">
        <ele>842</ele>
        <time>2021-03-27T13:59:38Z</time>
      </trkpt>
      <trkpt lat="45.97893" lon="6.21149">
        <ele>842</ele>
        <time>2021-03-27T13:59:39Z</time>
      </trkpt>
      <trkpt lat="45.97897" lon="6.2114">
        <ele>841.8</ele>
        <time>2021-03-27T13:59:40Z</time>
      </trkpt>
      <trkpt lat="45.979" lon="6.21131">
        <ele>841.6</ele>
        <time>2021-03-27T13:59:41Z</time>
      </trkpt>
      <trkpt lat="45.97903" lon="6.21122">
        <ele>841.4</ele>
        <time>2021-03-27T13:59:42Z</time>
      </trkpt>
      <trkpt lat="45.97906" lon="6.21114">
        <ele>841</ele>
        <time>2021-03-27T13:59:43Z</time>
      </trkpt>
      <trkpt lat="45.9791" lon="6.21106">
        <ele>840.8</ele>
        <time>2021-03-27T13:59:44Z</time>
      </trkpt>
      <trkpt lat="45.97913" lon="6.21097">
        <ele>840.2</ele>
        <time>2021-03-27T13:59:45Z</time>
      </trkpt>
      <trkpt lat="45.97916" lon="6.21089">
        <ele>840</ele>
        <time>2021-03-27T13:59:46Z</time>
      </trkpt>
      <trkpt lat="45.97919" lon="6.21081">
        <ele>839.8</ele>
        <time>2021-03-27T13:59:47Z</time>
      </trkpt>
      <trkpt lat="45.97922" lon="6.21072">
        <ele>839.6</ele>
        <time>2021-03-27T13:59:48Z</time>
      </trkpt>
      <trkpt lat="45.97926" lon="6.21063">
        <ele>839.6</ele>
        <time>2021-03-27T13:59:49Z</time>
      </trkpt>
      <trkpt lat="45.97929" lon="6.21054">
        <ele>839.4</ele>
        <time>2021-03-27T13:59:50Z</time>
      </trkpt>
      <trkpt lat="45.97932" lon="6.21045">
        <ele>839.2</ele>
        <time>2021-03-27T13:59:51Z</time>
      </trkpt>
      <trkpt lat="45.97936" lon="6.21035">
        <ele>838.8</ele>
        <time>2021-03-27T13:59:52Z</time>
      </trkpt>
      <trkpt lat="45.97939" lon="6.21024">
        <ele>838.8</ele>
        <time>2021-03-27T13:59:53Z</time>
      </trkpt>
      <trkpt lat="45.97943" lon="6.21013">
        <ele>838.6</ele>
        <time>2021-03-27T13:59:54Z</time>
      </trkpt>
      <trkpt lat="45.97947" lon="6.21002">
        <ele>838.4</ele>
        <time>2021-03-27T13:59:55Z</time>
      </trkpt>
      <trkpt lat="45.97951" lon="6.2099">
        <ele>838.2</ele>
        <time>2021-03-27T13:59:56Z</time>
      </trkpt>
      <trkpt lat="45.97956" lon="6.20978">
        <ele>837.8</ele>
        <time>2021-03-27T13:59:57Z</time>
      </trkpt>
      <trkpt lat="45.9796" lon="6.20966">
        <ele>837.8</ele>
        <time>2021-03-27T13:59:58Z</time>
      </trkpt>
      <trkpt lat="45.97965" lon="6.20953">
        <ele>837.4</ele>
        <time>2021-03-27T13:59:59Z</time>
      </trkpt>
      <trkpt lat="45.9797" lon="6.2094">
        <ele>836.8</ele>
        <time>2021-03-27T14:00:00Z</time>
      </trkpt>
      <trkpt lat="45.97975" lon="6.20926">
        <ele>836.4</ele>
        <time>2021-03-27T14:00:01Z</time>
      </trkpt>
      <trkpt lat="45.9798" lon="6.20913">
        <ele>835.4</ele>
        <time>2021-03-27T14:00:02Z</time>
      </trkpt>
      <trkpt lat="45.97985" lon="6.20899">
        <ele>834.4</ele>
        <time>2021-03-27T14:00:03Z</time>
      </trkpt>
      <trkpt lat="45.97988" lon="6.20887">
        <ele>833.6</ele>
        <time>2021-03-27T14:00:04Z</time>
      </trkpt>
      <trkpt lat="45.97989" lon="6.20873">
        <ele>832.8</ele>
        <time>2021-03-27T14:00:05Z</time>
      </trkpt>
      <trkpt lat="45.97987" lon="6.2086">
        <ele>831.8</ele>
        <time>2021-03-27T14:00:06Z</time>
      </trkpt>
      <trkpt lat="45.97981" lon="6.20847">
        <ele>831.2</ele>
        <time>2021-03-27T14:00:07Z</time>
      </trkpt>
      <trkpt lat="45.97977" lon="6.20834">
        <ele>829.4</ele>
        <time>2021-03-27T14:00:08Z</time>
      </trkpt>
      <trkpt lat="45.97973" lon="6.20821">
        <ele>827.8</ele>
        <time>2021-03-27T14:00:09Z</time>
      </trkpt>
      <trkpt lat="45.97973" lon="6.20807">
        <ele>826.2</ele>
        <time>2021-03-27T14:00:10Z</time>
      </trkpt>
      <trkpt lat="45.97978" lon="6.20793">
        <ele>825</ele>
        <time>2021-03-27T14:00:11Z</time>
      </trkpt>
      <trkpt lat="45.97983" lon="6.2078">
        <ele>824</ele>
        <time>2021-03-27T14:00:12Z</time>
      </trkpt>
      <trkpt lat="45.97987" lon="6.20766">
        <ele>822.8</ele>
        <time>2021-03-27T14:00:13Z</time>
      </trkpt>
      <trkpt lat="45.97992" lon="6.20751">
        <ele>821.6</ele>
        <time>2021-03-27T14:00:14Z</time>
      </trkpt>
      <trkpt lat="45.97996" lon="6.20737">
        <ele>820.8</ele>
        <time>2021-03-27T14:00:15Z</time>
      </trkpt>
      <trkpt lat="45.98001" lon="6.20722">
        <ele>819.8</ele>
        <time>2021-03-27T14:00:16Z</time>
      </trkpt>
      <trkpt lat="45.98005" lon="6.20707">
        <ele>818.6</ele>
        <time>2021-03-27T14:00:17Z</time>
      </trkpt>
      <trkpt lat="45.98012" lon="6.20694">
        <ele>817.2</ele>
        <time>2021-03-27T14:00:18Z</time>
      </trkpt>
      <trkpt lat="45.9802" lon="6.20683">
        <ele>816.4</ele>
        <time>2021-03-27T14:00:19Z</time>
      </trkpt>
      <trkpt lat="45.98029" lon="6.20673">
        <ele>814.8</ele>
        <time>2021-03-27T14:00:20Z</time>
      </trkpt>
      <trkpt lat="45.98037" lon="6.20662">
        <ele>813</ele>
        <time>2021-03-27T14:00:21Z</time>
      </trkpt>
      <trkpt lat="45.98043" lon="6.20649">
        <ele>811.6</ele>
        <time>2021-03-27T14:00:22Z</time>
      </trkpt>
      <trkpt lat="45.98048" lon="6.20635">
        <ele>810</ele>
        <time>2021-03-27T14:00:23Z</time>
      </trkpt>
      <trkpt lat="45.98049" lon="6.2062">
        <ele>808.6</ele>
        <time>2021-03-27T14:00:24Z</time>
      </trkpt>
      <trkpt lat="45.98048" lon="6.20604">
        <ele>807.2</ele>
        <time>2021-03-27T14:00:25Z</time>
      </trkpt>
      <trkpt lat="45.98046" lon="6.20589">
        <ele>806.4</ele>
        <time>2021-03-27T14:00:26Z</time>
      </trkpt>
      <trkpt lat="45.98045" lon="6.20575">
        <ele>805.6</ele>
        <time>2021-03-27T14:00:27Z</time>
      </trkpt>
      <trkpt lat="45.98045" lon="6.2056">
        <ele>805.2</ele>
        <time>2021-03-27T14:00:28Z</time>
      </trkpt>
      <trkpt lat="45.98045" lon="6.20546">
        <ele>804.4</ele>
        <time>2021-03-27T14:00:29Z</time>
      </trkpt>
      <trkpt lat="45.98047" lon="6.20532">
        <ele>803.6</ele>
        <time>2021-03-27T14:00:30Z</time>
      </trkpt>
      <trkpt lat="45.98049" lon="6.20517">
        <ele>802.6</ele>
        <time>2021-03-27T14:00:31Z</time>
      </trkpt>
      <trkpt lat="45.98052" lon="6.20504">
        <ele>801.8</ele>
        <time>2021-03-27T14:00:32Z</time>
      </trkpt>
      <trkpt lat="45.98055" lon="6.2049">
        <ele>801</ele>
        <time>2021-03-27T14:00:33Z</time>
      </trkpt>
      <trkpt lat="45.98058" lon="6.20476">
        <ele>800.6</ele>
        <time>2021-03-27T14:00:34Z</time>
      </trkpt>
      <trkpt lat="45.98062" lon="6.20463">
        <ele>800.6</ele>
        <time>2021-03-27T14:00:35Z</time>
      </trkpt>
      <trkpt lat="45.98065" lon="6.20449">
        <ele>800.2</ele>
        <time>2021-03-27T14:00:36Z</time>
      </trkpt>
      <trkpt lat="45.98068" lon="6.20434">
        <ele>799.8</ele>
        <time>2021-03-27T14:00:37Z</time>
      </trkpt>
      <trkpt lat="45.98071" lon="6.2042">
        <ele>799.8</ele>
        <time>2021-03-27T14:00:38Z</time>
      </trkpt>
      <trkpt lat="45.98074" lon="6.20405">
        <ele>799.6</ele>
        <time>2021-03-27T14:00:39Z</time>
      </trkpt>
      <trkpt lat="45.98077" lon="6.20391">
        <ele>799.4</ele>
        <time>2021-03-27T14:00:40Z</time>
      </trkpt>
      <trkpt lat="45.98078" lon="6.20377">
        <ele>799</ele>
        <time>2021-03-27T14:00:41Z</time>
      </trkpt>
      <trkpt lat="45.98079" lon="6.20363">
        <ele>798.4</ele>
        <time>2021-03-27T14:00:42Z</time>
      </trkpt>
      <trkpt lat="45.98078" lon="6.20349">
        <ele>797.4</ele>
        <time>2021-03-27T14:00:43Z</time>
      </trkpt>
      <trkpt lat="45.98077" lon="6.20335">
        <ele>796.8</ele>
        <time>2021-03-27T14:00:44Z</time>
      </trkpt>
      <trkpt lat="45.98075" lon="6.20322">
        <ele>795.6</ele>
        <time>2021-03-27T14:00:45Z</time>
      </trkpt>
      <trkpt lat="45.98073" lon="6.20308">
        <ele>794.4</ele>
        <time>2021-03-27T14:00:46Z</time>
      </trkpt>
      <trkpt lat="45.98072" lon="6.20294">
        <ele>793.8</ele>
        <time>2021-03-27T14:00:47Z</time>
      </trkpt>
      <trkpt lat="45.98071" lon="6.20279">
        <ele>793.4</ele>
        <time>2021-03-27T14:00:48Z</time>
      </trkpt>
      <trkpt lat="45.98071" lon="6.20264">
        <ele>793</ele>
        <time>2021-03-27T14:00:49Z</time>
      </trkpt>
      <trkpt lat="45.98071" lon="6.20249">
        <ele>792.6</ele>
        <time>2021-03-27T14:00:50Z</time>
      </trkpt>
      <trkpt lat="45.98071" lon="6.20234">
        <ele>792.2</ele>
        <time>2021-03-27T14:00:51Z</time>
      </trkpt>
      <trkpt lat="45.98071" lon="6.20219">
        <ele>791.8</ele>
        <time>2021-03-27T14:00:52Z</time>
      </trkpt>
      <trkpt lat="45.98071" lon="6.20205">
        <ele>791.4</ele>
        <time>2021-03-27T14:00:53Z</time>
      </trkpt>
      <trkpt lat="45.98071" lon="6.2019">
        <ele>791</ele>
        <time>2021-03-27T14:00:54Z</time>
      </trkpt>
      <trkpt lat="45.98071" lon="6.20175">
        <ele>790.8</ele>
        <time>2021-03-27T14:00:55Z</time>
      </trkpt>
      <trkpt lat="45.9807" lon="6.2016">
        <ele>790</ele>
        <time>2021-03-27T14:00:56Z</time>
      </trkpt>
      <trkpt lat="45.9807" lon="6.20146">
        <ele>789</ele>
        <time>2021-03-27T14:00:57Z</time>
      </trkpt>
      <trkpt lat="45.9807" lon="6.20131">
        <ele>788.4</ele>
        <time>2021-03-27T14:00:58Z</time>
      </trkpt>
      <trkpt lat="45.9807" lon="6.20116">
        <ele>787.8</ele>
        <time>2021-03-27T14:00:59Z</time>
      </trkpt>
      <trkpt lat="45.98069" lon="6.20102">
        <ele>787.2</ele>
        <time>2021-03-27T14:01:00Z</time>
      </trkpt>
      <trkpt lat="45.98068" lon="6.20088">
        <ele>786.6</ele>
        <time>2021-03-27T14:01:01Z</time>
      </trkpt>
      <trkpt lat="45.98068" lon="6.20073">
        <ele>785.6</ele>
        <time>2021-03-27T14:01:02Z</time>
      </trkpt>
      <trkpt lat="45.98068" lon="6.2006">
        <ele>785</ele>
        <time>2021-03-27T14:01:03Z</time>
      </trkpt>
      <trkpt lat="45.98067" lon="6.20046">
        <ele>784.6</ele>
        <time>2021-03-27T14:01:04Z</time>
      </trkpt>
      <trkpt lat="45.98067" lon="6.20032">
        <ele>784</ele>
        <time>2021-03-27T14:01:05Z</time>
      </trkpt>
      <trkpt lat="45.98067" lon="6.20018">
        <ele>783.4</ele>
        <time>2021-03-27T14:01:06Z</time>
      </trkpt>
      <trkpt lat="45.98067" lon="6.20003">
        <ele>782.8</ele>
        <time>2021-03-27T14:01:07Z</time>
      </trkpt>
      <trkpt lat="45.98069" lon="6.19989">
        <ele>782.4</ele>
        <time>2021-03-27T14:01:08Z</time>
      </trkpt>
      <trkpt lat="45.98071" lon="6.19974">
        <ele>782.2</ele>
        <time>2021-03-27T14:01:09Z</time>
      </trkpt>
      <trkpt lat="45.98074" lon="6.1996">
        <ele>782</ele>
        <time>2021-03-27T14:01:10Z</time>
      </trkpt>
      <trkpt lat="45.98077" lon="6.19945">
        <ele>781.8</ele>
        <time>2021-03-27T14:01:11Z</time>
      </trkpt>
      <trkpt lat="45.9808" lon="6.1993">
        <ele>781.6</ele>
        <time>2021-03-27T14:01:12Z</time>
      </trkpt>
      <trkpt lat="45.98083" lon="6.19915">
        <ele>781.4</ele>
        <time>2021-03-27T14:01:13Z</time>
      </trkpt>
      <trkpt lat="45.98085" lon="6.19899">
        <ele>781.2</ele>
        <time>2021-03-27T14:01:14Z</time>
      </trkpt>
      <trkpt lat="45.98087" lon="6.19884">
        <ele>781</ele>
        <time>2021-03-27T14:01:15Z</time>
      </trkpt>
      <trkpt lat="45.98087" lon="6.19869">
        <ele>780.2</ele>
        <time>2021-03-27T14:01:16Z</time>
      </trkpt>
      <trkpt lat="45.98087" lon="6.19855">
        <ele>779.2</ele>
        <time>2021-03-27T14:01:17Z</time>
      </trkpt>
      <trkpt lat="45.98084" lon="6.1984">
        <ele>778.2</ele>
        <time>2021-03-27T14:01:18Z</time>
      </trkpt>
      <trkpt lat="45.98081" lon="6.19827">
        <ele>777.2</ele>
        <time>2021-03-27T14:01:19Z</time>
      </trkpt>
      <trkpt lat="45.98076" lon="6.19814">
        <ele>776.2</ele>
        <time>2021-03-27T14:01:20Z</time>
      </trkpt>
      <trkpt lat="45.98071" lon="6.19803">
        <ele>775.4</ele>
        <time>2021-03-27T14:01:21Z</time>
      </trkpt>
      <trkpt lat="45.98066" lon="6.19792">
        <ele>774.4</ele>
        <time>2021-03-27T14:01:22Z</time>
      </trkpt>
      <trkpt lat="45.98061" lon="6.1978">
        <ele>773.6</ele>
        <time>2021-03-27T14:01:23Z</time>
      </trkpt>
      <trkpt lat="45.98056" lon="6.19769">
        <ele>773.2</ele>
        <time>2021-03-27T14:01:24Z</time>
      </trkpt>
      <trkpt lat="45.98051" lon="6.19757">
        <ele>773</ele>
        <time>2021-03-27T14:01:25Z</time>
      </trkpt>
      <trkpt lat="45.98048" lon="6.19745">
        <ele>772.8</ele>
        <time>2021-03-27T14:01:26Z</time>
      </trkpt>
      <trkpt lat="45.98044" lon="6.19733">
        <ele>772.6</ele>
        <time>2021-03-27T14:01:27Z</time>
      </trkpt>
      <trkpt lat="45.98042" lon="6.19721">
        <ele>772.6</ele>
        <time>2021-03-27T14:01:28Z</time>
      </trkpt>
      <trkpt lat="45.98041" lon="6.19709">
        <ele>772.4</ele>
        <time>2021-03-27T14:01:29Z</time>
      </trkpt>
      <trkpt lat="45.98039" lon="6.19698">
        <ele>772.4</ele>
        <time>2021-03-27T14:01:30Z</time>
      </trkpt>
      <trkpt lat="45.98037" lon="6.19686">
        <ele>772.4</ele>
        <time>2021-03-27T14:01:31Z</time>
      </trkpt>
      <trkpt lat="45.98035" lon="6.19675">
        <ele>772.2</ele>
        <time>2021-03-27T14:01:32Z</time>
      </trkpt>
      <trkpt lat="45.98031" lon="6.19665">
        <ele>771.8</ele>
        <time>2021-03-27T14:01:33Z</time>
      </trkpt>
      <trkpt lat="45.98027" lon="6.19654">
        <ele>771.8</ele>
        <time>2021-03-27T14:01:34Z</time>
      </trkpt>
      <trkpt lat="45.98023" lon="6.19644">
        <ele>771.8</ele>
        <time>2021-03-27T14:01:35Z</time>
      </trkpt>
      <trkpt lat="45.9802" lon="6.19634">
        <ele>772</ele>
        <time>2021-03-27T14:01:36Z</time>
      </trkpt>
      <trkpt lat="45.98016" lon="6.19624">
        <ele>772.2</ele>
        <time>2021-03-27T14:01:37Z</time>
      </trkpt>
      <trkpt lat="45.98012" lon="6.19615">
        <ele>772.2</ele>
        <time>2021-03-27T14:01:38Z</time>
      </trkpt>
      <trkpt lat="45.98009" lon="6.19606">
        <ele>772.4</ele>
        <time>2021-03-27T14:01:39Z</time>
      </trkpt>
      <trkpt lat="45.98006" lon="6.19597">
        <ele>772.4</ele>
        <time>2021-03-27T14:01:40Z</time>
      </trkpt>
      <trkpt lat="45.98002" lon="6.19588">
        <ele>772.6</ele>
        <time>2021-03-27T14:01:41Z</time>
      </trkpt>
      <trkpt lat="45.97999" lon="6.1958">
        <ele>772.6</ele>
        <time>2021-03-27T14:01:42Z</time>
      </trkpt>
      <trkpt lat="45.97997" lon="6.19573">
        <ele>772.6</ele>
        <time>2021-03-27T14:01:43Z</time>
      </trkpt>
      <trkpt lat="45.97994" lon="6.19565">
        <ele>772.4</ele>
        <time>2021-03-27T14:01:44Z</time>
      </trkpt>
      <trkpt lat="45.97991" lon="6.19558">
        <ele>772.6</ele>
        <time>2021-03-27T14:01:45Z</time>
      </trkpt>
      <trkpt lat="45.97989" lon="6.1955">
        <ele>772.6</ele>
        <time>2021-03-27T14:01:46Z</time>
      </trkpt>
      <trkpt lat="45.97986" lon="6.19543">
        <ele>773</ele>
        <time>2021-03-27T14:01:47Z</time>
      </trkpt>
      <trkpt lat="45.97983" lon="6.19536">
        <ele>773</ele>
        <time>2021-03-27T14:01:48Z</time>
      </trkpt>
      <trkpt lat="45.97981" lon="6.19529">
        <ele>773.2</ele>
        <time>2021-03-27T14:01:49Z</time>
      </trkpt>
      <trkpt lat="45.97978" lon="6.19522">
        <ele>773.4</ele>
        <time>2021-03-27T14:01:50Z</time>
      </trkpt>
      <trkpt lat="45.97975" lon="6.19515">
        <ele>774</ele>
        <time>2021-03-27T14:01:51Z</time>
      </trkpt>
      <trkpt lat="45.97972" lon="6.19508">
        <ele>774.6</ele>
        <time>2021-03-27T14:01:52Z</time>
      </trkpt>
      <trkpt lat="45.9797" lon="6.195">
        <ele>774.8</ele>
        <time>2021-03-27T14:01:53Z</time>
      </trkpt>
      <trkpt lat="45.97969" lon="6.19492">
        <ele>775.4</ele>
        <time>2021-03-27T14:01:54Z</time>
      </trkpt>
      <trkpt lat="45.97968" lon="6.19484">
        <ele>775.8</ele>
        <time>2021-03-27T14:01:55Z</time>
      </trkpt>
      <trkpt lat="45.97968" lon="6.19476">
        <ele>776</ele>
        <time>2021-03-27T14:01:56Z</time>
      </trkpt>
      <trkpt lat="45.97969" lon="6.19468">
        <ele>776.4</ele>
        <time>2021-03-27T14:01:57Z</time>
      </trkpt>
      <trkpt lat="45.9797" lon="6.19461">
        <ele>777</ele>
        <time>2021-03-27T14:01:58Z</time>
      </trkpt>
      <trkpt lat="45.97973" lon="6.19454">
        <ele>777.2</ele>
        <time>2021-03-27T14:01:59Z</time>
      </trkpt>
      <trkpt lat="45.97976" lon="6.19447">
        <ele>777.4</ele>
        <time>2021-03-27T14:02:00Z</time>
      </trkpt>
      <trkpt lat="45.97978" lon="6.1944">
        <ele>777.6</ele>
        <time>2021-03-27T14:02:01Z</time>
      </trkpt>
      <trkpt lat="45.97982" lon="6.19433">
        <ele>777.6</ele>
        <time>2021-03-27T14:02:02Z</time>
      </trkpt>
      <trkpt lat="45.97985" lon="6.19426">
        <ele>777.8</ele>
        <time>2021-03-27T14:02:03Z</time>
      </trkpt>
      <trkpt lat="45.9799" lon="6.19418">
        <ele>778</ele>
        <time>2021-03-27T14:02:04Z</time>
      </trkpt>
      <trkpt lat="45.97994" lon="6.1941">
        <ele>778</ele>
        <time>2021-03-27T14:02:05Z</time>
      </trkpt>
      <trkpt lat="45.97999" lon="6.19401">
        <ele>778</ele>
        <time>2021-03-27T14:02:06Z</time>
      </trkpt>
      <trkpt lat="45.98005" lon="6.19392">
        <ele>777.8</ele>
        <time>2021-03-27T14:02:07Z</time>
      </trkpt>
      <trkpt lat="45.9801" lon="6.19383">
        <ele>777.8</ele>
        <time>2021-03-27T14:02:08Z</time>
      </trkpt>
      <trkpt lat="45.98016" lon="6.19374">
        <ele>777.8</ele>
        <time>2021-03-27T14:02:09Z</time>
      </trkpt>
      <trkpt lat="45.98021" lon="6.19364">
        <ele>778</ele>
        <time>2021-03-27T14:02:10Z</time>
      </trkpt>
      <trkpt lat="45.98026" lon="6.19355">
        <ele>778</ele>
        <time>2021-03-27T14:02:11Z</time>
      </trkpt>
      <trkpt lat="45.98031" lon="6.19347">
        <ele>777.4</ele>
        <time>2021-03-27T14:02:12Z</time>
      </trkpt>
      <trkpt lat="45.98036" lon="6.19338">
        <ele>776.6</ele>
        <time>2021-03-27T14:02:13Z</time>
      </trkpt>
      <trkpt lat="45.98041" lon="6.1933">
        <ele>776.2</ele>
        <time>2021-03-27T14:02:14Z</time>
      </trkpt>
      <trkpt lat="45.98046" lon="6.19322">
        <ele>775</ele>
        <time>2021-03-27T14:02:15Z</time>
      </trkpt>
      <trkpt lat="45.9805" lon="6.19315">
        <ele>774.4</ele>
        <time>2021-03-27T14:02:16Z</time>
      </trkpt>
      <trkpt lat="45.98055" lon="6.19307">
        <ele>774.2</ele>
        <time>2021-03-27T14:02:17Z</time>
      </trkpt>
      <trkpt lat="45.98059" lon="6.193">
        <ele>774</ele>
        <time>2021-03-27T14:02:18Z</time>
      </trkpt>
      <trkpt lat="45.98063" lon="6.19293">
        <ele>774</ele>
        <time>2021-03-27T14:02:19Z</time>
      </trkpt>
      <trkpt lat="45.98066" lon="6.19286">
        <ele>774</ele>
        <time>2021-03-27T14:02:20Z</time>
      </trkpt>
      <trkpt lat="45.9807" lon="6.1928">
        <ele>774</ele>
        <time>2021-03-27T14:02:21Z</time>
      </trkpt>
      <trkpt lat="45.98073" lon="6.19273">
        <ele>773.8</ele>
        <time>2021-03-27T14:02:22Z</time>
      </trkpt>
      <trkpt lat="45.98077" lon="6.19266">
        <ele>773.8</ele>
        <time>2021-03-27T14:02:23Z</time>
      </trkpt>
      <trkpt lat="45.9808" lon="6.19259">
        <ele>774</ele>
        <time>2021-03-27T14:02:24Z</time>
      </trkpt>
      <trkpt lat="45.98083" lon="6.19253">
        <ele>774</ele>
        <time>2021-03-27T14:02:25Z</time>
      </trkpt>
      <trkpt lat="45.98086" lon="6.19246">
        <ele>773.8</ele>
        <time>2021-03-27T14:02:26Z</time>
      </trkpt>
      <trkpt lat="45.98088" lon="6.19238">
        <ele>774</ele>
        <time>2021-03-27T14:02:27Z</time>
      </trkpt>
      <trkpt lat="45.9809" lon="6.19231">
        <ele>774.2</ele>
        <time>2021-03-27T14:02:28Z</time>
      </trkpt>
      <trkpt lat="45.98092" lon="6.19223">
        <ele>774.4</ele>
        <time>2021-03-27T14:02:29Z</time>
      </trkpt>
      <trkpt lat="45.98093" lon="6.19216">
        <ele>774.8</ele>
        <time>2021-03-27T14:02:30Z</time>
      </trkpt>
      <trkpt lat="45.98094" lon="6.19208">
        <ele>775.2</ele>
        <time>2021-03-27T14:02:31Z</time>
      </trkpt>
      <trkpt lat="45.98095" lon="6.192">
        <ele>775.4</ele>
        <time>2021-03-27T14:02:32Z</time>
      </trkpt>
      <trkpt lat="45.98095" lon="6.19193">
        <ele>775.6</ele>
        <time>2021-03-27T14:02:33Z</time>
      </trkpt>
      <trkpt lat="45.98095" lon="6.19185">
        <ele>776</ele>
        <time>2021-03-27T14:02:34Z</time>
      </trkpt>
      <trkpt lat="45.98094" lon="6.19177">
        <ele>776</ele>
        <time>2021-03-27T14:02:35Z</time>
      </trkpt>
      <trkpt lat="45.98093" lon="6.1917">
        <ele>776</ele>
        <time>2021-03-27T14:02:36Z</time>
      </trkpt>
      <trkpt lat="45.98092" lon="6.19162">
        <ele>776.2</ele>
        <time>2021-03-27T14:02:37Z</time>
      </trkpt>
      <trkpt lat="45.98091" lon="6.19156">
        <ele>776.2</ele>
        <time>2021-03-27T14:02:38Z</time>
      </trkpt>
      <trkpt lat="45.9809" lon="6.19149">
        <ele>776.2</ele>
        <time>2021-03-27T14:02:39Z</time>
      </trkpt>
      <trkpt lat="45.98089" lon="6.19143">
        <ele>776.4</ele>
        <time>2021-03-27T14:02:40Z</time>
      </trkpt>
      <trkpt lat="45.98087" lon="6.19136">
        <ele>777</ele>
        <time>2021-03-27T14:02:41Z</time>
      </trkpt>
      <trkpt lat="45.98086" lon="6.1913">
        <ele>777.2</ele>
        <time>2021-03-27T14:02:42Z</time>
      </trkpt>
      <trkpt lat="45.98085" lon="6.19123">
        <ele>777.4</ele>
        <time>2021-03-27T14:02:43Z</time>
      </trkpt>
      <trkpt lat="45.98085" lon="6.19116">
        <ele>777.6</ele>
        <time>2021-03-27T14:02:44Z</time>
      </trkpt>
      <trkpt lat="45.98083" lon="6.19108">
        <ele>777.4</ele>
        <time>2021-03-27T14:02:45Z</time>
      </trkpt>
      <trkpt lat="45.98082" lon="6.191">
        <ele>777.4</ele>
        <time>2021-03-27T14:02:46Z</time>
      </trkpt>
      <trkpt lat="45.9808" lon="6.19092">
        <ele>777.6</ele>
        <time>2021-03-27T14:02:47Z</time>
      </trkpt>
      <trkpt lat="45.98079" lon="6.19084">
        <ele>777.6</ele>
        <time>2021-03-27T14:02:48Z</time>
      </trkpt>
      <trkpt lat="45.98077" lon="6.19075">
        <ele>777.6</ele>
        <time>2021-03-27T14:02:49Z</time>
      </trkpt>
      <trkpt lat="45.98075" lon="6.19066">
        <ele>777.6</ele>
        <time>2021-03-27T14:02:50Z</time>
      </trkpt>
      <trkpt lat="45.98073" lon="6.19056">
        <ele>777.4</ele>
        <time>2021-03-27T14:02:51Z</time>
      </trkpt>
      <trkpt lat="45.98071" lon="6.19046">
        <ele>777.6</ele>
        <time>2021-03-27T14:02:52Z</time>
      </trkpt>
      <trkpt lat="45.98069" lon="6.19036">
        <ele>777.4</ele>
        <time>2021-03-27T14:02:53Z</time>
      </trkpt>
      <trkpt lat="45.98067" lon="6.19025">
        <ele>777.4</ele>
        <time>2021-03-27T14:02:54Z</time>
      </trkpt>
      <trkpt lat="45.98065" lon="6.19014">
        <ele>777.2</ele>
        <time>2021-03-27T14:02:55Z</time>
      </trkpt>
      <trkpt lat="45.98062" lon="6.19003">
        <ele>777.2</ele>
        <time>2021-03-27T14:02:56Z</time>
      </trkpt>
      <trkpt lat="45.98059" lon="6.18991">
        <ele>777.2</ele>
        <time>2021-03-27T14:02:57Z</time>
      </trkpt>
      <trkpt lat="45.98056" lon="6.18979">
        <ele>776.8</ele>
        <time>2021-03-27T14:02:58Z</time>
      </trkpt>
      <trkpt lat="45.98052" lon="6.18968">
        <ele>775.8</ele>
        <time>2021-03-27T14:02:59Z</time>
      </trkpt>
      <trkpt lat="45.98049" lon="6.18957">
        <ele>775</ele>
        <time>2021-03-27T14:03:00Z</time>
      </trkpt>
      <trkpt lat="45.98044" lon="6.18945">
        <ele>774.2</ele>
        <time>2021-03-27T14:03:01Z</time>
      </trkpt>
      <trkpt lat="45.9804" lon="6.18935">
        <ele>773.2</ele>
        <time>2021-03-27T14:03:02Z</time>
      </trkpt>
      <trkpt lat="45.98036" lon="6.18925">
        <ele>772.4</ele>
        <time>2021-03-27T14:03:03Z</time>
      </trkpt>
      <trkpt lat="45.98031" lon="6.18914">
        <ele>771.6</ele>
        <time>2021-03-27T14:03:04Z</time>
      </trkpt>
      <trkpt lat="45.98026" lon="6.18904">
        <ele>770.8</ele>
        <time>2021-03-27T14:03:05Z</time>
      </trkpt>
      <trkpt lat="45.98021" lon="6.18894">
        <ele>770.2</ele>
        <time>2021-03-27T14:03:06Z</time>
      </trkpt>
      <trkpt lat="45.98015" lon="6.18883">
        <ele>770</ele>
        <time>2021-03-27T14:03:07Z</time>
      </trkpt>
      <trkpt lat="45.98009" lon="6.18873">
        <ele>769.8</ele>
        <time>2021-03-27T14:03:08Z</time>
      </trkpt>
      <trkpt lat="45.98003" lon="6.18863">
        <ele>769.8</ele>
        <time>2021-03-27T14:03:09Z</time>
      </trkpt>
      <trkpt lat="45.97997" lon="6.18853">
        <ele>769.6</ele>
        <time>2021-03-27T14:03:10Z</time>
      </trkpt>
      <trkpt lat="45.9799" lon="6.18843">
        <ele>769.6</ele>
        <time>2021-03-27T14:03:11Z</time>
      </trkpt>
      <trkpt lat="45.97983" lon="6.18833">
        <ele>769.4</ele>
        <time>2021-03-27T14:03:12Z</time>
      </trkpt>
      <trkpt lat="45.97975" lon="6.18823">
        <ele>769.2</ele>
        <time>2021-03-27T14:03:13Z</time>
      </trkpt>
      <trkpt lat="45.97967" lon="6.18812">
        <ele>768.8</ele>
        <time>2021-03-27T14:03:14Z</time>
      </trkpt>
      <trkpt lat="45.97958" lon="6.18802">
        <ele>768.8</ele>
        <time>2021-03-27T14:03:15Z</time>
      </trkpt>
      <trkpt lat="45.97949" lon="6.18793">
        <ele>768.2</ele>
        <time>2021-03-27T14:03:16Z</time>
      </trkpt>
      <trkpt lat="45.9794" lon="6.18783">
        <ele>767.8</ele>
        <time>2021-03-27T14:03:17Z</time>
      </trkpt>
      <trkpt lat="45.9793" lon="6.18773">
        <ele>767.4</ele>
        <time>2021-03-27T14:03:18Z</time>
      </trkpt>
      <trkpt lat="45.97919" lon="6.18764">
        <ele>766.4</ele>
        <time>2021-03-27T14:03:19Z</time>
      </trkpt>
      <trkpt lat="45.97908" lon="6.18755">
        <ele>765.4</ele>
        <time>2021-03-27T14:03:20Z</time>
      </trkpt>
      <trkpt lat="45.97897" lon="6.18746">
        <ele>764</ele>
        <time>2021-03-27T14:03:21Z</time>
      </trkpt>
      <trkpt lat="45.97885" lon="6.18737">
        <ele>762.6</ele>
        <time>2021-03-27T14:03:22Z</time>
      </trkpt>
      <trkpt lat="45.97873" lon="6.18728">
        <ele>761.2</ele>
        <time>2021-03-27T14:03:23Z</time>
      </trkpt>
      <trkpt lat="45.97861" lon="6.18719">
        <ele>760.2</ele>
        <time>2021-03-27T14:03:24Z</time>
      </trkpt>
      <trkpt lat="45.97848" lon="6.18712">
        <ele>759.4</ele>
        <time>2021-03-27T14:03:25Z</time>
      </trkpt>
      <trkpt lat="45.97835" lon="6.18706">
        <ele>758.2</ele>
        <time>2021-03-27T14:03:26Z</time>
      </trkpt>
      <trkpt lat="45.97821" lon="6.18703">
        <ele>756.6</ele>
        <time>2021-03-27T14:03:27Z</time>
      </trkpt>
      <trkpt lat="45.97807" lon="6.18704">
        <ele>754.6</ele>
        <time>2021-03-27T14:03:28Z</time>
      </trkpt>
      <trkpt lat="45.97795" lon="6.18706">
        <ele>753.6</ele>
        <time>2021-03-27T14:03:29Z</time>
      </trkpt>
      <trkpt lat="45.97783" lon="6.18709">
        <ele>752.2</ele>
        <time>2021-03-27T14:03:30Z</time>
      </trkpt>
      <trkpt lat="45.97773" lon="6.18711">
        <ele>750.8</ele>
        <time>2021-03-27T14:03:31Z</time>
      </trkpt>
      <trkpt lat="45.97765" lon="6.1871">
        <ele>749.6</ele>
        <time>2021-03-27T14:03:32Z</time>
      </trkpt>
      <trkpt lat="45.97759" lon="6.18705">
        <ele>748.8</ele>
        <time>2021-03-27T14:03:33Z</time>
      </trkpt>
      <trkpt lat="45.97754" lon="6.18695">
        <ele>747.6</ele>
        <time>2021-03-27T14:03:34Z</time>
      </trkpt>
      <trkpt lat="45.97753" lon="6.18683">
        <ele>747</ele>
        <time>2021-03-27T14:03:35Z</time>
      </trkpt>
      <trkpt lat="45.97755" lon="6.18672">
        <ele>745.8</ele>
        <time>2021-03-27T14:03:36Z</time>
      </trkpt>
      <trkpt lat="45.97762" lon="6.18663">
        <ele>745.4</ele>
        <time>2021-03-27T14:03:37Z</time>
      </trkpt>
      <trkpt lat="45.97778" lon="6.18643">
        <ele>744.6</ele>
        <time>2021-03-27T14:03:39Z</time>
      </trkpt>
      <trkpt lat="45.97786" lon="6.18631">
        <ele>744.4</ele>
        <time>2021-03-27T14:03:40Z</time>
      </trkpt>
      <trkpt lat="45.97793" lon="6.1862">
        <ele>744.2</ele>
        <time>2021-03-27T14:03:41Z</time>
      </trkpt>
      <trkpt lat="45.978" lon="6.18607">
        <ele>743.2</ele>
        <time>2021-03-27T14:03:42Z</time>
      </trkpt>
      <trkpt lat="45.97807" lon="6.18593">
        <ele>741.6</ele>
        <time>2021-03-27T14:03:43Z</time>
      </trkpt>
      <trkpt lat="45.97813" lon="6.18579">
        <ele>740.8</ele>
        <time>2021-03-27T14:03:44Z</time>
      </trkpt>
      <trkpt lat="45.9782" lon="6.18565">
        <ele>740.2</ele>
        <time>2021-03-27T14:03:45Z</time>
      </trkpt>
      <trkpt lat="45.97826" lon="6.18551">
        <ele>739.2</ele>
        <time>2021-03-27T14:03:46Z</time>
      </trkpt>
      <trkpt lat="45.97831" lon="6.18536">
        <ele>738.4</ele>
        <time>2021-03-27T14:03:47Z</time>
      </trkpt>
      <trkpt lat="45.97835" lon="6.18519">
        <ele>737.2</ele>
        <time>2021-03-27T14:03:48Z</time>
      </trkpt>
      <trkpt lat="45.97836" lon="6.18502">
        <ele>735.8</ele>
        <time>2021-03-27T14:03:49Z</time>
      </trkpt>
      <trkpt lat="45.97836" lon="6.18484">
        <ele>735.8</ele>
        <time>2021-03-27T14:03:50Z</time>
      </trkpt>
      <trkpt lat="45.97836" lon="6.18466">
        <ele>734.6</ele>
        <time>2021-03-27T14:03:51Z</time>
      </trkpt>
      <trkpt lat="45.97837" lon="6.1845">
        <ele>733.2</ele>
        <time>2021-03-27T14:03:52Z</time>
      </trkpt>
      <trkpt lat="45.97841" lon="6.18436">
        <ele>732</ele>
        <time>2021-03-27T14:03:53Z</time>
      </trkpt>
      <trkpt lat="45.97847" lon="6.18423">
        <ele>731</ele>
        <time>2021-03-27T14:03:54Z</time>
      </trkpt>
      <trkpt lat="45.97854" lon="6.18413">
        <ele>730.2</ele>
        <time>2021-03-27T14:03:55Z</time>
      </trkpt>
      <trkpt lat="45.97864" lon="6.18406">
        <ele>728.8</ele>
        <time>2021-03-27T14:03:56Z</time>
      </trkpt>
      <trkpt lat="45.97874" lon="6.18401">
        <ele>727.6</ele>
        <time>2021-03-27T14:03:57Z</time>
      </trkpt>
      <trkpt lat="45.97885" lon="6.18397">
        <ele>726</ele>
        <time>2021-03-27T14:03:58Z</time>
      </trkpt>
      <trkpt lat="45.97897" lon="6.18393">
        <ele>724.8</ele>
        <time>2021-03-27T14:03:59Z</time>
      </trkpt>
      <trkpt lat="45.97908" lon="6.1839">
        <ele>724.2</ele>
        <time>2021-03-27T14:04:00Z</time>
      </trkpt>
      <trkpt lat="45.97921" lon="6.18387">
        <ele>723.2</ele>
        <time>2021-03-27T14:04:01Z</time>
      </trkpt>
      <trkpt lat="45.97931" lon="6.18384">
        <ele>722.6</ele>
        <time>2021-03-27T14:04:02Z</time>
      </trkpt>
      <trkpt lat="45.97941" lon="6.18382">
        <ele>721.4</ele>
        <time>2021-03-27T14:04:03Z</time>
      </trkpt>
      <trkpt lat="45.97949" lon="6.1838">
        <ele>720.4</ele>
        <time>2021-03-27T14:04:04Z</time>
      </trkpt>
      <trkpt lat="45.97956" lon="6.18377">
        <ele>719.6</ele>
        <time>2021-03-27T14:04:05Z</time>
      </trkpt>
      <trkpt lat="45.97962" lon="6.18372">
        <ele>718.4</ele>
        <time>2021-03-27T14:04:06Z</time>
      </trkpt>
      <trkpt lat="45.97965" lon="6.18364">
        <ele>717.6</ele>
        <time>2021-03-27T14:04:07Z</time>
      </trkpt>
      <trkpt lat="45.97966" lon="6.18355">
        <ele>717</ele>
        <time>2021-03-27T14:04:08Z</time>
      </trkpt>
      <trkpt lat="45.97965" lon="6.18344">
        <ele>716.6</ele>
        <time>2021-03-27T14:04:09Z</time>
      </trkpt>
      <trkpt lat="45.97964" lon="6.18332">
        <ele>716.2</ele>
        <time>2021-03-27T14:04:10Z</time>
      </trkpt>
      <trkpt lat="45.97961" lon="6.18321">
        <ele>715.8</ele>
        <time>2021-03-27T14:04:11Z</time>
      </trkpt>
      <trkpt lat="45.97956" lon="6.1831">
        <ele>715.6</ele>
        <time>2021-03-27T14:04:12Z</time>
      </trkpt>
      <trkpt lat="45.97949" lon="6.183">
        <ele>715.6</ele>
        <time>2021-03-27T14:04:13Z</time>
      </trkpt>
      <trkpt lat="45.97941" lon="6.18291">
        <ele>715.4</ele>
        <time>2021-03-27T14:04:14Z</time>
      </trkpt>
      <trkpt lat="45.97933" lon="6.18281">
        <ele>715</ele>
        <time>2021-03-27T14:04:15Z</time>
      </trkpt>
      <trkpt lat="45.97924" lon="6.18271">
        <ele>714.6</ele>
        <time>2021-03-27T14:04:16Z</time>
      </trkpt>
      <trkpt lat="45.97915" lon="6.18261">
        <ele>713.8</ele>
        <time>2021-03-27T14:04:17Z</time>
      </trkpt>
      <trkpt lat="45.97907" lon="6.1825">
        <ele>713.4</ele>
        <time>2021-03-27T14:04:18Z</time>
      </trkpt>
      <trkpt lat="45.97899" lon="6.18239">
        <ele>713</ele>
        <time>2021-03-27T14:04:19Z</time>
      </trkpt>
      <trkpt lat="45.97892" lon="6.18229">
        <ele>712.4</ele>
        <time>2021-03-27T14:04:20Z</time>
      </trkpt>
      <trkpt lat="45.97886" lon="6.1822">
        <ele>711</ele>
        <time>2021-03-27T14:04:21Z</time>
      </trkpt>
      <trkpt lat="45.97882" lon="6.18213">
        <ele>710.2</ele>
        <time>2021-03-27T14:04:22Z</time>
      </trkpt>
      <trkpt lat="45.9788" lon="6.18206">
        <ele>709</ele>
        <time>2021-03-27T14:04:23Z</time>
      </trkpt>
      <trkpt lat="45.97881" lon="6.18199">
        <ele>707.6</ele>
        <time>2021-03-27T14:04:24Z</time>
      </trkpt>
      <trkpt lat="45.97884" lon="6.18194">
        <ele>706.6</ele>
        <time>2021-03-27T14:04:25Z</time>
      </trkpt>
      <trkpt lat="45.97888" lon="6.18192">
        <ele>705.6</ele>
        <time>2021-03-27T14:04:26Z</time>
      </trkpt>
      <trkpt lat="45.97894" lon="6.18194">
        <ele>705.2</ele>
        <time>2021-03-27T14:04:27Z</time>
      </trkpt>
      <trkpt lat="45.979" lon="6.18197">
        <ele>704.8</ele>
        <time>2021-03-27T14:04:28Z</time>
      </trkpt>
      <trkpt lat="45.97906" lon="6.18201">
        <ele>704.6</ele>
        <time>2021-03-27T14:04:29Z</time>
      </trkpt>
      <trkpt lat="45.97913" lon="6.18205">
        <ele>704.4</ele>
        <time>2021-03-27T14:04:30Z</time>
      </trkpt>
      <trkpt lat="45.9792" lon="6.18211">
        <ele>704.2</ele>
        <time>2021-03-27T14:04:31Z</time>
      </trkpt>
      <trkpt lat="45.97927" lon="6.18215">
        <ele>704.2</ele>
        <time>2021-03-27T14:04:32Z</time>
      </trkpt>
      <trkpt lat="45.97935" lon="6.18218">
        <ele>703.8</ele>
        <time>2021-03-27T14:04:33Z</time>
      </trkpt>
      <trkpt lat="45.97942" lon="6.1822">
        <ele>703.6</ele>
        <time>2021-03-27T14:04:34Z</time>
      </trkpt>
      <trkpt lat="45.9795" lon="6.18221">
        <ele>703.2</ele>
        <time>2021-03-27T14:04:35Z</time>
      </trkpt>
      <trkpt lat="45.97958" lon="6.18219">
        <ele>703</ele>
        <time>2021-03-27T14:04:36Z</time>
      </trkpt>
      <trkpt lat="45.97966" lon="6.18216">
        <ele>702.8</ele>
        <time>2021-03-27T14:04:37Z</time>
      </trkpt>
      <trkpt lat="45.97974" lon="6.18211">
        <ele>702.6</ele>
        <time>2021-03-27T14:04:38Z</time>
      </trkpt>
      <trkpt lat="45.97982" lon="6.18205">
        <ele>702.4</ele>
        <time>2021-03-27T14:04:39Z</time>
      </trkpt>
      <trkpt lat="45.97989" lon="6.18199">
        <ele>702</ele>
        <time>2021-03-27T14:04:40Z</time>
      </trkpt>
      <trkpt lat="45.97996" lon="6.18193">
        <ele>701.8</ele>
        <time>2021-03-27T14:04:41Z</time>
      </trkpt>
      <trkpt lat="45.98004" lon="6.18187">
        <ele>701.6</ele>
        <time>2021-03-27T14:04:42Z</time>
      </trkpt>
      <trkpt lat="45.98011" lon="6.18182">
        <ele>701.6</ele>
        <time>2021-03-27T14:04:43Z</time>
      </trkpt>
      <trkpt lat="45.98019" lon="6.18176">
        <ele>701</ele>
        <time>2021-03-27T14:04:44Z</time>
      </trkpt>
      <trkpt lat="45.98026" lon="6.1817">
        <ele>700.8</ele>
        <time>2021-03-27T14:04:45Z</time>
      </trkpt>
      <trkpt lat="45.98033" lon="6.18164">
        <ele>700.6</ele>
        <time>2021-03-27T14:04:46Z</time>
      </trkpt>
      <trkpt lat="45.9804" lon="6.1816">
        <ele>700.6</ele>
        <time>2021-03-27T14:04:47Z</time>
      </trkpt>
      <trkpt lat="45.98048" lon="6.18156">
        <ele>700.6</ele>
        <time>2021-03-27T14:04:48Z</time>
      </trkpt>
      <trkpt lat="45.98055" lon="6.18154">
        <ele>700.6</ele>
        <time>2021-03-27T14:04:49Z</time>
      </trkpt>
      <trkpt lat="45.98062" lon="6.18152">
        <ele>700.2</ele>
        <time>2021-03-27T14:04:50Z</time>
      </trkpt>
      <trkpt lat="45.9807" lon="6.1815">
        <ele>700.4</ele>
        <time>2021-03-27T14:04:51Z</time>
      </trkpt>
      <trkpt lat="45.98077" lon="6.18149">
        <ele>700.2</ele>
        <time>2021-03-27T14:04:52Z</time>
      </trkpt>
      <trkpt lat="45.98085" lon="6.18148">
        <ele>700.2</ele>
        <time>2021-03-27T14:04:53Z</time>
      </trkpt>
      <trkpt lat="45.98092" lon="6.18148">
        <ele>700</ele>
        <time>2021-03-27T14:04:54Z</time>
      </trkpt>
      <trkpt lat="45.981" lon="6.18148">
        <ele>699.8</ele>
        <time>2021-03-27T14:04:55Z</time>
      </trkpt>
      <trkpt lat="45.98109" lon="6.18148">
        <ele>700</ele>
        <time>2021-03-27T14:04:56Z</time>
      </trkpt>
      <trkpt lat="45.98117" lon="6.18148">
        <ele>700</ele>
        <time>2021-03-27T14:04:57Z</time>
      </trkpt>
      <trkpt lat="45.98136" lon="6.1815">
        <ele>699.8</ele>
        <time>2021-03-27T14:04:59Z</time>
      </trkpt>
      <trkpt lat="45.98144" lon="6.18154">
        <ele>699.8</ele>
        <time>2021-03-27T14:05:00Z</time>
      </trkpt>
      <trkpt lat="45.98153" lon="6.1816">
        <ele>699.6</ele>
        <time>2021-03-27T14:05:01Z</time>
      </trkpt>
      <trkpt lat="45.98161" lon="6.18167">
        <ele>699.4</ele>
        <time>2021-03-27T14:05:02Z</time>
      </trkpt>
      <trkpt lat="45.98168" lon="6.18175">
        <ele>699.4</ele>
        <time>2021-03-27T14:05:03Z</time>
      </trkpt>
      <trkpt lat="45.98177" lon="6.18183">
        <ele>698.8</ele>
        <time>2021-03-27T14:05:04Z</time>
      </trkpt>
      <trkpt lat="45.98185" lon="6.18191">
        <ele>698.4</ele>
        <time>2021-03-27T14:05:05Z</time>
      </trkpt>
      <trkpt lat="45.98194" lon="6.18198">
        <ele>698.2</ele>
        <time>2021-03-27T14:05:06Z</time>
      </trkpt>
      <trkpt lat="45.98203" lon="6.18202">
        <ele>697.8</ele>
        <time>2021-03-27T14:05:07Z</time>
      </trkpt>
      <trkpt lat="45.98213" lon="6.18203">
        <ele>697.2</ele>
        <time>2021-03-27T14:05:08Z</time>
      </trkpt>
      <trkpt lat="45.98223" lon="6.182">
        <ele>696.6</ele>
        <time>2021-03-27T14:05:09Z</time>
      </trkpt>
      <trkpt lat="45.98231" lon="6.18193">
        <ele>696</ele>
        <time>2021-03-27T14:05:10Z</time>
      </trkpt>
      <trkpt lat="45.98239" lon="6.18184">
        <ele>695.6</ele>
        <time>2021-03-27T14:05:11Z</time>
      </trkpt>
      <trkpt lat="45.98245" lon="6.18172">
        <ele>695.2</ele>
        <time>2021-03-27T14:05:12Z</time>
      </trkpt>
      <trkpt lat="45.98249" lon="6.18158">
        <ele>695</ele>
        <time>2021-03-27T14:05:13Z</time>
      </trkpt>
      <trkpt lat="45.98251" lon="6.18144">
        <ele>694.6</ele>
        <time>2021-03-27T14:05:14Z</time>
      </trkpt>
      <trkpt lat="45.98253" lon="6.18129">
        <ele>693.6</ele>
        <time>2021-03-27T14:05:15Z</time>
      </trkpt>
      <trkpt lat="45.98255" lon="6.18114">
        <ele>692.4</ele>
        <time>2021-03-27T14:05:16Z</time>
      </trkpt>
      <trkpt lat="45.98257" lon="6.18099">
        <ele>691.6</ele>
        <time>2021-03-27T14:05:17Z</time>
      </trkpt>
      <trkpt lat="45.98259" lon="6.18083">
        <ele>691</ele>
        <time>2021-03-27T14:05:18Z</time>
      </trkpt>
      <trkpt lat="45.9826" lon="6.18068">
        <ele>690.6</ele>
        <time>2021-03-27T14:05:19Z</time>
      </trkpt>
      <trkpt lat="45.98263" lon="6.18053">
        <ele>690</ele>
        <time>2021-03-27T14:05:20Z</time>
      </trkpt>
      <trkpt lat="45.98268" lon="6.18038">
        <ele>689.2</ele>
        <time>2021-03-27T14:05:21Z</time>
      </trkpt>
      <trkpt lat="45.98274" lon="6.18025">
        <ele>688.4</ele>
        <time>2021-03-27T14:05:22Z</time>
      </trkpt>
      <trkpt lat="45.98281" lon="6.18013">
        <ele>687.8</ele>
        <time>2021-03-27T14:05:23Z</time>
      </trkpt>
      <trkpt lat="45.98289" lon="6.18002">
        <ele>686.8</ele>
        <time>2021-03-27T14:05:24Z</time>
      </trkpt>
      <trkpt lat="45.98297" lon="6.17991">
        <ele>686.4</ele>
        <time>2021-03-27T14:05:25Z</time>
      </trkpt>
      <trkpt lat="45.98305" lon="6.1798">
        <ele>686</ele>
        <time>2021-03-27T14:05:26Z</time>
      </trkpt>
      <trkpt lat="45.98313" lon="6.1797">
        <ele>685.4</ele>
        <time>2021-03-27T14:05:27Z</time>
      </trkpt>
      <trkpt lat="45.98321" lon="6.17958">
        <ele>684.6</ele>
        <time>2021-03-27T14:05:28Z</time>
      </trkpt>
      <trkpt lat="45.98329" lon="6.17947">
        <ele>683</ele>
        <time>2021-03-27T14:05:29Z</time>
      </trkpt>
      <trkpt lat="45.98337" lon="6.17936">
        <ele>682.2</ele>
        <time>2021-03-27T14:05:30Z</time>
      </trkpt>
      <trkpt lat="45.98345" lon="6.17927">
        <ele>681.6</ele>
        <time>2021-03-27T14:05:31Z</time>
      </trkpt>
      <trkpt lat="45.98355" lon="6.17921">
        <ele>681</ele>
        <time>2021-03-27T14:05:32Z</time>
      </trkpt>
      <trkpt lat="45.98365" lon="6.1792">
        <ele>680.4</ele>
        <time>2021-03-27T14:05:33Z</time>
      </trkpt>
      <trkpt lat="45.98376" lon="6.17923">
        <ele>679.6</ele>
        <time>2021-03-27T14:05:34Z</time>
      </trkpt>
      <trkpt lat="45.98386" lon="6.1793">
        <ele>678.8</ele>
        <time>2021-03-27T14:05:35Z</time>
      </trkpt>
      <trkpt lat="45.98395" lon="6.1794">
        <ele>678.4</ele>
        <time>2021-03-27T14:05:36Z</time>
      </trkpt>
      <trkpt lat="45.98403" lon="6.17952">
        <ele>677.6</ele>
        <time>2021-03-27T14:05:37Z</time>
      </trkpt>
      <trkpt lat="45.98411" lon="6.17965">
        <ele>676.2</ele>
        <time>2021-03-27T14:05:38Z</time>
      </trkpt>
      <trkpt lat="45.98421" lon="6.17976">
        <ele>675</ele>
        <time>2021-03-27T14:05:39Z</time>
      </trkpt>
      <trkpt lat="45.98431" lon="6.17985">
        <ele>673.6</ele>
        <time>2021-03-27T14:05:40Z</time>
      </trkpt>
      <trkpt lat="45.98442" lon="6.17991">
        <ele>672.6</ele>
        <time>2021-03-27T14:05:41Z</time>
      </trkpt>
      <trkpt lat="45.98454" lon="6.17998">
        <ele>672.4</ele>
        <time>2021-03-27T14:05:42Z</time>
      </trkpt>
      <trkpt lat="45.98465" lon="6.18004">
        <ele>671.6</ele>
        <time>2021-03-27T14:05:43Z</time>
      </trkpt>
      <trkpt lat="45.98477" lon="6.18012">
        <ele>670.6</ele>
        <time>2021-03-27T14:05:44Z</time>
      </trkpt>
      <trkpt lat="45.98488" lon="6.18019">
        <ele>670</ele>
        <time>2021-03-27T14:05:45Z</time>
      </trkpt>
      <trkpt lat="45.98499" lon="6.18027">
        <ele>669.2</ele>
        <time>2021-03-27T14:05:46Z</time>
      </trkpt>
      <trkpt lat="45.9851" lon="6.18035">
        <ele>668.8</ele>
        <time>2021-03-27T14:05:47Z</time>
      </trkpt>
      <trkpt lat="45.98522" lon="6.18042">
        <ele>667.6</ele>
        <time>2021-03-27T14:05:48Z</time>
      </trkpt>
      <trkpt lat="45.98532" lon="6.1805">
        <ele>666.6</ele>
        <time>2021-03-27T14:05:49Z</time>
      </trkpt>
      <trkpt lat="45.98543" lon="6.18056">
        <ele>665.4</ele>
        <time>2021-03-27T14:05:50Z</time>
      </trkpt>
      <trkpt lat="45.98553" lon="6.18063">
        <ele>664</ele>
        <time>2021-03-27T14:05:51Z</time>
      </trkpt>
      <trkpt lat="45.98565" lon="6.18068">
        <ele>663</ele>
        <time>2021-03-27T14:05:52Z</time>
      </trkpt>
      <trkpt lat="45.98576" lon="6.18073">
        <ele>662</ele>
        <time>2021-03-27T14:05:53Z</time>
      </trkpt>
      <trkpt lat="45.98588" lon="6.18078">
        <ele>661.4</ele>
        <time>2021-03-27T14:05:54Z</time>
      </trkpt>
      <trkpt lat="45.986" lon="6.18082">
        <ele>660.2</ele>
        <time>2021-03-27T14:05:55Z</time>
      </trkpt>
      <trkpt lat="45.98611" lon="6.18088">
        <ele>659.2</ele>
        <time>2021-03-27T14:05:56Z</time>
      </trkpt>
      <trkpt lat="45.98622" lon="6.18093">
        <ele>658.4</ele>
        <time>2021-03-27T14:05:57Z</time>
      </trkpt>
      <trkpt lat="45.98634" lon="6.18099">
        <ele>657.8</ele>
        <time>2021-03-27T14:05:58Z</time>
      </trkpt>
      <trkpt lat="45.98646" lon="6.18106">
        <ele>656.6</ele>
        <time>2021-03-27T14:05:59Z</time>
      </trkpt>
      <trkpt lat="45.98658" lon="6.18114">
        <ele>655.4</ele>
        <time>2021-03-27T14:06:00Z</time>
      </trkpt>
      <trkpt lat="45.98669" lon="6.18122">
        <ele>654.4</ele>
        <time>2021-03-27T14:06:01Z</time>
      </trkpt>
      <trkpt lat="45.98682" lon="6.18128">
        <ele>653.4</ele>
        <time>2021-03-27T14:06:02Z</time>
      </trkpt>
      <trkpt lat="45.98695" lon="6.18133">
        <ele>652.4</ele>
        <time>2021-03-27T14:06:03Z</time>
      </trkpt>
      <trkpt lat="45.98707" lon="6.18138">
        <ele>651.4</ele>
        <time>2021-03-27T14:06:04Z</time>
      </trkpt>
      <trkpt lat="45.9872" lon="6.18142">
        <ele>650.2</ele>
        <time>2021-03-27T14:06:05Z</time>
      </trkpt>
      <trkpt lat="45.98733" lon="6.18146">
        <ele>649.6</ele>
        <time>2021-03-27T14:06:06Z</time>
      </trkpt>
      <trkpt lat="45.98745" lon="6.18151">
        <ele>649</ele>
        <time>2021-03-27T14:06:07Z</time>
      </trkpt>
      <trkpt lat="45.98758" lon="6.18155">
        <ele>648</ele>
        <time>2021-03-27T14:06:08Z</time>
      </trkpt>
      <trkpt lat="45.98771" lon="6.18159">
        <ele>647</ele>
        <time>2021-03-27T14:06:09Z</time>
      </trkpt>
      <trkpt lat="45.98784" lon="6.18163">
        <ele>647</ele>
        <time>2021-03-27T14:06:10Z</time>
      </trkpt>
      <trkpt lat="45.98797" lon="6.18167">
        <ele>646.4</ele>
        <time>2021-03-27T14:06:11Z</time>
      </trkpt>
      <trkpt lat="45.98809" lon="6.18171">
        <ele>645.6</ele>
        <time>2021-03-27T14:06:12Z</time>
      </trkpt>
      <trkpt lat="45.98822" lon="6.18174">
        <ele>645</ele>
        <time>2021-03-27T14:06:13Z</time>
      </trkpt>
      <trkpt lat="45.98835" lon="6.18177">
        <ele>644.6</ele>
        <time>2021-03-27T14:06:14Z</time>
      </trkpt>
      <trkpt lat="45.98847" lon="6.1818">
        <ele>644</ele>
        <time>2021-03-27T14:06:15Z</time>
      </trkpt>
      <trkpt lat="45.9886" lon="6.18183">
        <ele>643.4</ele>
        <time>2021-03-27T14:06:16Z</time>
      </trkpt>
      <trkpt lat="45.98872" lon="6.18185">
        <ele>642.4</ele>
        <time>2021-03-27T14:06:17Z</time>
      </trkpt>
      <trkpt lat="45.98884" lon="6.18188">
        <ele>641.2</ele>
        <time>2021-03-27T14:06:18Z</time>
      </trkpt>
      <trkpt lat="45.98896" lon="6.18191">
        <ele>639.8</ele>
        <time>2021-03-27T14:06:19Z</time>
      </trkpt>
      <trkpt lat="45.98908" lon="6.18194">
        <ele>638.6</ele>
        <time>2021-03-27T14:06:20Z</time>
      </trkpt>
      <trkpt lat="45.9892" lon="6.18196">
        <ele>638</ele>
        <time>2021-03-27T14:06:21Z</time>
      </trkpt>
      <trkpt lat="45.98932" lon="6.18198">
        <ele>637</ele>
        <time>2021-03-27T14:06:22Z</time>
      </trkpt>
      <trkpt lat="45.98944" lon="6.18199">
        <ele>636.2</ele>
        <time>2021-03-27T14:06:23Z</time>
      </trkpt>
      <trkpt lat="45.98956" lon="6.18198">
        <ele>635.6</ele>
        <time>2021-03-27T14:06:24Z</time>
      </trkpt>
      <trkpt lat="45.98968" lon="6.18198">
        <ele>634.8</ele>
        <time>2021-03-27T14:06:25Z</time>
      </trkpt>
      <trkpt lat="45.9898" lon="6.18197">
        <ele>634</ele>
        <time>2021-03-27T14:06:26Z</time>
      </trkpt>
      <trkpt lat="45.98992" lon="6.18195">
        <ele>633.2</ele>
        <time>2021-03-27T14:06:27Z</time>
      </trkpt>
      <trkpt lat="45.99004" lon="6.18193">
        <ele>632.4</ele>
        <time>2021-03-27T14:06:28Z</time>
      </trkpt>
      <trkpt lat="45.99016" lon="6.18192">
        <ele>631.8</ele>
        <time>2021-03-27T14:06:29Z</time>
      </trkpt>
      <trkpt lat="45.99028" lon="6.1819">
        <ele>631.4</ele>
        <time>2021-03-27T14:06:30Z</time>
      </trkpt>
      <trkpt lat="45.9904" lon="6.18189">
        <ele>631</ele>
        <time>2021-03-27T14:06:31Z</time>
      </trkpt>
      <trkpt lat="45.99052" lon="6.18188">
        <ele>630.2</ele>
        <time>2021-03-27T14:06:32Z</time>
      </trkpt>
      <trkpt lat="45.99062" lon="6.18187">
        <ele>629.6</ele>
        <time>2021-03-27T14:06:33Z</time>
      </trkpt>
      <trkpt lat="45.99071" lon="6.18186">
        <ele>628.8</ele>
        <time>2021-03-27T14:06:34Z</time>
      </trkpt>
      <trkpt lat="45.99079" lon="6.18185">
        <ele>627.8</ele>
        <time>2021-03-27T14:06:35Z</time>
      </trkpt>
      <trkpt lat="45.99085" lon="6.18185">
        <ele>626.6</ele>
        <time>2021-03-27T14:06:36Z</time>
      </trkpt>
      <trkpt lat="45.99091" lon="6.18184">
        <ele>625.6</ele>
        <time>2021-03-27T14:06:37Z</time>
      </trkpt>
      <trkpt lat="45.99096" lon="6.18181">
        <ele>625.2</ele>
        <time>2021-03-27T14:06:38Z</time>
      </trkpt>
      <trkpt lat="45.99102" lon="6.18177">
        <ele>624.2</ele>
        <time>2021-03-27T14:06:39Z</time>
      </trkpt>
      <trkpt lat="45.99108" lon="6.18172">
        <ele>623</ele>
        <time>2021-03-27T14:06:40Z</time>
      </trkpt>
      <trkpt lat="45.99115" lon="6.18166">
        <ele>622.4</ele>
        <time>2021-03-27T14:06:41Z</time>
      </trkpt>
      <trkpt lat="45.99122" lon="6.1816">
        <ele>622</ele>
        <time>2021-03-27T14:06:42Z</time>
      </trkpt>
      <trkpt lat="45.9913" lon="6.18155">
        <ele>621.8</ele>
        <time>2021-03-27T14:06:43Z</time>
      </trkpt>
      <trkpt lat="45.99139" lon="6.1815">
        <ele>621.8</ele>
        <time>2021-03-27T14:06:44Z</time>
      </trkpt>
      <trkpt lat="45.99149" lon="6.18148">
        <ele>621.4</ele>
        <time>2021-03-27T14:06:45Z</time>
      </trkpt>
      <trkpt lat="45.99159" lon="6.1815">
        <ele>621.2</ele>
        <time>2021-03-27T14:06:46Z</time>
      </trkpt>
      <trkpt lat="45.99169" lon="6.18155">
        <ele>621.2</ele>
        <time>2021-03-27T14:06:47Z</time>
      </trkpt>
      <trkpt lat="45.99179" lon="6.18163">
        <ele>620.4</ele>
        <time>2021-03-27T14:06:48Z</time>
      </trkpt>
      <trkpt lat="45.99187" lon="6.18173">
        <ele>619.6</ele>
        <time>2021-03-27T14:06:49Z</time>
      </trkpt>
      <trkpt lat="45.99196" lon="6.18183">
        <ele>618.4</ele>
        <time>2021-03-27T14:06:50Z</time>
      </trkpt>
      <trkpt lat="45.99206" lon="6.18192">
        <ele>617.6</ele>
        <time>2021-03-27T14:06:51Z</time>
      </trkpt>
      <trkpt lat="45.99217" lon="6.18199">
        <ele>617</ele>
        <time>2021-03-27T14:06:52Z</time>
      </trkpt>
      <trkpt lat="45.99229" lon="6.18202">
        <ele>616.2</ele>
        <time>2021-03-27T14:06:53Z</time>
      </trkpt>
      <trkpt lat="45.99241" lon="6.18202">
        <ele>615.4</ele>
        <time>2021-03-27T14:06:54Z</time>
      </trkpt>
      <trkpt lat="45.99252" lon="6.18199">
        <ele>614.8</ele>
        <time>2021-03-27T14:06:55Z</time>
      </trkpt>
      <trkpt lat="45.99263" lon="6.18192">
        <ele>614</ele>
        <time>2021-03-27T14:06:56Z</time>
      </trkpt>
      <trkpt lat="45.99272" lon="6.18183">
        <ele>613</ele>
        <time>2021-03-27T14:06:57Z</time>
      </trkpt>
      <trkpt lat="45.9928" lon="6.18171">
        <ele>611.8</ele>
        <time>2021-03-27T14:06:58Z</time>
      </trkpt>
      <trkpt lat="45.99286" lon="6.18157">
        <ele>610.8</ele>
        <time>2021-03-27T14:06:59Z</time>
      </trkpt>
      <trkpt lat="45.9929" lon="6.18141">
        <ele>609.8</ele>
        <time>2021-03-27T14:07:00Z</time>
      </trkpt>
      <trkpt lat="45.99294" lon="6.18125">
        <ele>609.2</ele>
        <time>2021-03-27T14:07:01Z</time>
      </trkpt>
      <trkpt lat="45.99297" lon="6.18108">
        <ele>608.4</ele>
        <time>2021-03-27T14:07:02Z</time>
      </trkpt>
      <trkpt lat="45.99302" lon="6.18092">
        <ele>607.4</ele>
        <time>2021-03-27T14:07:03Z</time>
      </trkpt>
      <trkpt lat="45.99316" lon="6.18064">
        <ele>605.6</ele>
        <time>2021-03-27T14:07:05Z</time>
      </trkpt>
      <trkpt lat="45.99326" lon="6.18054">
        <ele>604.8</ele>
        <time>2021-03-27T14:07:06Z</time>
      </trkpt>
      <trkpt lat="45.99338" lon="6.18047">
        <ele>604.2</ele>
        <time>2021-03-27T14:07:07Z</time>
      </trkpt>
      <trkpt lat="45.9935" lon="6.18044">
        <ele>603.6</ele>
        <time>2021-03-27T14:07:08Z</time>
      </trkpt>
      <trkpt lat="45.99362" lon="6.18046">
        <ele>602.8</ele>
        <time>2021-03-27T14:07:09Z</time>
      </trkpt>
      <trkpt lat="45.99375" lon="6.18051">
        <ele>602</ele>
        <time>2021-03-27T14:07:10Z</time>
      </trkpt>
      <trkpt lat="45.99387" lon="6.18057">
        <ele>601.2</ele>
        <time>2021-03-27T14:07:11Z</time>
      </trkpt>
      <trkpt lat="45.99399" lon="6.18064">
        <ele>601.2</ele>
        <time>2021-03-27T14:07:12Z</time>
      </trkpt>
      <trkpt lat="45.99411" lon="6.18073">
        <ele>599.8</ele>
        <time>2021-03-27T14:07:13Z</time>
      </trkpt>
      <trkpt lat="45.99422" lon="6.18082">
        <ele>598.8</ele>
        <time>2021-03-27T14:07:14Z</time>
      </trkpt>
      <trkpt lat="45.99432" lon="6.18094">
        <ele>598</ele>
        <time>2021-03-27T14:07:15Z</time>
      </trkpt>
      <trkpt lat="45.99441" lon="6.18107">
        <ele>596.8</ele>
        <time>2021-03-27T14:07:16Z</time>
      </trkpt>
      <trkpt lat="45.99449" lon="6.18122">
        <ele>595.2</ele>
        <time>2021-03-27T14:07:17Z</time>
      </trkpt>
      <trkpt lat="45.99458" lon="6.18136">
        <ele>594</ele>
        <time>2021-03-27T14:07:18Z</time>
      </trkpt>
      <trkpt lat="45.99468" lon="6.18149">
        <ele>593</ele>
        <time>2021-03-27T14:07:19Z</time>
      </trkpt>
      <trkpt lat="45.99479" lon="6.18158">
        <ele>591.8</ele>
        <time>2021-03-27T14:07:20Z</time>
      </trkpt>
      <trkpt lat="45.99491" lon="6.18165">
        <ele>591</ele>
        <time>2021-03-27T14:07:21Z</time>
      </trkpt>
      <trkpt lat="45.99504" lon="6.1817">
        <ele>590.4</ele>
        <time>2021-03-27T14:07:22Z</time>
      </trkpt>
      <trkpt lat="45.99517" lon="6.18176">
        <ele>589.2</ele>
        <time>2021-03-27T14:07:23Z</time>
      </trkpt>
      <trkpt lat="45.9953" lon="6.18181">
        <ele>588</ele>
        <time>2021-03-27T14:07:24Z</time>
      </trkpt>
      <trkpt lat="45.99543" lon="6.18188">
        <ele>587</ele>
        <time>2021-03-27T14:07:25Z</time>
      </trkpt>
      <trkpt lat="45.99556" lon="6.18194">
        <ele>586</ele>
        <time>2021-03-27T14:07:26Z</time>
      </trkpt>
      <trkpt lat="45.99569" lon="6.182">
        <ele>584.6</ele>
        <time>2021-03-27T14:07:27Z</time>
      </trkpt>
      <trkpt lat="45.99582" lon="6.18206">
        <ele>583.4</ele>
        <time>2021-03-27T14:07:28Z</time>
      </trkpt>
      <trkpt lat="45.99595" lon="6.18211">
        <ele>582.2</ele>
        <time>2021-03-27T14:07:29Z</time>
      </trkpt>
      <trkpt lat="45.99608" lon="6.18217">
        <ele>581</ele>
        <time>2021-03-27T14:07:30Z</time>
      </trkpt>
      <trkpt lat="45.9962" lon="6.18223">
        <ele>579.8</ele>
        <time>2021-03-27T14:07:31Z</time>
      </trkpt>
      <trkpt lat="45.99633" lon="6.18228">
        <ele>578.8</ele>
        <time>2021-03-27T14:07:32Z</time>
      </trkpt>
      <trkpt lat="45.99658" lon="6.1824">
        <ele>576.2</ele>
        <time>2021-03-27T14:07:34Z</time>
      </trkpt>
      <trkpt lat="45.99683" lon="6.18251">
        <ele>572.8</ele>
        <time>2021-03-27T14:07:36Z</time>
      </trkpt>
      <trkpt lat="45.99696" lon="6.18257">
        <ele>571.2</ele>
        <time>2021-03-27T14:07:37Z</time>
      </trkpt>
      <trkpt lat="45.99708" lon="6.18262">
        <ele>570</ele>
        <time>2021-03-27T14:07:38Z</time>
      </trkpt>
      <trkpt lat="45.9972" lon="6.18267">
        <ele>568.6</ele>
        <time>2021-03-27T14:07:39Z</time>
      </trkpt>
      <trkpt lat="45.99733" lon="6.1827">
        <ele>567.8</ele>
        <time>2021-03-27T14:07:40Z</time>
      </trkpt>
      <trkpt lat="45.99746" lon="6.18269">
        <ele>566.8</ele>
        <time>2021-03-27T14:07:41Z</time>
      </trkpt>
      <trkpt lat="45.9976" lon="6.18264">
        <ele>566.2</ele>
        <time>2021-03-27T14:07:42Z</time>
      </trkpt>
      <trkpt lat="45.99772" lon="6.18255">
        <ele>565.4</ele>
        <time>2021-03-27T14:07:43Z</time>
      </trkpt>
      <trkpt lat="45.99783" lon="6.18242">
        <ele>564.6</ele>
        <time>2021-03-27T14:07:44Z</time>
      </trkpt>
      <trkpt lat="45.99791" lon="6.18226">
        <ele>563.4</ele>
        <time>2021-03-27T14:07:45Z</time>
      </trkpt>
      <trkpt lat="45.99797" lon="6.18208">
        <ele>562.2</ele>
        <time>2021-03-27T14:07:46Z</time>
      </trkpt>
      <trkpt lat="45.99801" lon="6.1819">
        <ele>560.8</ele>
        <time>2021-03-27T14:07:47Z</time>
      </trkpt>
      <trkpt lat="45.99806" lon="6.18171">
        <ele>560.2</ele>
        <time>2021-03-27T14:07:48Z</time>
      </trkpt>
      <trkpt lat="45.99811" lon="6.18152">
        <ele>559.4</ele>
        <time>2021-03-27T14:07:49Z</time>
      </trkpt>
      <trkpt lat="45.99817" lon="6.18134">
        <ele>558.4</ele>
        <time>2021-03-27T14:07:50Z</time>
      </trkpt>
      <trkpt lat="45.99824" lon="6.18117">
        <ele>557.2</ele>
        <time>2021-03-27T14:07:51Z</time>
      </trkpt>
      <trkpt lat="45.99831" lon="6.18101">
        <ele>556.2</ele>
        <time>2021-03-27T14:07:52Z</time>
      </trkpt>
      <trkpt lat="45.99838" lon="6.18087">
        <ele>554.8</ele>
        <time>2021-03-27T14:07:53Z</time>
      </trkpt>
      <trkpt lat="45.99845" lon="6.18073">
        <ele>553.4</ele>
        <time>2021-03-27T14:07:54Z</time>
      </trkpt>
      <trkpt lat="45.99853" lon="6.1806">
        <ele>552.4</ele>
        <time>2021-03-27T14:07:55Z</time>
      </trkpt>
      <trkpt lat="45.99861" lon="6.1805">
        <ele>551.6</ele>
        <time>2021-03-27T14:07:56Z</time>
      </trkpt>
      <trkpt lat="45.9987" lon="6.18045">
        <ele>550.2</ele>
        <time>2021-03-27T14:07:57Z</time>
      </trkpt>
      <trkpt lat="45.99881" lon="6.18044">
        <ele>549.2</ele>
        <time>2021-03-27T14:07:58Z</time>
      </trkpt>
      <trkpt lat="45.99889" lon="6.18044">
        <ele>548.8</ele>
        <time>2021-03-27T14:07:59Z</time>
      </trkpt>
      <trkpt lat="45.99898" lon="6.18046">
        <ele>548.2</ele>
        <time>2021-03-27T14:08:00Z</time>
      </trkpt>
      <trkpt lat="45.99907" lon="6.18048">
        <ele>548.2</ele>
        <time>2021-03-27T14:08:01Z</time>
      </trkpt>
      <trkpt lat="45.99922" lon="6.18051">
        <ele>548.2</ele>
        <time>2021-03-27T14:08:03Z</time>
      </trkpt>
      <trkpt lat="45.99929" lon="6.18053">
        <ele>548.2</ele>
        <time>2021-03-27T14:08:04Z</time>
      </trkpt>
      <trkpt lat="45.99935" lon="6.18053">
        <ele>548</ele>
        <time>2021-03-27T14:08:05Z</time>
      </trkpt>
      <trkpt lat="45.99947" lon="6.18051">
        <ele>548.2</ele>
        <time>2021-03-27T14:08:07Z</time>
      </trkpt>
      <trkpt lat="45.99952" lon="6.18048">
        <ele>548.4</ele>
        <time>2021-03-27T14:08:08Z</time>
      </trkpt>
      <trkpt lat="45.99957" lon="6.18046">
        <ele>549</ele>
        <time>2021-03-27T14:08:09Z</time>
      </trkpt>
      <trkpt lat="45.99962" lon="6.18043">
        <ele>549.4</ele>
        <time>2021-03-27T14:08:10Z</time>
      </trkpt>
      <trkpt lat="45.99972" lon="6.18038">
        <ele>550.2</ele>
        <time>2021-03-27T14:08:12Z</time>
      </trkpt>
      <trkpt lat="45.99977" lon="6.18036">
        <ele>550.8</ele>
        <time>2021-03-27T14:08:13Z</time>
      </trkpt>
      <trkpt lat="45.99982" lon="6.18033">
        <ele>551.4</ele>
        <time>2021-03-27T14:08:14Z</time>
      </trkpt>
      <trkpt lat="45.99987" lon="6.18031">
        <ele>551.8</ele>
        <time>2021-03-27T14:08:15Z</time>
      </trkpt>
      <trkpt lat="45.99991" lon="6.1803">
        <ele>552.4</ele>
        <time>2021-03-27T14:08:16Z</time>
      </trkpt>
      <trkpt lat="45.99995" lon="6.18027">
        <ele>552.8</ele>
        <time>2021-03-27T14:08:17Z</time>
      </trkpt>
      <trkpt lat="45.99998" lon="6.18023">
        <ele>552.8</ele>
        <time>2021-03-27T14:08:18Z</time>
      </trkpt>
      <trkpt lat="46" lon="6.18018">
        <ele>553</ele>
        <time>2021-03-27T14:08:19Z</time>
      </trkpt>
      <trkpt lat="46.00002" lon="6.18012">
        <ele>552.8</ele>
        <time>2021-03-27T14:08:20Z</time>
      </trkpt>
      <trkpt lat="46.00004" lon="6.18005">
        <ele>553</ele>
        <time>2021-03-27T14:08:21Z</time>
      </trkpt>
      <trkpt lat="46.00008" lon="6.17999">
        <ele>553</ele>
        <time>2021-03-27T14:08:22Z</time>
      </trkpt>
      <trkpt lat="46.00012" lon="6.17995">
        <ele>553</ele>
        <time>2021-03-27T14:08:23Z</time>
      </trkpt>
      <trkpt lat="46.00017" lon="6.17994">
        <ele>553</ele>
        <time>2021-03-27T14:08:24Z</time>
      </trkpt>
      <trkpt lat="46.00021" lon="6.17996">
        <ele>553.2</ele>
        <time>2021-03-27T14:08:25Z</time>
      </trkpt>
      <trkpt lat="46.00024" lon="6.18001">
        <ele>553.4</ele>
        <time>2021-03-27T14:08:26Z</time>
      </trkpt>
      <trkpt lat="46.00027" lon="6.18011">
        <ele>553.4</ele>
        <time>2021-03-27T14:08:28Z</time>
      </trkpt>
      <trkpt lat="46.00027" lon="6.18016">
        <ele>553.6</ele>
        <time>2021-03-27T14:08:29Z</time>
      </trkpt>
      <trkpt lat="46.00026" lon="6.18022">
        <ele>553.8</ele>
        <time>2021-03-27T14:08:30Z</time>
      </trkpt>
      <trkpt lat="46.00026" lon="6.18026">
        <ele>554</ele>
        <time>2021-03-27T14:08:31Z</time>
      </trkpt>
      <trkpt lat="46.00026" lon="6.18031">
        <ele>554</ele>
        <time>2021-03-27T14:08:32Z</time>
      </trkpt>
      <trkpt lat="46.00026" lon="6.18035">
        <ele>554.2</ele>
        <time>2021-03-27T14:08:33Z</time>
      </trkpt>
      <trkpt lat="46.00027" lon="6.18043">
        <ele>554.8</ele>
        <time>2021-03-27T14:08:35Z</time>
      </trkpt>
      <trkpt lat="46.00028" lon="6.18046">
        <ele>555.2</ele>
        <time>2021-03-27T14:08:36Z</time>
      </trkpt>
      <trkpt lat="46.00029" lon="6.18049">
        <ele>555.2</ele>
        <time>2021-03-27T14:08:37Z</time>
      </trkpt>
      <trkpt lat="46.00031" lon="6.18052">
        <ele>555.6</ele>
        <time>2021-03-27T14:08:38Z</time>
      </trkpt>
      <trkpt lat="46.00032" lon="6.18056">
        <ele>555.4</ele>
        <time>2021-03-27T14:08:39Z</time>
      </trkpt>
      <trkpt lat="46.00034" lon="6.18058">
        <ele>555.4</ele>
        <time>2021-03-27T14:08:40Z</time>
      </trkpt>
      <trkpt lat="46.00037" lon="6.18062">
        <ele>555.6</ele>
        <time>2021-03-27T14:08:42Z</time>
      </trkpt>
      <trkpt lat="46.00039" lon="6.18064">
        <ele>555.6</ele>
        <time>2021-03-27T14:08:43Z</time>
      </trkpt>
      <trkpt lat="46.0004" lon="6.18067">
        <ele>555.6</ele>
        <time>2021-03-27T14:08:44Z</time>
      </trkpt>
      <trkpt lat="46.00042" lon="6.18069">
        <ele>555.6</ele>
        <time>2021-03-27T14:08:45Z</time>
      </trkpt>
      <trkpt lat="46.00043" lon="6.1807">
        <ele>555.6</ele>
        <time>2021-03-27T14:08:46Z</time>
      </trkpt>
      <trkpt lat="46.00044" lon="6.18069">
        <ele>555.6</ele>
        <time>2021-03-27T14:08:47Z</time>
      </trkpt>
      <trkpt lat="46.00043" lon="6.18067">
        <ele>555.6</ele>
        <time>2021-03-27T14:08:48Z</time>
      </trkpt>
      <trkpt lat="46.00042" lon="6.18065">
        <ele>555.6</ele>
        <time>2021-03-27T14:08:49Z</time>
      </trkpt>
      <trkpt lat="46.00039" lon="6.18063">
        <ele>555.6</ele>
        <time>2021-03-27T14:08:50Z</time>
      </trkpt>
      <trkpt lat="46.00037" lon="6.18059">
        <ele>555.6</ele>
        <time>2021-03-27T14:08:51Z</time>
      </trkpt>
      <trkpt lat="46.00035" lon="6.18055">
        <ele>555.6</ele>
        <time>2021-03-27T14:08:52Z</time>
      </trkpt>
      <trkpt lat="46.00033" lon="6.1805">
        <ele>555.6</ele>
        <time>2021-03-27T14:08:53Z</time>
      </trkpt>
      <trkpt lat="46.00032" lon="6.18045">
        <ele>555.6</ele>
        <time>2021-03-27T14:08:54Z</time>
      </trkpt>
      <trkpt lat="46.00031" lon="6.18039">
        <ele>555.4</ele>
        <time>2021-03-27T14:08:55Z</time>
      </trkpt>
      <trkpt lat="46.00031" lon="6.18034">
        <ele>555.2</ele>
        <time>2021-03-27T14:08:56Z</time>
      </trkpt>
      <trkpt lat="46.00031" lon="6.18029">
        <ele>555.2</ele>
        <time>2021-03-27T14:08:57Z</time>
      </trkpt>
      <trkpt lat="46.00033" lon="6.18024">
        <ele>555.2</ele>
        <time>2021-03-27T14:08:58Z</time>
      </trkpt>
      <trkpt lat="46.00036" lon="6.1802">
        <ele>555</ele>
        <time>2021-03-27T14:08:59Z</time>
      </trkpt>
      <trkpt lat="46.00039" lon="6.18018">
        <ele>555.2</ele>
        <time>2021-03-27T14:09:00Z</time>
      </trkpt>
      <trkpt lat="46.00042" lon="6.18016">
        <ele>555</ele>
        <time>2021-03-27T14:09:01Z</time>
      </trkpt>
      <trkpt lat="46.00046" lon="6.18014">
        <ele>555</ele>
        <time>2021-03-27T14:09:02Z</time>
      </trkpt>
      <trkpt lat="46.00049" lon="6.18013">
        <ele>555</ele>
        <time>2021-03-27T14:09:03Z</time>
      </trkpt>
      <trkpt lat="46.00053" lon="6.18011">
        <ele>555.2</ele>
        <time>2021-03-27T14:09:04Z</time>
      </trkpt>
      <trkpt lat="46.00056" lon="6.18011">
        <ele>555</ele>
        <time>2021-03-27T14:09:05Z</time>
      </trkpt>
      <trkpt lat="46.00059" lon="6.1801">
        <ele>555</ele>
        <time>2021-03-27T14:09:06Z</time>
      </trkpt>
      <trkpt lat="46.00063" lon="6.18008">
        <ele>555.2</ele>
        <time>2021-03-27T14:09:07Z</time>
      </trkpt>
      <trkpt lat="46.00066" lon="6.18007">
        <ele>555.6</ele>
        <time>2021-03-27T14:09:08Z</time>
      </trkpt>
      <trkpt lat="46.0007" lon="6.18006">
        <ele>555.8</ele>
        <time>2021-03-27T14:09:09Z</time>
      </trkpt>
      <trkpt lat="46.00073" lon="6.18005">
        <ele>556</ele>
        <time>2021-03-27T14:09:10Z</time>
      </trkpt>
      <trkpt lat="46.00076" lon="6.18005">
        <ele>556.4</ele>
        <time>2021-03-27T14:09:11Z</time>
      </trkpt>
      <trkpt lat="46.00079" lon="6.18005">
        <ele>556.4</ele>
        <time>2021-03-27T14:09:12Z</time>
      </trkpt>
      <trkpt lat="46.00081" lon="6.18005">
        <ele>556.4</ele>
        <time>2021-03-27T14:09:13Z</time>
      </trkpt>
      <trkpt lat="46.00082" lon="6.18005">
        <ele>556.6</ele>
        <time>2021-03-27T14:09:14Z</time>
      </trkpt>
      <trkpt lat="46.00083" lon="6.18005">
        <ele>556.8</ele>
        <time>2021-03-27T14:09:15Z</time>
      </trkpt>
      <trkpt lat="46.00084" lon="6.18005">
        <ele>556.8</ele>
        <time>2021-03-27T14:09:16Z</time>
      </trkpt>
      <trkpt lat="46.00084" lon="6.18004">
        <ele>557</ele>
        <time>2021-03-27T14:09:17Z</time>
      </trkpt>
      <trkpt lat="46.00084" lon="6.18004">
        <ele>557.2</ele>
        <time>2021-03-27T14:09:18Z</time>
      </trkpt>
      <trkpt lat="46.00085" lon="6.18004">
        <ele>557.4</ele>
        <time>2021-03-27T14:09:19Z</time>
      </trkpt>
      <trkpt lat="46.00085" lon="6.18004">
        <ele>557.6</ele>
        <time>2021-03-27T14:09:20Z</time>
      </trkpt>
      <trkpt lat="46.00085" lon="6.18004">
        <ele>557.8</ele>
        <time>2021-03-27T14:09:21Z</time>
      </trkpt>
      <trkpt lat="46.00086" lon="6.18004">
        <ele>557.8</ele>
        <time>2021-03-27T14:09:22Z</time>
      </trkpt>
      <trkpt lat="46.00086" lon="6.18003">
        <ele>558.2</ele>
        <time>2021-03-27T14:09:23Z</time>
      </trkpt>
      <trkpt lat="46.00086" lon="6.18003">
        <ele>558.2</ele>
        <time>2021-03-27T14:09:24Z</time>
      </trkpt>
      <trkpt lat="46.00086" lon="6.18003">
        <ele>558.4</ele>
        <time>2021-03-27T14:09:25Z</time>
      </trkpt>
      <trkpt lat="46.00086" lon="6.18003">
        <ele>558.4</ele>
        <time>2021-03-27T14:09:26Z</time>
      </trkpt>
      <trkpt lat="46.00086" lon="6.18003">
        <ele>558.4</ele>
        <time>2021-03-27T14:09:27Z</time>
      </trkpt>
      <trkpt lat="46.00086" lon="6.18003">
        <ele>558.6</ele>
        <time>2021-03-27T14:09:28Z</time>
      </trkpt>
      <trkpt lat="46.00086" lon="6.18003">
        <ele>558.6</ele>
        <time>2021-03-27T14:09:29Z</time>
      </trkpt>
      <trkpt lat="46.00086" lon="6.18003">
        <ele>558.6</ele>
        <time>2021-03-27T14:09:30Z</time>
      </trkpt>
      <trkpt lat="46.00086" lon="6.18003">
        <ele>558.6</ele>
        <time>2021-03-27T14:09:31Z</time>
      </trkpt>
      <trkpt lat="46.00086" lon="6.18003">
        <ele>558.6</ele>
        <time>2021-03-27T14:09:32Z</time>
      </trkpt>
      <trkpt lat="46.00086" lon="6.18003">
        <ele>558.4</ele>
        <time>2021-03-27T14:09:33Z</time>
      </trkpt>
      <trkpt lat="46.00086" lon="6.18003">
        <ele>558.4</ele>
        <time>2021-03-27T14:09:34Z</time>
      </trkpt>
      <trkpt lat="46.00086" lon="6.18003">
        <ele>558.6</ele>
        <time>2021-03-27T14:09:35Z</time>
      </trkpt>
      <trkpt lat="46.00086" lon="6.18003">
        <ele>558.4</ele>
        <time>2021-03-27T14:09:36Z</time>
      </trkpt>
      <trkpt lat="46.00086" lon="6.18003">
        <ele>558.4</ele>
        <time>2021-03-27T14:09:37Z</time>
      </trkpt>
      <trkpt lat="46.00086" lon="6.18003">
        <ele>558.6</ele>
        <time>2021-03-27T14:09:38Z</time>
      </trkpt>
      <trkpt lat="46.00086" lon="6.18003">
        <ele>558.4</ele>
        <time>2021-03-27T14:09:39Z</time>
      </trkpt>
      <trkpt lat="46.00086" lon="6.18004">
        <ele>558.4</ele>
        <time>2021-03-27T14:09:40Z</time>
      </trkpt>
      <trkpt lat="46.00086" lon="6.18004">
        <ele>558.4</ele>
        <time>2021-03-27T14:09:41Z</time>
      </trkpt>
      <trkpt lat="46.00086" lon="6.18004">
        <ele>558.4</ele>
        <time>2021-03-27T14:09:42Z</time>
      </trkpt>
      <trkpt lat="46.00086" lon="6.18004">
        <ele>558.4</ele>
        <time>2021-03-27T14:09:43Z</time>
      </trkpt>
      <trkpt lat="46.00086" lon="6.18004">
        <ele>558.4</ele>
        <time>2021-03-27T14:09:44Z</time>
      </trkpt>
      <trkpt lat="46.00086" lon="6.18004">
        <ele>558.4</ele>
        <time>2021-03-27T14:09:45Z</time>
      </trkpt>
      <trkpt lat="46.00086" lon="6.18004">
        <ele>558.4</ele>
        <time>2021-03-27T14:09:46Z</time>
      </trkpt>
      <trkpt lat="46.00086" lon="6.18003">
        <ele>558.4</ele>
        <time>2021-03-27T14:09:47Z</time>
      </trkpt>
      <trkpt lat="46.00086" lon="6.18003">
        <ele>558.4</ele>
        <time>2021-03-27T14:09:48Z</time>
      </trkpt>
      <trkpt lat="46.00086" lon="6.18003">
        <ele>558.4</ele>
        <time>2021-03-27T14:09:49Z</time>
      </trkpt>
      <trkpt lat="46.00086" lon="6.18003">
        <ele>558.4</ele>
        <time>2021-03-27T14:09:50Z</time>
      </trkpt>
      <trkpt lat="46.00086" lon="6.18003">
        <ele>558.6</ele>
        <time>2021-03-27T14:09:51Z</time>
      </trkpt>
      <trkpt lat="46.00086" lon="6.18003">
        <ele>558.6</ele>
        <time>2021-03-27T14:09:52Z</time>
      </trkpt>
      <trkpt lat="46.00086" lon="6.18003">
        <ele>558.4</ele>
        <time>2021-03-27T14:09:53Z</time>
      </trkpt>
      <trkpt lat="46.00086" lon="6.18003">
        <ele>558.4</ele>
        <time>2021-03-27T14:09:54Z</time>
      </trkpt>
      <trkpt lat="46.00086" lon="6.18003">
        <ele>558.4</ele>
        <time>2021-03-27T14:09:55Z</time>
      </trkpt>
      <trkpt lat="46.00086" lon="6.18003">
        <ele>558.4</ele>
        <time>2021-03-27T14:09:56Z</time>
      </trkpt>
      <trkpt lat="46.00086" lon="6.18003">
        <ele>558.6</ele>
        <time>2021-03-27T14:09:57Z</time>
      </trkpt>
      <trkpt lat="46.00086" lon="6.18003">
        <ele>558.4</ele>
        <time>2021-03-27T14:09:58Z</time>
      </trkpt>
      <trkpt lat="46.00086" lon="6.18003">
        <ele>558.6</ele>
        <time>2021-03-27T14:09:59Z</time>
      </trkpt>
      <trkpt lat="46.00086" lon="6.18003">
        <ele>558.4</ele>
        <time>2021-03-27T14:10:00Z</time>
      </trkpt>
      <trkpt lat="46.00086" lon="6.18003">
        <ele>558.4</ele>
        <time>2021-03-27T14:10:01Z</time>
      </trkpt>
      <trkpt lat="46.00086" lon="6.18003">
        <ele>558.4</ele>
        <time>2021-03-27T14:10:02Z</time>
      </trkpt>
      <trkpt lat="46.00086" lon="6.18003">
        <ele>558.4</ele>
        <time>2021-03-27T14:10:03Z</time>
      </trkpt>
      <trkpt lat="46.00086" lon="6.18003">
        <ele>558.6</ele>
        <time>2021-03-27T14:10:04Z</time>
      </trkpt>
      <trkpt lat="46.00086" lon="6.18003">
        <ele>558.4</ele>
        <time>2021-03-27T14:10:05Z</time>
      </trkpt>
      <trkpt lat="46.00086" lon="6.18003">
        <ele>558.6</ele>
        <time>2021-03-27T14:10:06Z</time>
      </trkpt>
      <trkpt lat="46.00086" lon="6.18003">
        <ele>558.4</ele>
        <time>2021-03-27T14:10:07Z</time>
      </trkpt>
      <trkpt lat="46.00086" lon="6.18003">
        <ele>558.6</ele>
        <time>2021-03-27T14:10:08Z</time>
      </trkpt>
      <trkpt lat="46.00086" lon="6.18002">
        <ele>558.4</ele>
        <time>2021-03-27T14:10:09Z</time>
      </trkpt>
      <trkpt lat="46.00086" lon="6.18002">
        <ele>558.6</ele>
        <time>2021-03-27T14:10:10Z</time>
      </trkpt>
      <trkpt lat="46.00086" lon="6.18002">
        <ele>558.6</ele>
        <time>2021-03-27T14:10:11Z</time>
      </trkpt>
      <trkpt lat="46.00085" lon="6.18002">
        <ele>558.6</ele>
        <time>2021-03-27T14:10:12Z</time>
      </trkpt>
      <trkpt lat="46.00085" lon="6.18002">
        <ele>558.4</ele>
        <time>2021-03-27T14:10:13Z</time>
      </trkpt>
      <trkpt lat="46.00085" lon="6.18002">
        <ele>558.6</ele>
        <time>2021-03-27T14:10:14Z</time>
      </trkpt>
      <trkpt lat="46.00085" lon="6.18002">
        <ele>558.6</ele>
        <time>2021-03-27T14:10:15Z</time>
      </trkpt>
      <trkpt lat="46.00085" lon="6.18002">
        <ele>558.6</ele>
        <time>2021-03-27T14:10:16Z</time>
      </trkpt>
      <trkpt lat="46.00085" lon="6.18002">
        <ele>558.6</ele>
        <time>2021-03-27T14:10:17Z</time>
      </trkpt>
      <trkpt lat="46.00085" lon="6.18002">
        <ele>558.6</ele>
        <time>2021-03-27T14:10:18Z</time>
      </trkpt>
      <trkpt lat="46.00085" lon="6.18001">
        <ele>558.6</ele>
        <time>2021-03-27T14:10:19Z</time>
      </trkpt>
      <trkpt lat="46.00085" lon="6.18">
        <ele>558.6</ele>
        <time>2021-03-27T14:10:20Z</time>
      </trkpt>
      <trkpt lat="46.00086" lon="6.18">
        <ele>558.6</ele>
        <time>2021-03-27T14:10:21Z</time>
      </trkpt>
      <trkpt lat="46.00086" lon="6.17999">
        <ele>558.8</ele>
        <time>2021-03-27T14:10:22Z</time>
      </trkpt>
      <trkpt lat="46.00086" lon="6.17999">
        <ele>558.8</ele>
        <time>2021-03-27T14:10:23Z</time>
      </trkpt>
      <trkpt lat="46.00086" lon="6.17999">
        <ele>558.8</ele>
        <time>2021-03-27T14:10:24Z</time>
      </trkpt>
      <trkpt lat="46.00086" lon="6.17999">
        <ele>558.6</ele>
        <time>2021-03-27T14:10:25Z</time>
      </trkpt>
      <trkpt lat="46.00087" lon="6.17998">
        <ele>558.6</ele>
        <time>2021-03-27T14:10:26Z</time>
      </trkpt>
      <trkpt lat="46.00088" lon="6.17997">
        <ele>558.8</ele>
        <time>2021-03-27T14:10:27Z</time>
      </trkpt>
      <trkpt lat="46.00089" lon="6.17996">
        <ele>558.6</ele>
        <time>2021-03-27T14:10:28Z</time>
      </trkpt>
      <trkpt lat="46.0009" lon="6.17995">
        <ele>558.8</ele>
        <time>2021-03-27T14:10:29Z</time>
      </trkpt>
      <trkpt lat="46.00092" lon="6.17994">
        <ele>558.6</ele>
        <time>2021-03-27T14:10:30Z</time>
      </trkpt>
      <trkpt lat="46.00094" lon="6.17994">
        <ele>558.6</ele>
        <time>2021-03-27T14:10:31Z</time>
      </trkpt>
      <trkpt lat="46.00096" lon="6.17994">
        <ele>558.6</ele>
        <time>2021-03-27T14:10:32Z</time>
      </trkpt>
      <trkpt lat="46.00097" lon="6.17993">
        <ele>558.6</ele>
        <time>2021-03-27T14:10:33Z</time>
      </trkpt>
      <trkpt lat="46.001" lon="6.17992">
        <ele>558.8</ele>
        <time>2021-03-27T14:10:34Z</time>
      </trkpt>
      <trkpt lat="46.00102" lon="6.17991">
        <ele>558.8</ele>
        <time>2021-03-27T14:10:35Z</time>
      </trkpt>
      <trkpt lat="46.00105" lon="6.1799">
        <ele>558.8</ele>
        <time>2021-03-27T14:10:36Z</time>
      </trkpt>
      <trkpt lat="46.00108" lon="6.17989">
        <ele>558.8</ele>
        <time>2021-03-27T14:10:37Z</time>
      </trkpt>
      <trkpt lat="46.00111" lon="6.17988">
        <ele>558.8</ele>
        <time>2021-03-27T14:10:38Z</time>
      </trkpt>
      <trkpt lat="46.00114" lon="6.17986">
        <ele>558.6</ele>
        <time>2021-03-27T14:10:39Z</time>
      </trkpt>
      <trkpt lat="46.00118" lon="6.17985">
        <ele>559</ele>
        <time>2021-03-27T14:10:40Z</time>
      </trkpt>
      <trkpt lat="46.00122" lon="6.17984">
        <ele>559</ele>
        <time>2021-03-27T14:10:41Z</time>
      </trkpt>
      <trkpt lat="46.00126" lon="6.17983">
        <ele>559</ele>
        <time>2021-03-27T14:10:42Z</time>
      </trkpt>
      <trkpt lat="46.00129" lon="6.17981">
        <ele>559</ele>
        <time>2021-03-27T14:10:43Z</time>
      </trkpt>
      <trkpt lat="46.00133" lon="6.1798">
        <ele>559</ele>
        <time>2021-03-27T14:10:44Z</time>
      </trkpt>
      <trkpt lat="46.00137" lon="6.17978">
        <ele>559</ele>
        <time>2021-03-27T14:10:45Z</time>
      </trkpt>
      <trkpt lat="46.00141" lon="6.17977">
        <ele>559</ele>
        <time>2021-03-27T14:10:46Z</time>
      </trkpt>
      <trkpt lat="46.00144" lon="6.17975">
        <ele>559.4</ele>
        <time>2021-03-27T14:10:47Z</time>
      </trkpt>
      <trkpt lat="46.00147" lon="6.17974">
        <ele>559.4</ele>
        <time>2021-03-27T14:10:48Z</time>
      </trkpt>
      <trkpt lat="46.0015" lon="6.17972">
        <ele>559.4</ele>
        <time>2021-03-27T14:10:49Z</time>
      </trkpt>
      <trkpt lat="46.00153" lon="6.1797">
        <ele>559.4</ele>
        <time>2021-03-27T14:10:50Z</time>
      </trkpt>
      <trkpt lat="46.00156" lon="6.17968">
        <ele>559.6</ele>
        <time>2021-03-27T14:10:51Z</time>
      </trkpt>
      <trkpt lat="46.00159" lon="6.17966">
        <ele>559.6</ele>
        <time>2021-03-27T14:10:52Z</time>
      </trkpt>
      <trkpt lat="46.00162" lon="6.17965">
        <ele>559.4</ele>
        <time>2021-03-27T14:10:53Z</time>
      </trkpt>
      <trkpt lat="46.00165" lon="6.17963">
        <ele>559.6</ele>
        <time>2021-03-27T14:10:54Z</time>
      </trkpt>
      <trkpt lat="46.00168" lon="6.17961">
        <ele>560</ele>
        <time>2021-03-27T14:10:55Z</time>
      </trkpt>
      <trkpt lat="46.00171" lon="6.1796">
        <ele>560.4</ele>
        <time>2021-03-27T14:10:56Z</time>
      </trkpt>
      <trkpt lat="46.00173" lon="6.17958">
        <ele>560.6</ele>
        <time>2021-03-27T14:10:57Z</time>
      </trkpt>
      <trkpt lat="46.00175" lon="6.17956">
        <ele>561</ele>
        <time>2021-03-27T14:10:58Z</time>
      </trkpt>
      <trkpt lat="46.00178" lon="6.17955">
        <ele>561.4</ele>
        <time>2021-03-27T14:10:59Z</time>
      </trkpt>
      <trkpt lat="46.0018" lon="6.17953">
        <ele>561.8</ele>
        <time>2021-03-27T14:11:00Z</time>
      </trkpt>
      <trkpt lat="46.00183" lon="6.17952">
        <ele>562.2</ele>
        <time>2021-03-27T14:11:01Z</time>
      </trkpt>
      <trkpt lat="46.00186" lon="6.1795">
        <ele>562.4</ele>
        <time>2021-03-27T14:11:02Z</time>
      </trkpt>
      <trkpt lat="46.00189" lon="6.17949">
        <ele>562.8</ele>
        <time>2021-03-27T14:11:03Z</time>
      </trkpt>
      <trkpt lat="46.00192" lon="6.17947">
        <ele>563.2</ele>
        <time>2021-03-27T14:11:04Z</time>
      </trkpt>
      <trkpt lat="46.00195" lon="6.17946">
        <ele>563.8</ele>
        <time>2021-03-27T14:11:05Z</time>
      </trkpt>
      <trkpt lat="46.00197" lon="6.17945">
        <ele>564</ele>
        <time>2021-03-27T14:11:06Z</time>
      </trkpt>
      <trkpt lat="46.002" lon="6.17944">
        <ele>564</ele>
        <time>2021-03-27T14:11:07Z</time>
      </trkpt>
      <trkpt lat="46.00203" lon="6.17944">
        <ele>564.4</ele>
        <time>2021-03-27T14:11:08Z</time>
      </trkpt>
      <trkpt lat="46.00206" lon="6.17943">
        <ele>564.8</ele>
        <time>2021-03-27T14:11:09Z</time>
      </trkpt>
      <trkpt lat="46.00208" lon="6.17942">
        <ele>565.2</ele>
        <time>2021-03-27T14:11:10Z</time>
      </trkpt>
      <trkpt lat="46.00211" lon="6.17942">
        <ele>565.6</ele>
        <time>2021-03-27T14:11:11Z</time>
      </trkpt>
      <trkpt lat="46.00213" lon="6.17941">
        <ele>565.8</ele>
        <time>2021-03-27T14:11:12Z</time>
      </trkpt>
      <trkpt lat="46.00216" lon="6.17941">
        <ele>566.2</ele>
        <time>2021-03-27T14:11:13Z</time>
      </trkpt>
      <trkpt lat="46.00218" lon="6.1794">
        <ele>566.6</ele>
        <time>2021-03-27T14:11:14Z</time>
      </trkpt>
      <trkpt lat="46.00221" lon="6.1794">
        <ele>566.6</ele>
        <time>2021-03-27T14:11:15Z</time>
      </trkpt>
      <trkpt lat="46.00223" lon="6.17939">
        <ele>566.8</ele>
        <time>2021-03-27T14:11:16Z</time>
      </trkpt>
      <trkpt lat="46.00226" lon="6.17939">
        <ele>567</ele>
        <time>2021-03-27T14:11:17Z</time>
      </trkpt>
      <trkpt lat="46.00228" lon="6.17939">
        <ele>567.4</ele>
        <time>2021-03-27T14:11:18Z</time>
      </trkpt>
      <trkpt lat="46.00231" lon="6.17938">
        <ele>567.6</ele>
        <time>2021-03-27T14:11:19Z</time>
      </trkpt>
      <trkpt lat="46.00233" lon="6.17937">
        <ele>567.6</ele>
        <time>2021-03-27T14:11:20Z</time>
      </trkpt>
      <trkpt lat="46.00236" lon="6.17937">
        <ele>568</ele>
        <time>2021-03-27T14:11:21Z</time>
      </trkpt>
      <trkpt lat="46.00239" lon="6.17938">
        <ele>568.4</ele>
        <time>2021-03-27T14:11:22Z</time>
      </trkpt>
      <trkpt lat="46.00242" lon="6.17938">
        <ele>568.4</ele>
        <time>2021-03-27T14:11:23Z</time>
      </trkpt>
      <trkpt lat="46.00245" lon="6.17938">
        <ele>568.8</ele>
        <time>2021-03-27T14:11:24Z</time>
      </trkpt>
      <trkpt lat="46.00247" lon="6.17938">
        <ele>569.2</ele>
        <time>2021-03-27T14:11:25Z</time>
      </trkpt>
      <trkpt lat="46.0025" lon="6.17938">
        <ele>569.6</ele>
        <time>2021-03-27T14:11:26Z</time>
      </trkpt>
      <trkpt lat="46.00253" lon="6.17938">
        <ele>570</ele>
        <time>2021-03-27T14:11:27Z</time>
      </trkpt>
      <trkpt lat="46.00255" lon="6.17938">
        <ele>570.2</ele>
        <time>2021-03-27T14:11:28Z</time>
      </trkpt>
      <trkpt lat="46.00258" lon="6.17939">
        <ele>570.6</ele>
        <time>2021-03-27T14:11:29Z</time>
      </trkpt>
      <trkpt lat="46.00261" lon="6.1794">
        <ele>570.8</ele>
        <time>2021-03-27T14:11:30Z</time>
      </trkpt>
      <trkpt lat="46.00263" lon="6.17941">
        <ele>571.2</ele>
        <time>2021-03-27T14:11:31Z</time>
      </trkpt>
      <trkpt lat="46.00266" lon="6.17942">
        <ele>571.6</ele>
        <time>2021-03-27T14:11:32Z</time>
      </trkpt>
      <trkpt lat="46.00268" lon="6.17943">
        <ele>571.8</ele>
        <time>2021-03-27T14:11:33Z</time>
      </trkpt>
      <trkpt lat="46.00271" lon="6.17945">
        <ele>572</ele>
        <time>2021-03-27T14:11:34Z</time>
      </trkpt>
      <trkpt lat="46.00273" lon="6.17947">
        <ele>572.2</ele>
        <time>2021-03-27T14:11:35Z</time>
      </trkpt>
      <trkpt lat="46.00275" lon="6.17949">
        <ele>572.4</ele>
        <time>2021-03-27T14:11:36Z</time>
      </trkpt>
      <trkpt lat="46.00277" lon="6.1795">
        <ele>572.6</ele>
        <time>2021-03-27T14:11:37Z</time>
      </trkpt>
      <trkpt lat="46.00282" lon="6.17954">
        <ele>573.2</ele>
        <time>2021-03-27T14:11:39Z</time>
      </trkpt>
      <trkpt lat="46.00284" lon="6.17955">
        <ele>573.2</ele>
        <time>2021-03-27T14:11:40Z</time>
      </trkpt>
      <trkpt lat="46.00286" lon="6.17957">
        <ele>573.4</ele>
        <time>2021-03-27T14:11:41Z</time>
      </trkpt>
      <trkpt lat="46.00289" lon="6.17961">
        <ele>573.8</ele>
        <time>2021-03-27T14:11:43Z</time>
      </trkpt>
      <trkpt lat="46.00291" lon="6.17963">
        <ele>574</ele>
        <time>2021-03-27T14:11:44Z</time>
      </trkpt>
      <trkpt lat="46.00293" lon="6.17965">
        <ele>574</ele>
        <time>2021-03-27T14:11:45Z</time>
      </trkpt>
      <trkpt lat="46.00295" lon="6.17967">
        <ele>574.4</ele>
        <time>2021-03-27T14:11:46Z</time>
      </trkpt>
      <trkpt lat="46.00297" lon="6.17968">
        <ele>574.4</ele>
        <time>2021-03-27T14:11:47Z</time>
      </trkpt>
      <trkpt lat="46.00299" lon="6.1797">
        <ele>574.6</ele>
        <time>2021-03-27T14:11:48Z</time>
      </trkpt>
      <trkpt lat="46.00301" lon="6.17972">
        <ele>574.8</ele>
        <time>2021-03-27T14:11:49Z</time>
      </trkpt>
      <trkpt lat="46.00303" lon="6.17974">
        <ele>575</ele>
        <time>2021-03-27T14:11:50Z</time>
      </trkpt>
      <trkpt lat="46.00305" lon="6.17976">
        <ele>575.2</ele>
        <time>2021-03-27T14:11:51Z</time>
      </trkpt>
      <trkpt lat="46.00307" lon="6.17978">
        <ele>575.4</ele>
        <time>2021-03-27T14:11:52Z</time>
      </trkpt>
      <trkpt lat="46.00309" lon="6.1798">
        <ele>575.6</ele>
        <time>2021-03-27T14:11:53Z</time>
      </trkpt>
      <trkpt lat="46.00311" lon="6.17982">
        <ele>575.8</ele>
        <time>2021-03-27T14:11:54Z</time>
      </trkpt>
      <trkpt lat="46.00315" lon="6.17986">
        <ele>576.6</ele>
        <time>2021-03-27T14:11:56Z</time>
      </trkpt>
      <trkpt lat="46.00318" lon="6.17988">
        <ele>576.8</ele>
        <time>2021-03-27T14:11:57Z</time>
      </trkpt>
      <trkpt lat="46.0032" lon="6.1799">
        <ele>577.2</ele>
        <time>2021-03-27T14:11:58Z</time>
      </trkpt>
      <trkpt lat="46.00322" lon="6.17992">
        <ele>577.2</ele>
        <time>2021-03-27T14:11:59Z</time>
      </trkpt>
      <trkpt lat="46.00324" lon="6.17994">
        <ele>577.6</ele>
        <time>2021-03-27T14:12:00Z</time>
      </trkpt>
      <trkpt lat="46.00326" lon="6.17996">
        <ele>577.8</ele>
        <time>2021-03-27T14:12:01Z</time>
      </trkpt>
      <trkpt lat="46.00328" lon="6.17998">
        <ele>578.2</ele>
        <time>2021-03-27T14:12:02Z</time>
      </trkpt>
      <trkpt lat="46.0033" lon="6.18">
        <ele>578.6</ele>
        <time>2021-03-27T14:12:03Z</time>
      </trkpt>
      <trkpt lat="46.00334" lon="6.18004">
        <ele>579.4</ele>
        <time>2021-03-27T14:12:05Z</time>
      </trkpt>
      <trkpt lat="46.00336" lon="6.18006">
        <ele>579.4</ele>
        <time>2021-03-27T14:12:06Z</time>
      </trkpt>
      <trkpt lat="46.00338" lon="6.18008">
        <ele>579.6</ele>
        <time>2021-03-27T14:12:07Z</time>
      </trkpt>
      <trkpt lat="46.0034" lon="6.1801">
        <ele>580</ele>
        <time>2021-03-27T14:12:08Z</time>
      </trkpt>
      <trkpt lat="46.00341" lon="6.18012">
        <ele>580</ele>
        <time>2021-03-27T14:12:09Z</time>
      </trkpt>
      <trkpt lat="46.00343" lon="6.18014">
        <ele>580.2</ele>
        <time>2021-03-27T14:12:10Z</time>
      </trkpt>
      <trkpt lat="46.00345" lon="6.18016">
        <ele>580.4</ele>
        <time>2021-03-27T14:12:11Z</time>
      </trkpt>
      <trkpt lat="46.00346" lon="6.18018">
        <ele>581</ele>
        <time>2021-03-27T14:12:12Z</time>
      </trkpt>
      <trkpt lat="46.00348" lon="6.1802">
        <ele>581.2</ele>
        <time>2021-03-27T14:12:13Z</time>
      </trkpt>
      <trkpt lat="46.0035" lon="6.18022">
        <ele>581.4</ele>
        <time>2021-03-27T14:12:14Z</time>
      </trkpt>
      <trkpt lat="46.00351" lon="6.18024">
        <ele>581.8</ele>
        <time>2021-03-27T14:12:15Z</time>
      </trkpt>
      <trkpt lat="46.00353" lon="6.18026">
        <ele>581.8</ele>
        <time>2021-03-27T14:12:16Z</time>
      </trkpt>
      <trkpt lat="46.00355" lon="6.1803">
        <ele>582.6</ele>
        <time>2021-03-27T14:12:18Z</time>
      </trkpt>
      <trkpt lat="46.00357" lon="6.18032">
        <ele>582.6</ele>
        <time>2021-03-27T14:12:19Z</time>
      </trkpt>
      <trkpt lat="46.00359" lon="6.18034">
        <ele>582.8</ele>
        <time>2021-03-27T14:12:20Z</time>
      </trkpt>
      <trkpt lat="46.00362" lon="6.18039">
        <ele>583.4</ele>
        <time>2021-03-27T14:12:22Z</time>
      </trkpt>
      <trkpt lat="46.00364" lon="6.18041">
        <ele>583.6</ele>
        <time>2021-03-27T14:12:23Z</time>
      </trkpt>
      <trkpt lat="46.00366" lon="6.18043">
        <ele>583.6</ele>
        <time>2021-03-27T14:12:24Z</time>
      </trkpt>
      <trkpt lat="46.00368" lon="6.18046">
        <ele>584</ele>
        <time>2021-03-27T14:12:25Z</time>
      </trkpt>
      <trkpt lat="46.00369" lon="6.18048">
        <ele>584.2</ele>
        <time>2021-03-27T14:12:26Z</time>
      </trkpt>
      <trkpt lat="46.00371" lon="6.18051">
        <ele>584.4</ele>
        <time>2021-03-27T14:12:27Z</time>
      </trkpt>
      <trkpt lat="46.00373" lon="6.18053">
        <ele>584.6</ele>
        <time>2021-03-27T14:12:28Z</time>
      </trkpt>
      <trkpt lat="46.00376" lon="6.18055">
        <ele>585</ele>
        <time>2021-03-27T14:12:29Z</time>
      </trkpt>
      <trkpt lat="46.00382" lon="6.18055">
        <ele>585.4</ele>
        <time>2021-03-27T14:12:31Z</time>
      </trkpt>
      <trkpt lat="46.00388" lon="6.18052">
        <ele>585.6</ele>
        <time>2021-03-27T14:12:33Z</time>
      </trkpt>
      <trkpt lat="46.00391" lon="6.18051">
        <ele>586</ele>
        <time>2021-03-27T14:12:34Z</time>
      </trkpt>
      <trkpt lat="46.00394" lon="6.1805">
        <ele>586</ele>
        <time>2021-03-27T14:12:35Z</time>
      </trkpt>
      <trkpt lat="46.00397" lon="6.18049">
        <ele>586</ele>
        <time>2021-03-27T14:12:36Z</time>
      </trkpt>
      <trkpt lat="46.004" lon="6.18048">
        <ele>586.2</ele>
        <time>2021-03-27T14:12:37Z</time>
      </trkpt>
      <trkpt lat="46.00403" lon="6.18048">
        <ele>586.4</ele>
        <time>2021-03-27T14:12:38Z</time>
      </trkpt>
      <trkpt lat="46.00405" lon="6.18048">
        <ele>586.4</ele>
        <time>2021-03-27T14:12:39Z</time>
      </trkpt>
      <trkpt lat="46.00408" lon="6.18049">
        <ele>586.4</ele>
        <time>2021-03-27T14:12:40Z</time>
      </trkpt>
      <trkpt lat="46.00411" lon="6.1805">
        <ele>586.4</ele>
        <time>2021-03-27T14:12:41Z</time>
      </trkpt>
      <trkpt lat="46.00414" lon="6.18052">
        <ele>586.6</ele>
        <time>2021-03-27T14:12:42Z</time>
      </trkpt>
      <trkpt lat="46.00416" lon="6.18054">
        <ele>586.8</ele>
        <time>2021-03-27T14:12:43Z</time>
      </trkpt>
      <trkpt lat="46.00419" lon="6.18058">
        <ele>587</ele>
        <time>2021-03-27T14:12:44Z</time>
      </trkpt>
      <trkpt lat="46.00421" lon="6.18061">
        <ele>587.2</ele>
        <time>2021-03-27T14:12:45Z</time>
      </trkpt>
      <trkpt lat="46.00422" lon="6.18064">
        <ele>587.6</ele>
        <time>2021-03-27T14:12:46Z</time>
      </trkpt>
      <trkpt lat="46.00424" lon="6.18068">
        <ele>587.8</ele>
        <time>2021-03-27T14:12:47Z</time>
      </trkpt>
      <trkpt lat="46.00425" lon="6.18072">
        <ele>588</ele>
        <time>2021-03-27T14:12:48Z</time>
      </trkpt>
      <trkpt lat="46.00426" lon="6.18076">
        <ele>588</ele>
        <time>2021-03-27T14:12:49Z</time>
      </trkpt>
      <trkpt lat="46.00427" lon="6.1808">
        <ele>588.4</ele>
        <time>2021-03-27T14:12:50Z</time>
      </trkpt>
      <trkpt lat="46.00427" lon="6.18085">
        <ele>588.4</ele>
        <time>2021-03-27T14:12:51Z</time>
      </trkpt>
      <trkpt lat="46.00427" lon="6.18089">
        <ele>588.6</ele>
        <time>2021-03-27T14:12:52Z</time>
      </trkpt>
      <trkpt lat="46.00427" lon="6.18093">
        <ele>589</ele>
        <time>2021-03-27T14:12:53Z</time>
      </trkpt>
      <trkpt lat="46.00426" lon="6.18097">
        <ele>589.4</ele>
        <time>2021-03-27T14:12:54Z</time>
      </trkpt>
      <trkpt lat="46.00426" lon="6.18101">
        <ele>589.6</ele>
        <time>2021-03-27T14:12:55Z</time>
      </trkpt>
      <trkpt lat="46.00425" lon="6.18105">
        <ele>589.8</ele>
        <time>2021-03-27T14:12:56Z</time>
      </trkpt>
      <trkpt lat="46.00424" lon="6.18109">
        <ele>590</ele>
        <time>2021-03-27T14:12:57Z</time>
      </trkpt>
      <trkpt lat="46.00422" lon="6.18112">
        <ele>590</ele>
        <time>2021-03-27T14:12:58Z</time>
      </trkpt>
      <trkpt lat="46.00421" lon="6.18116">
        <ele>590.2</ele>
        <time>2021-03-27T14:12:59Z</time>
      </trkpt>
      <trkpt lat="46.0042" lon="6.18119">
        <ele>590.6</ele>
        <time>2021-03-27T14:13:00Z</time>
      </trkpt>
      <trkpt lat="46.00418" lon="6.18123">
        <ele>590.8</ele>
        <time>2021-03-27T14:13:01Z</time>
      </trkpt>
      <trkpt lat="46.00417" lon="6.18127">
        <ele>591.2</ele>
        <time>2021-03-27T14:13:02Z</time>
      </trkpt>
      <trkpt lat="46.00416" lon="6.1813">
        <ele>591.2</ele>
        <time>2021-03-27T14:13:03Z</time>
      </trkpt>
      <trkpt lat="46.00414" lon="6.18134">
        <ele>591.4</ele>
        <time>2021-03-27T14:13:04Z</time>
      </trkpt>
      <trkpt lat="46.00413" lon="6.18137">
        <ele>591.6</ele>
        <time>2021-03-27T14:13:05Z</time>
      </trkpt>
      <trkpt lat="46.00411" lon="6.18141">
        <ele>592</ele>
        <time>2021-03-27T14:13:06Z</time>
      </trkpt>
      <trkpt lat="46.0041" lon="6.18145">
        <ele>592</ele>
        <time>2021-03-27T14:13:07Z</time>
      </trkpt>
      <trkpt lat="46.00408" lon="6.18148">
        <ele>592.2</ele>
        <time>2021-03-27T14:13:08Z</time>
      </trkpt>
      <trkpt lat="46.00406" lon="6.18152">
        <ele>592.6</ele>
        <time>2021-03-27T14:13:09Z</time>
      </trkpt>
      <trkpt lat="46.00405" lon="6.18156">
        <ele>592.8</ele>
        <time>2021-03-27T14:13:10Z</time>
      </trkpt>
      <trkpt lat="46.00404" lon="6.18159">
        <ele>593.2</ele>
        <time>2021-03-27T14:13:11Z</time>
      </trkpt>
      <trkpt lat="46.00403" lon="6.18163">
        <ele>593.4</ele>
        <time>2021-03-27T14:13:12Z</time>
      </trkpt>
      <trkpt lat="46.00402" lon="6.18166">
        <ele>593.4</ele>
        <time>2021-03-27T14:13:13Z</time>
      </trkpt>
      <trkpt lat="46.00401" lon="6.18169">
        <ele>593.8</ele>
        <time>2021-03-27T14:13:14Z</time>
      </trkpt>
      <trkpt lat="46.004" lon="6.18173">
        <ele>593.8</ele>
        <time>2021-03-27T14:13:15Z</time>
      </trkpt>
      <trkpt lat="46.00399" lon="6.18177">
        <ele>594</ele>
        <time>2021-03-27T14:13:16Z</time>
      </trkpt>
      <trkpt lat="46.00399" lon="6.18181">
        <ele>594.2</ele>
        <time>2021-03-27T14:13:17Z</time>
      </trkpt>
      <trkpt lat="46.00398" lon="6.18185">
        <ele>594.4</ele>
        <time>2021-03-27T14:13:18Z</time>
      </trkpt>
      <trkpt lat="46.00398" lon="6.18189">
        <ele>594.6</ele>
        <time>2021-03-27T14:13:19Z</time>
      </trkpt>
      <trkpt lat="46.00398" lon="6.18193">
        <ele>594.8</ele>
        <time>2021-03-27T14:13:20Z</time>
      </trkpt>
      <trkpt lat="46.00399" lon="6.18197">
        <ele>595</ele>
        <time>2021-03-27T14:13:21Z</time>
      </trkpt>
      <trkpt lat="46.00399" lon="6.18201">
        <ele>595.4</ele>
        <time>2021-03-27T14:13:22Z</time>
      </trkpt>
      <trkpt lat="46.00401" lon="6.18205">
        <ele>595.4</ele>
        <time>2021-03-27T14:13:23Z</time>
      </trkpt>
      <trkpt lat="46.00402" lon="6.18209">
        <ele>595.8</ele>
        <time>2021-03-27T14:13:24Z</time>
      </trkpt>
      <trkpt lat="46.00403" lon="6.18213">
        <ele>595.8</ele>
        <time>2021-03-27T14:13:25Z</time>
      </trkpt>
      <trkpt lat="46.00405" lon="6.18216">
        <ele>596.2</ele>
        <time>2021-03-27T14:13:26Z</time>
      </trkpt>
      <trkpt lat="46.00407" lon="6.18219">
        <ele>596.4</ele>
        <time>2021-03-27T14:13:27Z</time>
      </trkpt>
      <trkpt lat="46.00409" lon="6.18222">
        <ele>596.8</ele>
        <time>2021-03-27T14:13:28Z</time>
      </trkpt>
      <trkpt lat="46.00411" lon="6.18225">
        <ele>596.8</ele>
        <time>2021-03-27T14:13:29Z</time>
      </trkpt>
      <trkpt lat="46.00413" lon="6.18228">
        <ele>597.2</ele>
        <time>2021-03-27T14:13:30Z</time>
      </trkpt>
      <trkpt lat="46.00416" lon="6.1823">
        <ele>597.2</ele>
        <time>2021-03-27T14:13:31Z</time>
      </trkpt>
      <trkpt lat="46.00419" lon="6.18232">
        <ele>597.6</ele>
        <time>2021-03-27T14:13:32Z</time>
      </trkpt>
      <trkpt lat="46.00421" lon="6.18234">
        <ele>597.8</ele>
        <time>2021-03-27T14:13:33Z</time>
      </trkpt>
      <trkpt lat="46.00424" lon="6.18236">
        <ele>597.8</ele>
        <time>2021-03-27T14:13:34Z</time>
      </trkpt>
      <trkpt lat="46.00427" lon="6.18237">
        <ele>598.2</ele>
        <time>2021-03-27T14:13:35Z</time>
      </trkpt>
      <trkpt lat="46.0043" lon="6.18238">
        <ele>598.4</ele>
        <time>2021-03-27T14:13:36Z</time>
      </trkpt>
      <trkpt lat="46.00433" lon="6.18238">
        <ele>598.4</ele>
        <time>2021-03-27T14:13:37Z</time>
      </trkpt>
      <trkpt lat="46.00436" lon="6.18237">
        <ele>598.6</ele>
        <time>2021-03-27T14:13:38Z</time>
      </trkpt>
      <trkpt lat="46.00439" lon="6.18236">
        <ele>599</ele>
        <time>2021-03-27T14:13:39Z</time>
      </trkpt>
      <trkpt lat="46.00441" lon="6.18235">
        <ele>599</ele>
        <time>2021-03-27T14:13:40Z</time>
      </trkpt>
      <trkpt lat="46.00444" lon="6.18234">
        <ele>599.2</ele>
        <time>2021-03-27T14:13:41Z</time>
      </trkpt>
      <trkpt lat="46.00447" lon="6.18232">
        <ele>599.2</ele>
        <time>2021-03-27T14:13:42Z</time>
      </trkpt>
      <trkpt lat="46.00449" lon="6.18231">
        <ele>599.4</ele>
        <time>2021-03-27T14:13:43Z</time>
      </trkpt>
      <trkpt lat="46.00452" lon="6.18228">
        <ele>599.4</ele>
        <time>2021-03-27T14:13:44Z</time>
      </trkpt>
      <trkpt lat="46.00455" lon="6.18225">
        <ele>599.6</ele>
        <time>2021-03-27T14:13:45Z</time>
      </trkpt>
      <trkpt lat="46.00457" lon="6.18222">
        <ele>599.8</ele>
        <time>2021-03-27T14:13:46Z</time>
      </trkpt>
      <trkpt lat="46.0046" lon="6.18219">
        <ele>600</ele>
        <time>2021-03-27T14:13:47Z</time>
      </trkpt>
      <trkpt lat="46.00462" lon="6.18215">
        <ele>600.4</ele>
        <time>2021-03-27T14:13:48Z</time>
      </trkpt>
      <trkpt lat="46.00464" lon="6.18211">
        <ele>600.2</ele>
        <time>2021-03-27T14:13:49Z</time>
      </trkpt>
      <trkpt lat="46.00466" lon="6.18208">
        <ele>600.6</ele>
        <time>2021-03-27T14:13:50Z</time>
      </trkpt>
      <trkpt lat="46.00468" lon="6.18204">
        <ele>600.4</ele>
        <time>2021-03-27T14:13:51Z</time>
      </trkpt>
      <trkpt lat="46.0047" lon="6.182">
        <ele>600.6</ele>
        <time>2021-03-27T14:13:52Z</time>
      </trkpt>
      <trkpt lat="46.00473" lon="6.18196">
        <ele>600.6</ele>
        <time>2021-03-27T14:13:53Z</time>
      </trkpt>
      <trkpt lat="46.00475" lon="6.18193">
        <ele>600.8</ele>
        <time>2021-03-27T14:13:54Z</time>
      </trkpt>
      <trkpt lat="46.00477" lon="6.18189">
        <ele>601</ele>
        <time>2021-03-27T14:13:55Z</time>
      </trkpt>
      <trkpt lat="46.00479" lon="6.18186">
        <ele>601.2</ele>
        <time>2021-03-27T14:13:56Z</time>
      </trkpt>
      <trkpt lat="46.00481" lon="6.18182">
        <ele>601.4</ele>
        <time>2021-03-27T14:13:57Z</time>
      </trkpt>
      <trkpt lat="46.00483" lon="6.18179">
        <ele>601.4</ele>
        <time>2021-03-27T14:13:58Z</time>
      </trkpt>
      <trkpt lat="46.00485" lon="6.18175">
        <ele>601.8</ele>
        <time>2021-03-27T14:13:59Z</time>
      </trkpt>
      <trkpt lat="46.00488" lon="6.18171">
        <ele>602</ele>
        <time>2021-03-27T14:14:00Z</time>
      </trkpt>
      <trkpt lat="46.0049" lon="6.18168">
        <ele>602.2</ele>
        <time>2021-03-27T14:14:01Z</time>
      </trkpt>
      <trkpt lat="46.00492" lon="6.18164">
        <ele>602.4</ele>
        <time>2021-03-27T14:14:02Z</time>
      </trkpt>
      <trkpt lat="46.00494" lon="6.18161">
        <ele>602.4</ele>
        <time>2021-03-27T14:14:03Z</time>
      </trkpt>
      <trkpt lat="46.00496" lon="6.18157">
        <ele>602.8</ele>
        <time>2021-03-27T14:14:04Z</time>
      </trkpt>
      <trkpt lat="46.00498" lon="6.18154">
        <ele>602.8</ele>
        <time>2021-03-27T14:14:05Z</time>
      </trkpt>
      <trkpt lat="46.00501" lon="6.1815">
        <ele>603</ele>
        <time>2021-03-27T14:14:06Z</time>
      </trkpt>
      <trkpt lat="46.00503" lon="6.18147">
        <ele>603.2</ele>
        <time>2021-03-27T14:14:07Z</time>
      </trkpt>
      <trkpt lat="46.00505" lon="6.18144">
        <ele>603.4</ele>
        <time>2021-03-27T14:14:08Z</time>
      </trkpt>
      <trkpt lat="46.00507" lon="6.1814">
        <ele>603.4</ele>
        <time>2021-03-27T14:14:09Z</time>
      </trkpt>
      <trkpt lat="46.00509" lon="6.18136">
        <ele>603.8</ele>
        <time>2021-03-27T14:14:10Z</time>
      </trkpt>
      <trkpt lat="46.00512" lon="6.18132">
        <ele>604</ele>
        <time>2021-03-27T14:14:11Z</time>
      </trkpt>
      <trkpt lat="46.00515" lon="6.18128">
        <ele>604</ele>
        <time>2021-03-27T14:14:12Z</time>
      </trkpt>
      <trkpt lat="46.00517" lon="6.18125">
        <ele>604.4</ele>
        <time>2021-03-27T14:14:13Z</time>
      </trkpt>
      <trkpt lat="46.0052" lon="6.18121">
        <ele>604.8</ele>
        <time>2021-03-27T14:14:14Z</time>
      </trkpt>
      <trkpt lat="46.00522" lon="6.18117">
        <ele>605.2</ele>
        <time>2021-03-27T14:14:15Z</time>
      </trkpt>
      <trkpt lat="46.00525" lon="6.18114">
        <ele>605.6</ele>
        <time>2021-03-27T14:14:16Z</time>
      </trkpt>
      <trkpt lat="46.00527" lon="6.18111">
        <ele>605.8</ele>
        <time>2021-03-27T14:14:17Z</time>
      </trkpt>
      <trkpt lat="46.00529" lon="6.18107">
        <ele>606.2</ele>
        <time>2021-03-27T14:14:18Z</time>
      </trkpt>
      <trkpt lat="46.00531" lon="6.18104">
        <ele>606.6</ele>
        <time>2021-03-27T14:14:19Z</time>
      </trkpt>
      <trkpt lat="46.00533" lon="6.181">
        <ele>606.8</ele>
        <time>2021-03-27T14:14:20Z</time>
      </trkpt>
      <trkpt lat="46.00535" lon="6.18097">
        <ele>607.2</ele>
        <time>2021-03-27T14:14:21Z</time>
      </trkpt>
      <trkpt lat="46.00536" lon="6.18093">
        <ele>607.2</ele>
        <time>2021-03-27T14:14:22Z</time>
      </trkpt>
      <trkpt lat="46.00538" lon="6.18089">
        <ele>607.4</ele>
        <time>2021-03-27T14:14:23Z</time>
      </trkpt>
      <trkpt lat="46.00539" lon="6.18085">
        <ele>607.4</ele>
        <time>2021-03-27T14:14:24Z</time>
      </trkpt>
      <trkpt lat="46.0054" lon="6.18081">
        <ele>607.6</ele>
        <time>2021-03-27T14:14:25Z</time>
      </trkpt>
      <trkpt lat="46.00541" lon="6.18076">
        <ele>607.6</ele>
        <time>2021-03-27T14:14:26Z</time>
      </trkpt>
      <trkpt lat="46.00542" lon="6.18072">
        <ele>607.8</ele>
        <time>2021-03-27T14:14:27Z</time>
      </trkpt>
      <trkpt lat="46.00543" lon="6.18067">
        <ele>608</ele>
        <time>2021-03-27T14:14:28Z</time>
      </trkpt>
      <trkpt lat="46.00544" lon="6.18062">
        <ele>608.4</ele>
        <time>2021-03-27T14:14:29Z</time>
      </trkpt>
      <trkpt lat="46.00545" lon="6.18056">
        <ele>608.6</ele>
        <time>2021-03-27T14:14:30Z</time>
      </trkpt>
      <trkpt lat="46.00545" lon="6.18051">
        <ele>608.8</ele>
        <time>2021-03-27T14:14:31Z</time>
      </trkpt>
      <trkpt lat="46.00545" lon="6.18046">
        <ele>609</ele>
        <time>2021-03-27T14:14:32Z</time>
      </trkpt>
      <trkpt lat="46.00544" lon="6.1804">
        <ele>609.2</ele>
        <time>2021-03-27T14:14:33Z</time>
      </trkpt>
      <trkpt lat="46.00544" lon="6.18035">
        <ele>609.4</ele>
        <time>2021-03-27T14:14:34Z</time>
      </trkpt>
      <trkpt lat="46.00543" lon="6.18029">
        <ele>609.6</ele>
        <time>2021-03-27T14:14:35Z</time>
      </trkpt>
      <trkpt lat="46.00543" lon="6.18023">
        <ele>609.8</ele>
        <time>2021-03-27T14:14:36Z</time>
      </trkpt>
      <trkpt lat="46.00542" lon="6.18017">
        <ele>609.8</ele>
        <time>2021-03-27T14:14:37Z</time>
      </trkpt>
      <trkpt lat="46.00541" lon="6.18012">
        <ele>609.8</ele>
        <time>2021-03-27T14:14:38Z</time>
      </trkpt>
      <trkpt lat="46.0054" lon="6.18006">
        <ele>610</ele>
        <time>2021-03-27T14:14:39Z</time>
      </trkpt>
      <trkpt lat="46.00539" lon="6.18">
        <ele>610</ele>
        <time>2021-03-27T14:14:40Z</time>
      </trkpt>
      <trkpt lat="46.00537" lon="6.17994">
        <ele>610.2</ele>
        <time>2021-03-27T14:14:41Z</time>
      </trkpt>
      <trkpt lat="46.00536" lon="6.17988">
        <ele>610</ele>
        <time>2021-03-27T14:14:42Z</time>
      </trkpt>
      <trkpt lat="46.00534" lon="6.17982">
        <ele>610</ele>
        <time>2021-03-27T14:14:43Z</time>
      </trkpt>
      <trkpt lat="46.00533" lon="6.17976">
        <ele>610.4</ele>
        <time>2021-03-27T14:14:44Z</time>
      </trkpt>
      <trkpt lat="46.00532" lon="6.1797">
        <ele>610.2</ele>
        <time>2021-03-27T14:14:45Z</time>
      </trkpt>
      <trkpt lat="46.00531" lon="6.17964">
        <ele>610.4</ele>
        <time>2021-03-27T14:14:46Z</time>
      </trkpt>
      <trkpt lat="46.0053" lon="6.17958">
        <ele>610.4</ele>
        <time>2021-03-27T14:14:47Z</time>
      </trkpt>
      <trkpt lat="46.00528" lon="6.17951">
        <ele>610.6</ele>
        <time>2021-03-27T14:14:48Z</time>
      </trkpt>
      <trkpt lat="46.00527" lon="6.17945">
        <ele>610.8</ele>
        <time>2021-03-27T14:14:49Z</time>
      </trkpt>
      <trkpt lat="46.00526" lon="6.17939">
        <ele>610.8</ele>
        <time>2021-03-27T14:14:50Z</time>
      </trkpt>
      <trkpt lat="46.00525" lon="6.17933">
        <ele>611</ele>
        <time>2021-03-27T14:14:51Z</time>
      </trkpt>
      <trkpt lat="46.00524" lon="6.17926">
        <ele>611.2</ele>
        <time>2021-03-27T14:14:52Z</time>
      </trkpt>
      <trkpt lat="46.00523" lon="6.1792">
        <ele>611.2</ele>
        <time>2021-03-27T14:14:53Z</time>
      </trkpt>
      <trkpt lat="46.00522" lon="6.17914">
        <ele>611.4</ele>
        <time>2021-03-27T14:14:54Z</time>
      </trkpt>
      <trkpt lat="46.0052" lon="6.17908">
        <ele>611.4</ele>
        <time>2021-03-27T14:14:55Z</time>
      </trkpt>
      <trkpt lat="46.00519" lon="6.17901">
        <ele>611.6</ele>
        <time>2021-03-27T14:14:56Z</time>
      </trkpt>
      <trkpt lat="46.00518" lon="6.17889">
        <ele>611.8</ele>
        <time>2021-03-27T14:14:58Z</time>
      </trkpt>
      <trkpt lat="46.00517" lon="6.17883">
        <ele>612</ele>
        <time>2021-03-27T14:14:59Z</time>
      </trkpt>
      <trkpt lat="46.00517" lon="6.17877">
        <ele>612.2</ele>
        <time>2021-03-27T14:15:00Z</time>
      </trkpt>
      <trkpt lat="46.00516" lon="6.17871">
        <ele>612.2</ele>
        <time>2021-03-27T14:15:01Z</time>
      </trkpt>
      <trkpt lat="46.00516" lon="6.17865">
        <ele>612.6</ele>
        <time>2021-03-27T14:15:02Z</time>
      </trkpt>
      <trkpt lat="46.00516" lon="6.17854">
        <ele>613</ele>
        <time>2021-03-27T14:15:04Z</time>
      </trkpt>
      <trkpt lat="46.00515" lon="6.17849">
        <ele>613.4</ele>
        <time>2021-03-27T14:15:05Z</time>
      </trkpt>
      <trkpt lat="46.00515" lon="6.17844">
        <ele>613.4</ele>
        <time>2021-03-27T14:15:06Z</time>
      </trkpt>
      <trkpt lat="46.00515" lon="6.17838">
        <ele>613.6</ele>
        <time>2021-03-27T14:15:07Z</time>
      </trkpt>
      <trkpt lat="46.00515" lon="6.17833">
        <ele>613.8</ele>
        <time>2021-03-27T14:15:08Z</time>
      </trkpt>
      <trkpt lat="46.00515" lon="6.17822">
        <ele>614.6</ele>
        <time>2021-03-27T14:15:10Z</time>
      </trkpt>
      <trkpt lat="46.00515" lon="6.17817">
        <ele>615</ele>
        <time>2021-03-27T14:15:11Z</time>
      </trkpt>
      <trkpt lat="46.00515" lon="6.17812">
        <ele>615.4</ele>
        <time>2021-03-27T14:15:12Z</time>
      </trkpt>
      <trkpt lat="46.00515" lon="6.17807">
        <ele>615.6</ele>
        <time>2021-03-27T14:15:13Z</time>
      </trkpt>
      <trkpt lat="46.00515" lon="6.17802">
        <ele>615.8</ele>
        <time>2021-03-27T14:15:14Z</time>
      </trkpt>
      <trkpt lat="46.00515" lon="6.17792">
        <ele>616.4</ele>
        <time>2021-03-27T14:15:16Z</time>
      </trkpt>
      <trkpt lat="46.00515" lon="6.17787">
        <ele>616.8</ele>
        <time>2021-03-27T14:15:17Z</time>
      </trkpt>
      <trkpt lat="46.00516" lon="6.17782">
        <ele>617</ele>
        <time>2021-03-27T14:15:18Z</time>
      </trkpt>
      <trkpt lat="46.00516" lon="6.17777">
        <ele>617.2</ele>
        <time>2021-03-27T14:15:19Z</time>
      </trkpt>
      <trkpt lat="46.00517" lon="6.17773">
        <ele>617.2</ele>
        <time>2021-03-27T14:15:20Z</time>
      </trkpt>
      <trkpt lat="46.0052" lon="6.17763">
        <ele>617.6</ele>
        <time>2021-03-27T14:15:22Z</time>
      </trkpt>
      <trkpt lat="46.00522" lon="6.17759">
        <ele>617.6</ele>
        <time>2021-03-27T14:15:23Z</time>
      </trkpt>
      <trkpt lat="46.00524" lon="6.17754">
        <ele>618.2</ele>
        <time>2021-03-27T14:15:24Z</time>
      </trkpt>
      <trkpt lat="46.00526" lon="6.1775">
        <ele>618.4</ele>
        <time>2021-03-27T14:15:25Z</time>
      </trkpt>
      <trkpt lat="46.00528" lon="6.17746">
        <ele>618.4</ele>
        <time>2021-03-27T14:15:26Z</time>
      </trkpt>
      <trkpt lat="46.00531" lon="6.17738">
        <ele>619</ele>
        <time>2021-03-27T14:15:28Z</time>
      </trkpt>
      <trkpt lat="46.00533" lon="6.17734">
        <ele>619</ele>
        <time>2021-03-27T14:15:29Z</time>
      </trkpt>
      <trkpt lat="46.00534" lon="6.17729">
        <ele>619.4</ele>
        <time>2021-03-27T14:15:30Z</time>
      </trkpt>
      <trkpt lat="46.00536" lon="6.17725">
        <ele>619.4</ele>
        <time>2021-03-27T14:15:31Z</time>
      </trkpt>
      <trkpt lat="46.00538" lon="6.17721">
        <ele>619.6</ele>
        <time>2021-03-27T14:15:32Z</time>
      </trkpt>
      <trkpt lat="46.00542" lon="6.17714">
        <ele>619.6</ele>
        <time>2021-03-27T14:15:34Z</time>
      </trkpt>
      <trkpt lat="46.00544" lon="6.1771">
        <ele>619.8</ele>
        <time>2021-03-27T14:15:35Z</time>
      </trkpt>
      <trkpt lat="46.00546" lon="6.17706">
        <ele>620.2</ele>
        <time>2021-03-27T14:15:36Z</time>
      </trkpt>
      <trkpt lat="46.00548" lon="6.17702">
        <ele>620.6</ele>
        <time>2021-03-27T14:15:37Z</time>
      </trkpt>
      <trkpt lat="46.0055" lon="6.17699">
        <ele>620.8</ele>
        <time>2021-03-27T14:15:38Z</time>
      </trkpt>
      <trkpt lat="46.00555" lon="6.17692">
        <ele>621.6</ele>
        <time>2021-03-27T14:15:40Z</time>
      </trkpt>
      <trkpt lat="46.00561" lon="6.17686">
        <ele>622.4</ele>
        <time>2021-03-27T14:15:42Z</time>
      </trkpt>
      <trkpt lat="46.00567" lon="6.1768">
        <ele>622.8</ele>
        <time>2021-03-27T14:15:44Z</time>
      </trkpt>
      <trkpt lat="46.00571" lon="6.17677">
        <ele>623</ele>
        <time>2021-03-27T14:15:45Z</time>
      </trkpt>
      <trkpt lat="46.00574" lon="6.17674">
        <ele>623.2</ele>
        <time>2021-03-27T14:15:46Z</time>
      </trkpt>
      <trkpt lat="46.00576" lon="6.17671">
        <ele>623.6</ele>
        <time>2021-03-27T14:15:47Z</time>
      </trkpt>
      <trkpt lat="46.00579" lon="6.17669">
        <ele>623.8</ele>
        <time>2021-03-27T14:15:48Z</time>
      </trkpt>
      <trkpt lat="46.00582" lon="6.17666">
        <ele>624</ele>
        <time>2021-03-27T14:15:49Z</time>
      </trkpt>
      <trkpt lat="46.00585" lon="6.17663">
        <ele>624.2</ele>
        <time>2021-03-27T14:15:50Z</time>
      </trkpt>
      <trkpt lat="46.00588" lon="6.17661">
        <ele>624.4</ele>
        <time>2021-03-27T14:15:51Z</time>
      </trkpt>
      <trkpt lat="46.00591" lon="6.17659">
        <ele>624.6</ele>
        <time>2021-03-27T14:15:52Z</time>
      </trkpt>
      <trkpt lat="46.00594" lon="6.17657">
        <ele>624.8</ele>
        <time>2021-03-27T14:15:53Z</time>
      </trkpt>
      <trkpt lat="46.00597" lon="6.17656">
        <ele>625</ele>
        <time>2021-03-27T14:15:54Z</time>
      </trkpt>
      <trkpt lat="46.00601" lon="6.17654">
        <ele>625.2</ele>
        <time>2021-03-27T14:15:55Z</time>
      </trkpt>
      <trkpt lat="46.00604" lon="6.17652">
        <ele>625.4</ele>
        <time>2021-03-27T14:15:56Z</time>
      </trkpt>
      <trkpt lat="46.00607" lon="6.1765">
        <ele>625.6</ele>
        <time>2021-03-27T14:15:57Z</time>
      </trkpt>
      <trkpt lat="46.00611" lon="6.17649">
        <ele>626</ele>
        <time>2021-03-27T14:15:58Z</time>
      </trkpt>
      <trkpt lat="46.00614" lon="6.17647">
        <ele>626.2</ele>
        <time>2021-03-27T14:15:59Z</time>
      </trkpt>
      <trkpt lat="46.00618" lon="6.17645">
        <ele>626.4</ele>
        <time>2021-03-27T14:16:00Z</time>
      </trkpt>
      <trkpt lat="46.00621" lon="6.17643">
        <ele>626.8</ele>
        <time>2021-03-27T14:16:01Z</time>
      </trkpt>
      <trkpt lat="46.00624" lon="6.17641">
        <ele>627</ele>
        <time>2021-03-27T14:16:02Z</time>
      </trkpt>
      <trkpt lat="46.00628" lon="6.17639">
        <ele>627.2</ele>
        <time>2021-03-27T14:16:03Z</time>
      </trkpt>
      <trkpt lat="46.00631" lon="6.17637">
        <ele>627.4</ele>
        <time>2021-03-27T14:16:04Z</time>
      </trkpt>
      <trkpt lat="46.00634" lon="6.17636">
        <ele>627.6</ele>
        <time>2021-03-27T14:16:05Z</time>
      </trkpt>
      <trkpt lat="46.00637" lon="6.17634">
        <ele>628</ele>
        <time>2021-03-27T14:16:06Z</time>
      </trkpt>
      <trkpt lat="46.0064" lon="6.17632">
        <ele>628</ele>
        <time>2021-03-27T14:16:07Z</time>
      </trkpt>
      <trkpt lat="46.00643" lon="6.1763">
        <ele>628.2</ele>
        <time>2021-03-27T14:16:08Z</time>
      </trkpt>
      <trkpt lat="46.00647" lon="6.17628">
        <ele>628.4</ele>
        <time>2021-03-27T14:16:09Z</time>
      </trkpt>
      <trkpt lat="46.0065" lon="6.17627">
        <ele>628.6</ele>
        <time>2021-03-27T14:16:10Z</time>
      </trkpt>
      <trkpt lat="46.00653" lon="6.17625">
        <ele>629</ele>
        <time>2021-03-27T14:16:11Z</time>
      </trkpt>
      <trkpt lat="46.00657" lon="6.17623">
        <ele>629.2</ele>
        <time>2021-03-27T14:16:12Z</time>
      </trkpt>
      <trkpt lat="46.0066" lon="6.17621">
        <ele>629.4</ele>
        <time>2021-03-27T14:16:13Z</time>
      </trkpt>
      <trkpt lat="46.00663" lon="6.1762">
        <ele>629.6</ele>
        <time>2021-03-27T14:16:14Z</time>
      </trkpt>
      <trkpt lat="46.00666" lon="6.17618">
        <ele>629.6</ele>
        <time>2021-03-27T14:16:15Z</time>
      </trkpt>
      <trkpt lat="46.0067" lon="6.17616">
        <ele>630</ele>
        <time>2021-03-27T14:16:16Z</time>
      </trkpt>
      <trkpt lat="46.00673" lon="6.17614">
        <ele>630.2</ele>
        <time>2021-03-27T14:16:17Z</time>
      </trkpt>
      <trkpt lat="46.00677" lon="6.17613">
        <ele>630.4</ele>
        <time>2021-03-27T14:16:18Z</time>
      </trkpt>
      <trkpt lat="46.0068" lon="6.17611">
        <ele>630.4</ele>
        <time>2021-03-27T14:16:19Z</time>
      </trkpt>
      <trkpt lat="46.00683" lon="6.17609">
        <ele>630.6</ele>
        <time>2021-03-27T14:16:20Z</time>
      </trkpt>
      <trkpt lat="46.00686" lon="6.17608">
        <ele>630.6</ele>
        <time>2021-03-27T14:16:21Z</time>
      </trkpt>
      <trkpt lat="46.0069" lon="6.17606">
        <ele>631</ele>
        <time>2021-03-27T14:16:22Z</time>
      </trkpt>
      <trkpt lat="46.00693" lon="6.17604">
        <ele>631.2</ele>
        <time>2021-03-27T14:16:23Z</time>
      </trkpt>
      <trkpt lat="46.00697" lon="6.17602">
        <ele>631.4</ele>
        <time>2021-03-27T14:16:24Z</time>
      </trkpt>
      <trkpt lat="46.007" lon="6.176">
        <ele>631.6</ele>
        <time>2021-03-27T14:16:25Z</time>
      </trkpt>
      <trkpt lat="46.00703" lon="6.17599">
        <ele>631.8</ele>
        <time>2021-03-27T14:16:26Z</time>
      </trkpt>
      <trkpt lat="46.00706" lon="6.17597">
        <ele>631.8</ele>
        <time>2021-03-27T14:16:27Z</time>
      </trkpt>
      <trkpt lat="46.0071" lon="6.17595">
        <ele>632</ele>
        <time>2021-03-27T14:16:28Z</time>
      </trkpt>
      <trkpt lat="46.00713" lon="6.17593">
        <ele>632.2</ele>
        <time>2021-03-27T14:16:29Z</time>
      </trkpt>
      <trkpt lat="46.00716" lon="6.17591">
        <ele>632.4</ele>
        <time>2021-03-27T14:16:30Z</time>
      </trkpt>
      <trkpt lat="46.00719" lon="6.17589">
        <ele>632.8</ele>
        <time>2021-03-27T14:16:31Z</time>
      </trkpt>
      <trkpt lat="46.00723" lon="6.17587">
        <ele>632.8</ele>
        <time>2021-03-27T14:16:32Z</time>
      </trkpt>
      <trkpt lat="46.00726" lon="6.17585">
        <ele>633</ele>
        <time>2021-03-27T14:16:33Z</time>
      </trkpt>
      <trkpt lat="46.00729" lon="6.17583">
        <ele>633.2</ele>
        <time>2021-03-27T14:16:34Z</time>
      </trkpt>
      <trkpt lat="46.00733" lon="6.17582">
        <ele>633.2</ele>
        <time>2021-03-27T14:16:35Z</time>
      </trkpt>
      <trkpt lat="46.00736" lon="6.1758">
        <ele>633.4</ele>
        <time>2021-03-27T14:16:36Z</time>
      </trkpt>
      <trkpt lat="46.00739" lon="6.17579">
        <ele>633.6</ele>
        <time>2021-03-27T14:16:37Z</time>
      </trkpt>
      <trkpt lat="46.00742" lon="6.17577">
        <ele>633.8</ele>
        <time>2021-03-27T14:16:38Z</time>
      </trkpt>
      <trkpt lat="46.00745" lon="6.17576">
        <ele>634</ele>
        <time>2021-03-27T14:16:39Z</time>
      </trkpt>
      <trkpt lat="46.00748" lon="6.17574">
        <ele>634.2</ele>
        <time>2021-03-27T14:16:40Z</time>
      </trkpt>
      <trkpt lat="46.00751" lon="6.17573">
        <ele>634.4</ele>
        <time>2021-03-27T14:16:41Z</time>
      </trkpt>
      <trkpt lat="46.00754" lon="6.17571">
        <ele>634.6</ele>
        <time>2021-03-27T14:16:42Z</time>
      </trkpt>
      <trkpt lat="46.00757" lon="6.17569">
        <ele>634.8</ele>
        <time>2021-03-27T14:16:43Z</time>
      </trkpt>
      <trkpt lat="46.00761" lon="6.17567">
        <ele>635.2</ele>
        <time>2021-03-27T14:16:44Z</time>
      </trkpt>
      <trkpt lat="46.00764" lon="6.17565">
        <ele>635.6</ele>
        <time>2021-03-27T14:16:45Z</time>
      </trkpt>
      <trkpt lat="46.00768" lon="6.17563">
        <ele>635.8</ele>
        <time>2021-03-27T14:16:46Z</time>
      </trkpt>
      <trkpt lat="46.00771" lon="6.17561">
        <ele>635.8</ele>
        <time>2021-03-27T14:16:47Z</time>
      </trkpt>
      <trkpt lat="46.00775" lon="6.1756">
        <ele>636</ele>
        <time>2021-03-27T14:16:48Z</time>
      </trkpt>
      <trkpt lat="46.00778" lon="6.17558">
        <ele>636</ele>
        <time>2021-03-27T14:16:49Z</time>
      </trkpt>
      <trkpt lat="46.00781" lon="6.17556">
        <ele>636.2</ele>
        <time>2021-03-27T14:16:50Z</time>
      </trkpt>
      <trkpt lat="46.00785" lon="6.17555">
        <ele>636.4</ele>
        <time>2021-03-27T14:16:51Z</time>
      </trkpt>
      <trkpt lat="46.00788" lon="6.17554">
        <ele>636.6</ele>
        <time>2021-03-27T14:16:52Z</time>
      </trkpt>
      <trkpt lat="46.00792" lon="6.17553">
        <ele>637</ele>
        <time>2021-03-27T14:16:53Z</time>
      </trkpt>
      <trkpt lat="46.00795" lon="6.17552">
        <ele>637.2</ele>
        <time>2021-03-27T14:16:54Z</time>
      </trkpt>
      <trkpt lat="46.00799" lon="6.17551">
        <ele>637.2</ele>
        <time>2021-03-27T14:16:55Z</time>
      </trkpt>
      <trkpt lat="46.00802" lon="6.1755">
        <ele>637.6</ele>
        <time>2021-03-27T14:16:56Z</time>
      </trkpt>
      <trkpt lat="46.00806" lon="6.17549">
        <ele>637.8</ele>
        <time>2021-03-27T14:16:57Z</time>
      </trkpt>
      <trkpt lat="46.00809" lon="6.17549">
        <ele>638</ele>
        <time>2021-03-27T14:16:58Z</time>
      </trkpt>
      <trkpt lat="46.00813" lon="6.17548">
        <ele>638.2</ele>
        <time>2021-03-27T14:16:59Z</time>
      </trkpt>
      <trkpt lat="46.00816" lon="6.17548">
        <ele>638.6</ele>
        <time>2021-03-27T14:17:00Z</time>
      </trkpt>
      <trkpt lat="46.0082" lon="6.17548">
        <ele>638.8</ele>
        <time>2021-03-27T14:17:01Z</time>
      </trkpt>
      <trkpt lat="46.00824" lon="6.17548">
        <ele>639</ele>
        <time>2021-03-27T14:17:02Z</time>
      </trkpt>
      <trkpt lat="46.00827" lon="6.17548">
        <ele>639.4</ele>
        <time>2021-03-27T14:17:03Z</time>
      </trkpt>
      <trkpt lat="46.00831" lon="6.17548">
        <ele>639.6</ele>
        <time>2021-03-27T14:17:04Z</time>
      </trkpt>
      <trkpt lat="46.00834" lon="6.17548">
        <ele>639.8</ele>
        <time>2021-03-27T14:17:05Z</time>
      </trkpt>
      <trkpt lat="46.00838" lon="6.17549">
        <ele>640.2</ele>
        <time>2021-03-27T14:17:06Z</time>
      </trkpt>
      <trkpt lat="46.00841" lon="6.17549">
        <ele>640.4</ele>
        <time>2021-03-27T14:17:07Z</time>
      </trkpt>
      <trkpt lat="46.00844" lon="6.1755">
        <ele>640.6</ele>
        <time>2021-03-27T14:17:08Z</time>
      </trkpt>
      <trkpt lat="46.00848" lon="6.1755">
        <ele>640.8</ele>
        <time>2021-03-27T14:17:09Z</time>
      </trkpt>
      <trkpt lat="46.00852" lon="6.17551">
        <ele>640.8</ele>
        <time>2021-03-27T14:17:10Z</time>
      </trkpt>
      <trkpt lat="46.00855" lon="6.17551">
        <ele>641.2</ele>
        <time>2021-03-27T14:17:11Z</time>
      </trkpt>
      <trkpt lat="46.00859" lon="6.17551">
        <ele>641.4</ele>
        <time>2021-03-27T14:17:12Z</time>
      </trkpt>
      <trkpt lat="46.00862" lon="6.17552">
        <ele>641.6</ele>
        <time>2021-03-27T14:17:13Z</time>
      </trkpt>
      <trkpt lat="46.00866" lon="6.17552">
        <ele>641.8</ele>
        <time>2021-03-27T14:17:14Z</time>
      </trkpt>
      <trkpt lat="46.0087" lon="6.17553">
        <ele>642</ele>
        <time>2021-03-27T14:17:15Z</time>
      </trkpt>
      <trkpt lat="46.00873" lon="6.17554">
        <ele>642.2</ele>
        <time>2021-03-27T14:17:16Z</time>
      </trkpt>
      <trkpt lat="46.00877" lon="6.17554">
        <ele>642.6</ele>
        <time>2021-03-27T14:17:17Z</time>
      </trkpt>
      <trkpt lat="46.00881" lon="6.17555">
        <ele>642.8</ele>
        <time>2021-03-27T14:17:18Z</time>
      </trkpt>
      <trkpt lat="46.00884" lon="6.17556">
        <ele>643</ele>
        <time>2021-03-27T14:17:19Z</time>
      </trkpt>
      <trkpt lat="46.00888" lon="6.17557">
        <ele>643.2</ele>
        <time>2021-03-27T14:17:20Z</time>
      </trkpt>
      <trkpt lat="46.00891" lon="6.17558">
        <ele>643.4</ele>
        <time>2021-03-27T14:17:21Z</time>
      </trkpt>
      <trkpt lat="46.00895" lon="6.1756">
        <ele>643.6</ele>
        <time>2021-03-27T14:17:22Z</time>
      </trkpt>
      <trkpt lat="46.00898" lon="6.17561">
        <ele>644</ele>
        <time>2021-03-27T14:17:23Z</time>
      </trkpt>
      <trkpt lat="46.00902" lon="6.17562">
        <ele>644.2</ele>
        <time>2021-03-27T14:17:24Z</time>
      </trkpt>
      <trkpt lat="46.00905" lon="6.17563">
        <ele>644.4</ele>
        <time>2021-03-27T14:17:25Z</time>
      </trkpt>
      <trkpt lat="46.00909" lon="6.17564">
        <ele>644.6</ele>
        <time>2021-03-27T14:17:26Z</time>
      </trkpt>
      <trkpt lat="46.00912" lon="6.17564">
        <ele>644.8</ele>
        <time>2021-03-27T14:17:27Z</time>
      </trkpt>
      <trkpt lat="46.00916" lon="6.17565">
        <ele>645</ele>
        <time>2021-03-27T14:17:28Z</time>
      </trkpt>
      <trkpt lat="46.00919" lon="6.17566">
        <ele>645.4</ele>
        <time>2021-03-27T14:17:29Z</time>
      </trkpt>
      <trkpt lat="46.00923" lon="6.17567">
        <ele>645.4</ele>
        <time>2021-03-27T14:17:30Z</time>
      </trkpt>
      <trkpt lat="46.00926" lon="6.17568">
        <ele>645.6</ele>
        <time>2021-03-27T14:17:31Z</time>
      </trkpt>
      <trkpt lat="46.00929" lon="6.17569">
        <ele>645.8</ele>
        <time>2021-03-27T14:17:32Z</time>
      </trkpt>
      <trkpt lat="46.00933" lon="6.1757">
        <ele>645.8</ele>
        <time>2021-03-27T14:17:33Z</time>
      </trkpt>
      <trkpt lat="46.00936" lon="6.17571">
        <ele>646</ele>
        <time>2021-03-27T14:17:34Z</time>
      </trkpt>
      <trkpt lat="46.00939" lon="6.17572">
        <ele>646</ele>
        <time>2021-03-27T14:17:35Z</time>
      </trkpt>
      <trkpt lat="46.00942" lon="6.17573">
        <ele>646.4</ele>
        <time>2021-03-27T14:17:36Z</time>
      </trkpt>
      <trkpt lat="46.00946" lon="6.17574">
        <ele>646.6</ele>
        <time>2021-03-27T14:17:37Z</time>
      </trkpt>
      <trkpt lat="46.0095" lon="6.17575">
        <ele>647</ele>
        <time>2021-03-27T14:17:38Z</time>
      </trkpt>
      <trkpt lat="46.00953" lon="6.17576">
        <ele>647.4</ele>
        <time>2021-03-27T14:17:39Z</time>
      </trkpt>
      <trkpt lat="46.00956" lon="6.17577">
        <ele>647.6</ele>
        <time>2021-03-27T14:17:40Z</time>
      </trkpt>
      <trkpt lat="46.00959" lon="6.17578">
        <ele>648</ele>
        <time>2021-03-27T14:17:41Z</time>
      </trkpt>
      <trkpt lat="46.00962" lon="6.1758">
        <ele>648.2</ele>
        <time>2021-03-27T14:17:42Z</time>
      </trkpt>
      <trkpt lat="46.00966" lon="6.17581">
        <ele>648.4</ele>
        <time>2021-03-27T14:17:43Z</time>
      </trkpt>
      <trkpt lat="46.00969" lon="6.17582">
        <ele>648.6</ele>
        <time>2021-03-27T14:17:44Z</time>
      </trkpt>
      <trkpt lat="46.00973" lon="6.17583">
        <ele>648.8</ele>
        <time>2021-03-27T14:17:45Z</time>
      </trkpt>
      <trkpt lat="46.00976" lon="6.17584">
        <ele>648.8</ele>
        <time>2021-03-27T14:17:46Z</time>
      </trkpt>
      <trkpt lat="46.00979" lon="6.17585">
        <ele>649</ele>
        <time>2021-03-27T14:17:47Z</time>
      </trkpt>
      <trkpt lat="46.00982" lon="6.17586">
        <ele>649.4</ele>
        <time>2021-03-27T14:17:48Z</time>
      </trkpt>
      <trkpt lat="46.00985" lon="6.17587">
        <ele>649.6</ele>
        <time>2021-03-27T14:17:49Z</time>
      </trkpt>
      <trkpt lat="46.00988" lon="6.17588">
        <ele>649.8</ele>
        <time>2021-03-27T14:17:50Z</time>
      </trkpt>
      <trkpt lat="46.00991" lon="6.17589">
        <ele>650.2</ele>
        <time>2021-03-27T14:17:51Z</time>
      </trkpt>
      <trkpt lat="46.00994" lon="6.17591">
        <ele>650.2</ele>
        <time>2021-03-27T14:17:52Z</time>
      </trkpt>
      <trkpt lat="46.00998" lon="6.17592">
        <ele>650.2</ele>
        <time>2021-03-27T14:17:53Z</time>
      </trkpt>
      <trkpt lat="46.01002" lon="6.17592">
        <ele>650.6</ele>
        <time>2021-03-27T14:17:54Z</time>
      </trkpt>
      <trkpt lat="46.01005" lon="6.17593">
        <ele>650.8</ele>
        <time>2021-03-27T14:17:55Z</time>
      </trkpt>
      <trkpt lat="46.01009" lon="6.17594">
        <ele>651</ele>
        <time>2021-03-27T14:17:56Z</time>
      </trkpt>
      <trkpt lat="46.01012" lon="6.17595">
        <ele>651.2</ele>
        <time>2021-03-27T14:17:57Z</time>
      </trkpt>
      <trkpt lat="46.01016" lon="6.17596">
        <ele>651.6</ele>
        <time>2021-03-27T14:17:58Z</time>
      </trkpt>
      <trkpt lat="46.01019" lon="6.17597">
        <ele>652</ele>
        <time>2021-03-27T14:17:59Z</time>
      </trkpt>
      <trkpt lat="46.01022" lon="6.17597">
        <ele>652.2</ele>
        <time>2021-03-27T14:18:00Z</time>
      </trkpt>
      <trkpt lat="46.01026" lon="6.17598">
        <ele>652.4</ele>
        <time>2021-03-27T14:18:01Z</time>
      </trkpt>
      <trkpt lat="46.0103" lon="6.17599">
        <ele>652.4</ele>
        <time>2021-03-27T14:18:02Z</time>
      </trkpt>
      <trkpt lat="46.01033" lon="6.176">
        <ele>652.6</ele>
        <time>2021-03-27T14:18:03Z</time>
      </trkpt>
      <trkpt lat="46.01037" lon="6.17601">
        <ele>652.8</ele>
        <time>2021-03-27T14:18:04Z</time>
      </trkpt>
      <trkpt lat="46.01041" lon="6.17602">
        <ele>653</ele>
        <time>2021-03-27T14:18:05Z</time>
      </trkpt>
      <trkpt lat="46.01044" lon="6.17603">
        <ele>653</ele>
        <time>2021-03-27T14:18:06Z</time>
      </trkpt>
      <trkpt lat="46.01051" lon="6.17605">
        <ele>653.4</ele>
        <time>2021-03-27T14:18:08Z</time>
      </trkpt>
      <trkpt lat="46.01054" lon="6.17605">
        <ele>653.6</ele>
        <time>2021-03-27T14:18:09Z</time>
      </trkpt>
      <trkpt lat="46.01057" lon="6.17606">
        <ele>653.8</ele>
        <time>2021-03-27T14:18:10Z</time>
      </trkpt>
      <trkpt lat="46.01061" lon="6.17607">
        <ele>653.8</ele>
        <time>2021-03-27T14:18:11Z</time>
      </trkpt>
      <trkpt lat="46.01064" lon="6.17608">
        <ele>654.2</ele>
        <time>2021-03-27T14:18:12Z</time>
      </trkpt>
      <trkpt lat="46.01068" lon="6.17609">
        <ele>654.4</ele>
        <time>2021-03-27T14:18:13Z</time>
      </trkpt>
      <trkpt lat="46.01071" lon="6.1761">
        <ele>654.4</ele>
        <time>2021-03-27T14:18:14Z</time>
      </trkpt>
      <trkpt lat="46.01075" lon="6.17611">
        <ele>654.8</ele>
        <time>2021-03-27T14:18:15Z</time>
      </trkpt>
      <trkpt lat="46.01078" lon="6.17612">
        <ele>654.8</ele>
        <time>2021-03-27T14:18:16Z</time>
      </trkpt>
      <trkpt lat="46.01082" lon="6.17613">
        <ele>655</ele>
        <time>2021-03-27T14:18:17Z</time>
      </trkpt>
      <trkpt lat="46.01085" lon="6.17614">
        <ele>655.2</ele>
        <time>2021-03-27T14:18:18Z</time>
      </trkpt>
      <trkpt lat="46.01092" lon="6.17616">
        <ele>655.6</ele>
        <time>2021-03-27T14:18:20Z</time>
      </trkpt>
      <trkpt lat="46.01095" lon="6.17617">
        <ele>655.8</ele>
        <time>2021-03-27T14:18:21Z</time>
      </trkpt>
      <trkpt lat="46.01099" lon="6.17618">
        <ele>656</ele>
        <time>2021-03-27T14:18:22Z</time>
      </trkpt>
      <trkpt lat="46.01102" lon="6.17619">
        <ele>656.4</ele>
        <time>2021-03-27T14:18:23Z</time>
      </trkpt>
      <trkpt lat="46.01105" lon="6.17619">
        <ele>656.8</ele>
        <time>2021-03-27T14:18:24Z</time>
      </trkpt>
      <trkpt lat="46.01112" lon="6.17621">
        <ele>657</ele>
        <time>2021-03-27T14:18:26Z</time>
      </trkpt>
      <trkpt lat="46.01116" lon="6.17622">
        <ele>657.4</ele>
        <time>2021-03-27T14:18:27Z</time>
      </trkpt>
      <trkpt lat="46.01119" lon="6.17623">
        <ele>657.6</ele>
        <time>2021-03-27T14:18:28Z</time>
      </trkpt>
      <trkpt lat="46.01123" lon="6.17624">
        <ele>657.6</ele>
        <time>2021-03-27T14:18:29Z</time>
      </trkpt>
      <trkpt lat="46.01126" lon="6.17625">
        <ele>658</ele>
        <time>2021-03-27T14:18:30Z</time>
      </trkpt>
      <trkpt lat="46.01133" lon="6.17627">
        <ele>658.4</ele>
        <time>2021-03-27T14:18:32Z</time>
      </trkpt>
      <trkpt lat="46.01137" lon="6.17628">
        <ele>658.4</ele>
        <time>2021-03-27T14:18:33Z</time>
      </trkpt>
      <trkpt lat="46.0114" lon="6.17629">
        <ele>658.8</ele>
        <time>2021-03-27T14:18:34Z</time>
      </trkpt>
      <trkpt lat="46.01144" lon="6.1763">
        <ele>659</ele>
        <time>2021-03-27T14:18:35Z</time>
      </trkpt>
      <trkpt lat="46.01147" lon="6.17631">
        <ele>659.2</ele>
        <time>2021-03-27T14:18:36Z</time>
      </trkpt>
      <trkpt lat="46.01154" lon="6.17632">
        <ele>659.6</ele>
        <time>2021-03-27T14:18:38Z</time>
      </trkpt>
      <trkpt lat="46.01157" lon="6.17632">
        <ele>659.8</ele>
        <time>2021-03-27T14:18:39Z</time>
      </trkpt>
      <trkpt lat="46.0116" lon="6.17632">
        <ele>660</ele>
        <time>2021-03-27T14:18:40Z</time>
      </trkpt>
      <trkpt lat="46.01163" lon="6.17631">
        <ele>660</ele>
        <time>2021-03-27T14:18:41Z</time>
      </trkpt>
      <trkpt lat="46.01165" lon="6.1763">
        <ele>660.2</ele>
        <time>2021-03-27T14:18:42Z</time>
      </trkpt>
      <trkpt lat="46.01168" lon="6.17629">
        <ele>660.4</ele>
        <time>2021-03-27T14:18:43Z</time>
      </trkpt>
      <trkpt lat="46.01171" lon="6.17627">
        <ele>660.8</ele>
        <time>2021-03-27T14:18:44Z</time>
      </trkpt>
      <trkpt lat="46.01173" lon="6.17625">
        <ele>661</ele>
        <time>2021-03-27T14:18:45Z</time>
      </trkpt>
      <trkpt lat="46.01175" lon="6.17621">
        <ele>661.2</ele>
        <time>2021-03-27T14:18:46Z</time>
      </trkpt>
      <trkpt lat="46.01176" lon="6.17617">
        <ele>661.6</ele>
        <time>2021-03-27T14:18:47Z</time>
      </trkpt>
      <trkpt lat="46.01178" lon="6.17613">
        <ele>661.8</ele>
        <time>2021-03-27T14:18:48Z</time>
      </trkpt>
      <trkpt lat="46.0118" lon="6.17609">
        <ele>661.8</ele>
        <time>2021-03-27T14:18:49Z</time>
      </trkpt>
      <trkpt lat="46.01182" lon="6.17605">
        <ele>662.2</ele>
        <time>2021-03-27T14:18:50Z</time>
      </trkpt>
      <trkpt lat="46.01183" lon="6.17602">
        <ele>662.2</ele>
        <time>2021-03-27T14:18:51Z</time>
      </trkpt>
      <trkpt lat="46.01185" lon="6.17598">
        <ele>662.4</ele>
        <time>2021-03-27T14:18:52Z</time>
      </trkpt>
      <trkpt lat="46.01188" lon="6.1759">
        <ele>662.6</ele>
        <time>2021-03-27T14:18:54Z</time>
      </trkpt>
      <trkpt lat="46.01189" lon="6.17586">
        <ele>663</ele>
        <time>2021-03-27T14:18:55Z</time>
      </trkpt>
      <trkpt lat="46.01191" lon="6.17578">
        <ele>663.6</ele>
        <time>2021-03-27T14:18:57Z</time>
      </trkpt>
      <trkpt lat="46.01192" lon="6.17574">
        <ele>663.8</ele>
        <time>2021-03-27T14:18:58Z</time>
      </trkpt>
      <trkpt lat="46.01194" lon="6.17572">
        <ele>664</ele>
        <time>2021-03-27T14:18:59Z</time>
      </trkpt>
      <trkpt lat="46.01196" lon="6.1757">
        <ele>663.8</ele>
        <time>2021-03-27T14:19:00Z</time>
      </trkpt>
      <trkpt lat="46.01199" lon="6.17569">
        <ele>663.8</ele>
        <time>2021-03-27T14:19:01Z</time>
      </trkpt>
      <trkpt lat="46.01202" lon="6.1757">
        <ele>664</ele>
        <time>2021-03-27T14:19:02Z</time>
      </trkpt>
      <trkpt lat="46.01204" lon="6.1757">
        <ele>664.2</ele>
        <time>2021-03-27T14:19:03Z</time>
      </trkpt>
      <trkpt lat="46.01207" lon="6.17572">
        <ele>664.4</ele>
        <time>2021-03-27T14:19:04Z</time>
      </trkpt>
      <trkpt lat="46.0121" lon="6.17573">
        <ele>664.6</ele>
        <time>2021-03-27T14:19:05Z</time>
      </trkpt>
      <trkpt lat="46.01213" lon="6.17574">
        <ele>664.6</ele>
        <time>2021-03-27T14:19:06Z</time>
      </trkpt>
      <trkpt lat="46.01217" lon="6.17575">
        <ele>664.8</ele>
        <time>2021-03-27T14:19:07Z</time>
      </trkpt>
      <trkpt lat="46.0122" lon="6.17575">
        <ele>664.8</ele>
        <time>2021-03-27T14:19:08Z</time>
      </trkpt>
      <trkpt lat="46.01223" lon="6.17575">
        <ele>665</ele>
        <time>2021-03-27T14:19:09Z</time>
      </trkpt>
      <trkpt lat="46.01226" lon="6.17575">
        <ele>665.2</ele>
        <time>2021-03-27T14:19:10Z</time>
      </trkpt>
      <trkpt lat="46.01229" lon="6.17573">
        <ele>665.2</ele>
        <time>2021-03-27T14:19:11Z</time>
      </trkpt>
      <trkpt lat="46.01231" lon="6.17572">
        <ele>665.4</ele>
        <time>2021-03-27T14:19:12Z</time>
      </trkpt>
      <trkpt lat="46.01233" lon="6.1757">
        <ele>665.6</ele>
        <time>2021-03-27T14:19:13Z</time>
      </trkpt>
      <trkpt lat="46.01235" lon="6.17568">
        <ele>665.8</ele>
        <time>2021-03-27T14:19:14Z</time>
      </trkpt>
      <trkpt lat="46.01237" lon="6.17566">
        <ele>666</ele>
        <time>2021-03-27T14:19:15Z</time>
      </trkpt>
      <trkpt lat="46.0124" lon="6.17564">
        <ele>666</ele>
        <time>2021-03-27T14:19:16Z</time>
      </trkpt>
      <trkpt lat="46.01241" lon="6.17563">
        <ele>666.4</ele>
        <time>2021-03-27T14:19:17Z</time>
      </trkpt>
      <trkpt lat="46.01243" lon="6.17561">
        <ele>667</ele>
        <time>2021-03-27T14:19:18Z</time>
      </trkpt>
      <trkpt lat="46.01245" lon="6.17559">
        <ele>667.2</ele>
        <time>2021-03-27T14:19:19Z</time>
      </trkpt>
      <trkpt lat="46.01247" lon="6.17557">
        <ele>667.4</ele>
        <time>2021-03-27T14:19:20Z</time>
      </trkpt>
      <trkpt lat="46.01249" lon="6.17555">
        <ele>667.6</ele>
        <time>2021-03-27T14:19:21Z</time>
      </trkpt>
      <trkpt lat="46.01251" lon="6.17553">
        <ele>667.6</ele>
        <time>2021-03-27T14:19:22Z</time>
      </trkpt>
      <trkpt lat="46.01253" lon="6.17551">
        <ele>667.6</ele>
        <time>2021-03-27T14:19:23Z</time>
      </trkpt>
      <trkpt lat="46.01255" lon="6.1755">
        <ele>668</ele>
        <time>2021-03-27T14:19:24Z</time>
      </trkpt>
      <trkpt lat="46.01257" lon="6.17548">
        <ele>668.2</ele>
        <time>2021-03-27T14:19:25Z</time>
      </trkpt>
      <trkpt lat="46.01259" lon="6.17546">
        <ele>668.4</ele>
        <time>2021-03-27T14:19:26Z</time>
      </trkpt>
      <trkpt lat="46.01262" lon="6.17543">
        <ele>668.6</ele>
        <time>2021-03-27T14:19:27Z</time>
      </trkpt>
      <trkpt lat="46.01264" lon="6.17541">
        <ele>669</ele>
        <time>2021-03-27T14:19:28Z</time>
      </trkpt>
      <trkpt lat="46.01266" lon="6.17538">
        <ele>669.2</ele>
        <time>2021-03-27T14:19:29Z</time>
      </trkpt>
      <trkpt lat="46.01268" lon="6.17537">
        <ele>669.6</ele>
        <time>2021-03-27T14:19:30Z</time>
      </trkpt>
      <trkpt lat="46.0127" lon="6.17535">
        <ele>669.8</ele>
        <time>2021-03-27T14:19:31Z</time>
      </trkpt>
      <trkpt lat="46.01271" lon="6.17533">
        <ele>670.4</ele>
        <time>2021-03-27T14:19:32Z</time>
      </trkpt>
      <trkpt lat="46.01273" lon="6.17531">
        <ele>670.8</ele>
        <time>2021-03-27T14:19:33Z</time>
      </trkpt>
      <trkpt lat="46.01275" lon="6.17529">
        <ele>671</ele>
        <time>2021-03-27T14:19:34Z</time>
      </trkpt>
      <trkpt lat="46.01277" lon="6.17527">
        <ele>671.2</ele>
        <time>2021-03-27T14:19:35Z</time>
      </trkpt>
      <trkpt lat="46.01278" lon="6.17525">
        <ele>671.6</ele>
        <time>2021-03-27T14:19:36Z</time>
      </trkpt>
      <trkpt lat="46.0128" lon="6.17523">
        <ele>671.8</ele>
        <time>2021-03-27T14:19:37Z</time>
      </trkpt>
      <trkpt lat="46.01281" lon="6.17521">
        <ele>672.2</ele>
        <time>2021-03-27T14:19:38Z</time>
      </trkpt>
      <trkpt lat="46.01283" lon="6.17519">
        <ele>672.4</ele>
        <time>2021-03-27T14:19:39Z</time>
      </trkpt>
      <trkpt lat="46.01285" lon="6.17518">
        <ele>672.6</ele>
        <time>2021-03-27T14:19:40Z</time>
      </trkpt>
      <trkpt lat="46.01287" lon="6.17516">
        <ele>673</ele>
        <time>2021-03-27T14:19:41Z</time>
      </trkpt>
      <trkpt lat="46.01289" lon="6.17515">
        <ele>673.2</ele>
        <time>2021-03-27T14:19:42Z</time>
      </trkpt>
      <trkpt lat="46.01291" lon="6.17513">
        <ele>673.6</ele>
        <time>2021-03-27T14:19:43Z</time>
      </trkpt>
      <trkpt lat="46.01293" lon="6.17511">
        <ele>673.6</ele>
        <time>2021-03-27T14:19:44Z</time>
      </trkpt>
      <trkpt lat="46.01294" lon="6.1751">
        <ele>674</ele>
        <time>2021-03-27T14:19:45Z</time>
      </trkpt>
      <trkpt lat="46.01296" lon="6.17508">
        <ele>674.4</ele>
        <time>2021-03-27T14:19:46Z</time>
      </trkpt>
      <trkpt lat="46.01297" lon="6.17507">
        <ele>674.6</ele>
        <time>2021-03-27T14:19:47Z</time>
      </trkpt>
      <trkpt lat="46.01299" lon="6.17506">
        <ele>674.8</ele>
        <time>2021-03-27T14:19:48Z</time>
      </trkpt>
      <trkpt lat="46.01301" lon="6.17504">
        <ele>675.2</ele>
        <time>2021-03-27T14:19:49Z</time>
      </trkpt>
      <trkpt lat="46.01304" lon="6.17502">
        <ele>675.4</ele>
        <time>2021-03-27T14:19:50Z</time>
      </trkpt>
      <trkpt lat="46.01306" lon="6.17501">
        <ele>675.8</ele>
        <time>2021-03-27T14:19:51Z</time>
      </trkpt>
      <trkpt lat="46.01308" lon="6.175">
        <ele>676.2</ele>
        <time>2021-03-27T14:19:52Z</time>
      </trkpt>
      <trkpt lat="46.0131" lon="6.175">
        <ele>676.4</ele>
        <time>2021-03-27T14:19:53Z</time>
      </trkpt>
      <trkpt lat="46.01312" lon="6.17499">
        <ele>676.4</ele>
        <time>2021-03-27T14:19:54Z</time>
      </trkpt>
      <trkpt lat="46.01314" lon="6.17498">
        <ele>676.8</ele>
        <time>2021-03-27T14:19:55Z</time>
      </trkpt>
      <trkpt lat="46.01314" lon="6.17496">
        <ele>677.2</ele>
        <time>2021-03-27T14:19:56Z</time>
      </trkpt>
      <trkpt lat="46.01313" lon="6.17495">
        <ele>677.4</ele>
        <time>2021-03-27T14:19:57Z</time>
      </trkpt>
      <trkpt lat="46.01311" lon="6.17496">
        <ele>677.6</ele>
        <time>2021-03-27T14:19:58Z</time>
      </trkpt>
      <trkpt lat="46.01309" lon="6.17497">
        <ele>678.2</ele>
        <time>2021-03-27T14:19:59Z</time>
      </trkpt>
      <trkpt lat="46.01307" lon="6.17499">
        <ele>678.2</ele>
        <time>2021-03-27T14:20:00Z</time>
      </trkpt>
      <trkpt lat="46.01304" lon="6.17502">
        <ele>678.2</ele>
        <time>2021-03-27T14:20:01Z</time>
      </trkpt>
      <trkpt lat="46.01302" lon="6.17505">
        <ele>678.4</ele>
        <time>2021-03-27T14:20:02Z</time>
      </trkpt>
      <trkpt lat="46.01298" lon="6.17508">
        <ele>678.4</ele>
        <time>2021-03-27T14:20:03Z</time>
      </trkpt>
      <trkpt lat="46.01295" lon="6.17511">
        <ele>678.4</ele>
        <time>2021-03-27T14:20:04Z</time>
      </trkpt>
      <trkpt lat="46.01291" lon="6.17514">
        <ele>678.4</ele>
        <time>2021-03-27T14:20:05Z</time>
      </trkpt>
      <trkpt lat="46.01288" lon="6.17517">
        <ele>678.6</ele>
        <time>2021-03-27T14:20:06Z</time>
      </trkpt>
      <trkpt lat="46.01284" lon="6.1752">
        <ele>678.6</ele>
        <time>2021-03-27T14:20:07Z</time>
      </trkpt>
      <trkpt lat="46.0128" lon="6.17523">
        <ele>678.6</ele>
        <time>2021-03-27T14:20:08Z</time>
      </trkpt>
      <trkpt lat="46.01276" lon="6.17526">
        <ele>678.4</ele>
        <time>2021-03-27T14:20:09Z</time>
      </trkpt>
      <trkpt lat="46.01272" lon="6.17529">
        <ele>678.4</ele>
        <time>2021-03-27T14:20:10Z</time>
      </trkpt>
      <trkpt lat="46.01268" lon="6.17533">
        <ele>678.2</ele>
        <time>2021-03-27T14:20:11Z</time>
      </trkpt>
      <trkpt lat="46.01264" lon="6.17536">
        <ele>678</ele>
        <time>2021-03-27T14:20:12Z</time>
      </trkpt>
      <trkpt lat="46.0126" lon="6.1754">
        <ele>677.6</ele>
        <time>2021-03-27T14:20:13Z</time>
      </trkpt>
      <trkpt lat="46.01256" lon="6.17543">
        <ele>677</ele>
        <time>2021-03-27T14:20:14Z</time>
      </trkpt>
      <trkpt lat="46.01251" lon="6.17547">
        <ele>676.6</ele>
        <time>2021-03-27T14:20:15Z</time>
      </trkpt>
      <trkpt lat="46.01247" lon="6.1755">
        <ele>676</ele>
        <time>2021-03-27T14:20:16Z</time>
      </trkpt>
      <trkpt lat="46.01242" lon="6.17554">
        <ele>675</ele>
        <time>2021-03-27T14:20:17Z</time>
      </trkpt>
      <trkpt lat="46.01238" lon="6.17557">
        <ele>674.6</ele>
        <time>2021-03-27T14:20:18Z</time>
      </trkpt>
      <trkpt lat="46.01233" lon="6.1756">
        <ele>673.8</ele>
        <time>2021-03-27T14:20:19Z</time>
      </trkpt>
      <trkpt lat="46.0123" lon="6.17563">
        <ele>673.6</ele>
        <time>2021-03-27T14:20:20Z</time>
      </trkpt>
      <trkpt lat="46.01226" lon="6.17566">
        <ele>673</ele>
        <time>2021-03-27T14:20:21Z</time>
      </trkpt>
      <trkpt lat="46.01223" lon="6.17568">
        <ele>672.2</ele>
        <time>2021-03-27T14:20:22Z</time>
      </trkpt>
      <trkpt lat="46.0122" lon="6.17571">
        <ele>671.8</ele>
        <time>2021-03-27T14:20:23Z</time>
      </trkpt>
      <trkpt lat="46.01217" lon="6.17572">
        <ele>671.4</ele>
        <time>2021-03-27T14:20:24Z</time>
      </trkpt>
      <trkpt lat="46.01213" lon="6.17573">
        <ele>670.6</ele>
        <time>2021-03-27T14:20:25Z</time>
      </trkpt>
      <trkpt lat="46.01209" lon="6.17573">
        <ele>670.2</ele>
        <time>2021-03-27T14:20:26Z</time>
      </trkpt>
      <trkpt lat="46.01205" lon="6.17572">
        <ele>669.8</ele>
        <time>2021-03-27T14:20:27Z</time>
      </trkpt>
      <trkpt lat="46.01201" lon="6.1757">
        <ele>669.6</ele>
        <time>2021-03-27T14:20:28Z</time>
      </trkpt>
      <trkpt lat="46.01198" lon="6.17567">
        <ele>669</ele>
        <time>2021-03-27T14:20:29Z</time>
      </trkpt>
      <trkpt lat="46.01194" lon="6.17563">
        <ele>668.6</ele>
        <time>2021-03-27T14:20:30Z</time>
      </trkpt>
      <trkpt lat="46.01191" lon="6.17558">
        <ele>668.4</ele>
        <time>2021-03-27T14:20:31Z</time>
      </trkpt>
      <trkpt lat="46.01189" lon="6.17554">
        <ele>668</ele>
        <time>2021-03-27T14:20:32Z</time>
      </trkpt>
      <trkpt lat="46.01186" lon="6.1755">
        <ele>667.8</ele>
        <time>2021-03-27T14:20:33Z</time>
      </trkpt>
      <trkpt lat="46.01184" lon="6.17547">
        <ele>667.2</ele>
        <time>2021-03-27T14:20:34Z</time>
      </trkpt>
      <trkpt lat="46.01181" lon="6.17543">
        <ele>666.4</ele>
        <time>2021-03-27T14:20:35Z</time>
      </trkpt>
      <trkpt lat="46.01179" lon="6.17539">
        <ele>666.4</ele>
        <time>2021-03-27T14:20:36Z</time>
      </trkpt>
      <trkpt lat="46.01177" lon="6.17535">
        <ele>666</ele>
        <time>2021-03-27T14:20:37Z</time>
      </trkpt>
      <trkpt lat="46.01175" lon="6.17532">
        <ele>666</ele>
        <time>2021-03-27T14:20:38Z</time>
      </trkpt>
      <trkpt lat="46.01172" lon="6.17529">
        <ele>665.8</ele>
        <time>2021-03-27T14:20:39Z</time>
      </trkpt>
      <trkpt lat="46.0117" lon="6.17526">
        <ele>665.6</ele>
        <time>2021-03-27T14:20:40Z</time>
      </trkpt>
      <trkpt lat="46.01168" lon="6.17522">
        <ele>665.8</ele>
        <time>2021-03-27T14:20:41Z</time>
      </trkpt>
      <trkpt lat="46.01165" lon="6.17519">
        <ele>665.8</ele>
        <time>2021-03-27T14:20:42Z</time>
      </trkpt>
      <trkpt lat="46.01163" lon="6.17516">
        <ele>665.8</ele>
        <time>2021-03-27T14:20:43Z</time>
      </trkpt>
      <trkpt lat="46.01161" lon="6.17513">
        <ele>665.8</ele>
        <time>2021-03-27T14:20:44Z</time>
      </trkpt>
      <trkpt lat="46.01159" lon="6.1751">
        <ele>665.8</ele>
        <time>2021-03-27T14:20:45Z</time>
      </trkpt>
      <trkpt lat="46.01157" lon="6.17508">
        <ele>665.8</ele>
        <time>2021-03-27T14:20:46Z</time>
      </trkpt>
      <trkpt lat="46.01155" lon="6.17505">
        <ele>665.8</ele>
        <time>2021-03-27T14:20:47Z</time>
      </trkpt>
      <trkpt lat="46.01154" lon="6.17503">
        <ele>665.8</ele>
        <time>2021-03-27T14:20:48Z</time>
      </trkpt>
      <trkpt lat="46.01152" lon="6.17501">
        <ele>666</ele>
        <time>2021-03-27T14:20:49Z</time>
      </trkpt>
      <trkpt lat="46.01151" lon="6.17499">
        <ele>666</ele>
        <time>2021-03-27T14:20:50Z</time>
      </trkpt>
      <trkpt lat="46.0115" lon="6.17498">
        <ele>666.2</ele>
        <time>2021-03-27T14:20:51Z</time>
      </trkpt>
      <trkpt lat="46.0115" lon="6.17497">
        <ele>666.6</ele>
        <time>2021-03-27T14:20:52Z</time>
      </trkpt>
      <trkpt lat="46.0115" lon="6.17497">
        <ele>666.8</ele>
        <time>2021-03-27T14:20:53Z</time>
      </trkpt>
      <trkpt lat="46.0115" lon="6.17497">
        <ele>667</ele>
        <time>2021-03-27T14:20:54Z</time>
      </trkpt>
      <trkpt lat="46.0115" lon="6.17497">
        <ele>667</ele>
        <time>2021-03-27T14:20:55Z</time>
      </trkpt>
      <trkpt lat="46.0115" lon="6.17498">
        <ele>667.4</ele>
        <time>2021-03-27T14:20:56Z</time>
      </trkpt>
      <trkpt lat="46.0115" lon="6.17498">
        <ele>667.4</ele>
        <time>2021-03-27T14:20:57Z</time>
      </trkpt>
      <trkpt lat="46.0115" lon="6.17498">
        <ele>667.6</ele>
        <time>2021-03-27T14:20:58Z</time>
      </trkpt>
      <trkpt lat="46.0115" lon="6.17498">
        <ele>668</ele>
        <time>2021-03-27T14:21:00Z</time>
      </trkpt>
      <trkpt lat="46.0115" lon="6.17498">
        <ele>668.2</ele>
        <time>2021-03-27T14:21:01Z</time>
      </trkpt>
      <trkpt lat="46.0115" lon="6.17498">
        <ele>668.2</ele>
        <time>2021-03-27T14:21:02Z</time>
      </trkpt>
      <trkpt lat="46.0115" lon="6.17498">
        <ele>668.2</ele>
        <time>2021-03-27T14:21:03Z</time>
      </trkpt>
      <trkpt lat="46.0115" lon="6.17498">
        <ele>668.2</ele>
        <time>2021-03-27T14:21:04Z</time>
      </trkpt>
      <trkpt lat="46.0115" lon="6.17498">
        <ele>668.2</ele>
        <time>2021-03-27T14:21:05Z</time>
      </trkpt>
      <trkpt lat="46.0115" lon="6.17498">
        <ele>668.2</ele>
        <time>2021-03-27T14:21:06Z</time>
      </trkpt>
      <trkpt lat="46.0115" lon="6.17497">
        <ele>668.2</ele>
        <time>2021-03-27T14:21:07Z</time>
      </trkpt>
      <trkpt lat="46.0115" lon="6.17497">
        <ele>668.2</ele>
        <time>2021-03-27T14:21:08Z</time>
      </trkpt>
      <trkpt lat="46.0115" lon="6.17497">
        <ele>668.2</ele>
        <time>2021-03-27T14:21:09Z</time>
      </trkpt>
      <trkpt lat="46.01149" lon="6.17497">
        <ele>668.2</ele>
        <time>2021-03-27T14:21:10Z</time>
      </trkpt>
      <trkpt lat="46.01149" lon="6.17497">
        <ele>668.4</ele>
        <time>2021-03-27T14:21:11Z</time>
      </trkpt>
      <trkpt lat="46.01149" lon="6.17497">
        <ele>668.4</ele>
        <time>2021-03-27T14:21:13Z</time>
      </trkpt>
      <trkpt lat="46.01149" lon="6.17497">
        <ele>668.4</ele>
        <time>2021-03-27T14:21:14Z</time>
      </trkpt>
      <trkpt lat="46.01149" lon="6.17497">
        <ele>668.4</ele>
        <time>2021-03-27T14:21:15Z</time>
      </trkpt>
      <trkpt lat="46.01149" lon="6.17497">
        <ele>668.4</ele>
        <time>2021-03-27T14:21:16Z</time>
      </trkpt>
      <trkpt lat="46.01149" lon="6.17497">
        <ele>668.4</ele>
        <time>2021-03-27T14:21:17Z</time>
      </trkpt>
      <trkpt lat="46.01149" lon="6.17497">
        <ele>668.4</ele>
        <time>2021-03-27T14:21:18Z</time>
      </trkpt>
      <trkpt lat="46.01149" lon="6.17497">
        <ele>668.4</ele>
        <time>2021-03-27T14:21:19Z</time>
      </trkpt>
      <trkpt lat="46.01149" lon="6.17497">
        <ele>668.4</ele>
        <time>2021-03-27T14:21:20Z</time>
      </trkpt>
      <trkpt lat="46.01149" lon="6.17497">
        <ele>668.2</ele>
        <time>2021-03-27T14:21:21Z</time>
      </trkpt>
      <trkpt lat="46.01149" lon="6.17497">
        <ele>668.2</ele>
        <time>2021-03-27T14:21:22Z</time>
      </trkpt>
      <trkpt lat="46.01149" lon="6.17497">
        <ele>668.2</ele>
        <time>2021-03-27T14:21:23Z</time>
      </trkpt>
      <trkpt lat="46.01149" lon="6.17497">
        <ele>668.4</ele>
        <time>2021-03-27T14:21:24Z</time>
      </trkpt>
      <trkpt lat="46.01149" lon="6.17497">
        <ele>668.4</ele>
        <time>2021-03-27T14:21:26Z</time>
      </trkpt>
      <trkpt lat="46.01149" lon="6.17497">
        <ele>668.2</ele>
        <time>2021-03-27T14:21:27Z</time>
      </trkpt>
      <trkpt lat="46.01149" lon="6.17497">
        <ele>668.4</ele>
        <time>2021-03-27T14:21:28Z</time>
      </trkpt>
      <trkpt lat="46.01149" lon="6.17497">
        <ele>668.4</ele>
        <time>2021-03-27T14:21:29Z</time>
      </trkpt>
      <trkpt lat="46.01149" lon="6.17497">
        <ele>668.2</ele>
        <time>2021-03-27T14:21:30Z</time>
      </trkpt>
      <trkpt lat="46.01149" lon="6.17497">
        <ele>668.2</ele>
        <time>2021-03-27T14:21:31Z</time>
      </trkpt>
      <trkpt lat="46.01149" lon="6.17497">
        <ele>668.2</ele>
        <time>2021-03-27T14:21:32Z</time>
      </trkpt>
      <trkpt lat="46.01149" lon="6.17497">
        <ele>668.2</ele>
        <time>2021-03-27T14:21:34Z</time>
      </trkpt>
      <trkpt lat="46.01149" lon="6.17497">
        <ele>668.4</ele>
        <time>2021-03-27T14:21:35Z</time>
      </trkpt>
      <trkpt lat="46.01149" lon="6.17497">
        <ele>668.4</ele>
        <time>2021-03-27T14:21:36Z</time>
      </trkpt>
      <trkpt lat="46.01149" lon="6.17497">
        <ele>668.4</ele>
        <time>2021-03-27T14:21:37Z</time>
      </trkpt>
      <trkpt lat="46.01148" lon="6.17497">
        <ele>668.2</ele>
        <time>2021-03-27T14:21:38Z</time>
      </trkpt>
      <trkpt lat="46.01148" lon="6.17497">
        <ele>668.4</ele>
        <time>2021-03-27T14:21:39Z</time>
      </trkpt>
      <trkpt lat="46.01148" lon="6.17496">
        <ele>668.2</ele>
        <time>2021-03-27T14:21:40Z</time>
      </trkpt>
      <trkpt lat="46.01148" lon="6.17496">
        <ele>668.4</ele>
        <time>2021-03-27T14:21:41Z</time>
      </trkpt>
      <trkpt lat="46.01148" lon="6.17496">
        <ele>668.4</ele>
        <time>2021-03-27T14:21:42Z</time>
      </trkpt>
      <trkpt lat="46.01148" lon="6.17496">
        <ele>668.4</ele>
        <time>2021-03-27T14:21:43Z</time>
      </trkpt>
      <trkpt lat="46.01148" lon="6.17496">
        <ele>668.4</ele>
        <time>2021-03-27T14:21:44Z</time>
      </trkpt>
      <trkpt lat="46.01148" lon="6.17496">
        <ele>668.6</ele>
        <time>2021-03-27T14:21:45Z</time>
      </trkpt>
      <trkpt lat="46.01148" lon="6.17496">
        <ele>668.4</ele>
        <time>2021-03-27T14:21:46Z</time>
      </trkpt>
      <trkpt lat="46.01148" lon="6.17496">
        <ele>668.4</ele>
        <time>2021-03-27T14:21:47Z</time>
      </trkpt>
      <trkpt lat="46.01148" lon="6.17496">
        <ele>668.4</ele>
        <time>2021-03-27T14:21:48Z</time>
      </trkpt>
      <trkpt lat="46.01148" lon="6.17496">
        <ele>668.4</ele>
        <time>2021-03-27T14:21:49Z</time>
      </trkpt>
      <trkpt lat="46.01148" lon="6.17496">
        <ele>668.6</ele>
        <time>2021-03-27T14:21:50Z</time>
      </trkpt>
      <trkpt lat="46.01148" lon="6.17496">
        <ele>668.4</ele>
        <time>2021-03-27T14:21:51Z</time>
      </trkpt>
      <trkpt lat="46.01148" lon="6.17496">
        <ele>668.4</ele>
        <time>2021-03-27T14:21:52Z</time>
      </trkpt>
      <trkpt lat="46.01148" lon="6.17496">
        <ele>668.4</ele>
        <time>2021-03-27T14:21:53Z</time>
      </trkpt>
      <trkpt lat="46.01148" lon="6.17496">
        <ele>668.4</ele>
        <time>2021-03-27T14:21:54Z</time>
      </trkpt>
      <trkpt lat="46.01148" lon="6.17496">
        <ele>668.4</ele>
        <time>2021-03-27T14:21:55Z</time>
      </trkpt>
      <trkpt lat="46.01148" lon="6.17496">
        <ele>668.6</ele>
        <time>2021-03-27T14:21:56Z</time>
      </trkpt>
      <trkpt lat="46.01148" lon="6.17496">
        <ele>668.6</ele>
        <time>2021-03-27T14:21:57Z</time>
      </trkpt>
      <trkpt lat="46.01148" lon="6.17496">
        <ele>668.4</ele>
        <time>2021-03-27T14:21:58Z</time>
      </trkpt>
      <trkpt lat="46.01148" lon="6.17496">
        <ele>668.4</ele>
        <time>2021-03-27T14:21:59Z</time>
      </trkpt>
      <trkpt lat="46.01148" lon="6.17496">
        <ele>668.4</ele>
        <time>2021-03-27T14:22:00Z</time>
      </trkpt>
      <trkpt lat="46.01148" lon="6.17496">
        <ele>668.4</ele>
        <time>2021-03-27T14:22:01Z</time>
      </trkpt>
      <trkpt lat="46.01148" lon="6.17496">
        <ele>668.6</ele>
        <time>2021-03-27T14:22:02Z</time>
      </trkpt>
      <trkpt lat="46.01148" lon="6.17496">
        <ele>668.6</ele>
        <time>2021-03-27T14:22:03Z</time>
      </trkpt>
      <trkpt lat="46.01148" lon="6.17496">
        <ele>668.4</ele>
        <time>2021-03-27T14:22:04Z</time>
      </trkpt>
      <trkpt lat="46.01148" lon="6.17496">
        <ele>668.4</ele>
        <time>2021-03-27T14:22:05Z</time>
      </trkpt>
      <trkpt lat="46.01148" lon="6.17496">
        <ele>668.6</ele>
        <time>2021-03-27T14:22:06Z</time>
      </trkpt>
      <trkpt lat="46.01149" lon="6.17496">
        <ele>668.4</ele>
        <time>2021-03-27T14:22:07Z</time>
      </trkpt>
      <trkpt lat="46.01149" lon="6.17496">
        <ele>668.4</ele>
        <time>2021-03-27T14:22:09Z</time>
      </trkpt>
      <trkpt lat="46.01149" lon="6.17496">
        <ele>668.6</ele>
        <time>2021-03-27T14:22:10Z</time>
      </trkpt>
      <trkpt lat="46.01149" lon="6.17496">
        <ele>668.4</ele>
        <time>2021-03-27T14:22:11Z</time>
      </trkpt>
      <trkpt lat="46.01149" lon="6.17496">
        <ele>668.4</ele>
        <time>2021-03-27T14:22:13Z</time>
      </trkpt>
      <trkpt lat="46.01149" lon="6.17496">
        <ele>668.4</ele>
        <time>2021-03-27T14:22:14Z</time>
      </trkpt>
      <trkpt lat="46.01149" lon="6.17496">
        <ele>668.4</ele>
        <time>2021-03-27T14:22:15Z</time>
      </trkpt>
      <trkpt lat="46.01149" lon="6.17496">
        <ele>668.4</ele>
        <time>2021-03-27T14:22:16Z</time>
      </trkpt>
      <trkpt lat="46.01149" lon="6.17496">
        <ele>668.4</ele>
        <time>2021-03-27T14:22:17Z</time>
      </trkpt>
      <trkpt lat="46.01149" lon="6.17496">
        <ele>668.4</ele>
        <time>2021-03-27T14:22:18Z</time>
      </trkpt>
      <trkpt lat="46.01149" lon="6.17496">
        <ele>668.4</ele>
        <time>2021-03-27T14:22:19Z</time>
      </trkpt>
      <trkpt lat="46.01149" lon="6.17496">
        <ele>668.4</ele>
        <time>2021-03-27T14:22:20Z</time>
      </trkpt>
      <trkpt lat="46.01149" lon="6.17496">
        <ele>668.4</ele>
        <time>2021-03-27T14:22:21Z</time>
      </trkpt>
      <trkpt lat="46.01149" lon="6.17496">
        <ele>668.4</ele>
        <time>2021-03-27T14:22:22Z</time>
      </trkpt>
      <trkpt lat="46.01149" lon="6.17496">
        <ele>668.4</ele>
        <time>2021-03-27T14:22:23Z</time>
      </trkpt>
      <trkpt lat="46.01149" lon="6.17496">
        <ele>668.4</ele>
        <time>2021-03-27T14:22:24Z</time>
      </trkpt>
      <trkpt lat="46.01149" lon="6.17496">
        <ele>668.4</ele>
        <time>2021-03-27T14:22:25Z</time>
      </trkpt>
      <trkpt lat="46.01149" lon="6.17496">
        <ele>668.4</ele>
        <time>2021-03-27T14:22:26Z</time>
      </trkpt>
      <trkpt lat="46.01149" lon="6.17496">
        <ele>668.4</ele>
        <time>2021-03-27T14:22:27Z</time>
      </trkpt>
      <trkpt lat="46.01149" lon="6.17496">
        <ele>668.4</ele>
        <time>2021-03-27T14:22:28Z</time>
      </trkpt>
      <trkpt lat="46.01149" lon="6.17496">
        <ele>668.4</ele>
        <time>2021-03-27T14:22:29Z</time>
      </trkpt>
      <trkpt lat="46.01149" lon="6.17496">
        <ele>668.4</ele>
        <time>2021-03-27T14:22:30Z</time>
      </trkpt>
      <trkpt lat="46.01149" lon="6.17497">
        <ele>668.4</ele>
        <time>2021-03-27T14:22:32Z</time>
      </trkpt>
      <trkpt lat="46.01149" lon="6.17497">
        <ele>668.4</ele>
        <time>2021-03-27T14:22:33Z</time>
      </trkpt>
      <trkpt lat="46.01149" lon="6.17497">
        <ele>668.4</ele>
        <time>2021-03-27T14:22:34Z</time>
      </trkpt>
      <trkpt lat="46.01149" lon="6.17497">
        <ele>668.4</ele>
        <time>2021-03-27T14:22:35Z</time>
      </trkpt>
      <trkpt lat="46.01149" lon="6.17497">
        <ele>668.2</ele>
        <time>2021-03-27T14:22:36Z</time>
      </trkpt>
      <trkpt lat="46.01149" lon="6.17497">
        <ele>668.4</ele>
        <time>2021-03-27T14:22:37Z</time>
      </trkpt>
      <trkpt lat="46.01149" lon="6.17497">
        <ele>668.2</ele>
        <time>2021-03-27T14:22:38Z</time>
      </trkpt>
      <trkpt lat="46.01149" lon="6.17497">
        <ele>668.4</ele>
        <time>2021-03-27T14:22:40Z</time>
      </trkpt>
      <trkpt lat="46.01149" lon="6.17498">
        <ele>668.4</ele>
        <time>2021-03-27T14:22:41Z</time>
      </trkpt>
      <trkpt lat="46.01149" lon="6.17498">
        <ele>668.4</ele>
        <time>2021-03-27T14:22:42Z</time>
      </trkpt>
      <trkpt lat="46.01149" lon="6.17497">
        <ele>668.2</ele>
        <time>2021-03-27T14:22:43Z</time>
      </trkpt>
      <trkpt lat="46.01148" lon="6.17496">
        <ele>668.2</ele>
        <time>2021-03-27T14:22:44Z</time>
      </trkpt>
      <trkpt lat="46.01147" lon="6.17495">
        <ele>668.4</ele>
        <time>2021-03-27T14:22:45Z</time>
      </trkpt>
      <trkpt lat="46.01147" lon="6.17493">
        <ele>668.2</ele>
        <time>2021-03-27T14:22:46Z</time>
      </trkpt>
      <trkpt lat="46.01145" lon="6.17492">
        <ele>668.4</ele>
        <time>2021-03-27T14:22:47Z</time>
      </trkpt>
      <trkpt lat="46.01144" lon="6.1749">
        <ele>668.2</ele>
        <time>2021-03-27T14:22:48Z</time>
      </trkpt>
      <trkpt lat="46.01142" lon="6.17488">
        <ele>668.2</ele>
        <time>2021-03-27T14:22:49Z</time>
      </trkpt>
      <trkpt lat="46.0114" lon="6.17485">
        <ele>668.2</ele>
        <time>2021-03-27T14:22:50Z</time>
      </trkpt>
      <trkpt lat="46.01138" lon="6.17483">
        <ele>668.4</ele>
        <time>2021-03-27T14:22:51Z</time>
      </trkpt>
      <trkpt lat="46.01135" lon="6.1748">
        <ele>668.2</ele>
        <time>2021-03-27T14:22:52Z</time>
      </trkpt>
      <trkpt lat="46.01133" lon="6.17476">
        <ele>668.2</ele>
        <time>2021-03-27T14:22:53Z</time>
      </trkpt>
      <trkpt lat="46.0113" lon="6.17473">
        <ele>668.2</ele>
        <time>2021-03-27T14:22:54Z</time>
      </trkpt>
      <trkpt lat="46.01128" lon="6.1747">
        <ele>668.2</ele>
        <time>2021-03-27T14:22:55Z</time>
      </trkpt>
      <trkpt lat="46.01125" lon="6.17467">
        <ele>668.2</ele>
        <time>2021-03-27T14:22:56Z</time>
      </trkpt>
      <trkpt lat="46.01123" lon="6.17463">
        <ele>668.2</ele>
        <time>2021-03-27T14:22:57Z</time>
      </trkpt>
      <trkpt lat="46.0112" lon="6.1746">
        <ele>668.4</ele>
        <time>2021-03-27T14:22:58Z</time>
      </trkpt>
      <trkpt lat="46.01118" lon="6.17457">
        <ele>668.4</ele>
        <time>2021-03-27T14:22:59Z</time>
      </trkpt>
      <trkpt lat="46.01115" lon="6.17454">
        <ele>668.6</ele>
        <time>2021-03-27T14:23:00Z</time>
      </trkpt>
      <trkpt lat="46.01112" lon="6.1745">
        <ele>668.8</ele>
        <time>2021-03-27T14:23:01Z</time>
      </trkpt>
      <trkpt lat="46.01109" lon="6.17446">
        <ele>669</ele>
        <time>2021-03-27T14:23:02Z</time>
      </trkpt>
      <trkpt lat="46.01107" lon="6.17443">
        <ele>669.2</ele>
        <time>2021-03-27T14:23:03Z</time>
      </trkpt>
      <trkpt lat="46.01104" lon="6.17439">
        <ele>669.2</ele>
        <time>2021-03-27T14:23:04Z</time>
      </trkpt>
      <trkpt lat="46.01101" lon="6.17435">
        <ele>669.6</ele>
        <time>2021-03-27T14:23:05Z</time>
      </trkpt>
      <trkpt lat="46.01098" lon="6.17432">
        <ele>669.8</ele>
        <time>2021-03-27T14:23:06Z</time>
      </trkpt>
      <trkpt lat="46.01096" lon="6.17428">
        <ele>670</ele>
        <time>2021-03-27T14:23:07Z</time>
      </trkpt>
      <trkpt lat="46.01093" lon="6.17424">
        <ele>670.4</ele>
        <time>2021-03-27T14:23:08Z</time>
      </trkpt>
      <trkpt lat="46.0109" lon="6.1742">
        <ele>670.6</ele>
        <time>2021-03-27T14:23:09Z</time>
      </trkpt>
      <trkpt lat="46.01087" lon="6.17416">
        <ele>670.6</ele>
        <time>2021-03-27T14:23:10Z</time>
      </trkpt>
      <trkpt lat="46.01085" lon="6.17412">
        <ele>671</ele>
        <time>2021-03-27T14:23:11Z</time>
      </trkpt>
      <trkpt lat="46.01082" lon="6.17408">
        <ele>671</ele>
        <time>2021-03-27T14:23:12Z</time>
      </trkpt>
      <trkpt lat="46.0108" lon="6.17405">
        <ele>671</ele>
        <time>2021-03-27T14:23:13Z</time>
      </trkpt>
      <trkpt lat="46.01077" lon="6.17401">
        <ele>671.4</ele>
        <time>2021-03-27T14:23:14Z</time>
      </trkpt>
      <trkpt lat="46.01074" lon="6.17397">
        <ele>671.8</ele>
        <time>2021-03-27T14:23:15Z</time>
      </trkpt>
      <trkpt lat="46.01071" lon="6.17394">
        <ele>672.2</ele>
        <time>2021-03-27T14:23:16Z</time>
      </trkpt>
      <trkpt lat="46.01068" lon="6.1739">
        <ele>672.4</ele>
        <time>2021-03-27T14:23:17Z</time>
      </trkpt>
      <trkpt lat="46.01065" lon="6.17387">
        <ele>672.6</ele>
        <time>2021-03-27T14:23:18Z</time>
      </trkpt>
      <trkpt lat="46.01063" lon="6.17383">
        <ele>672.6</ele>
        <time>2021-03-27T14:23:19Z</time>
      </trkpt>
      <trkpt lat="46.0106" lon="6.1738">
        <ele>672.8</ele>
        <time>2021-03-27T14:23:20Z</time>
      </trkpt>
      <trkpt lat="46.01057" lon="6.17376">
        <ele>673.2</ele>
        <time>2021-03-27T14:23:21Z</time>
      </trkpt>
      <trkpt lat="46.01054" lon="6.17372">
        <ele>673.2</ele>
        <time>2021-03-27T14:23:22Z</time>
      </trkpt>
      <trkpt lat="46.01051" lon="6.17368">
        <ele>673.6</ele>
        <time>2021-03-27T14:23:23Z</time>
      </trkpt>
      <trkpt lat="46.01049" lon="6.17365">
        <ele>673.6</ele>
        <time>2021-03-27T14:23:24Z</time>
      </trkpt>
      <trkpt lat="46.01046" lon="6.17361">
        <ele>673.8</ele>
        <time>2021-03-27T14:23:25Z</time>
      </trkpt>
      <trkpt lat="46.01044" lon="6.17357">
        <ele>674.2</ele>
        <time>2021-03-27T14:23:26Z</time>
      </trkpt>
      <trkpt lat="46.01041" lon="6.17354">
        <ele>674.4</ele>
        <time>2021-03-27T14:23:27Z</time>
      </trkpt>
      <trkpt lat="46.01038" lon="6.1735">
        <ele>674.4</ele>
        <time>2021-03-27T14:23:28Z</time>
      </trkpt>
      <trkpt lat="46.01035" lon="6.17347">
        <ele>674.8</ele>
        <time>2021-03-27T14:23:29Z</time>
      </trkpt>
      <trkpt lat="46.01032" lon="6.17344">
        <ele>675</ele>
        <time>2021-03-27T14:23:30Z</time>
      </trkpt>
      <trkpt lat="46.0103" lon="6.1734">
        <ele>675.4</ele>
        <time>2021-03-27T14:23:31Z</time>
      </trkpt>
      <trkpt lat="46.01027" lon="6.17336">
        <ele>675.6</ele>
        <time>2021-03-27T14:23:32Z</time>
      </trkpt>
      <trkpt lat="46.01024" lon="6.17332">
        <ele>675.8</ele>
        <time>2021-03-27T14:23:33Z</time>
      </trkpt>
      <trkpt lat="46.01022" lon="6.17329">
        <ele>676</ele>
        <time>2021-03-27T14:23:34Z</time>
      </trkpt>
      <trkpt lat="46.01019" lon="6.17325">
        <ele>676.2</ele>
        <time>2021-03-27T14:23:35Z</time>
      </trkpt>
      <trkpt lat="46.01016" lon="6.17321">
        <ele>676.6</ele>
        <time>2021-03-27T14:23:36Z</time>
      </trkpt>
      <trkpt lat="46.01013" lon="6.17318">
        <ele>676.8</ele>
        <time>2021-03-27T14:23:37Z</time>
      </trkpt>
      <trkpt lat="46.0101" lon="6.17314">
        <ele>677</ele>
        <time>2021-03-27T14:23:38Z</time>
      </trkpt>
      <trkpt lat="46.01007" lon="6.1731">
        <ele>677</ele>
        <time>2021-03-27T14:23:39Z</time>
      </trkpt>
      <trkpt lat="46.01004" lon="6.17306">
        <ele>677.2</ele>
        <time>2021-03-27T14:23:40Z</time>
      </trkpt>
      <trkpt lat="46.01002" lon="6.17302">
        <ele>677.4</ele>
        <time>2021-03-27T14:23:41Z</time>
      </trkpt>
      <trkpt lat="46.00999" lon="6.17298">
        <ele>677.6</ele>
        <time>2021-03-27T14:23:42Z</time>
      </trkpt>
      <trkpt lat="46.00997" lon="6.17294">
        <ele>677.8</ele>
        <time>2021-03-27T14:23:43Z</time>
      </trkpt>
      <trkpt lat="46.00994" lon="6.1729">
        <ele>678.2</ele>
        <time>2021-03-27T14:23:44Z</time>
      </trkpt>
      <trkpt lat="46.00992" lon="6.17286">
        <ele>678.4</ele>
        <time>2021-03-27T14:23:45Z</time>
      </trkpt>
      <trkpt lat="46.0099" lon="6.17281">
        <ele>678.4</ele>
        <time>2021-03-27T14:23:46Z</time>
      </trkpt>
      <trkpt lat="46.00988" lon="6.17277">
        <ele>678.6</ele>
        <time>2021-03-27T14:23:47Z</time>
      </trkpt>
      <trkpt lat="46.00986" lon="6.17273">
        <ele>679</ele>
        <time>2021-03-27T14:23:48Z</time>
      </trkpt>
      <trkpt lat="46.00984" lon="6.17268">
        <ele>679.2</ele>
        <time>2021-03-27T14:23:49Z</time>
      </trkpt>
      <trkpt lat="46.00982" lon="6.17264">
        <ele>679.2</ele>
        <time>2021-03-27T14:23:50Z</time>
      </trkpt>
      <trkpt lat="46.00981" lon="6.17259">
        <ele>679.4</ele>
        <time>2021-03-27T14:23:51Z</time>
      </trkpt>
      <trkpt lat="46.00979" lon="6.17254">
        <ele>679.4</ele>
        <time>2021-03-27T14:23:52Z</time>
      </trkpt>
      <trkpt lat="46.00977" lon="6.17249">
        <ele>679.6</ele>
        <time>2021-03-27T14:23:53Z</time>
      </trkpt>
      <trkpt lat="46.00975" lon="6.17244">
        <ele>679.6</ele>
        <time>2021-03-27T14:23:54Z</time>
      </trkpt>
      <trkpt lat="46.00973" lon="6.17239">
        <ele>679.8</ele>
        <time>2021-03-27T14:23:55Z</time>
      </trkpt>
      <trkpt lat="46.00972" lon="6.17234">
        <ele>680</ele>
        <time>2021-03-27T14:23:56Z</time>
      </trkpt>
      <trkpt lat="46.0097" lon="6.17229">
        <ele>680</ele>
        <time>2021-03-27T14:23:57Z</time>
      </trkpt>
      <trkpt lat="46.00969" lon="6.17224">
        <ele>680.2</ele>
        <time>2021-03-27T14:23:58Z</time>
      </trkpt>
      <trkpt lat="46.00967" lon="6.17219">
        <ele>680.6</ele>
        <time>2021-03-27T14:23:59Z</time>
      </trkpt>
      <trkpt lat="46.00966" lon="6.17213">
        <ele>680.8</ele>
        <time>2021-03-27T14:24:00Z</time>
      </trkpt>
      <trkpt lat="46.00964" lon="6.17208">
        <ele>681</ele>
        <time>2021-03-27T14:24:01Z</time>
      </trkpt>
      <trkpt lat="46.00962" lon="6.17202">
        <ele>681.4</ele>
        <time>2021-03-27T14:24:02Z</time>
      </trkpt>
      <trkpt lat="46.00961" lon="6.17197">
        <ele>681.6</ele>
        <time>2021-03-27T14:24:03Z</time>
      </trkpt>
      <trkpt lat="46.0096" lon="6.17192">
        <ele>681.8</ele>
        <time>2021-03-27T14:24:04Z</time>
      </trkpt>
      <trkpt lat="46.00959" lon="6.17186">
        <ele>682</ele>
        <time>2021-03-27T14:24:05Z</time>
      </trkpt>
      <trkpt lat="46.00958" lon="6.17181">
        <ele>682.2</ele>
        <time>2021-03-27T14:24:06Z</time>
      </trkpt>
      <trkpt lat="46.00957" lon="6.17175">
        <ele>682.6</ele>
        <time>2021-03-27T14:24:07Z</time>
      </trkpt>
      <trkpt lat="46.00956" lon="6.17169">
        <ele>682.8</ele>
        <time>2021-03-27T14:24:08Z</time>
      </trkpt>
      <trkpt lat="46.00956" lon="6.17163">
        <ele>683</ele>
        <time>2021-03-27T14:24:09Z</time>
      </trkpt>
      <trkpt lat="46.00955" lon="6.17157">
        <ele>683</ele>
        <time>2021-03-27T14:24:10Z</time>
      </trkpt>
      <trkpt lat="46.00954" lon="6.17151">
        <ele>683</ele>
        <time>2021-03-27T14:24:11Z</time>
      </trkpt>
      <trkpt lat="46.00953" lon="6.17144">
        <ele>683.2</ele>
        <time>2021-03-27T14:24:12Z</time>
      </trkpt>
      <trkpt lat="46.00953" lon="6.17137">
        <ele>683.2</ele>
        <time>2021-03-27T14:24:13Z</time>
      </trkpt>
      <trkpt lat="46.00953" lon="6.17131">
        <ele>683.4</ele>
        <time>2021-03-27T14:24:14Z</time>
      </trkpt>
      <trkpt lat="46.00953" lon="6.17124">
        <ele>683.4</ele>
        <time>2021-03-27T14:24:15Z</time>
      </trkpt>
      <trkpt lat="46.00953" lon="6.17118">
        <ele>683.4</ele>
        <time>2021-03-27T14:24:16Z</time>
      </trkpt>
      <trkpt lat="46.00953" lon="6.17111">
        <ele>683.6</ele>
        <time>2021-03-27T14:24:17Z</time>
      </trkpt>
      <trkpt lat="46.00952" lon="6.17104">
        <ele>683.4</ele>
        <time>2021-03-27T14:24:18Z</time>
      </trkpt>
      <trkpt lat="46.00952" lon="6.17096">
        <ele>683.6</ele>
        <time>2021-03-27T14:24:19Z</time>
      </trkpt>
      <trkpt lat="46.00952" lon="6.17089">
        <ele>683.6</ele>
        <time>2021-03-27T14:24:20Z</time>
      </trkpt>
      <trkpt lat="46.00952" lon="6.17082">
        <ele>683.6</ele>
        <time>2021-03-27T14:24:21Z</time>
      </trkpt>
      <trkpt lat="46.00952" lon="6.17075">
        <ele>683.8</ele>
        <time>2021-03-27T14:24:22Z</time>
      </trkpt>
      <trkpt lat="46.00951" lon="6.17067">
        <ele>683.6</ele>
        <time>2021-03-27T14:24:23Z</time>
      </trkpt>
      <trkpt lat="46.00951" lon="6.1706">
        <ele>683.6</ele>
        <time>2021-03-27T14:24:24Z</time>
      </trkpt>
      <trkpt lat="46.00951" lon="6.17053">
        <ele>683.6</ele>
        <time>2021-03-27T14:24:25Z</time>
      </trkpt>
      <trkpt lat="46.00953" lon="6.17046">
        <ele>683.8</ele>
        <time>2021-03-27T14:24:26Z</time>
      </trkpt>
      <trkpt lat="46.00955" lon="6.1704">
        <ele>683.8</ele>
        <time>2021-03-27T14:24:27Z</time>
      </trkpt>
      <trkpt lat="46.00958" lon="6.17035">
        <ele>683.6</ele>
        <time>2021-03-27T14:24:28Z</time>
      </trkpt>
      <trkpt lat="46.00961" lon="6.17032">
        <ele>683.8</ele>
        <time>2021-03-27T14:24:29Z</time>
      </trkpt>
      <trkpt lat="46.00965" lon="6.1703">
        <ele>683.8</ele>
        <time>2021-03-27T14:24:30Z</time>
      </trkpt>
      <trkpt lat="46.00969" lon="6.17029">
        <ele>683.8</ele>
        <time>2021-03-27T14:24:31Z</time>
      </trkpt>
      <trkpt lat="46.00972" lon="6.17028">
        <ele>683.8</ele>
        <time>2021-03-27T14:24:32Z</time>
      </trkpt>
      <trkpt lat="46.00975" lon="6.17028">
        <ele>683.8</ele>
        <time>2021-03-27T14:24:33Z</time>
      </trkpt>
      <trkpt lat="46.00979" lon="6.17028">
        <ele>683.8</ele>
        <time>2021-03-27T14:24:34Z</time>
      </trkpt>
      <trkpt lat="46.00983" lon="6.17027">
        <ele>683.8</ele>
        <time>2021-03-27T14:24:35Z</time>
      </trkpt>
      <trkpt lat="46.00986" lon="6.17026">
        <ele>683.8</ele>
        <time>2021-03-27T14:24:36Z</time>
      </trkpt>
      <trkpt lat="46.0099" lon="6.17024">
        <ele>683.8</ele>
        <time>2021-03-27T14:24:37Z</time>
      </trkpt>
      <trkpt lat="46.00993" lon="6.17021">
        <ele>684</ele>
        <time>2021-03-27T14:24:38Z</time>
      </trkpt>
      <trkpt lat="46.00996" lon="6.17017">
        <ele>684.2</ele>
        <time>2021-03-27T14:24:39Z</time>
      </trkpt>
      <trkpt lat="46.00998" lon="6.17012">
        <ele>684.2</ele>
        <time>2021-03-27T14:24:40Z</time>
      </trkpt>
      <trkpt lat="46.00997" lon="6.17006">
        <ele>684.4</ele>
        <time>2021-03-27T14:24:41Z</time>
      </trkpt>
      <trkpt lat="46.00997" lon="6.17">
        <ele>684.4</ele>
        <time>2021-03-27T14:24:42Z</time>
      </trkpt>
      <trkpt lat="46.00997" lon="6.16994">
        <ele>684.6</ele>
        <time>2021-03-27T14:24:43Z</time>
      </trkpt>
      <trkpt lat="46.00997" lon="6.16988">
        <ele>684.8</ele>
        <time>2021-03-27T14:24:44Z</time>
      </trkpt>
      <trkpt lat="46.00997" lon="6.1698">
        <ele>685</ele>
        <time>2021-03-27T14:24:45Z</time>
      </trkpt>
      <trkpt lat="46.00998" lon="6.16972">
        <ele>685.2</ele>
        <time>2021-03-27T14:24:46Z</time>
      </trkpt>
      <trkpt lat="46.01" lon="6.16964">
        <ele>685</ele>
        <time>2021-03-27T14:24:47Z</time>
      </trkpt>
      <trkpt lat="46.01003" lon="6.16957">
        <ele>685</ele>
        <time>2021-03-27T14:24:48Z</time>
      </trkpt>
      <trkpt lat="46.01007" lon="6.16951">
        <ele>685</ele>
        <time>2021-03-27T14:24:49Z</time>
      </trkpt>
      <trkpt lat="46.01012" lon="6.16946">
        <ele>685</ele>
        <time>2021-03-27T14:24:50Z</time>
      </trkpt>
      <trkpt lat="46.01017" lon="6.16942">
        <ele>685</ele>
        <time>2021-03-27T14:24:51Z</time>
      </trkpt>
      <trkpt lat="46.01022" lon="6.16937">
        <ele>685</ele>
        <time>2021-03-27T14:24:52Z</time>
      </trkpt>
      <trkpt lat="46.01028" lon="6.16933">
        <ele>685</ele>
        <time>2021-03-27T14:24:53Z</time>
      </trkpt>
      <trkpt lat="46.01033" lon="6.16928">
        <ele>684.8</ele>
        <time>2021-03-27T14:24:54Z</time>
      </trkpt>
      <trkpt lat="46.01037" lon="6.16923">
        <ele>684.6</ele>
        <time>2021-03-27T14:24:55Z</time>
      </trkpt>
      <trkpt lat="46.01043" lon="6.16918">
        <ele>684.4</ele>
        <time>2021-03-27T14:24:56Z</time>
      </trkpt>
      <trkpt lat="46.01048" lon="6.16914">
        <ele>684.4</ele>
        <time>2021-03-27T14:24:57Z</time>
      </trkpt>
      <trkpt lat="46.01053" lon="6.16909">
        <ele>684.4</ele>
        <time>2021-03-27T14:24:58Z</time>
      </trkpt>
      <trkpt lat="46.01059" lon="6.16904">
        <ele>684.4</ele>
        <time>2021-03-27T14:24:59Z</time>
      </trkpt>
      <trkpt lat="46.01064" lon="6.169">
        <ele>684.4</ele>
        <time>2021-03-27T14:25:00Z</time>
      </trkpt>
      <trkpt lat="46.0107" lon="6.16895">
        <ele>684.4</ele>
        <time>2021-03-27T14:25:01Z</time>
      </trkpt>
      <trkpt lat="46.01075" lon="6.1689">
        <ele>684.2</ele>
        <time>2021-03-27T14:25:02Z</time>
      </trkpt>
      <trkpt lat="46.0108" lon="6.16886">
        <ele>684.2</ele>
        <time>2021-03-27T14:25:03Z</time>
      </trkpt>
      <trkpt lat="46.01085" lon="6.16882">
        <ele>684.2</ele>
        <time>2021-03-27T14:25:04Z</time>
      </trkpt>
      <trkpt lat="46.01091" lon="6.16878">
        <ele>684.4</ele>
        <time>2021-03-27T14:25:05Z</time>
      </trkpt>
      <trkpt lat="46.01096" lon="6.16874">
        <ele>684.4</ele>
        <time>2021-03-27T14:25:06Z</time>
      </trkpt>
      <trkpt lat="46.01101" lon="6.1687">
        <ele>684.6</ele>
        <time>2021-03-27T14:25:07Z</time>
      </trkpt>
      <trkpt lat="46.01106" lon="6.16866">
        <ele>684.6</ele>
        <time>2021-03-27T14:25:08Z</time>
      </trkpt>
      <trkpt lat="46.01111" lon="6.16862">
        <ele>684.6</ele>
        <time>2021-03-27T14:25:09Z</time>
      </trkpt>
      <trkpt lat="46.01116" lon="6.16858">
        <ele>684.6</ele>
        <time>2021-03-27T14:25:10Z</time>
      </trkpt>
      <trkpt lat="46.01121" lon="6.16854">
        <ele>684.8</ele>
        <time>2021-03-27T14:25:11Z</time>
      </trkpt>
      <trkpt lat="46.01125" lon="6.16851">
        <ele>684.8</ele>
        <time>2021-03-27T14:25:12Z</time>
      </trkpt>
      <trkpt lat="46.0113" lon="6.16848">
        <ele>685</ele>
        <time>2021-03-27T14:25:13Z</time>
      </trkpt>
      <trkpt lat="46.01134" lon="6.16844">
        <ele>685</ele>
        <time>2021-03-27T14:25:14Z</time>
      </trkpt>
      <trkpt lat="46.01139" lon="6.16841">
        <ele>685</ele>
        <time>2021-03-27T14:25:15Z</time>
      </trkpt>
      <trkpt lat="46.01143" lon="6.16837">
        <ele>685</ele>
        <time>2021-03-27T14:25:16Z</time>
      </trkpt>
      <trkpt lat="46.01148" lon="6.16834">
        <ele>685.2</ele>
        <time>2021-03-27T14:25:17Z</time>
      </trkpt>
      <trkpt lat="46.01153" lon="6.1683">
        <ele>685.2</ele>
        <time>2021-03-27T14:25:18Z</time>
      </trkpt>
      <trkpt lat="46.01157" lon="6.16826">
        <ele>685.4</ele>
        <time>2021-03-27T14:25:19Z</time>
      </trkpt>
      <trkpt lat="46.01162" lon="6.16823">
        <ele>685.4</ele>
        <time>2021-03-27T14:25:20Z</time>
      </trkpt>
      <trkpt lat="46.01167" lon="6.16819">
        <ele>685.4</ele>
        <time>2021-03-27T14:25:21Z</time>
      </trkpt>
      <trkpt lat="46.01171" lon="6.16814">
        <ele>685.6</ele>
        <time>2021-03-27T14:25:22Z</time>
      </trkpt>
      <trkpt lat="46.01175" lon="6.16809">
        <ele>685.6</ele>
        <time>2021-03-27T14:25:23Z</time>
      </trkpt>
      <trkpt lat="46.01179" lon="6.16803">
        <ele>685.8</ele>
        <time>2021-03-27T14:25:24Z</time>
      </trkpt>
      <trkpt lat="46.01182" lon="6.16797">
        <ele>685.6</ele>
        <time>2021-03-27T14:25:25Z</time>
      </trkpt>
      <trkpt lat="46.01186" lon="6.1679">
        <ele>685.8</ele>
        <time>2021-03-27T14:25:26Z</time>
      </trkpt>
      <trkpt lat="46.01189" lon="6.16784">
        <ele>685.8</ele>
        <time>2021-03-27T14:25:27Z</time>
      </trkpt>
      <trkpt lat="46.01193" lon="6.16777">
        <ele>686</ele>
        <time>2021-03-27T14:25:28Z</time>
      </trkpt>
      <trkpt lat="46.01196" lon="6.16771">
        <ele>686.2</ele>
        <time>2021-03-27T14:25:29Z</time>
      </trkpt>
      <trkpt lat="46.012" lon="6.16764">
        <ele>686.4</ele>
        <time>2021-03-27T14:25:30Z</time>
      </trkpt>
      <trkpt lat="46.01202" lon="6.16757">
        <ele>686.4</ele>
        <time>2021-03-27T14:25:31Z</time>
      </trkpt>
      <trkpt lat="46.01205" lon="6.1675">
        <ele>686.4</ele>
        <time>2021-03-27T14:25:32Z</time>
      </trkpt>
      <trkpt lat="46.01208" lon="6.16743">
        <ele>686.4</ele>
        <time>2021-03-27T14:25:33Z</time>
      </trkpt>
      <trkpt lat="46.0121" lon="6.16735">
        <ele>686.8</ele>
        <time>2021-03-27T14:25:34Z</time>
      </trkpt>
      <trkpt lat="46.01212" lon="6.16728">
        <ele>686.8</ele>
        <time>2021-03-27T14:25:35Z</time>
      </trkpt>
      <trkpt lat="46.01214" lon="6.16721">
        <ele>686.8</ele>
        <time>2021-03-27T14:25:36Z</time>
      </trkpt>
      <trkpt lat="46.01217" lon="6.16713">
        <ele>686.8</ele>
        <time>2021-03-27T14:25:37Z</time>
      </trkpt>
      <trkpt lat="46.01219" lon="6.16706">
        <ele>686.8</ele>
        <time>2021-03-27T14:25:38Z</time>
      </trkpt>
      <trkpt lat="46.01221" lon="6.16699">
        <ele>687</ele>
        <time>2021-03-27T14:25:39Z</time>
      </trkpt>
      <trkpt lat="46.01223" lon="6.16691">
        <ele>687</ele>
        <time>2021-03-27T14:25:40Z</time>
      </trkpt>
      <trkpt lat="46.01225" lon="6.16684">
        <ele>687.2</ele>
        <time>2021-03-27T14:25:41Z</time>
      </trkpt>
      <trkpt lat="46.01227" lon="6.16677">
        <ele>687.2</ele>
        <time>2021-03-27T14:25:42Z</time>
      </trkpt>
      <trkpt lat="46.01229" lon="6.16669">
        <ele>687.4</ele>
        <time>2021-03-27T14:25:43Z</time>
      </trkpt>
      <trkpt lat="46.01231" lon="6.16662">
        <ele>687.4</ele>
        <time>2021-03-27T14:25:44Z</time>
      </trkpt>
      <trkpt lat="46.01233" lon="6.16654">
        <ele>687.4</ele>
        <time>2021-03-27T14:25:45Z</time>
      </trkpt>
      <trkpt lat="46.01235" lon="6.16646">
        <ele>687.2</ele>
        <time>2021-03-27T14:25:46Z</time>
      </trkpt>
      <trkpt lat="46.01237" lon="6.16639">
        <ele>687.4</ele>
        <time>2021-03-27T14:25:47Z</time>
      </trkpt>
      <trkpt lat="46.0124" lon="6.16631">
        <ele>687.6</ele>
        <time>2021-03-27T14:25:48Z</time>
      </trkpt>
      <trkpt lat="46.01242" lon="6.16623">
        <ele>687.6</ele>
        <time>2021-03-27T14:25:49Z</time>
      </trkpt>
      <trkpt lat="46.01244" lon="6.16615">
        <ele>687.6</ele>
        <time>2021-03-27T14:25:50Z</time>
      </trkpt>
      <trkpt lat="46.01246" lon="6.16608">
        <ele>687.6</ele>
        <time>2021-03-27T14:25:51Z</time>
      </trkpt>
      <trkpt lat="46.0125" lon="6.16594">
        <ele>687.6</ele>
        <time>2021-03-27T14:25:53Z</time>
      </trkpt>
      <trkpt lat="46.01252" lon="6.16587">
        <ele>687.6</ele>
        <time>2021-03-27T14:25:54Z</time>
      </trkpt>
      <trkpt lat="46.01254" lon="6.16579">
        <ele>687.6</ele>
        <time>2021-03-27T14:25:55Z</time>
      </trkpt>
      <trkpt lat="46.01257" lon="6.16572">
        <ele>687.8</ele>
        <time>2021-03-27T14:25:56Z</time>
      </trkpt>
      <trkpt lat="46.01259" lon="6.16565">
        <ele>687.6</ele>
        <time>2021-03-27T14:25:57Z</time>
      </trkpt>
      <trkpt lat="46.01262" lon="6.16557">
        <ele>687.6</ele>
        <time>2021-03-27T14:25:58Z</time>
      </trkpt>
      <trkpt lat="46.01265" lon="6.1655">
        <ele>687.8</ele>
        <time>2021-03-27T14:25:59Z</time>
      </trkpt>
      <trkpt lat="46.01268" lon="6.16542">
        <ele>687.8</ele>
        <time>2021-03-27T14:26:00Z</time>
      </trkpt>
      <trkpt lat="46.01271" lon="6.16534">
        <ele>687.8</ele>
        <time>2021-03-27T14:26:01Z</time>
      </trkpt>
      <trkpt lat="46.01274" lon="6.16526">
        <ele>688</ele>
        <time>2021-03-27T14:26:02Z</time>
      </trkpt>
      <trkpt lat="46.01277" lon="6.16518">
        <ele>688</ele>
        <time>2021-03-27T14:26:03Z</time>
      </trkpt>
      <trkpt lat="46.0128" lon="6.1651">
        <ele>688</ele>
        <time>2021-03-27T14:26:04Z</time>
      </trkpt>
      <trkpt lat="46.01284" lon="6.16501">
        <ele>688</ele>
        <time>2021-03-27T14:26:05Z</time>
      </trkpt>
      <trkpt lat="46.01287" lon="6.16492">
        <ele>687.8</ele>
        <time>2021-03-27T14:26:06Z</time>
      </trkpt>
      <trkpt lat="46.01291" lon="6.16484">
        <ele>688</ele>
        <time>2021-03-27T14:26:07Z</time>
      </trkpt>
      <trkpt lat="46.01294" lon="6.16475">
        <ele>687.8</ele>
        <time>2021-03-27T14:26:08Z</time>
      </trkpt>
      <trkpt lat="46.01297" lon="6.16466">
        <ele>687.6</ele>
        <time>2021-03-27T14:26:09Z</time>
      </trkpt>
      <trkpt lat="46.01301" lon="6.16456">
        <ele>687.4</ele>
        <time>2021-03-27T14:26:10Z</time>
      </trkpt>
      <trkpt lat="46.01304" lon="6.16447">
        <ele>687.2</ele>
        <time>2021-03-27T14:26:11Z</time>
      </trkpt>
      <trkpt lat="46.01307" lon="6.16437">
        <ele>687.2</ele>
        <time>2021-03-27T14:26:12Z</time>
      </trkpt>
      <trkpt lat="46.0131" lon="6.16427">
        <ele>687.2</ele>
        <time>2021-03-27T14:26:13Z</time>
      </trkpt>
      <trkpt lat="46.01313" lon="6.16417">
        <ele>687</ele>
        <time>2021-03-27T14:26:14Z</time>
      </trkpt>
      <trkpt lat="46.01315" lon="6.16407">
        <ele>686.8</ele>
        <time>2021-03-27T14:26:15Z</time>
      </trkpt>
      <trkpt lat="46.01318" lon="6.16396">
        <ele>686.6</ele>
        <time>2021-03-27T14:26:16Z</time>
      </trkpt>
      <trkpt lat="46.01321" lon="6.16385">
        <ele>686.4</ele>
        <time>2021-03-27T14:26:17Z</time>
      </trkpt>
      <trkpt lat="46.01323" lon="6.16373">
        <ele>686</ele>
        <time>2021-03-27T14:26:18Z</time>
      </trkpt>
      <trkpt lat="46.01326" lon="6.16361">
        <ele>685.6</ele>
        <time>2021-03-27T14:26:19Z</time>
      </trkpt>
      <trkpt lat="46.01328" lon="6.16349">
        <ele>685</ele>
        <time>2021-03-27T14:26:20Z</time>
      </trkpt>
      <trkpt lat="46.0133" lon="6.16337">
        <ele>685</ele>
        <time>2021-03-27T14:26:21Z</time>
      </trkpt>
      <trkpt lat="46.01332" lon="6.16324">
        <ele>684.8</ele>
        <time>2021-03-27T14:26:22Z</time>
      </trkpt>
      <trkpt lat="46.01334" lon="6.16312">
        <ele>684.6</ele>
        <time>2021-03-27T14:26:23Z</time>
      </trkpt>
      <trkpt lat="46.01336" lon="6.16299">
        <ele>684.6</ele>
        <time>2021-03-27T14:26:24Z</time>
      </trkpt>
      <trkpt lat="46.01338" lon="6.16286">
        <ele>684</ele>
        <time>2021-03-27T14:26:25Z</time>
      </trkpt>
      <trkpt lat="46.01341" lon="6.16274">
        <ele>683.4</ele>
        <time>2021-03-27T14:26:26Z</time>
      </trkpt>
      <trkpt lat="46.01343" lon="6.16261">
        <ele>683.2</ele>
        <time>2021-03-27T14:26:27Z</time>
      </trkpt>
      <trkpt lat="46.01345" lon="6.16248">
        <ele>682.2</ele>
        <time>2021-03-27T14:26:28Z</time>
      </trkpt>
      <trkpt lat="46.01348" lon="6.16235">
        <ele>681.4</ele>
        <time>2021-03-27T14:26:29Z</time>
      </trkpt>
      <trkpt lat="46.0135" lon="6.16222">
        <ele>681</ele>
        <time>2021-03-27T14:26:30Z</time>
      </trkpt>
      <trkpt lat="46.01352" lon="6.16209">
        <ele>680.4</ele>
        <time>2021-03-27T14:26:31Z</time>
      </trkpt>
      <trkpt lat="46.01355" lon="6.16196">
        <ele>680.2</ele>
        <time>2021-03-27T14:26:32Z</time>
      </trkpt>
      <trkpt lat="46.01357" lon="6.16183">
        <ele>679.6</ele>
        <time>2021-03-27T14:26:33Z</time>
      </trkpt>
      <trkpt lat="46.01359" lon="6.1617">
        <ele>679</ele>
        <time>2021-03-27T14:26:34Z</time>
      </trkpt>
      <trkpt lat="46.01362" lon="6.16157">
        <ele>678.6</ele>
        <time>2021-03-27T14:26:35Z</time>
      </trkpt>
      <trkpt lat="46.01364" lon="6.16144">
        <ele>678.2</ele>
        <time>2021-03-27T14:26:36Z</time>
      </trkpt>
      <trkpt lat="46.01367" lon="6.16131">
        <ele>677.6</ele>
        <time>2021-03-27T14:26:37Z</time>
      </trkpt>
      <trkpt lat="46.0137" lon="6.16118">
        <ele>676.8</ele>
        <time>2021-03-27T14:26:38Z</time>
      </trkpt>
      <trkpt lat="46.01374" lon="6.16105">
        <ele>676.2</ele>
        <time>2021-03-27T14:26:39Z</time>
      </trkpt>
      <trkpt lat="46.01379" lon="6.16093">
        <ele>675.4</ele>
        <time>2021-03-27T14:26:40Z</time>
      </trkpt>
      <trkpt lat="46.01384" lon="6.16081">
        <ele>674.6</ele>
        <time>2021-03-27T14:26:41Z</time>
      </trkpt>
      <trkpt lat="46.01389" lon="6.16069">
        <ele>674.4</ele>
        <time>2021-03-27T14:26:42Z</time>
      </trkpt>
      <trkpt lat="46.01395" lon="6.16057">
        <ele>674.2</ele>
        <time>2021-03-27T14:26:43Z</time>
      </trkpt>
      <trkpt lat="46.01401" lon="6.16045">
        <ele>674</ele>
        <time>2021-03-27T14:26:44Z</time>
      </trkpt>
      <trkpt lat="46.01407" lon="6.16033">
        <ele>673.8</ele>
        <time>2021-03-27T14:26:45Z</time>
      </trkpt>
      <trkpt lat="46.01413" lon="6.16021">
        <ele>673.6</ele>
        <time>2021-03-27T14:26:46Z</time>
      </trkpt>
      <trkpt lat="46.01419" lon="6.16009">
        <ele>673.2</ele>
        <time>2021-03-27T14:26:47Z</time>
      </trkpt>
      <trkpt lat="46.01426" lon="6.15998">
        <ele>672.4</ele>
        <time>2021-03-27T14:26:48Z</time>
      </trkpt>
      <trkpt lat="46.01433" lon="6.15988">
        <ele>672.2</ele>
        <time>2021-03-27T14:26:49Z</time>
      </trkpt>
      <trkpt lat="46.01441" lon="6.15978">
        <ele>672</ele>
        <time>2021-03-27T14:26:50Z</time>
      </trkpt>
      <trkpt lat="46.01449" lon="6.15968">
        <ele>671.8</ele>
        <time>2021-03-27T14:26:51Z</time>
      </trkpt>
      <trkpt lat="46.01456" lon="6.15958">
        <ele>671.6</ele>
        <time>2021-03-27T14:26:52Z</time>
      </trkpt>
      <trkpt lat="46.01462" lon="6.15946">
        <ele>670.6</ele>
        <time>2021-03-27T14:26:53Z</time>
      </trkpt>
      <trkpt lat="46.01466" lon="6.15933">
        <ele>669.6</ele>
        <time>2021-03-27T14:26:54Z</time>
      </trkpt>
      <trkpt lat="46.01469" lon="6.15919">
        <ele>669</ele>
        <time>2021-03-27T14:26:55Z</time>
      </trkpt>
      <trkpt lat="46.01472" lon="6.15905">
        <ele>668.2</ele>
        <time>2021-03-27T14:26:56Z</time>
      </trkpt>
      <trkpt lat="46.01473" lon="6.1589">
        <ele>667.2</ele>
        <time>2021-03-27T14:26:57Z</time>
      </trkpt>
      <trkpt lat="46.01475" lon="6.15875">
        <ele>667</ele>
        <time>2021-03-27T14:26:58Z</time>
      </trkpt>
      <trkpt lat="46.01476" lon="6.15861">
        <ele>666.4</ele>
        <time>2021-03-27T14:26:59Z</time>
      </trkpt>
      <trkpt lat="46.01477" lon="6.15846">
        <ele>665.6</ele>
        <time>2021-03-27T14:27:00Z</time>
      </trkpt>
      <trkpt lat="46.01478" lon="6.15831">
        <ele>665.2</ele>
        <time>2021-03-27T14:27:01Z</time>
      </trkpt>
      <trkpt lat="46.01479" lon="6.15816">
        <ele>664.6</ele>
        <time>2021-03-27T14:27:02Z</time>
      </trkpt>
      <trkpt lat="46.01481" lon="6.15801">
        <ele>664</ele>
        <time>2021-03-27T14:27:03Z</time>
      </trkpt>
      <trkpt lat="46.01482" lon="6.15786">
        <ele>663.6</ele>
        <time>2021-03-27T14:27:04Z</time>
      </trkpt>
      <trkpt lat="46.01483" lon="6.1577">
        <ele>663.6</ele>
        <time>2021-03-27T14:27:05Z</time>
      </trkpt>
      <trkpt lat="46.01483" lon="6.15754">
        <ele>663.4</ele>
        <time>2021-03-27T14:27:06Z</time>
      </trkpt>
      <trkpt lat="46.01484" lon="6.15739">
        <ele>663</ele>
        <time>2021-03-27T14:27:07Z</time>
      </trkpt>
      <trkpt lat="46.01484" lon="6.15724">
        <ele>662.8</ele>
        <time>2021-03-27T14:27:08Z</time>
      </trkpt>
      <trkpt lat="46.01486" lon="6.15709">
        <ele>662.4</ele>
        <time>2021-03-27T14:27:09Z</time>
      </trkpt>
      <trkpt lat="46.01487" lon="6.15694">
        <ele>662</ele>
        <time>2021-03-27T14:27:10Z</time>
      </trkpt>
      <trkpt lat="46.01489" lon="6.15678">
        <ele>661.2</ele>
        <time>2021-03-27T14:27:11Z</time>
      </trkpt>
      <trkpt lat="46.01491" lon="6.15663">
        <ele>660.2</ele>
        <time>2021-03-27T14:27:12Z</time>
      </trkpt>
      <trkpt lat="46.01495" lon="6.15648">
        <ele>659</ele>
        <time>2021-03-27T14:27:13Z</time>
      </trkpt>
      <trkpt lat="46.01499" lon="6.15635">
        <ele>658.4</ele>
        <time>2021-03-27T14:27:14Z</time>
      </trkpt>
      <trkpt lat="46.01504" lon="6.15621">
        <ele>657.8</ele>
        <time>2021-03-27T14:27:15Z</time>
      </trkpt>
      <trkpt lat="46.01509" lon="6.15608">
        <ele>657.6</ele>
        <time>2021-03-27T14:27:16Z</time>
      </trkpt>
      <trkpt lat="46.01514" lon="6.15595">
        <ele>657.4</ele>
        <time>2021-03-27T14:27:17Z</time>
      </trkpt>
      <trkpt lat="46.0152" lon="6.15582">
        <ele>657.2</ele>
        <time>2021-03-27T14:27:18Z</time>
      </trkpt>
      <trkpt lat="46.01525" lon="6.15569">
        <ele>657.2</ele>
        <time>2021-03-27T14:27:19Z</time>
      </trkpt>
      <trkpt lat="46.0153" lon="6.15557">
        <ele>657.2</ele>
        <time>2021-03-27T14:27:20Z</time>
      </trkpt>
      <trkpt lat="46.01536" lon="6.15545">
        <ele>656.8</ele>
        <time>2021-03-27T14:27:21Z</time>
      </trkpt>
      <trkpt lat="46.01541" lon="6.15532">
        <ele>656.8</ele>
        <time>2021-03-27T14:27:22Z</time>
      </trkpt>
      <trkpt lat="46.01546" lon="6.1552">
        <ele>656.8</ele>
        <time>2021-03-27T14:27:23Z</time>
      </trkpt>
      <trkpt lat="46.01552" lon="6.15508">
        <ele>656.4</ele>
        <time>2021-03-27T14:27:24Z</time>
      </trkpt>
      <trkpt lat="46.01557" lon="6.15496">
        <ele>656</ele>
        <time>2021-03-27T14:27:25Z</time>
      </trkpt>
      <trkpt lat="46.01562" lon="6.15484">
        <ele>655.8</ele>
        <time>2021-03-27T14:27:26Z</time>
      </trkpt>
      <trkpt lat="46.01567" lon="6.15471">
        <ele>655.6</ele>
        <time>2021-03-27T14:27:27Z</time>
      </trkpt>
      <trkpt lat="46.01572" lon="6.1546">
        <ele>655.4</ele>
        <time>2021-03-27T14:27:28Z</time>
      </trkpt>
      <trkpt lat="46.01577" lon="6.15448">
        <ele>655.2</ele>
        <time>2021-03-27T14:27:29Z</time>
      </trkpt>
      <trkpt lat="46.01582" lon="6.15436">
        <ele>655</ele>
        <time>2021-03-27T14:27:30Z</time>
      </trkpt>
      <trkpt lat="46.01587" lon="6.15425">
        <ele>654.8</ele>
        <time>2021-03-27T14:27:31Z</time>
      </trkpt>
      <trkpt lat="46.01592" lon="6.15414">
        <ele>654.8</ele>
        <time>2021-03-27T14:27:32Z</time>
      </trkpt>
      <trkpt lat="46.01597" lon="6.15402">
        <ele>654.6</ele>
        <time>2021-03-27T14:27:33Z</time>
      </trkpt>
      <trkpt lat="46.01601" lon="6.15391">
        <ele>654.4</ele>
        <time>2021-03-27T14:27:34Z</time>
      </trkpt>
      <trkpt lat="46.01606" lon="6.1538">
        <ele>654.4</ele>
        <time>2021-03-27T14:27:35Z</time>
      </trkpt>
      <trkpt lat="46.01611" lon="6.15369">
        <ele>654.2</ele>
        <time>2021-03-27T14:27:36Z</time>
      </trkpt>
      <trkpt lat="46.01616" lon="6.15358">
        <ele>654.2</ele>
        <time>2021-03-27T14:27:37Z</time>
      </trkpt>
      <trkpt lat="46.0162" lon="6.15346">
        <ele>654.2</ele>
        <time>2021-03-27T14:27:38Z</time>
      </trkpt>
      <trkpt lat="46.01625" lon="6.15335">
        <ele>654.2</ele>
        <time>2021-03-27T14:27:39Z</time>
      </trkpt>
      <trkpt lat="46.0163" lon="6.15324">
        <ele>654.2</ele>
        <time>2021-03-27T14:27:40Z</time>
      </trkpt>
      <trkpt lat="46.01635" lon="6.15313">
        <ele>654</ele>
        <time>2021-03-27T14:27:41Z</time>
      </trkpt>
      <trkpt lat="46.01639" lon="6.15302">
        <ele>653.8</ele>
        <time>2021-03-27T14:27:42Z</time>
      </trkpt>
      <trkpt lat="46.01644" lon="6.15291">
        <ele>653.6</ele>
        <time>2021-03-27T14:27:43Z</time>
      </trkpt>
      <trkpt lat="46.01649" lon="6.1528">
        <ele>653.2</ele>
        <time>2021-03-27T14:27:44Z</time>
      </trkpt>
      <trkpt lat="46.01653" lon="6.15269">
        <ele>653.2</ele>
        <time>2021-03-27T14:27:45Z</time>
      </trkpt>
      <trkpt lat="46.01658" lon="6.15259">
        <ele>652.8</ele>
        <time>2021-03-27T14:27:46Z</time>
      </trkpt>
      <trkpt lat="46.01662" lon="6.15248">
        <ele>652.4</ele>
        <time>2021-03-27T14:27:47Z</time>
      </trkpt>
      <trkpt lat="46.01667" lon="6.15237">
        <ele>652</ele>
        <time>2021-03-27T14:27:48Z</time>
      </trkpt>
      <trkpt lat="46.01672" lon="6.15227">
        <ele>651.8</ele>
        <time>2021-03-27T14:27:49Z</time>
      </trkpt>
      <trkpt lat="46.01676" lon="6.15216">
        <ele>651.4</ele>
        <time>2021-03-27T14:27:50Z</time>
      </trkpt>
      <trkpt lat="46.01681" lon="6.15205">
        <ele>651.4</ele>
        <time>2021-03-27T14:27:51Z</time>
      </trkpt>
      <trkpt lat="46.01685" lon="6.15194">
        <ele>651.2</ele>
        <time>2021-03-27T14:27:52Z</time>
      </trkpt>
      <trkpt lat="46.01689" lon="6.15183">
        <ele>651</ele>
        <time>2021-03-27T14:27:53Z</time>
      </trkpt>
      <trkpt lat="46.01693" lon="6.15172">
        <ele>650.4</ele>
        <time>2021-03-27T14:27:54Z</time>
      </trkpt>
      <trkpt lat="46.01696" lon="6.1516">
        <ele>650.2</ele>
        <time>2021-03-27T14:27:55Z</time>
      </trkpt>
      <trkpt lat="46.01698" lon="6.15148">
        <ele>649.8</ele>
        <time>2021-03-27T14:27:56Z</time>
      </trkpt>
      <trkpt lat="46.01699" lon="6.15136">
        <ele>649.8</ele>
        <time>2021-03-27T14:27:57Z</time>
      </trkpt>
      <trkpt lat="46.01698" lon="6.15123">
        <ele>649.2</ele>
        <time>2021-03-27T14:27:58Z</time>
      </trkpt>
      <trkpt lat="46.01698" lon="6.15111">
        <ele>649</ele>
        <time>2021-03-27T14:27:59Z</time>
      </trkpt>
      <trkpt lat="46.01697" lon="6.15099">
        <ele>648.6</ele>
        <time>2021-03-27T14:28:00Z</time>
      </trkpt>
      <trkpt lat="46.01695" lon="6.15087">
        <ele>648.2</ele>
        <time>2021-03-27T14:28:01Z</time>
      </trkpt>
      <trkpt lat="46.01695" lon="6.15075">
        <ele>648</ele>
        <time>2021-03-27T14:28:02Z</time>
      </trkpt>
      <trkpt lat="46.01694" lon="6.15062">
        <ele>648</ele>
        <time>2021-03-27T14:28:03Z</time>
      </trkpt>
      <trkpt lat="46.01694" lon="6.15049">
        <ele>647.6</ele>
        <time>2021-03-27T14:28:04Z</time>
      </trkpt>
      <trkpt lat="46.01694" lon="6.15037">
        <ele>647.6</ele>
        <time>2021-03-27T14:28:05Z</time>
      </trkpt>
      <trkpt lat="46.01694" lon="6.15025">
        <ele>647.4</ele>
        <time>2021-03-27T14:28:06Z</time>
      </trkpt>
      <trkpt lat="46.01694" lon="6.15012">
        <ele>647.4</ele>
        <time>2021-03-27T14:28:07Z</time>
      </trkpt>
      <trkpt lat="46.01694" lon="6.15">
        <ele>647.4</ele>
        <time>2021-03-27T14:28:08Z</time>
      </trkpt>
      <trkpt lat="46.01693" lon="6.14987">
        <ele>647.2</ele>
        <time>2021-03-27T14:28:09Z</time>
      </trkpt>
      <trkpt lat="46.01692" lon="6.14976">
        <ele>647.2</ele>
        <time>2021-03-27T14:28:10Z</time>
      </trkpt>
      <trkpt lat="46.01692" lon="6.14964">
        <ele>647</ele>
        <time>2021-03-27T14:28:11Z</time>
      </trkpt>
      <trkpt lat="46.01691" lon="6.14953">
        <ele>646.8</ele>
        <time>2021-03-27T14:28:12Z</time>
      </trkpt>
      <trkpt lat="46.0169" lon="6.14942">
        <ele>646.4</ele>
        <time>2021-03-27T14:28:13Z</time>
      </trkpt>
      <trkpt lat="46.01688" lon="6.1493">
        <ele>646.4</ele>
        <time>2021-03-27T14:28:14Z</time>
      </trkpt>
      <trkpt lat="46.01687" lon="6.14917">
        <ele>646.2</ele>
        <time>2021-03-27T14:28:15Z</time>
      </trkpt>
      <trkpt lat="46.01686" lon="6.14904">
        <ele>646.2</ele>
        <time>2021-03-27T14:28:16Z</time>
      </trkpt>
      <trkpt lat="46.01686" lon="6.14891">
        <ele>646.2</ele>
        <time>2021-03-27T14:28:17Z</time>
      </trkpt>
      <trkpt lat="46.01686" lon="6.14878">
        <ele>646</ele>
        <time>2021-03-27T14:28:18Z</time>
      </trkpt>
      <trkpt lat="46.01687" lon="6.14866">
        <ele>645.6</ele>
        <time>2021-03-27T14:28:19Z</time>
      </trkpt>
      <trkpt lat="46.01688" lon="6.14853">
        <ele>645.6</ele>
        <time>2021-03-27T14:28:20Z</time>
      </trkpt>
      <trkpt lat="46.01689" lon="6.14841">
        <ele>645.4</ele>
        <time>2021-03-27T14:28:21Z</time>
      </trkpt>
      <trkpt lat="46.01691" lon="6.14828">
        <ele>645.2</ele>
        <time>2021-03-27T14:28:22Z</time>
      </trkpt>
      <trkpt lat="46.01692" lon="6.14816">
        <ele>645</ele>
        <time>2021-03-27T14:28:23Z</time>
      </trkpt>
      <trkpt lat="46.01694" lon="6.14804">
        <ele>644.8</ele>
        <time>2021-03-27T14:28:24Z</time>
      </trkpt>
      <trkpt lat="46.01695" lon="6.14792">
        <ele>644.6</ele>
        <time>2021-03-27T14:28:25Z</time>
      </trkpt>
      <trkpt lat="46.01696" lon="6.1478">
        <ele>644.6</ele>
        <time>2021-03-27T14:28:26Z</time>
      </trkpt>
      <trkpt lat="46.01696" lon="6.14768">
        <ele>644.4</ele>
        <time>2021-03-27T14:28:27Z</time>
      </trkpt>
      <trkpt lat="46.01696" lon="6.14755">
        <ele>644.4</ele>
        <time>2021-03-27T14:28:28Z</time>
      </trkpt>
      <trkpt lat="46.01697" lon="6.14743">
        <ele>644.4</ele>
        <time>2021-03-27T14:28:29Z</time>
      </trkpt>
      <trkpt lat="46.01698" lon="6.14719">
        <ele>644.2</ele>
        <time>2021-03-27T14:28:31Z</time>
      </trkpt>
      <trkpt lat="46.01698" lon="6.14707">
        <ele>644.2</ele>
        <time>2021-03-27T14:28:32Z</time>
      </trkpt>
      <trkpt lat="46.01697" lon="6.14696">
        <ele>644</ele>
        <time>2021-03-27T14:28:33Z</time>
      </trkpt>
      <trkpt lat="46.01697" lon="6.14673">
        <ele>643.8</ele>
        <time>2021-03-27T14:28:35Z</time>
      </trkpt>
      <trkpt lat="46.01697" lon="6.14661">
        <ele>643.8</ele>
        <time>2021-03-27T14:28:36Z</time>
      </trkpt>
      <trkpt lat="46.01698" lon="6.1465">
        <ele>643.8</ele>
        <time>2021-03-27T14:28:37Z</time>
      </trkpt>
      <trkpt lat="46.01705" lon="6.14629">
        <ele>643.8</ele>
        <time>2021-03-27T14:28:39Z</time>
      </trkpt>
      <trkpt lat="46.01711" lon="6.14622">
        <ele>643.6</ele>
        <time>2021-03-27T14:28:40Z</time>
      </trkpt>
      <trkpt lat="46.01717" lon="6.14617">
        <ele>643.6</ele>
        <time>2021-03-27T14:28:41Z</time>
      </trkpt>
      <trkpt lat="46.01725" lon="6.14614">
        <ele>643.6</ele>
        <time>2021-03-27T14:28:42Z</time>
      </trkpt>
      <trkpt lat="46.01734" lon="6.14614">
        <ele>643.6</ele>
        <time>2021-03-27T14:28:43Z</time>
      </trkpt>
      <trkpt lat="46.01742" lon="6.14617">
        <ele>643.4</ele>
        <time>2021-03-27T14:28:44Z</time>
      </trkpt>
      <trkpt lat="46.0175" lon="6.14622">
        <ele>643.2</ele>
        <time>2021-03-27T14:28:45Z</time>
      </trkpt>
      <trkpt lat="46.01759" lon="6.14627">
        <ele>643.2</ele>
        <time>2021-03-27T14:28:46Z</time>
      </trkpt>
      <trkpt lat="46.01767" lon="6.14633">
        <ele>643</ele>
        <time>2021-03-27T14:28:47Z</time>
      </trkpt>
      <trkpt lat="46.01776" lon="6.14638">
        <ele>643</ele>
        <time>2021-03-27T14:28:48Z</time>
      </trkpt>
      <trkpt lat="46.01785" lon="6.14642">
        <ele>643</ele>
        <time>2021-03-27T14:28:49Z</time>
      </trkpt>
      <trkpt lat="46.01794" lon="6.14644">
        <ele>642.6</ele>
        <time>2021-03-27T14:28:50Z</time>
      </trkpt>
      <trkpt lat="46.01804" lon="6.14646">
        <ele>642.6</ele>
        <time>2021-03-27T14:28:51Z</time>
      </trkpt>
      <trkpt lat="46.01813" lon="6.14647">
        <ele>642.8</ele>
        <time>2021-03-27T14:28:52Z</time>
      </trkpt>
      <trkpt lat="46.01823" lon="6.14652">
        <ele>642.4</ele>
        <time>2021-03-27T14:28:53Z</time>
      </trkpt>
      <trkpt lat="46.01832" lon="6.1466">
        <ele>642</ele>
        <time>2021-03-27T14:28:54Z</time>
      </trkpt>
      <trkpt lat="46.01841" lon="6.1467">
        <ele>641.6</ele>
        <time>2021-03-27T14:28:55Z</time>
      </trkpt>
      <trkpt lat="46.01851" lon="6.1468">
        <ele>641.2</ele>
        <time>2021-03-27T14:28:56Z</time>
      </trkpt>
      <trkpt lat="46.01861" lon="6.1469">
        <ele>640.6</ele>
        <time>2021-03-27T14:28:57Z</time>
      </trkpt>
      <trkpt lat="46.01871" lon="6.14699">
        <ele>639.6</ele>
        <time>2021-03-27T14:28:58Z</time>
      </trkpt>
      <trkpt lat="46.01881" lon="6.14707">
        <ele>638.6</ele>
        <time>2021-03-27T14:28:59Z</time>
      </trkpt>
      <trkpt lat="46.01892" lon="6.14715">
        <ele>637.6</ele>
        <time>2021-03-27T14:29:00Z</time>
      </trkpt>
      <trkpt lat="46.01903" lon="6.14722">
        <ele>636.8</ele>
        <time>2021-03-27T14:29:01Z</time>
      </trkpt>
      <trkpt lat="46.01914" lon="6.14729">
        <ele>636</ele>
        <time>2021-03-27T14:29:02Z</time>
      </trkpt>
      <trkpt lat="46.01926" lon="6.14736">
        <ele>635.2</ele>
        <time>2021-03-27T14:29:03Z</time>
      </trkpt>
      <trkpt lat="46.01938" lon="6.14743">
        <ele>634</ele>
        <time>2021-03-27T14:29:04Z</time>
      </trkpt>
      <trkpt lat="46.0195" lon="6.1475">
        <ele>633</ele>
        <time>2021-03-27T14:29:05Z</time>
      </trkpt>
      <trkpt lat="46.01961" lon="6.14758">
        <ele>631.6</ele>
        <time>2021-03-27T14:29:06Z</time>
      </trkpt>
      <trkpt lat="46.01973" lon="6.14765">
        <ele>630.2</ele>
        <time>2021-03-27T14:29:07Z</time>
      </trkpt>
      <trkpt lat="46.01985" lon="6.14771">
        <ele>628.8</ele>
        <time>2021-03-27T14:29:08Z</time>
      </trkpt>
      <trkpt lat="46.01998" lon="6.14777">
        <ele>627.8</ele>
        <time>2021-03-27T14:29:09Z</time>
      </trkpt>
      <trkpt lat="46.0201" lon="6.14782">
        <ele>626.8</ele>
        <time>2021-03-27T14:29:10Z</time>
      </trkpt>
      <trkpt lat="46.02022" lon="6.14788">
        <ele>625.8</ele>
        <time>2021-03-27T14:29:11Z</time>
      </trkpt>
      <trkpt lat="46.02033" lon="6.14793">
        <ele>624.8</ele>
        <time>2021-03-27T14:29:12Z</time>
      </trkpt>
      <trkpt lat="46.02044" lon="6.14799">
        <ele>623.6</ele>
        <time>2021-03-27T14:29:13Z</time>
      </trkpt>
      <trkpt lat="46.02054" lon="6.14801">
        <ele>622.4</ele>
        <time>2021-03-27T14:29:14Z</time>
      </trkpt>
      <trkpt lat="46.02064" lon="6.14795">
        <ele>621.4</ele>
        <time>2021-03-27T14:29:15Z</time>
      </trkpt>
      <trkpt lat="46.02071" lon="6.14783">
        <ele>620</ele>
        <time>2021-03-27T14:29:16Z</time>
      </trkpt>
      <trkpt lat="46.02075" lon="6.14768">
        <ele>619</ele>
        <time>2021-03-27T14:29:17Z</time>
      </trkpt>
      <trkpt lat="46.02076" lon="6.14752">
        <ele>617.6</ele>
        <time>2021-03-27T14:29:18Z</time>
      </trkpt>
      <trkpt lat="46.02077" lon="6.14735">
        <ele>616.8</ele>
        <time>2021-03-27T14:29:19Z</time>
      </trkpt>
      <trkpt lat="46.02078" lon="6.14718">
        <ele>615.6</ele>
        <time>2021-03-27T14:29:20Z</time>
      </trkpt>
      <trkpt lat="46.02078" lon="6.147">
        <ele>614.8</ele>
        <time>2021-03-27T14:29:21Z</time>
      </trkpt>
      <trkpt lat="46.02079" lon="6.14681">
        <ele>614.4</ele>
        <time>2021-03-27T14:29:22Z</time>
      </trkpt>
      <trkpt lat="46.02079" lon="6.14663">
        <ele>613.6</ele>
        <time>2021-03-27T14:29:23Z</time>
      </trkpt>
      <trkpt lat="46.02079" lon="6.14645">
        <ele>613.2</ele>
        <time>2021-03-27T14:29:24Z</time>
      </trkpt>
      <trkpt lat="46.02077" lon="6.14627">
        <ele>612.6</ele>
        <time>2021-03-27T14:29:25Z</time>
      </trkpt>
      <trkpt lat="46.02073" lon="6.14613">
        <ele>611.6</ele>
        <time>2021-03-27T14:29:26Z</time>
      </trkpt>
      <trkpt lat="46.02067" lon="6.14602">
        <ele>610.6</ele>
        <time>2021-03-27T14:29:27Z</time>
      </trkpt>
      <trkpt lat="46.0206" lon="6.14591">
        <ele>609.4</ele>
        <time>2021-03-27T14:29:28Z</time>
      </trkpt>
      <trkpt lat="46.02053" lon="6.14582">
        <ele>609</ele>
        <time>2021-03-27T14:29:29Z</time>
      </trkpt>
      <trkpt lat="46.02046" lon="6.14574">
        <ele>608.6</ele>
        <time>2021-03-27T14:29:30Z</time>
      </trkpt>
      <trkpt lat="46.0204" lon="6.14566">
        <ele>608.6</ele>
        <time>2021-03-27T14:29:31Z</time>
      </trkpt>
      <trkpt lat="46.02034" lon="6.14559">
        <ele>608.6</ele>
        <time>2021-03-27T14:29:32Z</time>
      </trkpt>
      <trkpt lat="46.02028" lon="6.14553">
        <ele>608.4</ele>
        <time>2021-03-27T14:29:33Z</time>
      </trkpt>
      <trkpt lat="46.02024" lon="6.14547">
        <ele>608.2</ele>
        <time>2021-03-27T14:29:34Z</time>
      </trkpt>
      <trkpt lat="46.02019" lon="6.14541">
        <ele>608.4</ele>
        <time>2021-03-27T14:29:35Z</time>
      </trkpt>
      <trkpt lat="46.02016" lon="6.14536">
        <ele>608.2</ele>
        <time>2021-03-27T14:29:36Z</time>
      </trkpt>
      <trkpt lat="46.02011" lon="6.14533">
        <ele>608.4</ele>
        <time>2021-03-27T14:29:37Z</time>
      </trkpt>
      <trkpt lat="46.02008" lon="6.14529">
        <ele>608.2</ele>
        <time>2021-03-27T14:29:38Z</time>
      </trkpt>
      <trkpt lat="46.02004" lon="6.14526">
        <ele>608.4</ele>
        <time>2021-03-27T14:29:39Z</time>
      </trkpt>
      <trkpt lat="46.02001" lon="6.14523">
        <ele>609</ele>
        <time>2021-03-27T14:29:40Z</time>
      </trkpt>
      <trkpt lat="46.01998" lon="6.14518">
        <ele>609.6</ele>
        <time>2021-03-27T14:29:41Z</time>
      </trkpt>
      <trkpt lat="46.01996" lon="6.14513">
        <ele>610.4</ele>
        <time>2021-03-27T14:29:42Z</time>
      </trkpt>
      <trkpt lat="46.01994" lon="6.14508">
        <ele>611</ele>
        <time>2021-03-27T14:29:43Z</time>
      </trkpt>
      <trkpt lat="46.01992" lon="6.14502">
        <ele>611.4</ele>
        <time>2021-03-27T14:29:44Z</time>
      </trkpt>
      <trkpt lat="46.01989" lon="6.14497">
        <ele>611.8</ele>
        <time>2021-03-27T14:29:45Z</time>
      </trkpt>
      <trkpt lat="46.01987" lon="6.14491">
        <ele>612.2</ele>
        <time>2021-03-27T14:29:46Z</time>
      </trkpt>
      <trkpt lat="46.01985" lon="6.14485">
        <ele>612.4</ele>
        <time>2021-03-27T14:29:47Z</time>
      </trkpt>
      <trkpt lat="46.01983" lon="6.1448">
        <ele>613</ele>
        <time>2021-03-27T14:29:48Z</time>
      </trkpt>
      <trkpt lat="46.01981" lon="6.14474">
        <ele>613.6</ele>
        <time>2021-03-27T14:29:49Z</time>
      </trkpt>
      <trkpt lat="46.01978" lon="6.1447">
        <ele>614.2</ele>
        <time>2021-03-27T14:29:50Z</time>
      </trkpt>
      <trkpt lat="46.01975" lon="6.14466">
        <ele>614.2</ele>
        <time>2021-03-27T14:29:51Z</time>
      </trkpt>
      <trkpt lat="46.01973" lon="6.1446">
        <ele>614.6</ele>
        <time>2021-03-27T14:29:52Z</time>
      </trkpt>
      <trkpt lat="46.01971" lon="6.14455">
        <ele>615</ele>
        <time>2021-03-27T14:29:53Z</time>
      </trkpt>
      <trkpt lat="46.0197" lon="6.14449">
        <ele>615</ele>
        <time>2021-03-27T14:29:54Z</time>
      </trkpt>
      <trkpt lat="46.01968" lon="6.14444">
        <ele>615.2</ele>
        <time>2021-03-27T14:29:55Z</time>
      </trkpt>
      <trkpt lat="46.01966" lon="6.14439">
        <ele>615.4</ele>
        <time>2021-03-27T14:29:56Z</time>
      </trkpt>
      <trkpt lat="46.01964" lon="6.14434">
        <ele>616</ele>
        <time>2021-03-27T14:29:57Z</time>
      </trkpt>
      <trkpt lat="46.01962" lon="6.14429">
        <ele>616.4</ele>
        <time>2021-03-27T14:29:58Z</time>
      </trkpt>
      <trkpt lat="46.0196" lon="6.14424">
        <ele>616.6</ele>
        <time>2021-03-27T14:29:59Z</time>
      </trkpt>
      <trkpt lat="46.01958" lon="6.14418">
        <ele>617</ele>
        <time>2021-03-27T14:30:00Z</time>
      </trkpt>
      <trkpt lat="46.01956" lon="6.14413">
        <ele>617.2</ele>
        <time>2021-03-27T14:30:01Z</time>
      </trkpt>
      <trkpt lat="46.01955" lon="6.14408">
        <ele>617.6</ele>
        <time>2021-03-27T14:30:02Z</time>
      </trkpt>
      <trkpt lat="46.01953" lon="6.14404">
        <ele>617.8</ele>
        <time>2021-03-27T14:30:03Z</time>
      </trkpt>
      <trkpt lat="46.01951" lon="6.14399">
        <ele>618</ele>
        <time>2021-03-27T14:30:04Z</time>
      </trkpt>
      <trkpt lat="46.0195" lon="6.14395">
        <ele>618.4</ele>
        <time>2021-03-27T14:30:05Z</time>
      </trkpt>
      <trkpt lat="46.01948" lon="6.1439">
        <ele>618.6</ele>
        <time>2021-03-27T14:30:06Z</time>
      </trkpt>
      <trkpt lat="46.01946" lon="6.14385">
        <ele>618.8</ele>
        <time>2021-03-27T14:30:07Z</time>
      </trkpt>
      <trkpt lat="46.01945" lon="6.1438">
        <ele>618.8</ele>
        <time>2021-03-27T14:30:08Z</time>
      </trkpt>
      <trkpt lat="46.01943" lon="6.14376">
        <ele>619.2</ele>
        <time>2021-03-27T14:30:09Z</time>
      </trkpt>
      <trkpt lat="46.01942" lon="6.14371">
        <ele>619.6</ele>
        <time>2021-03-27T14:30:10Z</time>
      </trkpt>
      <trkpt lat="46.0194" lon="6.14366">
        <ele>620</ele>
        <time>2021-03-27T14:30:11Z</time>
      </trkpt>
      <trkpt lat="46.01939" lon="6.14361">
        <ele>620.2</ele>
        <time>2021-03-27T14:30:12Z</time>
      </trkpt>
      <trkpt lat="46.01937" lon="6.14356">
        <ele>620.2</ele>
        <time>2021-03-27T14:30:13Z</time>
      </trkpt>
      <trkpt lat="46.01935" lon="6.14352">
        <ele>620.4</ele>
        <time>2021-03-27T14:30:14Z</time>
      </trkpt>
      <trkpt lat="46.01934" lon="6.14347">
        <ele>620.6</ele>
        <time>2021-03-27T14:30:15Z</time>
      </trkpt>
      <trkpt lat="46.01932" lon="6.14343">
        <ele>621</ele>
        <time>2021-03-27T14:30:16Z</time>
      </trkpt>
      <trkpt lat="46.0193" lon="6.14338">
        <ele>621.4</ele>
        <time>2021-03-27T14:30:17Z</time>
      </trkpt>
      <trkpt lat="46.01928" lon="6.14334">
        <ele>621.6</ele>
        <time>2021-03-27T14:30:18Z</time>
      </trkpt>
      <trkpt lat="46.01927" lon="6.14329">
        <ele>621.8</ele>
        <time>2021-03-27T14:30:19Z</time>
      </trkpt>
      <trkpt lat="46.01925" lon="6.14325">
        <ele>622</ele>
        <time>2021-03-27T14:30:20Z</time>
      </trkpt>
      <trkpt lat="46.01923" lon="6.1432">
        <ele>622.2</ele>
        <time>2021-03-27T14:30:21Z</time>
      </trkpt>
      <trkpt lat="46.01921" lon="6.14316">
        <ele>622.4</ele>
        <time>2021-03-27T14:30:22Z</time>
      </trkpt>
      <trkpt lat="46.0192" lon="6.14312">
        <ele>622.4</ele>
        <time>2021-03-27T14:30:23Z</time>
      </trkpt>
      <trkpt lat="46.01918" lon="6.14307">
        <ele>622.6</ele>
        <time>2021-03-27T14:30:24Z</time>
      </trkpt>
      <trkpt lat="46.01916" lon="6.14302">
        <ele>622.8</ele>
        <time>2021-03-27T14:30:25Z</time>
      </trkpt>
      <trkpt lat="46.01914" lon="6.14299">
        <ele>623</ele>
        <time>2021-03-27T14:30:26Z</time>
      </trkpt>
      <trkpt lat="46.01912" lon="6.14295">
        <ele>623</ele>
        <time>2021-03-27T14:30:27Z</time>
      </trkpt>
      <trkpt lat="46.01909" lon="6.14292">
        <ele>623.2</ele>
        <time>2021-03-27T14:30:28Z</time>
      </trkpt>
      <trkpt lat="46.01907" lon="6.14289">
        <ele>623.4</ele>
        <time>2021-03-27T14:30:29Z</time>
      </trkpt>
      <trkpt lat="46.01905" lon="6.14286">
        <ele>623.8</ele>
        <time>2021-03-27T14:30:30Z</time>
      </trkpt>
      <trkpt lat="46.01902" lon="6.14284">
        <ele>624</ele>
        <time>2021-03-27T14:30:31Z</time>
      </trkpt>
      <trkpt lat="46.019" lon="6.14282">
        <ele>624.2</ele>
        <time>2021-03-27T14:30:32Z</time>
      </trkpt>
      <trkpt lat="46.01897" lon="6.1428">
        <ele>624.6</ele>
        <time>2021-03-27T14:30:33Z</time>
      </trkpt>
      <trkpt lat="46.01894" lon="6.14278">
        <ele>625</ele>
        <time>2021-03-27T14:30:34Z</time>
      </trkpt>
      <trkpt lat="46.01891" lon="6.14277">
        <ele>625.2</ele>
        <time>2021-03-27T14:30:35Z</time>
      </trkpt>
      <trkpt lat="46.01888" lon="6.14275">
        <ele>625.2</ele>
        <time>2021-03-27T14:30:36Z</time>
      </trkpt>
      <trkpt lat="46.01885" lon="6.14273">
        <ele>625.4</ele>
        <time>2021-03-27T14:30:37Z</time>
      </trkpt>
      <trkpt lat="46.01882" lon="6.14272">
        <ele>625.6</ele>
        <time>2021-03-27T14:30:38Z</time>
      </trkpt>
      <trkpt lat="46.01879" lon="6.1427">
        <ele>626</ele>
        <time>2021-03-27T14:30:39Z</time>
      </trkpt>
      <trkpt lat="46.01876" lon="6.14269">
        <ele>626.2</ele>
        <time>2021-03-27T14:30:40Z</time>
      </trkpt>
      <trkpt lat="46.01873" lon="6.14267">
        <ele>626.4</ele>
        <time>2021-03-27T14:30:41Z</time>
      </trkpt>
      <trkpt lat="46.01869" lon="6.14266">
        <ele>626.6</ele>
        <time>2021-03-27T14:30:42Z</time>
      </trkpt>
      <trkpt lat="46.01866" lon="6.14264">
        <ele>626.8</ele>
        <time>2021-03-27T14:30:43Z</time>
      </trkpt>
      <trkpt lat="46.01863" lon="6.14262">
        <ele>627.2</ele>
        <time>2021-03-27T14:30:44Z</time>
      </trkpt>
      <trkpt lat="46.01861" lon="6.14261">
        <ele>627.4</ele>
        <time>2021-03-27T14:30:45Z</time>
      </trkpt>
      <trkpt lat="46.01858" lon="6.14259">
        <ele>627.4</ele>
        <time>2021-03-27T14:30:46Z</time>
      </trkpt>
      <trkpt lat="46.01855" lon="6.14257">
        <ele>627.6</ele>
        <time>2021-03-27T14:30:47Z</time>
      </trkpt>
      <trkpt lat="46.01852" lon="6.14255">
        <ele>627.6</ele>
        <time>2021-03-27T14:30:48Z</time>
      </trkpt>
      <trkpt lat="46.01849" lon="6.14254">
        <ele>627.8</ele>
        <time>2021-03-27T14:30:49Z</time>
      </trkpt>
      <trkpt lat="46.01845" lon="6.14252">
        <ele>628.2</ele>
        <time>2021-03-27T14:30:50Z</time>
      </trkpt>
      <trkpt lat="46.01842" lon="6.1425">
        <ele>628.4</ele>
        <time>2021-03-27T14:30:51Z</time>
      </trkpt>
      <trkpt lat="46.01839" lon="6.14248">
        <ele>628.6</ele>
        <time>2021-03-27T14:30:52Z</time>
      </trkpt>
      <trkpt lat="46.01836" lon="6.14245">
        <ele>628.8</ele>
        <time>2021-03-27T14:30:53Z</time>
      </trkpt>
      <trkpt lat="46.01834" lon="6.14243">
        <ele>629</ele>
        <time>2021-03-27T14:30:54Z</time>
      </trkpt>
      <trkpt lat="46.01831" lon="6.14241">
        <ele>629.2</ele>
        <time>2021-03-27T14:30:55Z</time>
      </trkpt>
      <trkpt lat="46.01827" lon="6.14239">
        <ele>629.2</ele>
        <time>2021-03-27T14:30:56Z</time>
      </trkpt>
      <trkpt lat="46.01824" lon="6.14236">
        <ele>629.4</ele>
        <time>2021-03-27T14:30:57Z</time>
      </trkpt>
      <trkpt lat="46.01822" lon="6.14233">
        <ele>629.4</ele>
        <time>2021-03-27T14:30:58Z</time>
      </trkpt>
      <trkpt lat="46.01819" lon="6.14231">
        <ele>629.6</ele>
        <time>2021-03-27T14:30:59Z</time>
      </trkpt>
      <trkpt lat="46.01816" lon="6.14228">
        <ele>630</ele>
        <time>2021-03-27T14:31:00Z</time>
      </trkpt>
      <trkpt lat="46.01813" lon="6.14225">
        <ele>630.2</ele>
        <time>2021-03-27T14:31:01Z</time>
      </trkpt>
      <trkpt lat="46.01811" lon="6.14222">
        <ele>630.6</ele>
        <time>2021-03-27T14:31:02Z</time>
      </trkpt>
      <trkpt lat="46.01808" lon="6.14219">
        <ele>630.6</ele>
        <time>2021-03-27T14:31:03Z</time>
      </trkpt>
      <trkpt lat="46.01806" lon="6.14216">
        <ele>630.8</ele>
        <time>2021-03-27T14:31:04Z</time>
      </trkpt>
      <trkpt lat="46.01803" lon="6.14212">
        <ele>631</ele>
        <time>2021-03-27T14:31:05Z</time>
      </trkpt>
      <trkpt lat="46.01801" lon="6.14208">
        <ele>631</ele>
        <time>2021-03-27T14:31:06Z</time>
      </trkpt>
      <trkpt lat="46.018" lon="6.14204">
        <ele>631.4</ele>
        <time>2021-03-27T14:31:07Z</time>
      </trkpt>
      <trkpt lat="46.01799" lon="6.142">
        <ele>631.6</ele>
        <time>2021-03-27T14:31:08Z</time>
      </trkpt>
      <trkpt lat="46.01798" lon="6.14196">
        <ele>631.8</ele>
        <time>2021-03-27T14:31:09Z</time>
      </trkpt>
      <trkpt lat="46.01797" lon="6.14192">
        <ele>632</ele>
        <time>2021-03-27T14:31:10Z</time>
      </trkpt>
      <trkpt lat="46.01796" lon="6.14188">
        <ele>632.2</ele>
        <time>2021-03-27T14:31:11Z</time>
      </trkpt>
      <trkpt lat="46.01795" lon="6.14184">
        <ele>632.6</ele>
        <time>2021-03-27T14:31:12Z</time>
      </trkpt>
      <trkpt lat="46.01794" lon="6.1418">
        <ele>632.6</ele>
        <time>2021-03-27T14:31:13Z</time>
      </trkpt>
      <trkpt lat="46.01793" lon="6.14176">
        <ele>632.8</ele>
        <time>2021-03-27T14:31:14Z</time>
      </trkpt>
      <trkpt lat="46.01792" lon="6.14172">
        <ele>633.2</ele>
        <time>2021-03-27T14:31:15Z</time>
      </trkpt>
      <trkpt lat="46.01791" lon="6.14167">
        <ele>633.2</ele>
        <time>2021-03-27T14:31:16Z</time>
      </trkpt>
      <trkpt lat="46.0179" lon="6.14163">
        <ele>633.6</ele>
        <time>2021-03-27T14:31:17Z</time>
      </trkpt>
      <trkpt lat="46.0179" lon="6.14159">
        <ele>634</ele>
        <time>2021-03-27T14:31:18Z</time>
      </trkpt>
      <trkpt lat="46.01789" lon="6.14155">
        <ele>634</ele>
        <time>2021-03-27T14:31:19Z</time>
      </trkpt>
      <trkpt lat="46.01788" lon="6.14151">
        <ele>634.6</ele>
        <time>2021-03-27T14:31:20Z</time>
      </trkpt>
      <trkpt lat="46.01788" lon="6.14147">
        <ele>634.6</ele>
        <time>2021-03-27T14:31:21Z</time>
      </trkpt>
      <trkpt lat="46.01787" lon="6.14143">
        <ele>635.2</ele>
        <time>2021-03-27T14:31:22Z</time>
      </trkpt>
      <trkpt lat="46.01786" lon="6.14139">
        <ele>635.4</ele>
        <time>2021-03-27T14:31:23Z</time>
      </trkpt>
      <trkpt lat="46.01785" lon="6.14135">
        <ele>635.6</ele>
        <time>2021-03-27T14:31:24Z</time>
      </trkpt>
      <trkpt lat="46.01785" lon="6.14131">
        <ele>636</ele>
        <time>2021-03-27T14:31:25Z</time>
      </trkpt>
      <trkpt lat="46.01784" lon="6.14127">
        <ele>636.4</ele>
        <time>2021-03-27T14:31:26Z</time>
      </trkpt>
      <trkpt lat="46.01783" lon="6.14123">
        <ele>636.6</ele>
        <time>2021-03-27T14:31:27Z</time>
      </trkpt>
      <trkpt lat="46.01782" lon="6.14119">
        <ele>637</ele>
        <time>2021-03-27T14:31:28Z</time>
      </trkpt>
      <trkpt lat="46.01781" lon="6.14116">
        <ele>637</ele>
        <time>2021-03-27T14:31:29Z</time>
      </trkpt>
      <trkpt lat="46.0178" lon="6.14112">
        <ele>637.2</ele>
        <time>2021-03-27T14:31:30Z</time>
      </trkpt>
      <trkpt lat="46.0178" lon="6.14108">
        <ele>637.4</ele>
        <time>2021-03-27T14:31:31Z</time>
      </trkpt>
      <trkpt lat="46.01778" lon="6.14104">
        <ele>637.8</ele>
        <time>2021-03-27T14:31:32Z</time>
      </trkpt>
      <trkpt lat="46.01777" lon="6.14101">
        <ele>637.8</ele>
        <time>2021-03-27T14:31:33Z</time>
      </trkpt>
      <trkpt lat="46.01776" lon="6.14097">
        <ele>638.2</ele>
        <time>2021-03-27T14:31:34Z</time>
      </trkpt>
      <trkpt lat="46.01775" lon="6.14094">
        <ele>638.6</ele>
        <time>2021-03-27T14:31:35Z</time>
      </trkpt>
      <trkpt lat="46.01774" lon="6.1409">
        <ele>638.8</ele>
        <time>2021-03-27T14:31:36Z</time>
      </trkpt>
      <trkpt lat="46.01772" lon="6.14087">
        <ele>638.8</ele>
        <time>2021-03-27T14:31:37Z</time>
      </trkpt>
      <trkpt lat="46.01771" lon="6.14084">
        <ele>639</ele>
        <time>2021-03-27T14:31:38Z</time>
      </trkpt>
      <trkpt lat="46.01769" lon="6.1408">
        <ele>639.4</ele>
        <time>2021-03-27T14:31:39Z</time>
      </trkpt>
      <trkpt lat="46.01768" lon="6.14077">
        <ele>639.6</ele>
        <time>2021-03-27T14:31:40Z</time>
      </trkpt>
      <trkpt lat="46.01766" lon="6.14074">
        <ele>639.8</ele>
        <time>2021-03-27T14:31:41Z</time>
      </trkpt>
      <trkpt lat="46.01764" lon="6.14071">
        <ele>640</ele>
        <time>2021-03-27T14:31:42Z</time>
      </trkpt>
      <trkpt lat="46.01762" lon="6.14069">
        <ele>640</ele>
        <time>2021-03-27T14:31:43Z</time>
      </trkpt>
      <trkpt lat="46.01761" lon="6.14066">
        <ele>640.2</ele>
        <time>2021-03-27T14:31:44Z</time>
      </trkpt>
      <trkpt lat="46.0176" lon="6.14062">
        <ele>640.6</ele>
        <time>2021-03-27T14:31:45Z</time>
      </trkpt>
      <trkpt lat="46.0176" lon="6.14059">
        <ele>640.6</ele>
        <time>2021-03-27T14:31:46Z</time>
      </trkpt>
      <trkpt lat="46.0176" lon="6.14055">
        <ele>640.8</ele>
        <time>2021-03-27T14:31:47Z</time>
      </trkpt>
      <trkpt lat="46.0176" lon="6.14051">
        <ele>641</ele>
        <time>2021-03-27T14:31:48Z</time>
      </trkpt>
      <trkpt lat="46.0176" lon="6.14048">
        <ele>641.4</ele>
        <time>2021-03-27T14:31:49Z</time>
      </trkpt>
      <trkpt lat="46.0176" lon="6.14044">
        <ele>641.6</ele>
        <time>2021-03-27T14:31:50Z</time>
      </trkpt>
      <trkpt lat="46.01761" lon="6.14041">
        <ele>642</ele>
        <time>2021-03-27T14:31:51Z</time>
      </trkpt>
      <trkpt lat="46.01762" lon="6.14038">
        <ele>642.2</ele>
        <time>2021-03-27T14:31:52Z</time>
      </trkpt>
      <trkpt lat="46.01763" lon="6.14034">
        <ele>642.6</ele>
        <time>2021-03-27T14:31:53Z</time>
      </trkpt>
      <trkpt lat="46.01765" lon="6.14032">
        <ele>643</ele>
        <time>2021-03-27T14:31:54Z</time>
      </trkpt>
      <trkpt lat="46.01767" lon="6.14029">
        <ele>643.4</ele>
        <time>2021-03-27T14:31:55Z</time>
      </trkpt>
      <trkpt lat="46.01769" lon="6.14027">
        <ele>643.6</ele>
        <time>2021-03-27T14:31:56Z</time>
      </trkpt>
      <trkpt lat="46.01771" lon="6.14025">
        <ele>643.6</ele>
        <time>2021-03-27T14:31:57Z</time>
      </trkpt>
      <trkpt lat="46.01774" lon="6.14024">
        <ele>643.6</ele>
        <time>2021-03-27T14:31:58Z</time>
      </trkpt>
      <trkpt lat="46.01776" lon="6.14023">
        <ele>644</ele>
        <time>2021-03-27T14:31:59Z</time>
      </trkpt>
      <trkpt lat="46.01779" lon="6.14022">
        <ele>644.4</ele>
        <time>2021-03-27T14:32:00Z</time>
      </trkpt>
      <trkpt lat="46.01782" lon="6.14021">
        <ele>644.6</ele>
        <time>2021-03-27T14:32:01Z</time>
      </trkpt>
      <trkpt lat="46.01784" lon="6.14021">
        <ele>644.8</ele>
        <time>2021-03-27T14:32:02Z</time>
      </trkpt>
      <trkpt lat="46.01787" lon="6.14021">
        <ele>645.2</ele>
        <time>2021-03-27T14:32:03Z</time>
      </trkpt>
      <trkpt lat="46.01789" lon="6.14021">
        <ele>645.6</ele>
        <time>2021-03-27T14:32:04Z</time>
      </trkpt>
      <trkpt lat="46.01792" lon="6.14022">
        <ele>646</ele>
        <time>2021-03-27T14:32:05Z</time>
      </trkpt>
      <trkpt lat="46.01795" lon="6.14024">
        <ele>646</ele>
        <time>2021-03-27T14:32:06Z</time>
      </trkpt>
      <trkpt lat="46.01797" lon="6.14026">
        <ele>646.4</ele>
        <time>2021-03-27T14:32:07Z</time>
      </trkpt>
      <trkpt lat="46.018" lon="6.1403">
        <ele>646.8</ele>
        <time>2021-03-27T14:32:08Z</time>
      </trkpt>
      <trkpt lat="46.01802" lon="6.14033">
        <ele>646.8</ele>
        <time>2021-03-27T14:32:09Z</time>
      </trkpt>
      <trkpt lat="46.01805" lon="6.14036">
        <ele>647.2</ele>
        <time>2021-03-27T14:32:10Z</time>
      </trkpt>
      <trkpt lat="46.01807" lon="6.1404">
        <ele>647.6</ele>
        <time>2021-03-27T14:32:11Z</time>
      </trkpt>
      <trkpt lat="46.01808" lon="6.14044">
        <ele>648</ele>
        <time>2021-03-27T14:32:12Z</time>
      </trkpt>
      <trkpt lat="46.0181" lon="6.14047">
        <ele>648.2</ele>
        <time>2021-03-27T14:32:13Z</time>
      </trkpt>
      <trkpt lat="46.01811" lon="6.1405">
        <ele>648.4</ele>
        <time>2021-03-27T14:32:14Z</time>
      </trkpt>
      <trkpt lat="46.01813" lon="6.14054">
        <ele>648.4</ele>
        <time>2021-03-27T14:32:15Z</time>
      </trkpt>
      <trkpt lat="46.01814" lon="6.14058">
        <ele>648.4</ele>
        <time>2021-03-27T14:32:16Z</time>
      </trkpt>
      <trkpt lat="46.01816" lon="6.14061">
        <ele>648.6</ele>
        <time>2021-03-27T14:32:17Z</time>
      </trkpt>
      <trkpt lat="46.01818" lon="6.14065">
        <ele>648.8</ele>
        <time>2021-03-27T14:32:18Z</time>
      </trkpt>
      <trkpt lat="46.0182" lon="6.14068">
        <ele>649</ele>
        <time>2021-03-27T14:32:19Z</time>
      </trkpt>
      <trkpt lat="46.01822" lon="6.14071">
        <ele>649.2</ele>
        <time>2021-03-27T14:32:20Z</time>
      </trkpt>
      <trkpt lat="46.01824" lon="6.14074">
        <ele>649.4</ele>
        <time>2021-03-27T14:32:21Z</time>
      </trkpt>
      <trkpt lat="46.01826" lon="6.14077">
        <ele>649.6</ele>
        <time>2021-03-27T14:32:22Z</time>
      </trkpt>
      <trkpt lat="46.01829" lon="6.14079">
        <ele>649.8</ele>
        <time>2021-03-27T14:32:23Z</time>
      </trkpt>
      <trkpt lat="46.01831" lon="6.14082">
        <ele>650</ele>
        <time>2021-03-27T14:32:24Z</time>
      </trkpt>
      <trkpt lat="46.01834" lon="6.14083">
        <ele>650.2</ele>
        <time>2021-03-27T14:32:25Z</time>
      </trkpt>
      <trkpt lat="46.01837" lon="6.14084">
        <ele>650.4</ele>
        <time>2021-03-27T14:32:26Z</time>
      </trkpt>
      <trkpt lat="46.0184" lon="6.14085">
        <ele>650.4</ele>
        <time>2021-03-27T14:32:27Z</time>
      </trkpt>
      <trkpt lat="46.01843" lon="6.14085">
        <ele>650.8</ele>
        <time>2021-03-27T14:32:28Z</time>
      </trkpt>
      <trkpt lat="46.01847" lon="6.14086">
        <ele>651</ele>
        <time>2021-03-27T14:32:29Z</time>
      </trkpt>
      <trkpt lat="46.0185" lon="6.14086">
        <ele>651.2</ele>
        <time>2021-03-27T14:32:30Z</time>
      </trkpt>
      <trkpt lat="46.01853" lon="6.14086">
        <ele>651.4</ele>
        <time>2021-03-27T14:32:31Z</time>
      </trkpt>
      <trkpt lat="46.01856" lon="6.14086">
        <ele>651.6</ele>
        <time>2021-03-27T14:32:32Z</time>
      </trkpt>
      <trkpt lat="46.01859" lon="6.14086">
        <ele>651.8</ele>
        <time>2021-03-27T14:32:33Z</time>
      </trkpt>
      <trkpt lat="46.01862" lon="6.14086">
        <ele>652.2</ele>
        <time>2021-03-27T14:32:34Z</time>
      </trkpt>
      <trkpt lat="46.01865" lon="6.14086">
        <ele>652.6</ele>
        <time>2021-03-27T14:32:35Z</time>
      </trkpt>
      <trkpt lat="46.01868" lon="6.14086">
        <ele>652.8</ele>
        <time>2021-03-27T14:32:36Z</time>
      </trkpt>
      <trkpt lat="46.01871" lon="6.14085">
        <ele>653</ele>
        <time>2021-03-27T14:32:37Z</time>
      </trkpt>
      <trkpt lat="46.01874" lon="6.14085">
        <ele>653.4</ele>
        <time>2021-03-27T14:32:38Z</time>
      </trkpt>
      <trkpt lat="46.01877" lon="6.14085">
        <ele>653.6</ele>
        <time>2021-03-27T14:32:39Z</time>
      </trkpt>
      <trkpt lat="46.0188" lon="6.14085">
        <ele>653.8</ele>
        <time>2021-03-27T14:32:40Z</time>
      </trkpt>
      <trkpt lat="46.01884" lon="6.14084">
        <ele>653.8</ele>
        <time>2021-03-27T14:32:41Z</time>
      </trkpt>
      <trkpt lat="46.01887" lon="6.14084">
        <ele>654</ele>
        <time>2021-03-27T14:32:42Z</time>
      </trkpt>
      <trkpt lat="46.0189" lon="6.14083">
        <ele>654.2</ele>
        <time>2021-03-27T14:32:43Z</time>
      </trkpt>
      <trkpt lat="46.01893" lon="6.14082">
        <ele>654.4</ele>
        <time>2021-03-27T14:32:44Z</time>
      </trkpt>
      <trkpt lat="46.01896" lon="6.14081">
        <ele>654.6</ele>
        <time>2021-03-27T14:32:45Z</time>
      </trkpt>
      <trkpt lat="46.01898" lon="6.14081">
        <ele>654.8</ele>
        <time>2021-03-27T14:32:46Z</time>
      </trkpt>
      <trkpt lat="46.01901" lon="6.14081">
        <ele>655</ele>
        <time>2021-03-27T14:32:47Z</time>
      </trkpt>
      <trkpt lat="46.01903" lon="6.14081">
        <ele>655</ele>
        <time>2021-03-27T14:32:48Z</time>
      </trkpt>
      <trkpt lat="46.01906" lon="6.14081">
        <ele>655.2</ele>
        <time>2021-03-27T14:32:49Z</time>
      </trkpt>
      <trkpt lat="46.01909" lon="6.14081">
        <ele>655.4</ele>
        <time>2021-03-27T14:32:50Z</time>
      </trkpt>
      <trkpt lat="46.01912" lon="6.14081">
        <ele>655.6</ele>
        <time>2021-03-27T14:32:51Z</time>
      </trkpt>
      <trkpt lat="46.01915" lon="6.14081">
        <ele>655.8</ele>
        <time>2021-03-27T14:32:52Z</time>
      </trkpt>
      <trkpt lat="46.01918" lon="6.1408">
        <ele>656</ele>
        <time>2021-03-27T14:32:53Z</time>
      </trkpt>
      <trkpt lat="46.01921" lon="6.14079">
        <ele>656.2</ele>
        <time>2021-03-27T14:32:54Z</time>
      </trkpt>
      <trkpt lat="46.01925" lon="6.14079">
        <ele>656.4</ele>
        <time>2021-03-27T14:32:55Z</time>
      </trkpt>
      <trkpt lat="46.01928" lon="6.14078">
        <ele>656.4</ele>
        <time>2021-03-27T14:32:56Z</time>
      </trkpt>
      <trkpt lat="46.01931" lon="6.14078">
        <ele>656.6</ele>
        <time>2021-03-27T14:32:57Z</time>
      </trkpt>
      <trkpt lat="46.01935" lon="6.14077">
        <ele>656.6</ele>
        <time>2021-03-27T14:32:58Z</time>
      </trkpt>
      <trkpt lat="46.01938" lon="6.14076">
        <ele>656.8</ele>
        <time>2021-03-27T14:32:59Z</time>
      </trkpt>
      <trkpt lat="46.01941" lon="6.14076">
        <ele>657</ele>
        <time>2021-03-27T14:33:00Z</time>
      </trkpt>
      <trkpt lat="46.01944" lon="6.14076">
        <ele>657.2</ele>
        <time>2021-03-27T14:33:01Z</time>
      </trkpt>
      <trkpt lat="46.01947" lon="6.14076">
        <ele>657.4</ele>
        <time>2021-03-27T14:33:02Z</time>
      </trkpt>
      <trkpt lat="46.0195" lon="6.14076">
        <ele>657.6</ele>
        <time>2021-03-27T14:33:03Z</time>
      </trkpt>
      <trkpt lat="46.01954" lon="6.14076">
        <ele>657.8</ele>
        <time>2021-03-27T14:33:04Z</time>
      </trkpt>
      <trkpt lat="46.01957" lon="6.14075">
        <ele>658</ele>
        <time>2021-03-27T14:33:05Z</time>
      </trkpt>
      <trkpt lat="46.0196" lon="6.14073">
        <ele>658</ele>
        <time>2021-03-27T14:33:06Z</time>
      </trkpt>
      <trkpt lat="46.01963" lon="6.14073">
        <ele>658</ele>
        <time>2021-03-27T14:33:07Z</time>
      </trkpt>
      <trkpt lat="46.01967" lon="6.14072">
        <ele>658</ele>
        <time>2021-03-27T14:33:08Z</time>
      </trkpt>
      <trkpt lat="46.0197" lon="6.14072">
        <ele>658.2</ele>
        <time>2021-03-27T14:33:09Z</time>
      </trkpt>
      <trkpt lat="46.01973" lon="6.14072">
        <ele>658.2</ele>
        <time>2021-03-27T14:33:10Z</time>
      </trkpt>
      <trkpt lat="46.01976" lon="6.14071">
        <ele>658.4</ele>
        <time>2021-03-27T14:33:11Z</time>
      </trkpt>
      <trkpt lat="46.01979" lon="6.1407">
        <ele>658.6</ele>
        <time>2021-03-27T14:33:12Z</time>
      </trkpt>
      <trkpt lat="46.01982" lon="6.14069">
        <ele>658.8</ele>
        <time>2021-03-27T14:33:13Z</time>
      </trkpt>
      <trkpt lat="46.01986" lon="6.14069">
        <ele>659</ele>
        <time>2021-03-27T14:33:14Z</time>
      </trkpt>
      <trkpt lat="46.01989" lon="6.14069">
        <ele>659.2</ele>
        <time>2021-03-27T14:33:15Z</time>
      </trkpt>
      <trkpt lat="46.01992" lon="6.14069">
        <ele>659.4</ele>
        <time>2021-03-27T14:33:16Z</time>
      </trkpt>
      <trkpt lat="46.01996" lon="6.14068">
        <ele>659.6</ele>
        <time>2021-03-27T14:33:17Z</time>
      </trkpt>
      <trkpt lat="46.01999" lon="6.14068">
        <ele>659.8</ele>
        <time>2021-03-27T14:33:18Z</time>
      </trkpt>
      <trkpt lat="46.02002" lon="6.14067">
        <ele>659.8</ele>
        <time>2021-03-27T14:33:19Z</time>
      </trkpt>
      <trkpt lat="46.02005" lon="6.14067">
        <ele>660</ele>
        <time>2021-03-27T14:33:20Z</time>
      </trkpt>
      <trkpt lat="46.02008" lon="6.14067">
        <ele>660.2</ele>
        <time>2021-03-27T14:33:21Z</time>
      </trkpt>
      <trkpt lat="46.02012" lon="6.14066">
        <ele>660.4</ele>
        <time>2021-03-27T14:33:22Z</time>
      </trkpt>
      <trkpt lat="46.02015" lon="6.14066">
        <ele>660.6</ele>
        <time>2021-03-27T14:33:23Z</time>
      </trkpt>
      <trkpt lat="46.02018" lon="6.14066">
        <ele>660.8</ele>
        <time>2021-03-27T14:33:24Z</time>
      </trkpt>
      <trkpt lat="46.02021" lon="6.14066">
        <ele>661</ele>
        <time>2021-03-27T14:33:25Z</time>
      </trkpt>
      <trkpt lat="46.02024" lon="6.14065">
        <ele>661.2</ele>
        <time>2021-03-27T14:33:26Z</time>
      </trkpt>
      <trkpt lat="46.02027" lon="6.14064">
        <ele>661.2</ele>
        <time>2021-03-27T14:33:27Z</time>
      </trkpt>
      <trkpt lat="46.0203" lon="6.14064">
        <ele>661.6</ele>
        <time>2021-03-27T14:33:28Z</time>
      </trkpt>
      <trkpt lat="46.02033" lon="6.14064">
        <ele>662</ele>
        <time>2021-03-27T14:33:29Z</time>
      </trkpt>
      <trkpt lat="46.02037" lon="6.14064">
        <ele>662.2</ele>
        <time>2021-03-27T14:33:30Z</time>
      </trkpt>
      <trkpt lat="46.0204" lon="6.14063">
        <ele>662.4</ele>
        <time>2021-03-27T14:33:31Z</time>
      </trkpt>
      <trkpt lat="46.02044" lon="6.14063">
        <ele>662.6</ele>
        <time>2021-03-27T14:33:32Z</time>
      </trkpt>
      <trkpt lat="46.02047" lon="6.14063">
        <ele>663</ele>
        <time>2021-03-27T14:33:33Z</time>
      </trkpt>
      <trkpt lat="46.0205" lon="6.14063">
        <ele>663</ele>
        <time>2021-03-27T14:33:34Z</time>
      </trkpt>
      <trkpt lat="46.02053" lon="6.14064">
        <ele>663</ele>
        <time>2021-03-27T14:33:35Z</time>
      </trkpt>
      <trkpt lat="46.02056" lon="6.14064">
        <ele>663.2</ele>
        <time>2021-03-27T14:33:36Z</time>
      </trkpt>
      <trkpt lat="46.02059" lon="6.14064">
        <ele>663.4</ele>
        <time>2021-03-27T14:33:37Z</time>
      </trkpt>
      <trkpt lat="46.02062" lon="6.14065">
        <ele>663.4</ele>
        <time>2021-03-27T14:33:38Z</time>
      </trkpt>
      <trkpt lat="46.02065" lon="6.14067">
        <ele>663.6</ele>
        <time>2021-03-27T14:33:39Z</time>
      </trkpt>
      <trkpt lat="46.02068" lon="6.14069">
        <ele>663.8</ele>
        <time>2021-03-27T14:33:40Z</time>
      </trkpt>
      <trkpt lat="46.02071" lon="6.14072">
        <ele>664</ele>
        <time>2021-03-27T14:33:41Z</time>
      </trkpt>
      <trkpt lat="46.02075" lon="6.14074">
        <ele>664.2</ele>
        <time>2021-03-27T14:33:42Z</time>
      </trkpt>
      <trkpt lat="46.02078" lon="6.14077">
        <ele>664.4</ele>
        <time>2021-03-27T14:33:43Z</time>
      </trkpt>
      <trkpt lat="46.0208" lon="6.1408">
        <ele>664.8</ele>
        <time>2021-03-27T14:33:44Z</time>
      </trkpt>
      <trkpt lat="46.02082" lon="6.14084">
        <ele>665</ele>
        <time>2021-03-27T14:33:45Z</time>
      </trkpt>
      <trkpt lat="46.02084" lon="6.14087">
        <ele>665.2</ele>
        <time>2021-03-27T14:33:46Z</time>
      </trkpt>
      <trkpt lat="46.02086" lon="6.14091">
        <ele>665.2</ele>
        <time>2021-03-27T14:33:47Z</time>
      </trkpt>
      <trkpt lat="46.02088" lon="6.14095">
        <ele>665.4</ele>
        <time>2021-03-27T14:33:48Z</time>
      </trkpt>
      <trkpt lat="46.02089" lon="6.14099">
        <ele>665.6</ele>
        <time>2021-03-27T14:33:49Z</time>
      </trkpt>
      <trkpt lat="46.02091" lon="6.14103">
        <ele>665.6</ele>
        <time>2021-03-27T14:33:50Z</time>
      </trkpt>
      <trkpt lat="46.02092" lon="6.14107">
        <ele>666</ele>
        <time>2021-03-27T14:33:51Z</time>
      </trkpt>
      <trkpt lat="46.02093" lon="6.14111">
        <ele>666.4</ele>
        <time>2021-03-27T14:33:52Z</time>
      </trkpt>
      <trkpt lat="46.02095" lon="6.14116">
        <ele>666.6</ele>
        <time>2021-03-27T14:33:53Z</time>
      </trkpt>
      <trkpt lat="46.02096" lon="6.1412">
        <ele>666.8</ele>
        <time>2021-03-27T14:33:54Z</time>
      </trkpt>
      <trkpt lat="46.02097" lon="6.14124">
        <ele>667.2</ele>
        <time>2021-03-27T14:33:55Z</time>
      </trkpt>
      <trkpt lat="46.02098" lon="6.14128">
        <ele>667.6</ele>
        <time>2021-03-27T14:33:56Z</time>
      </trkpt>
      <trkpt lat="46.02099" lon="6.14132">
        <ele>667.8</ele>
        <time>2021-03-27T14:33:57Z</time>
      </trkpt>
      <trkpt lat="46.02101" lon="6.14136">
        <ele>668.2</ele>
        <time>2021-03-27T14:33:58Z</time>
      </trkpt>
      <trkpt lat="46.02102" lon="6.1414">
        <ele>668.4</ele>
        <time>2021-03-27T14:33:59Z</time>
      </trkpt>
      <trkpt lat="46.02103" lon="6.14144">
        <ele>668.6</ele>
        <time>2021-03-27T14:34:00Z</time>
      </trkpt>
      <trkpt lat="46.02104" lon="6.14148">
        <ele>668.6</ele>
        <time>2021-03-27T14:34:01Z</time>
      </trkpt>
      <trkpt lat="46.02106" lon="6.14152">
        <ele>668.8</ele>
        <time>2021-03-27T14:34:02Z</time>
      </trkpt>
      <trkpt lat="46.02108" lon="6.14155">
        <ele>669.2</ele>
        <time>2021-03-27T14:34:03Z</time>
      </trkpt>
      <trkpt lat="46.02109" lon="6.14159">
        <ele>669.2</ele>
        <time>2021-03-27T14:34:04Z</time>
      </trkpt>
      <trkpt lat="46.02111" lon="6.14162">
        <ele>669.4</ele>
        <time>2021-03-27T14:34:05Z</time>
      </trkpt>
      <trkpt lat="46.02112" lon="6.14166">
        <ele>669.6</ele>
        <time>2021-03-27T14:34:06Z</time>
      </trkpt>
      <trkpt lat="46.02114" lon="6.1417">
        <ele>669.8</ele>
        <time>2021-03-27T14:34:07Z</time>
      </trkpt>
      <trkpt lat="46.02115" lon="6.14173">
        <ele>670.2</ele>
        <time>2021-03-27T14:34:08Z</time>
      </trkpt>
      <trkpt lat="46.02116" lon="6.14178">
        <ele>670.6</ele>
        <time>2021-03-27T14:34:09Z</time>
      </trkpt>
      <trkpt lat="46.02118" lon="6.14182">
        <ele>671</ele>
        <time>2021-03-27T14:34:10Z</time>
      </trkpt>
      <trkpt lat="46.02119" lon="6.14186">
        <ele>671.2</ele>
        <time>2021-03-27T14:34:11Z</time>
      </trkpt>
      <trkpt lat="46.02121" lon="6.1419">
        <ele>671.6</ele>
        <time>2021-03-27T14:34:12Z</time>
      </trkpt>
      <trkpt lat="46.02122" lon="6.14194">
        <ele>671.8</ele>
        <time>2021-03-27T14:34:13Z</time>
      </trkpt>
      <trkpt lat="46.02124" lon="6.14198">
        <ele>672.2</ele>
        <time>2021-03-27T14:34:14Z</time>
      </trkpt>
      <trkpt lat="46.02125" lon="6.14202">
        <ele>672.2</ele>
        <time>2021-03-27T14:34:15Z</time>
      </trkpt>
      <trkpt lat="46.02126" lon="6.14205">
        <ele>672.6</ele>
        <time>2021-03-27T14:34:16Z</time>
      </trkpt>
      <trkpt lat="46.02128" lon="6.14209">
        <ele>672.8</ele>
        <time>2021-03-27T14:34:17Z</time>
      </trkpt>
      <trkpt lat="46.02129" lon="6.14213">
        <ele>673</ele>
        <time>2021-03-27T14:34:18Z</time>
      </trkpt>
      <trkpt lat="46.0213" lon="6.14217">
        <ele>673.2</ele>
        <time>2021-03-27T14:34:19Z</time>
      </trkpt>
      <trkpt lat="46.02132" lon="6.14221">
        <ele>673.6</ele>
        <time>2021-03-27T14:34:20Z</time>
      </trkpt>
      <trkpt lat="46.02133" lon="6.14225">
        <ele>673.8</ele>
        <time>2021-03-27T14:34:21Z</time>
      </trkpt>
      <trkpt lat="46.02135" lon="6.14228">
        <ele>674</ele>
        <time>2021-03-27T14:34:22Z</time>
      </trkpt>
      <trkpt lat="46.02136" lon="6.14232">
        <ele>674</ele>
        <time>2021-03-27T14:34:23Z</time>
      </trkpt>
      <trkpt lat="46.02138" lon="6.14235">
        <ele>674</ele>
        <time>2021-03-27T14:34:24Z</time>
      </trkpt>
      <trkpt lat="46.0214" lon="6.14239">
        <ele>674.2</ele>
        <time>2021-03-27T14:34:25Z</time>
      </trkpt>
      <trkpt lat="46.02141" lon="6.14242">
        <ele>674.6</ele>
        <time>2021-03-27T14:34:26Z</time>
      </trkpt>
      <trkpt lat="46.02143" lon="6.14246">
        <ele>674.6</ele>
        <time>2021-03-27T14:34:27Z</time>
      </trkpt>
      <trkpt lat="46.02145" lon="6.14249">
        <ele>674.8</ele>
        <time>2021-03-27T14:34:28Z</time>
      </trkpt>
      <trkpt lat="46.02147" lon="6.14252">
        <ele>675</ele>
        <time>2021-03-27T14:34:29Z</time>
      </trkpt>
      <trkpt lat="46.02149" lon="6.14255">
        <ele>675</ele>
        <time>2021-03-27T14:34:30Z</time>
      </trkpt>
      <trkpt lat="46.02151" lon="6.14258">
        <ele>675.4</ele>
        <time>2021-03-27T14:34:31Z</time>
      </trkpt>
      <trkpt lat="46.02154" lon="6.1426">
        <ele>675.4</ele>
        <time>2021-03-27T14:34:32Z</time>
      </trkpt>
      <trkpt lat="46.02156" lon="6.14263">
        <ele>675.8</ele>
        <time>2021-03-27T14:34:33Z</time>
      </trkpt>
      <trkpt lat="46.02159" lon="6.14265">
        <ele>675.8</ele>
        <time>2021-03-27T14:34:34Z</time>
      </trkpt>
      <trkpt lat="46.02161" lon="6.14267">
        <ele>676.2</ele>
        <time>2021-03-27T14:34:35Z</time>
      </trkpt>
      <trkpt lat="46.02163" lon="6.14269">
        <ele>676.6</ele>
        <time>2021-03-27T14:34:36Z</time>
      </trkpt>
      <trkpt lat="46.02166" lon="6.14272">
        <ele>676.8</ele>
        <time>2021-03-27T14:34:37Z</time>
      </trkpt>
      <trkpt lat="46.02169" lon="6.14274">
        <ele>677</ele>
        <time>2021-03-27T14:34:38Z</time>
      </trkpt>
      <trkpt lat="46.02171" lon="6.14276">
        <ele>677.4</ele>
        <time>2021-03-27T14:34:39Z</time>
      </trkpt>
      <trkpt lat="46.02174" lon="6.14277">
        <ele>677.6</ele>
        <time>2021-03-27T14:34:40Z</time>
      </trkpt>
      <trkpt lat="46.02177" lon="6.14279">
        <ele>677.8</ele>
        <time>2021-03-27T14:34:41Z</time>
      </trkpt>
      <trkpt lat="46.02179" lon="6.14281">
        <ele>678</ele>
        <time>2021-03-27T14:34:42Z</time>
      </trkpt>
      <trkpt lat="46.02182" lon="6.14283">
        <ele>678.2</ele>
        <time>2021-03-27T14:34:43Z</time>
      </trkpt>
      <trkpt lat="46.02185" lon="6.14284">
        <ele>678.6</ele>
        <time>2021-03-27T14:34:44Z</time>
      </trkpt>
      <trkpt lat="46.02187" lon="6.14286">
        <ele>678.6</ele>
        <time>2021-03-27T14:34:45Z</time>
      </trkpt>
      <trkpt lat="46.0219" lon="6.14288">
        <ele>678.8</ele>
        <time>2021-03-27T14:34:46Z</time>
      </trkpt>
      <trkpt lat="46.02193" lon="6.14289">
        <ele>679</ele>
        <time>2021-03-27T14:34:47Z</time>
      </trkpt>
      <trkpt lat="46.02196" lon="6.14291">
        <ele>679.4</ele>
        <time>2021-03-27T14:34:48Z</time>
      </trkpt>
      <trkpt lat="46.02199" lon="6.14294">
        <ele>679.6</ele>
        <time>2021-03-27T14:34:49Z</time>
      </trkpt>
      <trkpt lat="46.02201" lon="6.14296">
        <ele>679.8</ele>
        <time>2021-03-27T14:34:50Z</time>
      </trkpt>
      <trkpt lat="46.02204" lon="6.14298">
        <ele>680</ele>
        <time>2021-03-27T14:34:51Z</time>
      </trkpt>
      <trkpt lat="46.02207" lon="6.14299">
        <ele>680</ele>
        <time>2021-03-27T14:34:52Z</time>
      </trkpt>
      <trkpt lat="46.02209" lon="6.143">
        <ele>680.2</ele>
        <time>2021-03-27T14:34:53Z</time>
      </trkpt>
      <trkpt lat="46.02212" lon="6.14301">
        <ele>680.4</ele>
        <time>2021-03-27T14:34:54Z</time>
      </trkpt>
      <trkpt lat="46.02215" lon="6.14301">
        <ele>680.6</ele>
        <time>2021-03-27T14:34:55Z</time>
      </trkpt>
      <trkpt lat="46.02218" lon="6.14301">
        <ele>680.8</ele>
        <time>2021-03-27T14:34:56Z</time>
      </trkpt>
      <trkpt lat="46.02221" lon="6.14301">
        <ele>680.8</ele>
        <time>2021-03-27T14:34:57Z</time>
      </trkpt>
      <trkpt lat="46.02223" lon="6.14299">
        <ele>681</ele>
        <time>2021-03-27T14:34:58Z</time>
      </trkpt>
      <trkpt lat="46.02225" lon="6.14297">
        <ele>681.4</ele>
        <time>2021-03-27T14:34:59Z</time>
      </trkpt>
      <trkpt lat="46.02227" lon="6.14295">
        <ele>681.6</ele>
        <time>2021-03-27T14:35:00Z</time>
      </trkpt>
      <trkpt lat="46.02229" lon="6.14291">
        <ele>681.6</ele>
        <time>2021-03-27T14:35:01Z</time>
      </trkpt>
      <trkpt lat="46.0223" lon="6.14288">
        <ele>681.6</ele>
        <time>2021-03-27T14:35:02Z</time>
      </trkpt>
      <trkpt lat="46.02232" lon="6.14285">
        <ele>681.8</ele>
        <time>2021-03-27T14:35:03Z</time>
      </trkpt>
      <trkpt lat="46.02232" lon="6.14281">
        <ele>682</ele>
        <time>2021-03-27T14:35:04Z</time>
      </trkpt>
      <trkpt lat="46.02233" lon="6.14277">
        <ele>682.2</ele>
        <time>2021-03-27T14:35:05Z</time>
      </trkpt>
      <trkpt lat="46.02232" lon="6.14273">
        <ele>682.4</ele>
        <time>2021-03-27T14:35:06Z</time>
      </trkpt>
      <trkpt lat="46.02232" lon="6.14269">
        <ele>682.6</ele>
        <time>2021-03-27T14:35:07Z</time>
      </trkpt>
      <trkpt lat="46.02231" lon="6.14265">
        <ele>682.8</ele>
        <time>2021-03-27T14:35:08Z</time>
      </trkpt>
      <trkpt lat="46.0223" lon="6.14261">
        <ele>683</ele>
        <time>2021-03-27T14:35:09Z</time>
      </trkpt>
      <trkpt lat="46.02229" lon="6.14258">
        <ele>683</ele>
        <time>2021-03-27T14:35:10Z</time>
      </trkpt>
      <trkpt lat="46.02227" lon="6.14254">
        <ele>683.2</ele>
        <time>2021-03-27T14:35:11Z</time>
      </trkpt>
      <trkpt lat="46.02225" lon="6.14251">
        <ele>683.4</ele>
        <time>2021-03-27T14:35:12Z</time>
      </trkpt>
      <trkpt lat="46.02224" lon="6.14247">
        <ele>683.8</ele>
        <time>2021-03-27T14:35:13Z</time>
      </trkpt>
      <trkpt lat="46.02223" lon="6.14243">
        <ele>683.8</ele>
        <time>2021-03-27T14:35:14Z</time>
      </trkpt>
      <trkpt lat="46.02222" lon="6.14239">
        <ele>684</ele>
        <time>2021-03-27T14:35:15Z</time>
      </trkpt>
      <trkpt lat="46.02221" lon="6.14235">
        <ele>684.2</ele>
        <time>2021-03-27T14:35:16Z</time>
      </trkpt>
      <trkpt lat="46.0222" lon="6.14231">
        <ele>684.4</ele>
        <time>2021-03-27T14:35:17Z</time>
      </trkpt>
      <trkpt lat="46.02219" lon="6.14227">
        <ele>684.4</ele>
        <time>2021-03-27T14:35:18Z</time>
      </trkpt>
      <trkpt lat="46.02218" lon="6.14223">
        <ele>684.6</ele>
        <time>2021-03-27T14:35:19Z</time>
      </trkpt>
      <trkpt lat="46.02218" lon="6.14219">
        <ele>684.6</ele>
        <time>2021-03-27T14:35:20Z</time>
      </trkpt>
      <trkpt lat="46.02217" lon="6.14215">
        <ele>684.8</ele>
        <time>2021-03-27T14:35:21Z</time>
      </trkpt>
      <trkpt lat="46.02216" lon="6.1421">
        <ele>685.2</ele>
        <time>2021-03-27T14:35:22Z</time>
      </trkpt>
      <trkpt lat="46.02215" lon="6.14206">
        <ele>685.4</ele>
        <time>2021-03-27T14:35:23Z</time>
      </trkpt>
      <trkpt lat="46.02215" lon="6.14202">
        <ele>685.6</ele>
        <time>2021-03-27T14:35:24Z</time>
      </trkpt>
      <trkpt lat="46.02214" lon="6.14198">
        <ele>685.8</ele>
        <time>2021-03-27T14:35:25Z</time>
      </trkpt>
      <trkpt lat="46.02213" lon="6.14194">
        <ele>686</ele>
        <time>2021-03-27T14:35:26Z</time>
      </trkpt>
      <trkpt lat="46.02212" lon="6.1419">
        <ele>686.2</ele>
        <time>2021-03-27T14:35:27Z</time>
      </trkpt>
      <trkpt lat="46.02211" lon="6.14185">
        <ele>686.2</ele>
        <time>2021-03-27T14:35:28Z</time>
      </trkpt>
      <trkpt lat="46.0221" lon="6.1418">
        <ele>686.6</ele>
        <time>2021-03-27T14:35:29Z</time>
      </trkpt>
      <trkpt lat="46.02209" lon="6.14176">
        <ele>686.8</ele>
        <time>2021-03-27T14:35:30Z</time>
      </trkpt>
      <trkpt lat="46.02208" lon="6.14171">
        <ele>686.6</ele>
        <time>2021-03-27T14:35:31Z</time>
      </trkpt>
      <trkpt lat="46.02207" lon="6.14166">
        <ele>686.8</ele>
        <time>2021-03-27T14:35:32Z</time>
      </trkpt>
      <trkpt lat="46.02206" lon="6.14162">
        <ele>687.2</ele>
        <time>2021-03-27T14:35:33Z</time>
      </trkpt>
      <trkpt lat="46.02205" lon="6.14157">
        <ele>687.2</ele>
        <time>2021-03-27T14:35:34Z</time>
      </trkpt>
      <trkpt lat="46.02204" lon="6.14152">
        <ele>687.4</ele>
        <time>2021-03-27T14:35:35Z</time>
      </trkpt>
      <trkpt lat="46.02203" lon="6.14148">
        <ele>687.4</ele>
        <time>2021-03-27T14:35:36Z</time>
      </trkpt>
      <trkpt lat="46.02202" lon="6.14143">
        <ele>687.6</ele>
        <time>2021-03-27T14:35:37Z</time>
      </trkpt>
      <trkpt lat="46.02202" lon="6.14139">
        <ele>687.8</ele>
        <time>2021-03-27T14:35:38Z</time>
      </trkpt>
      <trkpt lat="46.02202" lon="6.14134">
        <ele>687.8</ele>
        <time>2021-03-27T14:35:39Z</time>
      </trkpt>
      <trkpt lat="46.02201" lon="6.1413">
        <ele>688</ele>
        <time>2021-03-27T14:35:40Z</time>
      </trkpt>
      <trkpt lat="46.02201" lon="6.14125">
        <ele>688</ele>
        <time>2021-03-27T14:35:41Z</time>
      </trkpt>
      <trkpt lat="46.02201" lon="6.14121">
        <ele>688</ele>
        <time>2021-03-27T14:35:42Z</time>
      </trkpt>
      <trkpt lat="46.02201" lon="6.14117">
        <ele>688.4</ele>
        <time>2021-03-27T14:35:43Z</time>
      </trkpt>
      <trkpt lat="46.02201" lon="6.14112">
        <ele>689</ele>
        <time>2021-03-27T14:35:44Z</time>
      </trkpt>
      <trkpt lat="46.02201" lon="6.14108">
        <ele>689.2</ele>
        <time>2021-03-27T14:35:45Z</time>
      </trkpt>
      <trkpt lat="46.02201" lon="6.14103">
        <ele>689.6</ele>
        <time>2021-03-27T14:35:46Z</time>
      </trkpt>
      <trkpt lat="46.02201" lon="6.14099">
        <ele>689.6</ele>
        <time>2021-03-27T14:35:47Z</time>
      </trkpt>
      <trkpt lat="46.02201" lon="6.14095">
        <ele>689.8</ele>
        <time>2021-03-27T14:35:48Z</time>
      </trkpt>
      <trkpt lat="46.022" lon="6.1409">
        <ele>689.8</ele>
        <time>2021-03-27T14:35:49Z</time>
      </trkpt>
      <trkpt lat="46.022" lon="6.14086">
        <ele>690</ele>
        <time>2021-03-27T14:35:50Z</time>
      </trkpt>
      <trkpt lat="46.02199" lon="6.14081">
        <ele>690</ele>
        <time>2021-03-27T14:35:51Z</time>
      </trkpt>
      <trkpt lat="46.02199" lon="6.14077">
        <ele>690.2</ele>
        <time>2021-03-27T14:35:52Z</time>
      </trkpt>
      <trkpt lat="46.02199" lon="6.14073">
        <ele>690.4</ele>
        <time>2021-03-27T14:35:53Z</time>
      </trkpt>
      <trkpt lat="46.02199" lon="6.14068">
        <ele>690.6</ele>
        <time>2021-03-27T14:35:54Z</time>
      </trkpt>
      <trkpt lat="46.02199" lon="6.14063">
        <ele>690.6</ele>
        <time>2021-03-27T14:35:55Z</time>
      </trkpt>
      <trkpt lat="46.02198" lon="6.14058">
        <ele>691.2</ele>
        <time>2021-03-27T14:35:56Z</time>
      </trkpt>
      <trkpt lat="46.02198" lon="6.14054">
        <ele>691.4</ele>
        <time>2021-03-27T14:35:57Z</time>
      </trkpt>
      <trkpt lat="46.02197" lon="6.14049">
        <ele>691.6</ele>
        <time>2021-03-27T14:35:58Z</time>
      </trkpt>
      <trkpt lat="46.02197" lon="6.14044">
        <ele>691.8</ele>
        <time>2021-03-27T14:35:59Z</time>
      </trkpt>
      <trkpt lat="46.02197" lon="6.14039">
        <ele>692</ele>
        <time>2021-03-27T14:36:00Z</time>
      </trkpt>
      <trkpt lat="46.02196" lon="6.14033">
        <ele>692.2</ele>
        <time>2021-03-27T14:36:01Z</time>
      </trkpt>
      <trkpt lat="46.02196" lon="6.14028">
        <ele>692.4</ele>
        <time>2021-03-27T14:36:02Z</time>
      </trkpt>
      <trkpt lat="46.02195" lon="6.14023">
        <ele>692.4</ele>
        <time>2021-03-27T14:36:03Z</time>
      </trkpt>
      <trkpt lat="46.02195" lon="6.14018">
        <ele>692.8</ele>
        <time>2021-03-27T14:36:04Z</time>
      </trkpt>
      <trkpt lat="46.02194" lon="6.14013">
        <ele>693</ele>
        <time>2021-03-27T14:36:05Z</time>
      </trkpt>
      <trkpt lat="46.02194" lon="6.14008">
        <ele>693.2</ele>
        <time>2021-03-27T14:36:06Z</time>
      </trkpt>
      <trkpt lat="46.02193" lon="6.14003">
        <ele>693.6</ele>
        <time>2021-03-27T14:36:07Z</time>
      </trkpt>
      <trkpt lat="46.02193" lon="6.13998">
        <ele>694</ele>
        <time>2021-03-27T14:36:08Z</time>
      </trkpt>
      <trkpt lat="46.02193" lon="6.13993">
        <ele>693.8</ele>
        <time>2021-03-27T14:36:09Z</time>
      </trkpt>
      <trkpt lat="46.02193" lon="6.13988">
        <ele>694.2</ele>
        <time>2021-03-27T14:36:10Z</time>
      </trkpt>
      <trkpt lat="46.02192" lon="6.13983">
        <ele>694.4</ele>
        <time>2021-03-27T14:36:11Z</time>
      </trkpt>
      <trkpt lat="46.02192" lon="6.13978">
        <ele>694.6</ele>
        <time>2021-03-27T14:36:12Z</time>
      </trkpt>
      <trkpt lat="46.02192" lon="6.13973">
        <ele>694.8</ele>
        <time>2021-03-27T14:36:13Z</time>
      </trkpt>
      <trkpt lat="46.02191" lon="6.13969">
        <ele>695</ele>
        <time>2021-03-27T14:36:14Z</time>
      </trkpt>
      <trkpt lat="46.02191" lon="6.13964">
        <ele>695.2</ele>
        <time>2021-03-27T14:36:15Z</time>
      </trkpt>
      <trkpt lat="46.0219" lon="6.13959">
        <ele>695.4</ele>
        <time>2021-03-27T14:36:16Z</time>
      </trkpt>
      <trkpt lat="46.02189" lon="6.13955">
        <ele>695.4</ele>
        <time>2021-03-27T14:36:17Z</time>
      </trkpt>
      <trkpt lat="46.02189" lon="6.1395">
        <ele>695.8</ele>
        <time>2021-03-27T14:36:18Z</time>
      </trkpt>
      <trkpt lat="46.02188" lon="6.13946">
        <ele>696.2</ele>
        <time>2021-03-27T14:36:19Z</time>
      </trkpt>
      <trkpt lat="46.02188" lon="6.13941">
        <ele>696.2</ele>
        <time>2021-03-27T14:36:20Z</time>
      </trkpt>
      <trkpt lat="46.02187" lon="6.13937">
        <ele>696.4</ele>
        <time>2021-03-27T14:36:21Z</time>
      </trkpt>
      <trkpt lat="46.02186" lon="6.13933">
        <ele>696.6</ele>
        <time>2021-03-27T14:36:22Z</time>
      </trkpt>
      <trkpt lat="46.02184" lon="6.13929">
        <ele>696.6</ele>
        <time>2021-03-27T14:36:23Z</time>
      </trkpt>
      <trkpt lat="46.02183" lon="6.13925">
        <ele>696.8</ele>
        <time>2021-03-27T14:36:24Z</time>
      </trkpt>
      <trkpt lat="46.02182" lon="6.13921">
        <ele>697</ele>
        <time>2021-03-27T14:36:25Z</time>
      </trkpt>
      <trkpt lat="46.02181" lon="6.13916">
        <ele>697.4</ele>
        <time>2021-03-27T14:36:26Z</time>
      </trkpt>
      <trkpt lat="46.02179" lon="6.13913">
        <ele>697.4</ele>
        <time>2021-03-27T14:36:27Z</time>
      </trkpt>
      <trkpt lat="46.02178" lon="6.13909">
        <ele>697.8</ele>
        <time>2021-03-27T14:36:28Z</time>
      </trkpt>
      <trkpt lat="46.02176" lon="6.13906">
        <ele>698</ele>
        <time>2021-03-27T14:36:29Z</time>
      </trkpt>
      <trkpt lat="46.02175" lon="6.13903">
        <ele>698.2</ele>
        <time>2021-03-27T14:36:30Z</time>
      </trkpt>
      <trkpt lat="46.02173" lon="6.139">
        <ele>698.4</ele>
        <time>2021-03-27T14:36:31Z</time>
      </trkpt>
      <trkpt lat="46.02172" lon="6.13896">
        <ele>698.4</ele>
        <time>2021-03-27T14:36:32Z</time>
      </trkpt>
      <trkpt lat="46.02171" lon="6.13893">
        <ele>698.6</ele>
        <time>2021-03-27T14:36:33Z</time>
      </trkpt>
      <trkpt lat="46.02169" lon="6.13889">
        <ele>698.8</ele>
        <time>2021-03-27T14:36:34Z</time>
      </trkpt>
      <trkpt lat="46.02167" lon="6.13886">
        <ele>698.8</ele>
        <time>2021-03-27T14:36:35Z</time>
      </trkpt>
      <trkpt lat="46.02165" lon="6.13882">
        <ele>699</ele>
        <time>2021-03-27T14:36:36Z</time>
      </trkpt>
      <trkpt lat="46.02163" lon="6.13879">
        <ele>699.2</ele>
        <time>2021-03-27T14:36:37Z</time>
      </trkpt>
      <trkpt lat="46.02161" lon="6.13876">
        <ele>699.2</ele>
        <time>2021-03-27T14:36:38Z</time>
      </trkpt>
      <trkpt lat="46.02157" lon="6.13874">
        <ele>699.4</ele>
        <time>2021-03-27T14:36:39Z</time>
      </trkpt>
      <trkpt lat="46.02154" lon="6.13872">
        <ele>699.6</ele>
        <time>2021-03-27T14:36:40Z</time>
      </trkpt>
      <trkpt lat="46.02151" lon="6.1387">
        <ele>699.8</ele>
        <time>2021-03-27T14:36:41Z</time>
      </trkpt>
      <trkpt lat="46.02147" lon="6.13869">
        <ele>699.8</ele>
        <time>2021-03-27T14:36:42Z</time>
      </trkpt>
      <trkpt lat="46.02144" lon="6.13867">
        <ele>700.2</ele>
        <time>2021-03-27T14:36:43Z</time>
      </trkpt>
      <trkpt lat="46.02141" lon="6.13866">
        <ele>700.4</ele>
        <time>2021-03-27T14:36:44Z</time>
      </trkpt>
      <trkpt lat="46.02138" lon="6.13864">
        <ele>700.8</ele>
        <time>2021-03-27T14:36:45Z</time>
      </trkpt>
      <trkpt lat="46.02134" lon="6.13862">
        <ele>701.2</ele>
        <time>2021-03-27T14:36:46Z</time>
      </trkpt>
      <trkpt lat="46.02131" lon="6.13861">
        <ele>701.6</ele>
        <time>2021-03-27T14:36:47Z</time>
      </trkpt>
      <trkpt lat="46.02128" lon="6.1386">
        <ele>701.8</ele>
        <time>2021-03-27T14:36:48Z</time>
      </trkpt>
      <trkpt lat="46.02125" lon="6.13858">
        <ele>702.2</ele>
        <time>2021-03-27T14:36:49Z</time>
      </trkpt>
      <trkpt lat="46.02122" lon="6.13857">
        <ele>702.2</ele>
        <time>2021-03-27T14:36:50Z</time>
      </trkpt>
      <trkpt lat="46.02118" lon="6.13856">
        <ele>702.6</ele>
        <time>2021-03-27T14:36:51Z</time>
      </trkpt>
      <trkpt lat="46.02115" lon="6.13854">
        <ele>703</ele>
        <time>2021-03-27T14:36:52Z</time>
      </trkpt>
      <trkpt lat="46.02112" lon="6.13853">
        <ele>703.2</ele>
        <time>2021-03-27T14:36:53Z</time>
      </trkpt>
      <trkpt lat="46.02109" lon="6.13851">
        <ele>703.4</ele>
        <time>2021-03-27T14:36:54Z</time>
      </trkpt>
      <trkpt lat="46.02106" lon="6.1385">
        <ele>703.6</ele>
        <time>2021-03-27T14:36:55Z</time>
      </trkpt>
      <trkpt lat="46.02103" lon="6.13848">
        <ele>703.6</ele>
        <time>2021-03-27T14:36:56Z</time>
      </trkpt>
      <trkpt lat="46.021" lon="6.13847">
        <ele>704</ele>
        <time>2021-03-27T14:36:57Z</time>
      </trkpt>
      <trkpt lat="46.02097" lon="6.13846">
        <ele>704.2</ele>
        <time>2021-03-27T14:36:58Z</time>
      </trkpt>
      <trkpt lat="46.02094" lon="6.13844">
        <ele>704.4</ele>
        <time>2021-03-27T14:36:59Z</time>
      </trkpt>
      <trkpt lat="46.02091" lon="6.13843">
        <ele>704.6</ele>
        <time>2021-03-27T14:37:00Z</time>
      </trkpt>
      <trkpt lat="46.02088" lon="6.13841">
        <ele>705</ele>
        <time>2021-03-27T14:37:01Z</time>
      </trkpt>
      <trkpt lat="46.02085" lon="6.1384">
        <ele>705</ele>
        <time>2021-03-27T14:37:02Z</time>
      </trkpt>
      <trkpt lat="46.02082" lon="6.13838">
        <ele>705.2</ele>
        <time>2021-03-27T14:37:03Z</time>
      </trkpt>
      <trkpt lat="46.02079" lon="6.13837">
        <ele>705.4</ele>
        <time>2021-03-27T14:37:04Z</time>
      </trkpt>
      <trkpt lat="46.02077" lon="6.13836">
        <ele>705.6</ele>
        <time>2021-03-27T14:37:05Z</time>
      </trkpt>
      <trkpt lat="46.02074" lon="6.13834">
        <ele>706</ele>
        <time>2021-03-27T14:37:06Z</time>
      </trkpt>
      <trkpt lat="46.02071" lon="6.13833">
        <ele>706</ele>
        <time>2021-03-27T14:37:07Z</time>
      </trkpt>
      <trkpt lat="46.02068" lon="6.13831">
        <ele>706.2</ele>
        <time>2021-03-27T14:37:08Z</time>
      </trkpt>
      <trkpt lat="46.02065" lon="6.13829">
        <ele>706.4</ele>
        <time>2021-03-27T14:37:09Z</time>
      </trkpt>
      <trkpt lat="46.02062" lon="6.13828">
        <ele>706.8</ele>
        <time>2021-03-27T14:37:10Z</time>
      </trkpt>
      <trkpt lat="46.02058" lon="6.13826">
        <ele>706.8</ele>
        <time>2021-03-27T14:37:11Z</time>
      </trkpt>
      <trkpt lat="46.02055" lon="6.13825">
        <ele>707.2</ele>
        <time>2021-03-27T14:37:12Z</time>
      </trkpt>
      <trkpt lat="46.02053" lon="6.13823">
        <ele>707.2</ele>
        <time>2021-03-27T14:37:13Z</time>
      </trkpt>
      <trkpt lat="46.0205" lon="6.13822">
        <ele>707.4</ele>
        <time>2021-03-27T14:37:14Z</time>
      </trkpt>
      <trkpt lat="46.02047" lon="6.13821">
        <ele>707.8</ele>
        <time>2021-03-27T14:37:15Z</time>
      </trkpt>
      <trkpt lat="46.02044" lon="6.13819">
        <ele>707.8</ele>
        <time>2021-03-27T14:37:16Z</time>
      </trkpt>
      <trkpt lat="46.02041" lon="6.13818">
        <ele>708.2</ele>
        <time>2021-03-27T14:37:17Z</time>
      </trkpt>
      <trkpt lat="46.02039" lon="6.13816">
        <ele>708.4</ele>
        <time>2021-03-27T14:37:18Z</time>
      </trkpt>
      <trkpt lat="46.02036" lon="6.13815">
        <ele>708.8</ele>
        <time>2021-03-27T14:37:19Z</time>
      </trkpt>
      <trkpt lat="46.02033" lon="6.13814">
        <ele>709</ele>
        <time>2021-03-27T14:37:20Z</time>
      </trkpt>
      <trkpt lat="46.0203" lon="6.13812">
        <ele>709</ele>
        <time>2021-03-27T14:37:21Z</time>
      </trkpt>
      <trkpt lat="46.02026" lon="6.13811">
        <ele>709.2</ele>
        <time>2021-03-27T14:37:22Z</time>
      </trkpt>
      <trkpt lat="46.02023" lon="6.1381">
        <ele>709.2</ele>
        <time>2021-03-27T14:37:23Z</time>
      </trkpt>
      <trkpt lat="46.0202" lon="6.13808">
        <ele>709.2</ele>
        <time>2021-03-27T14:37:24Z</time>
      </trkpt>
      <trkpt lat="46.02017" lon="6.13807">
        <ele>709.6</ele>
        <time>2021-03-27T14:37:25Z</time>
      </trkpt>
      <trkpt lat="46.02014" lon="6.13806">
        <ele>709.6</ele>
        <time>2021-03-27T14:37:26Z</time>
      </trkpt>
      <trkpt lat="46.02012" lon="6.13805">
        <ele>710</ele>
        <time>2021-03-27T14:37:27Z</time>
      </trkpt>
      <trkpt lat="46.02009" lon="6.13804">
        <ele>710.2</ele>
        <time>2021-03-27T14:37:28Z</time>
      </trkpt>
      <trkpt lat="46.02006" lon="6.13803">
        <ele>710.6</ele>
        <time>2021-03-27T14:37:29Z</time>
      </trkpt>
      <trkpt lat="46.02003" lon="6.13802">
        <ele>711</ele>
        <time>2021-03-27T14:37:30Z</time>
      </trkpt>
      <trkpt lat="46.02001" lon="6.13801">
        <ele>711.2</ele>
        <time>2021-03-27T14:37:31Z</time>
      </trkpt>
      <trkpt lat="46.01998" lon="6.13799">
        <ele>711.6</ele>
        <time>2021-03-27T14:37:32Z</time>
      </trkpt>
      <trkpt lat="46.01995" lon="6.13797">
        <ele>711.8</ele>
        <time>2021-03-27T14:37:33Z</time>
      </trkpt>
      <trkpt lat="46.01993" lon="6.13794">
        <ele>712</ele>
        <time>2021-03-27T14:37:34Z</time>
      </trkpt>
      <trkpt lat="46.01991" lon="6.13791">
        <ele>712.2</ele>
        <time>2021-03-27T14:37:35Z</time>
      </trkpt>
      <trkpt lat="46.01989" lon="6.13788">
        <ele>712.4</ele>
        <time>2021-03-27T14:37:36Z</time>
      </trkpt>
      <trkpt lat="46.01988" lon="6.13784">
        <ele>712.6</ele>
        <time>2021-03-27T14:37:37Z</time>
      </trkpt>
      <trkpt lat="46.01987" lon="6.13781">
        <ele>712.4</ele>
        <time>2021-03-27T14:37:38Z</time>
      </trkpt>
      <trkpt lat="46.01986" lon="6.13777">
        <ele>712.6</ele>
        <time>2021-03-27T14:37:39Z</time>
      </trkpt>
      <trkpt lat="46.01986" lon="6.13774">
        <ele>712.8</ele>
        <time>2021-03-27T14:37:40Z</time>
      </trkpt>
      <trkpt lat="46.01987" lon="6.1377">
        <ele>713</ele>
        <time>2021-03-27T14:37:41Z</time>
      </trkpt>
      <trkpt lat="46.01988" lon="6.13767">
        <ele>713</ele>
        <time>2021-03-27T14:37:42Z</time>
      </trkpt>
      <trkpt lat="46.0199" lon="6.13764">
        <ele>713.2</ele>
        <time>2021-03-27T14:37:43Z</time>
      </trkpt>
      <trkpt lat="46.01992" lon="6.13761">
        <ele>713.4</ele>
        <time>2021-03-27T14:37:44Z</time>
      </trkpt>
      <trkpt lat="46.01994" lon="6.13759">
        <ele>713.6</ele>
        <time>2021-03-27T14:37:45Z</time>
      </trkpt>
      <trkpt lat="46.01997" lon="6.13757">
        <ele>714</ele>
        <time>2021-03-27T14:37:46Z</time>
      </trkpt>
      <trkpt lat="46.02" lon="6.13757">
        <ele>714.4</ele>
        <time>2021-03-27T14:37:47Z</time>
      </trkpt>
      <trkpt lat="46.02002" lon="6.13757">
        <ele>714.6</ele>
        <time>2021-03-27T14:37:48Z</time>
      </trkpt>
      <trkpt lat="46.02005" lon="6.13757">
        <ele>715</ele>
        <time>2021-03-27T14:37:49Z</time>
      </trkpt>
      <trkpt lat="46.02008" lon="6.13757">
        <ele>715</ele>
        <time>2021-03-27T14:37:50Z</time>
      </trkpt>
      <trkpt lat="46.02011" lon="6.13757">
        <ele>715.4</ele>
        <time>2021-03-27T14:37:51Z</time>
      </trkpt>
      <trkpt lat="46.02015" lon="6.13757">
        <ele>715.4</ele>
        <time>2021-03-27T14:37:52Z</time>
      </trkpt>
      <trkpt lat="46.02018" lon="6.13757">
        <ele>715.6</ele>
        <time>2021-03-27T14:37:53Z</time>
      </trkpt>
      <trkpt lat="46.02021" lon="6.13757">
        <ele>715.8</ele>
        <time>2021-03-27T14:37:54Z</time>
      </trkpt>
      <trkpt lat="46.02024" lon="6.13756">
        <ele>716.2</ele>
        <time>2021-03-27T14:37:55Z</time>
      </trkpt>
      <trkpt lat="46.02028" lon="6.13756">
        <ele>716.2</ele>
        <time>2021-03-27T14:37:56Z</time>
      </trkpt>
      <trkpt lat="46.02032" lon="6.13756">
        <ele>716.4</ele>
        <time>2021-03-27T14:37:57Z</time>
      </trkpt>
      <trkpt lat="46.02035" lon="6.13755">
        <ele>716.8</ele>
        <time>2021-03-27T14:37:58Z</time>
      </trkpt>
      <trkpt lat="46.02039" lon="6.13755">
        <ele>716.8</ele>
        <time>2021-03-27T14:37:59Z</time>
      </trkpt>
      <trkpt lat="46.02042" lon="6.13754">
        <ele>716.8</ele>
        <time>2021-03-27T14:38:00Z</time>
      </trkpt>
      <trkpt lat="46.02045" lon="6.13754">
        <ele>717.2</ele>
        <time>2021-03-27T14:38:01Z</time>
      </trkpt>
      <trkpt lat="46.02049" lon="6.13753">
        <ele>717.4</ele>
        <time>2021-03-27T14:38:02Z</time>
      </trkpt>
      <trkpt lat="46.02052" lon="6.13752">
        <ele>717.6</ele>
        <time>2021-03-27T14:38:03Z</time>
      </trkpt>
      <trkpt lat="46.02055" lon="6.13751">
        <ele>717.8</ele>
        <time>2021-03-27T14:38:04Z</time>
      </trkpt>
      <trkpt lat="46.02059" lon="6.13751">
        <ele>717.8</ele>
        <time>2021-03-27T14:38:05Z</time>
      </trkpt>
      <trkpt lat="46.02062" lon="6.1375">
        <ele>718.2</ele>
        <time>2021-03-27T14:38:06Z</time>
      </trkpt>
      <trkpt lat="46.02065" lon="6.13749">
        <ele>718.2</ele>
        <time>2021-03-27T14:38:07Z</time>
      </trkpt>
      <trkpt lat="46.02068" lon="6.13749">
        <ele>718.8</ele>
        <time>2021-03-27T14:38:08Z</time>
      </trkpt>
      <trkpt lat="46.02071" lon="6.13748">
        <ele>718.8</ele>
        <time>2021-03-27T14:38:09Z</time>
      </trkpt>
      <trkpt lat="46.02074" lon="6.13747">
        <ele>719</ele>
        <time>2021-03-27T14:38:10Z</time>
      </trkpt>
      <trkpt lat="46.02078" lon="6.13747">
        <ele>719.2</ele>
        <time>2021-03-27T14:38:11Z</time>
      </trkpt>
      <trkpt lat="46.02081" lon="6.13746">
        <ele>719.2</ele>
        <time>2021-03-27T14:38:12Z</time>
      </trkpt>
      <trkpt lat="46.02084" lon="6.13745">
        <ele>719.6</ele>
        <time>2021-03-27T14:38:13Z</time>
      </trkpt>
      <trkpt lat="46.02087" lon="6.13745">
        <ele>719.6</ele>
        <time>2021-03-27T14:38:14Z</time>
      </trkpt>
      <trkpt lat="46.0209" lon="6.13744">
        <ele>720</ele>
        <time>2021-03-27T14:38:15Z</time>
      </trkpt>
      <trkpt lat="46.02093" lon="6.13744">
        <ele>720</ele>
        <time>2021-03-27T14:38:16Z</time>
      </trkpt>
      <trkpt lat="46.02097" lon="6.13743">
        <ele>720.6</ele>
        <time>2021-03-27T14:38:17Z</time>
      </trkpt>
      <trkpt lat="46.021" lon="6.13743">
        <ele>720.6</ele>
        <time>2021-03-27T14:38:18Z</time>
      </trkpt>
      <trkpt lat="46.02103" lon="6.13742">
        <ele>720.8</ele>
        <time>2021-03-27T14:38:19Z</time>
      </trkpt>
      <trkpt lat="46.02106" lon="6.13742">
        <ele>721</ele>
        <time>2021-03-27T14:38:20Z</time>
      </trkpt>
      <trkpt lat="46.02109" lon="6.13741">
        <ele>721.2</ele>
        <time>2021-03-27T14:38:21Z</time>
      </trkpt>
      <trkpt lat="46.02111" lon="6.13741">
        <ele>721.4</ele>
        <time>2021-03-27T14:38:22Z</time>
      </trkpt>
      <trkpt lat="46.02115" lon="6.1374">
        <ele>721.8</ele>
        <time>2021-03-27T14:38:23Z</time>
      </trkpt>
      <trkpt lat="46.02118" lon="6.1374">
        <ele>722</ele>
        <time>2021-03-27T14:38:24Z</time>
      </trkpt>
      <trkpt lat="46.02121" lon="6.13739">
        <ele>722.2</ele>
        <time>2021-03-27T14:38:25Z</time>
      </trkpt>
      <trkpt lat="46.02124" lon="6.13738">
        <ele>722.4</ele>
        <time>2021-03-27T14:38:26Z</time>
      </trkpt>
      <trkpt lat="46.02126" lon="6.13738">
        <ele>722.8</ele>
        <time>2021-03-27T14:38:27Z</time>
      </trkpt>
      <trkpt lat="46.02129" lon="6.13738">
        <ele>723</ele>
        <time>2021-03-27T14:38:28Z</time>
      </trkpt>
      <trkpt lat="46.02132" lon="6.13737">
        <ele>723.2</ele>
        <time>2021-03-27T14:38:29Z</time>
      </trkpt>
      <trkpt lat="46.02135" lon="6.13737">
        <ele>723.2</ele>
        <time>2021-03-27T14:38:30Z</time>
      </trkpt>
      <trkpt lat="46.02138" lon="6.13737">
        <ele>723.4</ele>
        <time>2021-03-27T14:38:31Z</time>
      </trkpt>
      <trkpt lat="46.02141" lon="6.13736">
        <ele>723.6</ele>
        <time>2021-03-27T14:38:32Z</time>
      </trkpt>
      <trkpt lat="46.02144" lon="6.13736">
        <ele>724</ele>
        <time>2021-03-27T14:38:33Z</time>
      </trkpt>
      <trkpt lat="46.02147" lon="6.13735">
        <ele>724.2</ele>
        <time>2021-03-27T14:38:34Z</time>
      </trkpt>
      <trkpt lat="46.0215" lon="6.13735">
        <ele>724.4</ele>
        <time>2021-03-27T14:38:35Z</time>
      </trkpt>
      <trkpt lat="46.02153" lon="6.13734">
        <ele>724.8</ele>
        <time>2021-03-27T14:38:36Z</time>
      </trkpt>
      <trkpt lat="46.02156" lon="6.13734">
        <ele>724.8</ele>
        <time>2021-03-27T14:38:37Z</time>
      </trkpt>
      <trkpt lat="46.02159" lon="6.13734">
        <ele>725</ele>
        <time>2021-03-27T14:38:38Z</time>
      </trkpt>
      <trkpt lat="46.02162" lon="6.13733">
        <ele>725.2</ele>
        <time>2021-03-27T14:38:39Z</time>
      </trkpt>
      <trkpt lat="46.02165" lon="6.13732">
        <ele>725.4</ele>
        <time>2021-03-27T14:38:40Z</time>
      </trkpt>
      <trkpt lat="46.02168" lon="6.13731">
        <ele>725.6</ele>
        <time>2021-03-27T14:38:41Z</time>
      </trkpt>
      <trkpt lat="46.02171" lon="6.13731">
        <ele>725.8</ele>
        <time>2021-03-27T14:38:42Z</time>
      </trkpt>
      <trkpt lat="46.02174" lon="6.1373">
        <ele>725.8</ele>
        <time>2021-03-27T14:38:43Z</time>
      </trkpt>
      <trkpt lat="46.02176" lon="6.1373">
        <ele>726</ele>
        <time>2021-03-27T14:38:44Z</time>
      </trkpt>
      <trkpt lat="46.02179" lon="6.1373">
        <ele>726.4</ele>
        <time>2021-03-27T14:38:45Z</time>
      </trkpt>
      <trkpt lat="46.02182" lon="6.1373">
        <ele>726.6</ele>
        <time>2021-03-27T14:38:46Z</time>
      </trkpt>
      <trkpt lat="46.02185" lon="6.13729">
        <ele>726.8</ele>
        <time>2021-03-27T14:38:47Z</time>
      </trkpt>
      <trkpt lat="46.02188" lon="6.13729">
        <ele>727</ele>
        <time>2021-03-27T14:38:48Z</time>
      </trkpt>
      <trkpt lat="46.02191" lon="6.13729">
        <ele>727.2</ele>
        <time>2021-03-27T14:38:49Z</time>
      </trkpt>
      <trkpt lat="46.02194" lon="6.13729">
        <ele>727.6</ele>
        <time>2021-03-27T14:38:50Z</time>
      </trkpt>
      <trkpt lat="46.02197" lon="6.13728">
        <ele>728</ele>
        <time>2021-03-27T14:38:51Z</time>
      </trkpt>
      <trkpt lat="46.022" lon="6.13728">
        <ele>728.4</ele>
        <time>2021-03-27T14:38:52Z</time>
      </trkpt>
      <trkpt lat="46.02203" lon="6.13727">
        <ele>728.4</ele>
        <time>2021-03-27T14:38:53Z</time>
      </trkpt>
      <trkpt lat="46.02207" lon="6.13727">
        <ele>728.8</ele>
        <time>2021-03-27T14:38:54Z</time>
      </trkpt>
      <trkpt lat="46.0221" lon="6.13726">
        <ele>729</ele>
        <time>2021-03-27T14:38:55Z</time>
      </trkpt>
      <trkpt lat="46.02214" lon="6.13726">
        <ele>729.4</ele>
        <time>2021-03-27T14:38:56Z</time>
      </trkpt>
      <trkpt lat="46.02217" lon="6.13725">
        <ele>729.6</ele>
        <time>2021-03-27T14:38:57Z</time>
      </trkpt>
      <trkpt lat="46.0222" lon="6.13725">
        <ele>729.8</ele>
        <time>2021-03-27T14:38:58Z</time>
      </trkpt>
      <trkpt lat="46.02223" lon="6.13725">
        <ele>730.2</ele>
        <time>2021-03-27T14:38:59Z</time>
      </trkpt>
      <trkpt lat="46.02227" lon="6.13724">
        <ele>730.4</ele>
        <time>2021-03-27T14:39:00Z</time>
      </trkpt>
      <trkpt lat="46.0223" lon="6.13723">
        <ele>730.6</ele>
        <time>2021-03-27T14:39:01Z</time>
      </trkpt>
      <trkpt lat="46.02234" lon="6.13723">
        <ele>731</ele>
        <time>2021-03-27T14:39:02Z</time>
      </trkpt>
      <trkpt lat="46.02237" lon="6.13722">
        <ele>731.2</ele>
        <time>2021-03-27T14:39:03Z</time>
      </trkpt>
      <trkpt lat="46.0224" lon="6.13721">
        <ele>731.4</ele>
        <time>2021-03-27T14:39:04Z</time>
      </trkpt>
      <trkpt lat="46.02244" lon="6.13721">
        <ele>731.8</ele>
        <time>2021-03-27T14:39:05Z</time>
      </trkpt>
      <trkpt lat="46.02247" lon="6.1372">
        <ele>731.8</ele>
        <time>2021-03-27T14:39:06Z</time>
      </trkpt>
      <trkpt lat="46.0225" lon="6.1372">
        <ele>731.8</ele>
        <time>2021-03-27T14:39:07Z</time>
      </trkpt>
      <trkpt lat="46.02253" lon="6.13719">
        <ele>732</ele>
        <time>2021-03-27T14:39:08Z</time>
      </trkpt>
      <trkpt lat="46.02256" lon="6.13719">
        <ele>732.2</ele>
        <time>2021-03-27T14:39:09Z</time>
      </trkpt>
      <trkpt lat="46.02259" lon="6.13719">
        <ele>732.2</ele>
        <time>2021-03-27T14:39:10Z</time>
      </trkpt>
      <trkpt lat="46.02262" lon="6.13718">
        <ele>732.4</ele>
        <time>2021-03-27T14:39:11Z</time>
      </trkpt>
      <trkpt lat="46.02265" lon="6.13718">
        <ele>732.6</ele>
        <time>2021-03-27T14:39:12Z</time>
      </trkpt>
      <trkpt lat="46.02268" lon="6.13717">
        <ele>732.8</ele>
        <time>2021-03-27T14:39:13Z</time>
      </trkpt>
      <trkpt lat="46.02271" lon="6.13716">
        <ele>733.2</ele>
        <time>2021-03-27T14:39:14Z</time>
      </trkpt>
      <trkpt lat="46.02274" lon="6.13716">
        <ele>733.4</ele>
        <time>2021-03-27T14:39:15Z</time>
      </trkpt>
      <trkpt lat="46.02277" lon="6.13716">
        <ele>733.4</ele>
        <time>2021-03-27T14:39:16Z</time>
      </trkpt>
      <trkpt lat="46.0228" lon="6.13715">
        <ele>733.8</ele>
        <time>2021-03-27T14:39:17Z</time>
      </trkpt>
      <trkpt lat="46.02284" lon="6.13715">
        <ele>734</ele>
        <time>2021-03-27T14:39:18Z</time>
      </trkpt>
      <trkpt lat="46.02287" lon="6.13714">
        <ele>734</ele>
        <time>2021-03-27T14:39:19Z</time>
      </trkpt>
      <trkpt lat="46.0229" lon="6.13714">
        <ele>734.4</ele>
        <time>2021-03-27T14:39:20Z</time>
      </trkpt>
      <trkpt lat="46.02293" lon="6.13713">
        <ele>734.4</ele>
        <time>2021-03-27T14:39:21Z</time>
      </trkpt>
      <trkpt lat="46.02296" lon="6.13713">
        <ele>734.8</ele>
        <time>2021-03-27T14:39:22Z</time>
      </trkpt>
      <trkpt lat="46.02298" lon="6.13713">
        <ele>735</ele>
        <time>2021-03-27T14:39:23Z</time>
      </trkpt>
      <trkpt lat="46.02302" lon="6.13713">
        <ele>735.2</ele>
        <time>2021-03-27T14:39:24Z</time>
      </trkpt>
      <trkpt lat="46.02305" lon="6.13712">
        <ele>735.2</ele>
        <time>2021-03-27T14:39:25Z</time>
      </trkpt>
      <trkpt lat="46.02308" lon="6.13712">
        <ele>735.6</ele>
        <time>2021-03-27T14:39:26Z</time>
      </trkpt>
      <trkpt lat="46.02311" lon="6.13712">
        <ele>735.8</ele>
        <time>2021-03-27T14:39:27Z</time>
      </trkpt>
      <trkpt lat="46.02314" lon="6.13711">
        <ele>736</ele>
        <time>2021-03-27T14:39:28Z</time>
      </trkpt>
      <trkpt lat="46.02317" lon="6.1371">
        <ele>736.4</ele>
        <time>2021-03-27T14:39:29Z</time>
      </trkpt>
      <trkpt lat="46.02319" lon="6.13709">
        <ele>736.6</ele>
        <time>2021-03-27T14:39:30Z</time>
      </trkpt>
      <trkpt lat="46.02322" lon="6.13708">
        <ele>737</ele>
        <time>2021-03-27T14:39:31Z</time>
      </trkpt>
      <trkpt lat="46.02325" lon="6.13708">
        <ele>737.2</ele>
        <time>2021-03-27T14:39:32Z</time>
      </trkpt>
      <trkpt lat="46.02328" lon="6.13707">
        <ele>737.4</ele>
        <time>2021-03-27T14:39:33Z</time>
      </trkpt>
      <trkpt lat="46.02331" lon="6.13706">
        <ele>737.6</ele>
        <time>2021-03-27T14:39:34Z</time>
      </trkpt>
      <trkpt lat="46.02334" lon="6.13704">
        <ele>737.6</ele>
        <time>2021-03-27T14:39:35Z</time>
      </trkpt>
      <trkpt lat="46.02337" lon="6.13703">
        <ele>737.8</ele>
        <time>2021-03-27T14:39:36Z</time>
      </trkpt>
      <trkpt lat="46.0234" lon="6.13701">
        <ele>738</ele>
        <time>2021-03-27T14:39:37Z</time>
      </trkpt>
      <trkpt lat="46.02342" lon="6.137">
        <ele>738.4</ele>
        <time>2021-03-27T14:39:38Z</time>
      </trkpt>
      <trkpt lat="46.02345" lon="6.13698">
        <ele>738.6</ele>
        <time>2021-03-27T14:39:39Z</time>
      </trkpt>
      <trkpt lat="46.02348" lon="6.13696">
        <ele>739</ele>
        <time>2021-03-27T14:39:40Z</time>
      </trkpt>
      <trkpt lat="46.0235" lon="6.13693">
        <ele>739.4</ele>
        <time>2021-03-27T14:39:41Z</time>
      </trkpt>
      <trkpt lat="46.02353" lon="6.13691">
        <ele>739.6</ele>
        <time>2021-03-27T14:39:42Z</time>
      </trkpt>
      <trkpt lat="46.02355" lon="6.13689">
        <ele>739.8</ele>
        <time>2021-03-27T14:39:43Z</time>
      </trkpt>
      <trkpt lat="46.02358" lon="6.13687">
        <ele>739.8</ele>
        <time>2021-03-27T14:39:44Z</time>
      </trkpt>
      <trkpt lat="46.0236" lon="6.13684">
        <ele>740</ele>
        <time>2021-03-27T14:39:45Z</time>
      </trkpt>
      <trkpt lat="46.02362" lon="6.13681">
        <ele>740.4</ele>
        <time>2021-03-27T14:39:46Z</time>
      </trkpt>
      <trkpt lat="46.02365" lon="6.13679">
        <ele>740.6</ele>
        <time>2021-03-27T14:39:47Z</time>
      </trkpt>
      <trkpt lat="46.02367" lon="6.13675">
        <ele>741</ele>
        <time>2021-03-27T14:39:48Z</time>
      </trkpt>
      <trkpt lat="46.02369" lon="6.13672">
        <ele>741.2</ele>
        <time>2021-03-27T14:39:49Z</time>
      </trkpt>
      <trkpt lat="46.02371" lon="6.13669">
        <ele>741.6</ele>
        <time>2021-03-27T14:39:50Z</time>
      </trkpt>
      <trkpt lat="46.02374" lon="6.13666">
        <ele>741.8</ele>
        <time>2021-03-27T14:39:51Z</time>
      </trkpt>
      <trkpt lat="46.02376" lon="6.13663">
        <ele>741.8</ele>
        <time>2021-03-27T14:39:52Z</time>
      </trkpt>
      <trkpt lat="46.02378" lon="6.1366">
        <ele>742</ele>
        <time>2021-03-27T14:39:53Z</time>
      </trkpt>
      <trkpt lat="46.0238" lon="6.13657">
        <ele>742.2</ele>
        <time>2021-03-27T14:39:54Z</time>
      </trkpt>
      <trkpt lat="46.02382" lon="6.13654">
        <ele>742.2</ele>
        <time>2021-03-27T14:39:55Z</time>
      </trkpt>
      <trkpt lat="46.02384" lon="6.13651">
        <ele>742.6</ele>
        <time>2021-03-27T14:39:56Z</time>
      </trkpt>
      <trkpt lat="46.02386" lon="6.13648">
        <ele>742.8</ele>
        <time>2021-03-27T14:39:57Z</time>
      </trkpt>
      <trkpt lat="46.02389" lon="6.13645">
        <ele>742.8</ele>
        <time>2021-03-27T14:39:58Z</time>
      </trkpt>
      <trkpt lat="46.02391" lon="6.13642">
        <ele>743</ele>
        <time>2021-03-27T14:39:59Z</time>
      </trkpt>
      <trkpt lat="46.02393" lon="6.13639">
        <ele>743.2</ele>
        <time>2021-03-27T14:40:00Z</time>
      </trkpt>
      <trkpt lat="46.02395" lon="6.13636">
        <ele>743.6</ele>
        <time>2021-03-27T14:40:01Z</time>
      </trkpt>
      <trkpt lat="46.02397" lon="6.13633">
        <ele>743.8</ele>
        <time>2021-03-27T14:40:02Z</time>
      </trkpt>
      <trkpt lat="46.02399" lon="6.13629">
        <ele>744</ele>
        <time>2021-03-27T14:40:03Z</time>
      </trkpt>
      <trkpt lat="46.02401" lon="6.13626">
        <ele>744.2</ele>
        <time>2021-03-27T14:40:04Z</time>
      </trkpt>
      <trkpt lat="46.02403" lon="6.13623">
        <ele>744.4</ele>
        <time>2021-03-27T14:40:05Z</time>
      </trkpt>
      <trkpt lat="46.02405" lon="6.1362">
        <ele>744.6</ele>
        <time>2021-03-27T14:40:06Z</time>
      </trkpt>
      <trkpt lat="46.02407" lon="6.13617">
        <ele>745.2</ele>
        <time>2021-03-27T14:40:07Z</time>
      </trkpt>
      <trkpt lat="46.02409" lon="6.13614">
        <ele>745.4</ele>
        <time>2021-03-27T14:40:08Z</time>
      </trkpt>
      <trkpt lat="46.02412" lon="6.1361">
        <ele>745.6</ele>
        <time>2021-03-27T14:40:09Z</time>
      </trkpt>
      <trkpt lat="46.02414" lon="6.13607">
        <ele>746</ele>
        <time>2021-03-27T14:40:10Z</time>
      </trkpt>
      <trkpt lat="46.02416" lon="6.13604">
        <ele>746</ele>
        <time>2021-03-27T14:40:11Z</time>
      </trkpt>
      <trkpt lat="46.02418" lon="6.13601">
        <ele>746</ele>
        <time>2021-03-27T14:40:12Z</time>
      </trkpt>
      <trkpt lat="46.0242" lon="6.13598">
        <ele>746.2</ele>
        <time>2021-03-27T14:40:13Z</time>
      </trkpt>
      <trkpt lat="46.02422" lon="6.13595">
        <ele>746.4</ele>
        <time>2021-03-27T14:40:14Z</time>
      </trkpt>
      <trkpt lat="46.02425" lon="6.13592">
        <ele>746.6</ele>
        <time>2021-03-27T14:40:15Z</time>
      </trkpt>
      <trkpt lat="46.02427" lon="6.13589">
        <ele>747</ele>
        <time>2021-03-27T14:40:16Z</time>
      </trkpt>
      <trkpt lat="46.02429" lon="6.13585">
        <ele>747.4</ele>
        <time>2021-03-27T14:40:17Z</time>
      </trkpt>
      <trkpt lat="46.02431" lon="6.13582">
        <ele>747.6</ele>
        <time>2021-03-27T14:40:18Z</time>
      </trkpt>
      <trkpt lat="46.02433" lon="6.13579">
        <ele>748</ele>
        <time>2021-03-27T14:40:19Z</time>
      </trkpt>
      <trkpt lat="46.02435" lon="6.13576">
        <ele>748.2</ele>
        <time>2021-03-27T14:40:20Z</time>
      </trkpt>
      <trkpt lat="46.02438" lon="6.13572">
        <ele>748.4</ele>
        <time>2021-03-27T14:40:21Z</time>
      </trkpt>
      <trkpt lat="46.0244" lon="6.13569">
        <ele>748.8</ele>
        <time>2021-03-27T14:40:22Z</time>
      </trkpt>
      <trkpt lat="46.02443" lon="6.13566">
        <ele>749</ele>
        <time>2021-03-27T14:40:23Z</time>
      </trkpt>
      <trkpt lat="46.02445" lon="6.13562">
        <ele>749.2</ele>
        <time>2021-03-27T14:40:24Z</time>
      </trkpt>
      <trkpt lat="46.02448" lon="6.13558">
        <ele>749</ele>
        <time>2021-03-27T14:40:25Z</time>
      </trkpt>
      <trkpt lat="46.0245" lon="6.13555">
        <ele>749.4</ele>
        <time>2021-03-27T14:40:26Z</time>
      </trkpt>
      <trkpt lat="46.02453" lon="6.13551">
        <ele>749.4</ele>
        <time>2021-03-27T14:40:27Z</time>
      </trkpt>
      <trkpt lat="46.02455" lon="6.13547">
        <ele>749.4</ele>
        <time>2021-03-27T14:40:28Z</time>
      </trkpt>
      <trkpt lat="46.02457" lon="6.13543">
        <ele>749.4</ele>
        <time>2021-03-27T14:40:29Z</time>
      </trkpt>
      <trkpt lat="46.0246" lon="6.13539">
        <ele>749.6</ele>
        <time>2021-03-27T14:40:30Z</time>
      </trkpt>
      <trkpt lat="46.02462" lon="6.13535">
        <ele>749.6</ele>
        <time>2021-03-27T14:40:31Z</time>
      </trkpt>
      <trkpt lat="46.02463" lon="6.13531">
        <ele>749.8</ele>
        <time>2021-03-27T14:40:32Z</time>
      </trkpt>
      <trkpt lat="46.02463" lon="6.13527">
        <ele>749.8</ele>
        <time>2021-03-27T14:40:33Z</time>
      </trkpt>
      <trkpt lat="46.02462" lon="6.13525">
        <ele>749.6</ele>
        <time>2021-03-27T14:40:34Z</time>
      </trkpt>
      <trkpt lat="46.02462" lon="6.13524">
        <ele>749.8</ele>
        <time>2021-03-27T14:40:35Z</time>
      </trkpt>
      <trkpt lat="46.02462" lon="6.13524">
        <ele>749.8</ele>
        <time>2021-03-27T14:40:36Z</time>
      </trkpt>
      <trkpt lat="46.02462" lon="6.13524">
        <ele>749.8</ele>
        <time>2021-03-27T14:40:37Z</time>
      </trkpt>
      <trkpt lat="46.02462" lon="6.13524">
        <ele>750</ele>
        <time>2021-03-27T14:40:38Z</time>
      </trkpt>
      <trkpt lat="46.02462" lon="6.13524">
        <ele>750</ele>
        <time>2021-03-27T14:40:39Z</time>
      </trkpt>
      <trkpt lat="46.02462" lon="6.13524">
        <ele>750</ele>
        <time>2021-03-27T14:40:40Z</time>
      </trkpt>
      <trkpt lat="46.02462" lon="6.13524">
        <ele>750</ele>
        <time>2021-03-27T14:40:41Z</time>
      </trkpt>
      <trkpt lat="46.02462" lon="6.13524">
        <ele>750</ele>
        <time>2021-03-27T14:40:42Z</time>
      </trkpt>
      <trkpt lat="46.02462" lon="6.13524">
        <ele>750</ele>
        <time>2021-03-27T14:40:43Z</time>
      </trkpt>
      <trkpt lat="46.02462" lon="6.13524">
        <ele>750.2</ele>
        <time>2021-03-27T14:40:44Z</time>
      </trkpt>
      <trkpt lat="46.02462" lon="6.13524">
        <ele>750.4</ele>
        <time>2021-03-27T14:40:45Z</time>
      </trkpt>
      <trkpt lat="46.02462" lon="6.13524">
        <ele>750.4</ele>
        <time>2021-03-27T14:40:46Z</time>
      </trkpt>
      <trkpt lat="46.02462" lon="6.13523">
        <ele>750.4</ele>
        <time>2021-03-27T14:40:47Z</time>
      </trkpt>
      <trkpt lat="46.02462" lon="6.13523">
        <ele>750.4</ele>
        <time>2021-03-27T14:40:48Z</time>
      </trkpt>
      <trkpt lat="46.02462" lon="6.13523">
        <ele>750.4</ele>
        <time>2021-03-27T14:40:49Z</time>
      </trkpt>
      <trkpt lat="46.02462" lon="6.13524">
        <ele>750.6</ele>
        <time>2021-03-27T14:40:50Z</time>
      </trkpt>
      <trkpt lat="46.02462" lon="6.13524">
        <ele>750.4</ele>
        <time>2021-03-27T14:40:51Z</time>
      </trkpt>
      <trkpt lat="46.02462" lon="6.13524">
        <ele>750.6</ele>
        <time>2021-03-27T14:40:52Z</time>
      </trkpt>
      <trkpt lat="46.02462" lon="6.13524">
        <ele>750.6</ele>
        <time>2021-03-27T14:40:53Z</time>
      </trkpt>
      <trkpt lat="46.02461" lon="6.13524">
        <ele>750.6</ele>
        <time>2021-03-27T14:40:54Z</time>
      </trkpt>
      <trkpt lat="46.02461" lon="6.13524">
        <ele>750.6</ele>
        <time>2021-03-27T14:40:55Z</time>
      </trkpt>
      <trkpt lat="46.02462" lon="6.13524">
        <ele>750.6</ele>
        <time>2021-03-27T14:40:56Z</time>
      </trkpt>
      <trkpt lat="46.02462" lon="6.13524">
        <ele>750.6</ele>
        <time>2021-03-27T14:40:57Z</time>
      </trkpt>
      <trkpt lat="46.02462" lon="6.13524">
        <ele>750.6</ele>
        <time>2021-03-27T14:40:58Z</time>
      </trkpt>
      <trkpt lat="46.02462" lon="6.13524">
        <ele>750.6</ele>
        <time>2021-03-27T14:40:59Z</time>
      </trkpt>
      <trkpt lat="46.02462" lon="6.13524">
        <ele>750.6</ele>
        <time>2021-03-27T14:41:00Z</time>
      </trkpt>
      <trkpt lat="46.02462" lon="6.13524">
        <ele>750.6</ele>
        <time>2021-03-27T14:41:01Z</time>
      </trkpt>
      <trkpt lat="46.02462" lon="6.13524">
        <ele>750.8</ele>
        <time>2021-03-27T14:41:02Z</time>
      </trkpt>
      <trkpt lat="46.02462" lon="6.13524">
        <ele>750.6</ele>
        <time>2021-03-27T14:41:03Z</time>
      </trkpt>
      <trkpt lat="46.02462" lon="6.13524">
        <ele>750.6</ele>
        <time>2021-03-27T14:41:04Z</time>
      </trkpt>
      <trkpt lat="46.02462" lon="6.13524">
        <ele>750.6</ele>
        <time>2021-03-27T14:41:05Z</time>
      </trkpt>
      <trkpt lat="46.02462" lon="6.13523">
        <ele>750.8</ele>
        <time>2021-03-27T14:41:06Z</time>
      </trkpt>
      <trkpt lat="46.02462" lon="6.13523">
        <ele>750.6</ele>
        <time>2021-03-27T14:41:07Z</time>
      </trkpt>
      <trkpt lat="46.02462" lon="6.13523">
        <ele>750.6</ele>
        <time>2021-03-27T14:41:08Z</time>
      </trkpt>
      <trkpt lat="46.02462" lon="6.13523">
        <ele>750.6</ele>
        <time>2021-03-27T14:41:09Z</time>
      </trkpt>
      <trkpt lat="46.02462" lon="6.13523">
        <ele>750.6</ele>
        <time>2021-03-27T14:41:10Z</time>
      </trkpt>
      <trkpt lat="46.02462" lon="6.13523">
        <ele>750.6</ele>
        <time>2021-03-27T14:41:11Z</time>
      </trkpt>
      <trkpt lat="46.02462" lon="6.13523">
        <ele>750.4</ele>
        <time>2021-03-27T14:41:12Z</time>
      </trkpt>
      <trkpt lat="46.02462" lon="6.13523">
        <ele>750.4</ele>
        <time>2021-03-27T14:41:13Z</time>
      </trkpt>
      <trkpt lat="46.02462" lon="6.13524">
        <ele>750.4</ele>
        <time>2021-03-27T14:41:14Z</time>
      </trkpt>
      <trkpt lat="46.02462" lon="6.13524">
        <ele>750.4</ele>
        <time>2021-03-27T14:41:15Z</time>
      </trkpt>
      <trkpt lat="46.02462" lon="6.13524">
        <ele>750.4</ele>
        <time>2021-03-27T14:41:16Z</time>
      </trkpt>
      <trkpt lat="46.02462" lon="6.13524">
        <ele>750.4</ele>
        <time>2021-03-27T14:41:17Z</time>
      </trkpt>
      <trkpt lat="46.02462" lon="6.13524">
        <ele>750.4</ele>
        <time>2021-03-27T14:41:18Z</time>
      </trkpt>
      <trkpt lat="46.02462" lon="6.13524">
        <ele>750.4</ele>
        <time>2021-03-27T14:41:19Z</time>
      </trkpt>
      <trkpt lat="46.02462" lon="6.13524">
        <ele>750.4</ele>
        <time>2021-03-27T14:41:20Z</time>
      </trkpt>
      <trkpt lat="46.02462" lon="6.13524">
        <ele>750.4</ele>
        <time>2021-03-27T14:41:21Z</time>
      </trkpt>
      <trkpt lat="46.02462" lon="6.13524">
        <ele>750.4</ele>
        <time>2021-03-27T14:41:22Z</time>
      </trkpt>
      <trkpt lat="46.02462" lon="6.13523">
        <ele>750.4</ele>
        <time>2021-03-27T14:41:23Z</time>
      </trkpt>
      <trkpt lat="46.02462" lon="6.13523">
        <ele>750.4</ele>
        <time>2021-03-27T14:41:24Z</time>
      </trkpt>
      <trkpt lat="46.02462" lon="6.13523">
        <ele>750.4</ele>
        <time>2021-03-27T14:41:25Z</time>
      </trkpt>
      <trkpt lat="46.02462" lon="6.13523">
        <ele>750.4</ele>
        <time>2021-03-27T14:41:26Z</time>
      </trkpt>
      <trkpt lat="46.02462" lon="6.13523">
        <ele>750.2</ele>
        <time>2021-03-27T14:41:27Z</time>
      </trkpt>
      <trkpt lat="46.02462" lon="6.13523">
        <ele>750.2</ele>
        <time>2021-03-27T14:41:28Z</time>
      </trkpt>
      <trkpt lat="46.02462" lon="6.13523">
        <ele>750.2</ele>
        <time>2021-03-27T14:41:29Z</time>
      </trkpt>
      <trkpt lat="46.02462" lon="6.13523">
        <ele>750.2</ele>
        <time>2021-03-27T14:41:30Z</time>
      </trkpt>
      <trkpt lat="46.02462" lon="6.13523">
        <ele>750.4</ele>
        <time>2021-03-27T14:41:31Z</time>
      </trkpt>
      <trkpt lat="46.02462" lon="6.13523">
        <ele>750.2</ele>
        <time>2021-03-27T14:41:32Z</time>
      </trkpt>
      <trkpt lat="46.02462" lon="6.13523">
        <ele>750.4</ele>
        <time>2021-03-27T14:41:33Z</time>
      </trkpt>
      <trkpt lat="46.02462" lon="6.13523">
        <ele>750.4</ele>
        <time>2021-03-27T14:41:34Z</time>
      </trkpt>
      <trkpt lat="46.02462" lon="6.13523">
        <ele>750.2</ele>
        <time>2021-03-27T14:41:35Z</time>
      </trkpt>
      <trkpt lat="46.02462" lon="6.13523">
        <ele>750.2</ele>
        <time>2021-03-27T14:41:36Z</time>
      </trkpt>
      <trkpt lat="46.02462" lon="6.13523">
        <ele>750.2</ele>
        <time>2021-03-27T14:41:37Z</time>
      </trkpt>
      <trkpt lat="46.02462" lon="6.13523">
        <ele>750.2</ele>
        <time>2021-03-27T14:41:38Z</time>
      </trkpt>
      <trkpt lat="46.02462" lon="6.13523">
        <ele>750.2</ele>
        <time>2021-03-27T14:41:39Z</time>
      </trkpt>
      <trkpt lat="46.02462" lon="6.13522">
        <ele>750.2</ele>
        <time>2021-03-27T14:41:40Z</time>
      </trkpt>
      <trkpt lat="46.02462" lon="6.13522">
        <ele>750.2</ele>
        <time>2021-03-27T14:41:41Z</time>
      </trkpt>
      <trkpt lat="46.02462" lon="6.13522">
        <ele>750.2</ele>
        <time>2021-03-27T14:41:42Z</time>
      </trkpt>
      <trkpt lat="46.02462" lon="6.13522">
        <ele>750.2</ele>
        <time>2021-03-27T14:41:43Z</time>
      </trkpt>
      <trkpt lat="46.02462" lon="6.13522">
        <ele>750.2</ele>
        <time>2021-03-27T14:41:44Z</time>
      </trkpt>
      <trkpt lat="46.02462" lon="6.13522">
        <ele>750.2</ele>
        <time>2021-03-27T14:41:45Z</time>
      </trkpt>
      <trkpt lat="46.02462" lon="6.13521">
        <ele>750.4</ele>
        <time>2021-03-27T14:41:46Z</time>
      </trkpt>
      <trkpt lat="46.02462" lon="6.13521">
        <ele>750.4</ele>
        <time>2021-03-27T14:41:47Z</time>
      </trkpt>
      <trkpt lat="46.02462" lon="6.13521">
        <ele>750.2</ele>
        <time>2021-03-27T14:41:48Z</time>
      </trkpt>
      <trkpt lat="46.02462" lon="6.13521">
        <ele>750.2</ele>
        <time>2021-03-27T14:41:49Z</time>
      </trkpt>
      <trkpt lat="46.02462" lon="6.13521">
        <ele>750.4</ele>
        <time>2021-03-27T14:41:50Z</time>
      </trkpt>
      <trkpt lat="46.02462" lon="6.13521">
        <ele>750.2</ele>
        <time>2021-03-27T14:41:51Z</time>
      </trkpt>
      <trkpt lat="46.02462" lon="6.13521">
        <ele>750.2</ele>
        <time>2021-03-27T14:41:52Z</time>
      </trkpt>
      <trkpt lat="46.02462" lon="6.13521">
        <ele>750.4</ele>
        <time>2021-03-27T14:41:53Z</time>
      </trkpt>
      <trkpt lat="46.02462" lon="6.13521">
        <ele>750.2</ele>
        <time>2021-03-27T14:41:54Z</time>
      </trkpt>
      <trkpt lat="46.02462" lon="6.13521">
        <ele>750.4</ele>
        <time>2021-03-27T14:41:55Z</time>
      </trkpt>
      <trkpt lat="46.02462" lon="6.13521">
        <ele>750.2</ele>
        <time>2021-03-27T14:41:56Z</time>
      </trkpt>
      <trkpt lat="46.02462" lon="6.13521">
        <ele>750.2</ele>
        <time>2021-03-27T14:41:57Z</time>
      </trkpt>
      <trkpt lat="46.02462" lon="6.13521">
        <ele>750.2</ele>
        <time>2021-03-27T14:41:58Z</time>
      </trkpt>
      <trkpt lat="46.02462" lon="6.13521">
        <ele>750.4</ele>
        <time>2021-03-27T14:41:59Z</time>
      </trkpt>
      <trkpt lat="46.02462" lon="6.13522">
        <ele>750.2</ele>
        <time>2021-03-27T14:42:00Z</time>
      </trkpt>
      <trkpt lat="46.02462" lon="6.13522">
        <ele>750.2</ele>
        <time>2021-03-27T14:42:01Z</time>
      </trkpt>
      <trkpt lat="46.02461" lon="6.13522">
        <ele>750.2</ele>
        <time>2021-03-27T14:42:02Z</time>
      </trkpt>
      <trkpt lat="46.02461" lon="6.13522">
        <ele>750.4</ele>
        <time>2021-03-27T14:42:03Z</time>
      </trkpt>
      <trkpt lat="46.02461" lon="6.13521">
        <ele>750.2</ele>
        <time>2021-03-27T14:42:04Z</time>
      </trkpt>
      <trkpt lat="46.0246" lon="6.13521">
        <ele>750.4</ele>
        <time>2021-03-27T14:42:05Z</time>
      </trkpt>
      <trkpt lat="46.0246" lon="6.13522">
        <ele>750.4</ele>
        <time>2021-03-27T14:42:06Z</time>
      </trkpt>
      <trkpt lat="46.0246" lon="6.13522">
        <ele>750.2</ele>
        <time>2021-03-27T14:42:07Z</time>
      </trkpt>
      <trkpt lat="46.0246" lon="6.13522">
        <ele>750.2</ele>
        <time>2021-03-27T14:42:08Z</time>
      </trkpt>
      <trkpt lat="46.0246" lon="6.13522">
        <ele>750.2</ele>
        <time>2021-03-27T14:42:09Z</time>
      </trkpt>
      <trkpt lat="46.0246" lon="6.13522">
        <ele>750.4</ele>
        <time>2021-03-27T14:42:10Z</time>
      </trkpt>
      <trkpt lat="46.02459" lon="6.13521">
        <ele>750.4</ele>
        <time>2021-03-27T14:42:11Z</time>
      </trkpt>
      <trkpt lat="46.02458" lon="6.13521">
        <ele>750.2</ele>
        <time>2021-03-27T14:42:12Z</time>
      </trkpt>
      <trkpt lat="46.02457" lon="6.1352">
        <ele>750.4</ele>
        <time>2021-03-27T14:42:13Z</time>
      </trkpt>
      <trkpt lat="46.02455" lon="6.13519">
        <ele>750.4</ele>
        <time>2021-03-27T14:42:14Z</time>
      </trkpt>
      <trkpt lat="46.02452" lon="6.13517">
        <ele>750.4</ele>
        <time>2021-03-27T14:42:15Z</time>
      </trkpt>
      <trkpt lat="46.0245" lon="6.13515">
        <ele>750.2</ele>
        <time>2021-03-27T14:42:16Z</time>
      </trkpt>
      <trkpt lat="46.02447" lon="6.13513">
        <ele>750.2</ele>
        <time>2021-03-27T14:42:17Z</time>
      </trkpt>
      <trkpt lat="46.02444" lon="6.13511">
        <ele>750.4</ele>
        <time>2021-03-27T14:42:18Z</time>
      </trkpt>
      <trkpt lat="46.02441" lon="6.1351">
        <ele>750.4</ele>
        <time>2021-03-27T14:42:19Z</time>
      </trkpt>
      <trkpt lat="46.02438" lon="6.13509">
        <ele>750.4</ele>
        <time>2021-03-27T14:42:20Z</time>
      </trkpt>
      <trkpt lat="46.02434" lon="6.13507">
        <ele>750.4</ele>
        <time>2021-03-27T14:42:21Z</time>
      </trkpt>
      <trkpt lat="46.0243" lon="6.13506">
        <ele>750.4</ele>
        <time>2021-03-27T14:42:22Z</time>
      </trkpt>
      <trkpt lat="46.02427" lon="6.13505">
        <ele>750.4</ele>
        <time>2021-03-27T14:42:23Z</time>
      </trkpt>
      <trkpt lat="46.02423" lon="6.13503">
        <ele>750.2</ele>
        <time>2021-03-27T14:42:24Z</time>
      </trkpt>
      <trkpt lat="46.0242" lon="6.13501">
        <ele>750.4</ele>
        <time>2021-03-27T14:42:25Z</time>
      </trkpt>
      <trkpt lat="46.02417" lon="6.13498">
        <ele>750.4</ele>
        <time>2021-03-27T14:42:26Z</time>
      </trkpt>
      <trkpt lat="46.02413" lon="6.13496">
        <ele>750.2</ele>
        <time>2021-03-27T14:42:27Z</time>
      </trkpt>
      <trkpt lat="46.0241" lon="6.13494">
        <ele>750.4</ele>
        <time>2021-03-27T14:42:28Z</time>
      </trkpt>
      <trkpt lat="46.02407" lon="6.13492">
        <ele>750.4</ele>
        <time>2021-03-27T14:42:29Z</time>
      </trkpt>
      <trkpt lat="46.02403" lon="6.13491">
        <ele>750.4</ele>
        <time>2021-03-27T14:42:30Z</time>
      </trkpt>
      <trkpt lat="46.024" lon="6.13489">
        <ele>750.6</ele>
        <time>2021-03-27T14:42:31Z</time>
      </trkpt>
      <trkpt lat="46.02396" lon="6.13487">
        <ele>750.6</ele>
        <time>2021-03-27T14:42:32Z</time>
      </trkpt>
      <trkpt lat="46.02392" lon="6.13485">
        <ele>750.8</ele>
        <time>2021-03-27T14:42:33Z</time>
      </trkpt>
      <trkpt lat="46.02388" lon="6.13483">
        <ele>750.8</ele>
        <time>2021-03-27T14:42:34Z</time>
      </trkpt>
      <trkpt lat="46.02384" lon="6.13481">
        <ele>751</ele>
        <time>2021-03-27T14:42:35Z</time>
      </trkpt>
      <trkpt lat="46.0238" lon="6.13478">
        <ele>751</ele>
        <time>2021-03-27T14:42:36Z</time>
      </trkpt>
      <trkpt lat="46.02376" lon="6.13476">
        <ele>750.8</ele>
        <time>2021-03-27T14:42:37Z</time>
      </trkpt>
      <trkpt lat="46.02372" lon="6.13474">
        <ele>750.8</ele>
        <time>2021-03-27T14:42:38Z</time>
      </trkpt>
      <trkpt lat="46.02368" lon="6.13472">
        <ele>750.8</ele>
        <time>2021-03-27T14:42:39Z</time>
      </trkpt>
      <trkpt lat="46.02363" lon="6.13469">
        <ele>750.8</ele>
        <time>2021-03-27T14:42:40Z</time>
      </trkpt>
      <trkpt lat="46.02359" lon="6.13466">
        <ele>751</ele>
        <time>2021-03-27T14:42:41Z</time>
      </trkpt>
      <trkpt lat="46.02355" lon="6.13463">
        <ele>751</ele>
        <time>2021-03-27T14:42:42Z</time>
      </trkpt>
      <trkpt lat="46.02351" lon="6.13459">
        <ele>751</ele>
        <time>2021-03-27T14:42:43Z</time>
      </trkpt>
      <trkpt lat="46.02346" lon="6.13456">
        <ele>751</ele>
        <time>2021-03-27T14:42:44Z</time>
      </trkpt>
      <trkpt lat="46.02342" lon="6.13452">
        <ele>751</ele>
        <time>2021-03-27T14:42:45Z</time>
      </trkpt>
      <trkpt lat="46.02338" lon="6.13447">
        <ele>750.8</ele>
        <time>2021-03-27T14:42:46Z</time>
      </trkpt>
      <trkpt lat="46.02334" lon="6.13442">
        <ele>750.6</ele>
        <time>2021-03-27T14:42:47Z</time>
      </trkpt>
      <trkpt lat="46.02331" lon="6.13437">
        <ele>750.4</ele>
        <time>2021-03-27T14:42:48Z</time>
      </trkpt>
      <trkpt lat="46.02327" lon="6.13431">
        <ele>750.2</ele>
        <time>2021-03-27T14:42:49Z</time>
      </trkpt>
      <trkpt lat="46.02323" lon="6.13424">
        <ele>749.8</ele>
        <time>2021-03-27T14:42:50Z</time>
      </trkpt>
      <trkpt lat="46.02319" lon="6.13418">
        <ele>749.8</ele>
        <time>2021-03-27T14:42:51Z</time>
      </trkpt>
      <trkpt lat="46.02315" lon="6.13411">
        <ele>749.6</ele>
        <time>2021-03-27T14:42:52Z</time>
      </trkpt>
      <trkpt lat="46.02312" lon="6.13404">
        <ele>749.6</ele>
        <time>2021-03-27T14:42:53Z</time>
      </trkpt>
      <trkpt lat="46.02309" lon="6.13396">
        <ele>749.4</ele>
        <time>2021-03-27T14:42:54Z</time>
      </trkpt>
      <trkpt lat="46.02306" lon="6.13389">
        <ele>749.6</ele>
        <time>2021-03-27T14:42:55Z</time>
      </trkpt>
      <trkpt lat="46.02302" lon="6.13381">
        <ele>749.4</ele>
        <time>2021-03-27T14:42:56Z</time>
      </trkpt>
      <trkpt lat="46.02299" lon="6.13373">
        <ele>749</ele>
        <time>2021-03-27T14:42:57Z</time>
      </trkpt>
      <trkpt lat="46.02295" lon="6.13365">
        <ele>749</ele>
        <time>2021-03-27T14:42:58Z</time>
      </trkpt>
      <trkpt lat="46.02291" lon="6.13358">
        <ele>748.6</ele>
        <time>2021-03-27T14:42:59Z</time>
      </trkpt>
      <trkpt lat="46.02288" lon="6.1335">
        <ele>748.4</ele>
        <time>2021-03-27T14:43:00Z</time>
      </trkpt>
      <trkpt lat="46.02284" lon="6.13343">
        <ele>748.2</ele>
        <time>2021-03-27T14:43:01Z</time>
      </trkpt>
      <trkpt lat="46.02279" lon="6.13336">
        <ele>748</ele>
        <time>2021-03-27T14:43:02Z</time>
      </trkpt>
      <trkpt lat="46.02275" lon="6.1333">
        <ele>747.8</ele>
        <time>2021-03-27T14:43:03Z</time>
      </trkpt>
      <trkpt lat="46.0227" lon="6.13324">
        <ele>747.4</ele>
        <time>2021-03-27T14:43:04Z</time>
      </trkpt>
      <trkpt lat="46.02266" lon="6.13318">
        <ele>747.4</ele>
        <time>2021-03-27T14:43:05Z</time>
      </trkpt>
      <trkpt lat="46.02261" lon="6.13313">
        <ele>747</ele>
        <time>2021-03-27T14:43:06Z</time>
      </trkpt>
      <trkpt lat="46.02256" lon="6.13308">
        <ele>746.8</ele>
        <time>2021-03-27T14:43:07Z</time>
      </trkpt>
      <trkpt lat="46.02251" lon="6.13302">
        <ele>746.8</ele>
        <time>2021-03-27T14:43:08Z</time>
      </trkpt>
      <trkpt lat="46.02247" lon="6.13297">
        <ele>746.6</ele>
        <time>2021-03-27T14:43:09Z</time>
      </trkpt>
      <trkpt lat="46.02243" lon="6.13291">
        <ele>746.6</ele>
        <time>2021-03-27T14:43:10Z</time>
      </trkpt>
      <trkpt lat="46.02239" lon="6.13285">
        <ele>746.6</ele>
        <time>2021-03-27T14:43:11Z</time>
      </trkpt>
      <trkpt lat="46.02236" lon="6.13277">
        <ele>746.4</ele>
        <time>2021-03-27T14:43:12Z</time>
      </trkpt>
      <trkpt lat="46.02233" lon="6.1327">
        <ele>746.6</ele>
        <time>2021-03-27T14:43:13Z</time>
      </trkpt>
      <trkpt lat="46.02231" lon="6.13262">
        <ele>746.4</ele>
        <time>2021-03-27T14:43:14Z</time>
      </trkpt>
      <trkpt lat="46.02229" lon="6.13253">
        <ele>746.2</ele>
        <time>2021-03-27T14:43:15Z</time>
      </trkpt>
      <trkpt lat="46.02227" lon="6.13245">
        <ele>746.2</ele>
        <time>2021-03-27T14:43:16Z</time>
      </trkpt>
      <trkpt lat="46.02226" lon="6.13237">
        <ele>746</ele>
        <time>2021-03-27T14:43:17Z</time>
      </trkpt>
      <trkpt lat="46.02225" lon="6.13228">
        <ele>745.8</ele>
        <time>2021-03-27T14:43:18Z</time>
      </trkpt>
      <trkpt lat="46.02224" lon="6.1322">
        <ele>745.8</ele>
        <time>2021-03-27T14:43:19Z</time>
      </trkpt>
      <trkpt lat="46.02223" lon="6.13212">
        <ele>745.4</ele>
        <time>2021-03-27T14:43:20Z</time>
      </trkpt>
      <trkpt lat="46.02223" lon="6.13204">
        <ele>745.2</ele>
        <time>2021-03-27T14:43:21Z</time>
      </trkpt>
      <trkpt lat="46.02222" lon="6.13195">
        <ele>745.2</ele>
        <time>2021-03-27T14:43:22Z</time>
      </trkpt>
      <trkpt lat="46.02221" lon="6.13188">
        <ele>745</ele>
        <time>2021-03-27T14:43:23Z</time>
      </trkpt>
      <trkpt lat="46.0222" lon="6.13179">
        <ele>745</ele>
        <time>2021-03-27T14:43:24Z</time>
      </trkpt>
      <trkpt lat="46.0222" lon="6.13171">
        <ele>745</ele>
        <time>2021-03-27T14:43:25Z</time>
      </trkpt>
      <trkpt lat="46.02219" lon="6.13163">
        <ele>745</ele>
        <time>2021-03-27T14:43:26Z</time>
      </trkpt>
      <trkpt lat="46.02218" lon="6.13155">
        <ele>745</ele>
        <time>2021-03-27T14:43:27Z</time>
      </trkpt>
      <trkpt lat="46.02218" lon="6.13148">
        <ele>745</ele>
        <time>2021-03-27T14:43:28Z</time>
      </trkpt>
      <trkpt lat="46.02217" lon="6.1314">
        <ele>745</ele>
        <time>2021-03-27T14:43:29Z</time>
      </trkpt>
      <trkpt lat="46.02216" lon="6.13133">
        <ele>745</ele>
        <time>2021-03-27T14:43:30Z</time>
      </trkpt>
      <trkpt lat="46.02214" lon="6.13127">
        <ele>745.2</ele>
        <time>2021-03-27T14:43:31Z</time>
      </trkpt>
      <trkpt lat="46.02213" lon="6.1312">
        <ele>745.2</ele>
        <time>2021-03-27T14:43:32Z</time>
      </trkpt>
      <trkpt lat="46.02212" lon="6.13114">
        <ele>745.2</ele>
        <time>2021-03-27T14:43:33Z</time>
      </trkpt>
      <trkpt lat="46.0221" lon="6.13108">
        <ele>745.4</ele>
        <time>2021-03-27T14:43:34Z</time>
      </trkpt>
      <trkpt lat="46.02209" lon="6.13102">
        <ele>745.4</ele>
        <time>2021-03-27T14:43:35Z</time>
      </trkpt>
      <trkpt lat="46.02208" lon="6.13096">
        <ele>745.6</ele>
        <time>2021-03-27T14:43:36Z</time>
      </trkpt>
      <trkpt lat="46.02206" lon="6.1309">
        <ele>745.6</ele>
        <time>2021-03-27T14:43:37Z</time>
      </trkpt>
      <trkpt lat="46.02204" lon="6.13084">
        <ele>745.8</ele>
        <time>2021-03-27T14:43:38Z</time>
      </trkpt>
      <trkpt lat="46.02203" lon="6.13078">
        <ele>746.2</ele>
        <time>2021-03-27T14:43:39Z</time>
      </trkpt>
      <trkpt lat="46.02201" lon="6.13072">
        <ele>746.2</ele>
        <time>2021-03-27T14:43:40Z</time>
      </trkpt>
      <trkpt lat="46.022" lon="6.13066">
        <ele>746.4</ele>
        <time>2021-03-27T14:43:41Z</time>
      </trkpt>
      <trkpt lat="46.02199" lon="6.1306">
        <ele>746.8</ele>
        <time>2021-03-27T14:43:42Z</time>
      </trkpt>
      <trkpt lat="46.02198" lon="6.13054">
        <ele>747.2</ele>
        <time>2021-03-27T14:43:43Z</time>
      </trkpt>
      <trkpt lat="46.02197" lon="6.13048">
        <ele>747.6</ele>
        <time>2021-03-27T14:43:44Z</time>
      </trkpt>
      <trkpt lat="46.02197" lon="6.13042">
        <ele>747.6</ele>
        <time>2021-03-27T14:43:45Z</time>
      </trkpt>
      <trkpt lat="46.02196" lon="6.13036">
        <ele>747.6</ele>
        <time>2021-03-27T14:43:46Z</time>
      </trkpt>
      <trkpt lat="46.02195" lon="6.1303">
        <ele>748</ele>
        <time>2021-03-27T14:43:47Z</time>
      </trkpt>
      <trkpt lat="46.02195" lon="6.13024">
        <ele>748</ele>
        <time>2021-03-27T14:43:48Z</time>
      </trkpt>
      <trkpt lat="46.02194" lon="6.13018">
        <ele>748</ele>
        <time>2021-03-27T14:43:49Z</time>
      </trkpt>
      <trkpt lat="46.02193" lon="6.13012">
        <ele>748</ele>
        <time>2021-03-27T14:43:50Z</time>
      </trkpt>
      <trkpt lat="46.02193" lon="6.13006">
        <ele>748.2</ele>
        <time>2021-03-27T14:43:51Z</time>
      </trkpt>
      <trkpt lat="46.02192" lon="6.13001">
        <ele>748.4</ele>
        <time>2021-03-27T14:43:52Z</time>
      </trkpt>
      <trkpt lat="46.02192" lon="6.12995">
        <ele>748.8</ele>
        <time>2021-03-27T14:43:53Z</time>
      </trkpt>
      <trkpt lat="46.02191" lon="6.12989">
        <ele>749</ele>
        <time>2021-03-27T14:43:54Z</time>
      </trkpt>
      <trkpt lat="46.0219" lon="6.12983">
        <ele>749.2</ele>
        <time>2021-03-27T14:43:55Z</time>
      </trkpt>
      <trkpt lat="46.02189" lon="6.12977">
        <ele>749.4</ele>
        <time>2021-03-27T14:43:56Z</time>
      </trkpt>
      <trkpt lat="46.02189" lon="6.12971">
        <ele>749.8</ele>
        <time>2021-03-27T14:43:57Z</time>
      </trkpt>
      <trkpt lat="46.02188" lon="6.12964">
        <ele>749.8</ele>
        <time>2021-03-27T14:43:58Z</time>
      </trkpt>
      <trkpt lat="46.02188" lon="6.12957">
        <ele>750</ele>
        <time>2021-03-27T14:43:59Z</time>
      </trkpt>
      <trkpt lat="46.02187" lon="6.12951">
        <ele>750</ele>
        <time>2021-03-27T14:44:00Z</time>
      </trkpt>
      <trkpt lat="46.02187" lon="6.12944">
        <ele>750.4</ele>
        <time>2021-03-27T14:44:01Z</time>
      </trkpt>
      <trkpt lat="46.02186" lon="6.12937">
        <ele>750.4</ele>
        <time>2021-03-27T14:44:02Z</time>
      </trkpt>
      <trkpt lat="46.02186" lon="6.12929">
        <ele>750.6</ele>
        <time>2021-03-27T14:44:03Z</time>
      </trkpt>
      <trkpt lat="46.02185" lon="6.12922">
        <ele>750.8</ele>
        <time>2021-03-27T14:44:04Z</time>
      </trkpt>
      <trkpt lat="46.02185" lon="6.12914">
        <ele>751</ele>
        <time>2021-03-27T14:44:05Z</time>
      </trkpt>
      <trkpt lat="46.02184" lon="6.12906">
        <ele>751</ele>
        <time>2021-03-27T14:44:06Z</time>
      </trkpt>
      <trkpt lat="46.02184" lon="6.12898">
        <ele>751</ele>
        <time>2021-03-27T14:44:07Z</time>
      </trkpt>
      <trkpt lat="46.02184" lon="6.1289">
        <ele>751</ele>
        <time>2021-03-27T14:44:08Z</time>
      </trkpt>
      <trkpt lat="46.02183" lon="6.12882">
        <ele>751.2</ele>
        <time>2021-03-27T14:44:09Z</time>
      </trkpt>
      <trkpt lat="46.02183" lon="6.12874">
        <ele>751</ele>
        <time>2021-03-27T14:44:10Z</time>
      </trkpt>
      <trkpt lat="46.02182" lon="6.12866">
        <ele>751.2</ele>
        <time>2021-03-27T14:44:11Z</time>
      </trkpt>
      <trkpt lat="46.02182" lon="6.12858">
        <ele>751.2</ele>
        <time>2021-03-27T14:44:12Z</time>
      </trkpt>
      <trkpt lat="46.02181" lon="6.1285">
        <ele>751.4</ele>
        <time>2021-03-27T14:44:13Z</time>
      </trkpt>
      <trkpt lat="46.0218" lon="6.12843">
        <ele>751.2</ele>
        <time>2021-03-27T14:44:14Z</time>
      </trkpt>
      <trkpt lat="46.0218" lon="6.12835">
        <ele>751.4</ele>
        <time>2021-03-27T14:44:15Z</time>
      </trkpt>
      <trkpt lat="46.02179" lon="6.12827">
        <ele>751.4</ele>
        <time>2021-03-27T14:44:16Z</time>
      </trkpt>
      <trkpt lat="46.02179" lon="6.12819">
        <ele>751.4</ele>
        <time>2021-03-27T14:44:17Z</time>
      </trkpt>
      <trkpt lat="46.02178" lon="6.12812">
        <ele>751.4</ele>
        <time>2021-03-27T14:44:18Z</time>
      </trkpt>
      <trkpt lat="46.02178" lon="6.12804">
        <ele>751.6</ele>
        <time>2021-03-27T14:44:19Z</time>
      </trkpt>
      <trkpt lat="46.02177" lon="6.12797">
        <ele>751.4</ele>
        <time>2021-03-27T14:44:20Z</time>
      </trkpt>
      <trkpt lat="46.02177" lon="6.12789">
        <ele>751.6</ele>
        <time>2021-03-27T14:44:21Z</time>
      </trkpt>
      <trkpt lat="46.02176" lon="6.12783">
        <ele>751.6</ele>
        <time>2021-03-27T14:44:22Z</time>
      </trkpt>
      <trkpt lat="46.02176" lon="6.12776">
        <ele>751.6</ele>
        <time>2021-03-27T14:44:23Z</time>
      </trkpt>
      <trkpt lat="46.02175" lon="6.1277">
        <ele>751.6</ele>
        <time>2021-03-27T14:44:24Z</time>
      </trkpt>
      <trkpt lat="46.02175" lon="6.12764">
        <ele>751.8</ele>
        <time>2021-03-27T14:44:25Z</time>
      </trkpt>
      <trkpt lat="46.02175" lon="6.12757">
        <ele>751.6</ele>
        <time>2021-03-27T14:44:26Z</time>
      </trkpt>
      <trkpt lat="46.02175" lon="6.12751">
        <ele>751.6</ele>
        <time>2021-03-27T14:44:27Z</time>
      </trkpt>
      <trkpt lat="46.02174" lon="6.12744">
        <ele>751.8</ele>
        <time>2021-03-27T14:44:28Z</time>
      </trkpt>
      <trkpt lat="46.02174" lon="6.12738">
        <ele>751.8</ele>
        <time>2021-03-27T14:44:29Z</time>
      </trkpt>
      <trkpt lat="46.02173" lon="6.12731">
        <ele>752</ele>
        <time>2021-03-27T14:44:30Z</time>
      </trkpt>
      <trkpt lat="46.02173" lon="6.12725">
        <ele>752</ele>
        <time>2021-03-27T14:44:31Z</time>
      </trkpt>
      <trkpt lat="46.02173" lon="6.12718">
        <ele>752.2</ele>
        <time>2021-03-27T14:44:32Z</time>
      </trkpt>
      <trkpt lat="46.02172" lon="6.12711">
        <ele>752.4</ele>
        <time>2021-03-27T14:44:33Z</time>
      </trkpt>
      <trkpt lat="46.02172" lon="6.12705">
        <ele>752.4</ele>
        <time>2021-03-27T14:44:34Z</time>
      </trkpt>
      <trkpt lat="46.02171" lon="6.12698">
        <ele>752.6</ele>
        <time>2021-03-27T14:44:35Z</time>
      </trkpt>
      <trkpt lat="46.02171" lon="6.12691">
        <ele>752.8</ele>
        <time>2021-03-27T14:44:36Z</time>
      </trkpt>
      <trkpt lat="46.0217" lon="6.12684">
        <ele>752.6</ele>
        <time>2021-03-27T14:44:37Z</time>
      </trkpt>
      <trkpt lat="46.0217" lon="6.12678">
        <ele>752.8</ele>
        <time>2021-03-27T14:44:38Z</time>
      </trkpt>
      <trkpt lat="46.0217" lon="6.12671">
        <ele>753</ele>
        <time>2021-03-27T14:44:39Z</time>
      </trkpt>
      <trkpt lat="46.0217" lon="6.12664">
        <ele>753</ele>
        <time>2021-03-27T14:44:40Z</time>
      </trkpt>
      <trkpt lat="46.0217" lon="6.12657">
        <ele>753.2</ele>
        <time>2021-03-27T14:44:41Z</time>
      </trkpt>
      <trkpt lat="46.02169" lon="6.12651">
        <ele>753.2</ele>
        <time>2021-03-27T14:44:42Z</time>
      </trkpt>
      <trkpt lat="46.02169" lon="6.12644">
        <ele>753.4</ele>
        <time>2021-03-27T14:44:43Z</time>
      </trkpt>
      <trkpt lat="46.02169" lon="6.12637">
        <ele>753.6</ele>
        <time>2021-03-27T14:44:44Z</time>
      </trkpt>
      <trkpt lat="46.02169" lon="6.12629">
        <ele>753.6</ele>
        <time>2021-03-27T14:44:45Z</time>
      </trkpt>
      <trkpt lat="46.02169" lon="6.12622">
        <ele>753.6</ele>
        <time>2021-03-27T14:44:46Z</time>
      </trkpt>
      <trkpt lat="46.0217" lon="6.12615">
        <ele>753.8</ele>
        <time>2021-03-27T14:44:47Z</time>
      </trkpt>
      <trkpt lat="46.02171" lon="6.12608">
        <ele>753.8</ele>
        <time>2021-03-27T14:44:48Z</time>
      </trkpt>
      <trkpt lat="46.02173" lon="6.12602">
        <ele>754</ele>
        <time>2021-03-27T14:44:49Z</time>
      </trkpt>
      <trkpt lat="46.02175" lon="6.12595">
        <ele>754</ele>
        <time>2021-03-27T14:44:50Z</time>
      </trkpt>
      <trkpt lat="46.02177" lon="6.12589">
        <ele>754.2</ele>
        <time>2021-03-27T14:44:51Z</time>
      </trkpt>
      <trkpt lat="46.0218" lon="6.12583">
        <ele>754.4</ele>
        <time>2021-03-27T14:44:52Z</time>
      </trkpt>
      <trkpt lat="46.02182" lon="6.12577">
        <ele>754.6</ele>
        <time>2021-03-27T14:44:53Z</time>
      </trkpt>
      <trkpt lat="46.02185" lon="6.12571">
        <ele>754.8</ele>
        <time>2021-03-27T14:44:54Z</time>
      </trkpt>
      <trkpt lat="46.02187" lon="6.12565">
        <ele>754.8</ele>
        <time>2021-03-27T14:44:55Z</time>
      </trkpt>
      <trkpt lat="46.0219" lon="6.12559">
        <ele>754.8</ele>
        <time>2021-03-27T14:44:56Z</time>
      </trkpt>
      <trkpt lat="46.02192" lon="6.12553">
        <ele>755</ele>
        <time>2021-03-27T14:44:57Z</time>
      </trkpt>
      <trkpt lat="46.02195" lon="6.12547">
        <ele>755.2</ele>
        <time>2021-03-27T14:44:58Z</time>
      </trkpt>
      <trkpt lat="46.02198" lon="6.12542">
        <ele>755.2</ele>
        <time>2021-03-27T14:44:59Z</time>
      </trkpt>
      <trkpt lat="46.02201" lon="6.12536">
        <ele>755.4</ele>
        <time>2021-03-27T14:45:00Z</time>
      </trkpt>
      <trkpt lat="46.02204" lon="6.1253">
        <ele>755.4</ele>
        <time>2021-03-27T14:45:01Z</time>
      </trkpt>
      <trkpt lat="46.02207" lon="6.12524">
        <ele>755.8</ele>
        <time>2021-03-27T14:45:02Z</time>
      </trkpt>
      <trkpt lat="46.0221" lon="6.12518">
        <ele>755.6</ele>
        <time>2021-03-27T14:45:03Z</time>
      </trkpt>
      <trkpt lat="46.02213" lon="6.12512">
        <ele>755.8</ele>
        <time>2021-03-27T14:45:04Z</time>
      </trkpt>
      <trkpt lat="46.02216" lon="6.12507">
        <ele>755.8</ele>
        <time>2021-03-27T14:45:05Z</time>
      </trkpt>
      <trkpt lat="46.02219" lon="6.12501">
        <ele>755.8</ele>
        <time>2021-03-27T14:45:06Z</time>
      </trkpt>
      <trkpt lat="46.02223" lon="6.12496">
        <ele>755.8</ele>
        <time>2021-03-27T14:45:07Z</time>
      </trkpt>
      <trkpt lat="46.02226" lon="6.12491">
        <ele>755.8</ele>
        <time>2021-03-27T14:45:08Z</time>
      </trkpt>
      <trkpt lat="46.0223" lon="6.12486">
        <ele>755.8</ele>
        <time>2021-03-27T14:45:09Z</time>
      </trkpt>
      <trkpt lat="46.02234" lon="6.12482">
        <ele>756</ele>
        <time>2021-03-27T14:45:10Z</time>
      </trkpt>
      <trkpt lat="46.02238" lon="6.12477">
        <ele>756</ele>
        <time>2021-03-27T14:45:11Z</time>
      </trkpt>
      <trkpt lat="46.02242" lon="6.12472">
        <ele>756</ele>
        <time>2021-03-27T14:45:12Z</time>
      </trkpt>
      <trkpt lat="46.02246" lon="6.12467">
        <ele>756.2</ele>
        <time>2021-03-27T14:45:13Z</time>
      </trkpt>
      <trkpt lat="46.0225" lon="6.12463">
        <ele>756.2</ele>
        <time>2021-03-27T14:45:14Z</time>
      </trkpt>
      <trkpt lat="46.02254" lon="6.12458">
        <ele>756.4</ele>
        <time>2021-03-27T14:45:15Z</time>
      </trkpt>
      <trkpt lat="46.02259" lon="6.12453">
        <ele>756.2</ele>
        <time>2021-03-27T14:45:16Z</time>
      </trkpt>
      <trkpt lat="46.02263" lon="6.12448">
        <ele>756.6</ele>
        <time>2021-03-27T14:45:17Z</time>
      </trkpt>
      <trkpt lat="46.02267" lon="6.12443">
        <ele>756.8</ele>
        <time>2021-03-27T14:45:18Z</time>
      </trkpt>
      <trkpt lat="46.0227" lon="6.12438">
        <ele>757</ele>
        <time>2021-03-27T14:45:19Z</time>
      </trkpt>
      <trkpt lat="46.02274" lon="6.12433">
        <ele>757</ele>
        <time>2021-03-27T14:45:20Z</time>
      </trkpt>
      <trkpt lat="46.02277" lon="6.12428">
        <ele>757.2</ele>
        <time>2021-03-27T14:45:21Z</time>
      </trkpt>
      <trkpt lat="46.0228" lon="6.12422">
        <ele>757.2</ele>
        <time>2021-03-27T14:45:22Z</time>
      </trkpt>
      <trkpt lat="46.02283" lon="6.12416">
        <ele>757.2</ele>
        <time>2021-03-27T14:45:23Z</time>
      </trkpt>
      <trkpt lat="46.02286" lon="6.1241">
        <ele>757.4</ele>
        <time>2021-03-27T14:45:24Z</time>
      </trkpt>
      <trkpt lat="46.02289" lon="6.12403">
        <ele>757.6</ele>
        <time>2021-03-27T14:45:25Z</time>
      </trkpt>
      <trkpt lat="46.02292" lon="6.12396">
        <ele>757.4</ele>
        <time>2021-03-27T14:45:26Z</time>
      </trkpt>
      <trkpt lat="46.02295" lon="6.12389">
        <ele>757.6</ele>
        <time>2021-03-27T14:45:27Z</time>
      </trkpt>
      <trkpt lat="46.02297" lon="6.12383">
        <ele>757.8</ele>
        <time>2021-03-27T14:45:28Z</time>
      </trkpt>
      <trkpt lat="46.023" lon="6.12376">
        <ele>757.6</ele>
        <time>2021-03-27T14:45:29Z</time>
      </trkpt>
      <trkpt lat="46.02303" lon="6.12369">
        <ele>757.8</ele>
        <time>2021-03-27T14:45:30Z</time>
      </trkpt>
      <trkpt lat="46.02306" lon="6.12362">
        <ele>758</ele>
        <time>2021-03-27T14:45:31Z</time>
      </trkpt>
      <trkpt lat="46.02308" lon="6.12355">
        <ele>757.8</ele>
        <time>2021-03-27T14:45:32Z</time>
      </trkpt>
      <trkpt lat="46.02311" lon="6.12349">
        <ele>757.8</ele>
        <time>2021-03-27T14:45:33Z</time>
      </trkpt>
      <trkpt lat="46.02314" lon="6.12342">
        <ele>758.2</ele>
        <time>2021-03-27T14:45:34Z</time>
      </trkpt>
      <trkpt lat="46.02317" lon="6.12336">
        <ele>758</ele>
        <time>2021-03-27T14:45:35Z</time>
      </trkpt>
      <trkpt lat="46.0232" lon="6.12329">
        <ele>758</ele>
        <time>2021-03-27T14:45:36Z</time>
      </trkpt>
      <trkpt lat="46.02322" lon="6.12323">
        <ele>758.2</ele>
        <time>2021-03-27T14:45:37Z</time>
      </trkpt>
      <trkpt lat="46.02325" lon="6.12317">
        <ele>758.2</ele>
        <time>2021-03-27T14:45:38Z</time>
      </trkpt>
      <trkpt lat="46.02328" lon="6.1231">
        <ele>758.2</ele>
        <time>2021-03-27T14:45:39Z</time>
      </trkpt>
      <trkpt lat="46.02331" lon="6.12303">
        <ele>758.2</ele>
        <time>2021-03-27T14:45:40Z</time>
      </trkpt>
      <trkpt lat="46.02333" lon="6.12297">
        <ele>758.4</ele>
        <time>2021-03-27T14:45:41Z</time>
      </trkpt>
      <trkpt lat="46.02336" lon="6.1229">
        <ele>758.4</ele>
        <time>2021-03-27T14:45:42Z</time>
      </trkpt>
      <trkpt lat="46.02338" lon="6.12283">
        <ele>758.4</ele>
        <time>2021-03-27T14:45:43Z</time>
      </trkpt>
      <trkpt lat="46.0234" lon="6.12276">
        <ele>758.4</ele>
        <time>2021-03-27T14:45:44Z</time>
      </trkpt>
      <trkpt lat="46.02342" lon="6.12269">
        <ele>758.4</ele>
        <time>2021-03-27T14:45:45Z</time>
      </trkpt>
      <trkpt lat="46.02344" lon="6.12262">
        <ele>758.4</ele>
        <time>2021-03-27T14:45:46Z</time>
      </trkpt>
      <trkpt lat="46.02346" lon="6.12255">
        <ele>758.6</ele>
        <time>2021-03-27T14:45:47Z</time>
      </trkpt>
      <trkpt lat="46.02348" lon="6.12248">
        <ele>758.4</ele>
        <time>2021-03-27T14:45:48Z</time>
      </trkpt>
      <trkpt lat="46.02349" lon="6.12241">
        <ele>758.8</ele>
        <time>2021-03-27T14:45:49Z</time>
      </trkpt>
      <trkpt lat="46.02351" lon="6.12234">
        <ele>759</ele>
        <time>2021-03-27T14:45:50Z</time>
      </trkpt>
      <trkpt lat="46.02353" lon="6.12226">
        <ele>759.2</ele>
        <time>2021-03-27T14:45:51Z</time>
      </trkpt>
      <trkpt lat="46.02355" lon="6.12219">
        <ele>759.2</ele>
        <time>2021-03-27T14:45:52Z</time>
      </trkpt>
      <trkpt lat="46.02357" lon="6.12212">
        <ele>759.4</ele>
        <time>2021-03-27T14:45:53Z</time>
      </trkpt>
      <trkpt lat="46.02359" lon="6.12204">
        <ele>759.2</ele>
        <time>2021-03-27T14:45:54Z</time>
      </trkpt>
      <trkpt lat="46.02361" lon="6.12197">
        <ele>759.4</ele>
        <time>2021-03-27T14:45:55Z</time>
      </trkpt>
      <trkpt lat="46.02363" lon="6.12189">
        <ele>759.4</ele>
        <time>2021-03-27T14:45:56Z</time>
      </trkpt>
      <trkpt lat="46.02365" lon="6.12182">
        <ele>759.4</ele>
        <time>2021-03-27T14:45:57Z</time>
      </trkpt>
      <trkpt lat="46.02367" lon="6.12174">
        <ele>759.4</ele>
        <time>2021-03-27T14:45:58Z</time>
      </trkpt>
      <trkpt lat="46.02369" lon="6.12167">
        <ele>759.6</ele>
        <time>2021-03-27T14:45:59Z</time>
      </trkpt>
      <trkpt lat="46.02372" lon="6.12159">
        <ele>759.6</ele>
        <time>2021-03-27T14:46:00Z</time>
      </trkpt>
      <trkpt lat="46.02375" lon="6.12152">
        <ele>759.6</ele>
        <time>2021-03-27T14:46:01Z</time>
      </trkpt>
      <trkpt lat="46.02378" lon="6.12144">
        <ele>759.8</ele>
        <time>2021-03-27T14:46:02Z</time>
      </trkpt>
      <trkpt lat="46.02381" lon="6.12137">
        <ele>760</ele>
        <time>2021-03-27T14:46:03Z</time>
      </trkpt>
      <trkpt lat="46.02384" lon="6.1213">
        <ele>760</ele>
        <time>2021-03-27T14:46:04Z</time>
      </trkpt>
      <trkpt lat="46.02388" lon="6.12122">
        <ele>760</ele>
        <time>2021-03-27T14:46:05Z</time>
      </trkpt>
      <trkpt lat="46.02391" lon="6.12115">
        <ele>760</ele>
        <time>2021-03-27T14:46:06Z</time>
      </trkpt>
      <trkpt lat="46.02395" lon="6.12108">
        <ele>760</ele>
        <time>2021-03-27T14:46:07Z</time>
      </trkpt>
      <trkpt lat="46.02398" lon="6.121">
        <ele>760</ele>
        <time>2021-03-27T14:46:08Z</time>
      </trkpt>
      <trkpt lat="46.02401" lon="6.12093">
        <ele>760</ele>
        <time>2021-03-27T14:46:09Z</time>
      </trkpt>
      <trkpt lat="46.02404" lon="6.12086">
        <ele>760</ele>
        <time>2021-03-27T14:46:10Z</time>
      </trkpt>
      <trkpt lat="46.02407" lon="6.12079">
        <ele>760</ele>
        <time>2021-03-27T14:46:11Z</time>
      </trkpt>
      <trkpt lat="46.0241" lon="6.12073">
        <ele>760</ele>
        <time>2021-03-27T14:46:12Z</time>
      </trkpt>
      <trkpt lat="46.02413" lon="6.12066">
        <ele>760.2</ele>
        <time>2021-03-27T14:46:13Z</time>
      </trkpt>
      <trkpt lat="46.02416" lon="6.1206">
        <ele>760</ele>
        <time>2021-03-27T14:46:14Z</time>
      </trkpt>
      <trkpt lat="46.02419" lon="6.12054">
        <ele>760</ele>
        <time>2021-03-27T14:46:15Z</time>
      </trkpt>
      <trkpt lat="46.02422" lon="6.12049">
        <ele>760.2</ele>
        <time>2021-03-27T14:46:16Z</time>
      </trkpt>
      <trkpt lat="46.02425" lon="6.12043">
        <ele>760.2</ele>
        <time>2021-03-27T14:46:17Z</time>
      </trkpt>
      <trkpt lat="46.02428" lon="6.12036">
        <ele>760</ele>
        <time>2021-03-27T14:46:18Z</time>
      </trkpt>
      <trkpt lat="46.02431" lon="6.1203">
        <ele>760</ele>
        <time>2021-03-27T14:46:19Z</time>
      </trkpt>
      <trkpt lat="46.02434" lon="6.12024">
        <ele>760</ele>
        <time>2021-03-27T14:46:20Z</time>
      </trkpt>
      <trkpt lat="46.02437" lon="6.12018">
        <ele>760</ele>
        <time>2021-03-27T14:46:21Z</time>
      </trkpt>
      <trkpt lat="46.0244" lon="6.12012">
        <ele>760.2</ele>
        <time>2021-03-27T14:46:22Z</time>
      </trkpt>
      <trkpt lat="46.02443" lon="6.12006">
        <ele>760</ele>
        <time>2021-03-27T14:46:23Z</time>
      </trkpt>
      <trkpt lat="46.02446" lon="6.12">
        <ele>760.2</ele>
        <time>2021-03-27T14:46:24Z</time>
      </trkpt>
      <trkpt lat="46.02449" lon="6.11994">
        <ele>760</ele>
        <time>2021-03-27T14:46:25Z</time>
      </trkpt>
      <trkpt lat="46.02452" lon="6.11987">
        <ele>760</ele>
        <time>2021-03-27T14:46:26Z</time>
      </trkpt>
      <trkpt lat="46.02455" lon="6.11981">
        <ele>760</ele>
        <time>2021-03-27T14:46:27Z</time>
      </trkpt>
      <trkpt lat="46.02458" lon="6.11974">
        <ele>760</ele>
        <time>2021-03-27T14:46:28Z</time>
      </trkpt>
      <trkpt lat="46.02461" lon="6.11967">
        <ele>760</ele>
        <time>2021-03-27T14:46:29Z</time>
      </trkpt>
      <trkpt lat="46.02464" lon="6.1196">
        <ele>760.2</ele>
        <time>2021-03-27T14:46:30Z</time>
      </trkpt>
      <trkpt lat="46.02467" lon="6.11952">
        <ele>760</ele>
        <time>2021-03-27T14:46:31Z</time>
      </trkpt>
      <trkpt lat="46.02469" lon="6.11945">
        <ele>760</ele>
        <time>2021-03-27T14:46:32Z</time>
      </trkpt>
      <trkpt lat="46.02472" lon="6.11938">
        <ele>760</ele>
        <time>2021-03-27T14:46:33Z</time>
      </trkpt>
      <trkpt lat="46.02474" lon="6.11931">
        <ele>759.8</ele>
        <time>2021-03-27T14:46:34Z</time>
      </trkpt>
      <trkpt lat="46.02477" lon="6.11924">
        <ele>759.8</ele>
        <time>2021-03-27T14:46:35Z</time>
      </trkpt>
      <trkpt lat="46.02479" lon="6.11917">
        <ele>759.8</ele>
        <time>2021-03-27T14:46:36Z</time>
      </trkpt>
      <trkpt lat="46.02481" lon="6.1191">
        <ele>760</ele>
        <time>2021-03-27T14:46:37Z</time>
      </trkpt>
      <trkpt lat="46.02484" lon="6.11904">
        <ele>760</ele>
        <time>2021-03-27T14:46:38Z</time>
      </trkpt>
      <trkpt lat="46.02486" lon="6.11897">
        <ele>759.8</ele>
        <time>2021-03-27T14:46:39Z</time>
      </trkpt>
      <trkpt lat="46.02488" lon="6.11892">
        <ele>759.8</ele>
        <time>2021-03-27T14:46:40Z</time>
      </trkpt>
      <trkpt lat="46.0249" lon="6.11886">
        <ele>760</ele>
        <time>2021-03-27T14:46:41Z</time>
      </trkpt>
      <trkpt lat="46.02492" lon="6.1188">
        <ele>760</ele>
        <time>2021-03-27T14:46:42Z</time>
      </trkpt>
      <trkpt lat="46.02494" lon="6.11874">
        <ele>760</ele>
        <time>2021-03-27T14:46:43Z</time>
      </trkpt>
      <trkpt lat="46.02496" lon="6.11869">
        <ele>760</ele>
        <time>2021-03-27T14:46:44Z</time>
      </trkpt>
      <trkpt lat="46.02498" lon="6.11863">
        <ele>760</ele>
        <time>2021-03-27T14:46:45Z</time>
      </trkpt>
      <trkpt lat="46.025" lon="6.11858">
        <ele>760.2</ele>
        <time>2021-03-27T14:46:46Z</time>
      </trkpt>
      <trkpt lat="46.02502" lon="6.11853">
        <ele>760.4</ele>
        <time>2021-03-27T14:46:47Z</time>
      </trkpt>
      <trkpt lat="46.02503" lon="6.11847">
        <ele>760.8</ele>
        <time>2021-03-27T14:46:48Z</time>
      </trkpt>
      <trkpt lat="46.02505" lon="6.11842">
        <ele>761.2</ele>
        <time>2021-03-27T14:46:49Z</time>
      </trkpt>
      <trkpt lat="46.02507" lon="6.11837">
        <ele>761.4</ele>
        <time>2021-03-27T14:46:50Z</time>
      </trkpt>
      <trkpt lat="46.02509" lon="6.11831">
        <ele>761.6</ele>
        <time>2021-03-27T14:46:51Z</time>
      </trkpt>
      <trkpt lat="46.02511" lon="6.11826">
        <ele>762</ele>
        <time>2021-03-27T14:46:52Z</time>
      </trkpt>
      <trkpt lat="46.02512" lon="6.1182">
        <ele>762.2</ele>
        <time>2021-03-27T14:46:53Z</time>
      </trkpt>
      <trkpt lat="46.02513" lon="6.11815">
        <ele>762.6</ele>
        <time>2021-03-27T14:46:54Z</time>
      </trkpt>
      <trkpt lat="46.02514" lon="6.1181">
        <ele>762.8</ele>
        <time>2021-03-27T14:46:55Z</time>
      </trkpt>
      <trkpt lat="46.02514" lon="6.11806">
        <ele>763</ele>
        <time>2021-03-27T14:46:56Z</time>
      </trkpt>
      <trkpt lat="46.02515" lon="6.11801">
        <ele>763</ele>
        <time>2021-03-27T14:46:57Z</time>
      </trkpt>
      <trkpt lat="46.02516" lon="6.11796">
        <ele>763.2</ele>
        <time>2021-03-27T14:46:58Z</time>
      </trkpt>
      <trkpt lat="46.02516" lon="6.11792">
        <ele>763.4</ele>
        <time>2021-03-27T14:46:59Z</time>
      </trkpt>
      <trkpt lat="46.02517" lon="6.11787">
        <ele>763.6</ele>
        <time>2021-03-27T14:47:00Z</time>
      </trkpt>
      <trkpt lat="46.02517" lon="6.11781">
        <ele>763.8</ele>
        <time>2021-03-27T14:47:01Z</time>
      </trkpt>
      <trkpt lat="46.02517" lon="6.11777">
        <ele>764</ele>
        <time>2021-03-27T14:47:02Z</time>
      </trkpt>
      <trkpt lat="46.02518" lon="6.11772">
        <ele>764.2</ele>
        <time>2021-03-27T14:47:03Z</time>
      </trkpt>
      <trkpt lat="46.02518" lon="6.11767">
        <ele>764.6</ele>
        <time>2021-03-27T14:47:04Z</time>
      </trkpt>
      <trkpt lat="46.02518" lon="6.11762">
        <ele>764.8</ele>
        <time>2021-03-27T14:47:05Z</time>
      </trkpt>
      <trkpt lat="46.02518" lon="6.11757">
        <ele>765</ele>
        <time>2021-03-27T14:47:06Z</time>
      </trkpt>
      <trkpt lat="46.02518" lon="6.11752">
        <ele>765.2</ele>
        <time>2021-03-27T14:47:07Z</time>
      </trkpt>
      <trkpt lat="46.02519" lon="6.11746">
        <ele>765.4</ele>
        <time>2021-03-27T14:47:08Z</time>
      </trkpt>
      <trkpt lat="46.02519" lon="6.1174">
        <ele>765.6</ele>
        <time>2021-03-27T14:47:09Z</time>
      </trkpt>
      <trkpt lat="46.0252" lon="6.11735">
        <ele>765.8</ele>
        <time>2021-03-27T14:47:10Z</time>
      </trkpt>
      <trkpt lat="46.02521" lon="6.11731">
        <ele>766</ele>
        <time>2021-03-27T14:47:11Z</time>
      </trkpt>
      <trkpt lat="46.02522" lon="6.11726">
        <ele>766</ele>
        <time>2021-03-27T14:47:12Z</time>
      </trkpt>
      <trkpt lat="46.02524" lon="6.11722">
        <ele>766.4</ele>
        <time>2021-03-27T14:47:13Z</time>
      </trkpt>
      <trkpt lat="46.02525" lon="6.11717">
        <ele>766.6</ele>
        <time>2021-03-27T14:47:14Z</time>
      </trkpt>
      <trkpt lat="46.02527" lon="6.11713">
        <ele>766.8</ele>
        <time>2021-03-27T14:47:15Z</time>
      </trkpt>
      <trkpt lat="46.02529" lon="6.11709">
        <ele>767</ele>
        <time>2021-03-27T14:47:16Z</time>
      </trkpt>
      <trkpt lat="46.02531" lon="6.11705">
        <ele>767.2</ele>
        <time>2021-03-27T14:47:17Z</time>
      </trkpt>
      <trkpt lat="46.02533" lon="6.11701">
        <ele>767.4</ele>
        <time>2021-03-27T14:47:18Z</time>
      </trkpt>
      <trkpt lat="46.02535" lon="6.11698">
        <ele>767.6</ele>
        <time>2021-03-27T14:47:19Z</time>
      </trkpt>
      <trkpt lat="46.02536" lon="6.11694">
        <ele>767.8</ele>
        <time>2021-03-27T14:47:20Z</time>
      </trkpt>
      <trkpt lat="46.02538" lon="6.1169">
        <ele>768.2</ele>
        <time>2021-03-27T14:47:21Z</time>
      </trkpt>
      <trkpt lat="46.02539" lon="6.11686">
        <ele>768.2</ele>
        <time>2021-03-27T14:47:22Z</time>
      </trkpt>
      <trkpt lat="46.02541" lon="6.11682">
        <ele>768.4</ele>
        <time>2021-03-27T14:47:23Z</time>
      </trkpt>
      <trkpt lat="46.02542" lon="6.11677">
        <ele>768.4</ele>
        <time>2021-03-27T14:47:24Z</time>
      </trkpt>
      <trkpt lat="46.02544" lon="6.11673">
        <ele>768.8</ele>
        <time>2021-03-27T14:47:25Z</time>
      </trkpt>
      <trkpt lat="46.02544" lon="6.11668">
        <ele>769</ele>
        <time>2021-03-27T14:47:26Z</time>
      </trkpt>
      <trkpt lat="46.02544" lon="6.11662">
        <ele>769</ele>
        <time>2021-03-27T14:47:27Z</time>
      </trkpt>
      <trkpt lat="46.02544" lon="6.11657">
        <ele>769.2</ele>
        <time>2021-03-27T14:47:28Z</time>
      </trkpt>
      <trkpt lat="46.02544" lon="6.11652">
        <ele>769.2</ele>
        <time>2021-03-27T14:47:29Z</time>
      </trkpt>
      <trkpt lat="46.02544" lon="6.11646">
        <ele>769.4</ele>
        <time>2021-03-27T14:47:30Z</time>
      </trkpt>
      <trkpt lat="46.02543" lon="6.11641">
        <ele>769.2</ele>
        <time>2021-03-27T14:47:31Z</time>
      </trkpt>
      <trkpt lat="46.02543" lon="6.11635">
        <ele>769.4</ele>
        <time>2021-03-27T14:47:32Z</time>
      </trkpt>
      <trkpt lat="46.02543" lon="6.11629">
        <ele>769.6</ele>
        <time>2021-03-27T14:47:33Z</time>
      </trkpt>
      <trkpt lat="46.02542" lon="6.11624">
        <ele>769.6</ele>
        <time>2021-03-27T14:47:34Z</time>
      </trkpt>
      <trkpt lat="46.02542" lon="6.11618">
        <ele>769.6</ele>
        <time>2021-03-27T14:47:35Z</time>
      </trkpt>
      <trkpt lat="46.02542" lon="6.11613">
        <ele>769.6</ele>
        <time>2021-03-27T14:47:36Z</time>
      </trkpt>
      <trkpt lat="46.02542" lon="6.11607">
        <ele>769.8</ele>
        <time>2021-03-27T14:47:37Z</time>
      </trkpt>
      <trkpt lat="46.02543" lon="6.11602">
        <ele>770</ele>
        <time>2021-03-27T14:47:38Z</time>
      </trkpt>
      <trkpt lat="46.02543" lon="6.11596">
        <ele>770</ele>
        <time>2021-03-27T14:47:39Z</time>
      </trkpt>
      <trkpt lat="46.02543" lon="6.1159">
        <ele>770</ele>
        <time>2021-03-27T14:47:40Z</time>
      </trkpt>
      <trkpt lat="46.02543" lon="6.11585">
        <ele>770.4</ele>
        <time>2021-03-27T14:47:41Z</time>
      </trkpt>
      <trkpt lat="46.02543" lon="6.11579">
        <ele>770.4</ele>
        <time>2021-03-27T14:47:42Z</time>
      </trkpt>
      <trkpt lat="46.02543" lon="6.11574">
        <ele>770.6</ele>
        <time>2021-03-27T14:47:43Z</time>
      </trkpt>
      <trkpt lat="46.02543" lon="6.11568">
        <ele>770.6</ele>
        <time>2021-03-27T14:47:44Z</time>
      </trkpt>
      <trkpt lat="46.02543" lon="6.11562">
        <ele>770.6</ele>
        <time>2021-03-27T14:47:45Z</time>
      </trkpt>
      <trkpt lat="46.02543" lon="6.11557">
        <ele>770.8</ele>
        <time>2021-03-27T14:47:46Z</time>
      </trkpt>
      <trkpt lat="46.02542" lon="6.11551">
        <ele>770.8</ele>
        <time>2021-03-27T14:47:47Z</time>
      </trkpt>
      <trkpt lat="46.02541" lon="6.11545">
        <ele>771.2</ele>
        <time>2021-03-27T14:47:48Z</time>
      </trkpt>
      <trkpt lat="46.0254" lon="6.11539">
        <ele>771.4</ele>
        <time>2021-03-27T14:47:49Z</time>
      </trkpt>
      <trkpt lat="46.02539" lon="6.11533">
        <ele>771.2</ele>
        <time>2021-03-27T14:47:50Z</time>
      </trkpt>
      <trkpt lat="46.02537" lon="6.11527">
        <ele>771.6</ele>
        <time>2021-03-27T14:47:51Z</time>
      </trkpt>
      <trkpt lat="46.02536" lon="6.11522">
        <ele>771.6</ele>
        <time>2021-03-27T14:47:52Z</time>
      </trkpt>
      <trkpt lat="46.02534" lon="6.11518">
        <ele>772</ele>
        <time>2021-03-27T14:47:53Z</time>
      </trkpt>
      <trkpt lat="46.02532" lon="6.11513">
        <ele>772.2</ele>
        <time>2021-03-27T14:47:54Z</time>
      </trkpt>
      <trkpt lat="46.0253" lon="6.11508">
        <ele>772.4</ele>
        <time>2021-03-27T14:47:55Z</time>
      </trkpt>
      <trkpt lat="46.02528" lon="6.11504">
        <ele>772.4</ele>
        <time>2021-03-27T14:47:56Z</time>
      </trkpt>
      <trkpt lat="46.02526" lon="6.115">
        <ele>772.6</ele>
        <time>2021-03-27T14:47:57Z</time>
      </trkpt>
      <trkpt lat="46.02524" lon="6.11495">
        <ele>772.8</ele>
        <time>2021-03-27T14:47:58Z</time>
      </trkpt>
      <trkpt lat="46.02521" lon="6.11491">
        <ele>772.8</ele>
        <time>2021-03-27T14:47:59Z</time>
      </trkpt>
      <trkpt lat="46.02519" lon="6.11488">
        <ele>773.2</ele>
        <time>2021-03-27T14:48:00Z</time>
      </trkpt>
      <trkpt lat="46.02517" lon="6.11485">
        <ele>773.4</ele>
        <time>2021-03-27T14:48:01Z</time>
      </trkpt>
      <trkpt lat="46.02516" lon="6.11482">
        <ele>773.4</ele>
        <time>2021-03-27T14:48:02Z</time>
      </trkpt>
      <trkpt lat="46.02515" lon="6.1148">
        <ele>773.8</ele>
        <time>2021-03-27T14:48:03Z</time>
      </trkpt>
      <trkpt lat="46.02514" lon="6.11478">
        <ele>773.8</ele>
        <time>2021-03-27T14:48:04Z</time>
      </trkpt>
      <trkpt lat="46.02513" lon="6.11476">
        <ele>774</ele>
        <time>2021-03-27T14:48:05Z</time>
      </trkpt>
      <trkpt lat="46.02512" lon="6.11473">
        <ele>774.2</ele>
        <time>2021-03-27T14:48:06Z</time>
      </trkpt>
      <trkpt lat="46.02511" lon="6.1147">
        <ele>774.4</ele>
        <time>2021-03-27T14:48:07Z</time>
      </trkpt>
      <trkpt lat="46.0251" lon="6.11468">
        <ele>774.4</ele>
        <time>2021-03-27T14:48:08Z</time>
      </trkpt>
      <trkpt lat="46.02508" lon="6.11464">
        <ele>774.6</ele>
        <time>2021-03-27T14:48:09Z</time>
      </trkpt>
      <trkpt lat="46.02506" lon="6.11461">
        <ele>775</ele>
        <time>2021-03-27T14:48:10Z</time>
      </trkpt>
      <trkpt lat="46.02504" lon="6.11458">
        <ele>775</ele>
        <time>2021-03-27T14:48:11Z</time>
      </trkpt>
      <trkpt lat="46.02502" lon="6.11455">
        <ele>775.2</ele>
        <time>2021-03-27T14:48:12Z</time>
      </trkpt>
      <trkpt lat="46.025" lon="6.11451">
        <ele>775.2</ele>
        <time>2021-03-27T14:48:13Z</time>
      </trkpt>
      <trkpt lat="46.02498" lon="6.11448">
        <ele>775.6</ele>
        <time>2021-03-27T14:48:14Z</time>
      </trkpt>
      <trkpt lat="46.02497" lon="6.11444">
        <ele>775.6</ele>
        <time>2021-03-27T14:48:15Z</time>
      </trkpt>
      <trkpt lat="46.02495" lon="6.1144">
        <ele>775.6</ele>
        <time>2021-03-27T14:48:16Z</time>
      </trkpt>
      <trkpt lat="46.02493" lon="6.11437">
        <ele>775.8</ele>
        <time>2021-03-27T14:48:17Z</time>
      </trkpt>
      <trkpt lat="46.02491" lon="6.11433">
        <ele>775.8</ele>
        <time>2021-03-27T14:48:18Z</time>
      </trkpt>
      <trkpt lat="46.0249" lon="6.1143">
        <ele>776</ele>
        <time>2021-03-27T14:48:19Z</time>
      </trkpt>
      <trkpt lat="46.02488" lon="6.11427">
        <ele>776</ele>
        <time>2021-03-27T14:48:20Z</time>
      </trkpt>
      <trkpt lat="46.02486" lon="6.11423">
        <ele>776.2</ele>
        <time>2021-03-27T14:48:21Z</time>
      </trkpt>
      <trkpt lat="46.02484" lon="6.11419">
        <ele>776.4</ele>
        <time>2021-03-27T14:48:22Z</time>
      </trkpt>
      <trkpt lat="46.02482" lon="6.11416">
        <ele>776.6</ele>
        <time>2021-03-27T14:48:23Z</time>
      </trkpt>
      <trkpt lat="46.0248" lon="6.11412">
        <ele>776.8</ele>
        <time>2021-03-27T14:48:24Z</time>
      </trkpt>
      <trkpt lat="46.02478" lon="6.11408">
        <ele>777</ele>
        <time>2021-03-27T14:48:25Z</time>
      </trkpt>
      <trkpt lat="46.02476" lon="6.11404">
        <ele>777</ele>
        <time>2021-03-27T14:48:26Z</time>
      </trkpt>
      <trkpt lat="46.02474" lon="6.11401">
        <ele>777.2</ele>
        <time>2021-03-27T14:48:27Z</time>
      </trkpt>
      <trkpt lat="46.02472" lon="6.11397">
        <ele>777.4</ele>
        <time>2021-03-27T14:48:28Z</time>
      </trkpt>
      <trkpt lat="46.02471" lon="6.11393">
        <ele>777.6</ele>
        <time>2021-03-27T14:48:29Z</time>
      </trkpt>
      <trkpt lat="46.02469" lon="6.11389">
        <ele>778</ele>
        <time>2021-03-27T14:48:30Z</time>
      </trkpt>
      <trkpt lat="46.02467" lon="6.11385">
        <ele>778.2</ele>
        <time>2021-03-27T14:48:31Z</time>
      </trkpt>
      <trkpt lat="46.02465" lon="6.11381">
        <ele>778.4</ele>
        <time>2021-03-27T14:48:32Z</time>
      </trkpt>
      <trkpt lat="46.02464" lon="6.11377">
        <ele>778.6</ele>
        <time>2021-03-27T14:48:33Z</time>
      </trkpt>
      <trkpt lat="46.02462" lon="6.11374">
        <ele>778.6</ele>
        <time>2021-03-27T14:48:34Z</time>
      </trkpt>
      <trkpt lat="46.0246" lon="6.1137">
        <ele>778.8</ele>
        <time>2021-03-27T14:48:35Z</time>
      </trkpt>
      <trkpt lat="46.02459" lon="6.11368">
        <ele>779.2</ele>
        <time>2021-03-27T14:48:36Z</time>
      </trkpt>
      <trkpt lat="46.02457" lon="6.11365">
        <ele>779.2</ele>
        <time>2021-03-27T14:48:37Z</time>
      </trkpt>
      <trkpt lat="46.02456" lon="6.11362">
        <ele>779.6</ele>
        <time>2021-03-27T14:48:38Z</time>
      </trkpt>
      <trkpt lat="46.02454" lon="6.11359">
        <ele>779.8</ele>
        <time>2021-03-27T14:48:39Z</time>
      </trkpt>
      <trkpt lat="46.02453" lon="6.11356">
        <ele>780</ele>
        <time>2021-03-27T14:48:40Z</time>
      </trkpt>
      <trkpt lat="46.02451" lon="6.11353">
        <ele>780.4</ele>
        <time>2021-03-27T14:48:41Z</time>
      </trkpt>
      <trkpt lat="46.02449" lon="6.1135">
        <ele>780.4</ele>
        <time>2021-03-27T14:48:42Z</time>
      </trkpt>
      <trkpt lat="46.02448" lon="6.11346">
        <ele>780.4</ele>
        <time>2021-03-27T14:48:43Z</time>
      </trkpt>
      <trkpt lat="46.02446" lon="6.11343">
        <ele>781</ele>
        <time>2021-03-27T14:48:44Z</time>
      </trkpt>
      <trkpt lat="46.02444" lon="6.1134">
        <ele>781</ele>
        <time>2021-03-27T14:48:45Z</time>
      </trkpt>
      <trkpt lat="46.02443" lon="6.11336">
        <ele>781.4</ele>
        <time>2021-03-27T14:48:46Z</time>
      </trkpt>
      <trkpt lat="46.02441" lon="6.11333">
        <ele>781.6</ele>
        <time>2021-03-27T14:48:47Z</time>
      </trkpt>
      <trkpt lat="46.0244" lon="6.11329">
        <ele>781.8</ele>
        <time>2021-03-27T14:48:48Z</time>
      </trkpt>
      <trkpt lat="46.02438" lon="6.11326">
        <ele>782.2</ele>
        <time>2021-03-27T14:48:49Z</time>
      </trkpt>
      <trkpt lat="46.02436" lon="6.11322">
        <ele>782.2</ele>
        <time>2021-03-27T14:48:50Z</time>
      </trkpt>
      <trkpt lat="46.02434" lon="6.11319">
        <ele>782.2</ele>
        <time>2021-03-27T14:48:51Z</time>
      </trkpt>
      <trkpt lat="46.02433" lon="6.11315">
        <ele>782.4</ele>
        <time>2021-03-27T14:48:52Z</time>
      </trkpt>
      <trkpt lat="46.02431" lon="6.11312">
        <ele>782.6</ele>
        <time>2021-03-27T14:48:53Z</time>
      </trkpt>
      <trkpt lat="46.02429" lon="6.11309">
        <ele>783</ele>
        <time>2021-03-27T14:48:54Z</time>
      </trkpt>
      <trkpt lat="46.02427" lon="6.11305">
        <ele>783</ele>
        <time>2021-03-27T14:48:55Z</time>
      </trkpt>
      <trkpt lat="46.02426" lon="6.11302">
        <ele>783</ele>
        <time>2021-03-27T14:48:56Z</time>
      </trkpt>
      <trkpt lat="46.02424" lon="6.11298">
        <ele>783.4</ele>
        <time>2021-03-27T14:48:57Z</time>
      </trkpt>
      <trkpt lat="46.02422" lon="6.11295">
        <ele>783.6</ele>
        <time>2021-03-27T14:48:58Z</time>
      </trkpt>
      <trkpt lat="46.02421" lon="6.11291">
        <ele>783.8</ele>
        <time>2021-03-27T14:48:59Z</time>
      </trkpt>
      <trkpt lat="46.02419" lon="6.11287">
        <ele>783.8</ele>
        <time>2021-03-27T14:49:00Z</time>
      </trkpt>
      <trkpt lat="46.02418" lon="6.11284">
        <ele>784</ele>
        <time>2021-03-27T14:49:01Z</time>
      </trkpt>
      <trkpt lat="46.02416" lon="6.11279">
        <ele>784.2</ele>
        <time>2021-03-27T14:49:02Z</time>
      </trkpt>
      <trkpt lat="46.02415" lon="6.11276">
        <ele>784.4</ele>
        <time>2021-03-27T14:49:03Z</time>
      </trkpt>
      <trkpt lat="46.02413" lon="6.11272">
        <ele>784.6</ele>
        <time>2021-03-27T14:49:04Z</time>
      </trkpt>
      <trkpt lat="46.02411" lon="6.11269">
        <ele>784.8</ele>
        <time>2021-03-27T14:49:05Z</time>
      </trkpt>
      <trkpt lat="46.0241" lon="6.11265">
        <ele>785</ele>
        <time>2021-03-27T14:49:06Z</time>
      </trkpt>
      <trkpt lat="46.02408" lon="6.11261">
        <ele>785.4</ele>
        <time>2021-03-27T14:49:07Z</time>
      </trkpt>
      <trkpt lat="46.02406" lon="6.11258">
        <ele>785.4</ele>
        <time>2021-03-27T14:49:08Z</time>
      </trkpt>
      <trkpt lat="46.02404" lon="6.11254">
        <ele>785.6</ele>
        <time>2021-03-27T14:49:09Z</time>
      </trkpt>
      <trkpt lat="46.02402" lon="6.11251">
        <ele>785.6</ele>
        <time>2021-03-27T14:49:10Z</time>
      </trkpt>
      <trkpt lat="46.024" lon="6.11247">
        <ele>785.8</ele>
        <time>2021-03-27T14:49:11Z</time>
      </trkpt>
      <trkpt lat="46.02398" lon="6.11243">
        <ele>786</ele>
        <time>2021-03-27T14:49:12Z</time>
      </trkpt>
      <trkpt lat="46.02396" lon="6.11239">
        <ele>786.2</ele>
        <time>2021-03-27T14:49:13Z</time>
      </trkpt>
      <trkpt lat="46.02394" lon="6.11235">
        <ele>786.4</ele>
        <time>2021-03-27T14:49:14Z</time>
      </trkpt>
      <trkpt lat="46.02392" lon="6.1123">
        <ele>786.6</ele>
        <time>2021-03-27T14:49:15Z</time>
      </trkpt>
      <trkpt lat="46.0239" lon="6.11226">
        <ele>786.6</ele>
        <time>2021-03-27T14:49:16Z</time>
      </trkpt>
      <trkpt lat="46.02388" lon="6.11222">
        <ele>786.6</ele>
        <time>2021-03-27T14:49:17Z</time>
      </trkpt>
      <trkpt lat="46.02387" lon="6.11218">
        <ele>786.6</ele>
        <time>2021-03-27T14:49:18Z</time>
      </trkpt>
      <trkpt lat="46.02385" lon="6.11214">
        <ele>786.8</ele>
        <time>2021-03-27T14:49:19Z</time>
      </trkpt>
      <trkpt lat="46.02384" lon="6.1121">
        <ele>786.8</ele>
        <time>2021-03-27T14:49:20Z</time>
      </trkpt>
      <trkpt lat="46.02382" lon="6.11206">
        <ele>786.8</ele>
        <time>2021-03-27T14:49:21Z</time>
      </trkpt>
      <trkpt lat="46.02381" lon="6.11202">
        <ele>787</ele>
        <time>2021-03-27T14:49:22Z</time>
      </trkpt>
      <trkpt lat="46.02379" lon="6.11199">
        <ele>787</ele>
        <time>2021-03-27T14:49:23Z</time>
      </trkpt>
      <trkpt lat="46.02378" lon="6.11195">
        <ele>787.2</ele>
        <time>2021-03-27T14:49:24Z</time>
      </trkpt>
      <trkpt lat="46.02377" lon="6.11191">
        <ele>787.4</ele>
        <time>2021-03-27T14:49:25Z</time>
      </trkpt>
      <trkpt lat="46.02375" lon="6.11187">
        <ele>787.4</ele>
        <time>2021-03-27T14:49:26Z</time>
      </trkpt>
      <trkpt lat="46.02374" lon="6.11183">
        <ele>787.8</ele>
        <time>2021-03-27T14:49:27Z</time>
      </trkpt>
      <trkpt lat="46.02372" lon="6.11179">
        <ele>787.8</ele>
        <time>2021-03-27T14:49:28Z</time>
      </trkpt>
      <trkpt lat="46.02371" lon="6.11174">
        <ele>788</ele>
        <time>2021-03-27T14:49:29Z</time>
      </trkpt>
      <trkpt lat="46.02369" lon="6.1117">
        <ele>788.2</ele>
        <time>2021-03-27T14:49:30Z</time>
      </trkpt>
      <trkpt lat="46.02368" lon="6.11166">
        <ele>788.2</ele>
        <time>2021-03-27T14:49:31Z</time>
      </trkpt>
      <trkpt lat="46.02366" lon="6.11162">
        <ele>788.2</ele>
        <time>2021-03-27T14:49:32Z</time>
      </trkpt>
      <trkpt lat="46.02365" lon="6.11158">
        <ele>788.4</ele>
        <time>2021-03-27T14:49:33Z</time>
      </trkpt>
      <trkpt lat="46.02363" lon="6.11154">
        <ele>788.6</ele>
        <time>2021-03-27T14:49:34Z</time>
      </trkpt>
      <trkpt lat="46.02362" lon="6.1115">
        <ele>788.8</ele>
        <time>2021-03-27T14:49:35Z</time>
      </trkpt>
      <trkpt lat="46.02361" lon="6.11146">
        <ele>789</ele>
        <time>2021-03-27T14:49:36Z</time>
      </trkpt>
      <trkpt lat="46.0236" lon="6.11142">
        <ele>789.2</ele>
        <time>2021-03-27T14:49:37Z</time>
      </trkpt>
      <trkpt lat="46.02359" lon="6.11137">
        <ele>789.4</ele>
        <time>2021-03-27T14:49:38Z</time>
      </trkpt>
      <trkpt lat="46.02358" lon="6.11133">
        <ele>789.6</ele>
        <time>2021-03-27T14:49:39Z</time>
      </trkpt>
      <trkpt lat="46.02357" lon="6.11129">
        <ele>789.8</ele>
        <time>2021-03-27T14:49:40Z</time>
      </trkpt>
      <trkpt lat="46.02356" lon="6.11125">
        <ele>790.4</ele>
        <time>2021-03-27T14:49:41Z</time>
      </trkpt>
      <trkpt lat="46.02355" lon="6.1112">
        <ele>790.6</ele>
        <time>2021-03-27T14:49:42Z</time>
      </trkpt>
      <trkpt lat="46.02354" lon="6.11116">
        <ele>790.6</ele>
        <time>2021-03-27T14:49:43Z</time>
      </trkpt>
      <trkpt lat="46.02353" lon="6.11112">
        <ele>790.8</ele>
        <time>2021-03-27T14:49:44Z</time>
      </trkpt>
      <trkpt lat="46.02352" lon="6.11108">
        <ele>791</ele>
        <time>2021-03-27T14:49:45Z</time>
      </trkpt>
      <trkpt lat="46.02351" lon="6.11104">
        <ele>791</ele>
        <time>2021-03-27T14:49:46Z</time>
      </trkpt>
      <trkpt lat="46.0235" lon="6.11099">
        <ele>791.4</ele>
        <time>2021-03-27T14:49:47Z</time>
      </trkpt>
      <trkpt lat="46.02349" lon="6.11094">
        <ele>791.6</ele>
        <time>2021-03-27T14:49:48Z</time>
      </trkpt>
      <trkpt lat="46.02349" lon="6.11089">
        <ele>791.8</ele>
        <time>2021-03-27T14:49:49Z</time>
      </trkpt>
      <trkpt lat="46.02349" lon="6.11085">
        <ele>791.8</ele>
        <time>2021-03-27T14:49:50Z</time>
      </trkpt>
      <trkpt lat="46.02348" lon="6.1108">
        <ele>792.2</ele>
        <time>2021-03-27T14:49:51Z</time>
      </trkpt>
      <trkpt lat="46.02348" lon="6.11076">
        <ele>792.4</ele>
        <time>2021-03-27T14:49:52Z</time>
      </trkpt>
      <trkpt lat="46.02347" lon="6.11071">
        <ele>792.6</ele>
        <time>2021-03-27T14:49:53Z</time>
      </trkpt>
      <trkpt lat="46.02346" lon="6.11067">
        <ele>792.8</ele>
        <time>2021-03-27T14:49:54Z</time>
      </trkpt>
      <trkpt lat="46.02346" lon="6.11062">
        <ele>792.8</ele>
        <time>2021-03-27T14:49:55Z</time>
      </trkpt>
      <trkpt lat="46.02345" lon="6.11058">
        <ele>793</ele>
        <time>2021-03-27T14:49:56Z</time>
      </trkpt>
      <trkpt lat="46.02344" lon="6.11053">
        <ele>793.2</ele>
        <time>2021-03-27T14:49:57Z</time>
      </trkpt>
      <trkpt lat="46.02344" lon="6.11049">
        <ele>793.4</ele>
        <time>2021-03-27T14:49:58Z</time>
      </trkpt>
      <trkpt lat="46.02343" lon="6.11044">
        <ele>793.6</ele>
        <time>2021-03-27T14:49:59Z</time>
      </trkpt>
      <trkpt lat="46.02343" lon="6.1104">
        <ele>793.8</ele>
        <time>2021-03-27T14:50:00Z</time>
      </trkpt>
      <trkpt lat="46.02343" lon="6.11035">
        <ele>793.8</ele>
        <time>2021-03-27T14:50:01Z</time>
      </trkpt>
      <trkpt lat="46.02343" lon="6.11031">
        <ele>794.2</ele>
        <time>2021-03-27T14:50:02Z</time>
      </trkpt>
      <trkpt lat="46.02342" lon="6.11027">
        <ele>794.4</ele>
        <time>2021-03-27T14:50:03Z</time>
      </trkpt>
      <trkpt lat="46.02342" lon="6.11022">
        <ele>794.4</ele>
        <time>2021-03-27T14:50:04Z</time>
      </trkpt>
      <trkpt lat="46.02342" lon="6.11018">
        <ele>794.4</ele>
        <time>2021-03-27T14:50:05Z</time>
      </trkpt>
      <trkpt lat="46.02342" lon="6.11013">
        <ele>794.6</ele>
        <time>2021-03-27T14:50:06Z</time>
      </trkpt>
      <trkpt lat="46.02342" lon="6.11009">
        <ele>794.6</ele>
        <time>2021-03-27T14:50:07Z</time>
      </trkpt>
      <trkpt lat="46.02343" lon="6.11004">
        <ele>794.6</ele>
        <time>2021-03-27T14:50:08Z</time>
      </trkpt>
      <trkpt lat="46.02344" lon="6.11">
        <ele>794.8</ele>
        <time>2021-03-27T14:50:09Z</time>
      </trkpt>
      <trkpt lat="46.02344" lon="6.10996">
        <ele>795</ele>
        <time>2021-03-27T14:50:10Z</time>
      </trkpt>
      <trkpt lat="46.02345" lon="6.10992">
        <ele>795.2</ele>
        <time>2021-03-27T14:50:11Z</time>
      </trkpt>
      <trkpt lat="46.02347" lon="6.10988">
        <ele>795.4</ele>
        <time>2021-03-27T14:50:12Z</time>
      </trkpt>
      <trkpt lat="46.02348" lon="6.10984">
        <ele>795.6</ele>
        <time>2021-03-27T14:50:13Z</time>
      </trkpt>
      <trkpt lat="46.0235" lon="6.1098">
        <ele>795.8</ele>
        <time>2021-03-27T14:50:14Z</time>
      </trkpt>
      <trkpt lat="46.02351" lon="6.10976">
        <ele>795.8</ele>
        <time>2021-03-27T14:50:15Z</time>
      </trkpt>
      <trkpt lat="46.02353" lon="6.10973">
        <ele>796.2</ele>
        <time>2021-03-27T14:50:16Z</time>
      </trkpt>
      <trkpt lat="46.02355" lon="6.1097">
        <ele>796.2</ele>
        <time>2021-03-27T14:50:17Z</time>
      </trkpt>
      <trkpt lat="46.02358" lon="6.10967">
        <ele>796.4</ele>
        <time>2021-03-27T14:50:18Z</time>
      </trkpt>
      <trkpt lat="46.02361" lon="6.10965">
        <ele>796.8</ele>
        <time>2021-03-27T14:50:19Z</time>
      </trkpt>
      <trkpt lat="46.02364" lon="6.10963">
        <ele>796.8</ele>
        <time>2021-03-27T14:50:20Z</time>
      </trkpt>
      <trkpt lat="46.02366" lon="6.1096">
        <ele>797</ele>
        <time>2021-03-27T14:50:21Z</time>
      </trkpt>
      <trkpt lat="46.02369" lon="6.10958">
        <ele>797.2</ele>
        <time>2021-03-27T14:50:22Z</time>
      </trkpt>
      <trkpt lat="46.02373" lon="6.10955">
        <ele>797.4</ele>
        <time>2021-03-27T14:50:23Z</time>
      </trkpt>
      <trkpt lat="46.02376" lon="6.10953">
        <ele>797.8</ele>
        <time>2021-03-27T14:50:24Z</time>
      </trkpt>
      <trkpt lat="46.02379" lon="6.10951">
        <ele>797.6</ele>
        <time>2021-03-27T14:50:25Z</time>
      </trkpt>
      <trkpt lat="46.02382" lon="6.10948">
        <ele>797.8</ele>
        <time>2021-03-27T14:50:26Z</time>
      </trkpt>
      <trkpt lat="46.02386" lon="6.10946">
        <ele>797.6</ele>
        <time>2021-03-27T14:50:27Z</time>
      </trkpt>
      <trkpt lat="46.02389" lon="6.10944">
        <ele>797.8</ele>
        <time>2021-03-27T14:50:28Z</time>
      </trkpt>
      <trkpt lat="46.02393" lon="6.10941">
        <ele>797.8</ele>
        <time>2021-03-27T14:50:29Z</time>
      </trkpt>
      <trkpt lat="46.02396" lon="6.10939">
        <ele>797.8</ele>
        <time>2021-03-27T14:50:30Z</time>
      </trkpt>
      <trkpt lat="46.02399" lon="6.10937">
        <ele>798</ele>
        <time>2021-03-27T14:50:31Z</time>
      </trkpt>
      <trkpt lat="46.02403" lon="6.10934">
        <ele>798.2</ele>
        <time>2021-03-27T14:50:32Z</time>
      </trkpt>
      <trkpt lat="46.02406" lon="6.10932">
        <ele>798</ele>
        <time>2021-03-27T14:50:33Z</time>
      </trkpt>
      <trkpt lat="46.02409" lon="6.1093">
        <ele>798</ele>
        <time>2021-03-27T14:50:34Z</time>
      </trkpt>
      <trkpt lat="46.02413" lon="6.10927">
        <ele>798</ele>
        <time>2021-03-27T14:50:35Z</time>
      </trkpt>
      <trkpt lat="46.02416" lon="6.10925">
        <ele>798.2</ele>
        <time>2021-03-27T14:50:36Z</time>
      </trkpt>
      <trkpt lat="46.02419" lon="6.10923">
        <ele>798.2</ele>
        <time>2021-03-27T14:50:37Z</time>
      </trkpt>
      <trkpt lat="46.02421" lon="6.10921">
        <ele>798.2</ele>
        <time>2021-03-27T14:50:38Z</time>
      </trkpt>
      <trkpt lat="46.02424" lon="6.10918">
        <ele>798.2</ele>
        <time>2021-03-27T14:50:39Z</time>
      </trkpt>
      <trkpt lat="46.02427" lon="6.10916">
        <ele>798.2</ele>
        <time>2021-03-27T14:50:40Z</time>
      </trkpt>
      <trkpt lat="46.02429" lon="6.10915">
        <ele>798.2</ele>
        <time>2021-03-27T14:50:41Z</time>
      </trkpt>
      <trkpt lat="46.02432" lon="6.10913">
        <ele>798.2</ele>
        <time>2021-03-27T14:50:42Z</time>
      </trkpt>
      <trkpt lat="46.02434" lon="6.10912">
        <ele>798.4</ele>
        <time>2021-03-27T14:50:43Z</time>
      </trkpt>
      <trkpt lat="46.02437" lon="6.10911">
        <ele>798.4</ele>
        <time>2021-03-27T14:50:44Z</time>
      </trkpt>
      <trkpt lat="46.02439" lon="6.1091">
        <ele>798.4</ele>
        <time>2021-03-27T14:50:45Z</time>
      </trkpt>
      <trkpt lat="46.02441" lon="6.10909">
        <ele>798.6</ele>
        <time>2021-03-27T14:50:46Z</time>
      </trkpt>
      <trkpt lat="46.02443" lon="6.10908">
        <ele>798.4</ele>
        <time>2021-03-27T14:50:47Z</time>
      </trkpt>
      <trkpt lat="46.02445" lon="6.10906">
        <ele>798.4</ele>
        <time>2021-03-27T14:50:48Z</time>
      </trkpt>
      <trkpt lat="46.02447" lon="6.10905">
        <ele>798.6</ele>
        <time>2021-03-27T14:50:49Z</time>
      </trkpt>
      <trkpt lat="46.02449" lon="6.10903">
        <ele>798.6</ele>
        <time>2021-03-27T14:50:50Z</time>
      </trkpt>
      <trkpt lat="46.02452" lon="6.10901">
        <ele>798.6</ele>
        <time>2021-03-27T14:50:51Z</time>
      </trkpt>
      <trkpt lat="46.02454" lon="6.109">
        <ele>798.6</ele>
        <time>2021-03-27T14:50:52Z</time>
      </trkpt>
      <trkpt lat="46.02456" lon="6.10898">
        <ele>798.6</ele>
        <time>2021-03-27T14:50:53Z</time>
      </trkpt>
      <trkpt lat="46.02458" lon="6.10896">
        <ele>798.8</ele>
        <time>2021-03-27T14:50:54Z</time>
      </trkpt>
      <trkpt lat="46.02461" lon="6.10895">
        <ele>798.6</ele>
        <time>2021-03-27T14:50:55Z</time>
      </trkpt>
      <trkpt lat="46.02464" lon="6.10893">
        <ele>798.6</ele>
        <time>2021-03-27T14:50:56Z</time>
      </trkpt>
      <trkpt lat="46.02467" lon="6.10891">
        <ele>798.6</ele>
        <time>2021-03-27T14:50:57Z</time>
      </trkpt>
      <trkpt lat="46.0247" lon="6.10889">
        <ele>798.6</ele>
        <time>2021-03-27T14:50:58Z</time>
      </trkpt>
      <trkpt lat="46.02473" lon="6.10887">
        <ele>798.8</ele>
        <time>2021-03-27T14:50:59Z</time>
      </trkpt>
      <trkpt lat="46.02476" lon="6.10885">
        <ele>798.6</ele>
        <time>2021-03-27T14:51:00Z</time>
      </trkpt>
      <trkpt lat="46.0248" lon="6.10882">
        <ele>798.4</ele>
        <time>2021-03-27T14:51:01Z</time>
      </trkpt>
      <trkpt lat="46.02483" lon="6.1088">
        <ele>798.4</ele>
        <time>2021-03-27T14:51:02Z</time>
      </trkpt>
      <trkpt lat="46.02486" lon="6.10878">
        <ele>798.6</ele>
        <time>2021-03-27T14:51:03Z</time>
      </trkpt>
      <trkpt lat="46.02489" lon="6.10876">
        <ele>798.4</ele>
        <time>2021-03-27T14:51:04Z</time>
      </trkpt>
      <trkpt lat="46.02492" lon="6.10874">
        <ele>798.4</ele>
        <time>2021-03-27T14:51:05Z</time>
      </trkpt>
      <trkpt lat="46.02495" lon="6.10872">
        <ele>798.4</ele>
        <time>2021-03-27T14:51:06Z</time>
      </trkpt>
      <trkpt lat="46.02498" lon="6.10869">
        <ele>798.4</ele>
        <time>2021-03-27T14:51:07Z</time>
      </trkpt>
      <trkpt lat="46.02501" lon="6.10867">
        <ele>798.4</ele>
        <time>2021-03-27T14:51:08Z</time>
      </trkpt>
      <trkpt lat="46.02505" lon="6.10865">
        <ele>798.2</ele>
        <time>2021-03-27T14:51:09Z</time>
      </trkpt>
      <trkpt lat="46.02509" lon="6.10862">
        <ele>798.2</ele>
        <time>2021-03-27T14:51:10Z</time>
      </trkpt>
      <trkpt lat="46.02513" lon="6.1086">
        <ele>798.2</ele>
        <time>2021-03-27T14:51:11Z</time>
      </trkpt>
      <trkpt lat="46.02517" lon="6.10857">
        <ele>798.4</ele>
        <time>2021-03-27T14:51:12Z</time>
      </trkpt>
      <trkpt lat="46.02521" lon="6.10855">
        <ele>798.2</ele>
        <time>2021-03-27T14:51:13Z</time>
      </trkpt>
      <trkpt lat="46.02525" lon="6.10852">
        <ele>798.2</ele>
        <time>2021-03-27T14:51:14Z</time>
      </trkpt>
      <trkpt lat="46.0253" lon="6.1085">
        <ele>798.2</ele>
        <time>2021-03-27T14:51:15Z</time>
      </trkpt>
      <trkpt lat="46.02534" lon="6.10847">
        <ele>798.2</ele>
        <time>2021-03-27T14:51:16Z</time>
      </trkpt>
      <trkpt lat="46.02538" lon="6.10844">
        <ele>798.2</ele>
        <time>2021-03-27T14:51:17Z</time>
      </trkpt>
      <trkpt lat="46.02542" lon="6.10842">
        <ele>798</ele>
        <time>2021-03-27T14:51:18Z</time>
      </trkpt>
      <trkpt lat="46.02547" lon="6.10839">
        <ele>798</ele>
        <time>2021-03-27T14:51:19Z</time>
      </trkpt>
      <trkpt lat="46.02551" lon="6.10837">
        <ele>798</ele>
        <time>2021-03-27T14:51:20Z</time>
      </trkpt>
      <trkpt lat="46.02555" lon="6.10835">
        <ele>798.2</ele>
        <time>2021-03-27T14:51:21Z</time>
      </trkpt>
      <trkpt lat="46.0256" lon="6.10833">
        <ele>798</ele>
        <time>2021-03-27T14:51:22Z</time>
      </trkpt>
      <trkpt lat="46.02563" lon="6.1083">
        <ele>798</ele>
        <time>2021-03-27T14:51:23Z</time>
      </trkpt>
      <trkpt lat="46.02567" lon="6.10829">
        <ele>797.8</ele>
        <time>2021-03-27T14:51:24Z</time>
      </trkpt>
      <trkpt lat="46.02571" lon="6.10827">
        <ele>797.8</ele>
        <time>2021-03-27T14:51:25Z</time>
      </trkpt>
      <trkpt lat="46.02575" lon="6.10825">
        <ele>797.8</ele>
        <time>2021-03-27T14:51:26Z</time>
      </trkpt>
      <trkpt lat="46.02579" lon="6.10824">
        <ele>797.8</ele>
        <time>2021-03-27T14:51:27Z</time>
      </trkpt>
      <trkpt lat="46.02583" lon="6.10823">
        <ele>797.8</ele>
        <time>2021-03-27T14:51:28Z</time>
      </trkpt>
      <trkpt lat="46.02587" lon="6.10821">
        <ele>797.8</ele>
        <time>2021-03-27T14:51:29Z</time>
      </trkpt>
      <trkpt lat="46.02591" lon="6.1082">
        <ele>797.6</ele>
        <time>2021-03-27T14:51:30Z</time>
      </trkpt>
      <trkpt lat="46.02595" lon="6.10819">
        <ele>797.6</ele>
        <time>2021-03-27T14:51:31Z</time>
      </trkpt>
      <trkpt lat="46.026" lon="6.10819">
        <ele>797.6</ele>
        <time>2021-03-27T14:51:32Z</time>
      </trkpt>
      <trkpt lat="46.02604" lon="6.10819">
        <ele>797.4</ele>
        <time>2021-03-27T14:51:33Z</time>
      </trkpt>
      <trkpt lat="46.02609" lon="6.10818">
        <ele>797.6</ele>
        <time>2021-03-27T14:51:34Z</time>
      </trkpt>
      <trkpt lat="46.02613" lon="6.10818">
        <ele>797.6</ele>
        <time>2021-03-27T14:51:35Z</time>
      </trkpt>
      <trkpt lat="46.02618" lon="6.10817">
        <ele>797.4</ele>
        <time>2021-03-27T14:51:36Z</time>
      </trkpt>
      <trkpt lat="46.02623" lon="6.10817">
        <ele>797.4</ele>
        <time>2021-03-27T14:51:37Z</time>
      </trkpt>
      <trkpt lat="46.02627" lon="6.10817">
        <ele>797.4</ele>
        <time>2021-03-27T14:51:38Z</time>
      </trkpt>
      <trkpt lat="46.02632" lon="6.10816">
        <ele>797.2</ele>
        <time>2021-03-27T14:51:39Z</time>
      </trkpt>
      <trkpt lat="46.02637" lon="6.10816">
        <ele>797.2</ele>
        <time>2021-03-27T14:51:40Z</time>
      </trkpt>
      <trkpt lat="46.02642" lon="6.10816">
        <ele>797.2</ele>
        <time>2021-03-27T14:51:41Z</time>
      </trkpt>
      <trkpt lat="46.02647" lon="6.10815">
        <ele>797.2</ele>
        <time>2021-03-27T14:51:42Z</time>
      </trkpt>
      <trkpt lat="46.02653" lon="6.10814">
        <ele>797.2</ele>
        <time>2021-03-27T14:51:43Z</time>
      </trkpt>
      <trkpt lat="46.02658" lon="6.10813">
        <ele>797</ele>
        <time>2021-03-27T14:51:44Z</time>
      </trkpt>
      <trkpt lat="46.02663" lon="6.10813">
        <ele>797</ele>
        <time>2021-03-27T14:51:45Z</time>
      </trkpt>
      <trkpt lat="46.02669" lon="6.10812">
        <ele>797.2</ele>
        <time>2021-03-27T14:51:46Z</time>
      </trkpt>
      <trkpt lat="46.02674" lon="6.10811">
        <ele>797</ele>
        <time>2021-03-27T14:51:47Z</time>
      </trkpt>
      <trkpt lat="46.0268" lon="6.1081">
        <ele>797.2</ele>
        <time>2021-03-27T14:51:48Z</time>
      </trkpt>
      <trkpt lat="46.02685" lon="6.1081">
        <ele>797</ele>
        <time>2021-03-27T14:51:49Z</time>
      </trkpt>
      <trkpt lat="46.0269" lon="6.10809">
        <ele>797.2</ele>
        <time>2021-03-27T14:51:50Z</time>
      </trkpt>
      <trkpt lat="46.02695" lon="6.10808">
        <ele>797</ele>
        <time>2021-03-27T14:51:51Z</time>
      </trkpt>
      <trkpt lat="46.027" lon="6.10808">
        <ele>797</ele>
        <time>2021-03-27T14:51:52Z</time>
      </trkpt>
      <trkpt lat="46.0271" lon="6.10806">
        <ele>797.4</ele>
        <time>2021-03-27T14:51:54Z</time>
      </trkpt>
      <trkpt lat="46.02715" lon="6.10806">
        <ele>797.2</ele>
        <time>2021-03-27T14:51:55Z</time>
      </trkpt>
      <trkpt lat="46.0272" lon="6.10805">
        <ele>797.4</ele>
        <time>2021-03-27T14:51:56Z</time>
      </trkpt>
      <trkpt lat="46.02725" lon="6.10805">
        <ele>797.4</ele>
        <time>2021-03-27T14:51:57Z</time>
      </trkpt>
      <trkpt lat="46.0273" lon="6.10804">
        <ele>797.4</ele>
        <time>2021-03-27T14:51:58Z</time>
      </trkpt>
      <trkpt lat="46.02735" lon="6.10804">
        <ele>797.4</ele>
        <time>2021-03-27T14:51:59Z</time>
      </trkpt>
      <trkpt lat="46.0274" lon="6.10803">
        <ele>797.4</ele>
        <time>2021-03-27T14:52:00Z</time>
      </trkpt>
      <trkpt lat="46.02745" lon="6.10803">
        <ele>797.4</ele>
        <time>2021-03-27T14:52:01Z</time>
      </trkpt>
      <trkpt lat="46.02751" lon="6.10803">
        <ele>797.4</ele>
        <time>2021-03-27T14:52:02Z</time>
      </trkpt>
      <trkpt lat="46.02756" lon="6.10804">
        <ele>797.4</ele>
        <time>2021-03-27T14:52:03Z</time>
      </trkpt>
      <trkpt lat="46.02761" lon="6.10804">
        <ele>797.6</ele>
        <time>2021-03-27T14:52:04Z</time>
      </trkpt>
      <trkpt lat="46.02767" lon="6.10805">
        <ele>797.8</ele>
        <time>2021-03-27T14:52:05Z</time>
      </trkpt>
      <trkpt lat="46.02772" lon="6.10806">
        <ele>797.8</ele>
        <time>2021-03-27T14:52:06Z</time>
      </trkpt>
      <trkpt lat="46.02777" lon="6.10807">
        <ele>797.8</ele>
        <time>2021-03-27T14:52:07Z</time>
      </trkpt>
      <trkpt lat="46.02782" lon="6.10809">
        <ele>797.8</ele>
        <time>2021-03-27T14:52:08Z</time>
      </trkpt>
      <trkpt lat="46.02787" lon="6.10811">
        <ele>798.2</ele>
        <time>2021-03-27T14:52:09Z</time>
      </trkpt>
      <trkpt lat="46.02792" lon="6.10812">
        <ele>798.2</ele>
        <time>2021-03-27T14:52:10Z</time>
      </trkpt>
      <trkpt lat="46.02798" lon="6.10814">
        <ele>798.2</ele>
        <time>2021-03-27T14:52:11Z</time>
      </trkpt>
      <trkpt lat="46.02803" lon="6.10816">
        <ele>798.4</ele>
        <time>2021-03-27T14:52:12Z</time>
      </trkpt>
      <trkpt lat="46.02808" lon="6.10817">
        <ele>798.2</ele>
        <time>2021-03-27T14:52:13Z</time>
      </trkpt>
      <trkpt lat="46.02814" lon="6.10819">
        <ele>798.2</ele>
        <time>2021-03-27T14:52:14Z</time>
      </trkpt>
      <trkpt lat="46.02819" lon="6.1082">
        <ele>798.2</ele>
        <time>2021-03-27T14:52:15Z</time>
      </trkpt>
      <trkpt lat="46.02825" lon="6.10821">
        <ele>798.4</ele>
        <time>2021-03-27T14:52:16Z</time>
      </trkpt>
      <trkpt lat="46.02831" lon="6.10822">
        <ele>798.4</ele>
        <time>2021-03-27T14:52:17Z</time>
      </trkpt>
      <trkpt lat="46.02837" lon="6.10822">
        <ele>798.4</ele>
        <time>2021-03-27T14:52:18Z</time>
      </trkpt>
      <trkpt lat="46.02843" lon="6.10822">
        <ele>798.2</ele>
        <time>2021-03-27T14:52:19Z</time>
      </trkpt>
      <trkpt lat="46.02849" lon="6.10822">
        <ele>798.2</ele>
        <time>2021-03-27T14:52:20Z</time>
      </trkpt>
      <trkpt lat="46.02855" lon="6.10821">
        <ele>798.2</ele>
        <time>2021-03-27T14:52:21Z</time>
      </trkpt>
      <trkpt lat="46.02861" lon="6.1082">
        <ele>798.2</ele>
        <time>2021-03-27T14:52:22Z</time>
      </trkpt>
      <trkpt lat="46.02866" lon="6.10818">
        <ele>798</ele>
        <time>2021-03-27T14:52:23Z</time>
      </trkpt>
      <trkpt lat="46.02872" lon="6.10815">
        <ele>798</ele>
        <time>2021-03-27T14:52:24Z</time>
      </trkpt>
      <trkpt lat="46.02878" lon="6.10812">
        <ele>797.8</ele>
        <time>2021-03-27T14:52:25Z</time>
      </trkpt>
      <trkpt lat="46.02884" lon="6.10809">
        <ele>797.8</ele>
        <time>2021-03-27T14:52:26Z</time>
      </trkpt>
      <trkpt lat="46.0289" lon="6.10806">
        <ele>797.8</ele>
        <time>2021-03-27T14:52:27Z</time>
      </trkpt>
      <trkpt lat="46.02896" lon="6.10803">
        <ele>797.8</ele>
        <time>2021-03-27T14:52:28Z</time>
      </trkpt>
      <trkpt lat="46.02902" lon="6.10799">
        <ele>797.8</ele>
        <time>2021-03-27T14:52:29Z</time>
      </trkpt>
      <trkpt lat="46.02908" lon="6.10796">
        <ele>797.8</ele>
        <time>2021-03-27T14:52:30Z</time>
      </trkpt>
      <trkpt lat="46.02914" lon="6.10792">
        <ele>797.6</ele>
        <time>2021-03-27T14:52:31Z</time>
      </trkpt>
      <trkpt lat="46.0292" lon="6.10789">
        <ele>797.6</ele>
        <time>2021-03-27T14:52:32Z</time>
      </trkpt>
      <trkpt lat="46.02926" lon="6.10786">
        <ele>797.6</ele>
        <time>2021-03-27T14:52:33Z</time>
      </trkpt>
      <trkpt lat="46.02932" lon="6.10783">
        <ele>797.6</ele>
        <time>2021-03-27T14:52:34Z</time>
      </trkpt>
      <trkpt lat="46.02938" lon="6.10779">
        <ele>797.6</ele>
        <time>2021-03-27T14:52:35Z</time>
      </trkpt>
      <trkpt lat="46.02943" lon="6.10776">
        <ele>797.6</ele>
        <time>2021-03-27T14:52:36Z</time>
      </trkpt>
      <trkpt lat="46.02949" lon="6.10773">
        <ele>797.6</ele>
        <time>2021-03-27T14:52:37Z</time>
      </trkpt>
      <trkpt lat="46.02955" lon="6.1077">
        <ele>797.6</ele>
        <time>2021-03-27T14:52:38Z</time>
      </trkpt>
      <trkpt lat="46.0296" lon="6.10768">
        <ele>797.6</ele>
        <time>2021-03-27T14:52:39Z</time>
      </trkpt>
      <trkpt lat="46.02965" lon="6.10765">
        <ele>797.6</ele>
        <time>2021-03-27T14:52:40Z</time>
      </trkpt>
      <trkpt lat="46.02971" lon="6.10762">
        <ele>797.6</ele>
        <time>2021-03-27T14:52:41Z</time>
      </trkpt>
      <trkpt lat="46.02976" lon="6.10759">
        <ele>797.6</ele>
        <time>2021-03-27T14:52:42Z</time>
      </trkpt>
      <trkpt lat="46.02981" lon="6.10756">
        <ele>797.6</ele>
        <time>2021-03-27T14:52:43Z</time>
      </trkpt>
      <trkpt lat="46.02986" lon="6.10752">
        <ele>797.6</ele>
        <time>2021-03-27T14:52:44Z</time>
      </trkpt>
      <trkpt lat="46.02991" lon="6.10748">
        <ele>797.8</ele>
        <time>2021-03-27T14:52:45Z</time>
      </trkpt>
      <trkpt lat="46.02996" lon="6.10744">
        <ele>797.8</ele>
        <time>2021-03-27T14:52:46Z</time>
      </trkpt>
      <trkpt lat="46.03001" lon="6.1074">
        <ele>797.8</ele>
        <time>2021-03-27T14:52:47Z</time>
      </trkpt>
      <trkpt lat="46.03006" lon="6.10735">
        <ele>797.8</ele>
        <time>2021-03-27T14:52:48Z</time>
      </trkpt>
      <trkpt lat="46.0301" lon="6.10729">
        <ele>798</ele>
        <time>2021-03-27T14:52:49Z</time>
      </trkpt>
      <trkpt lat="46.03014" lon="6.10724">
        <ele>798.2</ele>
        <time>2021-03-27T14:52:50Z</time>
      </trkpt>
      <trkpt lat="46.03019" lon="6.10718">
        <ele>798.4</ele>
        <time>2021-03-27T14:52:51Z</time>
      </trkpt>
      <trkpt lat="46.03023" lon="6.10712">
        <ele>798.4</ele>
        <time>2021-03-27T14:52:52Z</time>
      </trkpt>
      <trkpt lat="46.03027" lon="6.10706">
        <ele>798.6</ele>
        <time>2021-03-27T14:52:53Z</time>
      </trkpt>
      <trkpt lat="46.03031" lon="6.107">
        <ele>798.6</ele>
        <time>2021-03-27T14:52:54Z</time>
      </trkpt>
      <trkpt lat="46.03036" lon="6.10694">
        <ele>798.8</ele>
        <time>2021-03-27T14:52:55Z</time>
      </trkpt>
      <trkpt lat="46.0304" lon="6.10688">
        <ele>798.8</ele>
        <time>2021-03-27T14:52:56Z</time>
      </trkpt>
      <trkpt lat="46.03044" lon="6.10683">
        <ele>798.8</ele>
        <time>2021-03-27T14:52:57Z</time>
      </trkpt>
      <trkpt lat="46.03049" lon="6.10677">
        <ele>798.8</ele>
        <time>2021-03-27T14:52:58Z</time>
      </trkpt>
      <trkpt lat="46.03054" lon="6.10672">
        <ele>799</ele>
        <time>2021-03-27T14:52:59Z</time>
      </trkpt>
      <trkpt lat="46.03059" lon="6.10668">
        <ele>799</ele>
        <time>2021-03-27T14:53:00Z</time>
      </trkpt>
      <trkpt lat="46.03065" lon="6.10665">
        <ele>799</ele>
        <time>2021-03-27T14:53:01Z</time>
      </trkpt>
      <trkpt lat="46.0307" lon="6.10663">
        <ele>799</ele>
        <time>2021-03-27T14:53:02Z</time>
      </trkpt>
      <trkpt lat="46.03077" lon="6.10661">
        <ele>799</ele>
        <time>2021-03-27T14:53:03Z</time>
      </trkpt>
      <trkpt lat="46.03083" lon="6.10661">
        <ele>799</ele>
        <time>2021-03-27T14:53:04Z</time>
      </trkpt>
      <trkpt lat="46.0309" lon="6.10662">
        <ele>799</ele>
        <time>2021-03-27T14:53:05Z</time>
      </trkpt>
      <trkpt lat="46.03096" lon="6.10664">
        <ele>799</ele>
        <time>2021-03-27T14:53:06Z</time>
      </trkpt>
      <trkpt lat="46.03102" lon="6.10668">
        <ele>799</ele>
        <time>2021-03-27T14:53:07Z</time>
      </trkpt>
      <trkpt lat="46.03108" lon="6.10672">
        <ele>799</ele>
        <time>2021-03-27T14:53:08Z</time>
      </trkpt>
      <trkpt lat="46.03114" lon="6.10676">
        <ele>799</ele>
        <time>2021-03-27T14:53:09Z</time>
      </trkpt>
      <trkpt lat="46.0312" lon="6.1068">
        <ele>799</ele>
        <time>2021-03-27T14:53:10Z</time>
      </trkpt>
      <trkpt lat="46.03126" lon="6.10685">
        <ele>799</ele>
        <time>2021-03-27T14:53:11Z</time>
      </trkpt>
      <trkpt lat="46.03132" lon="6.10689">
        <ele>799</ele>
        <time>2021-03-27T14:53:12Z</time>
      </trkpt>
      <trkpt lat="46.03138" lon="6.10693">
        <ele>799</ele>
        <time>2021-03-27T14:53:13Z</time>
      </trkpt>
      <trkpt lat="46.03144" lon="6.10697">
        <ele>798.8</ele>
        <time>2021-03-27T14:53:14Z</time>
      </trkpt>
      <trkpt lat="46.0315" lon="6.10701">
        <ele>798.6</ele>
        <time>2021-03-27T14:53:15Z</time>
      </trkpt>
      <trkpt lat="46.03156" lon="6.10705">
        <ele>798.6</ele>
        <time>2021-03-27T14:53:16Z</time>
      </trkpt>
      <trkpt lat="46.03162" lon="6.10709">
        <ele>798.4</ele>
        <time>2021-03-27T14:53:17Z</time>
      </trkpt>
      <trkpt lat="46.03167" lon="6.10713">
        <ele>798.2</ele>
        <time>2021-03-27T14:53:18Z</time>
      </trkpt>
      <trkpt lat="46.03173" lon="6.10716">
        <ele>797.8</ele>
        <time>2021-03-27T14:53:19Z</time>
      </trkpt>
      <trkpt lat="46.03178" lon="6.1072">
        <ele>797.6</ele>
        <time>2021-03-27T14:53:20Z</time>
      </trkpt>
      <trkpt lat="46.03184" lon="6.10723">
        <ele>797.6</ele>
        <time>2021-03-27T14:53:21Z</time>
      </trkpt>
      <trkpt lat="46.0319" lon="6.10726">
        <ele>797.4</ele>
        <time>2021-03-27T14:53:22Z</time>
      </trkpt>
      <trkpt lat="46.03196" lon="6.10729">
        <ele>797.2</ele>
        <time>2021-03-27T14:53:23Z</time>
      </trkpt>
      <trkpt lat="46.03202" lon="6.10732">
        <ele>797.2</ele>
        <time>2021-03-27T14:53:24Z</time>
      </trkpt>
      <trkpt lat="46.03208" lon="6.10734">
        <ele>797.2</ele>
        <time>2021-03-27T14:53:25Z</time>
      </trkpt>
      <trkpt lat="46.03215" lon="6.10737">
        <ele>797.2</ele>
        <time>2021-03-27T14:53:26Z</time>
      </trkpt>
      <trkpt lat="46.03222" lon="6.10739">
        <ele>797.2</ele>
        <time>2021-03-27T14:53:27Z</time>
      </trkpt>
      <trkpt lat="46.03228" lon="6.10742">
        <ele>797</ele>
        <time>2021-03-27T14:53:28Z</time>
      </trkpt>
      <trkpt lat="46.03235" lon="6.10744">
        <ele>797.2</ele>
        <time>2021-03-27T14:53:29Z</time>
      </trkpt>
      <trkpt lat="46.03241" lon="6.10747">
        <ele>797</ele>
        <time>2021-03-27T14:53:30Z</time>
      </trkpt>
      <trkpt lat="46.03248" lon="6.10749">
        <ele>796.8</ele>
        <time>2021-03-27T14:53:31Z</time>
      </trkpt>
      <trkpt lat="46.03254" lon="6.10752">
        <ele>796.8</ele>
        <time>2021-03-27T14:53:32Z</time>
      </trkpt>
      <trkpt lat="46.03261" lon="6.10755">
        <ele>796.6</ele>
        <time>2021-03-27T14:53:33Z</time>
      </trkpt>
      <trkpt lat="46.03266" lon="6.10758">
        <ele>796.6</ele>
        <time>2021-03-27T14:53:34Z</time>
      </trkpt>
      <trkpt lat="46.03271" lon="6.10761">
        <ele>796.4</ele>
        <time>2021-03-27T14:53:35Z</time>
      </trkpt>
      <trkpt lat="46.03276" lon="6.10764">
        <ele>795.8</ele>
        <time>2021-03-27T14:53:36Z</time>
      </trkpt>
      <trkpt lat="46.0328" lon="6.10767">
        <ele>795.6</ele>
        <time>2021-03-27T14:53:37Z</time>
      </trkpt>
      <trkpt lat="46.03283" lon="6.10771">
        <ele>795.4</ele>
        <time>2021-03-27T14:53:38Z</time>
      </trkpt>
      <trkpt lat="46.03286" lon="6.10773">
        <ele>795.4</ele>
        <time>2021-03-27T14:53:39Z</time>
      </trkpt>
      <trkpt lat="46.03289" lon="6.10774">
        <ele>795.2</ele>
        <time>2021-03-27T14:53:40Z</time>
      </trkpt>
      <trkpt lat="46.03293" lon="6.10773">
        <ele>795.2</ele>
        <time>2021-03-27T14:53:41Z</time>
      </trkpt>
      <trkpt lat="46.03297" lon="6.10772">
        <ele>795</ele>
        <time>2021-03-27T14:53:42Z</time>
      </trkpt>
      <trkpt lat="46.03302" lon="6.10769">
        <ele>795</ele>
        <time>2021-03-27T14:53:43Z</time>
      </trkpt>
      <trkpt lat="46.03306" lon="6.10766">
        <ele>794.8</ele>
        <time>2021-03-27T14:53:44Z</time>
      </trkpt>
      <trkpt lat="46.03311" lon="6.10762">
        <ele>794.6</ele>
        <time>2021-03-27T14:53:45Z</time>
      </trkpt>
      <trkpt lat="46.03315" lon="6.10757">
        <ele>794.6</ele>
        <time>2021-03-27T14:53:46Z</time>
      </trkpt>
      <trkpt lat="46.03319" lon="6.10753">
        <ele>794.6</ele>
        <time>2021-03-27T14:53:47Z</time>
      </trkpt>
      <trkpt lat="46.03323" lon="6.10749">
        <ele>794.4</ele>
        <time>2021-03-27T14:53:48Z</time>
      </trkpt>
      <trkpt lat="46.03326" lon="6.10745">
        <ele>794.4</ele>
        <time>2021-03-27T14:53:49Z</time>
      </trkpt>
      <trkpt lat="46.0333" lon="6.10742">
        <ele>794.2</ele>
        <time>2021-03-27T14:53:50Z</time>
      </trkpt>
      <trkpt lat="46.03333" lon="6.10738">
        <ele>794.2</ele>
        <time>2021-03-27T14:53:51Z</time>
      </trkpt>
      <trkpt lat="46.03335" lon="6.10735">
        <ele>793.8</ele>
        <time>2021-03-27T14:53:52Z</time>
      </trkpt>
      <trkpt lat="46.03338" lon="6.10733">
        <ele>793.8</ele>
        <time>2021-03-27T14:53:53Z</time>
      </trkpt>
      <trkpt lat="46.0334" lon="6.10732">
        <ele>793.4</ele>
        <time>2021-03-27T14:53:54Z</time>
      </trkpt>
      <trkpt lat="46.03343" lon="6.10733">
        <ele>793.2</ele>
        <time>2021-03-27T14:53:55Z</time>
      </trkpt>
      <trkpt lat="46.03345" lon="6.10735">
        <ele>792.6</ele>
        <time>2021-03-27T14:53:56Z</time>
      </trkpt>
      <trkpt lat="46.03348" lon="6.10736">
        <ele>792.2</ele>
        <time>2021-03-27T14:53:57Z</time>
      </trkpt>
      <trkpt lat="46.03351" lon="6.10738">
        <ele>791.8</ele>
        <time>2021-03-27T14:53:58Z</time>
      </trkpt>
      <trkpt lat="46.03353" lon="6.1074">
        <ele>791.4</ele>
        <time>2021-03-27T14:53:59Z</time>
      </trkpt>
      <trkpt lat="46.03356" lon="6.10741">
        <ele>791.4</ele>
        <time>2021-03-27T14:54:00Z</time>
      </trkpt>
      <trkpt lat="46.03358" lon="6.10743">
        <ele>791.4</ele>
        <time>2021-03-27T14:54:01Z</time>
      </trkpt>
      <trkpt lat="46.03359" lon="6.10744">
        <ele>791.2</ele>
        <time>2021-03-27T14:54:02Z</time>
      </trkpt>
      <trkpt lat="46.0336" lon="6.10744">
        <ele>791</ele>
        <time>2021-03-27T14:54:03Z</time>
      </trkpt>
      <trkpt lat="46.0336" lon="6.10744">
        <ele>790.8</ele>
        <time>2021-03-27T14:54:04Z</time>
      </trkpt>
      <trkpt lat="46.03361" lon="6.10745">
        <ele>790.8</ele>
        <time>2021-03-27T14:54:05Z</time>
      </trkpt>
      <trkpt lat="46.03362" lon="6.10746">
        <ele>790.8</ele>
        <time>2021-03-27T14:54:06Z</time>
      </trkpt>
      <trkpt lat="46.03364" lon="6.10748">
        <ele>790.4</ele>
        <time>2021-03-27T14:54:07Z</time>
      </trkpt>
      <trkpt lat="46.03367" lon="6.10749">
        <ele>790.2</ele>
        <time>2021-03-27T14:54:08Z</time>
      </trkpt>
      <trkpt lat="46.03368" lon="6.10752">
        <ele>790</ele>
        <time>2021-03-27T14:54:09Z</time>
      </trkpt>
      <trkpt lat="46.0337" lon="6.10755">
        <ele>790</ele>
        <time>2021-03-27T14:54:10Z</time>
      </trkpt>
      <trkpt lat="46.03373" lon="6.10758">
        <ele>790</ele>
        <time>2021-03-27T14:54:11Z</time>
      </trkpt>
      <trkpt lat="46.03376" lon="6.10761">
        <ele>790</ele>
        <time>2021-03-27T14:54:12Z</time>
      </trkpt>
      <trkpt lat="46.0338" lon="6.10764">
        <ele>789.8</ele>
        <time>2021-03-27T14:54:13Z</time>
      </trkpt>
      <trkpt lat="46.03383" lon="6.10768">
        <ele>789.8</ele>
        <time>2021-03-27T14:54:14Z</time>
      </trkpt>
      <trkpt lat="46.03387" lon="6.10771">
        <ele>789.8</ele>
        <time>2021-03-27T14:54:15Z</time>
      </trkpt>
      <trkpt lat="46.03389" lon="6.10775">
        <ele>789.6</ele>
        <time>2021-03-27T14:54:16Z</time>
      </trkpt>
      <trkpt lat="46.03392" lon="6.10779">
        <ele>789.4</ele>
        <time>2021-03-27T14:54:17Z</time>
      </trkpt>
      <trkpt lat="46.03395" lon="6.10782">
        <ele>789.2</ele>
        <time>2021-03-27T14:54:18Z</time>
      </trkpt>
      <trkpt lat="46.03398" lon="6.10786">
        <ele>789</ele>
        <time>2021-03-27T14:54:19Z</time>
      </trkpt>
      <trkpt lat="46.03401" lon="6.10789">
        <ele>788.8</ele>
        <time>2021-03-27T14:54:20Z</time>
      </trkpt>
      <trkpt lat="46.03404" lon="6.10794">
        <ele>788.6</ele>
        <time>2021-03-27T14:54:21Z</time>
      </trkpt>
      <trkpt lat="46.03408" lon="6.10797">
        <ele>788.2</ele>
        <time>2021-03-27T14:54:22Z</time>
      </trkpt>
      <trkpt lat="46.03411" lon="6.10801">
        <ele>787.8</ele>
        <time>2021-03-27T14:54:23Z</time>
      </trkpt>
      <trkpt lat="46.03414" lon="6.10804">
        <ele>787.8</ele>
        <time>2021-03-27T14:54:24Z</time>
      </trkpt>
      <trkpt lat="46.03417" lon="6.10808">
        <ele>787.6</ele>
        <time>2021-03-27T14:54:25Z</time>
      </trkpt>
      <trkpt lat="46.03421" lon="6.10812">
        <ele>787.6</ele>
        <time>2021-03-27T14:54:26Z</time>
      </trkpt>
      <trkpt lat="46.03424" lon="6.10816">
        <ele>787.4</ele>
        <time>2021-03-27T14:54:27Z</time>
      </trkpt>
      <trkpt lat="46.03426" lon="6.10819">
        <ele>787.2</ele>
        <time>2021-03-27T14:54:28Z</time>
      </trkpt>
      <trkpt lat="46.03428" lon="6.10822">
        <ele>786.8</ele>
        <time>2021-03-27T14:54:29Z</time>
      </trkpt>
      <trkpt lat="46.03431" lon="6.10824">
        <ele>786.8</ele>
        <time>2021-03-27T14:54:30Z</time>
      </trkpt>
      <trkpt lat="46.03433" lon="6.10827">
        <ele>786.4</ele>
        <time>2021-03-27T14:54:31Z</time>
      </trkpt>
      <trkpt lat="46.03436" lon="6.10829">
        <ele>786.4</ele>
        <time>2021-03-27T14:54:32Z</time>
      </trkpt>
      <trkpt lat="46.03438" lon="6.10832">
        <ele>786.2</ele>
        <time>2021-03-27T14:54:33Z</time>
      </trkpt>
      <trkpt lat="46.03442" lon="6.10836">
        <ele>786</ele>
        <time>2021-03-27T14:54:34Z</time>
      </trkpt>
      <trkpt lat="46.03445" lon="6.10839">
        <ele>785.8</ele>
        <time>2021-03-27T14:54:35Z</time>
      </trkpt>
      <trkpt lat="46.03449" lon="6.10843">
        <ele>785.6</ele>
        <time>2021-03-27T14:54:36Z</time>
      </trkpt>
      <trkpt lat="46.03452" lon="6.10847">
        <ele>785.4</ele>
        <time>2021-03-27T14:54:37Z</time>
      </trkpt>
      <trkpt lat="46.03456" lon="6.10852">
        <ele>785.4</ele>
        <time>2021-03-27T14:54:38Z</time>
      </trkpt>
      <trkpt lat="46.0346" lon="6.10856">
        <ele>785.2</ele>
        <time>2021-03-27T14:54:39Z</time>
      </trkpt>
      <trkpt lat="46.03465" lon="6.10861">
        <ele>785.2</ele>
        <time>2021-03-27T14:54:40Z</time>
      </trkpt>
      <trkpt lat="46.0347" lon="6.10866">
        <ele>785</ele>
        <time>2021-03-27T14:54:41Z</time>
      </trkpt>
      <trkpt lat="46.03474" lon="6.10871">
        <ele>785</ele>
        <time>2021-03-27T14:54:42Z</time>
      </trkpt>
      <trkpt lat="46.03478" lon="6.10874">
        <ele>785</ele>
        <time>2021-03-27T14:54:43Z</time>
      </trkpt>
      <trkpt lat="46.03482" lon="6.10877">
        <ele>785</ele>
        <time>2021-03-27T14:54:44Z</time>
      </trkpt>
      <trkpt lat="46.03487" lon="6.1088">
        <ele>784.6</ele>
        <time>2021-03-27T14:54:45Z</time>
      </trkpt>
      <trkpt lat="46.03491" lon="6.10883">
        <ele>784.4</ele>
        <time>2021-03-27T14:54:46Z</time>
      </trkpt>
      <trkpt lat="46.03495" lon="6.10886">
        <ele>784.2</ele>
        <time>2021-03-27T14:54:47Z</time>
      </trkpt>
      <trkpt lat="46.03499" lon="6.1089">
        <ele>784</ele>
        <time>2021-03-27T14:54:48Z</time>
      </trkpt>
      <trkpt lat="46.03502" lon="6.10894">
        <ele>784</ele>
        <time>2021-03-27T14:54:49Z</time>
      </trkpt>
      <trkpt lat="46.03505" lon="6.10899">
        <ele>784</ele>
        <time>2021-03-27T14:54:50Z</time>
      </trkpt>
      <trkpt lat="46.03508" lon="6.10904">
        <ele>784</ele>
        <time>2021-03-27T14:54:51Z</time>
      </trkpt>
      <trkpt lat="46.03509" lon="6.1091">
        <ele>783.8</ele>
        <time>2021-03-27T14:54:52Z</time>
      </trkpt>
      <trkpt lat="46.03509" lon="6.10917">
        <ele>783.6</ele>
        <time>2021-03-27T14:54:53Z</time>
      </trkpt>
      <trkpt lat="46.03508" lon="6.10925">
        <ele>783.6</ele>
        <time>2021-03-27T14:54:54Z</time>
      </trkpt>
      <trkpt lat="46.03507" lon="6.10932">
        <ele>783.6</ele>
        <time>2021-03-27T14:54:55Z</time>
      </trkpt>
      <trkpt lat="46.03503" lon="6.10946">
        <ele>783.6</ele>
        <time>2021-03-27T14:54:57Z</time>
      </trkpt>
      <trkpt lat="46.03501" lon="6.10954">
        <ele>783.6</ele>
        <time>2021-03-27T14:54:58Z</time>
      </trkpt>
      <trkpt lat="46.035" lon="6.10962">
        <ele>783.6</ele>
        <time>2021-03-27T14:54:59Z</time>
      </trkpt>
      <trkpt lat="46.03499" lon="6.1097">
        <ele>783.4</ele>
        <time>2021-03-27T14:55:00Z</time>
      </trkpt>
      <trkpt lat="46.03498" lon="6.10978">
        <ele>783.4</ele>
        <time>2021-03-27T14:55:01Z</time>
      </trkpt>
      <trkpt lat="46.03498" lon="6.10986">
        <ele>783.4</ele>
        <time>2021-03-27T14:55:02Z</time>
      </trkpt>
      <trkpt lat="46.03497" lon="6.10995">
        <ele>783.4</ele>
        <time>2021-03-27T14:55:03Z</time>
      </trkpt>
      <trkpt lat="46.03497" lon="6.11003">
        <ele>783.4</ele>
        <time>2021-03-27T14:55:04Z</time>
      </trkpt>
      <trkpt lat="46.03498" lon="6.11011">
        <ele>783.4</ele>
        <time>2021-03-27T14:55:05Z</time>
      </trkpt>
      <trkpt lat="46.03499" lon="6.1102">
        <ele>783.4</ele>
        <time>2021-03-27T14:55:06Z</time>
      </trkpt>
      <trkpt lat="46.03502" lon="6.11036">
        <ele>783.4</ele>
        <time>2021-03-27T14:55:08Z</time>
      </trkpt>
      <trkpt lat="46.03504" lon="6.11043">
        <ele>783.4</ele>
        <time>2021-03-27T14:55:09Z</time>
      </trkpt>
      <trkpt lat="46.03506" lon="6.1105">
        <ele>783.4</ele>
        <time>2021-03-27T14:55:10Z</time>
      </trkpt>
      <trkpt lat="46.03508" lon="6.11057">
        <ele>783.4</ele>
        <time>2021-03-27T14:55:11Z</time>
      </trkpt>
      <trkpt lat="46.0351" lon="6.11063">
        <ele>783.4</ele>
        <time>2021-03-27T14:55:12Z</time>
      </trkpt>
      <trkpt lat="46.03512" lon="6.11068">
        <ele>783.6</ele>
        <time>2021-03-27T14:55:13Z</time>
      </trkpt>
      <trkpt lat="46.03517" lon="6.11076">
        <ele>784</ele>
        <time>2021-03-27T14:55:15Z</time>
      </trkpt>
      <trkpt lat="46.0352" lon="6.1108">
        <ele>784.2</ele>
        <time>2021-03-27T14:55:16Z</time>
      </trkpt>
      <trkpt lat="46.03524" lon="6.11082">
        <ele>784.2</ele>
        <time>2021-03-27T14:55:17Z</time>
      </trkpt>
      <trkpt lat="46.03527" lon="6.11084">
        <ele>784.6</ele>
        <time>2021-03-27T14:55:18Z</time>
      </trkpt>
      <trkpt lat="46.03531" lon="6.11084">
        <ele>784.6</ele>
        <time>2021-03-27T14:55:19Z</time>
      </trkpt>
      <trkpt lat="46.03534" lon="6.11084">
        <ele>784.8</ele>
        <time>2021-03-27T14:55:20Z</time>
      </trkpt>
      <trkpt lat="46.03538" lon="6.11082">
        <ele>785</ele>
        <time>2021-03-27T14:55:21Z</time>
      </trkpt>
      <trkpt lat="46.03541" lon="6.11081">
        <ele>785</ele>
        <time>2021-03-27T14:55:22Z</time>
      </trkpt>
      <trkpt lat="46.03544" lon="6.11079">
        <ele>785.2</ele>
        <time>2021-03-27T14:55:23Z</time>
      </trkpt>
      <trkpt lat="46.03547" lon="6.11077">
        <ele>785</ele>
        <time>2021-03-27T14:55:24Z</time>
      </trkpt>
      <trkpt lat="46.0355" lon="6.11075">
        <ele>785.2</ele>
        <time>2021-03-27T14:55:25Z</time>
      </trkpt>
      <trkpt lat="46.03553" lon="6.11074">
        <ele>785.2</ele>
        <time>2021-03-27T14:55:26Z</time>
      </trkpt>
      <trkpt lat="46.03556" lon="6.11072">
        <ele>785.2</ele>
        <time>2021-03-27T14:55:27Z</time>
      </trkpt>
      <trkpt lat="46.03559" lon="6.1107">
        <ele>785.2</ele>
        <time>2021-03-27T14:55:28Z</time>
      </trkpt>
      <trkpt lat="46.03562" lon="6.11068">
        <ele>785.4</ele>
        <time>2021-03-27T14:55:29Z</time>
      </trkpt>
      <trkpt lat="46.03564" lon="6.11066">
        <ele>785.4</ele>
        <time>2021-03-27T14:55:30Z</time>
      </trkpt>
      <trkpt lat="46.03567" lon="6.11064">
        <ele>785.6</ele>
        <time>2021-03-27T14:55:31Z</time>
      </trkpt>
      <trkpt lat="46.0357" lon="6.11062">
        <ele>785.8</ele>
        <time>2021-03-27T14:55:32Z</time>
      </trkpt>
      <trkpt lat="46.03572" lon="6.1106">
        <ele>785.8</ele>
        <time>2021-03-27T14:55:33Z</time>
      </trkpt>
      <trkpt lat="46.03575" lon="6.11057">
        <ele>786</ele>
        <time>2021-03-27T14:55:34Z</time>
      </trkpt>
      <trkpt lat="46.03577" lon="6.11056">
        <ele>786.2</ele>
        <time>2021-03-27T14:55:35Z</time>
      </trkpt>
      <trkpt lat="46.03578" lon="6.11055">
        <ele>786.6</ele>
        <time>2021-03-27T14:55:36Z</time>
      </trkpt>
      <trkpt lat="46.03578" lon="6.11054">
        <ele>786.8</ele>
        <time>2021-03-27T14:55:37Z</time>
      </trkpt>
      <trkpt lat="46.03578" lon="6.11053">
        <ele>787</ele>
        <time>2021-03-27T14:55:38Z</time>
      </trkpt>
      <trkpt lat="46.03578" lon="6.11053">
        <ele>787.2</ele>
        <time>2021-03-27T14:55:39Z</time>
      </trkpt>
      <trkpt lat="46.03578" lon="6.11053">
        <ele>787.8</ele>
        <time>2021-03-27T14:55:40Z</time>
      </trkpt>
      <trkpt lat="46.03578" lon="6.11053">
        <ele>787.8</ele>
        <time>2021-03-27T14:55:41Z</time>
      </trkpt>
      <trkpt lat="46.03578" lon="6.11053">
        <ele>788.2</ele>
        <time>2021-03-27T14:55:42Z</time>
      </trkpt>
      <trkpt lat="46.03578" lon="6.11053">
        <ele>788.4</ele>
        <time>2021-03-27T14:55:43Z</time>
      </trkpt>
      <trkpt lat="46.03578" lon="6.11053">
        <ele>788.4</ele>
        <time>2021-03-27T14:55:44Z</time>
      </trkpt>
      <trkpt lat="46.03578" lon="6.11053">
        <ele>788.6</ele>
        <time>2021-03-27T14:55:45Z</time>
      </trkpt>
      <trkpt lat="46.03578" lon="6.11052">
        <ele>788.8</ele>
        <time>2021-03-27T14:55:46Z</time>
      </trkpt>
      <trkpt lat="46.03578" lon="6.11052">
        <ele>788.8</ele>
        <time>2021-03-27T14:55:47Z</time>
      </trkpt>
      <trkpt lat="46.03579" lon="6.11051">
        <ele>789</ele>
        <time>2021-03-27T14:55:48Z</time>
      </trkpt>
      <trkpt lat="46.03579" lon="6.11049">
        <ele>789</ele>
        <time>2021-03-27T14:55:49Z</time>
      </trkpt>
      <trkpt lat="46.0358" lon="6.11048">
        <ele>789.2</ele>
        <time>2021-03-27T14:55:50Z</time>
      </trkpt>
      <trkpt lat="46.0358" lon="6.11045">
        <ele>789</ele>
        <time>2021-03-27T14:55:51Z</time>
      </trkpt>
      <trkpt lat="46.03581" lon="6.11042">
        <ele>789.2</ele>
        <time>2021-03-27T14:55:52Z</time>
      </trkpt>
      <trkpt lat="46.03582" lon="6.11039">
        <ele>789.2</ele>
        <time>2021-03-27T14:55:53Z</time>
      </trkpt>
      <trkpt lat="46.03582" lon="6.11035">
        <ele>789.2</ele>
        <time>2021-03-27T14:55:54Z</time>
      </trkpt>
      <trkpt lat="46.03583" lon="6.1103">
        <ele>789.2</ele>
        <time>2021-03-27T14:55:55Z</time>
      </trkpt>
      <trkpt lat="46.03583" lon="6.11025">
        <ele>789.2</ele>
        <time>2021-03-27T14:55:56Z</time>
      </trkpt>
      <trkpt lat="46.03583" lon="6.11021">
        <ele>789.2</ele>
        <time>2021-03-27T14:55:57Z</time>
      </trkpt>
      <trkpt lat="46.03583" lon="6.11016">
        <ele>789.4</ele>
        <time>2021-03-27T14:55:58Z</time>
      </trkpt>
      <trkpt lat="46.03584" lon="6.11011">
        <ele>789.4</ele>
        <time>2021-03-27T14:55:59Z</time>
      </trkpt>
      <trkpt lat="46.03584" lon="6.11006">
        <ele>789.4</ele>
        <time>2021-03-27T14:56:00Z</time>
      </trkpt>
      <trkpt lat="46.03584" lon="6.11001">
        <ele>789.6</ele>
        <time>2021-03-27T14:56:01Z</time>
      </trkpt>
      <trkpt lat="46.03585" lon="6.10996">
        <ele>789.6</ele>
        <time>2021-03-27T14:56:02Z</time>
      </trkpt>
      <trkpt lat="46.03585" lon="6.10991">
        <ele>790</ele>
        <time>2021-03-27T14:56:03Z</time>
      </trkpt>
      <trkpt lat="46.03585" lon="6.10986">
        <ele>789.8</ele>
        <time>2021-03-27T14:56:04Z</time>
      </trkpt>
      <trkpt lat="46.03585" lon="6.10981">
        <ele>790</ele>
        <time>2021-03-27T14:56:05Z</time>
      </trkpt>
      <trkpt lat="46.03585" lon="6.10976">
        <ele>790</ele>
        <time>2021-03-27T14:56:06Z</time>
      </trkpt>
      <trkpt lat="46.03586" lon="6.10972">
        <ele>790</ele>
        <time>2021-03-27T14:56:07Z</time>
      </trkpt>
      <trkpt lat="46.03586" lon="6.10967">
        <ele>790.2</ele>
        <time>2021-03-27T14:56:08Z</time>
      </trkpt>
      <trkpt lat="46.03587" lon="6.10962">
        <ele>790.6</ele>
        <time>2021-03-27T14:56:09Z</time>
      </trkpt>
      <trkpt lat="46.03588" lon="6.10957">
        <ele>790.8</ele>
        <time>2021-03-27T14:56:10Z</time>
      </trkpt>
      <trkpt lat="46.0359" lon="6.10953">
        <ele>791.2</ele>
        <time>2021-03-27T14:56:11Z</time>
      </trkpt>
      <trkpt lat="46.03591" lon="6.10948">
        <ele>791.4</ele>
        <time>2021-03-27T14:56:12Z</time>
      </trkpt>
      <trkpt lat="46.03592" lon="6.10944">
        <ele>791.6</ele>
        <time>2021-03-27T14:56:13Z</time>
      </trkpt>
      <trkpt lat="46.03594" lon="6.1094">
        <ele>791.8</ele>
        <time>2021-03-27T14:56:14Z</time>
      </trkpt>
      <trkpt lat="46.03596" lon="6.10936">
        <ele>792</ele>
        <time>2021-03-27T14:56:15Z</time>
      </trkpt>
      <trkpt lat="46.03598" lon="6.10932">
        <ele>792</ele>
        <time>2021-03-27T14:56:16Z</time>
      </trkpt>
      <trkpt lat="46.036" lon="6.10929">
        <ele>792.2</ele>
        <time>2021-03-27T14:56:17Z</time>
      </trkpt>
      <trkpt lat="46.03602" lon="6.10925">
        <ele>792.6</ele>
        <time>2021-03-27T14:56:18Z</time>
      </trkpt>
      <trkpt lat="46.03604" lon="6.10921">
        <ele>793</ele>
        <time>2021-03-27T14:56:19Z</time>
      </trkpt>
      <trkpt lat="46.03606" lon="6.10918">
        <ele>793.2</ele>
        <time>2021-03-27T14:56:20Z</time>
      </trkpt>
      <trkpt lat="46.03609" lon="6.10914">
        <ele>793.4</ele>
        <time>2021-03-27T14:56:21Z</time>
      </trkpt>
      <trkpt lat="46.03611" lon="6.1091">
        <ele>793.6</ele>
        <time>2021-03-27T14:56:22Z</time>
      </trkpt>
      <trkpt lat="46.03613" lon="6.10907">
        <ele>794</ele>
        <time>2021-03-27T14:56:23Z</time>
      </trkpt>
      <trkpt lat="46.03615" lon="6.10903">
        <ele>794.2</ele>
        <time>2021-03-27T14:56:24Z</time>
      </trkpt>
      <trkpt lat="46.03617" lon="6.109">
        <ele>794.6</ele>
        <time>2021-03-27T14:56:25Z</time>
      </trkpt>
      <trkpt lat="46.03619" lon="6.10896">
        <ele>794.8</ele>
        <time>2021-03-27T14:56:26Z</time>
      </trkpt>
      <trkpt lat="46.03621" lon="6.10892">
        <ele>795.2</ele>
        <time>2021-03-27T14:56:27Z</time>
      </trkpt>
      <trkpt lat="46.03623" lon="6.10889">
        <ele>795.4</ele>
        <time>2021-03-27T14:56:28Z</time>
      </trkpt>
      <trkpt lat="46.03625" lon="6.10885">
        <ele>795.6</ele>
        <time>2021-03-27T14:56:29Z</time>
      </trkpt>
      <trkpt lat="46.03627" lon="6.10881">
        <ele>795.8</ele>
        <time>2021-03-27T14:56:30Z</time>
      </trkpt>
      <trkpt lat="46.03629" lon="6.10877">
        <ele>795.8</ele>
        <time>2021-03-27T14:56:31Z</time>
      </trkpt>
      <trkpt lat="46.03631" lon="6.10873">
        <ele>796.2</ele>
        <time>2021-03-27T14:56:32Z</time>
      </trkpt>
      <trkpt lat="46.03634" lon="6.10869">
        <ele>796.4</ele>
        <time>2021-03-27T14:56:33Z</time>
      </trkpt>
      <trkpt lat="46.03636" lon="6.10865">
        <ele>796.8</ele>
        <time>2021-03-27T14:56:34Z</time>
      </trkpt>
      <trkpt lat="46.03638" lon="6.1086">
        <ele>796.8</ele>
        <time>2021-03-27T14:56:35Z</time>
      </trkpt>
      <trkpt lat="46.03641" lon="6.10856">
        <ele>797.2</ele>
        <time>2021-03-27T14:56:36Z</time>
      </trkpt>
      <trkpt lat="46.03643" lon="6.10852">
        <ele>797.2</ele>
        <time>2021-03-27T14:56:37Z</time>
      </trkpt>
      <trkpt lat="46.03646" lon="6.10847">
        <ele>797.4</ele>
        <time>2021-03-27T14:56:38Z</time>
      </trkpt>
      <trkpt lat="46.03648" lon="6.10843">
        <ele>797.6</ele>
        <time>2021-03-27T14:56:39Z</time>
      </trkpt>
      <trkpt lat="46.0365" lon="6.10838">
        <ele>797.6</ele>
        <time>2021-03-27T14:56:40Z</time>
      </trkpt>
      <trkpt lat="46.03653" lon="6.10834">
        <ele>797.8</ele>
        <time>2021-03-27T14:56:41Z</time>
      </trkpt>
      <trkpt lat="46.03655" lon="6.10829">
        <ele>797.8</ele>
        <time>2021-03-27T14:56:42Z</time>
      </trkpt>
      <trkpt lat="46.03658" lon="6.10825">
        <ele>798</ele>
        <time>2021-03-27T14:56:43Z</time>
      </trkpt>
      <trkpt lat="46.0366" lon="6.1082">
        <ele>798</ele>
        <time>2021-03-27T14:56:44Z</time>
      </trkpt>
      <trkpt lat="46.03662" lon="6.10815">
        <ele>798.2</ele>
        <time>2021-03-27T14:56:45Z</time>
      </trkpt>
      <trkpt lat="46.03665" lon="6.10811">
        <ele>798.2</ele>
        <time>2021-03-27T14:56:46Z</time>
      </trkpt>
      <trkpt lat="46.03668" lon="6.10806">
        <ele>798.2</ele>
        <time>2021-03-27T14:56:47Z</time>
      </trkpt>
      <trkpt lat="46.0367" lon="6.10801">
        <ele>798.2</ele>
        <time>2021-03-27T14:56:48Z</time>
      </trkpt>
      <trkpt lat="46.03673" lon="6.10797">
        <ele>798.4</ele>
        <time>2021-03-27T14:56:49Z</time>
      </trkpt>
      <trkpt lat="46.03675" lon="6.10792">
        <ele>798.4</ele>
        <time>2021-03-27T14:56:50Z</time>
      </trkpt>
      <trkpt lat="46.03677" lon="6.10788">
        <ele>798.4</ele>
        <time>2021-03-27T14:56:51Z</time>
      </trkpt>
      <trkpt lat="46.0368" lon="6.10785">
        <ele>798.4</ele>
        <time>2021-03-27T14:56:52Z</time>
      </trkpt>
      <trkpt lat="46.03682" lon="6.10781">
        <ele>798.6</ele>
        <time>2021-03-27T14:56:53Z</time>
      </trkpt>
      <trkpt lat="46.03685" lon="6.10777">
        <ele>798.6</ele>
        <time>2021-03-27T14:56:54Z</time>
      </trkpt>
      <trkpt lat="46.03688" lon="6.10773">
        <ele>798.4</ele>
        <time>2021-03-27T14:56:55Z</time>
      </trkpt>
      <trkpt lat="46.03692" lon="6.10769">
        <ele>798.6</ele>
        <time>2021-03-27T14:56:56Z</time>
      </trkpt>
      <trkpt lat="46.03695" lon="6.10765">
        <ele>798.6</ele>
        <time>2021-03-27T14:56:57Z</time>
      </trkpt>
      <trkpt lat="46.03698" lon="6.10761">
        <ele>798.6</ele>
        <time>2021-03-27T14:56:58Z</time>
      </trkpt>
      <trkpt lat="46.03702" lon="6.10758">
        <ele>798.6</ele>
        <time>2021-03-27T14:56:59Z</time>
      </trkpt>
      <trkpt lat="46.03705" lon="6.10754">
        <ele>798.6</ele>
        <time>2021-03-27T14:57:00Z</time>
      </trkpt>
      <trkpt lat="46.03709" lon="6.10751">
        <ele>798.6</ele>
        <time>2021-03-27T14:57:01Z</time>
      </trkpt>
      <trkpt lat="46.03713" lon="6.10748">
        <ele>798.8</ele>
        <time>2021-03-27T14:57:02Z</time>
      </trkpt>
      <trkpt lat="46.03716" lon="6.10744">
        <ele>798.8</ele>
        <time>2021-03-27T14:57:03Z</time>
      </trkpt>
      <trkpt lat="46.0372" lon="6.10741">
        <ele>798.8</ele>
        <time>2021-03-27T14:57:04Z</time>
      </trkpt>
      <trkpt lat="46.03724" lon="6.10738">
        <ele>798.8</ele>
        <time>2021-03-27T14:57:05Z</time>
      </trkpt>
      <trkpt lat="46.03727" lon="6.10735">
        <ele>799</ele>
        <time>2021-03-27T14:57:06Z</time>
      </trkpt>
      <trkpt lat="46.03731" lon="6.10732">
        <ele>799</ele>
        <time>2021-03-27T14:57:07Z</time>
      </trkpt>
      <trkpt lat="46.03735" lon="6.10728">
        <ele>799</ele>
        <time>2021-03-27T14:57:08Z</time>
      </trkpt>
      <trkpt lat="46.03738" lon="6.10725">
        <ele>799</ele>
        <time>2021-03-27T14:57:09Z</time>
      </trkpt>
      <trkpt lat="46.03742" lon="6.10721">
        <ele>799.2</ele>
        <time>2021-03-27T14:57:10Z</time>
      </trkpt>
      <trkpt lat="46.03745" lon="6.10718">
        <ele>799.2</ele>
        <time>2021-03-27T14:57:11Z</time>
      </trkpt>
      <trkpt lat="46.03748" lon="6.10715">
        <ele>799.2</ele>
        <time>2021-03-27T14:57:12Z</time>
      </trkpt>
      <trkpt lat="46.03751" lon="6.10711">
        <ele>799.2</ele>
        <time>2021-03-27T14:57:13Z</time>
      </trkpt>
      <trkpt lat="46.03754" lon="6.10708">
        <ele>799.4</ele>
        <time>2021-03-27T14:57:14Z</time>
      </trkpt>
      <trkpt lat="46.03756" lon="6.10704">
        <ele>799.4</ele>
        <time>2021-03-27T14:57:15Z</time>
      </trkpt>
      <trkpt lat="46.03759" lon="6.107">
        <ele>799.6</ele>
        <time>2021-03-27T14:57:16Z</time>
      </trkpt>
      <trkpt lat="46.03761" lon="6.10697">
        <ele>799.6</ele>
        <time>2021-03-27T14:57:17Z</time>
      </trkpt>
      <trkpt lat="46.03763" lon="6.10693">
        <ele>799.6</ele>
        <time>2021-03-27T14:57:18Z</time>
      </trkpt>
      <trkpt lat="46.03766" lon="6.1069">
        <ele>799.8</ele>
        <time>2021-03-27T14:57:19Z</time>
      </trkpt>
      <trkpt lat="46.03768" lon="6.10687">
        <ele>799.8</ele>
        <time>2021-03-27T14:57:20Z</time>
      </trkpt>
      <trkpt lat="46.0377" lon="6.10684">
        <ele>800</ele>
        <time>2021-03-27T14:57:21Z</time>
      </trkpt>
      <trkpt lat="46.03773" lon="6.10681">
        <ele>800</ele>
        <time>2021-03-27T14:57:22Z</time>
      </trkpt>
      <trkpt lat="46.03775" lon="6.10678">
        <ele>800.4</ele>
        <time>2021-03-27T14:57:23Z</time>
      </trkpt>
      <trkpt lat="46.03777" lon="6.10674">
        <ele>800.8</ele>
        <time>2021-03-27T14:57:24Z</time>
      </trkpt>
      <trkpt lat="46.03779" lon="6.10671">
        <ele>801.2</ele>
        <time>2021-03-27T14:57:25Z</time>
      </trkpt>
      <trkpt lat="46.03782" lon="6.10668">
        <ele>801.6</ele>
        <time>2021-03-27T14:57:26Z</time>
      </trkpt>
      <trkpt lat="46.03784" lon="6.10665">
        <ele>802</ele>
        <time>2021-03-27T14:57:27Z</time>
      </trkpt>
      <trkpt lat="46.03786" lon="6.10662">
        <ele>802.2</ele>
        <time>2021-03-27T14:57:28Z</time>
      </trkpt>
      <trkpt lat="46.03788" lon="6.10658">
        <ele>802.6</ele>
        <time>2021-03-27T14:57:29Z</time>
      </trkpt>
      <trkpt lat="46.0379" lon="6.10655">
        <ele>802.8</ele>
        <time>2021-03-27T14:57:30Z</time>
      </trkpt>
      <trkpt lat="46.03793" lon="6.10653">
        <ele>803</ele>
        <time>2021-03-27T14:57:31Z</time>
      </trkpt>
      <trkpt lat="46.03795" lon="6.1065">
        <ele>803.4</ele>
        <time>2021-03-27T14:57:32Z</time>
      </trkpt>
      <trkpt lat="46.03797" lon="6.10647">
        <ele>803.4</ele>
        <time>2021-03-27T14:57:33Z</time>
      </trkpt>
      <trkpt lat="46.03799" lon="6.10644">
        <ele>803.6</ele>
        <time>2021-03-27T14:57:34Z</time>
      </trkpt>
      <trkpt lat="46.03801" lon="6.10641">
        <ele>803.8</ele>
        <time>2021-03-27T14:57:35Z</time>
      </trkpt>
      <trkpt lat="46.03803" lon="6.10638">
        <ele>804</ele>
        <time>2021-03-27T14:57:36Z</time>
      </trkpt>
      <trkpt lat="46.03805" lon="6.10635">
        <ele>804.4</ele>
        <time>2021-03-27T14:57:37Z</time>
      </trkpt>
      <trkpt lat="46.03808" lon="6.10633">
        <ele>804.6</ele>
        <time>2021-03-27T14:57:38Z</time>
      </trkpt>
      <trkpt lat="46.0381" lon="6.10629">
        <ele>804.8</ele>
        <time>2021-03-27T14:57:39Z</time>
      </trkpt>
      <trkpt lat="46.03812" lon="6.10626">
        <ele>805</ele>
        <time>2021-03-27T14:57:40Z</time>
      </trkpt>
      <trkpt lat="46.03814" lon="6.10623">
        <ele>805.2</ele>
        <time>2021-03-27T14:57:41Z</time>
      </trkpt>
      <trkpt lat="46.03816" lon="6.1062">
        <ele>805.4</ele>
        <time>2021-03-27T14:57:42Z</time>
      </trkpt>
      <trkpt lat="46.03818" lon="6.10617">
        <ele>805.6</ele>
        <time>2021-03-27T14:57:43Z</time>
      </trkpt>
      <trkpt lat="46.0382" lon="6.10614">
        <ele>805.6</ele>
        <time>2021-03-27T14:57:44Z</time>
      </trkpt>
      <trkpt lat="46.03822" lon="6.10611">
        <ele>805.8</ele>
        <time>2021-03-27T14:57:45Z</time>
      </trkpt>
      <trkpt lat="46.03824" lon="6.10608">
        <ele>806</ele>
        <time>2021-03-27T14:57:46Z</time>
      </trkpt>
      <trkpt lat="46.03827" lon="6.10605">
        <ele>806.4</ele>
        <time>2021-03-27T14:57:47Z</time>
      </trkpt>
      <trkpt lat="46.03829" lon="6.10602">
        <ele>806.6</ele>
        <time>2021-03-27T14:57:48Z</time>
      </trkpt>
      <trkpt lat="46.03832" lon="6.10599">
        <ele>806.8</ele>
        <time>2021-03-27T14:57:49Z</time>
      </trkpt>
      <trkpt lat="46.03834" lon="6.10596">
        <ele>806.8</ele>
        <time>2021-03-27T14:57:50Z</time>
      </trkpt>
      <trkpt lat="46.03836" lon="6.10593">
        <ele>806.8</ele>
        <time>2021-03-27T14:57:51Z</time>
      </trkpt>
      <trkpt lat="46.03839" lon="6.10589">
        <ele>807.2</ele>
        <time>2021-03-27T14:57:52Z</time>
      </trkpt>
      <trkpt lat="46.03841" lon="6.10586">
        <ele>807.4</ele>
        <time>2021-03-27T14:57:53Z</time>
      </trkpt>
      <trkpt lat="46.03843" lon="6.10582">
        <ele>807.6</ele>
        <time>2021-03-27T14:57:54Z</time>
      </trkpt>
      <trkpt lat="46.03845" lon="6.10579">
        <ele>807.8</ele>
        <time>2021-03-27T14:57:55Z</time>
      </trkpt>
      <trkpt lat="46.03848" lon="6.10576">
        <ele>808</ele>
        <time>2021-03-27T14:57:56Z</time>
      </trkpt>
      <trkpt lat="46.0385" lon="6.10572">
        <ele>807.8</ele>
        <time>2021-03-27T14:57:57Z</time>
      </trkpt>
      <trkpt lat="46.03853" lon="6.10569">
        <ele>808</ele>
        <time>2021-03-27T14:57:58Z</time>
      </trkpt>
      <trkpt lat="46.03855" lon="6.10565">
        <ele>808.2</ele>
        <time>2021-03-27T14:57:59Z</time>
      </trkpt>
      <trkpt lat="46.03858" lon="6.10562">
        <ele>808.4</ele>
        <time>2021-03-27T14:58:00Z</time>
      </trkpt>
      <trkpt lat="46.0386" lon="6.10558">
        <ele>808.8</ele>
        <time>2021-03-27T14:58:01Z</time>
      </trkpt>
      <trkpt lat="46.03862" lon="6.10554">
        <ele>809</ele>
        <time>2021-03-27T14:58:02Z</time>
      </trkpt>
      <trkpt lat="46.03864" lon="6.10551">
        <ele>809.2</ele>
        <time>2021-03-27T14:58:03Z</time>
      </trkpt>
      <trkpt lat="46.03866" lon="6.10547">
        <ele>809.4</ele>
        <time>2021-03-27T14:58:04Z</time>
      </trkpt>
      <trkpt lat="46.03867" lon="6.10543">
        <ele>809.6</ele>
        <time>2021-03-27T14:58:05Z</time>
      </trkpt>
      <trkpt lat="46.03869" lon="6.10539">
        <ele>809.8</ele>
        <time>2021-03-27T14:58:06Z</time>
      </trkpt>
      <trkpt lat="46.0387" lon="6.10535">
        <ele>810</ele>
        <time>2021-03-27T14:58:07Z</time>
      </trkpt>
      <trkpt lat="46.03871" lon="6.10531">
        <ele>810.2</ele>
        <time>2021-03-27T14:58:08Z</time>
      </trkpt>
      <trkpt lat="46.03872" lon="6.10527">
        <ele>810.4</ele>
        <time>2021-03-27T14:58:09Z</time>
      </trkpt>
      <trkpt lat="46.03873" lon="6.10523">
        <ele>810.4</ele>
        <time>2021-03-27T14:58:10Z</time>
      </trkpt>
      <trkpt lat="46.03874" lon="6.10519">
        <ele>810.6</ele>
        <time>2021-03-27T14:58:11Z</time>
      </trkpt>
      <trkpt lat="46.03875" lon="6.10515">
        <ele>811.2</ele>
        <time>2021-03-27T14:58:12Z</time>
      </trkpt>
      <trkpt lat="46.03876" lon="6.10511">
        <ele>811.4</ele>
        <time>2021-03-27T14:58:13Z</time>
      </trkpt>
      <trkpt lat="46.03877" lon="6.10507">
        <ele>811.6</ele>
        <time>2021-03-27T14:58:14Z</time>
      </trkpt>
      <trkpt lat="46.03878" lon="6.10503">
        <ele>811.6</ele>
        <time>2021-03-27T14:58:15Z</time>
      </trkpt>
      <trkpt lat="46.03879" lon="6.10498">
        <ele>811.8</ele>
        <time>2021-03-27T14:58:16Z</time>
      </trkpt>
      <trkpt lat="46.03879" lon="6.10494">
        <ele>812</ele>
        <time>2021-03-27T14:58:17Z</time>
      </trkpt>
      <trkpt lat="46.0388" lon="6.1049">
        <ele>812.2</ele>
        <time>2021-03-27T14:58:18Z</time>
      </trkpt>
      <trkpt lat="46.03881" lon="6.10486">
        <ele>812.2</ele>
        <time>2021-03-27T14:58:19Z</time>
      </trkpt>
      <trkpt lat="46.03881" lon="6.10482">
        <ele>812.6</ele>
        <time>2021-03-27T14:58:20Z</time>
      </trkpt>
      <trkpt lat="46.03881" lon="6.10478">
        <ele>812.6</ele>
        <time>2021-03-27T14:58:21Z</time>
      </trkpt>
      <trkpt lat="46.03882" lon="6.10474">
        <ele>812.8</ele>
        <time>2021-03-27T14:58:22Z</time>
      </trkpt>
      <trkpt lat="46.03882" lon="6.10472">
        <ele>813</ele>
        <time>2021-03-27T14:58:23Z</time>
      </trkpt>
      <trkpt lat="46.03882" lon="6.1047">
        <ele>813.2</ele>
        <time>2021-03-27T14:58:24Z</time>
      </trkpt>
      <trkpt lat="46.03883" lon="6.1047">
        <ele>813.4</ele>
        <time>2021-03-27T14:58:25Z</time>
      </trkpt>
      <trkpt lat="46.03883" lon="6.1047">
        <ele>813.8</ele>
        <time>2021-03-27T14:58:26Z</time>
      </trkpt>
      <trkpt lat="46.03883" lon="6.1047">
        <ele>814</ele>
        <time>2021-03-27T14:58:27Z</time>
      </trkpt>
      <trkpt lat="46.03883" lon="6.1047">
        <ele>814.2</ele>
        <time>2021-03-27T14:58:28Z</time>
      </trkpt>
      <trkpt lat="46.03883" lon="6.1047">
        <ele>814.2</ele>
        <time>2021-03-27T14:58:29Z</time>
      </trkpt>
      <trkpt lat="46.03883" lon="6.1047">
        <ele>814.4</ele>
        <time>2021-03-27T14:58:30Z</time>
      </trkpt>
      <trkpt lat="46.03883" lon="6.1047">
        <ele>814.6</ele>
        <time>2021-03-27T14:58:31Z</time>
      </trkpt>
      <trkpt lat="46.03883" lon="6.1047">
        <ele>814.8</ele>
        <time>2021-03-27T14:58:32Z</time>
      </trkpt>
      <trkpt lat="46.03883" lon="6.1047">
        <ele>815</ele>
        <time>2021-03-27T14:58:33Z</time>
      </trkpt>
      <trkpt lat="46.03883" lon="6.1047">
        <ele>815</ele>
        <time>2021-03-27T14:58:34Z</time>
      </trkpt>
      <trkpt lat="46.03883" lon="6.1047">
        <ele>815.2</ele>
        <time>2021-03-27T14:58:35Z</time>
      </trkpt>
      <trkpt lat="46.03883" lon="6.1047">
        <ele>815.2</ele>
        <time>2021-03-27T14:58:36Z</time>
      </trkpt>
      <trkpt lat="46.03883" lon="6.1047">
        <ele>815.2</ele>
        <time>2021-03-27T14:58:37Z</time>
      </trkpt>
      <trkpt lat="46.03883" lon="6.1047">
        <ele>815.2</ele>
        <time>2021-03-27T14:58:38Z</time>
      </trkpt>
      <trkpt lat="46.03883" lon="6.1047">
        <ele>815.2</ele>
        <time>2021-03-27T14:58:39Z</time>
      </trkpt>
      <trkpt lat="46.03883" lon="6.1047">
        <ele>815.2</ele>
        <time>2021-03-27T14:58:40Z</time>
      </trkpt>
      <trkpt lat="46.03882" lon="6.1047">
        <ele>815.2</ele>
        <time>2021-03-27T14:58:41Z</time>
      </trkpt>
      <trkpt lat="46.03882" lon="6.1047">
        <ele>815.2</ele>
        <time>2021-03-27T14:58:42Z</time>
      </trkpt>
      <trkpt lat="46.03882" lon="6.1047">
        <ele>815.4</ele>
        <time>2021-03-27T14:58:43Z</time>
      </trkpt>
      <trkpt lat="46.03882" lon="6.1047">
        <ele>815.2</ele>
        <time>2021-03-27T14:58:44Z</time>
      </trkpt>
      <trkpt lat="46.03883" lon="6.1047">
        <ele>815.2</ele>
        <time>2021-03-27T14:58:45Z</time>
      </trkpt>
      <trkpt lat="46.03883" lon="6.1047">
        <ele>815.2</ele>
        <time>2021-03-27T14:58:46Z</time>
      </trkpt>
      <trkpt lat="46.03883" lon="6.1047">
        <ele>815.2</ele>
        <time>2021-03-27T14:58:47Z</time>
      </trkpt>
      <trkpt lat="46.03883" lon="6.1047">
        <ele>815.2</ele>
        <time>2021-03-27T14:58:48Z</time>
      </trkpt>
      <trkpt lat="46.03883" lon="6.1047">
        <ele>815.2</ele>
        <time>2021-03-27T14:58:49Z</time>
      </trkpt>
      <trkpt lat="46.03883" lon="6.1047">
        <ele>815.2</ele>
        <time>2021-03-27T14:58:50Z</time>
      </trkpt>
      <trkpt lat="46.03883" lon="6.1047">
        <ele>815.2</ele>
        <time>2021-03-27T14:58:51Z</time>
      </trkpt>
      <trkpt lat="46.03883" lon="6.1047">
        <ele>815</ele>
        <time>2021-03-27T14:58:52Z</time>
      </trkpt>
      <trkpt lat="46.03883" lon="6.1047">
        <ele>815</ele>
        <time>2021-03-27T14:58:53Z</time>
      </trkpt>
      <trkpt lat="46.03883" lon="6.1047">
        <ele>815</ele>
        <time>2021-03-27T14:58:54Z</time>
      </trkpt>
      <trkpt lat="46.03883" lon="6.1047">
        <ele>815</ele>
        <time>2021-03-27T14:58:55Z</time>
      </trkpt>
      <trkpt lat="46.03883" lon="6.1047">
        <ele>815</ele>
        <time>2021-03-27T14:58:56Z</time>
      </trkpt>
      <trkpt lat="46.03883" lon="6.1047">
        <ele>815</ele>
        <time>2021-03-27T14:58:57Z</time>
      </trkpt>
      <trkpt lat="46.03883" lon="6.1047">
        <ele>815</ele>
        <time>2021-03-27T14:58:58Z</time>
      </trkpt>
      <trkpt lat="46.03883" lon="6.1047">
        <ele>814.8</ele>
        <time>2021-03-27T14:58:59Z</time>
      </trkpt>
      <trkpt lat="46.03883" lon="6.1047">
        <ele>815</ele>
        <time>2021-03-27T14:59:00Z</time>
      </trkpt>
      <trkpt lat="46.03883" lon="6.1047">
        <ele>815</ele>
        <time>2021-03-27T14:59:01Z</time>
      </trkpt>
      <trkpt lat="46.03883" lon="6.1047">
        <ele>815</ele>
        <time>2021-03-27T14:59:02Z</time>
      </trkpt>
      <trkpt lat="46.03883" lon="6.1047">
        <ele>814.8</ele>
        <time>2021-03-27T14:59:03Z</time>
      </trkpt>
      <trkpt lat="46.03883" lon="6.1047">
        <ele>815</ele>
        <time>2021-03-27T14:59:04Z</time>
      </trkpt>
      <trkpt lat="46.03883" lon="6.1047">
        <ele>815</ele>
        <time>2021-03-27T14:59:05Z</time>
      </trkpt>
      <trkpt lat="46.03883" lon="6.10469">
        <ele>815</ele>
        <time>2021-03-27T14:59:06Z</time>
      </trkpt>
      <trkpt lat="46.03883" lon="6.10469">
        <ele>815</ele>
        <time>2021-03-27T14:59:07Z</time>
      </trkpt>
      <trkpt lat="46.03883" lon="6.10469">
        <ele>815</ele>
        <time>2021-03-27T14:59:08Z</time>
      </trkpt>
      <trkpt lat="46.03883" lon="6.10469">
        <ele>814.8</ele>
        <time>2021-03-27T14:59:09Z</time>
      </trkpt>
      <trkpt lat="46.03883" lon="6.10469">
        <ele>814.8</ele>
        <time>2021-03-27T14:59:10Z</time>
      </trkpt>
      <trkpt lat="46.03883" lon="6.10469">
        <ele>815</ele>
        <time>2021-03-27T14:59:11Z</time>
      </trkpt>
      <trkpt lat="46.03883" lon="6.10469">
        <ele>815</ele>
        <time>2021-03-27T14:59:12Z</time>
      </trkpt>
      <trkpt lat="46.03883" lon="6.10469">
        <ele>814.8</ele>
        <time>2021-03-27T14:59:13Z</time>
      </trkpt>
      <trkpt lat="46.03883" lon="6.10469">
        <ele>814.8</ele>
        <time>2021-03-27T14:59:14Z</time>
      </trkpt>
      <trkpt lat="46.03883" lon="6.10469">
        <ele>814.8</ele>
        <time>2021-03-27T14:59:15Z</time>
      </trkpt>
      <trkpt lat="46.03883" lon="6.10469">
        <ele>815</ele>
        <time>2021-03-27T14:59:16Z</time>
      </trkpt>
      <trkpt lat="46.03883" lon="6.10469">
        <ele>814.8</ele>
        <time>2021-03-27T14:59:17Z</time>
      </trkpt>
      <trkpt lat="46.03883" lon="6.10469">
        <ele>814.8</ele>
        <time>2021-03-27T14:59:18Z</time>
      </trkpt>
      <trkpt lat="46.03883" lon="6.10469">
        <ele>814.8</ele>
        <time>2021-03-27T14:59:19Z</time>
      </trkpt>
      <trkpt lat="46.03883" lon="6.10469">
        <ele>815</ele>
        <time>2021-03-27T14:59:20Z</time>
      </trkpt>
      <trkpt lat="46.03883" lon="6.10469">
        <ele>815</ele>
        <time>2021-03-27T14:59:21Z</time>
      </trkpt>
      <trkpt lat="46.03883" lon="6.10469">
        <ele>815</ele>
        <time>2021-03-27T14:59:22Z</time>
      </trkpt>
      <trkpt lat="46.03883" lon="6.10469">
        <ele>815</ele>
        <time>2021-03-27T14:59:23Z</time>
      </trkpt>
      <trkpt lat="46.03883" lon="6.10469">
        <ele>814.8</ele>
        <time>2021-03-27T14:59:24Z</time>
      </trkpt>
      <trkpt lat="46.03883" lon="6.10469">
        <ele>814.8</ele>
        <time>2021-03-27T14:59:25Z</time>
      </trkpt>
      <trkpt lat="46.03883" lon="6.10469">
        <ele>815</ele>
        <time>2021-03-27T14:59:26Z</time>
      </trkpt>
      <trkpt lat="46.03883" lon="6.10469">
        <ele>815</ele>
        <time>2021-03-27T14:59:27Z</time>
      </trkpt>
      <trkpt lat="46.03883" lon="6.10469">
        <ele>815</ele>
        <time>2021-03-27T14:59:28Z</time>
      </trkpt>
      <trkpt lat="46.03883" lon="6.10469">
        <ele>815</ele>
        <time>2021-03-27T14:59:29Z</time>
      </trkpt>
      <trkpt lat="46.03883" lon="6.10469">
        <ele>815.2</ele>
        <time>2021-03-27T14:59:30Z</time>
      </trkpt>
      <trkpt lat="46.03883" lon="6.10469">
        <ele>815.2</ele>
        <time>2021-03-27T14:59:31Z</time>
      </trkpt>
      <trkpt lat="46.03883" lon="6.10469">
        <ele>815.2</ele>
        <time>2021-03-27T14:59:32Z</time>
      </trkpt>
      <trkpt lat="46.03883" lon="6.10469">
        <ele>815</ele>
        <time>2021-03-27T14:59:33Z</time>
      </trkpt>
      <trkpt lat="46.03883" lon="6.10469">
        <ele>815.2</ele>
        <time>2021-03-27T14:59:34Z</time>
      </trkpt>
      <trkpt lat="46.03883" lon="6.10469">
        <ele>815.2</ele>
        <time>2021-03-27T14:59:35Z</time>
      </trkpt>
      <trkpt lat="46.03883" lon="6.10469">
        <ele>815</ele>
        <time>2021-03-27T14:59:36Z</time>
      </trkpt>
      <trkpt lat="46.03883" lon="6.10469">
        <ele>815.2</ele>
        <time>2021-03-27T14:59:37Z</time>
      </trkpt>
      <trkpt lat="46.03883" lon="6.10469">
        <ele>815.2</ele>
        <time>2021-03-27T14:59:38Z</time>
      </trkpt>
      <trkpt lat="46.03883" lon="6.10469">
        <ele>815.2</ele>
        <time>2021-03-27T14:59:39Z</time>
      </trkpt>
      <trkpt lat="46.03883" lon="6.10469">
        <ele>815.2</ele>
        <time>2021-03-27T14:59:40Z</time>
      </trkpt>
      <trkpt lat="46.03883" lon="6.10469">
        <ele>815.2</ele>
        <time>2021-03-27T14:59:41Z</time>
      </trkpt>
      <trkpt lat="46.03883" lon="6.10469">
        <ele>815.2</ele>
        <time>2021-03-27T14:59:42Z</time>
      </trkpt>
      <trkpt lat="46.03883" lon="6.10469">
        <ele>815</ele>
        <time>2021-03-27T14:59:43Z</time>
      </trkpt>
      <trkpt lat="46.03883" lon="6.10469">
        <ele>815.2</ele>
        <time>2021-03-27T14:59:44Z</time>
      </trkpt>
      <trkpt lat="46.03883" lon="6.10469">
        <ele>815</ele>
        <time>2021-03-27T14:59:45Z</time>
      </trkpt>
      <trkpt lat="46.03883" lon="6.10469">
        <ele>815</ele>
        <time>2021-03-27T14:59:46Z</time>
      </trkpt>
      <trkpt lat="46.03883" lon="6.10469">
        <ele>815</ele>
        <time>2021-03-27T14:59:47Z</time>
      </trkpt>
      <trkpt lat="46.03883" lon="6.10469">
        <ele>815</ele>
        <time>2021-03-27T14:59:48Z</time>
      </trkpt>
      <trkpt lat="46.03883" lon="6.1047">
        <ele>815.2</ele>
        <time>2021-03-27T14:59:49Z</time>
      </trkpt>
      <trkpt lat="46.03883" lon="6.1047">
        <ele>815</ele>
        <time>2021-03-27T14:59:50Z</time>
      </trkpt>
      <trkpt lat="46.03883" lon="6.1047">
        <ele>815</ele>
        <time>2021-03-27T14:59:51Z</time>
      </trkpt>
      <trkpt lat="46.03883" lon="6.1047">
        <ele>815.2</ele>
        <time>2021-03-27T14:59:52Z</time>
      </trkpt>
      <trkpt lat="46.03883" lon="6.1047">
        <ele>815</ele>
        <time>2021-03-27T14:59:53Z</time>
      </trkpt>
      <trkpt lat="46.03883" lon="6.1047">
        <ele>815</ele>
        <time>2021-03-27T14:59:54Z</time>
      </trkpt>
      <trkpt lat="46.03883" lon="6.1047">
        <ele>815</ele>
        <time>2021-03-27T14:59:55Z</time>
      </trkpt>
      <trkpt lat="46.03883" lon="6.1047">
        <ele>815</ele>
        <time>2021-03-27T14:59:56Z</time>
      </trkpt>
      <trkpt lat="46.03883" lon="6.1047">
        <ele>815.2</ele>
        <time>2021-03-27T14:59:57Z</time>
      </trkpt>
      <trkpt lat="46.03883" lon="6.1047">
        <ele>815</ele>
        <time>2021-03-27T14:59:58Z</time>
      </trkpt>
      <trkpt lat="46.03883" lon="6.1047">
        <ele>815</ele>
        <time>2021-03-27T14:59:59Z</time>
      </trkpt>
      <trkpt lat="46.03883" lon="6.1047">
        <ele>815.2</ele>
        <time>2021-03-27T15:00:00Z</time>
      </trkpt>
      <trkpt lat="46.03883" lon="6.1047">
        <ele>815</ele>
        <time>2021-03-27T15:00:01Z</time>
      </trkpt>
      <trkpt lat="46.03883" lon="6.1047">
        <ele>815.2</ele>
        <time>2021-03-27T15:00:02Z</time>
      </trkpt>
      <trkpt lat="46.03883" lon="6.1047">
        <ele>815</ele>
        <time>2021-03-27T15:00:03Z</time>
      </trkpt>
      <trkpt lat="46.03883" lon="6.1047">
        <ele>815</ele>
        <time>2021-03-27T15:00:04Z</time>
      </trkpt>
      <trkpt lat="46.03883" lon="6.1047">
        <ele>815</ele>
        <time>2021-03-27T15:00:05Z</time>
      </trkpt>
      <trkpt lat="46.03883" lon="6.1047">
        <ele>815</ele>
        <time>2021-03-27T15:00:06Z</time>
      </trkpt>
      <trkpt lat="46.03883" lon="6.1047">
        <ele>815</ele>
        <time>2021-03-27T15:00:07Z</time>
      </trkpt>
      <trkpt lat="46.03883" lon="6.1047">
        <ele>815</ele>
        <time>2021-03-27T15:00:08Z</time>
      </trkpt>
      <trkpt lat="46.03883" lon="6.1047">
        <ele>815</ele>
        <time>2021-03-27T15:00:09Z</time>
      </trkpt>
      <trkpt lat="46.03883" lon="6.1047">
        <ele>815</ele>
        <time>2021-03-27T15:00:10Z</time>
      </trkpt>
      <trkpt lat="46.03883" lon="6.1047">
        <ele>815</ele>
        <time>2021-03-27T15:00:11Z</time>
      </trkpt>
      <trkpt lat="46.03883" lon="6.1047">
        <ele>815</ele>
        <time>2021-03-27T15:00:12Z</time>
      </trkpt>
      <trkpt lat="46.03883" lon="6.1047">
        <ele>815</ele>
        <time>2021-03-27T15:00:13Z</time>
      </trkpt>
      <trkpt lat="46.03883" lon="6.1047">
        <ele>814.8</ele>
        <time>2021-03-27T15:00:14Z</time>
      </trkpt>
      <trkpt lat="46.03883" lon="6.1047">
        <ele>814.8</ele>
        <time>2021-03-27T15:00:15Z</time>
      </trkpt>
      <trkpt lat="46.03883" lon="6.1047">
        <ele>814.8</ele>
        <time>2021-03-27T15:00:16Z</time>
      </trkpt>
      <trkpt lat="46.03883" lon="6.1047">
        <ele>814.8</ele>
        <time>2021-03-27T15:00:17Z</time>
      </trkpt>
      <trkpt lat="46.03883" lon="6.1047">
        <ele>815</ele>
        <time>2021-03-27T15:00:18Z</time>
      </trkpt>
      <trkpt lat="46.03883" lon="6.1047">
        <ele>814.8</ele>
        <time>2021-03-27T15:00:19Z</time>
      </trkpt>
      <trkpt lat="46.03883" lon="6.1047">
        <ele>815</ele>
        <time>2021-03-27T15:00:20Z</time>
      </trkpt>
      <trkpt lat="46.03883" lon="6.1047">
        <ele>815</ele>
        <time>2021-03-27T15:00:21Z</time>
      </trkpt>
      <trkpt lat="46.03883" lon="6.1047">
        <ele>815</ele>
        <time>2021-03-27T15:00:22Z</time>
      </trkpt>
      <trkpt lat="46.03883" lon="6.1047">
        <ele>814.8</ele>
        <time>2021-03-27T15:00:23Z</time>
      </trkpt>
      <trkpt lat="46.03883" lon="6.1047">
        <ele>814.8</ele>
        <time>2021-03-27T15:00:24Z</time>
      </trkpt>
      <trkpt lat="46.03883" lon="6.1047">
        <ele>814.8</ele>
        <time>2021-03-27T15:00:25Z</time>
      </trkpt>
      <trkpt lat="46.03883" lon="6.1047">
        <ele>815</ele>
        <time>2021-03-27T15:00:26Z</time>
      </trkpt>
      <trkpt lat="46.03883" lon="6.1047">
        <ele>815</ele>
        <time>2021-03-27T15:00:27Z</time>
      </trkpt>
      <trkpt lat="46.03883" lon="6.1047">
        <ele>814.8</ele>
        <time>2021-03-27T15:00:28Z</time>
      </trkpt>
      <trkpt lat="46.03883" lon="6.1047">
        <ele>814.8</ele>
        <time>2021-03-27T15:00:29Z</time>
      </trkpt>
      <trkpt lat="46.03883" lon="6.1047">
        <ele>815</ele>
        <time>2021-03-27T15:00:30Z</time>
      </trkpt>
      <trkpt lat="46.03883" lon="6.1047">
        <ele>814.8</ele>
        <time>2021-03-27T15:00:31Z</time>
      </trkpt>
      <trkpt lat="46.03883" lon="6.1047">
        <ele>814.8</ele>
        <time>2021-03-27T15:00:32Z</time>
      </trkpt>
      <trkpt lat="46.03883" lon="6.1047">
        <ele>814.8</ele>
        <time>2021-03-27T15:00:33Z</time>
      </trkpt>
      <trkpt lat="46.03883" lon="6.1047">
        <ele>815</ele>
        <time>2021-03-27T15:00:34Z</time>
      </trkpt>
      <trkpt lat="46.03883" lon="6.1047">
        <ele>814.8</ele>
        <time>2021-03-27T15:00:35Z</time>
      </trkpt>
      <trkpt lat="46.03883" lon="6.1047">
        <ele>815</ele>
        <time>2021-03-27T15:00:36Z</time>
      </trkpt>
      <trkpt lat="46.03883" lon="6.1047">
        <ele>815</ele>
        <time>2021-03-27T15:00:37Z</time>
      </trkpt>
      <trkpt lat="46.03883" lon="6.1047">
        <ele>814.8</ele>
        <time>2021-03-27T15:00:38Z</time>
      </trkpt>
      <trkpt lat="46.03883" lon="6.1047">
        <ele>815</ele>
        <time>2021-03-27T15:00:39Z</time>
      </trkpt>
      <trkpt lat="46.03883" lon="6.1047">
        <ele>815</ele>
        <time>2021-03-27T15:00:40Z</time>
      </trkpt>
      <trkpt lat="46.03883" lon="6.1047">
        <ele>814.8</ele>
        <time>2021-03-27T15:00:41Z</time>
      </trkpt>
      <trkpt lat="46.03883" lon="6.1047">
        <ele>814.8</ele>
        <time>2021-03-27T15:00:42Z</time>
      </trkpt>
      <trkpt lat="46.03883" lon="6.1047">
        <ele>815</ele>
        <time>2021-03-27T15:00:43Z</time>
      </trkpt>
      <trkpt lat="46.03883" lon="6.1047">
        <ele>815</ele>
        <time>2021-03-27T15:00:44Z</time>
      </trkpt>
      <trkpt lat="46.03883" lon="6.1047">
        <ele>815</ele>
        <time>2021-03-27T15:00:45Z</time>
      </trkpt>
      <trkpt lat="46.03883" lon="6.1047">
        <ele>814.8</ele>
        <time>2021-03-27T15:00:46Z</time>
      </trkpt>
      <trkpt lat="46.03883" lon="6.1047">
        <ele>814.8</ele>
        <time>2021-03-27T15:00:47Z</time>
      </trkpt>
      <trkpt lat="46.03883" lon="6.1047">
        <ele>815</ele>
        <time>2021-03-27T15:00:48Z</time>
      </trkpt>
      <trkpt lat="46.03883" lon="6.1047">
        <ele>815</ele>
        <time>2021-03-27T15:00:49Z</time>
      </trkpt>
      <trkpt lat="46.03883" lon="6.1047">
        <ele>815</ele>
        <time>2021-03-27T15:00:50Z</time>
      </trkpt>
      <trkpt lat="46.03883" lon="6.1047">
        <ele>815</ele>
        <time>2021-03-27T15:00:51Z</time>
      </trkpt>
      <trkpt lat="46.03883" lon="6.1047">
        <ele>815.2</ele>
        <time>2021-03-27T15:00:52Z</time>
      </trkpt>
      <trkpt lat="46.03883" lon="6.1047">
        <ele>815.2</ele>
        <time>2021-03-27T15:00:53Z</time>
      </trkpt>
      <trkpt lat="46.03883" lon="6.10469">
        <ele>815.2</ele>
        <time>2021-03-27T15:00:54Z</time>
      </trkpt>
      <trkpt lat="46.03883" lon="6.10469">
        <ele>815.2</ele>
        <time>2021-03-27T15:00:55Z</time>
      </trkpt>
      <trkpt lat="46.03883" lon="6.10469">
        <ele>815.2</ele>
        <time>2021-03-27T15:00:56Z</time>
      </trkpt>
      <trkpt lat="46.03883" lon="6.10469">
        <ele>815.2</ele>
        <time>2021-03-27T15:00:57Z</time>
      </trkpt>
      <trkpt lat="46.03883" lon="6.10469">
        <ele>815.2</ele>
        <time>2021-03-27T15:00:58Z</time>
      </trkpt>
      <trkpt lat="46.03883" lon="6.10469">
        <ele>815.2</ele>
        <time>2021-03-27T15:00:59Z</time>
      </trkpt>
      <trkpt lat="46.03883" lon="6.10469">
        <ele>815.2</ele>
        <time>2021-03-27T15:01:00Z</time>
      </trkpt>
      <trkpt lat="46.03883" lon="6.10469">
        <ele>815.2</ele>
        <time>2021-03-27T15:01:01Z</time>
      </trkpt>
      <trkpt lat="46.03883" lon="6.10469">
        <ele>815.2</ele>
        <time>2021-03-27T15:01:02Z</time>
      </trkpt>
      <trkpt lat="46.03883" lon="6.10469">
        <ele>815.2</ele>
        <time>2021-03-27T15:01:03Z</time>
      </trkpt>
      <trkpt lat="46.03884" lon="6.10469">
        <ele>815.2</ele>
        <time>2021-03-27T15:01:04Z</time>
      </trkpt>
      <trkpt lat="46.03883" lon="6.10469">
        <ele>815.2</ele>
        <time>2021-03-27T15:01:05Z</time>
      </trkpt>
      <trkpt lat="46.03883" lon="6.10469">
        <ele>815.2</ele>
        <time>2021-03-27T15:01:06Z</time>
      </trkpt>
      <trkpt lat="46.03883" lon="6.10469">
        <ele>815.2</ele>
        <time>2021-03-27T15:01:07Z</time>
      </trkpt>
      <trkpt lat="46.03883" lon="6.10469">
        <ele>815.2</ele>
        <time>2021-03-27T15:01:08Z</time>
      </trkpt>
      <trkpt lat="46.03883" lon="6.10469">
        <ele>815</ele>
        <time>2021-03-27T15:01:09Z</time>
      </trkpt>
      <trkpt lat="46.03883" lon="6.10469">
        <ele>815.2</ele>
        <time>2021-03-27T15:01:10Z</time>
      </trkpt>
      <trkpt lat="46.03883" lon="6.10469">
        <ele>815</ele>
        <time>2021-03-27T15:01:11Z</time>
      </trkpt>
      <trkpt lat="46.03883" lon="6.1047">
        <ele>815.2</ele>
        <time>2021-03-27T15:01:12Z</time>
      </trkpt>
      <trkpt lat="46.03882" lon="6.1047">
        <ele>815.2</ele>
        <time>2021-03-27T15:01:13Z</time>
      </trkpt>
      <trkpt lat="46.03882" lon="6.1047">
        <ele>815</ele>
        <time>2021-03-27T15:01:14Z</time>
      </trkpt>
      <trkpt lat="46.03882" lon="6.1047">
        <ele>815.2</ele>
        <time>2021-03-27T15:01:15Z</time>
      </trkpt>
      <trkpt lat="46.03882" lon="6.1047">
        <ele>815.2</ele>
        <time>2021-03-27T15:01:16Z</time>
      </trkpt>
      <trkpt lat="46.03882" lon="6.1047">
        <ele>815.2</ele>
        <time>2021-03-27T15:01:17Z</time>
      </trkpt>
      <trkpt lat="46.03882" lon="6.1047">
        <ele>815.2</ele>
        <time>2021-03-27T15:01:18Z</time>
      </trkpt>
      <trkpt lat="46.03882" lon="6.1047">
        <ele>815.2</ele>
        <time>2021-03-27T15:01:19Z</time>
      </trkpt>
      <trkpt lat="46.03882" lon="6.1047">
        <ele>815.2</ele>
        <time>2021-03-27T15:01:20Z</time>
      </trkpt>
      <trkpt lat="46.03882" lon="6.1047">
        <ele>815.2</ele>
        <time>2021-03-27T15:01:21Z</time>
      </trkpt>
      <trkpt lat="46.03882" lon="6.1047">
        <ele>815.2</ele>
        <time>2021-03-27T15:01:22Z</time>
      </trkpt>
      <trkpt lat="46.03883" lon="6.1047">
        <ele>815.2</ele>
        <time>2021-03-27T15:01:23Z</time>
      </trkpt>
      <trkpt lat="46.03883" lon="6.1047">
        <ele>815.2</ele>
        <time>2021-03-27T15:01:24Z</time>
      </trkpt>
      <trkpt lat="46.03882" lon="6.1047">
        <ele>815.2</ele>
        <time>2021-03-27T15:01:25Z</time>
      </trkpt>
      <trkpt lat="46.03882" lon="6.1047">
        <ele>815.4</ele>
        <time>2021-03-27T15:01:26Z</time>
      </trkpt>
      <trkpt lat="46.03882" lon="6.1047">
        <ele>815.4</ele>
        <time>2021-03-27T15:01:27Z</time>
      </trkpt>
      <trkpt lat="46.03882" lon="6.1047">
        <ele>815.4</ele>
        <time>2021-03-27T15:01:28Z</time>
      </trkpt>
      <trkpt lat="46.03882" lon="6.1047">
        <ele>815.4</ele>
        <time>2021-03-27T15:01:29Z</time>
      </trkpt>
      <trkpt lat="46.03882" lon="6.1047">
        <ele>815.4</ele>
        <time>2021-03-27T15:01:30Z</time>
      </trkpt>
      <trkpt lat="46.03882" lon="6.1047">
        <ele>815.4</ele>
        <time>2021-03-27T15:01:31Z</time>
      </trkpt>
      <trkpt lat="46.03882" lon="6.1047">
        <ele>815.6</ele>
        <time>2021-03-27T15:01:32Z</time>
      </trkpt>
      <trkpt lat="46.03882" lon="6.1047">
        <ele>815.6</ele>
        <time>2021-03-27T15:01:33Z</time>
      </trkpt>
      <trkpt lat="46.03882" lon="6.1047">
        <ele>815.6</ele>
        <time>2021-03-27T15:01:34Z</time>
      </trkpt>
      <trkpt lat="46.03882" lon="6.1047">
        <ele>815.6</ele>
        <time>2021-03-27T15:01:35Z</time>
      </trkpt>
      <trkpt lat="46.03882" lon="6.1047">
        <ele>815.6</ele>
        <time>2021-03-27T15:01:36Z</time>
      </trkpt>
      <trkpt lat="46.03882" lon="6.1047">
        <ele>815.6</ele>
        <time>2021-03-27T15:01:37Z</time>
      </trkpt>
      <trkpt lat="46.03882" lon="6.1047">
        <ele>815.6</ele>
        <time>2021-03-27T15:01:38Z</time>
      </trkpt>
      <trkpt lat="46.03882" lon="6.1047">
        <ele>815.6</ele>
        <time>2021-03-27T15:01:39Z</time>
      </trkpt>
      <trkpt lat="46.03882" lon="6.1047">
        <ele>815.6</ele>
        <time>2021-03-27T15:01:40Z</time>
      </trkpt>
      <trkpt lat="46.03882" lon="6.1047">
        <ele>815.6</ele>
        <time>2021-03-27T15:01:41Z</time>
      </trkpt>
      <trkpt lat="46.03882" lon="6.1047">
        <ele>815.6</ele>
        <time>2021-03-27T15:01:42Z</time>
      </trkpt>
      <trkpt lat="46.03882" lon="6.1047">
        <ele>815.6</ele>
        <time>2021-03-27T15:01:43Z</time>
      </trkpt>
      <trkpt lat="46.03882" lon="6.1047">
        <ele>815.4</ele>
        <time>2021-03-27T15:01:44Z</time>
      </trkpt>
      <trkpt lat="46.03882" lon="6.1047">
        <ele>815.6</ele>
        <time>2021-03-27T15:01:45Z</time>
      </trkpt>
      <trkpt lat="46.03882" lon="6.1047">
        <ele>815.6</ele>
        <time>2021-03-27T15:01:46Z</time>
      </trkpt>
      <trkpt lat="46.03882" lon="6.1047">
        <ele>815.6</ele>
        <time>2021-03-27T15:01:47Z</time>
      </trkpt>
      <trkpt lat="46.03882" lon="6.1047">
        <ele>815.6</ele>
        <time>2021-03-27T15:01:48Z</time>
      </trkpt>
      <trkpt lat="46.03882" lon="6.1047">
        <ele>815.4</ele>
        <time>2021-03-27T15:01:49Z</time>
      </trkpt>
      <trkpt lat="46.03882" lon="6.1047">
        <ele>815.6</ele>
        <time>2021-03-27T15:01:50Z</time>
      </trkpt>
      <trkpt lat="46.03882" lon="6.1047">
        <ele>815.6</ele>
        <time>2021-03-27T15:01:51Z</time>
      </trkpt>
      <trkpt lat="46.03882" lon="6.1047">
        <ele>815.4</ele>
        <time>2021-03-27T15:01:52Z</time>
      </trkpt>
      <trkpt lat="46.03882" lon="6.1047">
        <ele>815.4</ele>
        <time>2021-03-27T15:01:53Z</time>
      </trkpt>
      <trkpt lat="46.03882" lon="6.1047">
        <ele>815.4</ele>
        <time>2021-03-27T15:01:54Z</time>
      </trkpt>
      <trkpt lat="46.03882" lon="6.1047">
        <ele>815.6</ele>
        <time>2021-03-27T15:01:55Z</time>
      </trkpt>
      <trkpt lat="46.03882" lon="6.1047">
        <ele>815.4</ele>
        <time>2021-03-27T15:01:56Z</time>
      </trkpt>
      <trkpt lat="46.03882" lon="6.1047">
        <ele>815.4</ele>
        <time>2021-03-27T15:01:57Z</time>
      </trkpt>
      <trkpt lat="46.03882" lon="6.1047">
        <ele>815.4</ele>
        <time>2021-03-27T15:01:58Z</time>
      </trkpt>
      <trkpt lat="46.03882" lon="6.1047">
        <ele>815.4</ele>
        <time>2021-03-27T15:01:59Z</time>
      </trkpt>
      <trkpt lat="46.03882" lon="6.1047">
        <ele>815.4</ele>
        <time>2021-03-27T15:02:00Z</time>
      </trkpt>
      <trkpt lat="46.03882" lon="6.1047">
        <ele>815.4</ele>
        <time>2021-03-27T15:02:01Z</time>
      </trkpt>
      <trkpt lat="46.03882" lon="6.1047">
        <ele>815.6</ele>
        <time>2021-03-27T15:02:02Z</time>
      </trkpt>
      <trkpt lat="46.03882" lon="6.1047">
        <ele>815.4</ele>
        <time>2021-03-27T15:02:03Z</time>
      </trkpt>
      <trkpt lat="46.03882" lon="6.1047">
        <ele>815.4</ele>
        <time>2021-03-27T15:02:04Z</time>
      </trkpt>
      <trkpt lat="46.03882" lon="6.1047">
        <ele>815.4</ele>
        <time>2021-03-27T15:02:05Z</time>
      </trkpt>
      <trkpt lat="46.03882" lon="6.1047">
        <ele>815.4</ele>
        <time>2021-03-27T15:02:06Z</time>
      </trkpt>
      <trkpt lat="46.03882" lon="6.1047">
        <ele>815.4</ele>
        <time>2021-03-27T15:02:07Z</time>
      </trkpt>
      <trkpt lat="46.03882" lon="6.1047">
        <ele>815.4</ele>
        <time>2021-03-27T15:02:08Z</time>
      </trkpt>
      <trkpt lat="46.03882" lon="6.1047">
        <ele>815.2</ele>
        <time>2021-03-27T15:02:09Z</time>
      </trkpt>
      <trkpt lat="46.03882" lon="6.1047">
        <ele>815.2</ele>
        <time>2021-03-27T15:02:10Z</time>
      </trkpt>
      <trkpt lat="46.03882" lon="6.1047">
        <ele>815.2</ele>
        <time>2021-03-27T15:02:11Z</time>
      </trkpt>
      <trkpt lat="46.03882" lon="6.1047">
        <ele>815.2</ele>
        <time>2021-03-27T15:02:12Z</time>
      </trkpt>
      <trkpt lat="46.03882" lon="6.1047">
        <ele>815.2</ele>
        <time>2021-03-27T15:02:13Z</time>
      </trkpt>
      <trkpt lat="46.03882" lon="6.1047">
        <ele>815.2</ele>
        <time>2021-03-27T15:02:14Z</time>
      </trkpt>
      <trkpt lat="46.03882" lon="6.1047">
        <ele>815.2</ele>
        <time>2021-03-27T15:02:15Z</time>
      </trkpt>
      <trkpt lat="46.03882" lon="6.1047">
        <ele>815</ele>
        <time>2021-03-27T15:02:16Z</time>
      </trkpt>
      <trkpt lat="46.03882" lon="6.1047">
        <ele>815.2</ele>
        <time>2021-03-27T15:02:17Z</time>
      </trkpt>
      <trkpt lat="46.03882" lon="6.1047">
        <ele>815.2</ele>
        <time>2021-03-27T15:02:18Z</time>
      </trkpt>
      <trkpt lat="46.03882" lon="6.1047">
        <ele>815</ele>
        <time>2021-03-27T15:02:19Z</time>
      </trkpt>
      <trkpt lat="46.03882" lon="6.1047">
        <ele>815.2</ele>
        <time>2021-03-27T15:02:20Z</time>
      </trkpt>
      <trkpt lat="46.03882" lon="6.1047">
        <ele>815.2</ele>
        <time>2021-03-27T15:02:21Z</time>
      </trkpt>
      <trkpt lat="46.03882" lon="6.1047">
        <ele>815.2</ele>
        <time>2021-03-27T15:02:22Z</time>
      </trkpt>
      <trkpt lat="46.03882" lon="6.1047">
        <ele>815.2</ele>
        <time>2021-03-27T15:02:23Z</time>
      </trkpt>
      <trkpt lat="46.03882" lon="6.1047">
        <ele>815.2</ele>
        <time>2021-03-27T15:02:24Z</time>
      </trkpt>
      <trkpt lat="46.03882" lon="6.1047">
        <ele>815.2</ele>
        <time>2021-03-27T15:02:25Z</time>
      </trkpt>
      <trkpt lat="46.03882" lon="6.1047">
        <ele>815.2</ele>
        <time>2021-03-27T15:02:26Z</time>
      </trkpt>
      <trkpt lat="46.03882" lon="6.1047">
        <ele>815.2</ele>
        <time>2021-03-27T15:02:27Z</time>
      </trkpt>
      <trkpt lat="46.03882" lon="6.1047">
        <ele>815.4</ele>
        <time>2021-03-27T15:02:28Z</time>
      </trkpt>
      <trkpt lat="46.03882" lon="6.1047">
        <ele>815.2</ele>
        <time>2021-03-27T15:02:29Z</time>
      </trkpt>
      <trkpt lat="46.03882" lon="6.1047">
        <ele>815.2</ele>
        <time>2021-03-27T15:02:30Z</time>
      </trkpt>
      <trkpt lat="46.03882" lon="6.1047">
        <ele>815.2</ele>
        <time>2021-03-27T15:02:31Z</time>
      </trkpt>
      <trkpt lat="46.03882" lon="6.1047">
        <ele>815.2</ele>
        <time>2021-03-27T15:02:32Z</time>
      </trkpt>
      <trkpt lat="46.03882" lon="6.1047">
        <ele>815.2</ele>
        <time>2021-03-27T15:02:33Z</time>
      </trkpt>
      <trkpt lat="46.03882" lon="6.1047">
        <ele>815.4</ele>
        <time>2021-03-27T15:02:34Z</time>
      </trkpt>
      <trkpt lat="46.03882" lon="6.1047">
        <ele>815.4</ele>
        <time>2021-03-27T15:02:35Z</time>
      </trkpt>
      <trkpt lat="46.03882" lon="6.1047">
        <ele>815.2</ele>
        <time>2021-03-27T15:02:36Z</time>
      </trkpt>
      <trkpt lat="46.03882" lon="6.1047">
        <ele>815.4</ele>
        <time>2021-03-27T15:02:37Z</time>
      </trkpt>
      <trkpt lat="46.03882" lon="6.1047">
        <ele>815.4</ele>
        <time>2021-03-27T15:02:38Z</time>
      </trkpt>
      <trkpt lat="46.03882" lon="6.1047">
        <ele>815.4</ele>
        <time>2021-03-27T15:02:39Z</time>
      </trkpt>
      <trkpt lat="46.03882" lon="6.1047">
        <ele>815.4</ele>
        <time>2021-03-27T15:02:40Z</time>
      </trkpt>
      <trkpt lat="46.03882" lon="6.1047">
        <ele>815.4</ele>
        <time>2021-03-27T15:02:41Z</time>
      </trkpt>
      <trkpt lat="46.03882" lon="6.1047">
        <ele>815.4</ele>
        <time>2021-03-27T15:02:42Z</time>
      </trkpt>
      <trkpt lat="46.03882" lon="6.1047">
        <ele>815.2</ele>
        <time>2021-03-27T15:02:43Z</time>
      </trkpt>
      <trkpt lat="46.03882" lon="6.1047">
        <ele>815.4</ele>
        <time>2021-03-27T15:02:44Z</time>
      </trkpt>
      <trkpt lat="46.03882" lon="6.1047">
        <ele>815.4</ele>
        <time>2021-03-27T15:02:45Z</time>
      </trkpt>
      <trkpt lat="46.03882" lon="6.1047">
        <ele>815.2</ele>
        <time>2021-03-27T15:02:46Z</time>
      </trkpt>
      <trkpt lat="46.03882" lon="6.1047">
        <ele>815.2</ele>
        <time>2021-03-27T15:02:47Z</time>
      </trkpt>
      <trkpt lat="46.03882" lon="6.1047">
        <ele>815.4</ele>
        <time>2021-03-27T15:02:48Z</time>
      </trkpt>
      <trkpt lat="46.03882" lon="6.1047">
        <ele>815.2</ele>
        <time>2021-03-27T15:02:49Z</time>
      </trkpt>
      <trkpt lat="46.03882" lon="6.1047">
        <ele>815.4</ele>
        <time>2021-03-27T15:02:50Z</time>
      </trkpt>
      <trkpt lat="46.03882" lon="6.1047">
        <ele>815.4</ele>
        <time>2021-03-27T15:02:51Z</time>
      </trkpt>
      <trkpt lat="46.03882" lon="6.1047">
        <ele>815.2</ele>
        <time>2021-03-27T15:02:52Z</time>
      </trkpt>
      <trkpt lat="46.03882" lon="6.1047">
        <ele>815.2</ele>
        <time>2021-03-27T15:02:53Z</time>
      </trkpt>
      <trkpt lat="46.03882" lon="6.1047">
        <ele>815.4</ele>
        <time>2021-03-27T15:02:54Z</time>
      </trkpt>
      <trkpt lat="46.03882" lon="6.1047">
        <ele>815.2</ele>
        <time>2021-03-27T15:02:55Z</time>
      </trkpt>
      <trkpt lat="46.03882" lon="6.1047">
        <ele>815.2</ele>
        <time>2021-03-27T15:02:56Z</time>
      </trkpt>
      <trkpt lat="46.03882" lon="6.1047">
        <ele>815.2</ele>
        <time>2021-03-27T15:02:57Z</time>
      </trkpt>
      <trkpt lat="46.03882" lon="6.1047">
        <ele>815.2</ele>
        <time>2021-03-27T15:02:58Z</time>
      </trkpt>
      <trkpt lat="46.03882" lon="6.1047">
        <ele>815.2</ele>
        <time>2021-03-27T15:02:59Z</time>
      </trkpt>
      <trkpt lat="46.03882" lon="6.1047">
        <ele>815.2</ele>
        <time>2021-03-27T15:03:00Z</time>
      </trkpt>
      <trkpt lat="46.03882" lon="6.1047">
        <ele>815</ele>
        <time>2021-03-27T15:03:01Z</time>
      </trkpt>
      <trkpt lat="46.03882" lon="6.1047">
        <ele>815.2</ele>
        <time>2021-03-27T15:03:02Z</time>
      </trkpt>
      <trkpt lat="46.03882" lon="6.1047">
        <ele>815</ele>
        <time>2021-03-27T15:03:03Z</time>
      </trkpt>
      <trkpt lat="46.03882" lon="6.1047">
        <ele>815</ele>
        <time>2021-03-27T15:03:04Z</time>
      </trkpt>
      <trkpt lat="46.03882" lon="6.1047">
        <ele>815.2</ele>
        <time>2021-03-27T15:03:05Z</time>
      </trkpt>
      <trkpt lat="46.03882" lon="6.1047">
        <ele>815.2</ele>
        <time>2021-03-27T15:03:06Z</time>
      </trkpt>
      <trkpt lat="46.03882" lon="6.1047">
        <ele>815</ele>
        <time>2021-03-27T15:03:07Z</time>
      </trkpt>
      <trkpt lat="46.03882" lon="6.1047">
        <ele>815</ele>
        <time>2021-03-27T15:03:08Z</time>
      </trkpt>
      <trkpt lat="46.03882" lon="6.1047">
        <ele>815</ele>
        <time>2021-03-27T15:03:09Z</time>
      </trkpt>
      <trkpt lat="46.03882" lon="6.1047">
        <ele>815</ele>
        <time>2021-03-27T15:03:10Z</time>
      </trkpt>
      <trkpt lat="46.03882" lon="6.1047">
        <ele>815</ele>
        <time>2021-03-27T15:03:11Z</time>
      </trkpt>
      <trkpt lat="46.03882" lon="6.1047">
        <ele>815</ele>
        <time>2021-03-27T15:03:12Z</time>
      </trkpt>
      <trkpt lat="46.03882" lon="6.1047">
        <ele>815.2</ele>
        <time>2021-03-27T15:03:13Z</time>
      </trkpt>
      <trkpt lat="46.03882" lon="6.1047">
        <ele>815</ele>
        <time>2021-03-27T15:03:14Z</time>
      </trkpt>
      <trkpt lat="46.03882" lon="6.1047">
        <ele>815.2</ele>
        <time>2021-03-27T15:03:15Z</time>
      </trkpt>
      <trkpt lat="46.03882" lon="6.1047">
        <ele>815</ele>
        <time>2021-03-27T15:03:16Z</time>
      </trkpt>
      <trkpt lat="46.03882" lon="6.1047">
        <ele>815.2</ele>
        <time>2021-03-27T15:03:17Z</time>
      </trkpt>
      <trkpt lat="46.03882" lon="6.1047">
        <ele>815</ele>
        <time>2021-03-27T15:03:18Z</time>
      </trkpt>
      <trkpt lat="46.03882" lon="6.1047">
        <ele>815</ele>
        <time>2021-03-27T15:03:19Z</time>
      </trkpt>
      <trkpt lat="46.03882" lon="6.1047">
        <ele>815</ele>
        <time>2021-03-27T15:03:20Z</time>
      </trkpt>
      <trkpt lat="46.03882" lon="6.1047">
        <ele>815</ele>
        <time>2021-03-27T15:03:21Z</time>
      </trkpt>
      <trkpt lat="46.03882" lon="6.1047">
        <ele>815</ele>
        <time>2021-03-27T15:03:22Z</time>
      </trkpt>
      <trkpt lat="46.03882" lon="6.1047">
        <ele>815</ele>
        <time>2021-03-27T15:03:23Z</time>
      </trkpt>
      <trkpt lat="46.03882" lon="6.1047">
        <ele>815</ele>
        <time>2021-03-27T15:03:24Z</time>
      </trkpt>
      <trkpt lat="46.03882" lon="6.1047">
        <ele>815.2</ele>
        <time>2021-03-27T15:03:25Z</time>
      </trkpt>
      <trkpt lat="46.03882" lon="6.1047">
        <ele>815</ele>
        <time>2021-03-27T15:03:26Z</time>
      </trkpt>
      <trkpt lat="46.03882" lon="6.1047">
        <ele>815.2</ele>
        <time>2021-03-27T15:03:27Z</time>
      </trkpt>
      <trkpt lat="46.03882" lon="6.1047">
        <ele>815.2</ele>
        <time>2021-03-27T15:03:28Z</time>
      </trkpt>
      <trkpt lat="46.03882" lon="6.1047">
        <ele>815.2</ele>
        <time>2021-03-27T15:03:29Z</time>
      </trkpt>
      <trkpt lat="46.03882" lon="6.1047">
        <ele>815.2</ele>
        <time>2021-03-27T15:03:30Z</time>
      </trkpt>
      <trkpt lat="46.03882" lon="6.1047">
        <ele>815.2</ele>
        <time>2021-03-27T15:03:31Z</time>
      </trkpt>
      <trkpt lat="46.03882" lon="6.1047">
        <ele>815.2</ele>
        <time>2021-03-27T15:03:32Z</time>
      </trkpt>
      <trkpt lat="46.03882" lon="6.1047">
        <ele>815.2</ele>
        <time>2021-03-27T15:03:33Z</time>
      </trkpt>
      <trkpt lat="46.03882" lon="6.1047">
        <ele>815.2</ele>
        <time>2021-03-27T15:03:34Z</time>
      </trkpt>
      <trkpt lat="46.03881" lon="6.10471">
        <ele>815.2</ele>
        <time>2021-03-27T15:03:35Z</time>
      </trkpt>
      <trkpt lat="46.03881" lon="6.10471">
        <ele>815.2</ele>
        <time>2021-03-27T15:03:36Z</time>
      </trkpt>
      <trkpt lat="46.03881" lon="6.10471">
        <ele>815.4</ele>
        <time>2021-03-27T15:03:37Z</time>
      </trkpt>
      <trkpt lat="46.03881" lon="6.10471">
        <ele>815.4</ele>
        <time>2021-03-27T15:03:38Z</time>
      </trkpt>
      <trkpt lat="46.03881" lon="6.10471">
        <ele>815.4</ele>
        <time>2021-03-27T15:03:39Z</time>
      </trkpt>
      <trkpt lat="46.03881" lon="6.10471">
        <ele>815.2</ele>
        <time>2021-03-27T15:03:40Z</time>
      </trkpt>
      <trkpt lat="46.0388" lon="6.10471">
        <ele>815.4</ele>
        <time>2021-03-27T15:03:41Z</time>
      </trkpt>
      <trkpt lat="46.03881" lon="6.10471">
        <ele>815.2</ele>
        <time>2021-03-27T15:03:42Z</time>
      </trkpt>
      <trkpt lat="46.03881" lon="6.10471">
        <ele>815.4</ele>
        <time>2021-03-27T15:03:43Z</time>
      </trkpt>
      <trkpt lat="46.03881" lon="6.10471">
        <ele>815.4</ele>
        <time>2021-03-27T15:03:44Z</time>
      </trkpt>
      <trkpt lat="46.03881" lon="6.10471">
        <ele>815.2</ele>
        <time>2021-03-27T15:03:45Z</time>
      </trkpt>
      <trkpt lat="46.03881" lon="6.1047">
        <ele>815.4</ele>
        <time>2021-03-27T15:03:46Z</time>
      </trkpt>
      <trkpt lat="46.0388" lon="6.10468">
        <ele>815.2</ele>
        <time>2021-03-27T15:03:47Z</time>
      </trkpt>
      <trkpt lat="46.0388" lon="6.10466">
        <ele>815.4</ele>
        <time>2021-03-27T15:03:48Z</time>
      </trkpt>
      <trkpt lat="46.0388" lon="6.10464">
        <ele>815.4</ele>
        <time>2021-03-27T15:03:49Z</time>
      </trkpt>
      <trkpt lat="46.0388" lon="6.10461">
        <ele>815.4</ele>
        <time>2021-03-27T15:03:50Z</time>
      </trkpt>
      <trkpt lat="46.0388" lon="6.10459">
        <ele>815.4</ele>
        <time>2021-03-27T15:03:51Z</time>
      </trkpt>
      <trkpt lat="46.0388" lon="6.10457">
        <ele>815.4</ele>
        <time>2021-03-27T15:03:52Z</time>
      </trkpt>
      <trkpt lat="46.03881" lon="6.10454">
        <ele>815.4</ele>
        <time>2021-03-27T15:03:53Z</time>
      </trkpt>
      <trkpt lat="46.03881" lon="6.10451">
        <ele>815.4</ele>
        <time>2021-03-27T15:03:54Z</time>
      </trkpt>
      <trkpt lat="46.03881" lon="6.10446">
        <ele>815.2</ele>
        <time>2021-03-27T15:03:55Z</time>
      </trkpt>
      <trkpt lat="46.03882" lon="6.10442">
        <ele>815.4</ele>
        <time>2021-03-27T15:03:56Z</time>
      </trkpt>
      <trkpt lat="46.03882" lon="6.10437">
        <ele>815.4</ele>
        <time>2021-03-27T15:03:57Z</time>
      </trkpt>
      <trkpt lat="46.03883" lon="6.10433">
        <ele>815.4</ele>
        <time>2021-03-27T15:03:58Z</time>
      </trkpt>
      <trkpt lat="46.03884" lon="6.10429">
        <ele>815.4</ele>
        <time>2021-03-27T15:03:59Z</time>
      </trkpt>
      <trkpt lat="46.03886" lon="6.10425">
        <ele>815.6</ele>
        <time>2021-03-27T15:04:00Z</time>
      </trkpt>
      <trkpt lat="46.03888" lon="6.10422">
        <ele>815.4</ele>
        <time>2021-03-27T15:04:01Z</time>
      </trkpt>
      <trkpt lat="46.0389" lon="6.10419">
        <ele>815.4</ele>
        <time>2021-03-27T15:04:02Z</time>
      </trkpt>
      <trkpt lat="46.03892" lon="6.10417">
        <ele>815.6</ele>
        <time>2021-03-27T15:04:03Z</time>
      </trkpt>
      <trkpt lat="46.03894" lon="6.10415">
        <ele>815.6</ele>
        <time>2021-03-27T15:04:04Z</time>
      </trkpt>
      <trkpt lat="46.03897" lon="6.10413">
        <ele>815.8</ele>
        <time>2021-03-27T15:04:05Z</time>
      </trkpt>
      <trkpt lat="46.039" lon="6.10413">
        <ele>816.2</ele>
        <time>2021-03-27T15:04:06Z</time>
      </trkpt>
      <trkpt lat="46.03902" lon="6.10413">
        <ele>816.4</ele>
        <time>2021-03-27T15:04:07Z</time>
      </trkpt>
      <trkpt lat="46.03905" lon="6.10413">
        <ele>816.6</ele>
        <time>2021-03-27T15:04:08Z</time>
      </trkpt>
      <trkpt lat="46.03908" lon="6.10414">
        <ele>816.8</ele>
        <time>2021-03-27T15:04:09Z</time>
      </trkpt>
      <trkpt lat="46.03911" lon="6.10415">
        <ele>817.2</ele>
        <time>2021-03-27T15:04:10Z</time>
      </trkpt>
      <trkpt lat="46.03914" lon="6.10417">
        <ele>817.2</ele>
        <time>2021-03-27T15:04:11Z</time>
      </trkpt>
      <trkpt lat="46.03917" lon="6.10419">
        <ele>817.4</ele>
        <time>2021-03-27T15:04:12Z</time>
      </trkpt>
      <trkpt lat="46.03919" lon="6.10421">
        <ele>817.6</ele>
        <time>2021-03-27T15:04:13Z</time>
      </trkpt>
      <trkpt lat="46.03921" lon="6.10423">
        <ele>817.6</ele>
        <time>2021-03-27T15:04:14Z</time>
      </trkpt>
      <trkpt lat="46.03923" lon="6.10426">
        <ele>817.8</ele>
        <time>2021-03-27T15:04:15Z</time>
      </trkpt>
      <trkpt lat="46.03926" lon="6.10428">
        <ele>818</ele>
        <time>2021-03-27T15:04:16Z</time>
      </trkpt>
      <trkpt lat="46.03928" lon="6.10431">
        <ele>818</ele>
        <time>2021-03-27T15:04:17Z</time>
      </trkpt>
      <trkpt lat="46.03931" lon="6.10434">
        <ele>818.2</ele>
        <time>2021-03-27T15:04:18Z</time>
      </trkpt>
      <trkpt lat="46.03934" lon="6.10436">
        <ele>818.8</ele>
        <time>2021-03-27T15:04:19Z</time>
      </trkpt>
      <trkpt lat="46.03936" lon="6.10439">
        <ele>818.8</ele>
        <time>2021-03-27T15:04:20Z</time>
      </trkpt>
      <trkpt lat="46.03938" lon="6.10442">
        <ele>819</ele>
        <time>2021-03-27T15:04:21Z</time>
      </trkpt>
      <trkpt lat="46.03941" lon="6.10445">
        <ele>819.2</ele>
        <time>2021-03-27T15:04:22Z</time>
      </trkpt>
      <trkpt lat="46.03943" lon="6.10447">
        <ele>819.4</ele>
        <time>2021-03-27T15:04:23Z</time>
      </trkpt>
      <trkpt lat="46.03946" lon="6.1045">
        <ele>819.6</ele>
        <time>2021-03-27T15:04:24Z</time>
      </trkpt>
      <trkpt lat="46.03948" lon="6.10452">
        <ele>819.8</ele>
        <time>2021-03-27T15:04:25Z</time>
      </trkpt>
      <trkpt lat="46.0395" lon="6.10454">
        <ele>819.8</ele>
        <time>2021-03-27T15:04:26Z</time>
      </trkpt>
      <trkpt lat="46.03953" lon="6.10456">
        <ele>820</ele>
        <time>2021-03-27T15:04:27Z</time>
      </trkpt>
      <trkpt lat="46.03955" lon="6.10457">
        <ele>820.2</ele>
        <time>2021-03-27T15:04:28Z</time>
      </trkpt>
      <trkpt lat="46.03958" lon="6.10457">
        <ele>820.6</ele>
        <time>2021-03-27T15:04:29Z</time>
      </trkpt>
      <trkpt lat="46.03961" lon="6.10458">
        <ele>820.8</ele>
        <time>2021-03-27T15:04:30Z</time>
      </trkpt>
      <trkpt lat="46.03964" lon="6.10457">
        <ele>821</ele>
        <time>2021-03-27T15:04:31Z</time>
      </trkpt>
      <trkpt lat="46.03966" lon="6.10456">
        <ele>821.2</ele>
        <time>2021-03-27T15:04:32Z</time>
      </trkpt>
      <trkpt lat="46.03969" lon="6.10455">
        <ele>821.6</ele>
        <time>2021-03-27T15:04:33Z</time>
      </trkpt>
      <trkpt lat="46.03972" lon="6.10453">
        <ele>821.6</ele>
        <time>2021-03-27T15:04:34Z</time>
      </trkpt>
      <trkpt lat="46.03974" lon="6.10452">
        <ele>821.8</ele>
        <time>2021-03-27T15:04:35Z</time>
      </trkpt>
      <trkpt lat="46.03977" lon="6.1045">
        <ele>822</ele>
        <time>2021-03-27T15:04:36Z</time>
      </trkpt>
      <trkpt lat="46.0398" lon="6.10448">
        <ele>822.2</ele>
        <time>2021-03-27T15:04:37Z</time>
      </trkpt>
      <trkpt lat="46.03982" lon="6.10446">
        <ele>822.2</ele>
        <time>2021-03-27T15:04:38Z</time>
      </trkpt>
      <trkpt lat="46.03985" lon="6.10444">
        <ele>822.4</ele>
        <time>2021-03-27T15:04:39Z</time>
      </trkpt>
      <trkpt lat="46.03987" lon="6.10441">
        <ele>822.6</ele>
        <time>2021-03-27T15:04:40Z</time>
      </trkpt>
      <trkpt lat="46.0399" lon="6.10439">
        <ele>822.8</ele>
        <time>2021-03-27T15:04:41Z</time>
      </trkpt>
      <trkpt lat="46.03993" lon="6.10437">
        <ele>823.2</ele>
        <time>2021-03-27T15:04:42Z</time>
      </trkpt>
      <trkpt lat="46.03995" lon="6.10435">
        <ele>823.4</ele>
        <time>2021-03-27T15:04:43Z</time>
      </trkpt>
      <trkpt lat="46.03998" lon="6.10433">
        <ele>823.6</ele>
        <time>2021-03-27T15:04:44Z</time>
      </trkpt>
      <trkpt lat="46.04" lon="6.10431">
        <ele>823.6</ele>
        <time>2021-03-27T15:04:45Z</time>
      </trkpt>
      <trkpt lat="46.04003" lon="6.10429">
        <ele>824</ele>
        <time>2021-03-27T15:04:46Z</time>
      </trkpt>
      <trkpt lat="46.04006" lon="6.10426">
        <ele>824.2</ele>
        <time>2021-03-27T15:04:47Z</time>
      </trkpt>
      <trkpt lat="46.04008" lon="6.10424">
        <ele>824.4</ele>
        <time>2021-03-27T15:04:48Z</time>
      </trkpt>
      <trkpt lat="46.04011" lon="6.10422">
        <ele>824.4</ele>
        <time>2021-03-27T15:04:49Z</time>
      </trkpt>
      <trkpt lat="46.04013" lon="6.10421">
        <ele>824.6</ele>
        <time>2021-03-27T15:04:50Z</time>
      </trkpt>
      <trkpt lat="46.04016" lon="6.10419">
        <ele>825</ele>
        <time>2021-03-27T15:04:51Z</time>
      </trkpt>
      <trkpt lat="46.04018" lon="6.10416">
        <ele>825.2</ele>
        <time>2021-03-27T15:04:52Z</time>
      </trkpt>
      <trkpt lat="46.04021" lon="6.10414">
        <ele>825.4</ele>
        <time>2021-03-27T15:04:53Z</time>
      </trkpt>
      <trkpt lat="46.04024" lon="6.10412">
        <ele>825.6</ele>
        <time>2021-03-27T15:04:54Z</time>
      </trkpt>
      <trkpt lat="46.04026" lon="6.10411">
        <ele>825.6</ele>
        <time>2021-03-27T15:04:55Z</time>
      </trkpt>
      <trkpt lat="46.04029" lon="6.10409">
        <ele>826</ele>
        <time>2021-03-27T15:04:56Z</time>
      </trkpt>
      <trkpt lat="46.04032" lon="6.10407">
        <ele>826.2</ele>
        <time>2021-03-27T15:04:57Z</time>
      </trkpt>
      <trkpt lat="46.04035" lon="6.10405">
        <ele>826.6</ele>
        <time>2021-03-27T15:04:58Z</time>
      </trkpt>
      <trkpt lat="46.04038" lon="6.10403">
        <ele>827</ele>
        <time>2021-03-27T15:04:59Z</time>
      </trkpt>
      <trkpt lat="46.04041" lon="6.10402">
        <ele>827</ele>
        <time>2021-03-27T15:05:00Z</time>
      </trkpt>
      <trkpt lat="46.04044" lon="6.104">
        <ele>827</ele>
        <time>2021-03-27T15:05:01Z</time>
      </trkpt>
      <trkpt lat="46.04047" lon="6.10399">
        <ele>827.4</ele>
        <time>2021-03-27T15:05:02Z</time>
      </trkpt>
      <trkpt lat="46.0405" lon="6.10399">
        <ele>827.4</ele>
        <time>2021-03-27T15:05:03Z</time>
      </trkpt>
      <trkpt lat="46.04053" lon="6.10398">
        <ele>827.6</ele>
        <time>2021-03-27T15:05:04Z</time>
      </trkpt>
      <trkpt lat="46.04056" lon="6.10398">
        <ele>827.8</ele>
        <time>2021-03-27T15:05:05Z</time>
      </trkpt>
      <trkpt lat="46.04059" lon="6.10398">
        <ele>828.2</ele>
        <time>2021-03-27T15:05:06Z</time>
      </trkpt>
      <trkpt lat="46.04063" lon="6.10398">
        <ele>828.2</ele>
        <time>2021-03-27T15:05:07Z</time>
      </trkpt>
      <trkpt lat="46.04066" lon="6.10398">
        <ele>828.6</ele>
        <time>2021-03-27T15:05:08Z</time>
      </trkpt>
      <trkpt lat="46.04069" lon="6.10398">
        <ele>828.8</ele>
        <time>2021-03-27T15:05:09Z</time>
      </trkpt>
      <trkpt lat="46.04072" lon="6.10398">
        <ele>829</ele>
        <time>2021-03-27T15:05:10Z</time>
      </trkpt>
      <trkpt lat="46.04075" lon="6.10398">
        <ele>829.4</ele>
        <time>2021-03-27T15:05:11Z</time>
      </trkpt>
      <trkpt lat="46.04078" lon="6.10399">
        <ele>829.6</ele>
        <time>2021-03-27T15:05:12Z</time>
      </trkpt>
      <trkpt lat="46.04081" lon="6.10399">
        <ele>829.8</ele>
        <time>2021-03-27T15:05:13Z</time>
      </trkpt>
      <trkpt lat="46.04084" lon="6.104">
        <ele>830</ele>
        <time>2021-03-27T15:05:14Z</time>
      </trkpt>
      <trkpt lat="46.04087" lon="6.104">
        <ele>830</ele>
        <time>2021-03-27T15:05:15Z</time>
      </trkpt>
      <trkpt lat="46.0409" lon="6.104">
        <ele>830.2</ele>
        <time>2021-03-27T15:05:16Z</time>
      </trkpt>
      <trkpt lat="46.04093" lon="6.10401">
        <ele>830.4</ele>
        <time>2021-03-27T15:05:17Z</time>
      </trkpt>
      <trkpt lat="46.04096" lon="6.10401">
        <ele>830.4</ele>
        <time>2021-03-27T15:05:18Z</time>
      </trkpt>
      <trkpt lat="46.04099" lon="6.10401">
        <ele>830.6</ele>
        <time>2021-03-27T15:05:19Z</time>
      </trkpt>
      <trkpt lat="46.04102" lon="6.10402">
        <ele>831</ele>
        <time>2021-03-27T15:05:20Z</time>
      </trkpt>
      <trkpt lat="46.04105" lon="6.10402">
        <ele>831.2</ele>
        <time>2021-03-27T15:05:21Z</time>
      </trkpt>
      <trkpt lat="46.04108" lon="6.10402">
        <ele>831.2</ele>
        <time>2021-03-27T15:05:22Z</time>
      </trkpt>
      <trkpt lat="46.04111" lon="6.10402">
        <ele>831.6</ele>
        <time>2021-03-27T15:05:23Z</time>
      </trkpt>
      <trkpt lat="46.04114" lon="6.10403">
        <ele>831.8</ele>
        <time>2021-03-27T15:05:24Z</time>
      </trkpt>
      <trkpt lat="46.04118" lon="6.10403">
        <ele>831.8</ele>
        <time>2021-03-27T15:05:25Z</time>
      </trkpt>
      <trkpt lat="46.04121" lon="6.10404">
        <ele>832.2</ele>
        <time>2021-03-27T15:05:26Z</time>
      </trkpt>
      <trkpt lat="46.04124" lon="6.10404">
        <ele>832.4</ele>
        <time>2021-03-27T15:05:27Z</time>
      </trkpt>
      <trkpt lat="46.04127" lon="6.10405">
        <ele>832.6</ele>
        <time>2021-03-27T15:05:28Z</time>
      </trkpt>
      <trkpt lat="46.0413" lon="6.10405">
        <ele>832.6</ele>
        <time>2021-03-27T15:05:29Z</time>
      </trkpt>
      <trkpt lat="46.04134" lon="6.10406">
        <ele>832.8</ele>
        <time>2021-03-27T15:05:30Z</time>
      </trkpt>
      <trkpt lat="46.04137" lon="6.10406">
        <ele>832.8</ele>
        <time>2021-03-27T15:05:31Z</time>
      </trkpt>
      <trkpt lat="46.0414" lon="6.10406">
        <ele>833.2</ele>
        <time>2021-03-27T15:05:32Z</time>
      </trkpt>
      <trkpt lat="46.04143" lon="6.10406">
        <ele>833.6</ele>
        <time>2021-03-27T15:05:33Z</time>
      </trkpt>
      <trkpt lat="46.04146" lon="6.10407">
        <ele>833.6</ele>
        <time>2021-03-27T15:05:34Z</time>
      </trkpt>
      <trkpt lat="46.04149" lon="6.10407">
        <ele>833.8</ele>
        <time>2021-03-27T15:05:35Z</time>
      </trkpt>
      <trkpt lat="46.04152" lon="6.10408">
        <ele>834</ele>
        <time>2021-03-27T15:05:36Z</time>
      </trkpt>
      <trkpt lat="46.04155" lon="6.10408">
        <ele>834.4</ele>
        <time>2021-03-27T15:05:37Z</time>
      </trkpt>
      <trkpt lat="46.04158" lon="6.10408">
        <ele>834.4</ele>
        <time>2021-03-27T15:05:38Z</time>
      </trkpt>
      <trkpt lat="46.04161" lon="6.10409">
        <ele>834.6</ele>
        <time>2021-03-27T15:05:39Z</time>
      </trkpt>
      <trkpt lat="46.04164" lon="6.1041">
        <ele>834.6</ele>
        <time>2021-03-27T15:05:40Z</time>
      </trkpt>
      <trkpt lat="46.04167" lon="6.10411">
        <ele>835</ele>
        <time>2021-03-27T15:05:41Z</time>
      </trkpt>
      <trkpt lat="46.0417" lon="6.10411">
        <ele>835</ele>
        <time>2021-03-27T15:05:42Z</time>
      </trkpt>
      <trkpt lat="46.04173" lon="6.10412">
        <ele>835.2</ele>
        <time>2021-03-27T15:05:43Z</time>
      </trkpt>
      <trkpt lat="46.04176" lon="6.10413">
        <ele>835.4</ele>
        <time>2021-03-27T15:05:44Z</time>
      </trkpt>
      <trkpt lat="46.04179" lon="6.10414">
        <ele>835.8</ele>
        <time>2021-03-27T15:05:45Z</time>
      </trkpt>
      <trkpt lat="46.04182" lon="6.10415">
        <ele>835.8</ele>
        <time>2021-03-27T15:05:46Z</time>
      </trkpt>
      <trkpt lat="46.04185" lon="6.10416">
        <ele>836.2</ele>
        <time>2021-03-27T15:05:47Z</time>
      </trkpt>
      <trkpt lat="46.04188" lon="6.10417">
        <ele>836.4</ele>
        <time>2021-03-27T15:05:48Z</time>
      </trkpt>
      <trkpt lat="46.04191" lon="6.10418">
        <ele>836.6</ele>
        <time>2021-03-27T15:05:49Z</time>
      </trkpt>
      <trkpt lat="46.04193" lon="6.10419">
        <ele>836.8</ele>
        <time>2021-03-27T15:05:50Z</time>
      </trkpt>
      <trkpt lat="46.04196" lon="6.1042">
        <ele>836.8</ele>
        <time>2021-03-27T15:05:51Z</time>
      </trkpt>
      <trkpt lat="46.04199" lon="6.10421">
        <ele>837.2</ele>
        <time>2021-03-27T15:05:52Z</time>
      </trkpt>
      <trkpt lat="46.04202" lon="6.10422">
        <ele>837.4</ele>
        <time>2021-03-27T15:05:53Z</time>
      </trkpt>
      <trkpt lat="46.04205" lon="6.10424">
        <ele>837.6</ele>
        <time>2021-03-27T15:05:54Z</time>
      </trkpt>
      <trkpt lat="46.04208" lon="6.10425">
        <ele>837.8</ele>
        <time>2021-03-27T15:05:55Z</time>
      </trkpt>
      <trkpt lat="46.04211" lon="6.10426">
        <ele>837.8</ele>
        <time>2021-03-27T15:05:56Z</time>
      </trkpt>
      <trkpt lat="46.04214" lon="6.10427">
        <ele>838</ele>
        <time>2021-03-27T15:05:57Z</time>
      </trkpt>
      <trkpt lat="46.04217" lon="6.10428">
        <ele>838.2</ele>
        <time>2021-03-27T15:05:58Z</time>
      </trkpt>
      <trkpt lat="46.0422" lon="6.10429">
        <ele>838.2</ele>
        <time>2021-03-27T15:05:59Z</time>
      </trkpt>
      <trkpt lat="46.04223" lon="6.1043">
        <ele>838.4</ele>
        <time>2021-03-27T15:06:00Z</time>
      </trkpt>
      <trkpt lat="46.04225" lon="6.10431">
        <ele>838.4</ele>
        <time>2021-03-27T15:06:01Z</time>
      </trkpt>
      <trkpt lat="46.04228" lon="6.10431">
        <ele>838.8</ele>
        <time>2021-03-27T15:06:02Z</time>
      </trkpt>
      <trkpt lat="46.04231" lon="6.10432">
        <ele>838.8</ele>
        <time>2021-03-27T15:06:03Z</time>
      </trkpt>
      <trkpt lat="46.04234" lon="6.10433">
        <ele>839</ele>
        <time>2021-03-27T15:06:04Z</time>
      </trkpt>
      <trkpt lat="46.04237" lon="6.10433">
        <ele>839.4</ele>
        <time>2021-03-27T15:06:05Z</time>
      </trkpt>
      <trkpt lat="46.0424" lon="6.10432">
        <ele>839.4</ele>
        <time>2021-03-27T15:06:06Z</time>
      </trkpt>
      <trkpt lat="46.04243" lon="6.10431">
        <ele>839.6</ele>
        <time>2021-03-27T15:06:07Z</time>
      </trkpt>
      <trkpt lat="46.04246" lon="6.1043">
        <ele>839.8</ele>
        <time>2021-03-27T15:06:08Z</time>
      </trkpt>
      <trkpt lat="46.04249" lon="6.10429">
        <ele>840</ele>
        <time>2021-03-27T15:06:09Z</time>
      </trkpt>
      <trkpt lat="46.04252" lon="6.10428">
        <ele>840</ele>
        <time>2021-03-27T15:06:10Z</time>
      </trkpt>
      <trkpt lat="46.04254" lon="6.10426">
        <ele>840</ele>
        <time>2021-03-27T15:06:11Z</time>
      </trkpt>
      <trkpt lat="46.04257" lon="6.10424">
        <ele>840.4</ele>
        <time>2021-03-27T15:06:12Z</time>
      </trkpt>
      <trkpt lat="46.0426" lon="6.10423">
        <ele>840.4</ele>
        <time>2021-03-27T15:06:13Z</time>
      </trkpt>
      <trkpt lat="46.04263" lon="6.10422">
        <ele>840.8</ele>
        <time>2021-03-27T15:06:14Z</time>
      </trkpt>
      <trkpt lat="46.04266" lon="6.10421">
        <ele>841</ele>
        <time>2021-03-27T15:06:15Z</time>
      </trkpt>
      <trkpt lat="46.04269" lon="6.10419">
        <ele>841.2</ele>
        <time>2021-03-27T15:06:16Z</time>
      </trkpt>
      <trkpt lat="46.04272" lon="6.10418">
        <ele>841.4</ele>
        <time>2021-03-27T15:06:17Z</time>
      </trkpt>
      <trkpt lat="46.04275" lon="6.10418">
        <ele>841.6</ele>
        <time>2021-03-27T15:06:18Z</time>
      </trkpt>
      <trkpt lat="46.04278" lon="6.10417">
        <ele>841.6</ele>
        <time>2021-03-27T15:06:19Z</time>
      </trkpt>
      <trkpt lat="46.04281" lon="6.10417">
        <ele>841.8</ele>
        <time>2021-03-27T15:06:20Z</time>
      </trkpt>
      <trkpt lat="46.04283" lon="6.10417">
        <ele>841.8</ele>
        <time>2021-03-27T15:06:21Z</time>
      </trkpt>
      <trkpt lat="46.04286" lon="6.10417">
        <ele>841.8</ele>
        <time>2021-03-27T15:06:22Z</time>
      </trkpt>
      <trkpt lat="46.0429" lon="6.10418">
        <ele>842</ele>
        <time>2021-03-27T15:06:23Z</time>
      </trkpt>
      <trkpt lat="46.04293" lon="6.10419">
        <ele>842</ele>
        <time>2021-03-27T15:06:24Z</time>
      </trkpt>
      <trkpt lat="46.04296" lon="6.10421">
        <ele>842.6</ele>
        <time>2021-03-27T15:06:25Z</time>
      </trkpt>
      <trkpt lat="46.04299" lon="6.10424">
        <ele>842.8</ele>
        <time>2021-03-27T15:06:26Z</time>
      </trkpt>
      <trkpt lat="46.04301" lon="6.10427">
        <ele>842.8</ele>
        <time>2021-03-27T15:06:27Z</time>
      </trkpt>
      <trkpt lat="46.04303" lon="6.10431">
        <ele>843.2</ele>
        <time>2021-03-27T15:06:28Z</time>
      </trkpt>
      <trkpt lat="46.04304" lon="6.10434">
        <ele>843.6</ele>
        <time>2021-03-27T15:06:29Z</time>
      </trkpt>
      <trkpt lat="46.04306" lon="6.10438">
        <ele>843.6</ele>
        <time>2021-03-27T15:06:30Z</time>
      </trkpt>
      <trkpt lat="46.04306" lon="6.10442">
        <ele>843.8</ele>
        <time>2021-03-27T15:06:31Z</time>
      </trkpt>
      <trkpt lat="46.04306" lon="6.10447">
        <ele>843.8</ele>
        <time>2021-03-27T15:06:32Z</time>
      </trkpt>
      <trkpt lat="46.04306" lon="6.10451">
        <ele>844</ele>
        <time>2021-03-27T15:06:33Z</time>
      </trkpt>
      <trkpt lat="46.04305" lon="6.10455">
        <ele>844.4</ele>
        <time>2021-03-27T15:06:34Z</time>
      </trkpt>
      <trkpt lat="46.04304" lon="6.10459">
        <ele>844.6</ele>
        <time>2021-03-27T15:06:35Z</time>
      </trkpt>
      <trkpt lat="46.04303" lon="6.10463">
        <ele>844.6</ele>
        <time>2021-03-27T15:06:36Z</time>
      </trkpt>
      <trkpt lat="46.04301" lon="6.10466">
        <ele>844.8</ele>
        <time>2021-03-27T15:06:37Z</time>
      </trkpt>
      <trkpt lat="46.04298" lon="6.10469">
        <ele>845</ele>
        <time>2021-03-27T15:06:38Z</time>
      </trkpt>
      <trkpt lat="46.04296" lon="6.10471">
        <ele>845.4</ele>
        <time>2021-03-27T15:06:39Z</time>
      </trkpt>
      <trkpt lat="46.04293" lon="6.10473">
        <ele>845.6</ele>
        <time>2021-03-27T15:06:40Z</time>
      </trkpt>
      <trkpt lat="46.0429" lon="6.10474">
        <ele>845.6</ele>
        <time>2021-03-27T15:06:41Z</time>
      </trkpt>
      <trkpt lat="46.04287" lon="6.10475">
        <ele>846</ele>
        <time>2021-03-27T15:06:42Z</time>
      </trkpt>
      <trkpt lat="46.04284" lon="6.10476">
        <ele>846.2</ele>
        <time>2021-03-27T15:06:43Z</time>
      </trkpt>
      <trkpt lat="46.04281" lon="6.10476">
        <ele>846.2</ele>
        <time>2021-03-27T15:06:44Z</time>
      </trkpt>
      <trkpt lat="46.04278" lon="6.10476">
        <ele>846.6</ele>
        <time>2021-03-27T15:06:45Z</time>
      </trkpt>
      <trkpt lat="46.04275" lon="6.10476">
        <ele>846.6</ele>
        <time>2021-03-27T15:06:46Z</time>
      </trkpt>
      <trkpt lat="46.04271" lon="6.10476">
        <ele>846.6</ele>
        <time>2021-03-27T15:06:47Z</time>
      </trkpt>
      <trkpt lat="46.04268" lon="6.10476">
        <ele>846.8</ele>
        <time>2021-03-27T15:06:48Z</time>
      </trkpt>
      <trkpt lat="46.04265" lon="6.10476">
        <ele>847.2</ele>
        <time>2021-03-27T15:06:49Z</time>
      </trkpt>
      <trkpt lat="46.04262" lon="6.10476">
        <ele>847.6</ele>
        <time>2021-03-27T15:06:50Z</time>
      </trkpt>
      <trkpt lat="46.04259" lon="6.10476">
        <ele>847.8</ele>
        <time>2021-03-27T15:06:51Z</time>
      </trkpt>
      <trkpt lat="46.04256" lon="6.10476">
        <ele>848</ele>
        <time>2021-03-27T15:06:52Z</time>
      </trkpt>
      <trkpt lat="46.04253" lon="6.10476">
        <ele>848</ele>
        <time>2021-03-27T15:06:53Z</time>
      </trkpt>
      <trkpt lat="46.04251" lon="6.10476">
        <ele>848.4</ele>
        <time>2021-03-27T15:06:54Z</time>
      </trkpt>
      <trkpt lat="46.04248" lon="6.10476">
        <ele>848.4</ele>
        <time>2021-03-27T15:06:55Z</time>
      </trkpt>
      <trkpt lat="46.04244" lon="6.10476">
        <ele>848.6</ele>
        <time>2021-03-27T15:06:56Z</time>
      </trkpt>
      <trkpt lat="46.04242" lon="6.10476">
        <ele>848.6</ele>
        <time>2021-03-27T15:06:57Z</time>
      </trkpt>
      <trkpt lat="46.04239" lon="6.10477">
        <ele>848.8</ele>
        <time>2021-03-27T15:06:58Z</time>
      </trkpt>
      <trkpt lat="46.04236" lon="6.10478">
        <ele>848.8</ele>
        <time>2021-03-27T15:06:59Z</time>
      </trkpt>
      <trkpt lat="46.04233" lon="6.10478">
        <ele>849.2</ele>
        <time>2021-03-27T15:07:00Z</time>
      </trkpt>
      <trkpt lat="46.04231" lon="6.10478">
        <ele>849.2</ele>
        <time>2021-03-27T15:07:01Z</time>
      </trkpt>
      <trkpt lat="46.04228" lon="6.1048">
        <ele>849.4</ele>
        <time>2021-03-27T15:07:02Z</time>
      </trkpt>
      <trkpt lat="46.04225" lon="6.10481">
        <ele>849.4</ele>
        <time>2021-03-27T15:07:03Z</time>
      </trkpt>
      <trkpt lat="46.04223" lon="6.10482">
        <ele>849.4</ele>
        <time>2021-03-27T15:07:04Z</time>
      </trkpt>
      <trkpt lat="46.0422" lon="6.10484">
        <ele>849.4</ele>
        <time>2021-03-27T15:07:05Z</time>
      </trkpt>
      <trkpt lat="46.04217" lon="6.10486">
        <ele>849.8</ele>
        <time>2021-03-27T15:07:06Z</time>
      </trkpt>
      <trkpt lat="46.04215" lon="6.10488">
        <ele>849.8</ele>
        <time>2021-03-27T15:07:07Z</time>
      </trkpt>
      <trkpt lat="46.04212" lon="6.1049">
        <ele>850</ele>
        <time>2021-03-27T15:07:08Z</time>
      </trkpt>
      <trkpt lat="46.0421" lon="6.10492">
        <ele>850.2</ele>
        <time>2021-03-27T15:07:09Z</time>
      </trkpt>
      <trkpt lat="46.04207" lon="6.10495">
        <ele>850.4</ele>
        <time>2021-03-27T15:07:10Z</time>
      </trkpt>
      <trkpt lat="46.04205" lon="6.10497">
        <ele>850.6</ele>
        <time>2021-03-27T15:07:11Z</time>
      </trkpt>
      <trkpt lat="46.04202" lon="6.105">
        <ele>850.8</ele>
        <time>2021-03-27T15:07:12Z</time>
      </trkpt>
      <trkpt lat="46.042" lon="6.10502">
        <ele>850.8</ele>
        <time>2021-03-27T15:07:13Z</time>
      </trkpt>
      <trkpt lat="46.04198" lon="6.10505">
        <ele>851.2</ele>
        <time>2021-03-27T15:07:14Z</time>
      </trkpt>
      <trkpt lat="46.04196" lon="6.10508">
        <ele>851.4</ele>
        <time>2021-03-27T15:07:15Z</time>
      </trkpt>
      <trkpt lat="46.04194" lon="6.10511">
        <ele>851.6</ele>
        <time>2021-03-27T15:07:16Z</time>
      </trkpt>
      <trkpt lat="46.04192" lon="6.10514">
        <ele>851.6</ele>
        <time>2021-03-27T15:07:17Z</time>
      </trkpt>
      <trkpt lat="46.0419" lon="6.10516">
        <ele>851.8</ele>
        <time>2021-03-27T15:07:18Z</time>
      </trkpt>
      <trkpt lat="46.04188" lon="6.10519">
        <ele>852.2</ele>
        <time>2021-03-27T15:07:19Z</time>
      </trkpt>
      <trkpt lat="46.04185" lon="6.10522">
        <ele>852.2</ele>
        <time>2021-03-27T15:07:20Z</time>
      </trkpt>
      <trkpt lat="46.04183" lon="6.10524">
        <ele>852.4</ele>
        <time>2021-03-27T15:07:21Z</time>
      </trkpt>
      <trkpt lat="46.04181" lon="6.10527">
        <ele>852.6</ele>
        <time>2021-03-27T15:07:22Z</time>
      </trkpt>
      <trkpt lat="46.04178" lon="6.10529">
        <ele>852.6</ele>
        <time>2021-03-27T15:07:23Z</time>
      </trkpt>
      <trkpt lat="46.04175" lon="6.10532">
        <ele>852.8</ele>
        <time>2021-03-27T15:07:24Z</time>
      </trkpt>
      <trkpt lat="46.04173" lon="6.10534">
        <ele>853</ele>
        <time>2021-03-27T15:07:25Z</time>
      </trkpt>
      <trkpt lat="46.0417" lon="6.10536">
        <ele>853.2</ele>
        <time>2021-03-27T15:07:26Z</time>
      </trkpt>
      <trkpt lat="46.04167" lon="6.10537">
        <ele>853.4</ele>
        <time>2021-03-27T15:07:27Z</time>
      </trkpt>
      <trkpt lat="46.04164" lon="6.10539">
        <ele>853.4</ele>
        <time>2021-03-27T15:07:28Z</time>
      </trkpt>
      <trkpt lat="46.04162" lon="6.1054">
        <ele>853.4</ele>
        <time>2021-03-27T15:07:29Z</time>
      </trkpt>
      <trkpt lat="46.04159" lon="6.10542">
        <ele>853.8</ele>
        <time>2021-03-27T15:07:30Z</time>
      </trkpt>
      <trkpt lat="46.04157" lon="6.10543">
        <ele>854</ele>
        <time>2021-03-27T15:07:31Z</time>
      </trkpt>
      <trkpt lat="46.04154" lon="6.10544">
        <ele>854.2</ele>
        <time>2021-03-27T15:07:32Z</time>
      </trkpt>
      <trkpt lat="46.04152" lon="6.10545">
        <ele>854.4</ele>
        <time>2021-03-27T15:07:33Z</time>
      </trkpt>
      <trkpt lat="46.0415" lon="6.10547">
        <ele>854.6</ele>
        <time>2021-03-27T15:07:34Z</time>
      </trkpt>
      <trkpt lat="46.04148" lon="6.10549">
        <ele>854.8</ele>
        <time>2021-03-27T15:07:35Z</time>
      </trkpt>
      <trkpt lat="46.04146" lon="6.1055">
        <ele>855</ele>
        <time>2021-03-27T15:07:36Z</time>
      </trkpt>
      <trkpt lat="46.04143" lon="6.10553">
        <ele>855.4</ele>
        <time>2021-03-27T15:07:37Z</time>
      </trkpt>
      <trkpt lat="46.04141" lon="6.10555">
        <ele>855.6</ele>
        <time>2021-03-27T15:07:38Z</time>
      </trkpt>
      <trkpt lat="46.0414" lon="6.10558">
        <ele>855.8</ele>
        <time>2021-03-27T15:07:39Z</time>
      </trkpt>
      <trkpt lat="46.04138" lon="6.10561">
        <ele>856</ele>
        <time>2021-03-27T15:07:40Z</time>
      </trkpt>
      <trkpt lat="46.04137" lon="6.10564">
        <ele>856.2</ele>
        <time>2021-03-27T15:07:41Z</time>
      </trkpt>
      <trkpt lat="46.04136" lon="6.10568">
        <ele>856.4</ele>
        <time>2021-03-27T15:07:42Z</time>
      </trkpt>
      <trkpt lat="46.04135" lon="6.10572">
        <ele>856.6</ele>
        <time>2021-03-27T15:07:43Z</time>
      </trkpt>
      <trkpt lat="46.04134" lon="6.10576">
        <ele>856.8</ele>
        <time>2021-03-27T15:07:44Z</time>
      </trkpt>
      <trkpt lat="46.04133" lon="6.1058">
        <ele>856.8</ele>
        <time>2021-03-27T15:07:45Z</time>
      </trkpt>
      <trkpt lat="46.04133" lon="6.10584">
        <ele>857</ele>
        <time>2021-03-27T15:07:46Z</time>
      </trkpt>
      <trkpt lat="46.04133" lon="6.10588">
        <ele>857.2</ele>
        <time>2021-03-27T15:07:47Z</time>
      </trkpt>
      <trkpt lat="46.04133" lon="6.10592">
        <ele>857.4</ele>
        <time>2021-03-27T15:07:48Z</time>
      </trkpt>
      <trkpt lat="46.04134" lon="6.10596">
        <ele>857.6</ele>
        <time>2021-03-27T15:07:49Z</time>
      </trkpt>
      <trkpt lat="46.04135" lon="6.106">
        <ele>857.8</ele>
        <time>2021-03-27T15:07:50Z</time>
      </trkpt>
      <trkpt lat="46.04136" lon="6.10604">
        <ele>858</ele>
        <time>2021-03-27T15:07:51Z</time>
      </trkpt>
      <trkpt lat="46.04137" lon="6.10608">
        <ele>858.2</ele>
        <time>2021-03-27T15:07:52Z</time>
      </trkpt>
      <trkpt lat="46.04138" lon="6.10612">
        <ele>858.2</ele>
        <time>2021-03-27T15:07:53Z</time>
      </trkpt>
      <trkpt lat="46.0414" lon="6.10616">
        <ele>858.4</ele>
        <time>2021-03-27T15:07:54Z</time>
      </trkpt>
      <trkpt lat="46.04141" lon="6.1062">
        <ele>858.6</ele>
        <time>2021-03-27T15:07:55Z</time>
      </trkpt>
      <trkpt lat="46.04143" lon="6.10623">
        <ele>858.8</ele>
        <time>2021-03-27T15:07:56Z</time>
      </trkpt>
      <trkpt lat="46.04145" lon="6.10627">
        <ele>859.2</ele>
        <time>2021-03-27T15:07:57Z</time>
      </trkpt>
      <trkpt lat="46.04147" lon="6.1063">
        <ele>859.4</ele>
        <time>2021-03-27T15:07:58Z</time>
      </trkpt>
      <trkpt lat="46.04148" lon="6.10633">
        <ele>859.6</ele>
        <time>2021-03-27T15:07:59Z</time>
      </trkpt>
      <trkpt lat="46.0415" lon="6.10637">
        <ele>860</ele>
        <time>2021-03-27T15:08:00Z</time>
      </trkpt>
      <trkpt lat="46.04152" lon="6.1064">
        <ele>860.2</ele>
        <time>2021-03-27T15:08:01Z</time>
      </trkpt>
      <trkpt lat="46.04154" lon="6.10643">
        <ele>860.4</ele>
        <time>2021-03-27T15:08:02Z</time>
      </trkpt>
      <trkpt lat="46.04155" lon="6.10646">
        <ele>860.6</ele>
        <time>2021-03-27T15:08:03Z</time>
      </trkpt>
      <trkpt lat="46.04157" lon="6.10649">
        <ele>860.8</ele>
        <time>2021-03-27T15:08:04Z</time>
      </trkpt>
      <trkpt lat="46.04159" lon="6.10653">
        <ele>860.8</ele>
        <time>2021-03-27T15:08:05Z</time>
      </trkpt>
      <trkpt lat="46.04161" lon="6.10656">
        <ele>861.2</ele>
        <time>2021-03-27T15:08:06Z</time>
      </trkpt>
      <trkpt lat="46.04162" lon="6.1066">
        <ele>861.6</ele>
        <time>2021-03-27T15:08:07Z</time>
      </trkpt>
      <trkpt lat="46.04164" lon="6.10663">
        <ele>861.6</ele>
        <time>2021-03-27T15:08:08Z</time>
      </trkpt>
      <trkpt lat="46.04166" lon="6.10666">
        <ele>861.8</ele>
        <time>2021-03-27T15:08:09Z</time>
      </trkpt>
      <trkpt lat="46.04168" lon="6.10669">
        <ele>862</ele>
        <time>2021-03-27T15:08:10Z</time>
      </trkpt>
      <trkpt lat="46.0417" lon="6.10672">
        <ele>862.2</ele>
        <time>2021-03-27T15:08:11Z</time>
      </trkpt>
      <trkpt lat="46.04172" lon="6.10675">
        <ele>862.6</ele>
        <time>2021-03-27T15:08:12Z</time>
      </trkpt>
      <trkpt lat="46.04173" lon="6.10678">
        <ele>862.8</ele>
        <time>2021-03-27T15:08:13Z</time>
      </trkpt>
      <trkpt lat="46.04175" lon="6.10681">
        <ele>863</ele>
        <time>2021-03-27T15:08:14Z</time>
      </trkpt>
      <trkpt lat="46.04177" lon="6.10684">
        <ele>863.2</ele>
        <time>2021-03-27T15:08:15Z</time>
      </trkpt>
      <trkpt lat="46.04178" lon="6.10687">
        <ele>863.4</ele>
        <time>2021-03-27T15:08:16Z</time>
      </trkpt>
      <trkpt lat="46.0418" lon="6.10691">
        <ele>863.6</ele>
        <time>2021-03-27T15:08:17Z</time>
      </trkpt>
      <trkpt lat="46.04181" lon="6.10694">
        <ele>863.6</ele>
        <time>2021-03-27T15:08:18Z</time>
      </trkpt>
      <trkpt lat="46.04183" lon="6.10697">
        <ele>863.8</ele>
        <time>2021-03-27T15:08:19Z</time>
      </trkpt>
      <trkpt lat="46.04184" lon="6.107">
        <ele>864</ele>
        <time>2021-03-27T15:08:20Z</time>
      </trkpt>
      <trkpt lat="46.04185" lon="6.10703">
        <ele>864</ele>
        <time>2021-03-27T15:08:21Z</time>
      </trkpt>
      <trkpt lat="46.04186" lon="6.10707">
        <ele>864.4</ele>
        <time>2021-03-27T15:08:22Z</time>
      </trkpt>
      <trkpt lat="46.04187" lon="6.10711">
        <ele>864.4</ele>
        <time>2021-03-27T15:08:23Z</time>
      </trkpt>
      <trkpt lat="46.04187" lon="6.10714">
        <ele>864.6</ele>
        <time>2021-03-27T15:08:24Z</time>
      </trkpt>
      <trkpt lat="46.04187" lon="6.10718">
        <ele>864.6</ele>
        <time>2021-03-27T15:08:25Z</time>
      </trkpt>
      <trkpt lat="46.04188" lon="6.10722">
        <ele>864.8</ele>
        <time>2021-03-27T15:08:26Z</time>
      </trkpt>
      <trkpt lat="46.04188" lon="6.10726">
        <ele>865</ele>
        <time>2021-03-27T15:08:27Z</time>
      </trkpt>
      <trkpt lat="46.04188" lon="6.10729">
        <ele>865.2</ele>
        <time>2021-03-27T15:08:28Z</time>
      </trkpt>
      <trkpt lat="46.04188" lon="6.10733">
        <ele>865.4</ele>
        <time>2021-03-27T15:08:29Z</time>
      </trkpt>
      <trkpt lat="46.04189" lon="6.10737">
        <ele>865.6</ele>
        <time>2021-03-27T15:08:30Z</time>
      </trkpt>
      <trkpt lat="46.04189" lon="6.10741">
        <ele>865.8</ele>
        <time>2021-03-27T15:08:31Z</time>
      </trkpt>
      <trkpt lat="46.04189" lon="6.10744">
        <ele>866</ele>
        <time>2021-03-27T15:08:32Z</time>
      </trkpt>
      <trkpt lat="46.04189" lon="6.10748">
        <ele>866</ele>
        <time>2021-03-27T15:08:33Z</time>
      </trkpt>
      <trkpt lat="46.04189" lon="6.10752">
        <ele>866.2</ele>
        <time>2021-03-27T15:08:34Z</time>
      </trkpt>
      <trkpt lat="46.04189" lon="6.10756">
        <ele>866.2</ele>
        <time>2021-03-27T15:08:35Z</time>
      </trkpt>
      <trkpt lat="46.04189" lon="6.1076">
        <ele>866.4</ele>
        <time>2021-03-27T15:08:36Z</time>
      </trkpt>
      <trkpt lat="46.0419" lon="6.10764">
        <ele>866.6</ele>
        <time>2021-03-27T15:08:37Z</time>
      </trkpt>
      <trkpt lat="46.0419" lon="6.10768">
        <ele>867</ele>
        <time>2021-03-27T15:08:38Z</time>
      </trkpt>
      <trkpt lat="46.04191" lon="6.10772">
        <ele>867</ele>
        <time>2021-03-27T15:08:39Z</time>
      </trkpt>
      <trkpt lat="46.04191" lon="6.10776">
        <ele>867.2</ele>
        <time>2021-03-27T15:08:40Z</time>
      </trkpt>
      <trkpt lat="46.04192" lon="6.1078">
        <ele>867.4</ele>
        <time>2021-03-27T15:08:41Z</time>
      </trkpt>
      <trkpt lat="46.04193" lon="6.10783">
        <ele>867.6</ele>
        <time>2021-03-27T15:08:42Z</time>
      </trkpt>
      <trkpt lat="46.04195" lon="6.10787">
        <ele>867.6</ele>
        <time>2021-03-27T15:08:43Z</time>
      </trkpt>
      <trkpt lat="46.04196" lon="6.1079">
        <ele>868</ele>
        <time>2021-03-27T15:08:44Z</time>
      </trkpt>
      <trkpt lat="46.04197" lon="6.10794">
        <ele>868.4</ele>
        <time>2021-03-27T15:08:45Z</time>
      </trkpt>
      <trkpt lat="46.04199" lon="6.10797">
        <ele>868.6</ele>
        <time>2021-03-27T15:08:46Z</time>
      </trkpt>
      <trkpt lat="46.04201" lon="6.108">
        <ele>868.8</ele>
        <time>2021-03-27T15:08:47Z</time>
      </trkpt>
      <trkpt lat="46.04204" lon="6.10802">
        <ele>869</ele>
        <time>2021-03-27T15:08:48Z</time>
      </trkpt>
      <trkpt lat="46.04206" lon="6.10803">
        <ele>869.4</ele>
        <time>2021-03-27T15:08:49Z</time>
      </trkpt>
      <trkpt lat="46.04209" lon="6.10804">
        <ele>869.4</ele>
        <time>2021-03-27T15:08:50Z</time>
      </trkpt>
      <trkpt lat="46.04212" lon="6.10805">
        <ele>869.6</ele>
        <time>2021-03-27T15:08:51Z</time>
      </trkpt>
      <trkpt lat="46.04215" lon="6.10805">
        <ele>869.6</ele>
        <time>2021-03-27T15:08:52Z</time>
      </trkpt>
      <trkpt lat="46.04218" lon="6.10805">
        <ele>870</ele>
        <time>2021-03-27T15:08:53Z</time>
      </trkpt>
      <trkpt lat="46.04221" lon="6.10804">
        <ele>870.4</ele>
        <time>2021-03-27T15:08:54Z</time>
      </trkpt>
      <trkpt lat="46.04224" lon="6.10803">
        <ele>870.4</ele>
        <time>2021-03-27T15:08:55Z</time>
      </trkpt>
      <trkpt lat="46.04226" lon="6.10801">
        <ele>870.8</ele>
        <time>2021-03-27T15:08:56Z</time>
      </trkpt>
      <trkpt lat="46.04229" lon="6.10799">
        <ele>870.8</ele>
        <time>2021-03-27T15:08:57Z</time>
      </trkpt>
      <trkpt lat="46.04231" lon="6.10797">
        <ele>871.2</ele>
        <time>2021-03-27T15:08:58Z</time>
      </trkpt>
      <trkpt lat="46.04234" lon="6.10794">
        <ele>871.2</ele>
        <time>2021-03-27T15:08:59Z</time>
      </trkpt>
      <trkpt lat="46.04236" lon="6.10792">
        <ele>871.4</ele>
        <time>2021-03-27T15:09:00Z</time>
      </trkpt>
      <trkpt lat="46.04238" lon="6.10789">
        <ele>871.6</ele>
        <time>2021-03-27T15:09:01Z</time>
      </trkpt>
      <trkpt lat="46.0424" lon="6.10786">
        <ele>872</ele>
        <time>2021-03-27T15:09:02Z</time>
      </trkpt>
      <trkpt lat="46.04243" lon="6.10783">
        <ele>872.2</ele>
        <time>2021-03-27T15:09:03Z</time>
      </trkpt>
      <trkpt lat="46.04246" lon="6.1078">
        <ele>872.2</ele>
        <time>2021-03-27T15:09:04Z</time>
      </trkpt>
      <trkpt lat="46.04248" lon="6.10777">
        <ele>872.2</ele>
        <time>2021-03-27T15:09:05Z</time>
      </trkpt>
      <trkpt lat="46.0425" lon="6.10774">
        <ele>872.2</ele>
        <time>2021-03-27T15:09:06Z</time>
      </trkpt>
      <trkpt lat="46.04253" lon="6.10772">
        <ele>872.6</ele>
        <time>2021-03-27T15:09:07Z</time>
      </trkpt>
      <trkpt lat="46.04255" lon="6.10769">
        <ele>872.6</ele>
        <time>2021-03-27T15:09:08Z</time>
      </trkpt>
      <trkpt lat="46.04257" lon="6.10766">
        <ele>872.6</ele>
        <time>2021-03-27T15:09:09Z</time>
      </trkpt>
      <trkpt lat="46.0426" lon="6.10764">
        <ele>872.8</ele>
        <time>2021-03-27T15:09:10Z</time>
      </trkpt>
      <trkpt lat="46.04262" lon="6.10761">
        <ele>873</ele>
        <time>2021-03-27T15:09:11Z</time>
      </trkpt>
      <trkpt lat="46.04264" lon="6.10759">
        <ele>873.2</ele>
        <time>2021-03-27T15:09:12Z</time>
      </trkpt>
      <trkpt lat="46.04266" lon="6.10756">
        <ele>873.2</ele>
        <time>2021-03-27T15:09:13Z</time>
      </trkpt>
      <trkpt lat="46.04268" lon="6.10754">
        <ele>873.6</ele>
        <time>2021-03-27T15:09:14Z</time>
      </trkpt>
      <trkpt lat="46.04271" lon="6.10751">
        <ele>873.6</ele>
        <time>2021-03-27T15:09:15Z</time>
      </trkpt>
      <trkpt lat="46.04273" lon="6.10749">
        <ele>873.8</ele>
        <time>2021-03-27T15:09:16Z</time>
      </trkpt>
      <trkpt lat="46.04276" lon="6.10747">
        <ele>874</ele>
        <time>2021-03-27T15:09:17Z</time>
      </trkpt>
      <trkpt lat="46.04278" lon="6.10745">
        <ele>874.2</ele>
        <time>2021-03-27T15:09:18Z</time>
      </trkpt>
      <trkpt lat="46.04281" lon="6.10743">
        <ele>874.4</ele>
        <time>2021-03-27T15:09:19Z</time>
      </trkpt>
      <trkpt lat="46.04283" lon="6.10742">
        <ele>874.6</ele>
        <time>2021-03-27T15:09:20Z</time>
      </trkpt>
      <trkpt lat="46.04286" lon="6.10741">
        <ele>874.8</ele>
        <time>2021-03-27T15:09:21Z</time>
      </trkpt>
      <trkpt lat="46.04289" lon="6.10741">
        <ele>875</ele>
        <time>2021-03-27T15:09:22Z</time>
      </trkpt>
      <trkpt lat="46.04292" lon="6.10741">
        <ele>875.2</ele>
        <time>2021-03-27T15:09:23Z</time>
      </trkpt>
      <trkpt lat="46.04295" lon="6.10742">
        <ele>875.4</ele>
        <time>2021-03-27T15:09:24Z</time>
      </trkpt>
      <trkpt lat="46.04297" lon="6.10743">
        <ele>875.6</ele>
        <time>2021-03-27T15:09:25Z</time>
      </trkpt>
      <trkpt lat="46.043" lon="6.10744">
        <ele>875.8</ele>
        <time>2021-03-27T15:09:26Z</time>
      </trkpt>
      <trkpt lat="46.04303" lon="6.10745">
        <ele>876</ele>
        <time>2021-03-27T15:09:27Z</time>
      </trkpt>
      <trkpt lat="46.04306" lon="6.10746">
        <ele>876.2</ele>
        <time>2021-03-27T15:09:28Z</time>
      </trkpt>
      <trkpt lat="46.04308" lon="6.10747">
        <ele>876.4</ele>
        <time>2021-03-27T15:09:29Z</time>
      </trkpt>
      <trkpt lat="46.04311" lon="6.10748">
        <ele>876.6</ele>
        <time>2021-03-27T15:09:30Z</time>
      </trkpt>
      <trkpt lat="46.04313" lon="6.10749">
        <ele>876.8</ele>
        <time>2021-03-27T15:09:31Z</time>
      </trkpt>
      <trkpt lat="46.04316" lon="6.10749">
        <ele>876.8</ele>
        <time>2021-03-27T15:09:32Z</time>
      </trkpt>
      <trkpt lat="46.04318" lon="6.10751">
        <ele>877.2</ele>
        <time>2021-03-27T15:09:33Z</time>
      </trkpt>
      <trkpt lat="46.04321" lon="6.10752">
        <ele>877.4</ele>
        <time>2021-03-27T15:09:34Z</time>
      </trkpt>
      <trkpt lat="46.04324" lon="6.10753">
        <ele>877.6</ele>
        <time>2021-03-27T15:09:35Z</time>
      </trkpt>
      <trkpt lat="46.04327" lon="6.10754">
        <ele>878</ele>
        <time>2021-03-27T15:09:36Z</time>
      </trkpt>
      <trkpt lat="46.0433" lon="6.10756">
        <ele>878.2</ele>
        <time>2021-03-27T15:09:37Z</time>
      </trkpt>
      <trkpt lat="46.04332" lon="6.10757">
        <ele>878.4</ele>
        <time>2021-03-27T15:09:38Z</time>
      </trkpt>
      <trkpt lat="46.04335" lon="6.10759">
        <ele>878.8</ele>
        <time>2021-03-27T15:09:39Z</time>
      </trkpt>
      <trkpt lat="46.04338" lon="6.1076">
        <ele>879</ele>
        <time>2021-03-27T15:09:40Z</time>
      </trkpt>
      <trkpt lat="46.04341" lon="6.10761">
        <ele>879.4</ele>
        <time>2021-03-27T15:09:41Z</time>
      </trkpt>
      <trkpt lat="46.04344" lon="6.10763">
        <ele>879.6</ele>
        <time>2021-03-27T15:09:42Z</time>
      </trkpt>
      <trkpt lat="46.04347" lon="6.10764">
        <ele>879.6</ele>
        <time>2021-03-27T15:09:43Z</time>
      </trkpt>
      <trkpt lat="46.0435" lon="6.10766">
        <ele>879.8</ele>
        <time>2021-03-27T15:09:44Z</time>
      </trkpt>
      <trkpt lat="46.04353" lon="6.10767">
        <ele>880</ele>
        <time>2021-03-27T15:09:45Z</time>
      </trkpt>
      <trkpt lat="46.04357" lon="6.10768">
        <ele>880.4</ele>
        <time>2021-03-27T15:09:46Z</time>
      </trkpt>
      <trkpt lat="46.0436" lon="6.10769">
        <ele>880.4</ele>
        <time>2021-03-27T15:09:47Z</time>
      </trkpt>
      <trkpt lat="46.04363" lon="6.10771">
        <ele>880.8</ele>
        <time>2021-03-27T15:09:48Z</time>
      </trkpt>
      <trkpt lat="46.04366" lon="6.10772">
        <ele>880.8</ele>
        <time>2021-03-27T15:09:49Z</time>
      </trkpt>
      <trkpt lat="46.04369" lon="6.10774">
        <ele>881</ele>
        <time>2021-03-27T15:09:50Z</time>
      </trkpt>
      <trkpt lat="46.04372" lon="6.10775">
        <ele>881</ele>
        <time>2021-03-27T15:09:51Z</time>
      </trkpt>
      <trkpt lat="46.04375" lon="6.10776">
        <ele>881.2</ele>
        <time>2021-03-27T15:09:52Z</time>
      </trkpt>
      <trkpt lat="46.04379" lon="6.10777">
        <ele>881.2</ele>
        <time>2021-03-27T15:09:53Z</time>
      </trkpt>
      <trkpt lat="46.04382" lon="6.10778">
        <ele>881.4</ele>
        <time>2021-03-27T15:09:54Z</time>
      </trkpt>
      <trkpt lat="46.04386" lon="6.10779">
        <ele>881.4</ele>
        <time>2021-03-27T15:09:55Z</time>
      </trkpt>
      <trkpt lat="46.04389" lon="6.1078">
        <ele>881.6</ele>
        <time>2021-03-27T15:09:56Z</time>
      </trkpt>
      <trkpt lat="46.04392" lon="6.10781">
        <ele>881.6</ele>
        <time>2021-03-27T15:09:57Z</time>
      </trkpt>
      <trkpt lat="46.04396" lon="6.10782">
        <ele>881.8</ele>
        <time>2021-03-27T15:09:58Z</time>
      </trkpt>
      <trkpt lat="46.04399" lon="6.10783">
        <ele>881.8</ele>
        <time>2021-03-27T15:09:59Z</time>
      </trkpt>
      <trkpt lat="46.04402" lon="6.10783">
        <ele>882.2</ele>
        <time>2021-03-27T15:10:00Z</time>
      </trkpt>
      <trkpt lat="46.04405" lon="6.10784">
        <ele>882.2</ele>
        <time>2021-03-27T15:10:01Z</time>
      </trkpt>
      <trkpt lat="46.04408" lon="6.10784">
        <ele>882.2</ele>
        <time>2021-03-27T15:10:02Z</time>
      </trkpt>
      <trkpt lat="46.04411" lon="6.10784">
        <ele>882.2</ele>
        <time>2021-03-27T15:10:03Z</time>
      </trkpt>
      <trkpt lat="46.04415" lon="6.10785">
        <ele>882.4</ele>
        <time>2021-03-27T15:10:04Z</time>
      </trkpt>
      <trkpt lat="46.04418" lon="6.10786">
        <ele>882.4</ele>
        <time>2021-03-27T15:10:05Z</time>
      </trkpt>
      <trkpt lat="46.04421" lon="6.10786">
        <ele>882.4</ele>
        <time>2021-03-27T15:10:06Z</time>
      </trkpt>
      <trkpt lat="46.04424" lon="6.10787">
        <ele>882.6</ele>
        <time>2021-03-27T15:10:07Z</time>
      </trkpt>
      <trkpt lat="46.04428" lon="6.10787">
        <ele>882.6</ele>
        <time>2021-03-27T15:10:08Z</time>
      </trkpt>
      <trkpt lat="46.04432" lon="6.10788">
        <ele>882.6</ele>
        <time>2021-03-27T15:10:09Z</time>
      </trkpt>
      <trkpt lat="46.04436" lon="6.10788">
        <ele>882.8</ele>
        <time>2021-03-27T15:10:10Z</time>
      </trkpt>
      <trkpt lat="46.0444" lon="6.10789">
        <ele>882.8</ele>
        <time>2021-03-27T15:10:11Z</time>
      </trkpt>
      <trkpt lat="46.04444" lon="6.1079">
        <ele>882.8</ele>
        <time>2021-03-27T15:10:12Z</time>
      </trkpt>
      <trkpt lat="46.04448" lon="6.10791">
        <ele>883</ele>
        <time>2021-03-27T15:10:13Z</time>
      </trkpt>
      <trkpt lat="46.04451" lon="6.10792">
        <ele>883.2</ele>
        <time>2021-03-27T15:10:14Z</time>
      </trkpt>
      <trkpt lat="46.04455" lon="6.10793">
        <ele>883.2</ele>
        <time>2021-03-27T15:10:15Z</time>
      </trkpt>
      <trkpt lat="46.04459" lon="6.10794">
        <ele>883.4</ele>
        <time>2021-03-27T15:10:16Z</time>
      </trkpt>
      <trkpt lat="46.04463" lon="6.10795">
        <ele>883.8</ele>
        <time>2021-03-27T15:10:17Z</time>
      </trkpt>
      <trkpt lat="46.04467" lon="6.10795">
        <ele>883.8</ele>
        <time>2021-03-27T15:10:18Z</time>
      </trkpt>
      <trkpt lat="46.0447" lon="6.10796">
        <ele>884</ele>
        <time>2021-03-27T15:10:19Z</time>
      </trkpt>
      <trkpt lat="46.04474" lon="6.10797">
        <ele>884.2</ele>
        <time>2021-03-27T15:10:20Z</time>
      </trkpt>
      <trkpt lat="46.04478" lon="6.10798">
        <ele>884.2</ele>
        <time>2021-03-27T15:10:21Z</time>
      </trkpt>
      <trkpt lat="46.04482" lon="6.10799">
        <ele>884.2</ele>
        <time>2021-03-27T15:10:22Z</time>
      </trkpt>
      <trkpt lat="46.04485" lon="6.108">
        <ele>884.4</ele>
        <time>2021-03-27T15:10:23Z</time>
      </trkpt>
      <trkpt lat="46.04489" lon="6.10802">
        <ele>884.6</ele>
        <time>2021-03-27T15:10:24Z</time>
      </trkpt>
      <trkpt lat="46.04493" lon="6.10804">
        <ele>884.6</ele>
        <time>2021-03-27T15:10:25Z</time>
      </trkpt>
      <trkpt lat="46.04496" lon="6.10806">
        <ele>884.8</ele>
        <time>2021-03-27T15:10:26Z</time>
      </trkpt>
      <trkpt lat="46.04499" lon="6.10808">
        <ele>884.8</ele>
        <time>2021-03-27T15:10:27Z</time>
      </trkpt>
      <trkpt lat="46.04502" lon="6.10811">
        <ele>884.8</ele>
        <time>2021-03-27T15:10:28Z</time>
      </trkpt>
      <trkpt lat="46.04505" lon="6.10815">
        <ele>885</ele>
        <time>2021-03-27T15:10:29Z</time>
      </trkpt>
      <trkpt lat="46.04508" lon="6.10819">
        <ele>885.2</ele>
        <time>2021-03-27T15:10:30Z</time>
      </trkpt>
      <trkpt lat="46.0451" lon="6.10823">
        <ele>885.2</ele>
        <time>2021-03-27T15:10:31Z</time>
      </trkpt>
      <trkpt lat="46.04513" lon="6.10827">
        <ele>885.4</ele>
        <time>2021-03-27T15:10:32Z</time>
      </trkpt>
      <trkpt lat="46.04515" lon="6.10832">
        <ele>885.6</ele>
        <time>2021-03-27T15:10:33Z</time>
      </trkpt>
      <trkpt lat="46.04517" lon="6.10837">
        <ele>885.6</ele>
        <time>2021-03-27T15:10:34Z</time>
      </trkpt>
      <trkpt lat="46.04519" lon="6.10841">
        <ele>885.8</ele>
        <time>2021-03-27T15:10:35Z</time>
      </trkpt>
      <trkpt lat="46.04522" lon="6.10845">
        <ele>886</ele>
        <time>2021-03-27T15:10:36Z</time>
      </trkpt>
      <trkpt lat="46.04524" lon="6.1085">
        <ele>886</ele>
        <time>2021-03-27T15:10:37Z</time>
      </trkpt>
      <trkpt lat="46.04527" lon="6.10853">
        <ele>886.2</ele>
        <time>2021-03-27T15:10:38Z</time>
      </trkpt>
      <trkpt lat="46.0453" lon="6.10857">
        <ele>886.4</ele>
        <time>2021-03-27T15:10:39Z</time>
      </trkpt>
      <trkpt lat="46.04533" lon="6.1086">
        <ele>886.6</ele>
        <time>2021-03-27T15:10:40Z</time>
      </trkpt>
      <trkpt lat="46.04536" lon="6.10864">
        <ele>886.6</ele>
        <time>2021-03-27T15:10:41Z</time>
      </trkpt>
      <trkpt lat="46.04539" lon="6.10868">
        <ele>886.8</ele>
        <time>2021-03-27T15:10:42Z</time>
      </trkpt>
      <trkpt lat="46.04542" lon="6.10871">
        <ele>886.8</ele>
        <time>2021-03-27T15:10:43Z</time>
      </trkpt>
      <trkpt lat="46.04545" lon="6.10874">
        <ele>887.2</ele>
        <time>2021-03-27T15:10:44Z</time>
      </trkpt>
      <trkpt lat="46.04549" lon="6.10876">
        <ele>887.2</ele>
        <time>2021-03-27T15:10:45Z</time>
      </trkpt>
      <trkpt lat="46.04552" lon="6.10878">
        <ele>887.4</ele>
        <time>2021-03-27T15:10:46Z</time>
      </trkpt>
      <trkpt lat="46.04556" lon="6.10879">
        <ele>887.6</ele>
        <time>2021-03-27T15:10:47Z</time>
      </trkpt>
      <trkpt lat="46.0456" lon="6.10881">
        <ele>887.6</ele>
        <time>2021-03-27T15:10:48Z</time>
      </trkpt>
      <trkpt lat="46.04564" lon="6.10882">
        <ele>887.8</ele>
        <time>2021-03-27T15:10:49Z</time>
      </trkpt>
      <trkpt lat="46.04568" lon="6.10882">
        <ele>887.8</ele>
        <time>2021-03-27T15:10:50Z</time>
      </trkpt>
      <trkpt lat="46.04571" lon="6.10883">
        <ele>887.8</ele>
        <time>2021-03-27T15:10:51Z</time>
      </trkpt>
      <trkpt lat="46.04575" lon="6.10884">
        <ele>888</ele>
        <time>2021-03-27T15:10:52Z</time>
      </trkpt>
      <trkpt lat="46.04579" lon="6.10885">
        <ele>888</ele>
        <time>2021-03-27T15:10:53Z</time>
      </trkpt>
      <trkpt lat="46.04583" lon="6.10885">
        <ele>888</ele>
        <time>2021-03-27T15:10:54Z</time>
      </trkpt>
      <trkpt lat="46.04587" lon="6.10886">
        <ele>888</ele>
        <time>2021-03-27T15:10:55Z</time>
      </trkpt>
      <trkpt lat="46.04592" lon="6.10887">
        <ele>888</ele>
        <time>2021-03-27T15:10:56Z</time>
      </trkpt>
      <trkpt lat="46.04596" lon="6.10889">
        <ele>888.2</ele>
        <time>2021-03-27T15:10:57Z</time>
      </trkpt>
      <trkpt lat="46.046" lon="6.10891">
        <ele>888.2</ele>
        <time>2021-03-27T15:10:58Z</time>
      </trkpt>
      <trkpt lat="46.04603" lon="6.10895">
        <ele>888.2</ele>
        <time>2021-03-27T15:10:59Z</time>
      </trkpt>
      <trkpt lat="46.04606" lon="6.10899">
        <ele>888.4</ele>
        <time>2021-03-27T15:11:00Z</time>
      </trkpt>
      <trkpt lat="46.04609" lon="6.10904">
        <ele>888.8</ele>
        <time>2021-03-27T15:11:01Z</time>
      </trkpt>
      <trkpt lat="46.04611" lon="6.10909">
        <ele>888.8</ele>
        <time>2021-03-27T15:11:02Z</time>
      </trkpt>
      <trkpt lat="46.04614" lon="6.10914">
        <ele>888.8</ele>
        <time>2021-03-27T15:11:03Z</time>
      </trkpt>
      <trkpt lat="46.04616" lon="6.10919">
        <ele>889</ele>
        <time>2021-03-27T15:11:04Z</time>
      </trkpt>
      <trkpt lat="46.04619" lon="6.10924">
        <ele>888.8</ele>
        <time>2021-03-27T15:11:05Z</time>
      </trkpt>
      <trkpt lat="46.04622" lon="6.10929">
        <ele>888.8</ele>
        <time>2021-03-27T15:11:06Z</time>
      </trkpt>
      <trkpt lat="46.04624" lon="6.10934">
        <ele>889.2</ele>
        <time>2021-03-27T15:11:07Z</time>
      </trkpt>
      <trkpt lat="46.04627" lon="6.10939">
        <ele>889.2</ele>
        <time>2021-03-27T15:11:08Z</time>
      </trkpt>
      <trkpt lat="46.0463" lon="6.10945">
        <ele>889.2</ele>
        <time>2021-03-27T15:11:09Z</time>
      </trkpt>
      <trkpt lat="46.04633" lon="6.1095">
        <ele>889.4</ele>
        <time>2021-03-27T15:11:10Z</time>
      </trkpt>
      <trkpt lat="46.04635" lon="6.10955">
        <ele>889.4</ele>
        <time>2021-03-27T15:11:11Z</time>
      </trkpt>
      <trkpt lat="46.04638" lon="6.1096">
        <ele>889.6</ele>
        <time>2021-03-27T15:11:12Z</time>
      </trkpt>
      <trkpt lat="46.04641" lon="6.10966">
        <ele>889.6</ele>
        <time>2021-03-27T15:11:13Z</time>
      </trkpt>
      <trkpt lat="46.04644" lon="6.10971">
        <ele>889.6</ele>
        <time>2021-03-27T15:11:14Z</time>
      </trkpt>
      <trkpt lat="46.04647" lon="6.10976">
        <ele>889.6</ele>
        <time>2021-03-27T15:11:15Z</time>
      </trkpt>
      <trkpt lat="46.04649" lon="6.10982">
        <ele>889.6</ele>
        <time>2021-03-27T15:11:16Z</time>
      </trkpt>
      <trkpt lat="46.04651" lon="6.10987">
        <ele>889.6</ele>
        <time>2021-03-27T15:11:17Z</time>
      </trkpt>
      <trkpt lat="46.04653" lon="6.10993">
        <ele>889.6</ele>
        <time>2021-03-27T15:11:18Z</time>
      </trkpt>
      <trkpt lat="46.04655" lon="6.10998">
        <ele>889.8</ele>
        <time>2021-03-27T15:11:19Z</time>
      </trkpt>
      <trkpt lat="46.04655" lon="6.11004">
        <ele>889.8</ele>
        <time>2021-03-27T15:11:20Z</time>
      </trkpt>
      <trkpt lat="46.04656" lon="6.11009">
        <ele>889.8</ele>
        <time>2021-03-27T15:11:21Z</time>
      </trkpt>
      <trkpt lat="46.04656" lon="6.11014">
        <ele>889.8</ele>
        <time>2021-03-27T15:11:22Z</time>
      </trkpt>
      <trkpt lat="46.04655" lon="6.11018">
        <ele>889.8</ele>
        <time>2021-03-27T15:11:23Z</time>
      </trkpt>
      <trkpt lat="46.04654" lon="6.11023">
        <ele>889.8</ele>
        <time>2021-03-27T15:11:24Z</time>
      </trkpt>
      <trkpt lat="46.04653" lon="6.11027">
        <ele>889.8</ele>
        <time>2021-03-27T15:11:25Z</time>
      </trkpt>
      <trkpt lat="46.04652" lon="6.11032">
        <ele>889.8</ele>
        <time>2021-03-27T15:11:26Z</time>
      </trkpt>
      <trkpt lat="46.04651" lon="6.11036">
        <ele>889.8</ele>
        <time>2021-03-27T15:11:27Z</time>
      </trkpt>
      <trkpt lat="46.0465" lon="6.1104">
        <ele>890</ele>
        <time>2021-03-27T15:11:28Z</time>
      </trkpt>
      <trkpt lat="46.04649" lon="6.11045">
        <ele>890.4</ele>
        <time>2021-03-27T15:11:29Z</time>
      </trkpt>
      <trkpt lat="46.04649" lon="6.11049">
        <ele>891</ele>
        <time>2021-03-27T15:11:30Z</time>
      </trkpt>
      <trkpt lat="46.04649" lon="6.11054">
        <ele>891.4</ele>
        <time>2021-03-27T15:11:31Z</time>
      </trkpt>
      <trkpt lat="46.04648" lon="6.11058">
        <ele>891.6</ele>
        <time>2021-03-27T15:11:32Z</time>
      </trkpt>
      <trkpt lat="46.04649" lon="6.11063">
        <ele>892</ele>
        <time>2021-03-27T15:11:33Z</time>
      </trkpt>
      <trkpt lat="46.04649" lon="6.11068">
        <ele>892.2</ele>
        <time>2021-03-27T15:11:34Z</time>
      </trkpt>
      <trkpt lat="46.0465" lon="6.11072">
        <ele>892.4</ele>
        <time>2021-03-27T15:11:35Z</time>
      </trkpt>
      <trkpt lat="46.04651" lon="6.11076">
        <ele>892.6</ele>
        <time>2021-03-27T15:11:36Z</time>
      </trkpt>
      <trkpt lat="46.04652" lon="6.11081">
        <ele>892.8</ele>
        <time>2021-03-27T15:11:37Z</time>
      </trkpt>
      <trkpt lat="46.04653" lon="6.11085">
        <ele>893.2</ele>
        <time>2021-03-27T15:11:38Z</time>
      </trkpt>
      <trkpt lat="46.04654" lon="6.1109">
        <ele>893.6</ele>
        <time>2021-03-27T15:11:39Z</time>
      </trkpt>
      <trkpt lat="46.04655" lon="6.11094">
        <ele>894</ele>
        <time>2021-03-27T15:11:40Z</time>
      </trkpt>
      <trkpt lat="46.04655" lon="6.11099">
        <ele>894.2</ele>
        <time>2021-03-27T15:11:41Z</time>
      </trkpt>
      <trkpt lat="46.04656" lon="6.11103">
        <ele>894.6</ele>
        <time>2021-03-27T15:11:42Z</time>
      </trkpt>
      <trkpt lat="46.04657" lon="6.11108">
        <ele>894.8</ele>
        <time>2021-03-27T15:11:43Z</time>
      </trkpt>
      <trkpt lat="46.04657" lon="6.11112">
        <ele>895</ele>
        <time>2021-03-27T15:11:44Z</time>
      </trkpt>
      <trkpt lat="46.04657" lon="6.11117">
        <ele>895.4</ele>
        <time>2021-03-27T15:11:45Z</time>
      </trkpt>
      <trkpt lat="46.04656" lon="6.1112">
        <ele>895.2</ele>
        <time>2021-03-27T15:11:46Z</time>
      </trkpt>
      <trkpt lat="46.04655" lon="6.11125">
        <ele>895.4</ele>
        <time>2021-03-27T15:11:47Z</time>
      </trkpt>
      <trkpt lat="46.04654" lon="6.11129">
        <ele>895.8</ele>
        <time>2021-03-27T15:11:48Z</time>
      </trkpt>
      <trkpt lat="46.04652" lon="6.11133">
        <ele>896.2</ele>
        <time>2021-03-27T15:11:49Z</time>
      </trkpt>
      <trkpt lat="46.04651" lon="6.11136">
        <ele>896.4</ele>
        <time>2021-03-27T15:11:50Z</time>
      </trkpt>
      <trkpt lat="46.04649" lon="6.11139">
        <ele>896.6</ele>
        <time>2021-03-27T15:11:51Z</time>
      </trkpt>
      <trkpt lat="46.04647" lon="6.11141">
        <ele>896.8</ele>
        <time>2021-03-27T15:11:52Z</time>
      </trkpt>
      <trkpt lat="46.04645" lon="6.11144">
        <ele>896.6</ele>
        <time>2021-03-27T15:11:53Z</time>
      </trkpt>
      <trkpt lat="46.04642" lon="6.11146">
        <ele>897</ele>
        <time>2021-03-27T15:11:54Z</time>
      </trkpt>
      <trkpt lat="46.0464" lon="6.11148">
        <ele>897</ele>
        <time>2021-03-27T15:11:55Z</time>
      </trkpt>
      <trkpt lat="46.04638" lon="6.11151">
        <ele>897.2</ele>
        <time>2021-03-27T15:11:56Z</time>
      </trkpt>
      <trkpt lat="46.04635" lon="6.11153">
        <ele>897.4</ele>
        <time>2021-03-27T15:11:57Z</time>
      </trkpt>
      <trkpt lat="46.04633" lon="6.11156">
        <ele>897.4</ele>
        <time>2021-03-27T15:11:58Z</time>
      </trkpt>
      <trkpt lat="46.04631" lon="6.11159">
        <ele>897.8</ele>
        <time>2021-03-27T15:11:59Z</time>
      </trkpt>
      <trkpt lat="46.0463" lon="6.11162">
        <ele>898</ele>
        <time>2021-03-27T15:12:00Z</time>
      </trkpt>
      <trkpt lat="46.04628" lon="6.11165">
        <ele>898.4</ele>
        <time>2021-03-27T15:12:01Z</time>
      </trkpt>
      <trkpt lat="46.04627" lon="6.11169">
        <ele>898.6</ele>
        <time>2021-03-27T15:12:02Z</time>
      </trkpt>
      <trkpt lat="46.04627" lon="6.11172">
        <ele>898.8</ele>
        <time>2021-03-27T15:12:03Z</time>
      </trkpt>
      <trkpt lat="46.04626" lon="6.11176">
        <ele>899.2</ele>
        <time>2021-03-27T15:12:04Z</time>
      </trkpt>
      <trkpt lat="46.04625" lon="6.1118">
        <ele>899.4</ele>
        <time>2021-03-27T15:12:05Z</time>
      </trkpt>
      <trkpt lat="46.04624" lon="6.11184">
        <ele>899.6</ele>
        <time>2021-03-27T15:12:06Z</time>
      </trkpt>
      <trkpt lat="46.04623" lon="6.11188">
        <ele>900</ele>
        <time>2021-03-27T15:12:07Z</time>
      </trkpt>
      <trkpt lat="46.04622" lon="6.11192">
        <ele>900.4</ele>
        <time>2021-03-27T15:12:08Z</time>
      </trkpt>
      <trkpt lat="46.04621" lon="6.11196">
        <ele>900.6</ele>
        <time>2021-03-27T15:12:09Z</time>
      </trkpt>
      <trkpt lat="46.0462" lon="6.11199">
        <ele>900.6</ele>
        <time>2021-03-27T15:12:10Z</time>
      </trkpt>
      <trkpt lat="46.0462" lon="6.11202">
        <ele>901</ele>
        <time>2021-03-27T15:12:11Z</time>
      </trkpt>
      <trkpt lat="46.04619" lon="6.11206">
        <ele>901.2</ele>
        <time>2021-03-27T15:12:12Z</time>
      </trkpt>
      <trkpt lat="46.04618" lon="6.11209">
        <ele>901.2</ele>
        <time>2021-03-27T15:12:13Z</time>
      </trkpt>
      <trkpt lat="46.04617" lon="6.11212">
        <ele>901.6</ele>
        <time>2021-03-27T15:12:14Z</time>
      </trkpt>
      <trkpt lat="46.04616" lon="6.11216">
        <ele>901.8</ele>
        <time>2021-03-27T15:12:15Z</time>
      </trkpt>
      <trkpt lat="46.04615" lon="6.11219">
        <ele>902</ele>
        <time>2021-03-27T15:12:16Z</time>
      </trkpt>
      <trkpt lat="46.04615" lon="6.11223">
        <ele>902.2</ele>
        <time>2021-03-27T15:12:17Z</time>
      </trkpt>
      <trkpt lat="46.04614" lon="6.11227">
        <ele>902.4</ele>
        <time>2021-03-27T15:12:18Z</time>
      </trkpt>
      <trkpt lat="46.04613" lon="6.1123">
        <ele>902.6</ele>
        <time>2021-03-27T15:12:19Z</time>
      </trkpt>
      <trkpt lat="46.04613" lon="6.11233">
        <ele>902.8</ele>
        <time>2021-03-27T15:12:20Z</time>
      </trkpt>
      <trkpt lat="46.04612" lon="6.11237">
        <ele>903.2</ele>
        <time>2021-03-27T15:12:21Z</time>
      </trkpt>
      <trkpt lat="46.04612" lon="6.11242">
        <ele>903.2</ele>
        <time>2021-03-27T15:12:22Z</time>
      </trkpt>
      <trkpt lat="46.04612" lon="6.11247">
        <ele>903.4</ele>
        <time>2021-03-27T15:12:23Z</time>
      </trkpt>
      <trkpt lat="46.04613" lon="6.11251">
        <ele>903.8</ele>
        <time>2021-03-27T15:12:24Z</time>
      </trkpt>
      <trkpt lat="46.04614" lon="6.11255">
        <ele>903.8</ele>
        <time>2021-03-27T15:12:25Z</time>
      </trkpt>
      <trkpt lat="46.04615" lon="6.1126">
        <ele>904.2</ele>
        <time>2021-03-27T15:12:26Z</time>
      </trkpt>
      <trkpt lat="46.04616" lon="6.11264">
        <ele>904.4</ele>
        <time>2021-03-27T15:12:27Z</time>
      </trkpt>
      <trkpt lat="46.04617" lon="6.11268">
        <ele>904.4</ele>
        <time>2021-03-27T15:12:28Z</time>
      </trkpt>
      <trkpt lat="46.04619" lon="6.11272">
        <ele>904.8</ele>
        <time>2021-03-27T15:12:29Z</time>
      </trkpt>
      <trkpt lat="46.0462" lon="6.11276">
        <ele>904.8</ele>
        <time>2021-03-27T15:12:30Z</time>
      </trkpt>
      <trkpt lat="46.04621" lon="6.1128">
        <ele>904.8</ele>
        <time>2021-03-27T15:12:31Z</time>
      </trkpt>
      <trkpt lat="46.04623" lon="6.11284">
        <ele>904.8</ele>
        <time>2021-03-27T15:12:32Z</time>
      </trkpt>
      <trkpt lat="46.04624" lon="6.11288">
        <ele>905</ele>
        <time>2021-03-27T15:12:33Z</time>
      </trkpt>
      <trkpt lat="46.04626" lon="6.11292">
        <ele>905.2</ele>
        <time>2021-03-27T15:12:34Z</time>
      </trkpt>
      <trkpt lat="46.04627" lon="6.11296">
        <ele>905.8</ele>
        <time>2021-03-27T15:12:35Z</time>
      </trkpt>
      <trkpt lat="46.04628" lon="6.113">
        <ele>905.8</ele>
        <time>2021-03-27T15:12:36Z</time>
      </trkpt>
      <trkpt lat="46.04629" lon="6.11304">
        <ele>906</ele>
        <time>2021-03-27T15:12:37Z</time>
      </trkpt>
      <trkpt lat="46.0463" lon="6.11309">
        <ele>906.4</ele>
        <time>2021-03-27T15:12:38Z</time>
      </trkpt>
      <trkpt lat="46.04632" lon="6.11313">
        <ele>906.4</ele>
        <time>2021-03-27T15:12:39Z</time>
      </trkpt>
      <trkpt lat="46.04633" lon="6.11317">
        <ele>906.6</ele>
        <time>2021-03-27T15:12:40Z</time>
      </trkpt>
      <trkpt lat="46.04634" lon="6.11321">
        <ele>906.8</ele>
        <time>2021-03-27T15:12:41Z</time>
      </trkpt>
      <trkpt lat="46.04635" lon="6.11325">
        <ele>907</ele>
        <time>2021-03-27T15:12:42Z</time>
      </trkpt>
      <trkpt lat="46.04636" lon="6.11329">
        <ele>907.2</ele>
        <time>2021-03-27T15:12:43Z</time>
      </trkpt>
      <trkpt lat="46.04638" lon="6.11333">
        <ele>907.4</ele>
        <time>2021-03-27T15:12:44Z</time>
      </trkpt>
      <trkpt lat="46.04639" lon="6.11337">
        <ele>907.4</ele>
        <time>2021-03-27T15:12:45Z</time>
      </trkpt>
      <trkpt lat="46.04639" lon="6.11341">
        <ele>907.6</ele>
        <time>2021-03-27T15:12:46Z</time>
      </trkpt>
      <trkpt lat="46.04638" lon="6.11346">
        <ele>908</ele>
        <time>2021-03-27T15:12:47Z</time>
      </trkpt>
      <trkpt lat="46.04638" lon="6.1135">
        <ele>908</ele>
        <time>2021-03-27T15:12:48Z</time>
      </trkpt>
      <trkpt lat="46.04637" lon="6.11354">
        <ele>908</ele>
        <time>2021-03-27T15:12:49Z</time>
      </trkpt>
      <trkpt lat="46.04637" lon="6.11359">
        <ele>908.2</ele>
        <time>2021-03-27T15:12:50Z</time>
      </trkpt>
      <trkpt lat="46.04636" lon="6.11363">
        <ele>908.2</ele>
        <time>2021-03-27T15:12:51Z</time>
      </trkpt>
      <trkpt lat="46.04636" lon="6.11367">
        <ele>908.4</ele>
        <time>2021-03-27T15:12:52Z</time>
      </trkpt>
      <trkpt lat="46.04635" lon="6.11372">
        <ele>908.8</ele>
        <time>2021-03-27T15:12:53Z</time>
      </trkpt>
      <trkpt lat="46.04634" lon="6.11376">
        <ele>909</ele>
        <time>2021-03-27T15:12:54Z</time>
      </trkpt>
      <trkpt lat="46.04634" lon="6.1138">
        <ele>909</ele>
        <time>2021-03-27T15:12:55Z</time>
      </trkpt>
      <trkpt lat="46.04633" lon="6.11385">
        <ele>909.2</ele>
        <time>2021-03-27T15:12:56Z</time>
      </trkpt>
      <trkpt lat="46.04633" lon="6.11389">
        <ele>909.4</ele>
        <time>2021-03-27T15:12:57Z</time>
      </trkpt>
      <trkpt lat="46.04632" lon="6.11394">
        <ele>909.6</ele>
        <time>2021-03-27T15:12:58Z</time>
      </trkpt>
      <trkpt lat="46.04631" lon="6.11398">
        <ele>909.8</ele>
        <time>2021-03-27T15:12:59Z</time>
      </trkpt>
      <trkpt lat="46.04631" lon="6.11403">
        <ele>909.8</ele>
        <time>2021-03-27T15:13:00Z</time>
      </trkpt>
      <trkpt lat="46.0463" lon="6.11407">
        <ele>910</ele>
        <time>2021-03-27T15:13:01Z</time>
      </trkpt>
      <trkpt lat="46.0463" lon="6.11412">
        <ele>910.2</ele>
        <time>2021-03-27T15:13:02Z</time>
      </trkpt>
      <trkpt lat="46.04629" lon="6.11416">
        <ele>910.2</ele>
        <time>2021-03-27T15:13:03Z</time>
      </trkpt>
      <trkpt lat="46.04629" lon="6.11421">
        <ele>910.4</ele>
        <time>2021-03-27T15:13:04Z</time>
      </trkpt>
      <trkpt lat="46.0463" lon="6.11425">
        <ele>910.8</ele>
        <time>2021-03-27T15:13:05Z</time>
      </trkpt>
      <trkpt lat="46.0463" lon="6.11429">
        <ele>910.8</ele>
        <time>2021-03-27T15:13:06Z</time>
      </trkpt>
      <trkpt lat="46.04631" lon="6.11433">
        <ele>910.8</ele>
        <time>2021-03-27T15:13:07Z</time>
      </trkpt>
      <trkpt lat="46.04632" lon="6.11437">
        <ele>911</ele>
        <time>2021-03-27T15:13:08Z</time>
      </trkpt>
      <trkpt lat="46.04634" lon="6.11441">
        <ele>911.2</ele>
        <time>2021-03-27T15:13:09Z</time>
      </trkpt>
      <trkpt lat="46.04636" lon="6.11444">
        <ele>911.4</ele>
        <time>2021-03-27T15:13:10Z</time>
      </trkpt>
      <trkpt lat="46.04638" lon="6.11447">
        <ele>911.6</ele>
        <time>2021-03-27T15:13:11Z</time>
      </trkpt>
      <trkpt lat="46.0464" lon="6.11449">
        <ele>911.8</ele>
        <time>2021-03-27T15:13:12Z</time>
      </trkpt>
      <trkpt lat="46.04642" lon="6.11451">
        <ele>912</ele>
        <time>2021-03-27T15:13:13Z</time>
      </trkpt>
      <trkpt lat="46.04645" lon="6.11453">
        <ele>912.2</ele>
        <time>2021-03-27T15:13:14Z</time>
      </trkpt>
      <trkpt lat="46.04647" lon="6.11454">
        <ele>912.4</ele>
        <time>2021-03-27T15:13:15Z</time>
      </trkpt>
      <trkpt lat="46.0465" lon="6.11454">
        <ele>913</ele>
        <time>2021-03-27T15:13:16Z</time>
      </trkpt>
      <trkpt lat="46.04653" lon="6.11455">
        <ele>913.2</ele>
        <time>2021-03-27T15:13:17Z</time>
      </trkpt>
      <trkpt lat="46.04657" lon="6.11455">
        <ele>913.4</ele>
        <time>2021-03-27T15:13:18Z</time>
      </trkpt>
      <trkpt lat="46.0466" lon="6.11454">
        <ele>913.6</ele>
        <time>2021-03-27T15:13:19Z</time>
      </trkpt>
      <trkpt lat="46.04663" lon="6.11453">
        <ele>913.8</ele>
        <time>2021-03-27T15:13:20Z</time>
      </trkpt>
      <trkpt lat="46.04665" lon="6.1145">
        <ele>913.8</ele>
        <time>2021-03-27T15:13:21Z</time>
      </trkpt>
      <trkpt lat="46.04668" lon="6.11447">
        <ele>914</ele>
        <time>2021-03-27T15:13:22Z</time>
      </trkpt>
      <trkpt lat="46.0467" lon="6.11443">
        <ele>914.2</ele>
        <time>2021-03-27T15:13:23Z</time>
      </trkpt>
      <trkpt lat="46.04672" lon="6.11439">
        <ele>914</ele>
        <time>2021-03-27T15:13:24Z</time>
      </trkpt>
      <trkpt lat="46.04673" lon="6.11435">
        <ele>914.2</ele>
        <time>2021-03-27T15:13:25Z</time>
      </trkpt>
      <trkpt lat="46.04674" lon="6.1143">
        <ele>914.4</ele>
        <time>2021-03-27T15:13:26Z</time>
      </trkpt>
      <trkpt lat="46.04675" lon="6.11425">
        <ele>914.4</ele>
        <time>2021-03-27T15:13:27Z</time>
      </trkpt>
      <trkpt lat="46.04675" lon="6.11419">
        <ele>914.6</ele>
        <time>2021-03-27T15:13:28Z</time>
      </trkpt>
      <trkpt lat="46.04676" lon="6.11414">
        <ele>914.8</ele>
        <time>2021-03-27T15:13:29Z</time>
      </trkpt>
      <trkpt lat="46.04675" lon="6.11409">
        <ele>915</ele>
        <time>2021-03-27T15:13:30Z</time>
      </trkpt>
      <trkpt lat="46.04674" lon="6.11404">
        <ele>915</ele>
        <time>2021-03-27T15:13:31Z</time>
      </trkpt>
      <trkpt lat="46.04673" lon="6.11399">
        <ele>915.2</ele>
        <time>2021-03-27T15:13:32Z</time>
      </trkpt>
      <trkpt lat="46.04672" lon="6.11394">
        <ele>915.2</ele>
        <time>2021-03-27T15:13:33Z</time>
      </trkpt>
      <trkpt lat="46.04671" lon="6.11389">
        <ele>915.4</ele>
        <time>2021-03-27T15:13:34Z</time>
      </trkpt>
      <trkpt lat="46.04669" lon="6.11383">
        <ele>915.4</ele>
        <time>2021-03-27T15:13:35Z</time>
      </trkpt>
      <trkpt lat="46.04668" lon="6.11378">
        <ele>915.6</ele>
        <time>2021-03-27T15:13:36Z</time>
      </trkpt>
      <trkpt lat="46.04667" lon="6.11373">
        <ele>915.6</ele>
        <time>2021-03-27T15:13:37Z</time>
      </trkpt>
      <trkpt lat="46.04665" lon="6.11368">
        <ele>915.8</ele>
        <time>2021-03-27T15:13:38Z</time>
      </trkpt>
      <trkpt lat="46.04664" lon="6.11363">
        <ele>916</ele>
        <time>2021-03-27T15:13:39Z</time>
      </trkpt>
      <trkpt lat="46.04663" lon="6.11357">
        <ele>916</ele>
        <time>2021-03-27T15:13:40Z</time>
      </trkpt>
      <trkpt lat="46.04661" lon="6.11352">
        <ele>916</ele>
        <time>2021-03-27T15:13:41Z</time>
      </trkpt>
      <trkpt lat="46.0466" lon="6.11346">
        <ele>916.2</ele>
        <time>2021-03-27T15:13:42Z</time>
      </trkpt>
      <trkpt lat="46.0466" lon="6.11341">
        <ele>916</ele>
        <time>2021-03-27T15:13:43Z</time>
      </trkpt>
      <trkpt lat="46.04659" lon="6.11337">
        <ele>916</ele>
        <time>2021-03-27T15:13:44Z</time>
      </trkpt>
      <trkpt lat="46.04658" lon="6.11332">
        <ele>916</ele>
        <time>2021-03-27T15:13:45Z</time>
      </trkpt>
      <trkpt lat="46.04658" lon="6.11327">
        <ele>916</ele>
        <time>2021-03-27T15:13:46Z</time>
      </trkpt>
      <trkpt lat="46.04657" lon="6.11321">
        <ele>916</ele>
        <time>2021-03-27T15:13:47Z</time>
      </trkpt>
      <trkpt lat="46.04657" lon="6.11316">
        <ele>916.2</ele>
        <time>2021-03-27T15:13:48Z</time>
      </trkpt>
      <trkpt lat="46.04656" lon="6.1131">
        <ele>916.2</ele>
        <time>2021-03-27T15:13:49Z</time>
      </trkpt>
      <trkpt lat="46.04656" lon="6.11304">
        <ele>916.2</ele>
        <time>2021-03-27T15:13:50Z</time>
      </trkpt>
      <trkpt lat="46.04655" lon="6.11298">
        <ele>916.4</ele>
        <time>2021-03-27T15:13:51Z</time>
      </trkpt>
      <trkpt lat="46.04655" lon="6.11291">
        <ele>916.6</ele>
        <time>2021-03-27T15:13:52Z</time>
      </trkpt>
      <trkpt lat="46.04655" lon="6.11285">
        <ele>916.8</ele>
        <time>2021-03-27T15:13:53Z</time>
      </trkpt>
      <trkpt lat="46.04656" lon="6.1128">
        <ele>916.8</ele>
        <time>2021-03-27T15:13:54Z</time>
      </trkpt>
      <trkpt lat="46.04657" lon="6.11274">
        <ele>916.8</ele>
        <time>2021-03-27T15:13:55Z</time>
      </trkpt>
      <trkpt lat="46.04659" lon="6.11269">
        <ele>917.2</ele>
        <time>2021-03-27T15:13:56Z</time>
      </trkpt>
      <trkpt lat="46.04662" lon="6.11265">
        <ele>917.2</ele>
        <time>2021-03-27T15:13:57Z</time>
      </trkpt>
      <trkpt lat="46.04664" lon="6.1126">
        <ele>917.4</ele>
        <time>2021-03-27T15:13:58Z</time>
      </trkpt>
      <trkpt lat="46.04667" lon="6.11257">
        <ele>917.4</ele>
        <time>2021-03-27T15:13:59Z</time>
      </trkpt>
      <trkpt lat="46.0467" lon="6.11253">
        <ele>917.6</ele>
        <time>2021-03-27T15:14:00Z</time>
      </trkpt>
      <trkpt lat="46.04673" lon="6.1125">
        <ele>917.8</ele>
        <time>2021-03-27T15:14:01Z</time>
      </trkpt>
      <trkpt lat="46.04676" lon="6.11247">
        <ele>917.8</ele>
        <time>2021-03-27T15:14:02Z</time>
      </trkpt>
      <trkpt lat="46.0468" lon="6.11244">
        <ele>918</ele>
        <time>2021-03-27T15:14:03Z</time>
      </trkpt>
      <trkpt lat="46.04683" lon="6.11242">
        <ele>918.2</ele>
        <time>2021-03-27T15:14:04Z</time>
      </trkpt>
      <trkpt lat="46.04686" lon="6.11239">
        <ele>918.4</ele>
        <time>2021-03-27T15:14:05Z</time>
      </trkpt>
      <trkpt lat="46.04689" lon="6.11236">
        <ele>918.6</ele>
        <time>2021-03-27T15:14:06Z</time>
      </trkpt>
      <trkpt lat="46.04693" lon="6.11233">
        <ele>918.6</ele>
        <time>2021-03-27T15:14:07Z</time>
      </trkpt>
      <trkpt lat="46.04696" lon="6.1123">
        <ele>918.6</ele>
        <time>2021-03-27T15:14:08Z</time>
      </trkpt>
      <trkpt lat="46.04699" lon="6.11227">
        <ele>918.8</ele>
        <time>2021-03-27T15:14:09Z</time>
      </trkpt>
      <trkpt lat="46.04702" lon="6.11224">
        <ele>919.2</ele>
        <time>2021-03-27T15:14:10Z</time>
      </trkpt>
      <trkpt lat="46.04704" lon="6.11221">
        <ele>919.2</ele>
        <time>2021-03-27T15:14:11Z</time>
      </trkpt>
      <trkpt lat="46.04707" lon="6.11217">
        <ele>919.4</ele>
        <time>2021-03-27T15:14:12Z</time>
      </trkpt>
      <trkpt lat="46.04709" lon="6.11213">
        <ele>919.6</ele>
        <time>2021-03-27T15:14:13Z</time>
      </trkpt>
      <trkpt lat="46.04712" lon="6.11209">
        <ele>919.6</ele>
        <time>2021-03-27T15:14:14Z</time>
      </trkpt>
      <trkpt lat="46.04714" lon="6.11204">
        <ele>919.8</ele>
        <time>2021-03-27T15:14:15Z</time>
      </trkpt>
      <trkpt lat="46.04715" lon="6.11199">
        <ele>920</ele>
        <time>2021-03-27T15:14:16Z</time>
      </trkpt>
      <trkpt lat="46.04716" lon="6.11194">
        <ele>920.2</ele>
        <time>2021-03-27T15:14:17Z</time>
      </trkpt>
      <trkpt lat="46.04718" lon="6.11188">
        <ele>920.4</ele>
        <time>2021-03-27T15:14:18Z</time>
      </trkpt>
      <trkpt lat="46.04719" lon="6.11183">
        <ele>920.6</ele>
        <time>2021-03-27T15:14:19Z</time>
      </trkpt>
      <trkpt lat="46.0472" lon="6.11178">
        <ele>920.6</ele>
        <time>2021-03-27T15:14:20Z</time>
      </trkpt>
      <trkpt lat="46.04722" lon="6.11173">
        <ele>920.8</ele>
        <time>2021-03-27T15:14:21Z</time>
      </trkpt>
      <trkpt lat="46.04724" lon="6.11169">
        <ele>921.2</ele>
        <time>2021-03-27T15:14:22Z</time>
      </trkpt>
      <trkpt lat="46.04725" lon="6.11164">
        <ele>921.6</ele>
        <time>2021-03-27T15:14:23Z</time>
      </trkpt>
      <trkpt lat="46.04727" lon="6.11161">
        <ele>921.6</ele>
        <time>2021-03-27T15:14:24Z</time>
      </trkpt>
      <trkpt lat="46.0473" lon="6.11157">
        <ele>921.8</ele>
        <time>2021-03-27T15:14:25Z</time>
      </trkpt>
      <trkpt lat="46.04732" lon="6.11154">
        <ele>922</ele>
        <time>2021-03-27T15:14:26Z</time>
      </trkpt>
      <trkpt lat="46.04735" lon="6.11152">
        <ele>922</ele>
        <time>2021-03-27T15:14:27Z</time>
      </trkpt>
      <trkpt lat="46.04738" lon="6.11149">
        <ele>922.4</ele>
        <time>2021-03-27T15:14:28Z</time>
      </trkpt>
      <trkpt lat="46.04741" lon="6.11147">
        <ele>922.4</ele>
        <time>2021-03-27T15:14:29Z</time>
      </trkpt>
      <trkpt lat="46.04744" lon="6.11145">
        <ele>922.8</ele>
        <time>2021-03-27T15:14:30Z</time>
      </trkpt>
      <trkpt lat="46.04747" lon="6.11142">
        <ele>923.2</ele>
        <time>2021-03-27T15:14:31Z</time>
      </trkpt>
      <trkpt lat="46.0475" lon="6.1114">
        <ele>923.2</ele>
        <time>2021-03-27T15:14:32Z</time>
      </trkpt>
      <trkpt lat="46.04753" lon="6.11139">
        <ele>923.6</ele>
        <time>2021-03-27T15:14:33Z</time>
      </trkpt>
      <trkpt lat="46.04756" lon="6.11137">
        <ele>924.2</ele>
        <time>2021-03-27T15:14:34Z</time>
      </trkpt>
      <trkpt lat="46.04759" lon="6.11135">
        <ele>924.2</ele>
        <time>2021-03-27T15:14:35Z</time>
      </trkpt>
      <trkpt lat="46.04761" lon="6.11133">
        <ele>924.6</ele>
        <time>2021-03-27T15:14:36Z</time>
      </trkpt>
      <trkpt lat="46.04764" lon="6.11131">
        <ele>924.8</ele>
        <time>2021-03-27T15:14:37Z</time>
      </trkpt>
      <trkpt lat="46.04767" lon="6.1113">
        <ele>925.2</ele>
        <time>2021-03-27T15:14:38Z</time>
      </trkpt>
      <trkpt lat="46.0477" lon="6.11127">
        <ele>925.2</ele>
        <time>2021-03-27T15:14:39Z</time>
      </trkpt>
      <trkpt lat="46.04772" lon="6.11125">
        <ele>925.8</ele>
        <time>2021-03-27T15:14:40Z</time>
      </trkpt>
      <trkpt lat="46.04775" lon="6.11122">
        <ele>926</ele>
        <time>2021-03-27T15:14:41Z</time>
      </trkpt>
      <trkpt lat="46.04777" lon="6.1112">
        <ele>926.2</ele>
        <time>2021-03-27T15:14:42Z</time>
      </trkpt>
      <trkpt lat="46.04779" lon="6.11117">
        <ele>926.6</ele>
        <time>2021-03-27T15:14:43Z</time>
      </trkpt>
      <trkpt lat="46.04782" lon="6.11114">
        <ele>926.8</ele>
        <time>2021-03-27T15:14:44Z</time>
      </trkpt>
      <trkpt lat="46.04784" lon="6.1111">
        <ele>927</ele>
        <time>2021-03-27T15:14:45Z</time>
      </trkpt>
      <trkpt lat="46.04786" lon="6.11106">
        <ele>927.4</ele>
        <time>2021-03-27T15:14:46Z</time>
      </trkpt>
      <trkpt lat="46.04789" lon="6.11103">
        <ele>927.6</ele>
        <time>2021-03-27T15:14:47Z</time>
      </trkpt>
      <trkpt lat="46.04791" lon="6.11099">
        <ele>927.8</ele>
        <time>2021-03-27T15:14:48Z</time>
      </trkpt>
      <trkpt lat="46.04793" lon="6.11096">
        <ele>928</ele>
        <time>2021-03-27T15:14:49Z</time>
      </trkpt>
      <trkpt lat="46.04796" lon="6.11093">
        <ele>928.4</ele>
        <time>2021-03-27T15:14:50Z</time>
      </trkpt>
      <trkpt lat="46.04798" lon="6.11089">
        <ele>928.6</ele>
        <time>2021-03-27T15:14:51Z</time>
      </trkpt>
      <trkpt lat="46.048" lon="6.11085">
        <ele>928.8</ele>
        <time>2021-03-27T15:14:52Z</time>
      </trkpt>
      <trkpt lat="46.04802" lon="6.11081">
        <ele>929</ele>
        <time>2021-03-27T15:14:53Z</time>
      </trkpt>
      <trkpt lat="46.04804" lon="6.11077">
        <ele>929.2</ele>
        <time>2021-03-27T15:14:54Z</time>
      </trkpt>
      <trkpt lat="46.04806" lon="6.11073">
        <ele>929.6</ele>
        <time>2021-03-27T15:14:55Z</time>
      </trkpt>
      <trkpt lat="46.04807" lon="6.11069">
        <ele>929.6</ele>
        <time>2021-03-27T15:14:56Z</time>
      </trkpt>
      <trkpt lat="46.04809" lon="6.11065">
        <ele>929.6</ele>
        <time>2021-03-27T15:14:57Z</time>
      </trkpt>
      <trkpt lat="46.04811" lon="6.11062">
        <ele>930</ele>
        <time>2021-03-27T15:14:58Z</time>
      </trkpt>
      <trkpt lat="46.04813" lon="6.11058">
        <ele>930.2</ele>
        <time>2021-03-27T15:14:59Z</time>
      </trkpt>
      <trkpt lat="46.04815" lon="6.11055">
        <ele>930.2</ele>
        <time>2021-03-27T15:15:00Z</time>
      </trkpt>
      <trkpt lat="46.04817" lon="6.11052">
        <ele>930.4</ele>
        <time>2021-03-27T15:15:01Z</time>
      </trkpt>
      <trkpt lat="46.0482" lon="6.11049">
        <ele>930.4</ele>
        <time>2021-03-27T15:15:02Z</time>
      </trkpt>
      <trkpt lat="46.04823" lon="6.11046">
        <ele>930.8</ele>
        <time>2021-03-27T15:15:03Z</time>
      </trkpt>
      <trkpt lat="46.04825" lon="6.11043">
        <ele>930.8</ele>
        <time>2021-03-27T15:15:04Z</time>
      </trkpt>
      <trkpt lat="46.04828" lon="6.1104">
        <ele>931</ele>
        <time>2021-03-27T15:15:05Z</time>
      </trkpt>
      <trkpt lat="46.04831" lon="6.11038">
        <ele>931</ele>
        <time>2021-03-27T15:15:06Z</time>
      </trkpt>
      <trkpt lat="46.04833" lon="6.11035">
        <ele>931.4</ele>
        <time>2021-03-27T15:15:07Z</time>
      </trkpt>
      <trkpt lat="46.04836" lon="6.11032">
        <ele>931.6</ele>
        <time>2021-03-27T15:15:08Z</time>
      </trkpt>
      <trkpt lat="46.04838" lon="6.1103">
        <ele>932</ele>
        <time>2021-03-27T15:15:09Z</time>
      </trkpt>
      <trkpt lat="46.04841" lon="6.11027">
        <ele>932.2</ele>
        <time>2021-03-27T15:15:10Z</time>
      </trkpt>
      <trkpt lat="46.04844" lon="6.11025">
        <ele>932.6</ele>
        <time>2021-03-27T15:15:11Z</time>
      </trkpt>
      <trkpt lat="46.04846" lon="6.11023">
        <ele>932.6</ele>
        <time>2021-03-27T15:15:12Z</time>
      </trkpt>
      <trkpt lat="46.04849" lon="6.11021">
        <ele>933</ele>
        <time>2021-03-27T15:15:13Z</time>
      </trkpt>
      <trkpt lat="46.04851" lon="6.11019">
        <ele>933</ele>
        <time>2021-03-27T15:15:14Z</time>
      </trkpt>
      <trkpt lat="46.04853" lon="6.11016">
        <ele>933.4</ele>
        <time>2021-03-27T15:15:15Z</time>
      </trkpt>
      <trkpt lat="46.04856" lon="6.11013">
        <ele>933.2</ele>
        <time>2021-03-27T15:15:16Z</time>
      </trkpt>
      <trkpt lat="46.04858" lon="6.11011">
        <ele>933.8</ele>
        <time>2021-03-27T15:15:17Z</time>
      </trkpt>
      <trkpt lat="46.0486" lon="6.11008">
        <ele>933.8</ele>
        <time>2021-03-27T15:15:18Z</time>
      </trkpt>
      <trkpt lat="46.04863" lon="6.11005">
        <ele>934</ele>
        <time>2021-03-27T15:15:19Z</time>
      </trkpt>
      <trkpt lat="46.04865" lon="6.11002">
        <ele>934.2</ele>
        <time>2021-03-27T15:15:20Z</time>
      </trkpt>
      <trkpt lat="46.04867" lon="6.11">
        <ele>934.6</ele>
        <time>2021-03-27T15:15:21Z</time>
      </trkpt>
      <trkpt lat="46.0487" lon="6.10997">
        <ele>934.6</ele>
        <time>2021-03-27T15:15:22Z</time>
      </trkpt>
      <trkpt lat="46.04872" lon="6.10994">
        <ele>935</ele>
        <time>2021-03-27T15:15:23Z</time>
      </trkpt>
      <trkpt lat="46.04874" lon="6.10991">
        <ele>935.2</ele>
        <time>2021-03-27T15:15:24Z</time>
      </trkpt>
      <trkpt lat="46.04877" lon="6.10987">
        <ele>935.4</ele>
        <time>2021-03-27T15:15:25Z</time>
      </trkpt>
      <trkpt lat="46.04879" lon="6.10984">
        <ele>935.6</ele>
        <time>2021-03-27T15:15:26Z</time>
      </trkpt>
      <trkpt lat="46.04881" lon="6.10981">
        <ele>935.8</ele>
        <time>2021-03-27T15:15:27Z</time>
      </trkpt>
      <trkpt lat="46.04883" lon="6.10977">
        <ele>936</ele>
        <time>2021-03-27T15:15:28Z</time>
      </trkpt>
      <trkpt lat="46.04885" lon="6.10974">
        <ele>936.2</ele>
        <time>2021-03-27T15:15:29Z</time>
      </trkpt>
      <trkpt lat="46.04887" lon="6.1097">
        <ele>936.6</ele>
        <time>2021-03-27T15:15:30Z</time>
      </trkpt>
      <trkpt lat="46.04889" lon="6.10967">
        <ele>936.8</ele>
        <time>2021-03-27T15:15:31Z</time>
      </trkpt>
      <trkpt lat="46.04891" lon="6.10964">
        <ele>937</ele>
        <time>2021-03-27T15:15:32Z</time>
      </trkpt>
      <trkpt lat="46.04893" lon="6.10961">
        <ele>937.2</ele>
        <time>2021-03-27T15:15:33Z</time>
      </trkpt>
      <trkpt lat="46.04895" lon="6.10958">
        <ele>937.4</ele>
        <time>2021-03-27T15:15:34Z</time>
      </trkpt>
      <trkpt lat="46.04897" lon="6.10955">
        <ele>937.6</ele>
        <time>2021-03-27T15:15:35Z</time>
      </trkpt>
      <trkpt lat="46.049" lon="6.10952">
        <ele>937.8</ele>
        <time>2021-03-27T15:15:36Z</time>
      </trkpt>
      <trkpt lat="46.04902" lon="6.10949">
        <ele>938.2</ele>
        <time>2021-03-27T15:15:37Z</time>
      </trkpt>
      <trkpt lat="46.04904" lon="6.10946">
        <ele>938.6</ele>
        <time>2021-03-27T15:15:38Z</time>
      </trkpt>
      <trkpt lat="46.04907" lon="6.10944">
        <ele>938.8</ele>
        <time>2021-03-27T15:15:39Z</time>
      </trkpt>
      <trkpt lat="46.0491" lon="6.10943">
        <ele>939.2</ele>
        <time>2021-03-27T15:15:40Z</time>
      </trkpt>
      <trkpt lat="46.04913" lon="6.10942">
        <ele>939.4</ele>
        <time>2021-03-27T15:15:41Z</time>
      </trkpt>
      <trkpt lat="46.04916" lon="6.10942">
        <ele>939.6</ele>
        <time>2021-03-27T15:15:42Z</time>
      </trkpt>
      <trkpt lat="46.04919" lon="6.10941">
        <ele>939.8</ele>
        <time>2021-03-27T15:15:43Z</time>
      </trkpt>
      <trkpt lat="46.04922" lon="6.10941">
        <ele>939.8</ele>
        <time>2021-03-27T15:15:44Z</time>
      </trkpt>
      <trkpt lat="46.04925" lon="6.10942">
        <ele>939.8</ele>
        <time>2021-03-27T15:15:45Z</time>
      </trkpt>
      <trkpt lat="46.04928" lon="6.10942">
        <ele>940</ele>
        <time>2021-03-27T15:15:46Z</time>
      </trkpt>
      <trkpt lat="46.04931" lon="6.10942">
        <ele>940</ele>
        <time>2021-03-27T15:15:47Z</time>
      </trkpt>
      <trkpt lat="46.04933" lon="6.10943">
        <ele>940.4</ele>
        <time>2021-03-27T15:15:48Z</time>
      </trkpt>
      <trkpt lat="46.04936" lon="6.10944">
        <ele>940.4</ele>
        <time>2021-03-27T15:15:49Z</time>
      </trkpt>
      <trkpt lat="46.04938" lon="6.10945">
        <ele>940.8</ele>
        <time>2021-03-27T15:15:50Z</time>
      </trkpt>
      <trkpt lat="46.04941" lon="6.10947">
        <ele>940.8</ele>
        <time>2021-03-27T15:15:51Z</time>
      </trkpt>
      <trkpt lat="46.04944" lon="6.10948">
        <ele>941.2</ele>
        <time>2021-03-27T15:15:52Z</time>
      </trkpt>
      <trkpt lat="46.04946" lon="6.1095">
        <ele>941.4</ele>
        <time>2021-03-27T15:15:53Z</time>
      </trkpt>
      <trkpt lat="46.04949" lon="6.10953">
        <ele>941.6</ele>
        <time>2021-03-27T15:15:54Z</time>
      </trkpt>
      <trkpt lat="46.04952" lon="6.10955">
        <ele>942</ele>
        <time>2021-03-27T15:15:55Z</time>
      </trkpt>
      <trkpt lat="46.04954" lon="6.10956">
        <ele>942</ele>
        <time>2021-03-27T15:15:56Z</time>
      </trkpt>
      <trkpt lat="46.04956" lon="6.10958">
        <ele>942.2</ele>
        <time>2021-03-27T15:15:57Z</time>
      </trkpt>
      <trkpt lat="46.04958" lon="6.10959">
        <ele>942.6</ele>
        <time>2021-03-27T15:15:58Z</time>
      </trkpt>
      <trkpt lat="46.0496" lon="6.10961">
        <ele>942.8</ele>
        <time>2021-03-27T15:15:59Z</time>
      </trkpt>
      <trkpt lat="46.04963" lon="6.10962">
        <ele>943</ele>
        <time>2021-03-27T15:16:00Z</time>
      </trkpt>
      <trkpt lat="46.04965" lon="6.10964">
        <ele>943.2</ele>
        <time>2021-03-27T15:16:01Z</time>
      </trkpt>
      <trkpt lat="46.04967" lon="6.10966">
        <ele>943.4</ele>
        <time>2021-03-27T15:16:02Z</time>
      </trkpt>
      <trkpt lat="46.0497" lon="6.10968">
        <ele>943.6</ele>
        <time>2021-03-27T15:16:03Z</time>
      </trkpt>
      <trkpt lat="46.04972" lon="6.10971">
        <ele>944</ele>
        <time>2021-03-27T15:16:04Z</time>
      </trkpt>
      <trkpt lat="46.04975" lon="6.10973">
        <ele>944</ele>
        <time>2021-03-27T15:16:05Z</time>
      </trkpt>
      <trkpt lat="46.04977" lon="6.10975">
        <ele>944</ele>
        <time>2021-03-27T15:16:06Z</time>
      </trkpt>
      <trkpt lat="46.0498" lon="6.10977">
        <ele>944.4</ele>
        <time>2021-03-27T15:16:07Z</time>
      </trkpt>
      <trkpt lat="46.04982" lon="6.10979">
        <ele>944.6</ele>
        <time>2021-03-27T15:16:08Z</time>
      </trkpt>
      <trkpt lat="46.04985" lon="6.10981">
        <ele>944.8</ele>
        <time>2021-03-27T15:16:09Z</time>
      </trkpt>
      <trkpt lat="46.04987" lon="6.10983">
        <ele>944.8</ele>
        <time>2021-03-27T15:16:10Z</time>
      </trkpt>
      <trkpt lat="46.0499" lon="6.10985">
        <ele>945.2</ele>
        <time>2021-03-27T15:16:11Z</time>
      </trkpt>
      <trkpt lat="46.04992" lon="6.10987">
        <ele>945.6</ele>
        <time>2021-03-27T15:16:12Z</time>
      </trkpt>
      <trkpt lat="46.04995" lon="6.10989">
        <ele>945.6</ele>
        <time>2021-03-27T15:16:13Z</time>
      </trkpt>
      <trkpt lat="46.04998" lon="6.10991">
        <ele>946</ele>
        <time>2021-03-27T15:16:14Z</time>
      </trkpt>
      <trkpt lat="46.05" lon="6.10992">
        <ele>946</ele>
        <time>2021-03-27T15:16:15Z</time>
      </trkpt>
      <trkpt lat="46.05003" lon="6.10994">
        <ele>946.2</ele>
        <time>2021-03-27T15:16:16Z</time>
      </trkpt>
      <trkpt lat="46.05006" lon="6.10995">
        <ele>946.4</ele>
        <time>2021-03-27T15:16:17Z</time>
      </trkpt>
      <trkpt lat="46.05009" lon="6.10996">
        <ele>946.6</ele>
        <time>2021-03-27T15:16:18Z</time>
      </trkpt>
      <trkpt lat="46.05012" lon="6.10997">
        <ele>946.6</ele>
        <time>2021-03-27T15:16:19Z</time>
      </trkpt>
      <trkpt lat="46.05015" lon="6.10998">
        <ele>946.8</ele>
        <time>2021-03-27T15:16:20Z</time>
      </trkpt>
      <trkpt lat="46.05018" lon="6.10998">
        <ele>947.2</ele>
        <time>2021-03-27T15:16:21Z</time>
      </trkpt>
      <trkpt lat="46.0502" lon="6.10998">
        <ele>947.6</ele>
        <time>2021-03-27T15:16:22Z</time>
      </trkpt>
      <trkpt lat="46.05024" lon="6.10998">
        <ele>947.8</ele>
        <time>2021-03-27T15:16:23Z</time>
      </trkpt>
      <trkpt lat="46.05027" lon="6.10997">
        <ele>948</ele>
        <time>2021-03-27T15:16:24Z</time>
      </trkpt>
      <trkpt lat="46.0503" lon="6.10996">
        <ele>948.2</ele>
        <time>2021-03-27T15:16:25Z</time>
      </trkpt>
      <trkpt lat="46.05033" lon="6.10995">
        <ele>948.4</ele>
        <time>2021-03-27T15:16:26Z</time>
      </trkpt>
      <trkpt lat="46.05035" lon="6.10993">
        <ele>948.4</ele>
        <time>2021-03-27T15:16:27Z</time>
      </trkpt>
      <trkpt lat="46.05038" lon="6.10991">
        <ele>948.6</ele>
        <time>2021-03-27T15:16:28Z</time>
      </trkpt>
      <trkpt lat="46.0504" lon="6.10988">
        <ele>948.8</ele>
        <time>2021-03-27T15:16:29Z</time>
      </trkpt>
      <trkpt lat="46.05042" lon="6.10986">
        <ele>949</ele>
        <time>2021-03-27T15:16:30Z</time>
      </trkpt>
      <trkpt lat="46.05044" lon="6.10983">
        <ele>949.4</ele>
        <time>2021-03-27T15:16:31Z</time>
      </trkpt>
      <trkpt lat="46.05046" lon="6.1098">
        <ele>949.6</ele>
        <time>2021-03-27T15:16:32Z</time>
      </trkpt>
      <trkpt lat="46.05047" lon="6.10976">
        <ele>949.6</ele>
        <time>2021-03-27T15:16:33Z</time>
      </trkpt>
      <trkpt lat="46.05048" lon="6.10972">
        <ele>949.8</ele>
        <time>2021-03-27T15:16:34Z</time>
      </trkpt>
      <trkpt lat="46.05049" lon="6.10968">
        <ele>949.8</ele>
        <time>2021-03-27T15:16:35Z</time>
      </trkpt>
      <trkpt lat="46.05049" lon="6.10965">
        <ele>950</ele>
        <time>2021-03-27T15:16:36Z</time>
      </trkpt>
      <trkpt lat="46.05049" lon="6.10961">
        <ele>950</ele>
        <time>2021-03-27T15:16:37Z</time>
      </trkpt>
      <trkpt lat="46.05048" lon="6.10958">
        <ele>950.2</ele>
        <time>2021-03-27T15:16:38Z</time>
      </trkpt>
      <trkpt lat="46.05047" lon="6.10954">
        <ele>950.2</ele>
        <time>2021-03-27T15:16:39Z</time>
      </trkpt>
      <trkpt lat="46.05045" lon="6.10951">
        <ele>950.4</ele>
        <time>2021-03-27T15:16:40Z</time>
      </trkpt>
      <trkpt lat="46.05042" lon="6.10947">
        <ele>950.6</ele>
        <time>2021-03-27T15:16:41Z</time>
      </trkpt>
      <trkpt lat="46.0504" lon="6.10944">
        <ele>950.6</ele>
        <time>2021-03-27T15:16:42Z</time>
      </trkpt>
      <trkpt lat="46.05037" lon="6.1094">
        <ele>951</ele>
        <time>2021-03-27T15:16:43Z</time>
      </trkpt>
      <trkpt lat="46.05034" lon="6.10937">
        <ele>951</ele>
        <time>2021-03-27T15:16:44Z</time>
      </trkpt>
      <trkpt lat="46.05032" lon="6.10934">
        <ele>951.4</ele>
        <time>2021-03-27T15:16:45Z</time>
      </trkpt>
      <trkpt lat="46.05029" lon="6.10931">
        <ele>951.4</ele>
        <time>2021-03-27T15:16:46Z</time>
      </trkpt>
      <trkpt lat="46.05027" lon="6.10928">
        <ele>951.6</ele>
        <time>2021-03-27T15:16:47Z</time>
      </trkpt>
      <trkpt lat="46.05025" lon="6.10924">
        <ele>951.8</ele>
        <time>2021-03-27T15:16:48Z</time>
      </trkpt>
      <trkpt lat="46.05022" lon="6.1092">
        <ele>952</ele>
        <time>2021-03-27T15:16:49Z</time>
      </trkpt>
      <trkpt lat="46.05021" lon="6.10916">
        <ele>952</ele>
        <time>2021-03-27T15:16:50Z</time>
      </trkpt>
      <trkpt lat="46.05018" lon="6.10913">
        <ele>952.4</ele>
        <time>2021-03-27T15:16:51Z</time>
      </trkpt>
      <trkpt lat="46.05017" lon="6.10909">
        <ele>952.6</ele>
        <time>2021-03-27T15:16:52Z</time>
      </trkpt>
      <trkpt lat="46.05016" lon="6.10905">
        <ele>952.6</ele>
        <time>2021-03-27T15:16:53Z</time>
      </trkpt>
      <trkpt lat="46.05015" lon="6.10901">
        <ele>952.8</ele>
        <time>2021-03-27T15:16:54Z</time>
      </trkpt>
      <trkpt lat="46.05015" lon="6.10896">
        <ele>952.8</ele>
        <time>2021-03-27T15:16:55Z</time>
      </trkpt>
      <trkpt lat="46.05015" lon="6.10891">
        <ele>952.8</ele>
        <time>2021-03-27T15:16:56Z</time>
      </trkpt>
      <trkpt lat="46.05015" lon="6.10887">
        <ele>953</ele>
        <time>2021-03-27T15:16:57Z</time>
      </trkpt>
      <trkpt lat="46.05016" lon="6.10882">
        <ele>953.2</ele>
        <time>2021-03-27T15:16:58Z</time>
      </trkpt>
      <trkpt lat="46.05017" lon="6.10876">
        <ele>953.4</ele>
        <time>2021-03-27T15:16:59Z</time>
      </trkpt>
      <trkpt lat="46.05017" lon="6.10871">
        <ele>953.4</ele>
        <time>2021-03-27T15:17:00Z</time>
      </trkpt>
      <trkpt lat="46.05018" lon="6.10866">
        <ele>953.8</ele>
        <time>2021-03-27T15:17:01Z</time>
      </trkpt>
      <trkpt lat="46.05018" lon="6.10861">
        <ele>954</ele>
        <time>2021-03-27T15:17:02Z</time>
      </trkpt>
      <trkpt lat="46.05019" lon="6.10857">
        <ele>954.2</ele>
        <time>2021-03-27T15:17:03Z</time>
      </trkpt>
      <trkpt lat="46.0502" lon="6.10852">
        <ele>954</ele>
        <time>2021-03-27T15:17:04Z</time>
      </trkpt>
      <trkpt lat="46.05021" lon="6.10848">
        <ele>954</ele>
        <time>2021-03-27T15:17:05Z</time>
      </trkpt>
      <trkpt lat="46.05022" lon="6.10844">
        <ele>954.2</ele>
        <time>2021-03-27T15:17:06Z</time>
      </trkpt>
      <trkpt lat="46.05024" lon="6.10839">
        <ele>954.4</ele>
        <time>2021-03-27T15:17:07Z</time>
      </trkpt>
      <trkpt lat="46.05025" lon="6.10836">
        <ele>954.4</ele>
        <time>2021-03-27T15:17:08Z</time>
      </trkpt>
      <trkpt lat="46.05027" lon="6.10832">
        <ele>954.8</ele>
        <time>2021-03-27T15:17:09Z</time>
      </trkpt>
      <trkpt lat="46.05029" lon="6.10829">
        <ele>955.2</ele>
        <time>2021-03-27T15:17:10Z</time>
      </trkpt>
      <trkpt lat="46.05031" lon="6.10825">
        <ele>955.6</ele>
        <time>2021-03-27T15:17:11Z</time>
      </trkpt>
      <trkpt lat="46.05034" lon="6.10823">
        <ele>955.8</ele>
        <time>2021-03-27T15:17:12Z</time>
      </trkpt>
      <trkpt lat="46.05037" lon="6.1082">
        <ele>955.8</ele>
        <time>2021-03-27T15:17:13Z</time>
      </trkpt>
      <trkpt lat="46.0504" lon="6.10818">
        <ele>956.2</ele>
        <time>2021-03-27T15:17:14Z</time>
      </trkpt>
      <trkpt lat="46.05043" lon="6.10816">
        <ele>956.2</ele>
        <time>2021-03-27T15:17:15Z</time>
      </trkpt>
      <trkpt lat="46.05046" lon="6.10815">
        <ele>956.6</ele>
        <time>2021-03-27T15:17:16Z</time>
      </trkpt>
      <trkpt lat="46.05049" lon="6.10813">
        <ele>956.4</ele>
        <time>2021-03-27T15:17:17Z</time>
      </trkpt>
      <trkpt lat="46.05052" lon="6.10812">
        <ele>956.6</ele>
        <time>2021-03-27T15:17:18Z</time>
      </trkpt>
      <trkpt lat="46.05055" lon="6.10811">
        <ele>956.8</ele>
        <time>2021-03-27T15:17:19Z</time>
      </trkpt>
      <trkpt lat="46.05058" lon="6.10811">
        <ele>957</ele>
        <time>2021-03-27T15:17:20Z</time>
      </trkpt>
      <trkpt lat="46.05062" lon="6.1081">
        <ele>957.4</ele>
        <time>2021-03-27T15:17:21Z</time>
      </trkpt>
      <trkpt lat="46.05065" lon="6.10809">
        <ele>957.4</ele>
        <time>2021-03-27T15:17:22Z</time>
      </trkpt>
      <trkpt lat="46.05068" lon="6.10808">
        <ele>957.4</ele>
        <time>2021-03-27T15:17:23Z</time>
      </trkpt>
      <trkpt lat="46.05071" lon="6.10808">
        <ele>957.8</ele>
        <time>2021-03-27T15:17:24Z</time>
      </trkpt>
      <trkpt lat="46.05074" lon="6.10807">
        <ele>958.2</ele>
        <time>2021-03-27T15:17:25Z</time>
      </trkpt>
      <trkpt lat="46.05077" lon="6.10806">
        <ele>958.2</ele>
        <time>2021-03-27T15:17:26Z</time>
      </trkpt>
      <trkpt lat="46.0508" lon="6.10805">
        <ele>958.4</ele>
        <time>2021-03-27T15:17:27Z</time>
      </trkpt>
      <trkpt lat="46.05083" lon="6.10803">
        <ele>958.6</ele>
        <time>2021-03-27T15:17:28Z</time>
      </trkpt>
      <trkpt lat="46.05086" lon="6.10802">
        <ele>958.8</ele>
        <time>2021-03-27T15:17:29Z</time>
      </trkpt>
      <trkpt lat="46.05089" lon="6.108">
        <ele>959</ele>
        <time>2021-03-27T15:17:30Z</time>
      </trkpt>
      <trkpt lat="46.05091" lon="6.10799">
        <ele>959</ele>
        <time>2021-03-27T15:17:31Z</time>
      </trkpt>
      <trkpt lat="46.05094" lon="6.10798">
        <ele>959.2</ele>
        <time>2021-03-27T15:17:32Z</time>
      </trkpt>
      <trkpt lat="46.05096" lon="6.10796">
        <ele>959.4</ele>
        <time>2021-03-27T15:17:33Z</time>
      </trkpt>
      <trkpt lat="46.05099" lon="6.10795">
        <ele>959.6</ele>
        <time>2021-03-27T15:17:34Z</time>
      </trkpt>
      <trkpt lat="46.05101" lon="6.10793">
        <ele>959.6</ele>
        <time>2021-03-27T15:17:35Z</time>
      </trkpt>
      <trkpt lat="46.05104" lon="6.10791">
        <ele>959.8</ele>
        <time>2021-03-27T15:17:36Z</time>
      </trkpt>
      <trkpt lat="46.05107" lon="6.1079">
        <ele>960</ele>
        <time>2021-03-27T15:17:37Z</time>
      </trkpt>
      <trkpt lat="46.05109" lon="6.10787">
        <ele>960.4</ele>
        <time>2021-03-27T15:17:38Z</time>
      </trkpt>
      <trkpt lat="46.0511" lon="6.10784">
        <ele>960.2</ele>
        <time>2021-03-27T15:17:39Z</time>
      </trkpt>
      <trkpt lat="46.05112" lon="6.10781">
        <ele>960.8</ele>
        <time>2021-03-27T15:17:40Z</time>
      </trkpt>
      <trkpt lat="46.05113" lon="6.10777">
        <ele>961</ele>
        <time>2021-03-27T15:17:41Z</time>
      </trkpt>
      <trkpt lat="46.05114" lon="6.10773">
        <ele>961.2</ele>
        <time>2021-03-27T15:17:42Z</time>
      </trkpt>
      <trkpt lat="46.05115" lon="6.10768">
        <ele>961.4</ele>
        <time>2021-03-27T15:17:43Z</time>
      </trkpt>
      <trkpt lat="46.05115" lon="6.10764">
        <ele>961.6</ele>
        <time>2021-03-27T15:17:44Z</time>
      </trkpt>
      <trkpt lat="46.05115" lon="6.1076">
        <ele>961.8</ele>
        <time>2021-03-27T15:17:45Z</time>
      </trkpt>
      <trkpt lat="46.05115" lon="6.10756">
        <ele>962.2</ele>
        <time>2021-03-27T15:17:46Z</time>
      </trkpt>
      <trkpt lat="46.05115" lon="6.10753">
        <ele>962.6</ele>
        <time>2021-03-27T15:17:47Z</time>
      </trkpt>
      <trkpt lat="46.05114" lon="6.10749">
        <ele>962.8</ele>
        <time>2021-03-27T15:17:48Z</time>
      </trkpt>
      <trkpt lat="46.05114" lon="6.10745">
        <ele>963.4</ele>
        <time>2021-03-27T15:17:49Z</time>
      </trkpt>
      <trkpt lat="46.05114" lon="6.10741">
        <ele>963.8</ele>
        <time>2021-03-27T15:17:50Z</time>
      </trkpt>
      <trkpt lat="46.05115" lon="6.10736">
        <ele>963.8</ele>
        <time>2021-03-27T15:17:51Z</time>
      </trkpt>
      <trkpt lat="46.05115" lon="6.10732">
        <ele>964</ele>
        <time>2021-03-27T15:17:52Z</time>
      </trkpt>
      <trkpt lat="46.05115" lon="6.10727">
        <ele>964.2</ele>
        <time>2021-03-27T15:17:53Z</time>
      </trkpt>
      <trkpt lat="46.05115" lon="6.10723">
        <ele>964.2</ele>
        <time>2021-03-27T15:17:54Z</time>
      </trkpt>
      <trkpt lat="46.05114" lon="6.10719">
        <ele>964.2</ele>
        <time>2021-03-27T15:17:55Z</time>
      </trkpt>
      <trkpt lat="46.05114" lon="6.10714">
        <ele>964.4</ele>
        <time>2021-03-27T15:17:56Z</time>
      </trkpt>
      <trkpt lat="46.05114" lon="6.1071">
        <ele>964.4</ele>
        <time>2021-03-27T15:17:57Z</time>
      </trkpt>
      <trkpt lat="46.05114" lon="6.10706">
        <ele>964.4</ele>
        <time>2021-03-27T15:17:58Z</time>
      </trkpt>
      <trkpt lat="46.05113" lon="6.10702">
        <ele>964.6</ele>
        <time>2021-03-27T15:17:59Z</time>
      </trkpt>
      <trkpt lat="46.05113" lon="6.10698">
        <ele>964.6</ele>
        <time>2021-03-27T15:18:00Z</time>
      </trkpt>
      <trkpt lat="46.05113" lon="6.10693">
        <ele>964.6</ele>
        <time>2021-03-27T15:18:01Z</time>
      </trkpt>
      <trkpt lat="46.05112" lon="6.10689">
        <ele>964.6</ele>
        <time>2021-03-27T15:18:02Z</time>
      </trkpt>
      <trkpt lat="46.05112" lon="6.10685">
        <ele>964.8</ele>
        <time>2021-03-27T15:18:03Z</time>
      </trkpt>
      <trkpt lat="46.05112" lon="6.10681">
        <ele>965</ele>
        <time>2021-03-27T15:18:04Z</time>
      </trkpt>
      <trkpt lat="46.05112" lon="6.10677">
        <ele>965.2</ele>
        <time>2021-03-27T15:18:05Z</time>
      </trkpt>
      <trkpt lat="46.05112" lon="6.10673">
        <ele>965.4</ele>
        <time>2021-03-27T15:18:06Z</time>
      </trkpt>
      <trkpt lat="46.05112" lon="6.10669">
        <ele>965.4</ele>
        <time>2021-03-27T15:18:07Z</time>
      </trkpt>
      <trkpt lat="46.05113" lon="6.10665">
        <ele>965.4</ele>
        <time>2021-03-27T15:18:08Z</time>
      </trkpt>
      <trkpt lat="46.05114" lon="6.10661">
        <ele>965.6</ele>
        <time>2021-03-27T15:18:09Z</time>
      </trkpt>
      <trkpt lat="46.05114" lon="6.10657">
        <ele>965.8</ele>
        <time>2021-03-27T15:18:10Z</time>
      </trkpt>
      <trkpt lat="46.05116" lon="6.10654">
        <ele>965.6</ele>
        <time>2021-03-27T15:18:11Z</time>
      </trkpt>
      <trkpt lat="46.05117" lon="6.1065">
        <ele>965.8</ele>
        <time>2021-03-27T15:18:12Z</time>
      </trkpt>
      <trkpt lat="46.05118" lon="6.10647">
        <ele>966.2</ele>
        <time>2021-03-27T15:18:13Z</time>
      </trkpt>
      <trkpt lat="46.0512" lon="6.10644">
        <ele>966.2</ele>
        <time>2021-03-27T15:18:14Z</time>
      </trkpt>
      <trkpt lat="46.05122" lon="6.1064">
        <ele>966.4</ele>
        <time>2021-03-27T15:18:15Z</time>
      </trkpt>
      <trkpt lat="46.05124" lon="6.10637">
        <ele>966.4</ele>
        <time>2021-03-27T15:18:16Z</time>
      </trkpt>
      <trkpt lat="46.05126" lon="6.10634">
        <ele>966.8</ele>
        <time>2021-03-27T15:18:17Z</time>
      </trkpt>
      <trkpt lat="46.05128" lon="6.1063">
        <ele>966.8</ele>
        <time>2021-03-27T15:18:18Z</time>
      </trkpt>
      <trkpt lat="46.0513" lon="6.10627">
        <ele>967</ele>
        <time>2021-03-27T15:18:19Z</time>
      </trkpt>
      <trkpt lat="46.05131" lon="6.10624">
        <ele>967.2</ele>
        <time>2021-03-27T15:18:20Z</time>
      </trkpt>
      <trkpt lat="46.05133" lon="6.10621">
        <ele>967.6</ele>
        <time>2021-03-27T15:18:21Z</time>
      </trkpt>
      <trkpt lat="46.05135" lon="6.10617">
        <ele>967.8</ele>
        <time>2021-03-27T15:18:22Z</time>
      </trkpt>
      <trkpt lat="46.05136" lon="6.10614">
        <ele>967.8</ele>
        <time>2021-03-27T15:18:23Z</time>
      </trkpt>
      <trkpt lat="46.05138" lon="6.1061">
        <ele>968</ele>
        <time>2021-03-27T15:18:24Z</time>
      </trkpt>
      <trkpt lat="46.05139" lon="6.10606">
        <ele>968.2</ele>
        <time>2021-03-27T15:18:25Z</time>
      </trkpt>
      <trkpt lat="46.0514" lon="6.10602">
        <ele>968.4</ele>
        <time>2021-03-27T15:18:26Z</time>
      </trkpt>
      <trkpt lat="46.0514" lon="6.10598">
        <ele>968.6</ele>
        <time>2021-03-27T15:18:27Z</time>
      </trkpt>
      <trkpt lat="46.05141" lon="6.10593">
        <ele>968.8</ele>
        <time>2021-03-27T15:18:28Z</time>
      </trkpt>
      <trkpt lat="46.05141" lon="6.10589">
        <ele>969.2</ele>
        <time>2021-03-27T15:18:29Z</time>
      </trkpt>
      <trkpt lat="46.05141" lon="6.10584">
        <ele>969.6</ele>
        <time>2021-03-27T15:18:30Z</time>
      </trkpt>
      <trkpt lat="46.05141" lon="6.1058">
        <ele>969.6</ele>
        <time>2021-03-27T15:18:31Z</time>
      </trkpt>
      <trkpt lat="46.0514" lon="6.10576">
        <ele>970</ele>
        <time>2021-03-27T15:18:32Z</time>
      </trkpt>
      <trkpt lat="46.0514" lon="6.10571">
        <ele>970</ele>
        <time>2021-03-27T15:18:33Z</time>
      </trkpt>
      <trkpt lat="46.05139" lon="6.10567">
        <ele>970.4</ele>
        <time>2021-03-27T15:18:34Z</time>
      </trkpt>
      <trkpt lat="46.05139" lon="6.10562">
        <ele>970.6</ele>
        <time>2021-03-27T15:18:35Z</time>
      </trkpt>
      <trkpt lat="46.05138" lon="6.10558">
        <ele>970.6</ele>
        <time>2021-03-27T15:18:36Z</time>
      </trkpt>
      <trkpt lat="46.05138" lon="6.10554">
        <ele>970.8</ele>
        <time>2021-03-27T15:18:37Z</time>
      </trkpt>
      <trkpt lat="46.05138" lon="6.10549">
        <ele>970.8</ele>
        <time>2021-03-27T15:18:38Z</time>
      </trkpt>
      <trkpt lat="46.05137" lon="6.10545">
        <ele>970.8</ele>
        <time>2021-03-27T15:18:39Z</time>
      </trkpt>
      <trkpt lat="46.05137" lon="6.10541">
        <ele>970.8</ele>
        <time>2021-03-27T15:18:40Z</time>
      </trkpt>
      <trkpt lat="46.05137" lon="6.10536">
        <ele>970.8</ele>
        <time>2021-03-27T15:18:41Z</time>
      </trkpt>
      <trkpt lat="46.05136" lon="6.10532">
        <ele>971</ele>
        <time>2021-03-27T15:18:42Z</time>
      </trkpt>
      <trkpt lat="46.05136" lon="6.10528">
        <ele>971.2</ele>
        <time>2021-03-27T15:18:43Z</time>
      </trkpt>
      <trkpt lat="46.05136" lon="6.10524">
        <ele>971.4</ele>
        <time>2021-03-27T15:18:44Z</time>
      </trkpt>
      <trkpt lat="46.05135" lon="6.10521">
        <ele>971.4</ele>
        <time>2021-03-27T15:18:45Z</time>
      </trkpt>
      <trkpt lat="46.05135" lon="6.10517">
        <ele>971.6</ele>
        <time>2021-03-27T15:18:46Z</time>
      </trkpt>
      <trkpt lat="46.05134" lon="6.10513">
        <ele>971.8</ele>
        <time>2021-03-27T15:18:47Z</time>
      </trkpt>
      <trkpt lat="46.05133" lon="6.1051">
        <ele>972</ele>
        <time>2021-03-27T15:18:48Z</time>
      </trkpt>
      <trkpt lat="46.05133" lon="6.10506">
        <ele>972</ele>
        <time>2021-03-27T15:18:49Z</time>
      </trkpt>
      <trkpt lat="46.05132" lon="6.10502">
        <ele>972.2</ele>
        <time>2021-03-27T15:18:50Z</time>
      </trkpt>
      <trkpt lat="46.0513" lon="6.10498">
        <ele>972.4</ele>
        <time>2021-03-27T15:18:51Z</time>
      </trkpt>
      <trkpt lat="46.05129" lon="6.10494">
        <ele>972.8</ele>
        <time>2021-03-27T15:18:52Z</time>
      </trkpt>
      <trkpt lat="46.05128" lon="6.1049">
        <ele>973</ele>
        <time>2021-03-27T15:18:53Z</time>
      </trkpt>
      <trkpt lat="46.05127" lon="6.10486">
        <ele>973.2</ele>
        <time>2021-03-27T15:18:54Z</time>
      </trkpt>
      <trkpt lat="46.05126" lon="6.10482">
        <ele>973.4</ele>
        <time>2021-03-27T15:18:55Z</time>
      </trkpt>
      <trkpt lat="46.05125" lon="6.10477">
        <ele>973.6</ele>
        <time>2021-03-27T15:18:56Z</time>
      </trkpt>
      <trkpt lat="46.05124" lon="6.10473">
        <ele>973.8</ele>
        <time>2021-03-27T15:18:57Z</time>
      </trkpt>
      <trkpt lat="46.05122" lon="6.1047">
        <ele>974</ele>
        <time>2021-03-27T15:18:58Z</time>
      </trkpt>
      <trkpt lat="46.05121" lon="6.10465">
        <ele>974.2</ele>
        <time>2021-03-27T15:18:59Z</time>
      </trkpt>
      <trkpt lat="46.0512" lon="6.1046">
        <ele>974.6</ele>
        <time>2021-03-27T15:19:00Z</time>
      </trkpt>
      <trkpt lat="46.05119" lon="6.10455">
        <ele>974.6</ele>
        <time>2021-03-27T15:19:01Z</time>
      </trkpt>
      <trkpt lat="46.05118" lon="6.10451">
        <ele>975</ele>
        <time>2021-03-27T15:19:02Z</time>
      </trkpt>
      <trkpt lat="46.05117" lon="6.10447">
        <ele>975</ele>
        <time>2021-03-27T15:19:03Z</time>
      </trkpt>
      <trkpt lat="46.05117" lon="6.10442">
        <ele>975.4</ele>
        <time>2021-03-27T15:19:04Z</time>
      </trkpt>
      <trkpt lat="46.05117" lon="6.10438">
        <ele>975.6</ele>
        <time>2021-03-27T15:19:05Z</time>
      </trkpt>
      <trkpt lat="46.05117" lon="6.10435">
        <ele>975.6</ele>
        <time>2021-03-27T15:19:06Z</time>
      </trkpt>
      <trkpt lat="46.05118" lon="6.10431">
        <ele>976</ele>
        <time>2021-03-27T15:19:07Z</time>
      </trkpt>
      <trkpt lat="46.05118" lon="6.10426">
        <ele>976.2</ele>
        <time>2021-03-27T15:19:08Z</time>
      </trkpt>
      <trkpt lat="46.05119" lon="6.10422">
        <ele>976.4</ele>
        <time>2021-03-27T15:19:09Z</time>
      </trkpt>
      <trkpt lat="46.0512" lon="6.10419">
        <ele>976.4</ele>
        <time>2021-03-27T15:19:10Z</time>
      </trkpt>
      <trkpt lat="46.05122" lon="6.10415">
        <ele>976.6</ele>
        <time>2021-03-27T15:19:11Z</time>
      </trkpt>
      <trkpt lat="46.05123" lon="6.10412">
        <ele>976.8</ele>
        <time>2021-03-27T15:19:12Z</time>
      </trkpt>
      <trkpt lat="46.05125" lon="6.10409">
        <ele>976.8</ele>
        <time>2021-03-27T15:19:13Z</time>
      </trkpt>
      <trkpt lat="46.05127" lon="6.10407">
        <ele>977</ele>
        <time>2021-03-27T15:19:14Z</time>
      </trkpt>
      <trkpt lat="46.0513" lon="6.10404">
        <ele>977.2</ele>
        <time>2021-03-27T15:19:15Z</time>
      </trkpt>
      <trkpt lat="46.05132" lon="6.10402">
        <ele>977.2</ele>
        <time>2021-03-27T15:19:16Z</time>
      </trkpt>
      <trkpt lat="46.05135" lon="6.10401">
        <ele>977.6</ele>
        <time>2021-03-27T15:19:17Z</time>
      </trkpt>
      <trkpt lat="46.05138" lon="6.104">
        <ele>977.6</ele>
        <time>2021-03-27T15:19:18Z</time>
      </trkpt>
      <trkpt lat="46.05141" lon="6.10399">
        <ele>977.8</ele>
        <time>2021-03-27T15:19:19Z</time>
      </trkpt>
      <trkpt lat="46.05143" lon="6.104">
        <ele>978</ele>
        <time>2021-03-27T15:19:20Z</time>
      </trkpt>
      <trkpt lat="46.05146" lon="6.104">
        <ele>978.2</ele>
        <time>2021-03-27T15:19:21Z</time>
      </trkpt>
      <trkpt lat="46.05149" lon="6.10401">
        <ele>978.2</ele>
        <time>2021-03-27T15:19:22Z</time>
      </trkpt>
      <trkpt lat="46.05151" lon="6.10403">
        <ele>978.4</ele>
        <time>2021-03-27T15:19:23Z</time>
      </trkpt>
      <trkpt lat="46.05154" lon="6.10405">
        <ele>978.6</ele>
        <time>2021-03-27T15:19:24Z</time>
      </trkpt>
      <trkpt lat="46.05156" lon="6.10408">
        <ele>978.8</ele>
        <time>2021-03-27T15:19:25Z</time>
      </trkpt>
      <trkpt lat="46.05158" lon="6.10411">
        <ele>978.8</ele>
        <time>2021-03-27T15:19:26Z</time>
      </trkpt>
      <trkpt lat="46.0516" lon="6.10414">
        <ele>979</ele>
        <time>2021-03-27T15:19:27Z</time>
      </trkpt>
      <trkpt lat="46.05161" lon="6.10417">
        <ele>979.2</ele>
        <time>2021-03-27T15:19:28Z</time>
      </trkpt>
      <trkpt lat="46.05162" lon="6.1042">
        <ele>979.6</ele>
        <time>2021-03-27T15:19:29Z</time>
      </trkpt>
      <trkpt lat="46.05163" lon="6.10423">
        <ele>980</ele>
        <time>2021-03-27T15:19:30Z</time>
      </trkpt>
      <trkpt lat="46.05164" lon="6.10427">
        <ele>980</ele>
        <time>2021-03-27T15:19:31Z</time>
      </trkpt>
      <trkpt lat="46.05164" lon="6.10431">
        <ele>980.2</ele>
        <time>2021-03-27T15:19:32Z</time>
      </trkpt>
      <trkpt lat="46.05164" lon="6.10434">
        <ele>980.6</ele>
        <time>2021-03-27T15:19:33Z</time>
      </trkpt>
      <trkpt lat="46.05164" lon="6.10438">
        <ele>980.6</ele>
        <time>2021-03-27T15:19:34Z</time>
      </trkpt>
      <trkpt lat="46.05164" lon="6.10442">
        <ele>981</ele>
        <time>2021-03-27T15:19:35Z</time>
      </trkpt>
      <trkpt lat="46.05164" lon="6.10446">
        <ele>981.2</ele>
        <time>2021-03-27T15:19:36Z</time>
      </trkpt>
      <trkpt lat="46.05164" lon="6.1045">
        <ele>981.4</ele>
        <time>2021-03-27T15:19:37Z</time>
      </trkpt>
      <trkpt lat="46.05165" lon="6.10454">
        <ele>981.6</ele>
        <time>2021-03-27T15:19:38Z</time>
      </trkpt>
      <trkpt lat="46.05165" lon="6.10458">
        <ele>981.8</ele>
        <time>2021-03-27T15:19:39Z</time>
      </trkpt>
      <trkpt lat="46.05166" lon="6.10462">
        <ele>981.8</ele>
        <time>2021-03-27T15:19:40Z</time>
      </trkpt>
      <trkpt lat="46.05167" lon="6.10466">
        <ele>982.2</ele>
        <time>2021-03-27T15:19:41Z</time>
      </trkpt>
      <trkpt lat="46.05168" lon="6.10469">
        <ele>982.4</ele>
        <time>2021-03-27T15:19:42Z</time>
      </trkpt>
      <trkpt lat="46.05169" lon="6.10473">
        <ele>982.6</ele>
        <time>2021-03-27T15:19:43Z</time>
      </trkpt>
      <trkpt lat="46.0517" lon="6.10476">
        <ele>982.8</ele>
        <time>2021-03-27T15:19:44Z</time>
      </trkpt>
      <trkpt lat="46.05171" lon="6.1048">
        <ele>983.2</ele>
        <time>2021-03-27T15:19:45Z</time>
      </trkpt>
      <trkpt lat="46.05173" lon="6.10484">
        <ele>983.4</ele>
        <time>2021-03-27T15:19:46Z</time>
      </trkpt>
      <trkpt lat="46.05174" lon="6.10487">
        <ele>983.6</ele>
        <time>2021-03-27T15:19:47Z</time>
      </trkpt>
      <trkpt lat="46.05176" lon="6.10491">
        <ele>983.8</ele>
        <time>2021-03-27T15:19:48Z</time>
      </trkpt>
      <trkpt lat="46.05178" lon="6.10494">
        <ele>984</ele>
        <time>2021-03-27T15:19:49Z</time>
      </trkpt>
      <trkpt lat="46.05179" lon="6.10498">
        <ele>984.4</ele>
        <time>2021-03-27T15:19:50Z</time>
      </trkpt>
      <trkpt lat="46.05181" lon="6.10501">
        <ele>984.6</ele>
        <time>2021-03-27T15:19:51Z</time>
      </trkpt>
      <trkpt lat="46.05182" lon="6.10505">
        <ele>985</ele>
        <time>2021-03-27T15:19:52Z</time>
      </trkpt>
      <trkpt lat="46.05183" lon="6.10508">
        <ele>985.2</ele>
        <time>2021-03-27T15:19:53Z</time>
      </trkpt>
      <trkpt lat="46.05185" lon="6.10512">
        <ele>985</ele>
        <time>2021-03-27T15:19:54Z</time>
      </trkpt>
      <trkpt lat="46.05186" lon="6.10516">
        <ele>985.4</ele>
        <time>2021-03-27T15:19:55Z</time>
      </trkpt>
      <trkpt lat="46.05187" lon="6.1052">
        <ele>985.6</ele>
        <time>2021-03-27T15:19:56Z</time>
      </trkpt>
      <trkpt lat="46.05189" lon="6.10523">
        <ele>985.6</ele>
        <time>2021-03-27T15:19:57Z</time>
      </trkpt>
      <trkpt lat="46.0519" lon="6.10528">
        <ele>986</ele>
        <time>2021-03-27T15:19:58Z</time>
      </trkpt>
      <trkpt lat="46.05191" lon="6.10531">
        <ele>986.2</ele>
        <time>2021-03-27T15:19:59Z</time>
      </trkpt>
      <trkpt lat="46.05193" lon="6.10535">
        <ele>986.2</ele>
        <time>2021-03-27T15:20:00Z</time>
      </trkpt>
      <trkpt lat="46.05194" lon="6.10539">
        <ele>986.6</ele>
        <time>2021-03-27T15:20:01Z</time>
      </trkpt>
      <trkpt lat="46.05196" lon="6.10542">
        <ele>986.8</ele>
        <time>2021-03-27T15:20:02Z</time>
      </trkpt>
      <trkpt lat="46.05197" lon="6.10546">
        <ele>986.6</ele>
        <time>2021-03-27T15:20:03Z</time>
      </trkpt>
      <trkpt lat="46.05199" lon="6.1055">
        <ele>986.8</ele>
        <time>2021-03-27T15:20:04Z</time>
      </trkpt>
      <trkpt lat="46.052" lon="6.10554">
        <ele>987</ele>
        <time>2021-03-27T15:20:05Z</time>
      </trkpt>
      <trkpt lat="46.05202" lon="6.10557">
        <ele>987.2</ele>
        <time>2021-03-27T15:20:06Z</time>
      </trkpt>
      <trkpt lat="46.05204" lon="6.10561">
        <ele>987.4</ele>
        <time>2021-03-27T15:20:07Z</time>
      </trkpt>
      <trkpt lat="46.05206" lon="6.10564">
        <ele>987.4</ele>
        <time>2021-03-27T15:20:08Z</time>
      </trkpt>
      <trkpt lat="46.05207" lon="6.10567">
        <ele>987.6</ele>
        <time>2021-03-27T15:20:09Z</time>
      </trkpt>
      <trkpt lat="46.05209" lon="6.10571">
        <ele>987.8</ele>
        <time>2021-03-27T15:20:10Z</time>
      </trkpt>
      <trkpt lat="46.05211" lon="6.10574">
        <ele>988</ele>
        <time>2021-03-27T15:20:11Z</time>
      </trkpt>
      <trkpt lat="46.05214" lon="6.10577">
        <ele>988.2</ele>
        <time>2021-03-27T15:20:12Z</time>
      </trkpt>
      <trkpt lat="46.05216" lon="6.1058">
        <ele>988.2</ele>
        <time>2021-03-27T15:20:13Z</time>
      </trkpt>
      <trkpt lat="46.05218" lon="6.10583">
        <ele>988.6</ele>
        <time>2021-03-27T15:20:14Z</time>
      </trkpt>
      <trkpt lat="46.0522" lon="6.10586">
        <ele>988.8</ele>
        <time>2021-03-27T15:20:15Z</time>
      </trkpt>
      <trkpt lat="46.05222" lon="6.10588">
        <ele>988.8</ele>
        <time>2021-03-27T15:20:16Z</time>
      </trkpt>
      <trkpt lat="46.05225" lon="6.10591">
        <ele>989.2</ele>
        <time>2021-03-27T15:20:17Z</time>
      </trkpt>
      <trkpt lat="46.05227" lon="6.10593">
        <ele>989.4</ele>
        <time>2021-03-27T15:20:18Z</time>
      </trkpt>
      <trkpt lat="46.0523" lon="6.10595">
        <ele>989.6</ele>
        <time>2021-03-27T15:20:19Z</time>
      </trkpt>
      <trkpt lat="46.05232" lon="6.10597">
        <ele>989.8</ele>
        <time>2021-03-27T15:20:20Z</time>
      </trkpt>
      <trkpt lat="46.05235" lon="6.10599">
        <ele>989.8</ele>
        <time>2021-03-27T15:20:21Z</time>
      </trkpt>
      <trkpt lat="46.05237" lon="6.10602">
        <ele>990.2</ele>
        <time>2021-03-27T15:20:22Z</time>
      </trkpt>
      <trkpt lat="46.05239" lon="6.10604">
        <ele>990.4</ele>
        <time>2021-03-27T15:20:23Z</time>
      </trkpt>
      <trkpt lat="46.05242" lon="6.10606">
        <ele>990.6</ele>
        <time>2021-03-27T15:20:24Z</time>
      </trkpt>
      <trkpt lat="46.05244" lon="6.10608">
        <ele>990.8</ele>
        <time>2021-03-27T15:20:25Z</time>
      </trkpt>
      <trkpt lat="46.05247" lon="6.1061">
        <ele>991</ele>
        <time>2021-03-27T15:20:26Z</time>
      </trkpt>
      <trkpt lat="46.05249" lon="6.10612">
        <ele>991</ele>
        <time>2021-03-27T15:20:27Z</time>
      </trkpt>
      <trkpt lat="46.05252" lon="6.10615">
        <ele>991.4</ele>
        <time>2021-03-27T15:20:28Z</time>
      </trkpt>
      <trkpt lat="46.05255" lon="6.10617">
        <ele>991.4</ele>
        <time>2021-03-27T15:20:29Z</time>
      </trkpt>
      <trkpt lat="46.05257" lon="6.10619">
        <ele>991.4</ele>
        <time>2021-03-27T15:20:30Z</time>
      </trkpt>
      <trkpt lat="46.0526" lon="6.10621">
        <ele>991.6</ele>
        <time>2021-03-27T15:20:31Z</time>
      </trkpt>
      <trkpt lat="46.05262" lon="6.10623">
        <ele>991.8</ele>
        <time>2021-03-27T15:20:32Z</time>
      </trkpt>
      <trkpt lat="46.05265" lon="6.10625">
        <ele>992</ele>
        <time>2021-03-27T15:20:33Z</time>
      </trkpt>
      <trkpt lat="46.05267" lon="6.10628">
        <ele>992</ele>
        <time>2021-03-27T15:20:34Z</time>
      </trkpt>
      <trkpt lat="46.05269" lon="6.1063">
        <ele>992</ele>
        <time>2021-03-27T15:20:35Z</time>
      </trkpt>
      <trkpt lat="46.05272" lon="6.10632">
        <ele>992.2</ele>
        <time>2021-03-27T15:20:36Z</time>
      </trkpt>
      <trkpt lat="46.05274" lon="6.10634">
        <ele>992.4</ele>
        <time>2021-03-27T15:20:37Z</time>
      </trkpt>
      <trkpt lat="46.05277" lon="6.10636">
        <ele>992.6</ele>
        <time>2021-03-27T15:20:38Z</time>
      </trkpt>
      <trkpt lat="46.05279" lon="6.10638">
        <ele>992.6</ele>
        <time>2021-03-27T15:20:39Z</time>
      </trkpt>
      <trkpt lat="46.05282" lon="6.1064">
        <ele>992.8</ele>
        <time>2021-03-27T15:20:40Z</time>
      </trkpt>
      <trkpt lat="46.05284" lon="6.10642">
        <ele>993</ele>
        <time>2021-03-27T15:20:41Z</time>
      </trkpt>
      <trkpt lat="46.05286" lon="6.10644">
        <ele>993.4</ele>
        <time>2021-03-27T15:20:42Z</time>
      </trkpt>
      <trkpt lat="46.05288" lon="6.10646">
        <ele>993.6</ele>
        <time>2021-03-27T15:20:43Z</time>
      </trkpt>
      <trkpt lat="46.05291" lon="6.10648">
        <ele>994</ele>
        <time>2021-03-27T15:20:44Z</time>
      </trkpt>
      <trkpt lat="46.05293" lon="6.1065">
        <ele>994.2</ele>
        <time>2021-03-27T15:20:45Z</time>
      </trkpt>
      <trkpt lat="46.05296" lon="6.10652">
        <ele>994.6</ele>
        <time>2021-03-27T15:20:46Z</time>
      </trkpt>
      <trkpt lat="46.05298" lon="6.10654">
        <ele>994.8</ele>
        <time>2021-03-27T15:20:47Z</time>
      </trkpt>
      <trkpt lat="46.05301" lon="6.10656">
        <ele>995.2</ele>
        <time>2021-03-27T15:20:48Z</time>
      </trkpt>
      <trkpt lat="46.05303" lon="6.10659">
        <ele>995.4</ele>
        <time>2021-03-27T15:20:49Z</time>
      </trkpt>
      <trkpt lat="46.05306" lon="6.10661">
        <ele>995.4</ele>
        <time>2021-03-27T15:20:50Z</time>
      </trkpt>
      <trkpt lat="46.05308" lon="6.10664">
        <ele>995.8</ele>
        <time>2021-03-27T15:20:51Z</time>
      </trkpt>
      <trkpt lat="46.05311" lon="6.10667">
        <ele>996.2</ele>
        <time>2021-03-27T15:20:52Z</time>
      </trkpt>
      <trkpt lat="46.05313" lon="6.1067">
        <ele>996.4</ele>
        <time>2021-03-27T15:20:53Z</time>
      </trkpt>
      <trkpt lat="46.05316" lon="6.10673">
        <ele>996.6</ele>
        <time>2021-03-27T15:20:54Z</time>
      </trkpt>
      <trkpt lat="46.05318" lon="6.10676">
        <ele>996.8</ele>
        <time>2021-03-27T15:20:55Z</time>
      </trkpt>
      <trkpt lat="46.0532" lon="6.1068">
        <ele>997</ele>
        <time>2021-03-27T15:20:56Z</time>
      </trkpt>
      <trkpt lat="46.05321" lon="6.10683">
        <ele>997</ele>
        <time>2021-03-27T15:20:57Z</time>
      </trkpt>
      <trkpt lat="46.05323" lon="6.10687">
        <ele>997.2</ele>
        <time>2021-03-27T15:20:58Z</time>
      </trkpt>
      <trkpt lat="46.05324" lon="6.10691">
        <ele>997.2</ele>
        <time>2021-03-27T15:20:59Z</time>
      </trkpt>
      <trkpt lat="46.05325" lon="6.10695">
        <ele>997.6</ele>
        <time>2021-03-27T15:21:00Z</time>
      </trkpt>
      <trkpt lat="46.05326" lon="6.10698">
        <ele>997.6</ele>
        <time>2021-03-27T15:21:01Z</time>
      </trkpt>
      <trkpt lat="46.05327" lon="6.10702">
        <ele>997.8</ele>
        <time>2021-03-27T15:21:02Z</time>
      </trkpt>
      <trkpt lat="46.05327" lon="6.10706">
        <ele>998</ele>
        <time>2021-03-27T15:21:03Z</time>
      </trkpt>
      <trkpt lat="46.05327" lon="6.10709">
        <ele>998.2</ele>
        <time>2021-03-27T15:21:04Z</time>
      </trkpt>
      <trkpt lat="46.05327" lon="6.10712">
        <ele>998.2</ele>
        <time>2021-03-27T15:21:05Z</time>
      </trkpt>
      <trkpt lat="46.05327" lon="6.10715">
        <ele>998.4</ele>
        <time>2021-03-27T15:21:06Z</time>
      </trkpt>
      <trkpt lat="46.05327" lon="6.10719">
        <ele>998.6</ele>
        <time>2021-03-27T15:21:07Z</time>
      </trkpt>
      <trkpt lat="46.05327" lon="6.10722">
        <ele>999</ele>
        <time>2021-03-27T15:21:08Z</time>
      </trkpt>
      <trkpt lat="46.05327" lon="6.10725">
        <ele>999.2</ele>
        <time>2021-03-27T15:21:09Z</time>
      </trkpt>
      <trkpt lat="46.05327" lon="6.10728">
        <ele>999.2</ele>
        <time>2021-03-27T15:21:10Z</time>
      </trkpt>
      <trkpt lat="46.05326" lon="6.10732">
        <ele>999.4</ele>
        <time>2021-03-27T15:21:11Z</time>
      </trkpt>
      <trkpt lat="46.05325" lon="6.10735">
        <ele>999.4</ele>
        <time>2021-03-27T15:21:12Z</time>
      </trkpt>
      <trkpt lat="46.05325" lon="6.10738">
        <ele>999.6</ele>
        <time>2021-03-27T15:21:13Z</time>
      </trkpt>
      <trkpt lat="46.05325" lon="6.10742">
        <ele>1000</ele>
        <time>2021-03-27T15:21:14Z</time>
      </trkpt>
      <trkpt lat="46.05325" lon="6.10746">
        <ele>1000.2</ele>
        <time>2021-03-27T15:21:15Z</time>
      </trkpt>
      <trkpt lat="46.05326" lon="6.10749">
        <ele>1000.6</ele>
        <time>2021-03-27T15:21:16Z</time>
      </trkpt>
      <trkpt lat="46.05326" lon="6.10753">
        <ele>1000.8</ele>
        <time>2021-03-27T15:21:17Z</time>
      </trkpt>
      <trkpt lat="46.05326" lon="6.10756">
        <ele>1001</ele>
        <time>2021-03-27T15:21:18Z</time>
      </trkpt>
      <trkpt lat="46.05326" lon="6.1076">
        <ele>1001</ele>
        <time>2021-03-27T15:21:19Z</time>
      </trkpt>
      <trkpt lat="46.05326" lon="6.10763">
        <ele>1001.2</ele>
        <time>2021-03-27T15:21:20Z</time>
      </trkpt>
      <trkpt lat="46.05327" lon="6.10767">
        <ele>1001.4</ele>
        <time>2021-03-27T15:21:21Z</time>
      </trkpt>
      <trkpt lat="46.05327" lon="6.1077">
        <ele>1001.8</ele>
        <time>2021-03-27T15:21:22Z</time>
      </trkpt>
      <trkpt lat="46.05327" lon="6.10774">
        <ele>1001.8</ele>
        <time>2021-03-27T15:21:23Z</time>
      </trkpt>
      <trkpt lat="46.05328" lon="6.10777">
        <ele>1002</ele>
        <time>2021-03-27T15:21:24Z</time>
      </trkpt>
      <trkpt lat="46.05329" lon="6.10781">
        <ele>1002</ele>
        <time>2021-03-27T15:21:25Z</time>
      </trkpt>
      <trkpt lat="46.0533" lon="6.10784">
        <ele>1002.2</ele>
        <time>2021-03-27T15:21:26Z</time>
      </trkpt>
      <trkpt lat="46.0533" lon="6.10788">
        <ele>1002.4</ele>
        <time>2021-03-27T15:21:27Z</time>
      </trkpt>
      <trkpt lat="46.05331" lon="6.10792">
        <ele>1002.8</ele>
        <time>2021-03-27T15:21:28Z</time>
      </trkpt>
      <trkpt lat="46.05331" lon="6.10797">
        <ele>1003</ele>
        <time>2021-03-27T15:21:29Z</time>
      </trkpt>
      <trkpt lat="46.05331" lon="6.10801">
        <ele>1003.2</ele>
        <time>2021-03-27T15:21:30Z</time>
      </trkpt>
      <trkpt lat="46.05332" lon="6.10805">
        <ele>1003.6</ele>
        <time>2021-03-27T15:21:31Z</time>
      </trkpt>
      <trkpt lat="46.05333" lon="6.1081">
        <ele>1004</ele>
        <time>2021-03-27T15:21:32Z</time>
      </trkpt>
      <trkpt lat="46.05335" lon="6.10814">
        <ele>1004.2</ele>
        <time>2021-03-27T15:21:33Z</time>
      </trkpt>
      <trkpt lat="46.05336" lon="6.10818">
        <ele>1004.4</ele>
        <time>2021-03-27T15:21:34Z</time>
      </trkpt>
      <trkpt lat="46.05338" lon="6.10823">
        <ele>1004.6</ele>
        <time>2021-03-27T15:21:35Z</time>
      </trkpt>
      <trkpt lat="46.0534" lon="6.10827">
        <ele>1004.8</ele>
        <time>2021-03-27T15:21:36Z</time>
      </trkpt>
      <trkpt lat="46.05341" lon="6.1083">
        <ele>1005</ele>
        <time>2021-03-27T15:21:37Z</time>
      </trkpt>
      <trkpt lat="46.05342" lon="6.10834">
        <ele>1005</ele>
        <time>2021-03-27T15:21:38Z</time>
      </trkpt>
      <trkpt lat="46.05343" lon="6.10836">
        <ele>1005.2</ele>
        <time>2021-03-27T15:21:39Z</time>
      </trkpt>
      <trkpt lat="46.05345" lon="6.10839">
        <ele>1005.4</ele>
        <time>2021-03-27T15:21:40Z</time>
      </trkpt>
      <trkpt lat="46.05347" lon="6.10842">
        <ele>1005.8</ele>
        <time>2021-03-27T15:21:41Z</time>
      </trkpt>
      <trkpt lat="46.0535" lon="6.10844">
        <ele>1005.8</ele>
        <time>2021-03-27T15:21:42Z</time>
      </trkpt>
      <trkpt lat="46.05352" lon="6.10846">
        <ele>1006.2</ele>
        <time>2021-03-27T15:21:43Z</time>
      </trkpt>
      <trkpt lat="46.05354" lon="6.10847">
        <ele>1006.2</ele>
        <time>2021-03-27T15:21:44Z</time>
      </trkpt>
      <trkpt lat="46.05357" lon="6.10848">
        <ele>1006.4</ele>
        <time>2021-03-27T15:21:45Z</time>
      </trkpt>
      <trkpt lat="46.05359" lon="6.10848">
        <ele>1006.6</ele>
        <time>2021-03-27T15:21:46Z</time>
      </trkpt>
      <trkpt lat="46.05362" lon="6.10848">
        <ele>1006.8</ele>
        <time>2021-03-27T15:21:47Z</time>
      </trkpt>
      <trkpt lat="46.05364" lon="6.10848">
        <ele>1007</ele>
        <time>2021-03-27T15:21:48Z</time>
      </trkpt>
      <trkpt lat="46.05367" lon="6.10847">
        <ele>1007</ele>
        <time>2021-03-27T15:21:49Z</time>
      </trkpt>
      <trkpt lat="46.0537" lon="6.10846">
        <ele>1007.2</ele>
        <time>2021-03-27T15:21:50Z</time>
      </trkpt>
      <trkpt lat="46.05373" lon="6.10844">
        <ele>1007.6</ele>
        <time>2021-03-27T15:21:51Z</time>
      </trkpt>
      <trkpt lat="46.05375" lon="6.10843">
        <ele>1007.4</ele>
        <time>2021-03-27T15:21:52Z</time>
      </trkpt>
      <trkpt lat="46.05378" lon="6.10842">
        <ele>1007.8</ele>
        <time>2021-03-27T15:21:53Z</time>
      </trkpt>
      <trkpt lat="46.0538" lon="6.1084">
        <ele>1007.8</ele>
        <time>2021-03-27T15:21:54Z</time>
      </trkpt>
      <trkpt lat="46.05382" lon="6.10838">
        <ele>1007.8</ele>
        <time>2021-03-27T15:21:55Z</time>
      </trkpt>
      <trkpt lat="46.05384" lon="6.10837">
        <ele>1008</ele>
        <time>2021-03-27T15:21:56Z</time>
      </trkpt>
      <trkpt lat="46.05387" lon="6.10835">
        <ele>1008.2</ele>
        <time>2021-03-27T15:21:57Z</time>
      </trkpt>
      <trkpt lat="46.05389" lon="6.10834">
        <ele>1008.2</ele>
        <time>2021-03-27T15:21:58Z</time>
      </trkpt>
      <trkpt lat="46.05392" lon="6.10833">
        <ele>1008.4</ele>
        <time>2021-03-27T15:21:59Z</time>
      </trkpt>
      <trkpt lat="46.05395" lon="6.10831">
        <ele>1008.4</ele>
        <time>2021-03-27T15:22:00Z</time>
      </trkpt>
      <trkpt lat="46.05399" lon="6.1083">
        <ele>1008.6</ele>
        <time>2021-03-27T15:22:01Z</time>
      </trkpt>
      <trkpt lat="46.05402" lon="6.10829">
        <ele>1008.8</ele>
        <time>2021-03-27T15:22:02Z</time>
      </trkpt>
      <trkpt lat="46.05405" lon="6.10827">
        <ele>1009</ele>
        <time>2021-03-27T15:22:03Z</time>
      </trkpt>
      <trkpt lat="46.05408" lon="6.10825">
        <ele>1009.2</ele>
        <time>2021-03-27T15:22:04Z</time>
      </trkpt>
      <trkpt lat="46.05411" lon="6.10823">
        <ele>1009.2</ele>
        <time>2021-03-27T15:22:05Z</time>
      </trkpt>
      <trkpt lat="46.05413" lon="6.1082">
        <ele>1009.4</ele>
        <time>2021-03-27T15:22:06Z</time>
      </trkpt>
      <trkpt lat="46.05414" lon="6.10817">
        <ele>1009.4</ele>
        <time>2021-03-27T15:22:07Z</time>
      </trkpt>
      <trkpt lat="46.05415" lon="6.10814">
        <ele>1009.6</ele>
        <time>2021-03-27T15:22:08Z</time>
      </trkpt>
      <trkpt lat="46.05415" lon="6.10812">
        <ele>1009.8</ele>
        <time>2021-03-27T15:22:09Z</time>
      </trkpt>
      <trkpt lat="46.05415" lon="6.1081">
        <ele>1010</ele>
        <time>2021-03-27T15:22:10Z</time>
      </trkpt>
      <trkpt lat="46.05415" lon="6.10809">
        <ele>1010.2</ele>
        <time>2021-03-27T15:22:11Z</time>
      </trkpt>
      <trkpt lat="46.05415" lon="6.10809">
        <ele>1010.2</ele>
        <time>2021-03-27T15:22:12Z</time>
      </trkpt>
      <trkpt lat="46.05415" lon="6.10809">
        <ele>1010.4</ele>
        <time>2021-03-27T15:22:13Z</time>
      </trkpt>
      <trkpt lat="46.05415" lon="6.10808">
        <ele>1010.6</ele>
        <time>2021-03-27T15:22:14Z</time>
      </trkpt>
      <trkpt lat="46.05415" lon="6.10808">
        <ele>1010.6</ele>
        <time>2021-03-27T15:22:15Z</time>
      </trkpt>
      <trkpt lat="46.05415" lon="6.10808">
        <ele>1010.8</ele>
        <time>2021-03-27T15:22:16Z</time>
      </trkpt>
      <trkpt lat="46.05415" lon="6.10808">
        <ele>1011</ele>
        <time>2021-03-27T15:22:17Z</time>
      </trkpt>
      <trkpt lat="46.05415" lon="6.10808">
        <ele>1011</ele>
        <time>2021-03-27T15:22:18Z</time>
      </trkpt>
      <trkpt lat="46.05415" lon="6.10808">
        <ele>1011.2</ele>
        <time>2021-03-27T15:22:19Z</time>
      </trkpt>
      <trkpt lat="46.05415" lon="6.10808">
        <ele>1011.4</ele>
        <time>2021-03-27T15:22:20Z</time>
      </trkpt>
      <trkpt lat="46.05415" lon="6.10808">
        <ele>1011.4</ele>
        <time>2021-03-27T15:22:21Z</time>
      </trkpt>
      <trkpt lat="46.05415" lon="6.10808">
        <ele>1011.2</ele>
        <time>2021-03-27T15:22:22Z</time>
      </trkpt>
      <trkpt lat="46.05415" lon="6.10808">
        <ele>1011.2</ele>
        <time>2021-03-27T15:22:23Z</time>
      </trkpt>
      <trkpt lat="46.05415" lon="6.10808">
        <ele>1011.4</ele>
        <time>2021-03-27T15:22:24Z</time>
      </trkpt>
      <trkpt lat="46.05415" lon="6.10808">
        <ele>1011.4</ele>
        <time>2021-03-27T15:22:25Z</time>
      </trkpt>
      <trkpt lat="46.05415" lon="6.10808">
        <ele>1011.2</ele>
        <time>2021-03-27T15:22:26Z</time>
      </trkpt>
      <trkpt lat="46.05415" lon="6.10808">
        <ele>1011.4</ele>
        <time>2021-03-27T15:22:27Z</time>
      </trkpt>
      <trkpt lat="46.05415" lon="6.10808">
        <ele>1011.4</ele>
        <time>2021-03-27T15:22:28Z</time>
      </trkpt>
      <trkpt lat="46.05415" lon="6.10808">
        <ele>1011.4</ele>
        <time>2021-03-27T15:22:29Z</time>
      </trkpt>
      <trkpt lat="46.05415" lon="6.10808">
        <ele>1011.4</ele>
        <time>2021-03-27T15:22:30Z</time>
      </trkpt>
      <trkpt lat="46.05415" lon="6.10808">
        <ele>1011.4</ele>
        <time>2021-03-27T15:22:31Z</time>
      </trkpt>
      <trkpt lat="46.05414" lon="6.10809">
        <ele>1011.4</ele>
        <time>2021-03-27T15:22:32Z</time>
      </trkpt>
      <trkpt lat="46.05413" lon="6.10809">
        <ele>1011.2</ele>
        <time>2021-03-27T15:22:33Z</time>
      </trkpt>
      <trkpt lat="46.05412" lon="6.10809">
        <ele>1011.4</ele>
        <time>2021-03-27T15:22:34Z</time>
      </trkpt>
      <trkpt lat="46.05413" lon="6.10811">
        <ele>1011.4</ele>
        <time>2021-03-27T15:22:35Z</time>
      </trkpt>
      <trkpt lat="46.05412" lon="6.10812">
        <ele>1011.4</ele>
        <time>2021-03-27T15:22:36Z</time>
      </trkpt>
      <trkpt lat="46.05412" lon="6.10814">
        <ele>1011.2</ele>
        <time>2021-03-27T15:22:37Z</time>
      </trkpt>
      <trkpt lat="46.05412" lon="6.10815">
        <ele>1011.4</ele>
        <time>2021-03-27T15:22:38Z</time>
      </trkpt>
      <trkpt lat="46.05412" lon="6.10817">
        <ele>1011.2</ele>
        <time>2021-03-27T15:22:39Z</time>
      </trkpt>
      <trkpt lat="46.05412" lon="6.10819">
        <ele>1011.4</ele>
        <time>2021-03-27T15:22:40Z</time>
      </trkpt>
      <trkpt lat="46.05411" lon="6.10821">
        <ele>1011.2</ele>
        <time>2021-03-27T15:22:41Z</time>
      </trkpt>
      <trkpt lat="46.0541" lon="6.10823">
        <ele>1011.2</ele>
        <time>2021-03-27T15:22:42Z</time>
      </trkpt>
      <trkpt lat="46.05409" lon="6.10825">
        <ele>1011.2</ele>
        <time>2021-03-27T15:22:43Z</time>
      </trkpt>
      <trkpt lat="46.05407" lon="6.10827">
        <ele>1011.2</ele>
        <time>2021-03-27T15:22:44Z</time>
      </trkpt>
      <trkpt lat="46.05405" lon="6.10829">
        <ele>1011</ele>
        <time>2021-03-27T15:22:45Z</time>
      </trkpt>
      <trkpt lat="46.05404" lon="6.1083">
        <ele>1011</ele>
        <time>2021-03-27T15:22:46Z</time>
      </trkpt>
      <trkpt lat="46.05402" lon="6.10831">
        <ele>1011</ele>
        <time>2021-03-27T15:22:47Z</time>
      </trkpt>
      <trkpt lat="46.054" lon="6.10833">
        <ele>1011</ele>
        <time>2021-03-27T15:22:48Z</time>
      </trkpt>
      <trkpt lat="46.05398" lon="6.10834">
        <ele>1010.6</ele>
        <time>2021-03-27T15:22:49Z</time>
      </trkpt>
      <trkpt lat="46.05395" lon="6.10835">
        <ele>1010.4</ele>
        <time>2021-03-27T15:22:50Z</time>
      </trkpt>
      <trkpt lat="46.05393" lon="6.10835">
        <ele>1010.6</ele>
        <time>2021-03-27T15:22:51Z</time>
      </trkpt>
      <trkpt lat="46.05391" lon="6.10836">
        <ele>1010.2</ele>
        <time>2021-03-27T15:22:52Z</time>
      </trkpt>
      <trkpt lat="46.05389" lon="6.10837">
        <ele>1010.4</ele>
        <time>2021-03-27T15:22:53Z</time>
      </trkpt>
      <trkpt lat="46.05387" lon="6.10838">
        <ele>1010.2</ele>
        <time>2021-03-27T15:22:54Z</time>
      </trkpt>
      <trkpt lat="46.05385" lon="6.10838">
        <ele>1010.2</ele>
        <time>2021-03-27T15:22:55Z</time>
      </trkpt>
      <trkpt lat="46.05383" lon="6.10839">
        <ele>1010</ele>
        <time>2021-03-27T15:22:56Z</time>
      </trkpt>
      <trkpt lat="46.05381" lon="6.1084">
        <ele>1010</ele>
        <time>2021-03-27T15:22:57Z</time>
      </trkpt>
      <trkpt lat="46.05378" lon="6.10842">
        <ele>1010</ele>
        <time>2021-03-27T15:22:58Z</time>
      </trkpt>
      <trkpt lat="46.05376" lon="6.10844">
        <ele>1009.8</ele>
        <time>2021-03-27T15:22:59Z</time>
      </trkpt>
      <trkpt lat="46.05374" lon="6.10845">
        <ele>1009.8</ele>
        <time>2021-03-27T15:23:00Z</time>
      </trkpt>
      <trkpt lat="46.05371" lon="6.10846">
        <ele>1009.4</ele>
        <time>2021-03-27T15:23:01Z</time>
      </trkpt>
      <trkpt lat="46.05369" lon="6.10847">
        <ele>1009.4</ele>
        <time>2021-03-27T15:23:02Z</time>
      </trkpt>
      <trkpt lat="46.05366" lon="6.10848">
        <ele>1009.2</ele>
        <time>2021-03-27T15:23:03Z</time>
      </trkpt>
      <trkpt lat="46.05363" lon="6.10849">
        <ele>1009.2</ele>
        <time>2021-03-27T15:23:04Z</time>
      </trkpt>
      <trkpt lat="46.0536" lon="6.1085">
        <ele>1009.2</ele>
        <time>2021-03-27T15:23:05Z</time>
      </trkpt>
      <trkpt lat="46.05356" lon="6.1085">
        <ele>1009</ele>
        <time>2021-03-27T15:23:06Z</time>
      </trkpt>
      <trkpt lat="46.05353" lon="6.10849">
        <ele>1008.8</ele>
        <time>2021-03-27T15:23:07Z</time>
      </trkpt>
      <trkpt lat="46.05349" lon="6.10847">
        <ele>1008.6</ele>
        <time>2021-03-27T15:23:08Z</time>
      </trkpt>
      <trkpt lat="46.05346" lon="6.10844">
        <ele>1008.4</ele>
        <time>2021-03-27T15:23:09Z</time>
      </trkpt>
      <trkpt lat="46.05344" lon="6.10841">
        <ele>1008.2</ele>
        <time>2021-03-27T15:23:10Z</time>
      </trkpt>
      <trkpt lat="46.05342" lon="6.10838">
        <ele>1008.2</ele>
        <time>2021-03-27T15:23:11Z</time>
      </trkpt>
      <trkpt lat="46.05341" lon="6.10835">
        <ele>1007.8</ele>
        <time>2021-03-27T15:23:12Z</time>
      </trkpt>
      <trkpt lat="46.05339" lon="6.1083">
        <ele>1007.6</ele>
        <time>2021-03-27T15:23:13Z</time>
      </trkpt>
      <trkpt lat="46.05338" lon="6.10826">
        <ele>1007.2</ele>
        <time>2021-03-27T15:23:14Z</time>
      </trkpt>
      <trkpt lat="46.05337" lon="6.10822">
        <ele>1006.8</ele>
        <time>2021-03-27T15:23:15Z</time>
      </trkpt>
      <trkpt lat="46.05337" lon="6.10817">
        <ele>1006.6</ele>
        <time>2021-03-27T15:23:16Z</time>
      </trkpt>
      <trkpt lat="46.05336" lon="6.10813">
        <ele>1006.2</ele>
        <time>2021-03-27T15:23:17Z</time>
      </trkpt>
      <trkpt lat="46.05335" lon="6.10809">
        <ele>1006</ele>
        <time>2021-03-27T15:23:18Z</time>
      </trkpt>
      <trkpt lat="46.05334" lon="6.10805">
        <ele>1006</ele>
        <time>2021-03-27T15:23:19Z</time>
      </trkpt>
      <trkpt lat="46.05334" lon="6.108">
        <ele>1005.8</ele>
        <time>2021-03-27T15:23:20Z</time>
      </trkpt>
      <trkpt lat="46.05333" lon="6.10796">
        <ele>1005.8</ele>
        <time>2021-03-27T15:23:21Z</time>
      </trkpt>
      <trkpt lat="46.05332" lon="6.10792">
        <ele>1005.6</ele>
        <time>2021-03-27T15:23:22Z</time>
      </trkpt>
      <trkpt lat="46.05332" lon="6.10788">
        <ele>1005.4</ele>
        <time>2021-03-27T15:23:23Z</time>
      </trkpt>
      <trkpt lat="46.05331" lon="6.10784">
        <ele>1005.4</ele>
        <time>2021-03-27T15:23:24Z</time>
      </trkpt>
      <trkpt lat="46.05331" lon="6.1078">
        <ele>1005.2</ele>
        <time>2021-03-27T15:23:25Z</time>
      </trkpt>
      <trkpt lat="46.05331" lon="6.10775">
        <ele>1005</ele>
        <time>2021-03-27T15:23:26Z</time>
      </trkpt>
      <trkpt lat="46.0533" lon="6.1077">
        <ele>1005</ele>
        <time>2021-03-27T15:23:27Z</time>
      </trkpt>
      <trkpt lat="46.05331" lon="6.10765">
        <ele>1004.8</ele>
        <time>2021-03-27T15:23:28Z</time>
      </trkpt>
      <trkpt lat="46.05331" lon="6.10759">
        <ele>1004.4</ele>
        <time>2021-03-27T15:23:29Z</time>
      </trkpt>
      <trkpt lat="46.05333" lon="6.10754">
        <ele>1004</ele>
        <time>2021-03-27T15:23:30Z</time>
      </trkpt>
      <trkpt lat="46.05333" lon="6.10748">
        <ele>1003.8</ele>
        <time>2021-03-27T15:23:31Z</time>
      </trkpt>
      <trkpt lat="46.05334" lon="6.10743">
        <ele>1003.8</ele>
        <time>2021-03-27T15:23:32Z</time>
      </trkpt>
      <trkpt lat="46.05335" lon="6.10737">
        <ele>1003.4</ele>
        <time>2021-03-27T15:23:33Z</time>
      </trkpt>
      <trkpt lat="46.05335" lon="6.10732">
        <ele>1003.2</ele>
        <time>2021-03-27T15:23:34Z</time>
      </trkpt>
      <trkpt lat="46.05336" lon="6.10727">
        <ele>1002.8</ele>
        <time>2021-03-27T15:23:35Z</time>
      </trkpt>
      <trkpt lat="46.05336" lon="6.10722">
        <ele>1002.4</ele>
        <time>2021-03-27T15:23:36Z</time>
      </trkpt>
      <trkpt lat="46.05335" lon="6.10716">
        <ele>1002</ele>
        <time>2021-03-27T15:23:37Z</time>
      </trkpt>
      <trkpt lat="46.05334" lon="6.10709">
        <ele>1001.6</ele>
        <time>2021-03-27T15:23:38Z</time>
      </trkpt>
      <trkpt lat="46.05332" lon="6.10703">
        <ele>1001.2</ele>
        <time>2021-03-27T15:23:39Z</time>
      </trkpt>
      <trkpt lat="46.05329" lon="6.10696">
        <ele>1001</ele>
        <time>2021-03-27T15:23:40Z</time>
      </trkpt>
      <trkpt lat="46.05325" lon="6.10691">
        <ele>1000.8</ele>
        <time>2021-03-27T15:23:41Z</time>
      </trkpt>
      <trkpt lat="46.05322" lon="6.10686">
        <ele>1000.4</ele>
        <time>2021-03-27T15:23:42Z</time>
      </trkpt>
      <trkpt lat="46.05317" lon="6.10681">
        <ele>1000.4</ele>
        <time>2021-03-27T15:23:43Z</time>
      </trkpt>
      <trkpt lat="46.05313" lon="6.10676">
        <ele>1000.2</ele>
        <time>2021-03-27T15:23:44Z</time>
      </trkpt>
      <trkpt lat="46.05309" lon="6.10671">
        <ele>999.8</ele>
        <time>2021-03-27T15:23:45Z</time>
      </trkpt>
      <trkpt lat="46.05306" lon="6.10666">
        <ele>999.4</ele>
        <time>2021-03-27T15:23:46Z</time>
      </trkpt>
      <trkpt lat="46.05301" lon="6.10661">
        <ele>999.2</ele>
        <time>2021-03-27T15:23:47Z</time>
      </trkpt>
      <trkpt lat="46.05297" lon="6.10657">
        <ele>998.6</ele>
        <time>2021-03-27T15:23:48Z</time>
      </trkpt>
      <trkpt lat="46.05293" lon="6.10654">
        <ele>998.6</ele>
        <time>2021-03-27T15:23:49Z</time>
      </trkpt>
      <trkpt lat="46.05289" lon="6.1065">
        <ele>998.4</ele>
        <time>2021-03-27T15:23:50Z</time>
      </trkpt>
      <trkpt lat="46.05285" lon="6.10645">
        <ele>998.2</ele>
        <time>2021-03-27T15:23:51Z</time>
      </trkpt>
      <trkpt lat="46.05277" lon="6.10638">
        <ele>998</ele>
        <time>2021-03-27T15:23:53Z</time>
      </trkpt>
      <trkpt lat="46.05273" lon="6.10634">
        <ele>997.6</ele>
        <time>2021-03-27T15:23:54Z</time>
      </trkpt>
      <trkpt lat="46.05269" lon="6.10631">
        <ele>997.4</ele>
        <time>2021-03-27T15:23:55Z</time>
      </trkpt>
      <trkpt lat="46.0526" lon="6.10621">
        <ele>996.8</ele>
        <time>2021-03-27T15:23:57Z</time>
      </trkpt>
      <trkpt lat="46.05256" lon="6.10618">
        <ele>996.2</ele>
        <time>2021-03-27T15:23:58Z</time>
      </trkpt>
      <trkpt lat="46.05247" lon="6.1061">
        <ele>995.4</ele>
        <time>2021-03-27T15:24:00Z</time>
      </trkpt>
      <trkpt lat="46.05243" lon="6.10607">
        <ele>995.2</ele>
        <time>2021-03-27T15:24:01Z</time>
      </trkpt>
      <trkpt lat="46.05239" lon="6.10603">
        <ele>995</ele>
        <time>2021-03-27T15:24:02Z</time>
      </trkpt>
      <trkpt lat="46.05235" lon="6.10599">
        <ele>994.4</ele>
        <time>2021-03-27T15:24:03Z</time>
      </trkpt>
      <trkpt lat="46.0523" lon="6.10595">
        <ele>994</ele>
        <time>2021-03-27T15:24:04Z</time>
      </trkpt>
      <trkpt lat="46.05226" lon="6.10591">
        <ele>993.6</ele>
        <time>2021-03-27T15:24:05Z</time>
      </trkpt>
      <trkpt lat="46.05221" lon="6.10587">
        <ele>993.2</ele>
        <time>2021-03-27T15:24:06Z</time>
      </trkpt>
      <trkpt lat="46.05217" lon="6.10582">
        <ele>992.6</ele>
        <time>2021-03-27T15:24:07Z</time>
      </trkpt>
      <trkpt lat="46.05214" lon="6.10576">
        <ele>992.2</ele>
        <time>2021-03-27T15:24:08Z</time>
      </trkpt>
      <trkpt lat="46.0521" lon="6.1057">
        <ele>992</ele>
        <time>2021-03-27T15:24:09Z</time>
      </trkpt>
      <trkpt lat="46.05207" lon="6.10565">
        <ele>991.4</ele>
        <time>2021-03-27T15:24:10Z</time>
      </trkpt>
      <trkpt lat="46.05205" lon="6.1056">
        <ele>991.2</ele>
        <time>2021-03-27T15:24:11Z</time>
      </trkpt>
      <trkpt lat="46.05203" lon="6.10555">
        <ele>990.8</ele>
        <time>2021-03-27T15:24:12Z</time>
      </trkpt>
      <trkpt lat="46.052" lon="6.10551">
        <ele>990.6</ele>
        <time>2021-03-27T15:24:13Z</time>
      </trkpt>
      <trkpt lat="46.05198" lon="6.10547">
        <ele>990.4</ele>
        <time>2021-03-27T15:24:14Z</time>
      </trkpt>
      <trkpt lat="46.05196" lon="6.10542">
        <ele>990.4</ele>
        <time>2021-03-27T15:24:15Z</time>
      </trkpt>
      <trkpt lat="46.05194" lon="6.10537">
        <ele>990</ele>
        <time>2021-03-27T15:24:16Z</time>
      </trkpt>
      <trkpt lat="46.05192" lon="6.10532">
        <ele>989.6</ele>
        <time>2021-03-27T15:24:17Z</time>
      </trkpt>
      <trkpt lat="46.0519" lon="6.10528">
        <ele>989.4</ele>
        <time>2021-03-27T15:24:18Z</time>
      </trkpt>
      <trkpt lat="46.05189" lon="6.10523">
        <ele>989.2</ele>
        <time>2021-03-27T15:24:19Z</time>
      </trkpt>
      <trkpt lat="46.05188" lon="6.1052">
        <ele>988.8</ele>
        <time>2021-03-27T15:24:20Z</time>
      </trkpt>
      <trkpt lat="46.05187" lon="6.10516">
        <ele>988.6</ele>
        <time>2021-03-27T15:24:21Z</time>
      </trkpt>
      <trkpt lat="46.05185" lon="6.10514">
        <ele>988.2</ele>
        <time>2021-03-27T15:24:22Z</time>
      </trkpt>
      <trkpt lat="46.05184" lon="6.10512">
        <ele>988</ele>
        <time>2021-03-27T15:24:23Z</time>
      </trkpt>
      <trkpt lat="46.05183" lon="6.10512">
        <ele>987.6</ele>
        <time>2021-03-27T15:24:24Z</time>
      </trkpt>
      <trkpt lat="46.05183" lon="6.10515">
        <ele>987.4</ele>
        <time>2021-03-27T15:24:25Z</time>
      </trkpt>
      <trkpt lat="46.05184" lon="6.10517">
        <ele>987.2</ele>
        <time>2021-03-27T15:24:26Z</time>
      </trkpt>
      <trkpt lat="46.05185" lon="6.1052">
        <ele>987</ele>
        <time>2021-03-27T15:24:27Z</time>
      </trkpt>
      <trkpt lat="46.05187" lon="6.10523">
        <ele>986.8</ele>
        <time>2021-03-27T15:24:28Z</time>
      </trkpt>
      <trkpt lat="46.05188" lon="6.10526">
        <ele>986.8</ele>
        <time>2021-03-27T15:24:29Z</time>
      </trkpt>
      <trkpt lat="46.0519" lon="6.1053">
        <ele>986.6</ele>
        <time>2021-03-27T15:24:30Z</time>
      </trkpt>
      <trkpt lat="46.05191" lon="6.10533">
        <ele>986.6</ele>
        <time>2021-03-27T15:24:31Z</time>
      </trkpt>
      <trkpt lat="46.05192" lon="6.10536">
        <ele>986.8</ele>
        <time>2021-03-27T15:24:32Z</time>
      </trkpt>
      <trkpt lat="46.05193" lon="6.10539">
        <ele>986.6</ele>
        <time>2021-03-27T15:24:33Z</time>
      </trkpt>
      <trkpt lat="46.05195" lon="6.10542">
        <ele>986.8</ele>
        <time>2021-03-27T15:24:34Z</time>
      </trkpt>
      <trkpt lat="46.05196" lon="6.10545">
        <ele>986.8</ele>
        <time>2021-03-27T15:24:35Z</time>
      </trkpt>
      <trkpt lat="46.05198" lon="6.10548">
        <ele>986.6</ele>
        <time>2021-03-27T15:24:36Z</time>
      </trkpt>
      <trkpt lat="46.052" lon="6.10551">
        <ele>986.8</ele>
        <time>2021-03-27T15:24:37Z</time>
      </trkpt>
      <trkpt lat="46.05202" lon="6.10555">
        <ele>986.8</ele>
        <time>2021-03-27T15:24:38Z</time>
      </trkpt>
      <trkpt lat="46.05203" lon="6.10557">
        <ele>987</ele>
        <time>2021-03-27T15:24:39Z</time>
      </trkpt>
      <trkpt lat="46.05205" lon="6.1056">
        <ele>987.2</ele>
        <time>2021-03-27T15:24:40Z</time>
      </trkpt>
      <trkpt lat="46.05207" lon="6.10564">
        <ele>987.4</ele>
        <time>2021-03-27T15:24:41Z</time>
      </trkpt>
      <trkpt lat="46.05208" lon="6.10567">
        <ele>987.4</ele>
        <time>2021-03-27T15:24:42Z</time>
      </trkpt>
      <trkpt lat="46.0521" lon="6.10569">
        <ele>987.8</ele>
        <time>2021-03-27T15:24:43Z</time>
      </trkpt>
      <trkpt lat="46.05211" lon="6.10571">
        <ele>987.8</ele>
        <time>2021-03-27T15:24:44Z</time>
      </trkpt>
      <trkpt lat="46.05213" lon="6.10574">
        <ele>988</ele>
        <time>2021-03-27T15:24:45Z</time>
      </trkpt>
      <trkpt lat="46.05215" lon="6.10577">
        <ele>988.2</ele>
        <time>2021-03-27T15:24:46Z</time>
      </trkpt>
      <trkpt lat="46.05217" lon="6.10579">
        <ele>988.6</ele>
        <time>2021-03-27T15:24:47Z</time>
      </trkpt>
      <trkpt lat="46.05219" lon="6.10582">
        <ele>988.6</ele>
        <time>2021-03-27T15:24:48Z</time>
      </trkpt>
      <trkpt lat="46.0522" lon="6.10584">
        <ele>988.8</ele>
        <time>2021-03-27T15:24:49Z</time>
      </trkpt>
      <trkpt lat="46.05222" lon="6.10586">
        <ele>989</ele>
        <time>2021-03-27T15:24:50Z</time>
      </trkpt>
      <trkpt lat="46.05224" lon="6.10588">
        <ele>989.2</ele>
        <time>2021-03-27T15:24:51Z</time>
      </trkpt>
      <trkpt lat="46.05226" lon="6.10591">
        <ele>989.4</ele>
        <time>2021-03-27T15:24:52Z</time>
      </trkpt>
      <trkpt lat="46.05228" lon="6.10593">
        <ele>989.6</ele>
        <time>2021-03-27T15:24:53Z</time>
      </trkpt>
      <trkpt lat="46.05229" lon="6.10595">
        <ele>989.6</ele>
        <time>2021-03-27T15:24:54Z</time>
      </trkpt>
      <trkpt lat="46.05232" lon="6.10597">
        <ele>989.8</ele>
        <time>2021-03-27T15:24:55Z</time>
      </trkpt>
      <trkpt lat="46.05234" lon="6.10599">
        <ele>990.2</ele>
        <time>2021-03-27T15:24:56Z</time>
      </trkpt>
      <trkpt lat="46.05236" lon="6.10601">
        <ele>990.2</ele>
        <time>2021-03-27T15:24:57Z</time>
      </trkpt>
      <trkpt lat="46.05239" lon="6.10602">
        <ele>990.4</ele>
        <time>2021-03-27T15:24:58Z</time>
      </trkpt>
      <trkpt lat="46.05241" lon="6.10604">
        <ele>990.6</ele>
        <time>2021-03-27T15:24:59Z</time>
      </trkpt>
      <trkpt lat="46.05243" lon="6.10606">
        <ele>991</ele>
        <time>2021-03-27T15:25:00Z</time>
      </trkpt>
      <trkpt lat="46.05245" lon="6.10608">
        <ele>991.2</ele>
        <time>2021-03-27T15:25:01Z</time>
      </trkpt>
      <trkpt lat="46.05247" lon="6.1061">
        <ele>991.4</ele>
        <time>2021-03-27T15:25:02Z</time>
      </trkpt>
      <trkpt lat="46.05249" lon="6.10612">
        <ele>991.4</ele>
        <time>2021-03-27T15:25:03Z</time>
      </trkpt>
      <trkpt lat="46.05251" lon="6.10614">
        <ele>991.4</ele>
        <time>2021-03-27T15:25:04Z</time>
      </trkpt>
      <trkpt lat="46.05254" lon="6.10615">
        <ele>991.6</ele>
        <time>2021-03-27T15:25:05Z</time>
      </trkpt>
      <trkpt lat="46.05256" lon="6.10617">
        <ele>991.8</ele>
        <time>2021-03-27T15:25:06Z</time>
      </trkpt>
      <trkpt lat="46.05258" lon="6.10618">
        <ele>992</ele>
        <time>2021-03-27T15:25:07Z</time>
      </trkpt>
      <trkpt lat="46.0526" lon="6.1062">
        <ele>992.2</ele>
        <time>2021-03-27T15:25:08Z</time>
      </trkpt>
      <trkpt lat="46.05261" lon="6.10622">
        <ele>992.4</ele>
        <time>2021-03-27T15:25:09Z</time>
      </trkpt>
      <trkpt lat="46.05263" lon="6.10623">
        <ele>992.6</ele>
        <time>2021-03-27T15:25:10Z</time>
      </trkpt>
      <trkpt lat="46.05265" lon="6.10625">
        <ele>992.6</ele>
        <time>2021-03-27T15:25:11Z</time>
      </trkpt>
      <trkpt lat="46.05266" lon="6.10627">
        <ele>993</ele>
        <time>2021-03-27T15:25:12Z</time>
      </trkpt>
      <trkpt lat="46.05268" lon="6.10628">
        <ele>993</ele>
        <time>2021-03-27T15:25:13Z</time>
      </trkpt>
      <trkpt lat="46.05269" lon="6.10629">
        <ele>993</ele>
        <time>2021-03-27T15:25:14Z</time>
      </trkpt>
      <trkpt lat="46.05271" lon="6.10631">
        <ele>993.2</ele>
        <time>2021-03-27T15:25:15Z</time>
      </trkpt>
      <trkpt lat="46.05272" lon="6.10632">
        <ele>993.4</ele>
        <time>2021-03-27T15:25:16Z</time>
      </trkpt>
      <trkpt lat="46.05274" lon="6.10633">
        <ele>993.6</ele>
        <time>2021-03-27T15:25:17Z</time>
      </trkpt>
      <trkpt lat="46.05276" lon="6.10634">
        <ele>993.6</ele>
        <time>2021-03-27T15:25:18Z</time>
      </trkpt>
      <trkpt lat="46.05278" lon="6.10636">
        <ele>993.8</ele>
        <time>2021-03-27T15:25:19Z</time>
      </trkpt>
      <trkpt lat="46.0528" lon="6.10637">
        <ele>994</ele>
        <time>2021-03-27T15:25:20Z</time>
      </trkpt>
      <trkpt lat="46.05282" lon="6.10639">
        <ele>994.2</ele>
        <time>2021-03-27T15:25:21Z</time>
      </trkpt>
      <trkpt lat="46.05284" lon="6.1064">
        <ele>994.4</ele>
        <time>2021-03-27T15:25:22Z</time>
      </trkpt>
      <trkpt lat="46.05286" lon="6.10643">
        <ele>994.6</ele>
        <time>2021-03-27T15:25:23Z</time>
      </trkpt>
      <trkpt lat="46.05288" lon="6.10645">
        <ele>994.8</ele>
        <time>2021-03-27T15:25:24Z</time>
      </trkpt>
      <trkpt lat="46.05291" lon="6.10648">
        <ele>995</ele>
        <time>2021-03-27T15:25:25Z</time>
      </trkpt>
      <trkpt lat="46.05293" lon="6.1065">
        <ele>995.2</ele>
        <time>2021-03-27T15:25:26Z</time>
      </trkpt>
      <trkpt lat="46.05296" lon="6.10652">
        <ele>995.4</ele>
        <time>2021-03-27T15:25:27Z</time>
      </trkpt>
      <trkpt lat="46.05299" lon="6.10654">
        <ele>995.6</ele>
        <time>2021-03-27T15:25:28Z</time>
      </trkpt>
      <trkpt lat="46.05301" lon="6.10656">
        <ele>995.8</ele>
        <time>2021-03-27T15:25:29Z</time>
      </trkpt>
      <trkpt lat="46.05303" lon="6.10659">
        <ele>996</ele>
        <time>2021-03-27T15:25:30Z</time>
      </trkpt>
      <trkpt lat="46.05306" lon="6.10661">
        <ele>996.4</ele>
        <time>2021-03-27T15:25:31Z</time>
      </trkpt>
      <trkpt lat="46.05308" lon="6.10664">
        <ele>996.6</ele>
        <time>2021-03-27T15:25:32Z</time>
      </trkpt>
      <trkpt lat="46.0531" lon="6.10668">
        <ele>996.6</ele>
        <time>2021-03-27T15:25:33Z</time>
      </trkpt>
      <trkpt lat="46.05312" lon="6.10671">
        <ele>996.8</ele>
        <time>2021-03-27T15:25:34Z</time>
      </trkpt>
      <trkpt lat="46.05314" lon="6.10674">
        <ele>996.8</ele>
        <time>2021-03-27T15:25:35Z</time>
      </trkpt>
      <trkpt lat="46.05316" lon="6.10678">
        <ele>997</ele>
        <time>2021-03-27T15:25:36Z</time>
      </trkpt>
      <trkpt lat="46.05317" lon="6.10681">
        <ele>997.2</ele>
        <time>2021-03-27T15:25:37Z</time>
      </trkpt>
      <trkpt lat="46.05319" lon="6.10684">
        <ele>997.4</ele>
        <time>2021-03-27T15:25:38Z</time>
      </trkpt>
      <trkpt lat="46.05321" lon="6.10688">
        <ele>997.6</ele>
        <time>2021-03-27T15:25:39Z</time>
      </trkpt>
      <trkpt lat="46.05322" lon="6.10692">
        <ele>997.6</ele>
        <time>2021-03-27T15:25:40Z</time>
      </trkpt>
      <trkpt lat="46.05323" lon="6.10695">
        <ele>997.6</ele>
        <time>2021-03-27T15:25:41Z</time>
      </trkpt>
      <trkpt lat="46.05324" lon="6.10698">
        <ele>998</ele>
        <time>2021-03-27T15:25:42Z</time>
      </trkpt>
      <trkpt lat="46.05325" lon="6.10701">
        <ele>997.8</ele>
        <time>2021-03-27T15:25:43Z</time>
      </trkpt>
      <trkpt lat="46.05325" lon="6.10705">
        <ele>998</ele>
        <time>2021-03-27T15:25:44Z</time>
      </trkpt>
      <trkpt lat="46.05326" lon="6.10708">
        <ele>998.2</ele>
        <time>2021-03-27T15:25:45Z</time>
      </trkpt>
      <trkpt lat="46.05326" lon="6.10712">
        <ele>998.4</ele>
        <time>2021-03-27T15:25:46Z</time>
      </trkpt>
      <trkpt lat="46.05327" lon="6.10715">
        <ele>998.4</ele>
        <time>2021-03-27T15:25:47Z</time>
      </trkpt>
      <trkpt lat="46.05327" lon="6.10718">
        <ele>998.8</ele>
        <time>2021-03-27T15:25:48Z</time>
      </trkpt>
      <trkpt lat="46.05328" lon="6.10721">
        <ele>999.2</ele>
        <time>2021-03-27T15:25:49Z</time>
      </trkpt>
      <trkpt lat="46.05327" lon="6.10724">
        <ele>999.4</ele>
        <time>2021-03-27T15:25:50Z</time>
      </trkpt>
      <trkpt lat="46.05327" lon="6.10727">
        <ele>999.4</ele>
        <time>2021-03-27T15:25:51Z</time>
      </trkpt>
      <trkpt lat="46.05327" lon="6.10731">
        <ele>999.6</ele>
        <time>2021-03-27T15:25:52Z</time>
      </trkpt>
      <trkpt lat="46.05326" lon="6.10734">
        <ele>999.6</ele>
        <time>2021-03-27T15:25:53Z</time>
      </trkpt>
      <trkpt lat="46.05326" lon="6.10737">
        <ele>999.8</ele>
        <time>2021-03-27T15:25:54Z</time>
      </trkpt>
      <trkpt lat="46.05325" lon="6.10741">
        <ele>1000.2</ele>
        <time>2021-03-27T15:25:55Z</time>
      </trkpt>
      <trkpt lat="46.05325" lon="6.10744">
        <ele>1000.4</ele>
        <time>2021-03-27T15:25:56Z</time>
      </trkpt>
      <trkpt lat="46.05325" lon="6.10748">
        <ele>1000.6</ele>
        <time>2021-03-27T15:25:57Z</time>
      </trkpt>
      <trkpt lat="46.05325" lon="6.10751">
        <ele>1000.8</ele>
        <time>2021-03-27T15:25:58Z</time>
      </trkpt>
      <trkpt lat="46.05325" lon="6.10754">
        <ele>1001.2</ele>
        <time>2021-03-27T15:25:59Z</time>
      </trkpt>
      <trkpt lat="46.05325" lon="6.10758">
        <ele>1001.2</ele>
        <time>2021-03-27T15:26:00Z</time>
      </trkpt>
      <trkpt lat="46.05325" lon="6.1076">
        <ele>1001.4</ele>
        <time>2021-03-27T15:26:01Z</time>
      </trkpt>
      <trkpt lat="46.05325" lon="6.10763">
        <ele>1001.4</ele>
        <time>2021-03-27T15:26:02Z</time>
      </trkpt>
      <trkpt lat="46.05325" lon="6.10766">
        <ele>1001.8</ele>
        <time>2021-03-27T15:26:03Z</time>
      </trkpt>
      <trkpt lat="46.05326" lon="6.1077">
        <ele>1002</ele>
        <time>2021-03-27T15:26:04Z</time>
      </trkpt>
      <trkpt lat="46.05326" lon="6.10773">
        <ele>1002.2</ele>
        <time>2021-03-27T15:26:05Z</time>
      </trkpt>
      <trkpt lat="46.05327" lon="6.10776">
        <ele>1002.6</ele>
        <time>2021-03-27T15:26:06Z</time>
      </trkpt>
      <trkpt lat="46.05327" lon="6.10778">
        <ele>1002.8</ele>
        <time>2021-03-27T15:26:07Z</time>
      </trkpt>
      <trkpt lat="46.05328" lon="6.10781">
        <ele>1003</ele>
        <time>2021-03-27T15:26:08Z</time>
      </trkpt>
      <trkpt lat="46.05329" lon="6.10784">
        <ele>1003</ele>
        <time>2021-03-27T15:26:09Z</time>
      </trkpt>
      <trkpt lat="46.05329" lon="6.10787">
        <ele>1003.2</ele>
        <time>2021-03-27T15:26:10Z</time>
      </trkpt>
      <trkpt lat="46.0533" lon="6.10791">
        <ele>1003.4</ele>
        <time>2021-03-27T15:26:11Z</time>
      </trkpt>
      <trkpt lat="46.0533" lon="6.10795">
        <ele>1003.8</ele>
        <time>2021-03-27T15:26:12Z</time>
      </trkpt>
      <trkpt lat="46.05331" lon="6.10798">
        <ele>1004</ele>
        <time>2021-03-27T15:26:13Z</time>
      </trkpt>
      <trkpt lat="46.05331" lon="6.10801">
        <ele>1004.2</ele>
        <time>2021-03-27T15:26:14Z</time>
      </trkpt>
      <trkpt lat="46.05332" lon="6.10805">
        <ele>1004.4</ele>
        <time>2021-03-27T15:26:15Z</time>
      </trkpt>
      <trkpt lat="46.05333" lon="6.10809">
        <ele>1004.4</ele>
        <time>2021-03-27T15:26:16Z</time>
      </trkpt>
      <trkpt lat="46.05334" lon="6.10813">
        <ele>1004.8</ele>
        <time>2021-03-27T15:26:17Z</time>
      </trkpt>
      <trkpt lat="46.05335" lon="6.10817">
        <ele>1005</ele>
        <time>2021-03-27T15:26:18Z</time>
      </trkpt>
      <trkpt lat="46.05336" lon="6.10821">
        <ele>1005.2</ele>
        <time>2021-03-27T15:26:19Z</time>
      </trkpt>
      <trkpt lat="46.05337" lon="6.10825">
        <ele>1005.2</ele>
        <time>2021-03-27T15:26:20Z</time>
      </trkpt>
      <trkpt lat="46.05338" lon="6.10828">
        <ele>1005.2</ele>
        <time>2021-03-27T15:26:21Z</time>
      </trkpt>
      <trkpt lat="46.05339" lon="6.10832">
        <ele>1005.6</ele>
        <time>2021-03-27T15:26:22Z</time>
      </trkpt>
      <trkpt lat="46.05341" lon="6.10835">
        <ele>1005.6</ele>
        <time>2021-03-27T15:26:23Z</time>
      </trkpt>
      <trkpt lat="46.05342" lon="6.10837">
        <ele>1005.8</ele>
        <time>2021-03-27T15:26:24Z</time>
      </trkpt>
      <trkpt lat="46.05344" lon="6.1084">
        <ele>1006.4</ele>
        <time>2021-03-27T15:26:25Z</time>
      </trkpt>
      <trkpt lat="46.05345" lon="6.10842">
        <ele>1006.6</ele>
        <time>2021-03-27T15:26:26Z</time>
      </trkpt>
      <trkpt lat="46.05347" lon="6.10844">
        <ele>1006.6</ele>
        <time>2021-03-27T15:26:27Z</time>
      </trkpt>
      <trkpt lat="46.05349" lon="6.10846">
        <ele>1006.6</ele>
        <time>2021-03-27T15:26:28Z</time>
      </trkpt>
      <trkpt lat="46.05351" lon="6.10847">
        <ele>1006.8</ele>
        <time>2021-03-27T15:26:29Z</time>
      </trkpt>
      <trkpt lat="46.05353" lon="6.10848">
        <ele>1007</ele>
        <time>2021-03-27T15:26:30Z</time>
      </trkpt>
      <trkpt lat="46.05356" lon="6.10848">
        <ele>1006.8</ele>
        <time>2021-03-27T15:26:31Z</time>
      </trkpt>
      <trkpt lat="46.05358" lon="6.10848">
        <ele>1007</ele>
        <time>2021-03-27T15:26:32Z</time>
      </trkpt>
      <trkpt lat="46.0536" lon="6.10848">
        <ele>1007.2</ele>
        <time>2021-03-27T15:26:33Z</time>
      </trkpt>
      <trkpt lat="46.05362" lon="6.10848">
        <ele>1007.4</ele>
        <time>2021-03-27T15:26:34Z</time>
      </trkpt>
      <trkpt lat="46.05364" lon="6.10847">
        <ele>1007.6</ele>
        <time>2021-03-27T15:26:35Z</time>
      </trkpt>
      <trkpt lat="46.05366" lon="6.10846">
        <ele>1007.8</ele>
        <time>2021-03-27T15:26:36Z</time>
      </trkpt>
      <trkpt lat="46.05368" lon="6.10844">
        <ele>1007.8</ele>
        <time>2021-03-27T15:26:37Z</time>
      </trkpt>
      <trkpt lat="46.0537" lon="6.10843">
        <ele>1008</ele>
        <time>2021-03-27T15:26:38Z</time>
      </trkpt>
      <trkpt lat="46.05372" lon="6.10842">
        <ele>1008</ele>
        <time>2021-03-27T15:26:39Z</time>
      </trkpt>
      <trkpt lat="46.05375" lon="6.10841">
        <ele>1008.2</ele>
        <time>2021-03-27T15:26:40Z</time>
      </trkpt>
      <trkpt lat="46.05377" lon="6.1084">
        <ele>1008.4</ele>
        <time>2021-03-27T15:26:41Z</time>
      </trkpt>
      <trkpt lat="46.05379" lon="6.10839">
        <ele>1008.4</ele>
        <time>2021-03-27T15:26:42Z</time>
      </trkpt>
      <trkpt lat="46.05381" lon="6.10838">
        <ele>1008.6</ele>
        <time>2021-03-27T15:26:43Z</time>
      </trkpt>
      <trkpt lat="46.05384" lon="6.10838">
        <ele>1009</ele>
        <time>2021-03-27T15:26:44Z</time>
      </trkpt>
      <trkpt lat="46.05386" lon="6.10837">
        <ele>1009</ele>
        <time>2021-03-27T15:26:45Z</time>
      </trkpt>
      <trkpt lat="46.05389" lon="6.10837">
        <ele>1009</ele>
        <time>2021-03-27T15:26:46Z</time>
      </trkpt>
      <trkpt lat="46.05391" lon="6.10836">
        <ele>1009.2</ele>
        <time>2021-03-27T15:26:47Z</time>
      </trkpt>
      <trkpt lat="46.05393" lon="6.10836">
        <ele>1009.2</ele>
        <time>2021-03-27T15:26:48Z</time>
      </trkpt>
      <trkpt lat="46.05395" lon="6.10835">
        <ele>1009.4</ele>
        <time>2021-03-27T15:26:49Z</time>
      </trkpt>
      <trkpt lat="46.05398" lon="6.10834">
        <ele>1009.4</ele>
        <time>2021-03-27T15:26:50Z</time>
      </trkpt>
      <trkpt lat="46.054" lon="6.10833">
        <ele>1009.6</ele>
        <time>2021-03-27T15:26:51Z</time>
      </trkpt>
      <trkpt lat="46.05402" lon="6.10832">
        <ele>1009.8</ele>
        <time>2021-03-27T15:26:52Z</time>
      </trkpt>
      <trkpt lat="46.05404" lon="6.10831">
        <ele>1010</ele>
        <time>2021-03-27T15:26:53Z</time>
      </trkpt>
      <trkpt lat="46.05406" lon="6.10829">
        <ele>1010.2</ele>
        <time>2021-03-27T15:26:54Z</time>
      </trkpt>
      <trkpt lat="46.05407" lon="6.10826">
        <ele>1010.4</ele>
        <time>2021-03-27T15:26:55Z</time>
      </trkpt>
      <trkpt lat="46.05408" lon="6.10823">
        <ele>1010.2</ele>
        <time>2021-03-27T15:26:56Z</time>
      </trkpt>
      <trkpt lat="46.05409" lon="6.1082">
        <ele>1010.4</ele>
        <time>2021-03-27T15:26:57Z</time>
      </trkpt>
      <trkpt lat="46.0541" lon="6.10817">
        <ele>1010.4</ele>
        <time>2021-03-27T15:26:58Z</time>
      </trkpt>
      <trkpt lat="46.0541" lon="6.10814">
        <ele>1010.6</ele>
        <time>2021-03-27T15:26:59Z</time>
      </trkpt>
      <trkpt lat="46.0541" lon="6.10811">
        <ele>1010.6</ele>
        <time>2021-03-27T15:27:00Z</time>
      </trkpt>
      <trkpt lat="46.05409" lon="6.10808">
        <ele>1010.8</ele>
        <time>2021-03-27T15:27:01Z</time>
      </trkpt>
      <trkpt lat="46.05409" lon="6.10804">
        <ele>1011</ele>
        <time>2021-03-27T15:27:02Z</time>
      </trkpt>
      <trkpt lat="46.05409" lon="6.10801">
        <ele>1011</ele>
        <time>2021-03-27T15:27:03Z</time>
      </trkpt>
      <trkpt lat="46.05409" lon="6.10797">
        <ele>1011</ele>
        <time>2021-03-27T15:27:04Z</time>
      </trkpt>
      <trkpt lat="46.05409" lon="6.10794">
        <ele>1011</ele>
        <time>2021-03-27T15:27:05Z</time>
      </trkpt>
      <trkpt lat="46.05409" lon="6.1079">
        <ele>1011.4</ele>
        <time>2021-03-27T15:27:06Z</time>
      </trkpt>
      <trkpt lat="46.05409" lon="6.10787">
        <ele>1011.4</ele>
        <time>2021-03-27T15:27:07Z</time>
      </trkpt>
      <trkpt lat="46.05409" lon="6.10782">
        <ele>1011.6</ele>
        <time>2021-03-27T15:27:08Z</time>
      </trkpt>
      <trkpt lat="46.0541" lon="6.10778">
        <ele>1011.6</ele>
        <time>2021-03-27T15:27:09Z</time>
      </trkpt>
      <trkpt lat="46.05411" lon="6.10774">
        <ele>1012</ele>
        <time>2021-03-27T15:27:10Z</time>
      </trkpt>
      <trkpt lat="46.05411" lon="6.1077">
        <ele>1012</ele>
        <time>2021-03-27T15:27:11Z</time>
      </trkpt>
      <trkpt lat="46.05412" lon="6.10767">
        <ele>1012</ele>
        <time>2021-03-27T15:27:12Z</time>
      </trkpt>
      <trkpt lat="46.05412" lon="6.10763">
        <ele>1012.2</ele>
        <time>2021-03-27T15:27:13Z</time>
      </trkpt>
      <trkpt lat="46.05413" lon="6.10759">
        <ele>1012.2</ele>
        <time>2021-03-27T15:27:14Z</time>
      </trkpt>
      <trkpt lat="46.05414" lon="6.10756">
        <ele>1012.2</ele>
        <time>2021-03-27T15:27:15Z</time>
      </trkpt>
      <trkpt lat="46.05415" lon="6.10752">
        <ele>1012.2</ele>
        <time>2021-03-27T15:27:16Z</time>
      </trkpt>
      <trkpt lat="46.05416" lon="6.10748">
        <ele>1012.4</ele>
        <time>2021-03-27T15:27:17Z</time>
      </trkpt>
      <trkpt lat="46.05416" lon="6.10744">
        <ele>1012.6</ele>
        <time>2021-03-27T15:27:18Z</time>
      </trkpt>
      <trkpt lat="46.05416" lon="6.10741">
        <ele>1012.8</ele>
        <time>2021-03-27T15:27:19Z</time>
      </trkpt>
      <trkpt lat="46.05417" lon="6.10738">
        <ele>1013</ele>
        <time>2021-03-27T15:27:20Z</time>
      </trkpt>
      <trkpt lat="46.05417" lon="6.10735">
        <ele>1013</ele>
        <time>2021-03-27T15:27:21Z</time>
      </trkpt>
      <trkpt lat="46.05418" lon="6.10731">
        <ele>1013</ele>
        <time>2021-03-27T15:27:22Z</time>
      </trkpt>
      <trkpt lat="46.05418" lon="6.10727">
        <ele>1013.2</ele>
        <time>2021-03-27T15:27:23Z</time>
      </trkpt>
      <trkpt lat="46.05418" lon="6.10723">
        <ele>1013.4</ele>
        <time>2021-03-27T15:27:24Z</time>
      </trkpt>
      <trkpt lat="46.05418" lon="6.10719">
        <ele>1013.4</ele>
        <time>2021-03-27T15:27:25Z</time>
      </trkpt>
      <trkpt lat="46.05417" lon="6.10714">
        <ele>1013.4</ele>
        <time>2021-03-27T15:27:26Z</time>
      </trkpt>
      <trkpt lat="46.05417" lon="6.10709">
        <ele>1013.6</ele>
        <time>2021-03-27T15:27:27Z</time>
      </trkpt>
      <trkpt lat="46.05416" lon="6.10704">
        <ele>1013.8</ele>
        <time>2021-03-27T15:27:28Z</time>
      </trkpt>
      <trkpt lat="46.05416" lon="6.10699">
        <ele>1013.8</ele>
        <time>2021-03-27T15:27:29Z</time>
      </trkpt>
      <trkpt lat="46.05415" lon="6.10694">
        <ele>1014</ele>
        <time>2021-03-27T15:27:30Z</time>
      </trkpt>
      <trkpt lat="46.05415" lon="6.1069">
        <ele>1014</ele>
        <time>2021-03-27T15:27:31Z</time>
      </trkpt>
      <trkpt lat="46.05414" lon="6.10685">
        <ele>1014.2</ele>
        <time>2021-03-27T15:27:32Z</time>
      </trkpt>
      <trkpt lat="46.05413" lon="6.1068">
        <ele>1014.2</ele>
        <time>2021-03-27T15:27:33Z</time>
      </trkpt>
      <trkpt lat="46.05412" lon="6.10675">
        <ele>1014.4</ele>
        <time>2021-03-27T15:27:34Z</time>
      </trkpt>
      <trkpt lat="46.05412" lon="6.10671">
        <ele>1014.4</ele>
        <time>2021-03-27T15:27:35Z</time>
      </trkpt>
      <trkpt lat="46.05411" lon="6.10666">
        <ele>1014.6</ele>
        <time>2021-03-27T15:27:36Z</time>
      </trkpt>
      <trkpt lat="46.0541" lon="6.10662">
        <ele>1014.8</ele>
        <time>2021-03-27T15:27:37Z</time>
      </trkpt>
      <trkpt lat="46.05409" lon="6.10658">
        <ele>1015</ele>
        <time>2021-03-27T15:27:38Z</time>
      </trkpt>
      <trkpt lat="46.05409" lon="6.10654">
        <ele>1015</ele>
        <time>2021-03-27T15:27:39Z</time>
      </trkpt>
      <trkpt lat="46.05408" lon="6.10649">
        <ele>1015.4</ele>
        <time>2021-03-27T15:27:40Z</time>
      </trkpt>
      <trkpt lat="46.05407" lon="6.10645">
        <ele>1015.4</ele>
        <time>2021-03-27T15:27:41Z</time>
      </trkpt>
      <trkpt lat="46.05407" lon="6.10642">
        <ele>1015.4</ele>
        <time>2021-03-27T15:27:42Z</time>
      </trkpt>
      <trkpt lat="46.05406" lon="6.10639">
        <ele>1015.6</ele>
        <time>2021-03-27T15:27:43Z</time>
      </trkpt>
      <trkpt lat="46.05405" lon="6.10635">
        <ele>1015.6</ele>
        <time>2021-03-27T15:27:44Z</time>
      </trkpt>
      <trkpt lat="46.05403" lon="6.10631">
        <ele>1015.8</ele>
        <time>2021-03-27T15:27:45Z</time>
      </trkpt>
      <trkpt lat="46.05401" lon="6.10628">
        <ele>1016</ele>
        <time>2021-03-27T15:27:46Z</time>
      </trkpt>
      <trkpt lat="46.05398" lon="6.10624">
        <ele>1016</ele>
        <time>2021-03-27T15:27:47Z</time>
      </trkpt>
      <trkpt lat="46.05396" lon="6.10621">
        <ele>1016.2</ele>
        <time>2021-03-27T15:27:48Z</time>
      </trkpt>
      <trkpt lat="46.05394" lon="6.10618">
        <ele>1016.4</ele>
        <time>2021-03-27T15:27:49Z</time>
      </trkpt>
      <trkpt lat="46.05391" lon="6.10616">
        <ele>1016.4</ele>
        <time>2021-03-27T15:27:50Z</time>
      </trkpt>
      <trkpt lat="46.05389" lon="6.10614">
        <ele>1016.6</ele>
        <time>2021-03-27T15:27:51Z</time>
      </trkpt>
      <trkpt lat="46.05386" lon="6.10612">
        <ele>1016.6</ele>
        <time>2021-03-27T15:27:52Z</time>
      </trkpt>
      <trkpt lat="46.05384" lon="6.1061">
        <ele>1017</ele>
        <time>2021-03-27T15:27:53Z</time>
      </trkpt>
      <trkpt lat="46.05381" lon="6.10608">
        <ele>1017</ele>
        <time>2021-03-27T15:27:54Z</time>
      </trkpt>
      <trkpt lat="46.05379" lon="6.10605">
        <ele>1017.4</ele>
        <time>2021-03-27T15:27:55Z</time>
      </trkpt>
      <trkpt lat="46.05376" lon="6.10604">
        <ele>1017.6</ele>
        <time>2021-03-27T15:27:56Z</time>
      </trkpt>
      <trkpt lat="46.05373" lon="6.10601">
        <ele>1017.6</ele>
        <time>2021-03-27T15:27:57Z</time>
      </trkpt>
      <trkpt lat="46.0537" lon="6.10599">
        <ele>1017.8</ele>
        <time>2021-03-27T15:27:58Z</time>
      </trkpt>
      <trkpt lat="46.05367" lon="6.10597">
        <ele>1017.8</ele>
        <time>2021-03-27T15:27:59Z</time>
      </trkpt>
      <trkpt lat="46.05364" lon="6.10595">
        <ele>1018</ele>
        <time>2021-03-27T15:28:00Z</time>
      </trkpt>
      <trkpt lat="46.05361" lon="6.10593">
        <ele>1018.2</ele>
        <time>2021-03-27T15:28:01Z</time>
      </trkpt>
      <trkpt lat="46.05359" lon="6.10591">
        <ele>1018.4</ele>
        <time>2021-03-27T15:28:02Z</time>
      </trkpt>
      <trkpt lat="46.05356" lon="6.10588">
        <ele>1018.6</ele>
        <time>2021-03-27T15:28:03Z</time>
      </trkpt>
      <trkpt lat="46.05354" lon="6.10585">
        <ele>1018.8</ele>
        <time>2021-03-27T15:28:04Z</time>
      </trkpt>
      <trkpt lat="46.05352" lon="6.10582">
        <ele>1018.8</ele>
        <time>2021-03-27T15:28:05Z</time>
      </trkpt>
      <trkpt lat="46.0535" lon="6.10579">
        <ele>1019</ele>
        <time>2021-03-27T15:28:06Z</time>
      </trkpt>
      <trkpt lat="46.05348" lon="6.10575">
        <ele>1019.2</ele>
        <time>2021-03-27T15:28:07Z</time>
      </trkpt>
      <trkpt lat="46.05347" lon="6.10572">
        <ele>1019.2</ele>
        <time>2021-03-27T15:28:08Z</time>
      </trkpt>
      <trkpt lat="46.05346" lon="6.10568">
        <ele>1019.2</ele>
        <time>2021-03-27T15:28:09Z</time>
      </trkpt>
      <trkpt lat="46.05345" lon="6.10564">
        <ele>1019.2</ele>
        <time>2021-03-27T15:28:10Z</time>
      </trkpt>
      <trkpt lat="46.05345" lon="6.10559">
        <ele>1019.6</ele>
        <time>2021-03-27T15:28:11Z</time>
      </trkpt>
      <trkpt lat="46.05345" lon="6.10555">
        <ele>1019.6</ele>
        <time>2021-03-27T15:28:12Z</time>
      </trkpt>
      <trkpt lat="46.05346" lon="6.1055">
        <ele>1019.6</ele>
        <time>2021-03-27T15:28:13Z</time>
      </trkpt>
      <trkpt lat="46.05346" lon="6.10546">
        <ele>1020</ele>
        <time>2021-03-27T15:28:14Z</time>
      </trkpt>
      <trkpt lat="46.05347" lon="6.10541">
        <ele>1020.2</ele>
        <time>2021-03-27T15:28:15Z</time>
      </trkpt>
      <trkpt lat="46.05349" lon="6.10537">
        <ele>1020.2</ele>
        <time>2021-03-27T15:28:16Z</time>
      </trkpt>
      <trkpt lat="46.0535" lon="6.10534">
        <ele>1020.4</ele>
        <time>2021-03-27T15:28:17Z</time>
      </trkpt>
      <trkpt lat="46.05352" lon="6.10531">
        <ele>1020.6</ele>
        <time>2021-03-27T15:28:18Z</time>
      </trkpt>
      <trkpt lat="46.05355" lon="6.10528">
        <ele>1020.8</ele>
        <time>2021-03-27T15:28:19Z</time>
      </trkpt>
      <trkpt lat="46.05357" lon="6.10525">
        <ele>1021</ele>
        <time>2021-03-27T15:28:20Z</time>
      </trkpt>
      <trkpt lat="46.0536" lon="6.10523">
        <ele>1021</ele>
        <time>2021-03-27T15:28:21Z</time>
      </trkpt>
      <trkpt lat="46.05363" lon="6.10521">
        <ele>1021.4</ele>
        <time>2021-03-27T15:28:22Z</time>
      </trkpt>
      <trkpt lat="46.05366" lon="6.1052">
        <ele>1021.6</ele>
        <time>2021-03-27T15:28:23Z</time>
      </trkpt>
      <trkpt lat="46.05368" lon="6.10519">
        <ele>1021.6</ele>
        <time>2021-03-27T15:28:24Z</time>
      </trkpt>
      <trkpt lat="46.05371" lon="6.10519">
        <ele>1022.2</ele>
        <time>2021-03-27T15:28:25Z</time>
      </trkpt>
      <trkpt lat="46.05373" lon="6.1052">
        <ele>1022.4</ele>
        <time>2021-03-27T15:28:26Z</time>
      </trkpt>
      <trkpt lat="46.05376" lon="6.10521">
        <ele>1022.6</ele>
        <time>2021-03-27T15:28:27Z</time>
      </trkpt>
      <trkpt lat="46.05379" lon="6.10522">
        <ele>1022.8</ele>
        <time>2021-03-27T15:28:28Z</time>
      </trkpt>
      <trkpt lat="46.05382" lon="6.10523">
        <ele>1023</ele>
        <time>2021-03-27T15:28:29Z</time>
      </trkpt>
      <trkpt lat="46.05384" lon="6.10524">
        <ele>1023.4</ele>
        <time>2021-03-27T15:28:30Z</time>
      </trkpt>
      <trkpt lat="46.05387" lon="6.10525">
        <ele>1023.4</ele>
        <time>2021-03-27T15:28:31Z</time>
      </trkpt>
      <trkpt lat="46.0539" lon="6.10525">
        <ele>1023.6</ele>
        <time>2021-03-27T15:28:32Z</time>
      </trkpt>
      <trkpt lat="46.05393" lon="6.10525">
        <ele>1023.8</ele>
        <time>2021-03-27T15:28:33Z</time>
      </trkpt>
      <trkpt lat="46.05396" lon="6.10525">
        <ele>1023.8</ele>
        <time>2021-03-27T15:28:34Z</time>
      </trkpt>
      <trkpt lat="46.05398" lon="6.10526">
        <ele>1024</ele>
        <time>2021-03-27T15:28:35Z</time>
      </trkpt>
      <trkpt lat="46.05401" lon="6.10525">
        <ele>1024.2</ele>
        <time>2021-03-27T15:28:36Z</time>
      </trkpt>
      <trkpt lat="46.05403" lon="6.10525">
        <ele>1024.2</ele>
        <time>2021-03-27T15:28:37Z</time>
      </trkpt>
      <trkpt lat="46.05405" lon="6.10524">
        <ele>1024.2</ele>
        <time>2021-03-27T15:28:38Z</time>
      </trkpt>
      <trkpt lat="46.05407" lon="6.10522">
        <ele>1024.4</ele>
        <time>2021-03-27T15:28:39Z</time>
      </trkpt>
      <trkpt lat="46.05409" lon="6.10521">
        <ele>1024.6</ele>
        <time>2021-03-27T15:28:40Z</time>
      </trkpt>
      <trkpt lat="46.05411" lon="6.10519">
        <ele>1024.8</ele>
        <time>2021-03-27T15:28:41Z</time>
      </trkpt>
      <trkpt lat="46.05413" lon="6.10517">
        <ele>1025</ele>
        <time>2021-03-27T15:28:42Z</time>
      </trkpt>
      <trkpt lat="46.05415" lon="6.10515">
        <ele>1025.2</ele>
        <time>2021-03-27T15:28:43Z</time>
      </trkpt>
      <trkpt lat="46.05417" lon="6.10513">
        <ele>1025.6</ele>
        <time>2021-03-27T15:28:44Z</time>
      </trkpt>
      <trkpt lat="46.05419" lon="6.10511">
        <ele>1025.6</ele>
        <time>2021-03-27T15:28:45Z</time>
      </trkpt>
      <trkpt lat="46.05422" lon="6.10509">
        <ele>1025.8</ele>
        <time>2021-03-27T15:28:46Z</time>
      </trkpt>
      <trkpt lat="46.05424" lon="6.10508">
        <ele>1026</ele>
        <time>2021-03-27T15:28:47Z</time>
      </trkpt>
      <trkpt lat="46.05428" lon="6.10506">
        <ele>1026</ele>
        <time>2021-03-27T15:28:48Z</time>
      </trkpt>
      <trkpt lat="46.05431" lon="6.10505">
        <ele>1026.2</ele>
        <time>2021-03-27T15:28:49Z</time>
      </trkpt>
      <trkpt lat="46.05434" lon="6.10503">
        <ele>1026.2</ele>
        <time>2021-03-27T15:28:50Z</time>
      </trkpt>
      <trkpt lat="46.05436" lon="6.10501">
        <ele>1026.4</ele>
        <time>2021-03-27T15:28:51Z</time>
      </trkpt>
      <trkpt lat="46.05439" lon="6.105">
        <ele>1026.4</ele>
        <time>2021-03-27T15:28:52Z</time>
      </trkpt>
      <trkpt lat="46.05442" lon="6.10498">
        <ele>1026.6</ele>
        <time>2021-03-27T15:28:53Z</time>
      </trkpt>
      <trkpt lat="46.05444" lon="6.10497">
        <ele>1026.6</ele>
        <time>2021-03-27T15:28:54Z</time>
      </trkpt>
      <trkpt lat="46.05447" lon="6.10495">
        <ele>1026.8</ele>
        <time>2021-03-27T15:28:55Z</time>
      </trkpt>
      <trkpt lat="46.05449" lon="6.10493">
        <ele>1026.8</ele>
        <time>2021-03-27T15:28:56Z</time>
      </trkpt>
      <trkpt lat="46.05452" lon="6.10491">
        <ele>1027</ele>
        <time>2021-03-27T15:28:57Z</time>
      </trkpt>
      <trkpt lat="46.05455" lon="6.10489">
        <ele>1027.2</ele>
        <time>2021-03-27T15:28:58Z</time>
      </trkpt>
      <trkpt lat="46.05457" lon="6.10487">
        <ele>1027.4</ele>
        <time>2021-03-27T15:28:59Z</time>
      </trkpt>
      <trkpt lat="46.0546" lon="6.10485">
        <ele>1027.6</ele>
        <time>2021-03-27T15:29:00Z</time>
      </trkpt>
      <trkpt lat="46.05463" lon="6.10483">
        <ele>1028</ele>
        <time>2021-03-27T15:29:01Z</time>
      </trkpt>
      <trkpt lat="46.05465" lon="6.10481">
        <ele>1028.2</ele>
        <time>2021-03-27T15:29:02Z</time>
      </trkpt>
      <trkpt lat="46.05468" lon="6.10479">
        <ele>1028.2</ele>
        <time>2021-03-27T15:29:03Z</time>
      </trkpt>
      <trkpt lat="46.05471" lon="6.10478">
        <ele>1028.4</ele>
        <time>2021-03-27T15:29:04Z</time>
      </trkpt>
      <trkpt lat="46.05473" lon="6.10476">
        <ele>1028.6</ele>
        <time>2021-03-27T15:29:05Z</time>
      </trkpt>
      <trkpt lat="46.05475" lon="6.10475">
        <ele>1028.6</ele>
        <time>2021-03-27T15:29:06Z</time>
      </trkpt>
      <trkpt lat="46.05477" lon="6.10473">
        <ele>1029</ele>
        <time>2021-03-27T15:29:07Z</time>
      </trkpt>
      <trkpt lat="46.0548" lon="6.10472">
        <ele>1029</ele>
        <time>2021-03-27T15:29:08Z</time>
      </trkpt>
      <trkpt lat="46.05482" lon="6.10471">
        <ele>1029.2</ele>
        <time>2021-03-27T15:29:09Z</time>
      </trkpt>
      <trkpt lat="46.05484" lon="6.10469">
        <ele>1029.2</ele>
        <time>2021-03-27T15:29:10Z</time>
      </trkpt>
      <trkpt lat="46.05486" lon="6.10467">
        <ele>1029.4</ele>
        <time>2021-03-27T15:29:11Z</time>
      </trkpt>
      <trkpt lat="46.05488" lon="6.10466">
        <ele>1029.6</ele>
        <time>2021-03-27T15:29:12Z</time>
      </trkpt>
      <trkpt lat="46.05491" lon="6.10464">
        <ele>1030</ele>
        <time>2021-03-27T15:29:13Z</time>
      </trkpt>
      <trkpt lat="46.05493" lon="6.10462">
        <ele>1030.2</ele>
        <time>2021-03-27T15:29:14Z</time>
      </trkpt>
      <trkpt lat="46.05495" lon="6.1046">
        <ele>1030.4</ele>
        <time>2021-03-27T15:29:15Z</time>
      </trkpt>
      <trkpt lat="46.05497" lon="6.10458">
        <ele>1030.6</ele>
        <time>2021-03-27T15:29:16Z</time>
      </trkpt>
      <trkpt lat="46.055" lon="6.10455">
        <ele>1030.8</ele>
        <time>2021-03-27T15:29:17Z</time>
      </trkpt>
      <trkpt lat="46.05502" lon="6.10453">
        <ele>1031</ele>
        <time>2021-03-27T15:29:18Z</time>
      </trkpt>
      <trkpt lat="46.05504" lon="6.1045">
        <ele>1031</ele>
        <time>2021-03-27T15:29:19Z</time>
      </trkpt>
      <trkpt lat="46.05506" lon="6.10447">
        <ele>1031.4</ele>
        <time>2021-03-27T15:29:20Z</time>
      </trkpt>
      <trkpt lat="46.05508" lon="6.10444">
        <ele>1031.6</ele>
        <time>2021-03-27T15:29:21Z</time>
      </trkpt>
      <trkpt lat="46.05509" lon="6.10441">
        <ele>1031.8</ele>
        <time>2021-03-27T15:29:22Z</time>
      </trkpt>
      <trkpt lat="46.05511" lon="6.10438">
        <ele>1031.8</ele>
        <time>2021-03-27T15:29:23Z</time>
      </trkpt>
      <trkpt lat="46.05512" lon="6.10434">
        <ele>1032</ele>
        <time>2021-03-27T15:29:24Z</time>
      </trkpt>
      <trkpt lat="46.05513" lon="6.10431">
        <ele>1032.2</ele>
        <time>2021-03-27T15:29:25Z</time>
      </trkpt>
      <trkpt lat="46.05515" lon="6.10428">
        <ele>1032.4</ele>
        <time>2021-03-27T15:29:26Z</time>
      </trkpt>
      <trkpt lat="46.05517" lon="6.10425">
        <ele>1032.6</ele>
        <time>2021-03-27T15:29:27Z</time>
      </trkpt>
      <trkpt lat="46.05519" lon="6.10422">
        <ele>1032.6</ele>
        <time>2021-03-27T15:29:28Z</time>
      </trkpt>
      <trkpt lat="46.0552" lon="6.10419">
        <ele>1032.8</ele>
        <time>2021-03-27T15:29:29Z</time>
      </trkpt>
      <trkpt lat="46.05522" lon="6.10415">
        <ele>1032.8</ele>
        <time>2021-03-27T15:29:30Z</time>
      </trkpt>
      <trkpt lat="46.05523" lon="6.10411">
        <ele>1033</ele>
        <time>2021-03-27T15:29:31Z</time>
      </trkpt>
      <trkpt lat="46.05524" lon="6.10408">
        <ele>1033.2</ele>
        <time>2021-03-27T15:29:32Z</time>
      </trkpt>
      <trkpt lat="46.05525" lon="6.10405">
        <ele>1033.4</ele>
        <time>2021-03-27T15:29:33Z</time>
      </trkpt>
      <trkpt lat="46.05527" lon="6.10402">
        <ele>1033.4</ele>
        <time>2021-03-27T15:29:34Z</time>
      </trkpt>
      <trkpt lat="46.05528" lon="6.10399">
        <ele>1033.6</ele>
        <time>2021-03-27T15:29:35Z</time>
      </trkpt>
      <trkpt lat="46.0553" lon="6.10396">
        <ele>1033.4</ele>
        <time>2021-03-27T15:29:36Z</time>
      </trkpt>
      <trkpt lat="46.05532" lon="6.10393">
        <ele>1033.6</ele>
        <time>2021-03-27T15:29:37Z</time>
      </trkpt>
      <trkpt lat="46.05533" lon="6.1039">
        <ele>1033.8</ele>
        <time>2021-03-27T15:29:38Z</time>
      </trkpt>
      <trkpt lat="46.05535" lon="6.10387">
        <ele>1033.8</ele>
        <time>2021-03-27T15:29:39Z</time>
      </trkpt>
      <trkpt lat="46.05536" lon="6.10384">
        <ele>1034</ele>
        <time>2021-03-27T15:29:40Z</time>
      </trkpt>
      <trkpt lat="46.05537" lon="6.10382">
        <ele>1034</ele>
        <time>2021-03-27T15:29:41Z</time>
      </trkpt>
      <trkpt lat="46.05538" lon="6.10379">
        <ele>1034.2</ele>
        <time>2021-03-27T15:29:42Z</time>
      </trkpt>
      <trkpt lat="46.05539" lon="6.10377">
        <ele>1034.4</ele>
        <time>2021-03-27T15:29:43Z</time>
      </trkpt>
      <trkpt lat="46.0554" lon="6.10373">
        <ele>1034.2</ele>
        <time>2021-03-27T15:29:44Z</time>
      </trkpt>
      <trkpt lat="46.05541" lon="6.1037">
        <ele>1034.4</ele>
        <time>2021-03-27T15:29:45Z</time>
      </trkpt>
      <trkpt lat="46.05542" lon="6.10367">
        <ele>1034.4</ele>
        <time>2021-03-27T15:29:46Z</time>
      </trkpt>
      <trkpt lat="46.05543" lon="6.10364">
        <ele>1034.4</ele>
        <time>2021-03-27T15:29:47Z</time>
      </trkpt>
      <trkpt lat="46.05544" lon="6.1036">
        <ele>1034.6</ele>
        <time>2021-03-27T15:29:48Z</time>
      </trkpt>
      <trkpt lat="46.05546" lon="6.10356">
        <ele>1034.8</ele>
        <time>2021-03-27T15:29:49Z</time>
      </trkpt>
      <trkpt lat="46.05547" lon="6.10352">
        <ele>1034.8</ele>
        <time>2021-03-27T15:29:50Z</time>
      </trkpt>
      <trkpt lat="46.05548" lon="6.10347">
        <ele>1035.2</ele>
        <time>2021-03-27T15:29:51Z</time>
      </trkpt>
      <trkpt lat="46.05549" lon="6.10343">
        <ele>1035.4</ele>
        <time>2021-03-27T15:29:52Z</time>
      </trkpt>
      <trkpt lat="46.0555" lon="6.10338">
        <ele>1035.6</ele>
        <time>2021-03-27T15:29:53Z</time>
      </trkpt>
      <trkpt lat="46.05551" lon="6.10334">
        <ele>1035.8</ele>
        <time>2021-03-27T15:29:54Z</time>
      </trkpt>
      <trkpt lat="46.05552" lon="6.1033">
        <ele>1036</ele>
        <time>2021-03-27T15:29:55Z</time>
      </trkpt>
      <trkpt lat="46.05553" lon="6.10326">
        <ele>1035.8</ele>
        <time>2021-03-27T15:29:56Z</time>
      </trkpt>
      <trkpt lat="46.05554" lon="6.10321">
        <ele>1036</ele>
        <time>2021-03-27T15:29:57Z</time>
      </trkpt>
      <trkpt lat="46.05555" lon="6.10317">
        <ele>1036</ele>
        <time>2021-03-27T15:29:58Z</time>
      </trkpt>
      <trkpt lat="46.05556" lon="6.10312">
        <ele>1036.2</ele>
        <time>2021-03-27T15:29:59Z</time>
      </trkpt>
      <trkpt lat="46.05557" lon="6.10308">
        <ele>1036.2</ele>
        <time>2021-03-27T15:30:00Z</time>
      </trkpt>
      <trkpt lat="46.05558" lon="6.10303">
        <ele>1036.4</ele>
        <time>2021-03-27T15:30:01Z</time>
      </trkpt>
      <trkpt lat="46.05559" lon="6.10299">
        <ele>1036.4</ele>
        <time>2021-03-27T15:30:02Z</time>
      </trkpt>
      <trkpt lat="46.0556" lon="6.10294">
        <ele>1036.4</ele>
        <time>2021-03-27T15:30:03Z</time>
      </trkpt>
      <trkpt lat="46.05562" lon="6.10289">
        <ele>1036.6</ele>
        <time>2021-03-27T15:30:04Z</time>
      </trkpt>
      <trkpt lat="46.05563" lon="6.10285">
        <ele>1036.6</ele>
        <time>2021-03-27T15:30:05Z</time>
      </trkpt>
      <trkpt lat="46.05565" lon="6.1028">
        <ele>1036.8</ele>
        <time>2021-03-27T15:30:06Z</time>
      </trkpt>
      <trkpt lat="46.05566" lon="6.10275">
        <ele>1036.8</ele>
        <time>2021-03-27T15:30:07Z</time>
      </trkpt>
      <trkpt lat="46.05568" lon="6.1027">
        <ele>1037</ele>
        <time>2021-03-27T15:30:08Z</time>
      </trkpt>
      <trkpt lat="46.0557" lon="6.10265">
        <ele>1037</ele>
        <time>2021-03-27T15:30:09Z</time>
      </trkpt>
      <trkpt lat="46.05571" lon="6.1026">
        <ele>1037.2</ele>
        <time>2021-03-27T15:30:10Z</time>
      </trkpt>
      <trkpt lat="46.05573" lon="6.10255">
        <ele>1037.4</ele>
        <time>2021-03-27T15:30:11Z</time>
      </trkpt>
      <trkpt lat="46.05574" lon="6.10251">
        <ele>1037.4</ele>
        <time>2021-03-27T15:30:12Z</time>
      </trkpt>
      <trkpt lat="46.05576" lon="6.10246">
        <ele>1037.8</ele>
        <time>2021-03-27T15:30:13Z</time>
      </trkpt>
      <trkpt lat="46.05578" lon="6.10241">
        <ele>1037.8</ele>
        <time>2021-03-27T15:30:14Z</time>
      </trkpt>
      <trkpt lat="46.0558" lon="6.10235">
        <ele>1038</ele>
        <time>2021-03-27T15:30:15Z</time>
      </trkpt>
      <trkpt lat="46.05581" lon="6.1023">
        <ele>1038</ele>
        <time>2021-03-27T15:30:16Z</time>
      </trkpt>
      <trkpt lat="46.05583" lon="6.10225">
        <ele>1038.2</ele>
        <time>2021-03-27T15:30:17Z</time>
      </trkpt>
      <trkpt lat="46.05584" lon="6.1022">
        <ele>1038.2</ele>
        <time>2021-03-27T15:30:18Z</time>
      </trkpt>
      <trkpt lat="46.05586" lon="6.10215">
        <ele>1038</ele>
        <time>2021-03-27T15:30:19Z</time>
      </trkpt>
      <trkpt lat="46.05588" lon="6.1021">
        <ele>1038.2</ele>
        <time>2021-03-27T15:30:20Z</time>
      </trkpt>
      <trkpt lat="46.05589" lon="6.10205">
        <ele>1038.4</ele>
        <time>2021-03-27T15:30:21Z</time>
      </trkpt>
      <trkpt lat="46.05591" lon="6.102">
        <ele>1038.6</ele>
        <time>2021-03-27T15:30:22Z</time>
      </trkpt>
      <trkpt lat="46.05593" lon="6.10195">
        <ele>1038.6</ele>
        <time>2021-03-27T15:30:23Z</time>
      </trkpt>
      <trkpt lat="46.05595" lon="6.10189">
        <ele>1038.6</ele>
        <time>2021-03-27T15:30:24Z</time>
      </trkpt>
      <trkpt lat="46.05597" lon="6.10184">
        <ele>1038.6</ele>
        <time>2021-03-27T15:30:25Z</time>
      </trkpt>
      <trkpt lat="46.05599" lon="6.10179">
        <ele>1039.2</ele>
        <time>2021-03-27T15:30:26Z</time>
      </trkpt>
      <trkpt lat="46.056" lon="6.10173">
        <ele>1039.2</ele>
        <time>2021-03-27T15:30:27Z</time>
      </trkpt>
      <trkpt lat="46.05602" lon="6.10167">
        <ele>1039.4</ele>
        <time>2021-03-27T15:30:28Z</time>
      </trkpt>
      <trkpt lat="46.05604" lon="6.10161">
        <ele>1039.4</ele>
        <time>2021-03-27T15:30:29Z</time>
      </trkpt>
      <trkpt lat="46.05605" lon="6.10154">
        <ele>1039.6</ele>
        <time>2021-03-27T15:30:30Z</time>
      </trkpt>
      <trkpt lat="46.05606" lon="6.10148">
        <ele>1039.8</ele>
        <time>2021-03-27T15:30:31Z</time>
      </trkpt>
      <trkpt lat="46.05607" lon="6.10142">
        <ele>1039.6</ele>
        <time>2021-03-27T15:30:32Z</time>
      </trkpt>
      <trkpt lat="46.05608" lon="6.10136">
        <ele>1039.8</ele>
        <time>2021-03-27T15:30:33Z</time>
      </trkpt>
      <trkpt lat="46.05609" lon="6.10129">
        <ele>1039.8</ele>
        <time>2021-03-27T15:30:34Z</time>
      </trkpt>
      <trkpt lat="46.0561" lon="6.10123">
        <ele>1039.8</ele>
        <time>2021-03-27T15:30:35Z</time>
      </trkpt>
      <trkpt lat="46.05611" lon="6.10117">
        <ele>1039.8</ele>
        <time>2021-03-27T15:30:36Z</time>
      </trkpt>
      <trkpt lat="46.05611" lon="6.1011">
        <ele>1039.8</ele>
        <time>2021-03-27T15:30:37Z</time>
      </trkpt>
      <trkpt lat="46.05611" lon="6.10104">
        <ele>1039.6</ele>
        <time>2021-03-27T15:30:38Z</time>
      </trkpt>
      <trkpt lat="46.05611" lon="6.10097">
        <ele>1039.8</ele>
        <time>2021-03-27T15:30:39Z</time>
      </trkpt>
      <trkpt lat="46.05611" lon="6.10091">
        <ele>1039.8</ele>
        <time>2021-03-27T15:30:40Z</time>
      </trkpt>
      <trkpt lat="46.05611" lon="6.10084">
        <ele>1039.6</ele>
        <time>2021-03-27T15:30:41Z</time>
      </trkpt>
      <trkpt lat="46.05611" lon="6.10077">
        <ele>1039.8</ele>
        <time>2021-03-27T15:30:42Z</time>
      </trkpt>
      <trkpt lat="46.0561" lon="6.1007">
        <ele>1039.6</ele>
        <time>2021-03-27T15:30:43Z</time>
      </trkpt>
      <trkpt lat="46.0561" lon="6.10063">
        <ele>1039.4</ele>
        <time>2021-03-27T15:30:44Z</time>
      </trkpt>
      <trkpt lat="46.0561" lon="6.10055">
        <ele>1039.4</ele>
        <time>2021-03-27T15:30:45Z</time>
      </trkpt>
      <trkpt lat="46.05609" lon="6.10048">
        <ele>1039.2</ele>
        <time>2021-03-27T15:30:46Z</time>
      </trkpt>
      <trkpt lat="46.05609" lon="6.1004">
        <ele>1039.2</ele>
        <time>2021-03-27T15:30:47Z</time>
      </trkpt>
      <trkpt lat="46.05609" lon="6.10032">
        <ele>1039</ele>
        <time>2021-03-27T15:30:48Z</time>
      </trkpt>
      <trkpt lat="46.05609" lon="6.10024">
        <ele>1038.6</ele>
        <time>2021-03-27T15:30:49Z</time>
      </trkpt>
      <trkpt lat="46.05609" lon="6.10016">
        <ele>1038.6</ele>
        <time>2021-03-27T15:30:50Z</time>
      </trkpt>
      <trkpt lat="46.05608" lon="6.10008">
        <ele>1038.6</ele>
        <time>2021-03-27T15:30:51Z</time>
      </trkpt>
      <trkpt lat="46.05608" lon="6.09999">
        <ele>1038.4</ele>
        <time>2021-03-27T15:30:52Z</time>
      </trkpt>
      <trkpt lat="46.05608" lon="6.09991">
        <ele>1038.2</ele>
        <time>2021-03-27T15:30:53Z</time>
      </trkpt>
      <trkpt lat="46.05608" lon="6.09982">
        <ele>1038</ele>
        <time>2021-03-27T15:30:54Z</time>
      </trkpt>
      <trkpt lat="46.05608" lon="6.09973">
        <ele>1037.8</ele>
        <time>2021-03-27T15:30:55Z</time>
      </trkpt>
      <trkpt lat="46.05607" lon="6.09964">
        <ele>1037.8</ele>
        <time>2021-03-27T15:30:56Z</time>
      </trkpt>
      <trkpt lat="46.05606" lon="6.09955">
        <ele>1037.4</ele>
        <time>2021-03-27T15:30:57Z</time>
      </trkpt>
      <trkpt lat="46.05604" lon="6.09946">
        <ele>1037.2</ele>
        <time>2021-03-27T15:30:58Z</time>
      </trkpt>
      <trkpt lat="46.05602" lon="6.09937">
        <ele>1037.2</ele>
        <time>2021-03-27T15:30:59Z</time>
      </trkpt>
      <trkpt lat="46.05601" lon="6.09929">
        <ele>1037.2</ele>
        <time>2021-03-27T15:31:00Z</time>
      </trkpt>
      <trkpt lat="46.05599" lon="6.09921">
        <ele>1037</ele>
        <time>2021-03-27T15:31:01Z</time>
      </trkpt>
      <trkpt lat="46.05597" lon="6.09914">
        <ele>1036.8</ele>
        <time>2021-03-27T15:31:02Z</time>
      </trkpt>
      <trkpt lat="46.05595" lon="6.09907">
        <ele>1036.8</ele>
        <time>2021-03-27T15:31:03Z</time>
      </trkpt>
      <trkpt lat="46.05594" lon="6.09901">
        <ele>1036.6</ele>
        <time>2021-03-27T15:31:04Z</time>
      </trkpt>
      <trkpt lat="46.05592" lon="6.09896">
        <ele>1036.6</ele>
        <time>2021-03-27T15:31:05Z</time>
      </trkpt>
      <trkpt lat="46.0559" lon="6.0989">
        <ele>1036.8</ele>
        <time>2021-03-27T15:31:06Z</time>
      </trkpt>
      <trkpt lat="46.05589" lon="6.09885">
        <ele>1036.6</ele>
        <time>2021-03-27T15:31:07Z</time>
      </trkpt>
      <trkpt lat="46.05588" lon="6.09879">
        <ele>1036.6</ele>
        <time>2021-03-27T15:31:08Z</time>
      </trkpt>
      <trkpt lat="46.05587" lon="6.09874">
        <ele>1036.6</ele>
        <time>2021-03-27T15:31:09Z</time>
      </trkpt>
      <trkpt lat="46.05586" lon="6.09869">
        <ele>1036.6</ele>
        <time>2021-03-27T15:31:10Z</time>
      </trkpt>
      <trkpt lat="46.05585" lon="6.09863">
        <ele>1036.6</ele>
        <time>2021-03-27T15:31:11Z</time>
      </trkpt>
      <trkpt lat="46.05585" lon="6.09857">
        <ele>1036.8</ele>
        <time>2021-03-27T15:31:12Z</time>
      </trkpt>
      <trkpt lat="46.05585" lon="6.09851">
        <ele>1036.6</ele>
        <time>2021-03-27T15:31:13Z</time>
      </trkpt>
      <trkpt lat="46.05585" lon="6.09845">
        <ele>1036.8</ele>
        <time>2021-03-27T15:31:14Z</time>
      </trkpt>
      <trkpt lat="46.05584" lon="6.0984">
        <ele>1037</ele>
        <time>2021-03-27T15:31:15Z</time>
      </trkpt>
      <trkpt lat="46.05584" lon="6.09835">
        <ele>1037.2</ele>
        <time>2021-03-27T15:31:16Z</time>
      </trkpt>
      <trkpt lat="46.05585" lon="6.0983">
        <ele>1037.2</ele>
        <time>2021-03-27T15:31:17Z</time>
      </trkpt>
      <trkpt lat="46.05585" lon="6.09825">
        <ele>1037.6</ele>
        <time>2021-03-27T15:31:18Z</time>
      </trkpt>
      <trkpt lat="46.05585" lon="6.0982">
        <ele>1037.8</ele>
        <time>2021-03-27T15:31:19Z</time>
      </trkpt>
      <trkpt lat="46.05586" lon="6.09816">
        <ele>1038</ele>
        <time>2021-03-27T15:31:20Z</time>
      </trkpt>
      <trkpt lat="46.05588" lon="6.09812">
        <ele>1038.4</ele>
        <time>2021-03-27T15:31:21Z</time>
      </trkpt>
      <trkpt lat="46.0559" lon="6.09808">
        <ele>1038.6</ele>
        <time>2021-03-27T15:31:22Z</time>
      </trkpt>
      <trkpt lat="46.05592" lon="6.09805">
        <ele>1038.8</ele>
        <time>2021-03-27T15:31:23Z</time>
      </trkpt>
      <trkpt lat="46.05594" lon="6.09802">
        <ele>1039</ele>
        <time>2021-03-27T15:31:24Z</time>
      </trkpt>
      <trkpt lat="46.05597" lon="6.09799">
        <ele>1039.2</ele>
        <time>2021-03-27T15:31:25Z</time>
      </trkpt>
      <trkpt lat="46.05599" lon="6.09796">
        <ele>1039.4</ele>
        <time>2021-03-27T15:31:26Z</time>
      </trkpt>
      <trkpt lat="46.05601" lon="6.09792">
        <ele>1039.8</ele>
        <time>2021-03-27T15:31:27Z</time>
      </trkpt>
      <trkpt lat="46.05603" lon="6.09789">
        <ele>1040.4</ele>
        <time>2021-03-27T15:31:28Z</time>
      </trkpt>
      <trkpt lat="46.05606" lon="6.09786">
        <ele>1040.6</ele>
        <time>2021-03-27T15:31:29Z</time>
      </trkpt>
      <trkpt lat="46.05608" lon="6.09783">
        <ele>1041</ele>
        <time>2021-03-27T15:31:30Z</time>
      </trkpt>
      <trkpt lat="46.0561" lon="6.0978">
        <ele>1041.4</ele>
        <time>2021-03-27T15:31:31Z</time>
      </trkpt>
      <trkpt lat="46.05612" lon="6.09777">
        <ele>1041.8</ele>
        <time>2021-03-27T15:31:32Z</time>
      </trkpt>
      <trkpt lat="46.05614" lon="6.09773">
        <ele>1042.2</ele>
        <time>2021-03-27T15:31:33Z</time>
      </trkpt>
      <trkpt lat="46.05616" lon="6.09769">
        <ele>1042.4</ele>
        <time>2021-03-27T15:31:34Z</time>
      </trkpt>
      <trkpt lat="46.05618" lon="6.09766">
        <ele>1043</ele>
        <time>2021-03-27T15:31:35Z</time>
      </trkpt>
      <trkpt lat="46.0562" lon="6.09762">
        <ele>1043.4</ele>
        <time>2021-03-27T15:31:36Z</time>
      </trkpt>
      <trkpt lat="46.05622" lon="6.09759">
        <ele>1043.6</ele>
        <time>2021-03-27T15:31:37Z</time>
      </trkpt>
      <trkpt lat="46.05624" lon="6.09756">
        <ele>1043.8</ele>
        <time>2021-03-27T15:31:38Z</time>
      </trkpt>
      <trkpt lat="46.05626" lon="6.09752">
        <ele>1044.2</ele>
        <time>2021-03-27T15:31:39Z</time>
      </trkpt>
      <trkpt lat="46.05628" lon="6.09749">
        <ele>1044.2</ele>
        <time>2021-03-27T15:31:40Z</time>
      </trkpt>
      <trkpt lat="46.0563" lon="6.09745">
        <ele>1044.6</ele>
        <time>2021-03-27T15:31:41Z</time>
      </trkpt>
      <trkpt lat="46.05633" lon="6.09743">
        <ele>1045</ele>
        <time>2021-03-27T15:31:42Z</time>
      </trkpt>
      <trkpt lat="46.05635" lon="6.09741">
        <ele>1045.2</ele>
        <time>2021-03-27T15:31:43Z</time>
      </trkpt>
      <trkpt lat="46.05638" lon="6.09741">
        <ele>1045.4</ele>
        <time>2021-03-27T15:31:44Z</time>
      </trkpt>
      <trkpt lat="46.0564" lon="6.09741">
        <ele>1045.4</ele>
        <time>2021-03-27T15:31:45Z</time>
      </trkpt>
      <trkpt lat="46.05642" lon="6.09742">
        <ele>1045.6</ele>
        <time>2021-03-27T15:31:46Z</time>
      </trkpt>
      <trkpt lat="46.05643" lon="6.09744">
        <ele>1046</ele>
        <time>2021-03-27T15:31:47Z</time>
      </trkpt>
      <trkpt lat="46.05644" lon="6.09745">
        <ele>1046.2</ele>
        <time>2021-03-27T15:31:48Z</time>
      </trkpt>
      <trkpt lat="46.05644" lon="6.09745">
        <ele>1046.4</ele>
        <time>2021-03-27T15:31:49Z</time>
      </trkpt>
      <trkpt lat="46.05644" lon="6.09745">
        <ele>1046.4</ele>
        <time>2021-03-27T15:31:50Z</time>
      </trkpt>
      <trkpt lat="46.05644" lon="6.09745">
        <ele>1046.4</ele>
        <time>2021-03-27T15:31:51Z</time>
      </trkpt>
      <trkpt lat="46.05644" lon="6.09745">
        <ele>1046.8</ele>
        <time>2021-03-27T15:31:52Z</time>
      </trkpt>
      <trkpt lat="46.05644" lon="6.09745">
        <ele>1046.8</ele>
        <time>2021-03-27T15:31:53Z</time>
      </trkpt>
      <trkpt lat="46.05644" lon="6.09745">
        <ele>1047</ele>
        <time>2021-03-27T15:31:54Z</time>
      </trkpt>
      <trkpt lat="46.05644" lon="6.09744">
        <ele>1047.2</ele>
        <time>2021-03-27T15:31:55Z</time>
      </trkpt>
      <trkpt lat="46.05644" lon="6.09744">
        <ele>1047.4</ele>
        <time>2021-03-27T15:31:56Z</time>
      </trkpt>
      <trkpt lat="46.05644" lon="6.09744">
        <ele>1047.4</ele>
        <time>2021-03-27T15:31:57Z</time>
      </trkpt>
      <trkpt lat="46.05644" lon="6.09745">
        <ele>1047.4</ele>
        <time>2021-03-27T15:31:58Z</time>
      </trkpt>
      <trkpt lat="46.05643" lon="6.09745">
        <ele>1047.4</ele>
        <time>2021-03-27T15:31:59Z</time>
      </trkpt>
      <trkpt lat="46.05643" lon="6.09745">
        <ele>1047.4</ele>
        <time>2021-03-27T15:32:00Z</time>
      </trkpt>
      <trkpt lat="46.05643" lon="6.09745">
        <ele>1047.6</ele>
        <time>2021-03-27T15:32:01Z</time>
      </trkpt>
      <trkpt lat="46.05643" lon="6.09746">
        <ele>1047.6</ele>
        <time>2021-03-27T15:32:02Z</time>
      </trkpt>
      <trkpt lat="46.05642" lon="6.09746">
        <ele>1047.4</ele>
        <time>2021-03-27T15:32:03Z</time>
      </trkpt>
      <trkpt lat="46.05642" lon="6.09746">
        <ele>1047.6</ele>
        <time>2021-03-27T15:32:04Z</time>
      </trkpt>
      <trkpt lat="46.05642" lon="6.09746">
        <ele>1047.4</ele>
        <time>2021-03-27T15:32:05Z</time>
      </trkpt>
      <trkpt lat="46.05641" lon="6.09746">
        <ele>1047.6</ele>
        <time>2021-03-27T15:32:06Z</time>
      </trkpt>
      <trkpt lat="46.05641" lon="6.09746">
        <ele>1047.6</ele>
        <time>2021-03-27T15:32:07Z</time>
      </trkpt>
      <trkpt lat="46.0564" lon="6.09747">
        <ele>1047.6</ele>
        <time>2021-03-27T15:32:08Z</time>
      </trkpt>
      <trkpt lat="46.0564" lon="6.09747">
        <ele>1047.6</ele>
        <time>2021-03-27T15:32:09Z</time>
      </trkpt>
      <trkpt lat="46.0564" lon="6.09747">
        <ele>1047.6</ele>
        <time>2021-03-27T15:32:10Z</time>
      </trkpt>
      <trkpt lat="46.0564" lon="6.09748">
        <ele>1047.6</ele>
        <time>2021-03-27T15:32:11Z</time>
      </trkpt>
      <trkpt lat="46.0564" lon="6.09748">
        <ele>1047.6</ele>
        <time>2021-03-27T15:32:12Z</time>
      </trkpt>
      <trkpt lat="46.0564" lon="6.09748">
        <ele>1047.6</ele>
        <time>2021-03-27T15:32:13Z</time>
      </trkpt>
      <trkpt lat="46.0564" lon="6.09748">
        <ele>1047.6</ele>
        <time>2021-03-27T15:32:14Z</time>
      </trkpt>
      <trkpt lat="46.0564" lon="6.09748">
        <ele>1047.6</ele>
        <time>2021-03-27T15:32:15Z</time>
      </trkpt>
      <trkpt lat="46.0564" lon="6.09748">
        <ele>1047.6</ele>
        <time>2021-03-27T15:32:16Z</time>
      </trkpt>
      <trkpt lat="46.0564" lon="6.09748">
        <ele>1047.6</ele>
        <time>2021-03-27T15:32:17Z</time>
      </trkpt>
      <trkpt lat="46.0564" lon="6.09748">
        <ele>1047.6</ele>
        <time>2021-03-27T15:32:18Z</time>
      </trkpt>
      <trkpt lat="46.0564" lon="6.09748">
        <ele>1047.6</ele>
        <time>2021-03-27T15:32:19Z</time>
      </trkpt>
      <trkpt lat="46.0564" lon="6.09748">
        <ele>1047.6</ele>
        <time>2021-03-27T15:32:20Z</time>
      </trkpt>
      <trkpt lat="46.0564" lon="6.09748">
        <ele>1047.6</ele>
        <time>2021-03-27T15:32:21Z</time>
      </trkpt>
      <trkpt lat="46.0564" lon="6.09748">
        <ele>1047.6</ele>
        <time>2021-03-27T15:32:22Z</time>
      </trkpt>
      <trkpt lat="46.0564" lon="6.09748">
        <ele>1047.6</ele>
        <time>2021-03-27T15:32:23Z</time>
      </trkpt>
      <trkpt lat="46.0564" lon="6.09748">
        <ele>1047.6</ele>
        <time>2021-03-27T15:32:24Z</time>
      </trkpt>
      <trkpt lat="46.05639" lon="6.09748">
        <ele>1047.6</ele>
        <time>2021-03-27T15:32:25Z</time>
      </trkpt>
      <trkpt lat="46.05639" lon="6.09749">
        <ele>1047.6</ele>
        <time>2021-03-27T15:32:26Z</time>
      </trkpt>
      <trkpt lat="46.0564" lon="6.09749">
        <ele>1047.6</ele>
        <time>2021-03-27T15:32:27Z</time>
      </trkpt>
      <trkpt lat="46.0564" lon="6.0975">
        <ele>1047.6</ele>
        <time>2021-03-27T15:32:28Z</time>
      </trkpt>
      <trkpt lat="46.0564" lon="6.0975">
        <ele>1047.6</ele>
        <time>2021-03-27T15:32:29Z</time>
      </trkpt>
      <trkpt lat="46.0564" lon="6.0975">
        <ele>1047.6</ele>
        <time>2021-03-27T15:32:30Z</time>
      </trkpt>
      <trkpt lat="46.0564" lon="6.0975">
        <ele>1047.8</ele>
        <time>2021-03-27T15:32:31Z</time>
      </trkpt>
      <trkpt lat="46.0564" lon="6.0975">
        <ele>1047.8</ele>
        <time>2021-03-27T15:32:32Z</time>
      </trkpt>
      <trkpt lat="46.0564" lon="6.0975">
        <ele>1047.8</ele>
        <time>2021-03-27T15:32:33Z</time>
      </trkpt>
      <trkpt lat="46.0564" lon="6.0975">
        <ele>1047.8</ele>
        <time>2021-03-27T15:32:34Z</time>
      </trkpt>
      <trkpt lat="46.0564" lon="6.0975">
        <ele>1047.8</ele>
        <time>2021-03-27T15:32:35Z</time>
      </trkpt>
      <trkpt lat="46.05639" lon="6.0975">
        <ele>1047.8</ele>
        <time>2021-03-27T15:32:36Z</time>
      </trkpt>
      <trkpt lat="46.05639" lon="6.09749">
        <ele>1047.8</ele>
        <time>2021-03-27T15:32:37Z</time>
      </trkpt>
      <trkpt lat="46.05639" lon="6.09749">
        <ele>1047.8</ele>
        <time>2021-03-27T15:32:38Z</time>
      </trkpt>
      <trkpt lat="46.05639" lon="6.09749">
        <ele>1047.8</ele>
        <time>2021-03-27T15:32:39Z</time>
      </trkpt>
      <trkpt lat="46.05639" lon="6.09749">
        <ele>1047.8</ele>
        <time>2021-03-27T15:32:40Z</time>
      </trkpt>
      <trkpt lat="46.05638" lon="6.09749">
        <ele>1047.8</ele>
        <time>2021-03-27T15:32:41Z</time>
      </trkpt>
      <trkpt lat="46.05638" lon="6.09749">
        <ele>1047.8</ele>
        <time>2021-03-27T15:32:42Z</time>
      </trkpt>
      <trkpt lat="46.05638" lon="6.09749">
        <ele>1047.8</ele>
        <time>2021-03-27T15:32:43Z</time>
      </trkpt>
      <trkpt lat="46.05638" lon="6.09749">
        <ele>1048</ele>
        <time>2021-03-27T15:32:44Z</time>
      </trkpt>
      <trkpt lat="46.05637" lon="6.09749">
        <ele>1047.8</ele>
        <time>2021-03-27T15:32:45Z</time>
      </trkpt>
      <trkpt lat="46.05637" lon="6.09749">
        <ele>1047.8</ele>
        <time>2021-03-27T15:32:46Z</time>
      </trkpt>
      <trkpt lat="46.05637" lon="6.09749">
        <ele>1047.8</ele>
        <time>2021-03-27T15:32:47Z</time>
      </trkpt>
      <trkpt lat="46.05637" lon="6.09749">
        <ele>1047.8</ele>
        <time>2021-03-27T15:32:48Z</time>
      </trkpt>
      <trkpt lat="46.05637" lon="6.09749">
        <ele>1047.8</ele>
        <time>2021-03-27T15:32:49Z</time>
      </trkpt>
      <trkpt lat="46.05637" lon="6.09749">
        <ele>1047.8</ele>
        <time>2021-03-27T15:32:50Z</time>
      </trkpt>
      <trkpt lat="46.05637" lon="6.09749">
        <ele>1047.8</ele>
        <time>2021-03-27T15:32:51Z</time>
      </trkpt>
      <trkpt lat="46.05637" lon="6.09749">
        <ele>1047.6</ele>
        <time>2021-03-27T15:32:52Z</time>
      </trkpt>
      <trkpt lat="46.05637" lon="6.09749">
        <ele>1047.8</ele>
        <time>2021-03-27T15:32:53Z</time>
      </trkpt>
      <trkpt lat="46.05637" lon="6.09749">
        <ele>1047.8</ele>
        <time>2021-03-27T15:32:54Z</time>
      </trkpt>
      <trkpt lat="46.05638" lon="6.09748">
        <ele>1047.8</ele>
        <time>2021-03-27T15:32:55Z</time>
      </trkpt>
      <trkpt lat="46.05638" lon="6.09748">
        <ele>1047.8</ele>
        <time>2021-03-27T15:32:56Z</time>
      </trkpt>
      <trkpt lat="46.05638" lon="6.09748">
        <ele>1047.8</ele>
        <time>2021-03-27T15:32:57Z</time>
      </trkpt>
      <trkpt lat="46.05638" lon="6.09748">
        <ele>1047.6</ele>
        <time>2021-03-27T15:32:58Z</time>
      </trkpt>
      <trkpt lat="46.05638" lon="6.09748">
        <ele>1047.8</ele>
        <time>2021-03-27T15:32:59Z</time>
      </trkpt>
      <trkpt lat="46.05638" lon="6.09748">
        <ele>1047.8</ele>
        <time>2021-03-27T15:33:00Z</time>
      </trkpt>
      <trkpt lat="46.05638" lon="6.09747">
        <ele>1047.8</ele>
        <time>2021-03-27T15:33:01Z</time>
      </trkpt>
      <trkpt lat="46.05637" lon="6.09747">
        <ele>1047.8</ele>
        <time>2021-03-27T15:33:02Z</time>
      </trkpt>
      <trkpt lat="46.05637" lon="6.09747">
        <ele>1047.8</ele>
        <time>2021-03-27T15:33:03Z</time>
      </trkpt>
      <trkpt lat="46.05636" lon="6.09747">
        <ele>1047.8</ele>
        <time>2021-03-27T15:33:04Z</time>
      </trkpt>
      <trkpt lat="46.05636" lon="6.09747">
        <ele>1047.8</ele>
        <time>2021-03-27T15:33:05Z</time>
      </trkpt>
      <trkpt lat="46.05636" lon="6.09747">
        <ele>1047.8</ele>
        <time>2021-03-27T15:33:06Z</time>
      </trkpt>
      <trkpt lat="46.05636" lon="6.09747">
        <ele>1047.8</ele>
        <time>2021-03-27T15:33:07Z</time>
      </trkpt>
      <trkpt lat="46.05636" lon="6.09747">
        <ele>1047.8</ele>
        <time>2021-03-27T15:33:08Z</time>
      </trkpt>
      <trkpt lat="46.05636" lon="6.09747">
        <ele>1047.8</ele>
        <time>2021-03-27T15:33:09Z</time>
      </trkpt>
      <trkpt lat="46.05636" lon="6.09747">
        <ele>1047.8</ele>
        <time>2021-03-27T15:33:10Z</time>
      </trkpt>
      <trkpt lat="46.05637" lon="6.09747">
        <ele>1047.8</ele>
        <time>2021-03-27T15:33:11Z</time>
      </trkpt>
      <trkpt lat="46.05636" lon="6.09747">
        <ele>1047.8</ele>
        <time>2021-03-27T15:33:12Z</time>
      </trkpt>
      <trkpt lat="46.05636" lon="6.09748">
        <ele>1047.6</ele>
        <time>2021-03-27T15:33:13Z</time>
      </trkpt>
      <trkpt lat="46.05636" lon="6.09748">
        <ele>1047.6</ele>
        <time>2021-03-27T15:33:14Z</time>
      </trkpt>
      <trkpt lat="46.05637" lon="6.09748">
        <ele>1047.6</ele>
        <time>2021-03-27T15:33:15Z</time>
      </trkpt>
      <trkpt lat="46.05637" lon="6.09748">
        <ele>1047.6</ele>
        <time>2021-03-27T15:33:16Z</time>
      </trkpt>
      <trkpt lat="46.05637" lon="6.09748">
        <ele>1047.6</ele>
        <time>2021-03-27T15:33:17Z</time>
      </trkpt>
      <trkpt lat="46.05637" lon="6.09748">
        <ele>1047.6</ele>
        <time>2021-03-27T15:33:18Z</time>
      </trkpt>
      <trkpt lat="46.05637" lon="6.09748">
        <ele>1047.4</ele>
        <time>2021-03-27T15:33:19Z</time>
      </trkpt>
      <trkpt lat="46.05637" lon="6.09747">
        <ele>1047.6</ele>
        <time>2021-03-27T15:33:20Z</time>
      </trkpt>
      <trkpt lat="46.05637" lon="6.09747">
        <ele>1047.6</ele>
        <time>2021-03-27T15:33:21Z</time>
      </trkpt>
      <trkpt lat="46.05637" lon="6.09747">
        <ele>1047.6</ele>
        <time>2021-03-27T15:33:22Z</time>
      </trkpt>
      <trkpt lat="46.05637" lon="6.09747">
        <ele>1047.4</ele>
        <time>2021-03-27T15:33:23Z</time>
      </trkpt>
      <trkpt lat="46.05638" lon="6.09747">
        <ele>1047.4</ele>
        <time>2021-03-27T15:33:24Z</time>
      </trkpt>
      <trkpt lat="46.05639" lon="6.09748">
        <ele>1047.4</ele>
        <time>2021-03-27T15:33:25Z</time>
      </trkpt>
      <trkpt lat="46.05639" lon="6.09748">
        <ele>1047.6</ele>
        <time>2021-03-27T15:33:26Z</time>
      </trkpt>
      <trkpt lat="46.0564" lon="6.09748">
        <ele>1047.4</ele>
        <time>2021-03-27T15:33:27Z</time>
      </trkpt>
      <trkpt lat="46.0564" lon="6.09748">
        <ele>1047.4</ele>
        <time>2021-03-27T15:33:28Z</time>
      </trkpt>
      <trkpt lat="46.0564" lon="6.09749">
        <ele>1047.4</ele>
        <time>2021-03-27T15:33:29Z</time>
      </trkpt>
      <trkpt lat="46.0564" lon="6.09749">
        <ele>1047.6</ele>
        <time>2021-03-27T15:33:30Z</time>
      </trkpt>
      <trkpt lat="46.0564" lon="6.09749">
        <ele>1047.6</ele>
        <time>2021-03-27T15:33:31Z</time>
      </trkpt>
      <trkpt lat="46.0564" lon="6.09749">
        <ele>1047.6</ele>
        <time>2021-03-27T15:33:32Z</time>
      </trkpt>
      <trkpt lat="46.0564" lon="6.09749">
        <ele>1047.6</ele>
        <time>2021-03-27T15:33:33Z</time>
      </trkpt>
      <trkpt lat="46.0564" lon="6.09749">
        <ele>1047.6</ele>
        <time>2021-03-27T15:33:34Z</time>
      </trkpt>
      <trkpt lat="46.0564" lon="6.0975">
        <ele>1047.6</ele>
        <time>2021-03-27T15:33:35Z</time>
      </trkpt>
      <trkpt lat="46.0564" lon="6.0975">
        <ele>1047.6</ele>
        <time>2021-03-27T15:33:36Z</time>
      </trkpt>
      <trkpt lat="46.0564" lon="6.0975">
        <ele>1047.6</ele>
        <time>2021-03-27T15:33:37Z</time>
      </trkpt>
      <trkpt lat="46.0564" lon="6.0975">
        <ele>1047.6</ele>
        <time>2021-03-27T15:33:38Z</time>
      </trkpt>
      <trkpt lat="46.0564" lon="6.0975">
        <ele>1047.6</ele>
        <time>2021-03-27T15:33:39Z</time>
      </trkpt>
      <trkpt lat="46.0564" lon="6.0975">
        <ele>1047.6</ele>
        <time>2021-03-27T15:33:40Z</time>
      </trkpt>
      <trkpt lat="46.0564" lon="6.0975">
        <ele>1047.6</ele>
        <time>2021-03-27T15:33:41Z</time>
      </trkpt>
      <trkpt lat="46.0564" lon="6.0975">
        <ele>1047.6</ele>
        <time>2021-03-27T15:33:42Z</time>
      </trkpt>
      <trkpt lat="46.0564" lon="6.0975">
        <ele>1047.6</ele>
        <time>2021-03-27T15:33:43Z</time>
      </trkpt>
      <trkpt lat="46.0564" lon="6.0975">
        <ele>1047.6</ele>
        <time>2021-03-27T15:33:44Z</time>
      </trkpt>
      <trkpt lat="46.0564" lon="6.09751">
        <ele>1047.6</ele>
        <time>2021-03-27T15:33:45Z</time>
      </trkpt>
      <trkpt lat="46.0564" lon="6.09751">
        <ele>1047.6</ele>
        <time>2021-03-27T15:33:46Z</time>
      </trkpt>
      <trkpt lat="46.0564" lon="6.09751">
        <ele>1047.6</ele>
        <time>2021-03-27T15:33:47Z</time>
      </trkpt>
      <trkpt lat="46.0564" lon="6.09751">
        <ele>1047.6</ele>
        <time>2021-03-27T15:33:48Z</time>
      </trkpt>
      <trkpt lat="46.05639" lon="6.09752">
        <ele>1047.6</ele>
        <time>2021-03-27T15:33:49Z</time>
      </trkpt>
      <trkpt lat="46.0564" lon="6.09752">
        <ele>1047.4</ele>
        <time>2021-03-27T15:33:50Z</time>
      </trkpt>
      <trkpt lat="46.0564" lon="6.09752">
        <ele>1047.4</ele>
        <time>2021-03-27T15:33:51Z</time>
      </trkpt>
      <trkpt lat="46.0564" lon="6.09752">
        <ele>1047.4</ele>
        <time>2021-03-27T15:33:52Z</time>
      </trkpt>
      <trkpt lat="46.0564" lon="6.09752">
        <ele>1047.4</ele>
        <time>2021-03-27T15:33:53Z</time>
      </trkpt>
      <trkpt lat="46.0564" lon="6.09753">
        <ele>1047.4</ele>
        <time>2021-03-27T15:33:54Z</time>
      </trkpt>
      <trkpt lat="46.0564" lon="6.09753">
        <ele>1047.4</ele>
        <time>2021-03-27T15:33:55Z</time>
      </trkpt>
      <trkpt lat="46.05641" lon="6.09753">
        <ele>1047.4</ele>
        <time>2021-03-27T15:33:56Z</time>
      </trkpt>
      <trkpt lat="46.05641" lon="6.09753">
        <ele>1047.4</ele>
        <time>2021-03-27T15:33:57Z</time>
      </trkpt>
      <trkpt lat="46.05641" lon="6.09753">
        <ele>1047.2</ele>
        <time>2021-03-27T15:33:58Z</time>
      </trkpt>
      <trkpt lat="46.05641" lon="6.09753">
        <ele>1047.4</ele>
        <time>2021-03-27T15:33:59Z</time>
      </trkpt>
      <trkpt lat="46.05641" lon="6.09753">
        <ele>1047.4</ele>
        <time>2021-03-27T15:34:00Z</time>
      </trkpt>
      <trkpt lat="46.05641" lon="6.09753">
        <ele>1047.4</ele>
        <time>2021-03-27T15:34:01Z</time>
      </trkpt>
      <trkpt lat="46.05641" lon="6.09753">
        <ele>1047.4</ele>
        <time>2021-03-27T15:34:02Z</time>
      </trkpt>
      <trkpt lat="46.05641" lon="6.09753">
        <ele>1047.4</ele>
        <time>2021-03-27T15:34:03Z</time>
      </trkpt>
      <trkpt lat="46.05641" lon="6.09753">
        <ele>1047.4</ele>
        <time>2021-03-27T15:34:04Z</time>
      </trkpt>
      <trkpt lat="46.05641" lon="6.09754">
        <ele>1047.4</ele>
        <time>2021-03-27T15:34:05Z</time>
      </trkpt>
      <trkpt lat="46.05641" lon="6.09754">
        <ele>1047.4</ele>
        <time>2021-03-27T15:34:06Z</time>
      </trkpt>
      <trkpt lat="46.05641" lon="6.09754">
        <ele>1047.4</ele>
        <time>2021-03-27T15:34:07Z</time>
      </trkpt>
      <trkpt lat="46.05641" lon="6.09754">
        <ele>1047.4</ele>
        <time>2021-03-27T15:34:08Z</time>
      </trkpt>
      <trkpt lat="46.05641" lon="6.09754">
        <ele>1047.4</ele>
        <time>2021-03-27T15:34:09Z</time>
      </trkpt>
      <trkpt lat="46.05642" lon="6.09754">
        <ele>1047.4</ele>
        <time>2021-03-27T15:34:10Z</time>
      </trkpt>
      <trkpt lat="46.05643" lon="6.09755">
        <ele>1047.6</ele>
        <time>2021-03-27T15:34:11Z</time>
      </trkpt>
      <trkpt lat="46.05643" lon="6.09755">
        <ele>1047.4</ele>
        <time>2021-03-27T15:34:12Z</time>
      </trkpt>
      <trkpt lat="46.05644" lon="6.09756">
        <ele>1047.6</ele>
        <time>2021-03-27T15:34:13Z</time>
      </trkpt>
      <trkpt lat="46.05644" lon="6.09756">
        <ele>1047.4</ele>
        <time>2021-03-27T15:34:14Z</time>
      </trkpt>
      <trkpt lat="46.05644" lon="6.09756">
        <ele>1047.6</ele>
        <time>2021-03-27T15:34:15Z</time>
      </trkpt>
      <trkpt lat="46.05645" lon="6.09756">
        <ele>1047.6</ele>
        <time>2021-03-27T15:34:16Z</time>
      </trkpt>
      <trkpt lat="46.05645" lon="6.09757">
        <ele>1047.6</ele>
        <time>2021-03-27T15:34:17Z</time>
      </trkpt>
      <trkpt lat="46.05645" lon="6.09757">
        <ele>1047.6</ele>
        <time>2021-03-27T15:34:18Z</time>
      </trkpt>
      <trkpt lat="46.05645" lon="6.09757">
        <ele>1047.6</ele>
        <time>2021-03-27T15:34:19Z</time>
      </trkpt>
      <trkpt lat="46.05646" lon="6.09758">
        <ele>1047.4</ele>
        <time>2021-03-27T15:34:20Z</time>
      </trkpt>
      <trkpt lat="46.05646" lon="6.09758">
        <ele>1047.6</ele>
        <time>2021-03-27T15:34:21Z</time>
      </trkpt>
      <trkpt lat="46.05646" lon="6.09759">
        <ele>1047.6</ele>
        <time>2021-03-27T15:34:22Z</time>
      </trkpt>
      <trkpt lat="46.05647" lon="6.09759">
        <ele>1047.8</ele>
        <time>2021-03-27T15:34:23Z</time>
      </trkpt>
      <trkpt lat="46.05647" lon="6.09759">
        <ele>1047.6</ele>
        <time>2021-03-27T15:34:24Z</time>
      </trkpt>
      <trkpt lat="46.05647" lon="6.09759">
        <ele>1047.8</ele>
        <time>2021-03-27T15:34:25Z</time>
      </trkpt>
      <trkpt lat="46.05647" lon="6.09759">
        <ele>1047.6</ele>
        <time>2021-03-27T15:34:26Z</time>
      </trkpt>
      <trkpt lat="46.05647" lon="6.09759">
        <ele>1047.8</ele>
        <time>2021-03-27T15:34:27Z</time>
      </trkpt>
      <trkpt lat="46.05647" lon="6.09759">
        <ele>1047.8</ele>
        <time>2021-03-27T15:34:28Z</time>
      </trkpt>
      <trkpt lat="46.05647" lon="6.09759">
        <ele>1047.6</ele>
        <time>2021-03-27T15:34:29Z</time>
      </trkpt>
      <trkpt lat="46.05647" lon="6.09759">
        <ele>1047.6</ele>
        <time>2021-03-27T15:34:30Z</time>
      </trkpt>
      <trkpt lat="46.05647" lon="6.09759">
        <ele>1047.6</ele>
        <time>2021-03-27T15:34:31Z</time>
      </trkpt>
      <trkpt lat="46.05647" lon="6.09759">
        <ele>1047.8</ele>
        <time>2021-03-27T15:34:32Z</time>
      </trkpt>
      <trkpt lat="46.05647" lon="6.09759">
        <ele>1047.8</ele>
        <time>2021-03-27T15:34:33Z</time>
      </trkpt>
      <trkpt lat="46.05648" lon="6.09759">
        <ele>1047.8</ele>
        <time>2021-03-27T15:34:34Z</time>
      </trkpt>
      <trkpt lat="46.05647" lon="6.09759">
        <ele>1047.8</ele>
        <time>2021-03-27T15:34:35Z</time>
      </trkpt>
      <trkpt lat="46.05647" lon="6.0976">
        <ele>1047.6</ele>
        <time>2021-03-27T15:34:36Z</time>
      </trkpt>
      <trkpt lat="46.05647" lon="6.0976">
        <ele>1047.6</ele>
        <time>2021-03-27T15:34:37Z</time>
      </trkpt>
      <trkpt lat="46.05648" lon="6.0976">
        <ele>1047.6</ele>
        <time>2021-03-27T15:34:38Z</time>
      </trkpt>
      <trkpt lat="46.05648" lon="6.09761">
        <ele>1047.8</ele>
        <time>2021-03-27T15:34:39Z</time>
      </trkpt>
      <trkpt lat="46.05648" lon="6.09761">
        <ele>1047.6</ele>
        <time>2021-03-27T15:34:40Z</time>
      </trkpt>
      <trkpt lat="46.05648" lon="6.09761">
        <ele>1047.6</ele>
        <time>2021-03-27T15:34:41Z</time>
      </trkpt>
      <trkpt lat="46.05648" lon="6.09761">
        <ele>1047.6</ele>
        <time>2021-03-27T15:34:42Z</time>
      </trkpt>
      <trkpt lat="46.05648" lon="6.09761">
        <ele>1047.6</ele>
        <time>2021-03-27T15:34:43Z</time>
      </trkpt>
      <trkpt lat="46.05648" lon="6.09761">
        <ele>1047.6</ele>
        <time>2021-03-27T15:34:44Z</time>
      </trkpt>
      <trkpt lat="46.05648" lon="6.0976">
        <ele>1047.6</ele>
        <time>2021-03-27T15:34:45Z</time>
      </trkpt>
      <trkpt lat="46.05648" lon="6.0976">
        <ele>1047.4</ele>
        <time>2021-03-27T15:34:46Z</time>
      </trkpt>
      <trkpt lat="46.05648" lon="6.0976">
        <ele>1047.4</ele>
        <time>2021-03-27T15:34:47Z</time>
      </trkpt>
      <trkpt lat="46.05648" lon="6.0976">
        <ele>1047.4</ele>
        <time>2021-03-27T15:34:48Z</time>
      </trkpt>
      <trkpt lat="46.05648" lon="6.0976">
        <ele>1047.4</ele>
        <time>2021-03-27T15:34:49Z</time>
      </trkpt>
      <trkpt lat="46.05647" lon="6.09759">
        <ele>1047.6</ele>
        <time>2021-03-27T15:34:50Z</time>
      </trkpt>
      <trkpt lat="46.05647" lon="6.09758">
        <ele>1047.4</ele>
        <time>2021-03-27T15:34:51Z</time>
      </trkpt>
      <trkpt lat="46.05646" lon="6.09757">
        <ele>1047.6</ele>
        <time>2021-03-27T15:34:52Z</time>
      </trkpt>
      <trkpt lat="46.05646" lon="6.09757">
        <ele>1047.4</ele>
        <time>2021-03-27T15:34:53Z</time>
      </trkpt>
      <trkpt lat="46.05646" lon="6.09756">
        <ele>1047.6</ele>
        <time>2021-03-27T15:34:54Z</time>
      </trkpt>
      <trkpt lat="46.05645" lon="6.09756">
        <ele>1047.4</ele>
        <time>2021-03-27T15:34:55Z</time>
      </trkpt>
      <trkpt lat="46.05645" lon="6.09755">
        <ele>1047.4</ele>
        <time>2021-03-27T15:34:56Z</time>
      </trkpt>
      <trkpt lat="46.05644" lon="6.09755">
        <ele>1047.4</ele>
        <time>2021-03-27T15:34:57Z</time>
      </trkpt>
      <trkpt lat="46.05644" lon="6.09755">
        <ele>1047.4</ele>
        <time>2021-03-27T15:34:58Z</time>
      </trkpt>
      <trkpt lat="46.05643" lon="6.09755">
        <ele>1047.2</ele>
        <time>2021-03-27T15:34:59Z</time>
      </trkpt>
      <trkpt lat="46.05643" lon="6.09754">
        <ele>1047.4</ele>
        <time>2021-03-27T15:35:00Z</time>
      </trkpt>
      <trkpt lat="46.05642" lon="6.09753">
        <ele>1047.4</ele>
        <time>2021-03-27T15:35:01Z</time>
      </trkpt>
      <trkpt lat="46.05642" lon="6.09753">
        <ele>1047.2</ele>
        <time>2021-03-27T15:35:02Z</time>
      </trkpt>
      <trkpt lat="46.05642" lon="6.09752">
        <ele>1047.2</ele>
        <time>2021-03-27T15:35:03Z</time>
      </trkpt>
      <trkpt lat="46.05642" lon="6.09752">
        <ele>1047.4</ele>
        <time>2021-03-27T15:35:04Z</time>
      </trkpt>
      <trkpt lat="46.05642" lon="6.0975">
        <ele>1047.4</ele>
        <time>2021-03-27T15:35:05Z</time>
      </trkpt>
      <trkpt lat="46.05642" lon="6.09749">
        <ele>1047.2</ele>
        <time>2021-03-27T15:35:06Z</time>
      </trkpt>
      <trkpt lat="46.05642" lon="6.09747">
        <ele>1047.4</ele>
        <time>2021-03-27T15:35:07Z</time>
      </trkpt>
      <trkpt lat="46.05642" lon="6.09744">
        <ele>1047.4</ele>
        <time>2021-03-27T15:35:08Z</time>
      </trkpt>
      <trkpt lat="46.05642" lon="6.09742">
        <ele>1047.4</ele>
        <time>2021-03-27T15:35:09Z</time>
      </trkpt>
      <trkpt lat="46.05643" lon="6.09739">
        <ele>1047.4</ele>
        <time>2021-03-27T15:35:10Z</time>
      </trkpt>
      <trkpt lat="46.05643" lon="6.09736">
        <ele>1047.4</ele>
        <time>2021-03-27T15:35:11Z</time>
      </trkpt>
      <trkpt lat="46.05644" lon="6.09732">
        <ele>1047.2</ele>
        <time>2021-03-27T15:35:12Z</time>
      </trkpt>
      <trkpt lat="46.05645" lon="6.09728">
        <ele>1047.4</ele>
        <time>2021-03-27T15:35:13Z</time>
      </trkpt>
      <trkpt lat="46.05646" lon="6.09724">
        <ele>1047.2</ele>
        <time>2021-03-27T15:35:14Z</time>
      </trkpt>
      <trkpt lat="46.05648" lon="6.09719">
        <ele>1047</ele>
        <time>2021-03-27T15:35:15Z</time>
      </trkpt>
      <trkpt lat="46.0565" lon="6.09715">
        <ele>1047</ele>
        <time>2021-03-27T15:35:16Z</time>
      </trkpt>
      <trkpt lat="46.05652" lon="6.0971">
        <ele>1047</ele>
        <time>2021-03-27T15:35:17Z</time>
      </trkpt>
      <trkpt lat="46.05653" lon="6.09705">
        <ele>1046.8</ele>
        <time>2021-03-27T15:35:18Z</time>
      </trkpt>
      <trkpt lat="46.05655" lon="6.097">
        <ele>1046.8</ele>
        <time>2021-03-27T15:35:19Z</time>
      </trkpt>
      <trkpt lat="46.05657" lon="6.09694">
        <ele>1046.8</ele>
        <time>2021-03-27T15:35:20Z</time>
      </trkpt>
      <trkpt lat="46.05662" lon="6.09682">
        <ele>1046.4</ele>
        <time>2021-03-27T15:35:22Z</time>
      </trkpt>
      <trkpt lat="46.05665" lon="6.09676">
        <ele>1046</ele>
        <time>2021-03-27T15:35:23Z</time>
      </trkpt>
      <trkpt lat="46.05669" lon="6.0967">
        <ele>1045.8</ele>
        <time>2021-03-27T15:35:24Z</time>
      </trkpt>
      <trkpt lat="46.05674" lon="6.09664">
        <ele>1045.4</ele>
        <time>2021-03-27T15:35:25Z</time>
      </trkpt>
      <trkpt lat="46.05679" lon="6.09657">
        <ele>1045.2</ele>
        <time>2021-03-27T15:35:26Z</time>
      </trkpt>
      <trkpt lat="46.05685" lon="6.0965">
        <ele>1045</ele>
        <time>2021-03-27T15:35:27Z</time>
      </trkpt>
      <trkpt lat="46.0569" lon="6.09643">
        <ele>1045</ele>
        <time>2021-03-27T15:35:28Z</time>
      </trkpt>
      <trkpt lat="46.05697" lon="6.09635">
        <ele>1044.6</ele>
        <time>2021-03-27T15:35:29Z</time>
      </trkpt>
      <trkpt lat="46.05703" lon="6.09627">
        <ele>1044.2</ele>
        <time>2021-03-27T15:35:30Z</time>
      </trkpt>
      <trkpt lat="46.05709" lon="6.09619">
        <ele>1044</ele>
        <time>2021-03-27T15:35:31Z</time>
      </trkpt>
      <trkpt lat="46.05716" lon="6.09611">
        <ele>1043.6</ele>
        <time>2021-03-27T15:35:32Z</time>
      </trkpt>
      <trkpt lat="46.05723" lon="6.09602">
        <ele>1043.2</ele>
        <time>2021-03-27T15:35:33Z</time>
      </trkpt>
      <trkpt lat="46.0573" lon="6.09593">
        <ele>1043.2</ele>
        <time>2021-03-27T15:35:34Z</time>
      </trkpt>
      <trkpt lat="46.05736" lon="6.09585">
        <ele>1042.8</ele>
        <time>2021-03-27T15:35:35Z</time>
      </trkpt>
      <trkpt lat="46.05743" lon="6.09577">
        <ele>1042.2</ele>
        <time>2021-03-27T15:35:36Z</time>
      </trkpt>
      <trkpt lat="46.05749" lon="6.0957">
        <ele>1041.6</ele>
        <time>2021-03-27T15:35:37Z</time>
      </trkpt>
      <trkpt lat="46.05756" lon="6.09565">
        <ele>1040.6</ele>
        <time>2021-03-27T15:35:38Z</time>
      </trkpt>
      <trkpt lat="46.05763" lon="6.0956">
        <ele>1039.6</ele>
        <time>2021-03-27T15:35:39Z</time>
      </trkpt>
      <trkpt lat="46.05771" lon="6.09557">
        <ele>1038.6</ele>
        <time>2021-03-27T15:35:40Z</time>
      </trkpt>
      <trkpt lat="46.05779" lon="6.09554">
        <ele>1037.6</ele>
        <time>2021-03-27T15:35:41Z</time>
      </trkpt>
      <trkpt lat="46.05789" lon="6.09551">
        <ele>1037.2</ele>
        <time>2021-03-27T15:35:42Z</time>
      </trkpt>
      <trkpt lat="46.058" lon="6.09546">
        <ele>1036.6</ele>
        <time>2021-03-27T15:35:43Z</time>
      </trkpt>
      <trkpt lat="46.05813" lon="6.09541">
        <ele>1035.6</ele>
        <time>2021-03-27T15:35:44Z</time>
      </trkpt>
      <trkpt lat="46.05826" lon="6.09535">
        <ele>1035.2</ele>
        <time>2021-03-27T15:35:45Z</time>
      </trkpt>
      <trkpt lat="46.05839" lon="6.09528">
        <ele>1034.8</ele>
        <time>2021-03-27T15:35:46Z</time>
      </trkpt>
      <trkpt lat="46.05853" lon="6.09523">
        <ele>1033.8</ele>
        <time>2021-03-27T15:35:47Z</time>
      </trkpt>
      <trkpt lat="46.05866" lon="6.09517">
        <ele>1032.4</ele>
        <time>2021-03-27T15:35:48Z</time>
      </trkpt>
      <trkpt lat="46.0588" lon="6.09513">
        <ele>1030.8</ele>
        <time>2021-03-27T15:35:49Z</time>
      </trkpt>
      <trkpt lat="46.05893" lon="6.09507">
        <ele>1029</ele>
        <time>2021-03-27T15:35:50Z</time>
      </trkpt>
      <trkpt lat="46.05906" lon="6.09502">
        <ele>1027.2</ele>
        <time>2021-03-27T15:35:51Z</time>
      </trkpt>
      <trkpt lat="46.05919" lon="6.09497">
        <ele>1025.6</ele>
        <time>2021-03-27T15:35:52Z</time>
      </trkpt>
      <trkpt lat="46.05931" lon="6.09492">
        <ele>1023.8</ele>
        <time>2021-03-27T15:35:53Z</time>
      </trkpt>
      <trkpt lat="46.05944" lon="6.09486">
        <ele>1022.2</ele>
        <time>2021-03-27T15:35:54Z</time>
      </trkpt>
      <trkpt lat="46.05956" lon="6.09479">
        <ele>1020.6</ele>
        <time>2021-03-27T15:35:55Z</time>
      </trkpt>
      <trkpt lat="46.05967" lon="6.09469">
        <ele>1018.4</ele>
        <time>2021-03-27T15:35:56Z</time>
      </trkpt>
      <trkpt lat="46.05979" lon="6.0946">
        <ele>1016.4</ele>
        <time>2021-03-27T15:35:57Z</time>
      </trkpt>
      <trkpt lat="46.05989" lon="6.09448">
        <ele>1014.8</ele>
        <time>2021-03-27T15:35:58Z</time>
      </trkpt>
      <trkpt lat="46.06" lon="6.09435">
        <ele>1012.6</ele>
        <time>2021-03-27T15:35:59Z</time>
      </trkpt>
      <trkpt lat="46.0601" lon="6.09421">
        <ele>1011.4</ele>
        <time>2021-03-27T15:36:00Z</time>
      </trkpt>
      <trkpt lat="46.06021" lon="6.09409">
        <ele>1010.6</ele>
        <time>2021-03-27T15:36:01Z</time>
      </trkpt>
      <trkpt lat="46.06032" lon="6.09398">
        <ele>1009.8</ele>
        <time>2021-03-27T15:36:02Z</time>
      </trkpt>
      <trkpt lat="46.06043" lon="6.09385">
        <ele>1008.8</ele>
        <time>2021-03-27T15:36:03Z</time>
      </trkpt>
      <trkpt lat="46.06053" lon="6.09373">
        <ele>1008</ele>
        <time>2021-03-27T15:36:04Z</time>
      </trkpt>
      <trkpt lat="46.06064" lon="6.09361">
        <ele>1006.4</ele>
        <time>2021-03-27T15:36:05Z</time>
      </trkpt>
      <trkpt lat="46.06075" lon="6.0935">
        <ele>1005.4</ele>
        <time>2021-03-27T15:36:06Z</time>
      </trkpt>
      <trkpt lat="46.06086" lon="6.09339">
        <ele>1004.6</ele>
        <time>2021-03-27T15:36:07Z</time>
      </trkpt>
      <trkpt lat="46.06097" lon="6.09329">
        <ele>1003.2</ele>
        <time>2021-03-27T15:36:08Z</time>
      </trkpt>
      <trkpt lat="46.06108" lon="6.0932">
        <ele>1001.6</ele>
        <time>2021-03-27T15:36:09Z</time>
      </trkpt>
      <trkpt lat="46.06119" lon="6.09313">
        <ele>999.6</ele>
        <time>2021-03-27T15:36:10Z</time>
      </trkpt>
      <trkpt lat="46.06132" lon="6.09306">
        <ele>998</ele>
        <time>2021-03-27T15:36:11Z</time>
      </trkpt>
      <trkpt lat="46.06144" lon="6.093">
        <ele>996</ele>
        <time>2021-03-27T15:36:12Z</time>
      </trkpt>
      <trkpt lat="46.06157" lon="6.09295">
        <ele>994.8</ele>
        <time>2021-03-27T15:36:13Z</time>
      </trkpt>
      <trkpt lat="46.06171" lon="6.09289">
        <ele>993.2</ele>
        <time>2021-03-27T15:36:14Z</time>
      </trkpt>
      <trkpt lat="46.06185" lon="6.09284">
        <ele>991.2</ele>
        <time>2021-03-27T15:36:15Z</time>
      </trkpt>
      <trkpt lat="46.06199" lon="6.09282">
        <ele>989.8</ele>
        <time>2021-03-27T15:36:16Z</time>
      </trkpt>
      <trkpt lat="46.06213" lon="6.09282">
        <ele>988</ele>
        <time>2021-03-27T15:36:17Z</time>
      </trkpt>
      <trkpt lat="46.06228" lon="6.09284">
        <ele>986.8</ele>
        <time>2021-03-27T15:36:18Z</time>
      </trkpt>
      <trkpt lat="46.06243" lon="6.09288">
        <ele>985.6</ele>
        <time>2021-03-27T15:36:19Z</time>
      </trkpt>
      <trkpt lat="46.06258" lon="6.09291">
        <ele>984.2</ele>
        <time>2021-03-27T15:36:20Z</time>
      </trkpt>
      <trkpt lat="46.06273" lon="6.09294">
        <ele>982.4</ele>
        <time>2021-03-27T15:36:21Z</time>
      </trkpt>
      <trkpt lat="46.06289" lon="6.09298">
        <ele>980.4</ele>
        <time>2021-03-27T15:36:22Z</time>
      </trkpt>
      <trkpt lat="46.06304" lon="6.09302">
        <ele>979</ele>
        <time>2021-03-27T15:36:23Z</time>
      </trkpt>
      <trkpt lat="46.0632" lon="6.09306">
        <ele>977.4</ele>
        <time>2021-03-27T15:36:24Z</time>
      </trkpt>
      <trkpt lat="46.06336" lon="6.09308">
        <ele>976</ele>
        <time>2021-03-27T15:36:25Z</time>
      </trkpt>
      <trkpt lat="46.06352" lon="6.0931">
        <ele>974.6</ele>
        <time>2021-03-27T15:36:26Z</time>
      </trkpt>
      <trkpt lat="46.06368" lon="6.09309">
        <ele>973.2</ele>
        <time>2021-03-27T15:36:27Z</time>
      </trkpt>
      <trkpt lat="46.06384" lon="6.09306">
        <ele>971.4</ele>
        <time>2021-03-27T15:36:28Z</time>
      </trkpt>
      <trkpt lat="46.064" lon="6.09299">
        <ele>969.4</ele>
        <time>2021-03-27T15:36:29Z</time>
      </trkpt>
      <trkpt lat="46.06416" lon="6.0929">
        <ele>967.8</ele>
        <time>2021-03-27T15:36:30Z</time>
      </trkpt>
      <trkpt lat="46.06432" lon="6.09281">
        <ele>965.8</ele>
        <time>2021-03-27T15:36:31Z</time>
      </trkpt>
      <trkpt lat="46.06448" lon="6.09272">
        <ele>964.2</ele>
        <time>2021-03-27T15:36:32Z</time>
      </trkpt>
      <trkpt lat="46.06464" lon="6.09267">
        <ele>962.4</ele>
        <time>2021-03-27T15:36:33Z</time>
      </trkpt>
      <trkpt lat="46.0648" lon="6.09266">
        <ele>962.4</ele>
        <time>2021-03-27T15:36:34Z</time>
      </trkpt>
      <trkpt lat="46.06495" lon="6.09268">
        <ele>960.8</ele>
        <time>2021-03-27T15:36:35Z</time>
      </trkpt>
      <trkpt lat="46.0651" lon="6.09274">
        <ele>959</ele>
        <time>2021-03-27T15:36:36Z</time>
      </trkpt>
      <trkpt lat="46.06525" lon="6.09282">
        <ele>957.2</ele>
        <time>2021-03-27T15:36:37Z</time>
      </trkpt>
      <trkpt lat="46.06539" lon="6.09291">
        <ele>955.2</ele>
        <time>2021-03-27T15:36:38Z</time>
      </trkpt>
      <trkpt lat="46.06554" lon="6.093">
        <ele>953</ele>
        <time>2021-03-27T15:36:39Z</time>
      </trkpt>
      <trkpt lat="46.06568" lon="6.09309">
        <ele>950.6</ele>
        <time>2021-03-27T15:36:40Z</time>
      </trkpt>
      <trkpt lat="46.06581" lon="6.09319">
        <ele>948.8</ele>
        <time>2021-03-27T15:36:41Z</time>
      </trkpt>
      <trkpt lat="46.06594" lon="6.0933">
        <ele>947.2</ele>
        <time>2021-03-27T15:36:42Z</time>
      </trkpt>
      <trkpt lat="46.06608" lon="6.09341">
        <ele>945.6</ele>
        <time>2021-03-27T15:36:43Z</time>
      </trkpt>
      <trkpt lat="46.06621" lon="6.09351">
        <ele>943.8</ele>
        <time>2021-03-27T15:36:44Z</time>
      </trkpt>
      <trkpt lat="46.06634" lon="6.09362">
        <ele>941.8</ele>
        <time>2021-03-27T15:36:45Z</time>
      </trkpt>
      <trkpt lat="46.06646" lon="6.09372">
        <ele>939.8</ele>
        <time>2021-03-27T15:36:46Z</time>
      </trkpt>
      <trkpt lat="46.06657" lon="6.09382">
        <ele>938.4</ele>
        <time>2021-03-27T15:36:47Z</time>
      </trkpt>
      <trkpt lat="46.06667" lon="6.0939">
        <ele>936.6</ele>
        <time>2021-03-27T15:36:48Z</time>
      </trkpt>
      <trkpt lat="46.06676" lon="6.09395">
        <ele>935</ele>
        <time>2021-03-27T15:36:49Z</time>
      </trkpt>
      <trkpt lat="46.06686" lon="6.09397">
        <ele>933.6</ele>
        <time>2021-03-27T15:36:50Z</time>
      </trkpt>
      <trkpt lat="46.06695" lon="6.09393">
        <ele>931.8</ele>
        <time>2021-03-27T15:36:51Z</time>
      </trkpt>
      <trkpt lat="46.06704" lon="6.09385">
        <ele>930.2</ele>
        <time>2021-03-27T15:36:52Z</time>
      </trkpt>
      <trkpt lat="46.0671" lon="6.09374">
        <ele>928.2</ele>
        <time>2021-03-27T15:36:53Z</time>
      </trkpt>
      <trkpt lat="46.06708" lon="6.09358">
        <ele>926.4</ele>
        <time>2021-03-27T15:36:54Z</time>
      </trkpt>
      <trkpt lat="46.06694" lon="6.09324">
        <ele>924.8</ele>
        <time>2021-03-27T15:36:56Z</time>
      </trkpt>
      <trkpt lat="46.06688" lon="6.09309">
        <ele>924</ele>
        <time>2021-03-27T15:36:57Z</time>
      </trkpt>
      <trkpt lat="46.06682" lon="6.09294">
        <ele>922.8</ele>
        <time>2021-03-27T15:36:58Z</time>
      </trkpt>
      <trkpt lat="46.06676" lon="6.0928">
        <ele>921.6</ele>
        <time>2021-03-27T15:36:59Z</time>
      </trkpt>
      <trkpt lat="46.06669" lon="6.09265">
        <ele>920</ele>
        <time>2021-03-27T15:37:00Z</time>
      </trkpt>
      <trkpt lat="46.06663" lon="6.09251">
        <ele>918.4</ele>
        <time>2021-03-27T15:37:01Z</time>
      </trkpt>
      <trkpt lat="46.06657" lon="6.09237">
        <ele>917.2</ele>
        <time>2021-03-27T15:37:02Z</time>
      </trkpt>
      <trkpt lat="46.06652" lon="6.09221">
        <ele>916.4</ele>
        <time>2021-03-27T15:37:03Z</time>
      </trkpt>
      <trkpt lat="46.06648" lon="6.09205">
        <ele>915.6</ele>
        <time>2021-03-27T15:37:04Z</time>
      </trkpt>
      <trkpt lat="46.06646" lon="6.09189">
        <ele>915</ele>
        <time>2021-03-27T15:37:05Z</time>
      </trkpt>
      <trkpt lat="46.06646" lon="6.09172">
        <ele>914.2</ele>
        <time>2021-03-27T15:37:06Z</time>
      </trkpt>
      <trkpt lat="46.06648" lon="6.09154">
        <ele>913</ele>
        <time>2021-03-27T15:37:07Z</time>
      </trkpt>
      <trkpt lat="46.06651" lon="6.09137">
        <ele>911.4</ele>
        <time>2021-03-27T15:37:08Z</time>
      </trkpt>
      <trkpt lat="46.06652" lon="6.09122">
        <ele>910.6</ele>
        <time>2021-03-27T15:37:09Z</time>
      </trkpt>
      <trkpt lat="46.06651" lon="6.09107">
        <ele>910</ele>
        <time>2021-03-27T15:37:10Z</time>
      </trkpt>
      <trkpt lat="46.06647" lon="6.09093">
        <ele>909.2</ele>
        <time>2021-03-27T15:37:11Z</time>
      </trkpt>
      <trkpt lat="46.0664" lon="6.0908">
        <ele>908.8</ele>
        <time>2021-03-27T15:37:12Z</time>
      </trkpt>
      <trkpt lat="46.06632" lon="6.09068">
        <ele>908</ele>
        <time>2021-03-27T15:37:13Z</time>
      </trkpt>
      <trkpt lat="46.06623" lon="6.09056">
        <ele>906.6</ele>
        <time>2021-03-27T15:37:14Z</time>
      </trkpt>
      <trkpt lat="46.06614" lon="6.09044">
        <ele>905.8</ele>
        <time>2021-03-27T15:37:15Z</time>
      </trkpt>
      <trkpt lat="46.06604" lon="6.09031">
        <ele>904.8</ele>
        <time>2021-03-27T15:37:16Z</time>
      </trkpt>
      <trkpt lat="46.06594" lon="6.09018">
        <ele>904.2</ele>
        <time>2021-03-27T15:37:17Z</time>
      </trkpt>
      <trkpt lat="46.06584" lon="6.09005">
        <ele>903.2</ele>
        <time>2021-03-27T15:37:18Z</time>
      </trkpt>
      <trkpt lat="46.06573" lon="6.08992">
        <ele>902.2</ele>
        <time>2021-03-27T15:37:19Z</time>
      </trkpt>
      <trkpt lat="46.06562" lon="6.08979">
        <ele>900.8</ele>
        <time>2021-03-27T15:37:20Z</time>
      </trkpt>
      <trkpt lat="46.06551" lon="6.08967">
        <ele>899.4</ele>
        <time>2021-03-27T15:37:21Z</time>
      </trkpt>
      <trkpt lat="46.06541" lon="6.08956">
        <ele>897.8</ele>
        <time>2021-03-27T15:37:22Z</time>
      </trkpt>
      <trkpt lat="46.06531" lon="6.08945">
        <ele>896.4</ele>
        <time>2021-03-27T15:37:23Z</time>
      </trkpt>
      <trkpt lat="46.06522" lon="6.08934">
        <ele>894.4</ele>
        <time>2021-03-27T15:37:24Z</time>
      </trkpt>
      <trkpt lat="46.06514" lon="6.08924">
        <ele>892.4</ele>
        <time>2021-03-27T15:37:25Z</time>
      </trkpt>
      <trkpt lat="46.06508" lon="6.08913">
        <ele>890.6</ele>
        <time>2021-03-27T15:37:26Z</time>
      </trkpt>
      <trkpt lat="46.06503" lon="6.08901">
        <ele>889.2</ele>
        <time>2021-03-27T15:37:27Z</time>
      </trkpt>
      <trkpt lat="46.065" lon="6.0889">
        <ele>887.2</ele>
        <time>2021-03-27T15:37:28Z</time>
      </trkpt>
      <trkpt lat="46.06499" lon="6.0888">
        <ele>885.6</ele>
        <time>2021-03-27T15:37:29Z</time>
      </trkpt>
      <trkpt lat="46.065" lon="6.0887">
        <ele>884.4</ele>
        <time>2021-03-27T15:37:30Z</time>
      </trkpt>
      <trkpt lat="46.06504" lon="6.0886">
        <ele>883.4</ele>
        <time>2021-03-27T15:37:31Z</time>
      </trkpt>
      <trkpt lat="46.0651" lon="6.08852">
        <ele>882.2</ele>
        <time>2021-03-27T15:37:32Z</time>
      </trkpt>
      <trkpt lat="46.06516" lon="6.08847">
        <ele>881</ele>
        <time>2021-03-27T15:37:33Z</time>
      </trkpt>
      <trkpt lat="46.06531" lon="6.08846">
        <ele>879.4</ele>
        <time>2021-03-27T15:37:35Z</time>
      </trkpt>
      <trkpt lat="46.0654" lon="6.08849">
        <ele>878.6</ele>
        <time>2021-03-27T15:37:36Z</time>
      </trkpt>
      <trkpt lat="46.06547" lon="6.0885">
        <ele>877.6</ele>
        <time>2021-03-27T15:37:37Z</time>
      </trkpt>
      <trkpt lat="46.06555" lon="6.08851">
        <ele>876.6</ele>
        <time>2021-03-27T15:37:38Z</time>
      </trkpt>
      <trkpt lat="46.06563" lon="6.08851">
        <ele>875.2</ele>
        <time>2021-03-27T15:37:39Z</time>
      </trkpt>
      <trkpt lat="46.06571" lon="6.08852">
        <ele>874.2</ele>
        <time>2021-03-27T15:37:40Z</time>
      </trkpt>
      <trkpt lat="46.06587" lon="6.08852">
        <ele>873.6</ele>
        <time>2021-03-27T15:37:42Z</time>
      </trkpt>
      <trkpt lat="46.06595" lon="6.08851">
        <ele>873.4</ele>
        <time>2021-03-27T15:37:43Z</time>
      </trkpt>
      <trkpt lat="46.06603" lon="6.08851">
        <ele>873.6</ele>
        <time>2021-03-27T15:37:44Z</time>
      </trkpt>
      <trkpt lat="46.0661" lon="6.0885">
        <ele>873.6</ele>
        <time>2021-03-27T15:37:45Z</time>
      </trkpt>
      <trkpt lat="46.06618" lon="6.08849">
        <ele>873.6</ele>
        <time>2021-03-27T15:37:46Z</time>
      </trkpt>
      <trkpt lat="46.06625" lon="6.08848">
        <ele>873.4</ele>
        <time>2021-03-27T15:37:47Z</time>
      </trkpt>
      <trkpt lat="46.06632" lon="6.08847">
        <ele>873.4</ele>
        <time>2021-03-27T15:37:48Z</time>
      </trkpt>
      <trkpt lat="46.06639" lon="6.08844">
        <ele>873.6</ele>
        <time>2021-03-27T15:37:49Z</time>
      </trkpt>
      <trkpt lat="46.06646" lon="6.08839">
        <ele>873.8</ele>
        <time>2021-03-27T15:37:50Z</time>
      </trkpt>
      <trkpt lat="46.06652" lon="6.08834">
        <ele>873.8</ele>
        <time>2021-03-27T15:37:51Z</time>
      </trkpt>
      <trkpt lat="46.06657" lon="6.08828">
        <ele>874</ele>
        <time>2021-03-27T15:37:52Z</time>
      </trkpt>
      <trkpt lat="46.06662" lon="6.08822">
        <ele>874</ele>
        <time>2021-03-27T15:37:53Z</time>
      </trkpt>
      <trkpt lat="46.06666" lon="6.08815">
        <ele>874.4</ele>
        <time>2021-03-27T15:37:54Z</time>
      </trkpt>
      <trkpt lat="46.0667" lon="6.08808">
        <ele>874.6</ele>
        <time>2021-03-27T15:37:55Z</time>
      </trkpt>
      <trkpt lat="46.06673" lon="6.08801">
        <ele>874.8</ele>
        <time>2021-03-27T15:37:56Z</time>
      </trkpt>
      <trkpt lat="46.06677" lon="6.08794">
        <ele>875</ele>
        <time>2021-03-27T15:37:57Z</time>
      </trkpt>
      <trkpt lat="46.06681" lon="6.08787">
        <ele>875.2</ele>
        <time>2021-03-27T15:37:58Z</time>
      </trkpt>
      <trkpt lat="46.06684" lon="6.08781">
        <ele>875.2</ele>
        <time>2021-03-27T15:37:59Z</time>
      </trkpt>
      <trkpt lat="46.06686" lon="6.08774">
        <ele>875.2</ele>
        <time>2021-03-27T15:38:00Z</time>
      </trkpt>
      <trkpt lat="46.06689" lon="6.08767">
        <ele>875.2</ele>
        <time>2021-03-27T15:38:01Z</time>
      </trkpt>
      <trkpt lat="46.06691" lon="6.08761">
        <ele>875.4</ele>
        <time>2021-03-27T15:38:02Z</time>
      </trkpt>
      <trkpt lat="46.06693" lon="6.08754">
        <ele>875.6</ele>
        <time>2021-03-27T15:38:03Z</time>
      </trkpt>
      <trkpt lat="46.06695" lon="6.08748">
        <ele>876</ele>
        <time>2021-03-27T15:38:04Z</time>
      </trkpt>
      <trkpt lat="46.06697" lon="6.08742">
        <ele>876.2</ele>
        <time>2021-03-27T15:38:05Z</time>
      </trkpt>
      <trkpt lat="46.06699" lon="6.08736">
        <ele>877</ele>
        <time>2021-03-27T15:38:06Z</time>
      </trkpt>
      <trkpt lat="46.06701" lon="6.0873">
        <ele>877.4</ele>
        <time>2021-03-27T15:38:07Z</time>
      </trkpt>
      <trkpt lat="46.06703" lon="6.08724">
        <ele>877.6</ele>
        <time>2021-03-27T15:38:08Z</time>
      </trkpt>
      <trkpt lat="46.06705" lon="6.08719">
        <ele>878.2</ele>
        <time>2021-03-27T15:38:09Z</time>
      </trkpt>
      <trkpt lat="46.06707" lon="6.08713">
        <ele>878.4</ele>
        <time>2021-03-27T15:38:10Z</time>
      </trkpt>
      <trkpt lat="46.06708" lon="6.08708">
        <ele>878.8</ele>
        <time>2021-03-27T15:38:11Z</time>
      </trkpt>
      <trkpt lat="46.0671" lon="6.08702">
        <ele>879</ele>
        <time>2021-03-27T15:38:12Z</time>
      </trkpt>
      <trkpt lat="46.06711" lon="6.08697">
        <ele>879.6</ele>
        <time>2021-03-27T15:38:13Z</time>
      </trkpt>
      <trkpt lat="46.06713" lon="6.08692">
        <ele>880</ele>
        <time>2021-03-27T15:38:14Z</time>
      </trkpt>
      <trkpt lat="46.06715" lon="6.08688">
        <ele>880.4</ele>
        <time>2021-03-27T15:38:15Z</time>
      </trkpt>
      <trkpt lat="46.06717" lon="6.08683">
        <ele>880.6</ele>
        <time>2021-03-27T15:38:16Z</time>
      </trkpt>
      <trkpt lat="46.06719" lon="6.08679">
        <ele>881</ele>
        <time>2021-03-27T15:38:17Z</time>
      </trkpt>
      <trkpt lat="46.06721" lon="6.08675">
        <ele>881.2</ele>
        <time>2021-03-27T15:38:18Z</time>
      </trkpt>
      <trkpt lat="46.06723" lon="6.08671">
        <ele>881.6</ele>
        <time>2021-03-27T15:38:19Z</time>
      </trkpt>
      <trkpt lat="46.06724" lon="6.08668">
        <ele>881.8</ele>
        <time>2021-03-27T15:38:20Z</time>
      </trkpt>
      <trkpt lat="46.06726" lon="6.08666">
        <ele>882</ele>
        <time>2021-03-27T15:38:21Z</time>
      </trkpt>
      <trkpt lat="46.06728" lon="6.08665">
        <ele>882.2</ele>
        <time>2021-03-27T15:38:22Z</time>
      </trkpt>
      <trkpt lat="46.06728" lon="6.08665">
        <ele>882.4</ele>
        <time>2021-03-27T15:38:23Z</time>
      </trkpt>
      <trkpt lat="46.06728" lon="6.08665">
        <ele>882.8</ele>
        <time>2021-03-27T15:38:24Z</time>
      </trkpt>
      <trkpt lat="46.06728" lon="6.08665">
        <ele>883</ele>
        <time>2021-03-27T15:38:25Z</time>
      </trkpt>
      <trkpt lat="46.06728" lon="6.08666">
        <ele>883.2</ele>
        <time>2021-03-27T15:38:26Z</time>
      </trkpt>
      <trkpt lat="46.06728" lon="6.08667">
        <ele>883.6</ele>
        <time>2021-03-27T15:38:27Z</time>
      </trkpt>
      <trkpt lat="46.06728" lon="6.08668">
        <ele>883.8</ele>
        <time>2021-03-27T15:38:28Z</time>
      </trkpt>
      <trkpt lat="46.06727" lon="6.08669">
        <ele>884</ele>
        <time>2021-03-27T15:38:29Z</time>
      </trkpt>
      <trkpt lat="46.06727" lon="6.08669">
        <ele>884.4</ele>
        <time>2021-03-27T15:38:30Z</time>
      </trkpt>
      <trkpt lat="46.06727" lon="6.08669">
        <ele>884.6</ele>
        <time>2021-03-27T15:38:31Z</time>
      </trkpt>
      <trkpt lat="46.06727" lon="6.08669">
        <ele>884.8</ele>
        <time>2021-03-27T15:38:32Z</time>
      </trkpt>
      <trkpt lat="46.06727" lon="6.08669">
        <ele>885</ele>
        <time>2021-03-27T15:38:33Z</time>
      </trkpt>
      <trkpt lat="46.06727" lon="6.08669">
        <ele>885.2</ele>
        <time>2021-03-27T15:38:34Z</time>
      </trkpt>
      <trkpt lat="46.06727" lon="6.08669">
        <ele>885.2</ele>
        <time>2021-03-27T15:38:35Z</time>
      </trkpt>
      <trkpt lat="46.06727" lon="6.08669">
        <ele>885.2</ele>
        <time>2021-03-27T15:38:36Z</time>
      </trkpt>
      <trkpt lat="46.06727" lon="6.08669">
        <ele>885.2</ele>
        <time>2021-03-27T15:38:37Z</time>
      </trkpt>
      <trkpt lat="46.06727" lon="6.08669">
        <ele>885.2</ele>
        <time>2021-03-27T15:38:38Z</time>
      </trkpt>
      <trkpt lat="46.06727" lon="6.08669">
        <ele>885.4</ele>
        <time>2021-03-27T15:38:39Z</time>
      </trkpt>
      <trkpt lat="46.06727" lon="6.08669">
        <ele>885.2</ele>
        <time>2021-03-27T15:38:40Z</time>
      </trkpt>
      <trkpt lat="46.06727" lon="6.08669">
        <ele>885.2</ele>
        <time>2021-03-27T15:38:41Z</time>
      </trkpt>
      <trkpt lat="46.06727" lon="6.08669">
        <ele>885.2</ele>
        <time>2021-03-27T15:38:42Z</time>
      </trkpt>
      <trkpt lat="46.06727" lon="6.08669">
        <ele>885.2</ele>
        <time>2021-03-27T15:38:43Z</time>
      </trkpt>
      <trkpt lat="46.06727" lon="6.08669">
        <ele>885.2</ele>
        <time>2021-03-27T15:38:44Z</time>
      </trkpt>
      <trkpt lat="46.06727" lon="6.08669">
        <ele>885.2</ele>
        <time>2021-03-27T15:38:45Z</time>
      </trkpt>
      <trkpt lat="46.06727" lon="6.08669">
        <ele>885.2</ele>
        <time>2021-03-27T15:38:46Z</time>
      </trkpt>
      <trkpt lat="46.06727" lon="6.08669">
        <ele>885.2</ele>
        <time>2021-03-27T15:38:47Z</time>
      </trkpt>
      <trkpt lat="46.06727" lon="6.08669">
        <ele>885.2</ele>
        <time>2021-03-27T15:38:48Z</time>
      </trkpt>
      <trkpt lat="46.06727" lon="6.08669">
        <ele>885.2</ele>
        <time>2021-03-27T15:38:49Z</time>
      </trkpt>
      <trkpt lat="46.06727" lon="6.08669">
        <ele>885.2</ele>
        <time>2021-03-27T15:38:50Z</time>
      </trkpt>
      <trkpt lat="46.06727" lon="6.08669">
        <ele>885.4</ele>
        <time>2021-03-27T15:38:51Z</time>
      </trkpt>
      <trkpt lat="46.06727" lon="6.08669">
        <ele>885</ele>
        <time>2021-03-27T15:38:52Z</time>
      </trkpt>
      <trkpt lat="46.06727" lon="6.08669">
        <ele>885.2</ele>
        <time>2021-03-27T15:38:53Z</time>
      </trkpt>
      <trkpt lat="46.06727" lon="6.08669">
        <ele>885.2</ele>
        <time>2021-03-27T15:38:54Z</time>
      </trkpt>
      <trkpt lat="46.06727" lon="6.08669">
        <ele>885.2</ele>
        <time>2021-03-27T15:38:55Z</time>
      </trkpt>
      <trkpt lat="46.06727" lon="6.08669">
        <ele>885.2</ele>
        <time>2021-03-27T15:38:56Z</time>
      </trkpt>
      <trkpt lat="46.06727" lon="6.08669">
        <ele>885.2</ele>
        <time>2021-03-27T15:38:57Z</time>
      </trkpt>
      <trkpt lat="46.06727" lon="6.08669">
        <ele>885.2</ele>
        <time>2021-03-27T15:38:58Z</time>
      </trkpt>
      <trkpt lat="46.06727" lon="6.08669">
        <ele>885.2</ele>
        <time>2021-03-27T15:38:59Z</time>
      </trkpt>
      <trkpt lat="46.06727" lon="6.08669">
        <ele>885</ele>
        <time>2021-03-27T15:39:00Z</time>
      </trkpt>
      <trkpt lat="46.06727" lon="6.08669">
        <ele>885</ele>
        <time>2021-03-27T15:39:01Z</time>
      </trkpt>
      <trkpt lat="46.06727" lon="6.0867">
        <ele>885</ele>
        <time>2021-03-27T15:39:02Z</time>
      </trkpt>
      <trkpt lat="46.06727" lon="6.0867">
        <ele>885</ele>
        <time>2021-03-27T15:39:03Z</time>
      </trkpt>
      <trkpt lat="46.06727" lon="6.0867">
        <ele>885</ele>
        <time>2021-03-27T15:39:04Z</time>
      </trkpt>
      <trkpt lat="46.06727" lon="6.0867">
        <ele>885</ele>
        <time>2021-03-27T15:39:05Z</time>
      </trkpt>
      <trkpt lat="46.06727" lon="6.0867">
        <ele>885</ele>
        <time>2021-03-27T15:39:06Z</time>
      </trkpt>
      <trkpt lat="46.06727" lon="6.08669">
        <ele>885</ele>
        <time>2021-03-27T15:39:07Z</time>
      </trkpt>
      <trkpt lat="46.06727" lon="6.0867">
        <ele>885</ele>
        <time>2021-03-27T15:39:08Z</time>
      </trkpt>
      <trkpt lat="46.06727" lon="6.08669">
        <ele>885</ele>
        <time>2021-03-27T15:39:09Z</time>
      </trkpt>
      <trkpt lat="46.06727" lon="6.08669">
        <ele>885</ele>
        <time>2021-03-27T15:39:10Z</time>
      </trkpt>
      <trkpt lat="46.06727" lon="6.08669">
        <ele>885</ele>
        <time>2021-03-27T15:39:11Z</time>
      </trkpt>
      <trkpt lat="46.06727" lon="6.08669">
        <ele>885</ele>
        <time>2021-03-27T15:39:12Z</time>
      </trkpt>
      <trkpt lat="46.06727" lon="6.08669">
        <ele>885</ele>
        <time>2021-03-27T15:39:13Z</time>
      </trkpt>
      <trkpt lat="46.06727" lon="6.08669">
        <ele>884.8</ele>
        <time>2021-03-27T15:39:14Z</time>
      </trkpt>
      <trkpt lat="46.06727" lon="6.08668">
        <ele>884.8</ele>
        <time>2021-03-27T15:39:15Z</time>
      </trkpt>
      <trkpt lat="46.06726" lon="6.08667">
        <ele>885</ele>
        <time>2021-03-27T15:39:16Z</time>
      </trkpt>
      <trkpt lat="46.06726" lon="6.08667">
        <ele>885</ele>
        <time>2021-03-27T15:39:17Z</time>
      </trkpt>
      <trkpt lat="46.06726" lon="6.08667">
        <ele>885</ele>
        <time>2021-03-27T15:39:18Z</time>
      </trkpt>
      <trkpt lat="46.06725" lon="6.08667">
        <ele>884.8</ele>
        <time>2021-03-27T15:39:19Z</time>
      </trkpt>
      <trkpt lat="46.06725" lon="6.08667">
        <ele>884.8</ele>
        <time>2021-03-27T15:39:20Z</time>
      </trkpt>
      <trkpt lat="46.06725" lon="6.08667">
        <ele>884.8</ele>
        <time>2021-03-27T15:39:21Z</time>
      </trkpt>
      <trkpt lat="46.06725" lon="6.08667">
        <ele>884.8</ele>
        <time>2021-03-27T15:39:22Z</time>
      </trkpt>
      <trkpt lat="46.06725" lon="6.08667">
        <ele>884.8</ele>
        <time>2021-03-27T15:39:23Z</time>
      </trkpt>
      <trkpt lat="46.06725" lon="6.08667">
        <ele>884.8</ele>
        <time>2021-03-27T15:39:24Z</time>
      </trkpt>
      <trkpt lat="46.06724" lon="6.08668">
        <ele>884.8</ele>
        <time>2021-03-27T15:39:25Z</time>
      </trkpt>
      <trkpt lat="46.06723" lon="6.08669">
        <ele>885</ele>
        <time>2021-03-27T15:39:26Z</time>
      </trkpt>
      <trkpt lat="46.06723" lon="6.08671">
        <ele>884.8</ele>
        <time>2021-03-27T15:39:27Z</time>
      </trkpt>
      <trkpt lat="46.06722" lon="6.08672">
        <ele>884.8</ele>
        <time>2021-03-27T15:39:28Z</time>
      </trkpt>
      <trkpt lat="46.06721" lon="6.08675">
        <ele>884.8</ele>
        <time>2021-03-27T15:39:29Z</time>
      </trkpt>
      <trkpt lat="46.0672" lon="6.08677">
        <ele>884.8</ele>
        <time>2021-03-27T15:39:30Z</time>
      </trkpt>
      <trkpt lat="46.06718" lon="6.08681">
        <ele>884.8</ele>
        <time>2021-03-27T15:39:31Z</time>
      </trkpt>
      <trkpt lat="46.06716" lon="6.08685">
        <ele>884.8</ele>
        <time>2021-03-27T15:39:32Z</time>
      </trkpt>
      <trkpt lat="46.06714" lon="6.08689">
        <ele>884.6</ele>
        <time>2021-03-27T15:39:33Z</time>
      </trkpt>
      <trkpt lat="46.06712" lon="6.08693">
        <ele>884.6</ele>
        <time>2021-03-27T15:39:34Z</time>
      </trkpt>
      <trkpt lat="46.06709" lon="6.08694">
        <ele>884.6</ele>
        <time>2021-03-27T15:39:35Z</time>
      </trkpt>
      <trkpt lat="46.06705" lon="6.08693">
        <ele>884.6</ele>
        <time>2021-03-27T15:39:36Z</time>
      </trkpt>
      <trkpt lat="46.06703" lon="6.0869">
        <ele>884.4</ele>
        <time>2021-03-27T15:39:37Z</time>
      </trkpt>
      <trkpt lat="46.067" lon="6.08685">
        <ele>884.2</ele>
        <time>2021-03-27T15:39:38Z</time>
      </trkpt>
      <trkpt lat="46.06698" lon="6.08679">
        <ele>883.6</ele>
        <time>2021-03-27T15:39:39Z</time>
      </trkpt>
      <trkpt lat="46.06696" lon="6.08673">
        <ele>883.4</ele>
        <time>2021-03-27T15:39:40Z</time>
      </trkpt>
      <trkpt lat="46.06694" lon="6.08667">
        <ele>883.2</ele>
        <time>2021-03-27T15:39:41Z</time>
      </trkpt>
      <trkpt lat="46.06691" lon="6.08661">
        <ele>883</ele>
        <time>2021-03-27T15:39:42Z</time>
      </trkpt>
      <trkpt lat="46.06688" lon="6.08654">
        <ele>882.8</ele>
        <time>2021-03-27T15:39:43Z</time>
      </trkpt>
      <trkpt lat="46.06686" lon="6.08647">
        <ele>882.2</ele>
        <time>2021-03-27T15:39:44Z</time>
      </trkpt>
      <trkpt lat="46.06683" lon="6.08639">
        <ele>882</ele>
        <time>2021-03-27T15:39:45Z</time>
      </trkpt>
      <trkpt lat="46.0668" lon="6.08631">
        <ele>881.8</ele>
        <time>2021-03-27T15:39:46Z</time>
      </trkpt>
      <trkpt lat="46.06677" lon="6.08622">
        <ele>881.8</ele>
        <time>2021-03-27T15:39:47Z</time>
      </trkpt>
      <trkpt lat="46.06674" lon="6.08613">
        <ele>881.6</ele>
        <time>2021-03-27T15:39:48Z</time>
      </trkpt>
      <trkpt lat="46.06672" lon="6.08604">
        <ele>881.6</ele>
        <time>2021-03-27T15:39:49Z</time>
      </trkpt>
      <trkpt lat="46.0667" lon="6.08594">
        <ele>881.4</ele>
        <time>2021-03-27T15:39:50Z</time>
      </trkpt>
      <trkpt lat="46.06668" lon="6.08584">
        <ele>881.2</ele>
        <time>2021-03-27T15:39:51Z</time>
      </trkpt>
      <trkpt lat="46.06666" lon="6.08574">
        <ele>881</ele>
        <time>2021-03-27T15:39:52Z</time>
      </trkpt>
      <trkpt lat="46.06665" lon="6.08564">
        <ele>880.6</ele>
        <time>2021-03-27T15:39:53Z</time>
      </trkpt>
      <trkpt lat="46.06664" lon="6.08553">
        <ele>880.6</ele>
        <time>2021-03-27T15:39:54Z</time>
      </trkpt>
      <trkpt lat="46.06663" lon="6.08543">
        <ele>880.6</ele>
        <time>2021-03-27T15:39:55Z</time>
      </trkpt>
      <trkpt lat="46.06662" lon="6.08532">
        <ele>880.4</ele>
        <time>2021-03-27T15:39:56Z</time>
      </trkpt>
      <trkpt lat="46.06661" lon="6.08521">
        <ele>880.4</ele>
        <time>2021-03-27T15:39:57Z</time>
      </trkpt>
      <trkpt lat="46.0666" lon="6.0851">
        <ele>880.4</ele>
        <time>2021-03-27T15:39:58Z</time>
      </trkpt>
      <trkpt lat="46.0666" lon="6.08498">
        <ele>880.4</ele>
        <time>2021-03-27T15:39:59Z</time>
      </trkpt>
      <trkpt lat="46.06659" lon="6.08486">
        <ele>880.2</ele>
        <time>2021-03-27T15:40:00Z</time>
      </trkpt>
      <trkpt lat="46.06659" lon="6.08473">
        <ele>880.2</ele>
        <time>2021-03-27T15:40:01Z</time>
      </trkpt>
      <trkpt lat="46.0666" lon="6.08461">
        <ele>880.2</ele>
        <time>2021-03-27T15:40:02Z</time>
      </trkpt>
      <trkpt lat="46.06661" lon="6.08448">
        <ele>880.2</ele>
        <time>2021-03-27T15:40:03Z</time>
      </trkpt>
      <trkpt lat="46.06662" lon="6.08435">
        <ele>880.2</ele>
        <time>2021-03-27T15:40:04Z</time>
      </trkpt>
      <trkpt lat="46.06665" lon="6.08422">
        <ele>880</ele>
        <time>2021-03-27T15:40:05Z</time>
      </trkpt>
      <trkpt lat="46.06668" lon="6.08409">
        <ele>879.6</ele>
        <time>2021-03-27T15:40:06Z</time>
      </trkpt>
      <trkpt lat="46.06673" lon="6.08397">
        <ele>879.4</ele>
        <time>2021-03-27T15:40:07Z</time>
      </trkpt>
      <trkpt lat="46.06678" lon="6.08385">
        <ele>879</ele>
        <time>2021-03-27T15:40:08Z</time>
      </trkpt>
      <trkpt lat="46.06684" lon="6.08374">
        <ele>878.4</ele>
        <time>2021-03-27T15:40:09Z</time>
      </trkpt>
      <trkpt lat="46.06691" lon="6.08363">
        <ele>877.8</ele>
        <time>2021-03-27T15:40:10Z</time>
      </trkpt>
      <trkpt lat="46.06698" lon="6.08351">
        <ele>877.4</ele>
        <time>2021-03-27T15:40:11Z</time>
      </trkpt>
      <trkpt lat="46.06704" lon="6.0834">
        <ele>876.8</ele>
        <time>2021-03-27T15:40:12Z</time>
      </trkpt>
      <trkpt lat="46.06711" lon="6.08329">
        <ele>876.6</ele>
        <time>2021-03-27T15:40:13Z</time>
      </trkpt>
      <trkpt lat="46.06718" lon="6.08319">
        <ele>876</ele>
        <time>2021-03-27T15:40:14Z</time>
      </trkpt>
      <trkpt lat="46.06727" lon="6.08311">
        <ele>875.6</ele>
        <time>2021-03-27T15:40:15Z</time>
      </trkpt>
      <trkpt lat="46.06737" lon="6.08305">
        <ele>875</ele>
        <time>2021-03-27T15:40:16Z</time>
      </trkpt>
      <trkpt lat="46.06748" lon="6.08303">
        <ele>874.6</ele>
        <time>2021-03-27T15:40:17Z</time>
      </trkpt>
      <trkpt lat="46.06759" lon="6.08305">
        <ele>874</ele>
        <time>2021-03-27T15:40:18Z</time>
      </trkpt>
      <trkpt lat="46.06771" lon="6.08309">
        <ele>873.4</ele>
        <time>2021-03-27T15:40:19Z</time>
      </trkpt>
      <trkpt lat="46.06782" lon="6.08314">
        <ele>873</ele>
        <time>2021-03-27T15:40:20Z</time>
      </trkpt>
      <trkpt lat="46.06793" lon="6.0832">
        <ele>872.8</ele>
        <time>2021-03-27T15:40:21Z</time>
      </trkpt>
      <trkpt lat="46.06805" lon="6.08328">
        <ele>872.8</ele>
        <time>2021-03-27T15:40:22Z</time>
      </trkpt>
      <trkpt lat="46.06816" lon="6.08335">
        <ele>872.4</ele>
        <time>2021-03-27T15:40:23Z</time>
      </trkpt>
      <trkpt lat="46.06828" lon="6.08344">
        <ele>872</ele>
        <time>2021-03-27T15:40:24Z</time>
      </trkpt>
      <trkpt lat="46.06839" lon="6.08353">
        <ele>871.2</ele>
        <time>2021-03-27T15:40:25Z</time>
      </trkpt>
      <trkpt lat="46.0685" lon="6.08363">
        <ele>870.2</ele>
        <time>2021-03-27T15:40:26Z</time>
      </trkpt>
      <trkpt lat="46.06862" lon="6.08374">
        <ele>868.8</ele>
        <time>2021-03-27T15:40:27Z</time>
      </trkpt>
      <trkpt lat="46.06873" lon="6.08385">
        <ele>867.4</ele>
        <time>2021-03-27T15:40:28Z</time>
      </trkpt>
      <trkpt lat="46.06884" lon="6.08398">
        <ele>866.2</ele>
        <time>2021-03-27T15:40:29Z</time>
      </trkpt>
      <trkpt lat="46.06895" lon="6.08409">
        <ele>864.8</ele>
        <time>2021-03-27T15:40:30Z</time>
      </trkpt>
      <trkpt lat="46.06907" lon="6.08418">
        <ele>863.6</ele>
        <time>2021-03-27T15:40:31Z</time>
      </trkpt>
      <trkpt lat="46.0692" lon="6.08425">
        <ele>862.2</ele>
        <time>2021-03-27T15:40:32Z</time>
      </trkpt>
      <trkpt lat="46.06934" lon="6.08433">
        <ele>860.8</ele>
        <time>2021-03-27T15:40:33Z</time>
      </trkpt>
      <trkpt lat="46.06947" lon="6.08441">
        <ele>859.4</ele>
        <time>2021-03-27T15:40:34Z</time>
      </trkpt>
      <trkpt lat="46.06959" lon="6.0845">
        <ele>858.2</ele>
        <time>2021-03-27T15:40:35Z</time>
      </trkpt>
      <trkpt lat="46.06972" lon="6.08461">
        <ele>857</ele>
        <time>2021-03-27T15:40:36Z</time>
      </trkpt>
      <trkpt lat="46.06984" lon="6.08472">
        <ele>855.8</ele>
        <time>2021-03-27T15:40:37Z</time>
      </trkpt>
      <trkpt lat="46.06996" lon="6.08484">
        <ele>854.6</ele>
        <time>2021-03-27T15:40:38Z</time>
      </trkpt>
      <trkpt lat="46.07008" lon="6.08496">
        <ele>853.2</ele>
        <time>2021-03-27T15:40:39Z</time>
      </trkpt>
      <trkpt lat="46.07019" lon="6.0851">
        <ele>852.4</ele>
        <time>2021-03-27T15:40:40Z</time>
      </trkpt>
      <trkpt lat="46.0703" lon="6.08524">
        <ele>851</ele>
        <time>2021-03-27T15:40:41Z</time>
      </trkpt>
      <trkpt lat="46.0704" lon="6.08538">
        <ele>849.8</ele>
        <time>2021-03-27T15:40:42Z</time>
      </trkpt>
      <trkpt lat="46.07049" lon="6.08555">
        <ele>848.4</ele>
        <time>2021-03-27T15:40:43Z</time>
      </trkpt>
      <trkpt lat="46.07057" lon="6.08572">
        <ele>847</ele>
        <time>2021-03-27T15:40:44Z</time>
      </trkpt>
      <trkpt lat="46.07065" lon="6.08589">
        <ele>845.6</ele>
        <time>2021-03-27T15:40:45Z</time>
      </trkpt>
      <trkpt lat="46.07073" lon="6.08608">
        <ele>843.8</ele>
        <time>2021-03-27T15:40:46Z</time>
      </trkpt>
      <trkpt lat="46.0708" lon="6.08626">
        <ele>842.2</ele>
        <time>2021-03-27T15:40:47Z</time>
      </trkpt>
      <trkpt lat="46.07088" lon="6.08644">
        <ele>841</ele>
        <time>2021-03-27T15:40:48Z</time>
      </trkpt>
      <trkpt lat="46.07097" lon="6.08659">
        <ele>839.8</ele>
        <time>2021-03-27T15:40:49Z</time>
      </trkpt>
      <trkpt lat="46.07109" lon="6.0867">
        <ele>838.6</ele>
        <time>2021-03-27T15:40:50Z</time>
      </trkpt>
      <trkpt lat="46.07122" lon="6.08678">
        <ele>837</ele>
        <time>2021-03-27T15:40:51Z</time>
      </trkpt>
      <trkpt lat="46.07136" lon="6.08684">
        <ele>835.8</ele>
        <time>2021-03-27T15:40:52Z</time>
      </trkpt>
      <trkpt lat="46.0715" lon="6.08689">
        <ele>834.6</ele>
        <time>2021-03-27T15:40:53Z</time>
      </trkpt>
      <trkpt lat="46.07164" lon="6.08693">
        <ele>833.4</ele>
        <time>2021-03-27T15:40:54Z</time>
      </trkpt>
      <trkpt lat="46.07178" lon="6.08696">
        <ele>832.2</ele>
        <time>2021-03-27T15:40:55Z</time>
      </trkpt>
      <trkpt lat="46.07193" lon="6.08699">
        <ele>831</ele>
        <time>2021-03-27T15:40:56Z</time>
      </trkpt>
      <trkpt lat="46.07207" lon="6.087">
        <ele>829.8</ele>
        <time>2021-03-27T15:40:57Z</time>
      </trkpt>
      <trkpt lat="46.0722" lon="6.08702">
        <ele>828</ele>
        <time>2021-03-27T15:40:58Z</time>
      </trkpt>
      <trkpt lat="46.07234" lon="6.08704">
        <ele>825.8</ele>
        <time>2021-03-27T15:40:59Z</time>
      </trkpt>
      <trkpt lat="46.07247" lon="6.08706">
        <ele>824.4</ele>
        <time>2021-03-27T15:41:00Z</time>
      </trkpt>
      <trkpt lat="46.07259" lon="6.08707">
        <ele>823.6</ele>
        <time>2021-03-27T15:41:01Z</time>
      </trkpt>
      <trkpt lat="46.07272" lon="6.08709">
        <ele>822.4</ele>
        <time>2021-03-27T15:41:02Z</time>
      </trkpt>
      <trkpt lat="46.07285" lon="6.08711">
        <ele>821.4</ele>
        <time>2021-03-27T15:41:03Z</time>
      </trkpt>
      <trkpt lat="46.07297" lon="6.08713">
        <ele>820.2</ele>
        <time>2021-03-27T15:41:04Z</time>
      </trkpt>
      <trkpt lat="46.07309" lon="6.08714">
        <ele>819</ele>
        <time>2021-03-27T15:41:05Z</time>
      </trkpt>
      <trkpt lat="46.0732" lon="6.08716">
        <ele>818.2</ele>
        <time>2021-03-27T15:41:06Z</time>
      </trkpt>
      <trkpt lat="46.07332" lon="6.08718">
        <ele>816.6</ele>
        <time>2021-03-27T15:41:07Z</time>
      </trkpt>
      <trkpt lat="46.07343" lon="6.08721">
        <ele>815</ele>
        <time>2021-03-27T15:41:08Z</time>
      </trkpt>
      <trkpt lat="46.07355" lon="6.08723">
        <ele>814</ele>
        <time>2021-03-27T15:41:09Z</time>
      </trkpt>
      <trkpt lat="46.07367" lon="6.08725">
        <ele>813.2</ele>
        <time>2021-03-27T15:41:10Z</time>
      </trkpt>
      <trkpt lat="46.07379" lon="6.08727">
        <ele>812</ele>
        <time>2021-03-27T15:41:11Z</time>
      </trkpt>
      <trkpt lat="46.0739" lon="6.08728">
        <ele>810.8</ele>
        <time>2021-03-27T15:41:12Z</time>
      </trkpt>
      <trkpt lat="46.07402" lon="6.08728">
        <ele>810</ele>
        <time>2021-03-27T15:41:13Z</time>
      </trkpt>
      <trkpt lat="46.07411" lon="6.08722">
        <ele>809.2</ele>
        <time>2021-03-27T15:41:14Z</time>
      </trkpt>
      <trkpt lat="46.07419" lon="6.08715">
        <ele>808.2</ele>
        <time>2021-03-27T15:41:15Z</time>
      </trkpt>
      <trkpt lat="46.07426" lon="6.08708">
        <ele>806.8</ele>
        <time>2021-03-27T15:41:16Z</time>
      </trkpt>
      <trkpt lat="46.07432" lon="6.08702">
        <ele>804.8</ele>
        <time>2021-03-27T15:41:17Z</time>
      </trkpt>
      <trkpt lat="46.07438" lon="6.08697">
        <ele>803.2</ele>
        <time>2021-03-27T15:41:18Z</time>
      </trkpt>
      <trkpt lat="46.07443" lon="6.08695">
        <ele>801.8</ele>
        <time>2021-03-27T15:41:19Z</time>
      </trkpt>
      <trkpt lat="46.07447" lon="6.08694">
        <ele>800.4</ele>
        <time>2021-03-27T15:41:20Z</time>
      </trkpt>
      <trkpt lat="46.07451" lon="6.08693">
        <ele>799.4</ele>
        <time>2021-03-27T15:41:21Z</time>
      </trkpt>
      <trkpt lat="46.07454" lon="6.08692">
        <ele>798.4</ele>
        <time>2021-03-27T15:41:22Z</time>
      </trkpt>
      <trkpt lat="46.07457" lon="6.0869">
        <ele>797.6</ele>
        <time>2021-03-27T15:41:23Z</time>
      </trkpt>
      <trkpt lat="46.0746" lon="6.08688">
        <ele>797.2</ele>
        <time>2021-03-27T15:41:24Z</time>
      </trkpt>
      <trkpt lat="46.07463" lon="6.08684">
        <ele>797.2</ele>
        <time>2021-03-27T15:41:25Z</time>
      </trkpt>
      <trkpt lat="46.07464" lon="6.08679">
        <ele>797</ele>
        <time>2021-03-27T15:41:26Z</time>
      </trkpt>
      <trkpt lat="46.07464" lon="6.08674">
        <ele>797</ele>
        <time>2021-03-27T15:41:27Z</time>
      </trkpt>
      <trkpt lat="46.07464" lon="6.08668">
        <ele>797</ele>
        <time>2021-03-27T15:41:28Z</time>
      </trkpt>
      <trkpt lat="46.07463" lon="6.08663">
        <ele>797</ele>
        <time>2021-03-27T15:41:29Z</time>
      </trkpt>
      <trkpt lat="46.07463" lon="6.08657">
        <ele>797</ele>
        <time>2021-03-27T15:41:30Z</time>
      </trkpt>
      <trkpt lat="46.07462" lon="6.0865">
        <ele>797</ele>
        <time>2021-03-27T15:41:31Z</time>
      </trkpt>
      <trkpt lat="46.07462" lon="6.08643">
        <ele>797</ele>
        <time>2021-03-27T15:41:32Z</time>
      </trkpt>
      <trkpt lat="46.07462" lon="6.08635">
        <ele>797</ele>
        <time>2021-03-27T15:41:33Z</time>
      </trkpt>
      <trkpt lat="46.07461" lon="6.08628">
        <ele>797</ele>
        <time>2021-03-27T15:41:34Z</time>
      </trkpt>
      <trkpt lat="46.07461" lon="6.0862">
        <ele>797</ele>
        <time>2021-03-27T15:41:35Z</time>
      </trkpt>
      <trkpt lat="46.0746" lon="6.08612">
        <ele>797</ele>
        <time>2021-03-27T15:41:36Z</time>
      </trkpt>
      <trkpt lat="46.0746" lon="6.08604">
        <ele>797.2</ele>
        <time>2021-03-27T15:41:37Z</time>
      </trkpt>
      <trkpt lat="46.07459" lon="6.08596">
        <ele>797</ele>
        <time>2021-03-27T15:41:38Z</time>
      </trkpt>
      <trkpt lat="46.07459" lon="6.08588">
        <ele>797.2</ele>
        <time>2021-03-27T15:41:39Z</time>
      </trkpt>
      <trkpt lat="46.07459" lon="6.0858">
        <ele>797.2</ele>
        <time>2021-03-27T15:41:40Z</time>
      </trkpt>
      <trkpt lat="46.07458" lon="6.08571">
        <ele>797.4</ele>
        <time>2021-03-27T15:41:41Z</time>
      </trkpt>
      <trkpt lat="46.07457" lon="6.08562">
        <ele>797.4</ele>
        <time>2021-03-27T15:41:42Z</time>
      </trkpt>
      <trkpt lat="46.07457" lon="6.08553">
        <ele>797.4</ele>
        <time>2021-03-27T15:41:43Z</time>
      </trkpt>
      <trkpt lat="46.07456" lon="6.08543">
        <ele>797.4</ele>
        <time>2021-03-27T15:41:44Z</time>
      </trkpt>
      <trkpt lat="46.07455" lon="6.08534">
        <ele>797.6</ele>
        <time>2021-03-27T15:41:45Z</time>
      </trkpt>
      <trkpt lat="46.07454" lon="6.08524">
        <ele>797.6</ele>
        <time>2021-03-27T15:41:46Z</time>
      </trkpt>
      <trkpt lat="46.07453" lon="6.08515">
        <ele>797.6</ele>
        <time>2021-03-27T15:41:47Z</time>
      </trkpt>
      <trkpt lat="46.07452" lon="6.08505">
        <ele>797.8</ele>
        <time>2021-03-27T15:41:48Z</time>
      </trkpt>
      <trkpt lat="46.07451" lon="6.08494">
        <ele>797.6</ele>
        <time>2021-03-27T15:41:49Z</time>
      </trkpt>
      <trkpt lat="46.0745" lon="6.08484">
        <ele>797.8</ele>
        <time>2021-03-27T15:41:50Z</time>
      </trkpt>
      <trkpt lat="46.07448" lon="6.08474">
        <ele>797.8</ele>
        <time>2021-03-27T15:41:51Z</time>
      </trkpt>
      <trkpt lat="46.07446" lon="6.08463">
        <ele>797.8</ele>
        <time>2021-03-27T15:41:52Z</time>
      </trkpt>
      <trkpt lat="46.07445" lon="6.08453">
        <ele>797.8</ele>
        <time>2021-03-27T15:41:53Z</time>
      </trkpt>
      <trkpt lat="46.07445" lon="6.08444">
        <ele>797.8</ele>
        <time>2021-03-27T15:41:54Z</time>
      </trkpt>
      <trkpt lat="46.07447" lon="6.08435">
        <ele>797.6</ele>
        <time>2021-03-27T15:41:55Z</time>
      </trkpt>
      <trkpt lat="46.07451" lon="6.08428">
        <ele>797.6</ele>
        <time>2021-03-27T15:41:56Z</time>
      </trkpt>
      <trkpt lat="46.07456" lon="6.08421">
        <ele>797.6</ele>
        <time>2021-03-27T15:41:57Z</time>
      </trkpt>
      <trkpt lat="46.07459" lon="6.08413">
        <ele>797.4</ele>
        <time>2021-03-27T15:41:58Z</time>
      </trkpt>
      <trkpt lat="46.07462" lon="6.08404">
        <ele>797.2</ele>
        <time>2021-03-27T15:41:59Z</time>
      </trkpt>
      <trkpt lat="46.07462" lon="6.08394">
        <ele>797</ele>
        <time>2021-03-27T15:42:00Z</time>
      </trkpt>
      <trkpt lat="46.0746" lon="6.08384">
        <ele>797</ele>
        <time>2021-03-27T15:42:01Z</time>
      </trkpt>
      <trkpt lat="46.07456" lon="6.08375">
        <ele>796.6</ele>
        <time>2021-03-27T15:42:02Z</time>
      </trkpt>
      <trkpt lat="46.07451" lon="6.08367">
        <ele>796.4</ele>
        <time>2021-03-27T15:42:03Z</time>
      </trkpt>
      <trkpt lat="46.07446" lon="6.08358">
        <ele>796.4</ele>
        <time>2021-03-27T15:42:04Z</time>
      </trkpt>
      <trkpt lat="46.0744" lon="6.0835">
        <ele>796.2</ele>
        <time>2021-03-27T15:42:05Z</time>
      </trkpt>
      <trkpt lat="46.07434" lon="6.08341">
        <ele>795.6</ele>
        <time>2021-03-27T15:42:06Z</time>
      </trkpt>
      <trkpt lat="46.07429" lon="6.08332">
        <ele>795.2</ele>
        <time>2021-03-27T15:42:07Z</time>
      </trkpt>
      <trkpt lat="46.07424" lon="6.08323">
        <ele>795.2</ele>
        <time>2021-03-27T15:42:08Z</time>
      </trkpt>
      <trkpt lat="46.07419" lon="6.08314">
        <ele>795</ele>
        <time>2021-03-27T15:42:09Z</time>
      </trkpt>
      <trkpt lat="46.07415" lon="6.08304">
        <ele>794.6</ele>
        <time>2021-03-27T15:42:10Z</time>
      </trkpt>
      <trkpt lat="46.0741" lon="6.08295">
        <ele>794.4</ele>
        <time>2021-03-27T15:42:11Z</time>
      </trkpt>
      <trkpt lat="46.07406" lon="6.08285">
        <ele>793.8</ele>
        <time>2021-03-27T15:42:12Z</time>
      </trkpt>
      <trkpt lat="46.07401" lon="6.08276">
        <ele>793.4</ele>
        <time>2021-03-27T15:42:13Z</time>
      </trkpt>
      <trkpt lat="46.07398" lon="6.08266">
        <ele>793</ele>
        <time>2021-03-27T15:42:14Z</time>
      </trkpt>
      <trkpt lat="46.07395" lon="6.08256">
        <ele>792.6</ele>
        <time>2021-03-27T15:42:15Z</time>
      </trkpt>
      <trkpt lat="46.07392" lon="6.08245">
        <ele>792.4</ele>
        <time>2021-03-27T15:42:16Z</time>
      </trkpt>
      <trkpt lat="46.0739" lon="6.08235">
        <ele>792.2</ele>
        <time>2021-03-27T15:42:17Z</time>
      </trkpt>
      <trkpt lat="46.07388" lon="6.08223">
        <ele>791.8</ele>
        <time>2021-03-27T15:42:18Z</time>
      </trkpt>
      <trkpt lat="46.07387" lon="6.08213">
        <ele>791.6</ele>
        <time>2021-03-27T15:42:19Z</time>
      </trkpt>
      <trkpt lat="46.07386" lon="6.08202">
        <ele>791.4</ele>
        <time>2021-03-27T15:42:20Z</time>
      </trkpt>
      <trkpt lat="46.07385" lon="6.08191">
        <ele>791.2</ele>
        <time>2021-03-27T15:42:21Z</time>
      </trkpt>
      <trkpt lat="46.07385" lon="6.0818">
        <ele>791</ele>
        <time>2021-03-27T15:42:22Z</time>
      </trkpt>
      <trkpt lat="46.07384" lon="6.08169">
        <ele>790.8</ele>
        <time>2021-03-27T15:42:23Z</time>
      </trkpt>
      <trkpt lat="46.07383" lon="6.08158">
        <ele>790.6</ele>
        <time>2021-03-27T15:42:24Z</time>
      </trkpt>
      <trkpt lat="46.07382" lon="6.08147">
        <ele>790.8</ele>
        <time>2021-03-27T15:42:25Z</time>
      </trkpt>
      <trkpt lat="46.07382" lon="6.08137">
        <ele>790.6</ele>
        <time>2021-03-27T15:42:26Z</time>
      </trkpt>
      <trkpt lat="46.07381" lon="6.08127">
        <ele>790.6</ele>
        <time>2021-03-27T15:42:27Z</time>
      </trkpt>
      <trkpt lat="46.07381" lon="6.08116">
        <ele>790.6</ele>
        <time>2021-03-27T15:42:28Z</time>
      </trkpt>
      <trkpt lat="46.07381" lon="6.08106">
        <ele>790.8</ele>
        <time>2021-03-27T15:42:29Z</time>
      </trkpt>
      <trkpt lat="46.0738" lon="6.08096">
        <ele>790.6</ele>
        <time>2021-03-27T15:42:30Z</time>
      </trkpt>
      <trkpt lat="46.07379" lon="6.08087">
        <ele>790.6</ele>
        <time>2021-03-27T15:42:31Z</time>
      </trkpt>
      <trkpt lat="46.07378" lon="6.08077">
        <ele>790.6</ele>
        <time>2021-03-27T15:42:32Z</time>
      </trkpt>
      <trkpt lat="46.07377" lon="6.08067">
        <ele>790.6</ele>
        <time>2021-03-27T15:42:33Z</time>
      </trkpt>
      <trkpt lat="46.07374" lon="6.08058">
        <ele>790.6</ele>
        <time>2021-03-27T15:42:34Z</time>
      </trkpt>
      <trkpt lat="46.07372" lon="6.0805">
        <ele>790.8</ele>
        <time>2021-03-27T15:42:35Z</time>
      </trkpt>
      <trkpt lat="46.07369" lon="6.08043">
        <ele>791</ele>
        <time>2021-03-27T15:42:36Z</time>
      </trkpt>
      <trkpt lat="46.0736" lon="6.08029">
        <ele>791.6</ele>
        <time>2021-03-27T15:42:38Z</time>
      </trkpt>
      <trkpt lat="46.07355" lon="6.08023">
        <ele>791.6</ele>
        <time>2021-03-27T15:42:39Z</time>
      </trkpt>
      <trkpt lat="46.07351" lon="6.08017">
        <ele>791.8</ele>
        <time>2021-03-27T15:42:40Z</time>
      </trkpt>
      <trkpt lat="46.07346" lon="6.0801">
        <ele>791.8</ele>
        <time>2021-03-27T15:42:41Z</time>
      </trkpt>
      <trkpt lat="46.07341" lon="6.08004">
        <ele>791.8</ele>
        <time>2021-03-27T15:42:42Z</time>
      </trkpt>
      <trkpt lat="46.07336" lon="6.07997">
        <ele>792</ele>
        <time>2021-03-27T15:42:43Z</time>
      </trkpt>
      <trkpt lat="46.07331" lon="6.07991">
        <ele>792</ele>
        <time>2021-03-27T15:42:44Z</time>
      </trkpt>
      <trkpt lat="46.07327" lon="6.07984">
        <ele>792</ele>
        <time>2021-03-27T15:42:45Z</time>
      </trkpt>
      <trkpt lat="46.07323" lon="6.07976">
        <ele>792.2</ele>
        <time>2021-03-27T15:42:46Z</time>
      </trkpt>
      <trkpt lat="46.07319" lon="6.07968">
        <ele>792.2</ele>
        <time>2021-03-27T15:42:47Z</time>
      </trkpt>
      <trkpt lat="46.07316" lon="6.07961">
        <ele>792.2</ele>
        <time>2021-03-27T15:42:48Z</time>
      </trkpt>
      <trkpt lat="46.07313" lon="6.07952">
        <ele>792.4</ele>
        <time>2021-03-27T15:42:49Z</time>
      </trkpt>
      <trkpt lat="46.0731" lon="6.07944">
        <ele>792.4</ele>
        <time>2021-03-27T15:42:50Z</time>
      </trkpt>
      <trkpt lat="46.07307" lon="6.07935">
        <ele>792.2</ele>
        <time>2021-03-27T15:42:51Z</time>
      </trkpt>
      <trkpt lat="46.07303" lon="6.07927">
        <ele>792.2</ele>
        <time>2021-03-27T15:42:52Z</time>
      </trkpt>
      <trkpt lat="46.073" lon="6.07918">
        <ele>792.2</ele>
        <time>2021-03-27T15:42:53Z</time>
      </trkpt>
      <trkpt lat="46.07297" lon="6.07909">
        <ele>792.2</ele>
        <time>2021-03-27T15:42:54Z</time>
      </trkpt>
      <trkpt lat="46.07293" lon="6.079">
        <ele>792.2</ele>
        <time>2021-03-27T15:42:55Z</time>
      </trkpt>
      <trkpt lat="46.0729" lon="6.07891">
        <ele>792</ele>
        <time>2021-03-27T15:42:56Z</time>
      </trkpt>
      <trkpt lat="46.07286" lon="6.07882">
        <ele>792</ele>
        <time>2021-03-27T15:42:57Z</time>
      </trkpt>
      <trkpt lat="46.07282" lon="6.07873">
        <ele>792</ele>
        <time>2021-03-27T15:42:58Z</time>
      </trkpt>
      <trkpt lat="46.07278" lon="6.07865">
        <ele>792</ele>
        <time>2021-03-27T15:42:59Z</time>
      </trkpt>
      <trkpt lat="46.07275" lon="6.07856">
        <ele>792</ele>
        <time>2021-03-27T15:43:00Z</time>
      </trkpt>
      <trkpt lat="46.0727" lon="6.07848">
        <ele>792</ele>
        <time>2021-03-27T15:43:01Z</time>
      </trkpt>
      <trkpt lat="46.07266" lon="6.07839">
        <ele>792</ele>
        <time>2021-03-27T15:43:02Z</time>
      </trkpt>
      <trkpt lat="46.07261" lon="6.0783">
        <ele>791.8</ele>
        <time>2021-03-27T15:43:03Z</time>
      </trkpt>
      <trkpt lat="46.07257" lon="6.07822">
        <ele>791.8</ele>
        <time>2021-03-27T15:43:04Z</time>
      </trkpt>
      <trkpt lat="46.07253" lon="6.07814">
        <ele>791.8</ele>
        <time>2021-03-27T15:43:05Z</time>
      </trkpt>
      <trkpt lat="46.07248" lon="6.07806">
        <ele>791.8</ele>
        <time>2021-03-27T15:43:06Z</time>
      </trkpt>
      <trkpt lat="46.07244" lon="6.07797">
        <ele>791.6</ele>
        <time>2021-03-27T15:43:07Z</time>
      </trkpt>
      <trkpt lat="46.07239" lon="6.07789">
        <ele>791.6</ele>
        <time>2021-03-27T15:43:08Z</time>
      </trkpt>
      <trkpt lat="46.07235" lon="6.0778">
        <ele>791.6</ele>
        <time>2021-03-27T15:43:09Z</time>
      </trkpt>
      <trkpt lat="46.07231" lon="6.07771">
        <ele>791.6</ele>
        <time>2021-03-27T15:43:10Z</time>
      </trkpt>
      <trkpt lat="46.07226" lon="6.07762">
        <ele>791.6</ele>
        <time>2021-03-27T15:43:11Z</time>
      </trkpt>
      <trkpt lat="46.07221" lon="6.07754">
        <ele>791.6</ele>
        <time>2021-03-27T15:43:12Z</time>
      </trkpt>
      <trkpt lat="46.07216" lon="6.07745">
        <ele>791.4</ele>
        <time>2021-03-27T15:43:13Z</time>
      </trkpt>
      <trkpt lat="46.07211" lon="6.07737">
        <ele>791.6</ele>
        <time>2021-03-27T15:43:14Z</time>
      </trkpt>
      <trkpt lat="46.07206" lon="6.07729">
        <ele>791.4</ele>
        <time>2021-03-27T15:43:15Z</time>
      </trkpt>
      <trkpt lat="46.07202" lon="6.07722">
        <ele>791</ele>
        <time>2021-03-27T15:43:16Z</time>
      </trkpt>
      <trkpt lat="46.07196" lon="6.07714">
        <ele>791</ele>
        <time>2021-03-27T15:43:17Z</time>
      </trkpt>
      <trkpt lat="46.07191" lon="6.07707">
        <ele>790.8</ele>
        <time>2021-03-27T15:43:18Z</time>
      </trkpt>
      <trkpt lat="46.07187" lon="6.07699">
        <ele>790.8</ele>
        <time>2021-03-27T15:43:19Z</time>
      </trkpt>
      <trkpt lat="46.07182" lon="6.07692">
        <ele>790.8</ele>
        <time>2021-03-27T15:43:20Z</time>
      </trkpt>
      <trkpt lat="46.07178" lon="6.07684">
        <ele>790.8</ele>
        <time>2021-03-27T15:43:21Z</time>
      </trkpt>
      <trkpt lat="46.07174" lon="6.07676">
        <ele>790.6</ele>
        <time>2021-03-27T15:43:22Z</time>
      </trkpt>
      <trkpt lat="46.07169" lon="6.07668">
        <ele>790.6</ele>
        <time>2021-03-27T15:43:23Z</time>
      </trkpt>
      <trkpt lat="46.07165" lon="6.0766">
        <ele>790.6</ele>
        <time>2021-03-27T15:43:24Z</time>
      </trkpt>
      <trkpt lat="46.07161" lon="6.07652">
        <ele>790.4</ele>
        <time>2021-03-27T15:43:25Z</time>
      </trkpt>
      <trkpt lat="46.07156" lon="6.07643">
        <ele>790.6</ele>
        <time>2021-03-27T15:43:26Z</time>
      </trkpt>
      <trkpt lat="46.07153" lon="6.07635">
        <ele>790.4</ele>
        <time>2021-03-27T15:43:27Z</time>
      </trkpt>
      <trkpt lat="46.07149" lon="6.07626">
        <ele>790.4</ele>
        <time>2021-03-27T15:43:28Z</time>
      </trkpt>
      <trkpt lat="46.07145" lon="6.07617">
        <ele>790.4</ele>
        <time>2021-03-27T15:43:29Z</time>
      </trkpt>
      <trkpt lat="46.07141" lon="6.07608">
        <ele>790.6</ele>
        <time>2021-03-27T15:43:30Z</time>
      </trkpt>
      <trkpt lat="46.07138" lon="6.07599">
        <ele>790.6</ele>
        <time>2021-03-27T15:43:31Z</time>
      </trkpt>
      <trkpt lat="46.07134" lon="6.0759">
        <ele>790.4</ele>
        <time>2021-03-27T15:43:32Z</time>
      </trkpt>
      <trkpt lat="46.07131" lon="6.07581">
        <ele>790.6</ele>
        <time>2021-03-27T15:43:33Z</time>
      </trkpt>
      <trkpt lat="46.07127" lon="6.07572">
        <ele>790.6</ele>
        <time>2021-03-27T15:43:34Z</time>
      </trkpt>
      <trkpt lat="46.07123" lon="6.07563">
        <ele>790.4</ele>
        <time>2021-03-27T15:43:35Z</time>
      </trkpt>
      <trkpt lat="46.0712" lon="6.07554">
        <ele>790.4</ele>
        <time>2021-03-27T15:43:36Z</time>
      </trkpt>
      <trkpt lat="46.07116" lon="6.07545">
        <ele>790.4</ele>
        <time>2021-03-27T15:43:37Z</time>
      </trkpt>
      <trkpt lat="46.07111" lon="6.07537">
        <ele>790.4</ele>
        <time>2021-03-27T15:43:38Z</time>
      </trkpt>
      <trkpt lat="46.07107" lon="6.07529">
        <ele>790.4</ele>
        <time>2021-03-27T15:43:39Z</time>
      </trkpt>
      <trkpt lat="46.07102" lon="6.0752">
        <ele>790.4</ele>
        <time>2021-03-27T15:43:40Z</time>
      </trkpt>
      <trkpt lat="46.07098" lon="6.07512">
        <ele>790.2</ele>
        <time>2021-03-27T15:43:41Z</time>
      </trkpt>
      <trkpt lat="46.07094" lon="6.07504">
        <ele>790.4</ele>
        <time>2021-03-27T15:43:42Z</time>
      </trkpt>
      <trkpt lat="46.07089" lon="6.07496">
        <ele>790.2</ele>
        <time>2021-03-27T15:43:43Z</time>
      </trkpt>
      <trkpt lat="46.07085" lon="6.07488">
        <ele>790.2</ele>
        <time>2021-03-27T15:43:44Z</time>
      </trkpt>
      <trkpt lat="46.07082" lon="6.0748">
        <ele>790.2</ele>
        <time>2021-03-27T15:43:45Z</time>
      </trkpt>
      <trkpt lat="46.07079" lon="6.07472">
        <ele>790.2</ele>
        <time>2021-03-27T15:43:46Z</time>
      </trkpt>
      <trkpt lat="46.07076" lon="6.07464">
        <ele>790.2</ele>
        <time>2021-03-27T15:43:47Z</time>
      </trkpt>
      <trkpt lat="46.07074" lon="6.07456">
        <ele>790.2</ele>
        <time>2021-03-27T15:43:48Z</time>
      </trkpt>
      <trkpt lat="46.07072" lon="6.07448">
        <ele>790.2</ele>
        <time>2021-03-27T15:43:49Z</time>
      </trkpt>
      <trkpt lat="46.0707" lon="6.0744">
        <ele>790</ele>
        <time>2021-03-27T15:43:50Z</time>
      </trkpt>
      <trkpt lat="46.07068" lon="6.07432">
        <ele>790.2</ele>
        <time>2021-03-27T15:43:51Z</time>
      </trkpt>
      <trkpt lat="46.07066" lon="6.07425">
        <ele>790.2</ele>
        <time>2021-03-27T15:43:52Z</time>
      </trkpt>
      <trkpt lat="46.07064" lon="6.07417">
        <ele>790</ele>
        <time>2021-03-27T15:43:53Z</time>
      </trkpt>
      <trkpt lat="46.07063" lon="6.07411">
        <ele>790.2</ele>
        <time>2021-03-27T15:43:54Z</time>
      </trkpt>
      <trkpt lat="46.07062" lon="6.07405">
        <ele>790.2</ele>
        <time>2021-03-27T15:43:55Z</time>
      </trkpt>
      <trkpt lat="46.07061" lon="6.07399">
        <ele>790.4</ele>
        <time>2021-03-27T15:43:56Z</time>
      </trkpt>
      <trkpt lat="46.07059" lon="6.07391">
        <ele>790.6</ele>
        <time>2021-03-27T15:43:57Z</time>
      </trkpt>
      <trkpt lat="46.07056" lon="6.07383">
        <ele>791</ele>
        <time>2021-03-27T15:43:58Z</time>
      </trkpt>
      <trkpt lat="46.07054" lon="6.07375">
        <ele>791.4</ele>
        <time>2021-03-27T15:43:59Z</time>
      </trkpt>
      <trkpt lat="46.07052" lon="6.07367">
        <ele>791.6</ele>
        <time>2021-03-27T15:44:00Z</time>
      </trkpt>
      <trkpt lat="46.0705" lon="6.07359">
        <ele>791.8</ele>
        <time>2021-03-27T15:44:01Z</time>
      </trkpt>
      <trkpt lat="46.07048" lon="6.0735">
        <ele>791.8</ele>
        <time>2021-03-27T15:44:02Z</time>
      </trkpt>
      <trkpt lat="46.07044" lon="6.07342">
        <ele>791.8</ele>
        <time>2021-03-27T15:44:03Z</time>
      </trkpt>
      <trkpt lat="46.07042" lon="6.07334">
        <ele>791.8</ele>
        <time>2021-03-27T15:44:04Z</time>
      </trkpt>
      <trkpt lat="46.07039" lon="6.07325">
        <ele>791.8</ele>
        <time>2021-03-27T15:44:05Z</time>
      </trkpt>
      <trkpt lat="46.07036" lon="6.07315">
        <ele>791.8</ele>
        <time>2021-03-27T15:44:06Z</time>
      </trkpt>
      <trkpt lat="46.07034" lon="6.07306">
        <ele>791.8</ele>
        <time>2021-03-27T15:44:07Z</time>
      </trkpt>
      <trkpt lat="46.07031" lon="6.07296">
        <ele>791.8</ele>
        <time>2021-03-27T15:44:08Z</time>
      </trkpt>
      <trkpt lat="46.07028" lon="6.07287">
        <ele>791.8</ele>
        <time>2021-03-27T15:44:09Z</time>
      </trkpt>
      <trkpt lat="46.07025" lon="6.07278">
        <ele>791.8</ele>
        <time>2021-03-27T15:44:10Z</time>
      </trkpt>
      <trkpt lat="46.07023" lon="6.0727">
        <ele>791.8</ele>
        <time>2021-03-27T15:44:11Z</time>
      </trkpt>
      <trkpt lat="46.0702" lon="6.07262">
        <ele>791.8</ele>
        <time>2021-03-27T15:44:12Z</time>
      </trkpt>
      <trkpt lat="46.07018" lon="6.07256">
        <ele>791.8</ele>
        <time>2021-03-27T15:44:13Z</time>
      </trkpt>
      <trkpt lat="46.07017" lon="6.07249">
        <ele>791.8</ele>
        <time>2021-03-27T15:44:14Z</time>
      </trkpt>
      <trkpt lat="46.07014" lon="6.07243">
        <ele>791.8</ele>
        <time>2021-03-27T15:44:15Z</time>
      </trkpt>
      <trkpt lat="46.07013" lon="6.07237">
        <ele>791.6</ele>
        <time>2021-03-27T15:44:16Z</time>
      </trkpt>
      <trkpt lat="46.07011" lon="6.0723">
        <ele>791.8</ele>
        <time>2021-03-27T15:44:17Z</time>
      </trkpt>
      <trkpt lat="46.07009" lon="6.07224">
        <ele>791.6</ele>
        <time>2021-03-27T15:44:18Z</time>
      </trkpt>
      <trkpt lat="46.07008" lon="6.07217">
        <ele>791.6</ele>
        <time>2021-03-27T15:44:19Z</time>
      </trkpt>
      <trkpt lat="46.07006" lon="6.07209">
        <ele>791.8</ele>
        <time>2021-03-27T15:44:20Z</time>
      </trkpt>
      <trkpt lat="46.07004" lon="6.07201">
        <ele>792.2</ele>
        <time>2021-03-27T15:44:21Z</time>
      </trkpt>
      <trkpt lat="46.07001" lon="6.07194">
        <ele>792.4</ele>
        <time>2021-03-27T15:44:22Z</time>
      </trkpt>
      <trkpt lat="46.06999" lon="6.07186">
        <ele>792.8</ele>
        <time>2021-03-27T15:44:23Z</time>
      </trkpt>
      <trkpt lat="46.06997" lon="6.07176">
        <ele>793.2</ele>
        <time>2021-03-27T15:44:24Z</time>
      </trkpt>
      <trkpt lat="46.06995" lon="6.07167">
        <ele>793.2</ele>
        <time>2021-03-27T15:44:25Z</time>
      </trkpt>
      <trkpt lat="46.06993" lon="6.07158">
        <ele>793.4</ele>
        <time>2021-03-27T15:44:26Z</time>
      </trkpt>
      <trkpt lat="46.06991" lon="6.07148">
        <ele>793.2</ele>
        <time>2021-03-27T15:44:27Z</time>
      </trkpt>
      <trkpt lat="46.06989" lon="6.07138">
        <ele>793.4</ele>
        <time>2021-03-27T15:44:28Z</time>
      </trkpt>
      <trkpt lat="46.06988" lon="6.07128">
        <ele>793.2</ele>
        <time>2021-03-27T15:44:29Z</time>
      </trkpt>
      <trkpt lat="46.06986" lon="6.07119">
        <ele>793.4</ele>
        <time>2021-03-27T15:44:30Z</time>
      </trkpt>
      <trkpt lat="46.06986" lon="6.07109">
        <ele>793.4</ele>
        <time>2021-03-27T15:44:31Z</time>
      </trkpt>
      <trkpt lat="46.06985" lon="6.071">
        <ele>793.4</ele>
        <time>2021-03-27T15:44:32Z</time>
      </trkpt>
      <trkpt lat="46.06984" lon="6.07091">
        <ele>793.4</ele>
        <time>2021-03-27T15:44:33Z</time>
      </trkpt>
      <trkpt lat="46.06984" lon="6.07081">
        <ele>793.2</ele>
        <time>2021-03-27T15:44:34Z</time>
      </trkpt>
      <trkpt lat="46.06984" lon="6.07072">
        <ele>793.2</ele>
        <time>2021-03-27T15:44:35Z</time>
      </trkpt>
      <trkpt lat="46.06984" lon="6.07062">
        <ele>793.4</ele>
        <time>2021-03-27T15:44:36Z</time>
      </trkpt>
      <trkpt lat="46.06984" lon="6.07053">
        <ele>793.2</ele>
        <time>2021-03-27T15:44:37Z</time>
      </trkpt>
      <trkpt lat="46.06984" lon="6.07044">
        <ele>793.2</ele>
        <time>2021-03-27T15:44:38Z</time>
      </trkpt>
      <trkpt lat="46.06984" lon="6.07035">
        <ele>793</ele>
        <time>2021-03-27T15:44:39Z</time>
      </trkpt>
      <trkpt lat="46.06985" lon="6.07026">
        <ele>793.2</ele>
        <time>2021-03-27T15:44:40Z</time>
      </trkpt>
      <trkpt lat="46.06986" lon="6.07018">
        <ele>793.2</ele>
        <time>2021-03-27T15:44:41Z</time>
      </trkpt>
      <trkpt lat="46.06987" lon="6.07011">
        <ele>793</ele>
        <time>2021-03-27T15:44:42Z</time>
      </trkpt>
      <trkpt lat="46.06988" lon="6.07005">
        <ele>792.8</ele>
        <time>2021-03-27T15:44:43Z</time>
      </trkpt>
      <trkpt lat="46.06989" lon="6.07001">
        <ele>792.8</ele>
        <time>2021-03-27T15:44:44Z</time>
      </trkpt>
      <trkpt lat="46.06991" lon="6.06998">
        <ele>792.6</ele>
        <time>2021-03-27T15:44:45Z</time>
      </trkpt>
      <trkpt lat="46.06991" lon="6.06997">
        <ele>792.4</ele>
        <time>2021-03-27T15:44:46Z</time>
      </trkpt>
      <trkpt lat="46.06992" lon="6.06997">
        <ele>792</ele>
        <time>2021-03-27T15:44:47Z</time>
      </trkpt>
      <trkpt lat="46.06992" lon="6.06997">
        <ele>792</ele>
        <time>2021-03-27T15:44:48Z</time>
      </trkpt>
      <trkpt lat="46.06992" lon="6.06997">
        <ele>791.8</ele>
        <time>2021-03-27T15:44:49Z</time>
      </trkpt>
      <trkpt lat="46.06992" lon="6.06997">
        <ele>791.4</ele>
        <time>2021-03-27T15:44:50Z</time>
      </trkpt>
      <trkpt lat="46.06992" lon="6.06996">
        <ele>791.6</ele>
        <time>2021-03-27T15:44:51Z</time>
      </trkpt>
      <trkpt lat="46.06992" lon="6.06996">
        <ele>791.4</ele>
        <time>2021-03-27T15:44:52Z</time>
      </trkpt>
      <trkpt lat="46.06992" lon="6.06996">
        <ele>791.4</ele>
        <time>2021-03-27T15:44:53Z</time>
      </trkpt>
      <trkpt lat="46.06992" lon="6.06996">
        <ele>791.4</ele>
        <time>2021-03-27T15:44:54Z</time>
      </trkpt>
      <trkpt lat="46.06992" lon="6.06996">
        <ele>791.4</ele>
        <time>2021-03-27T15:44:55Z</time>
      </trkpt>
      <trkpt lat="46.06992" lon="6.06996">
        <ele>791.2</ele>
        <time>2021-03-27T15:44:56Z</time>
      </trkpt>
      <trkpt lat="46.06992" lon="6.06996">
        <ele>791.2</ele>
        <time>2021-03-27T15:44:57Z</time>
      </trkpt>
      <trkpt lat="46.06991" lon="6.06996">
        <ele>791.2</ele>
        <time>2021-03-27T15:44:58Z</time>
      </trkpt>
      <trkpt lat="46.06991" lon="6.06996">
        <ele>791.2</ele>
        <time>2021-03-27T15:44:59Z</time>
      </trkpt>
      <trkpt lat="46.06991" lon="6.06996">
        <ele>791.2</ele>
        <time>2021-03-27T15:45:00Z</time>
      </trkpt>
      <trkpt lat="46.06991" lon="6.06995">
        <ele>791.2</ele>
        <time>2021-03-27T15:45:01Z</time>
      </trkpt>
      <trkpt lat="46.06991" lon="6.06995">
        <ele>791.2</ele>
        <time>2021-03-27T15:45:02Z</time>
      </trkpt>
      <trkpt lat="46.06991" lon="6.06995">
        <ele>791.2</ele>
        <time>2021-03-27T15:45:03Z</time>
      </trkpt>
      <trkpt lat="46.06991" lon="6.06994">
        <ele>791.2</ele>
        <time>2021-03-27T15:45:04Z</time>
      </trkpt>
      <trkpt lat="46.06991" lon="6.06994">
        <ele>791.2</ele>
        <time>2021-03-27T15:45:05Z</time>
      </trkpt>
      <trkpt lat="46.06991" lon="6.06994">
        <ele>791.2</ele>
        <time>2021-03-27T15:45:06Z</time>
      </trkpt>
      <trkpt lat="46.06991" lon="6.06994">
        <ele>791.2</ele>
        <time>2021-03-27T15:45:07Z</time>
      </trkpt>
      <trkpt lat="46.06991" lon="6.06994">
        <ele>791.2</ele>
        <time>2021-03-27T15:45:08Z</time>
      </trkpt>
      <trkpt lat="46.06991" lon="6.06993">
        <ele>791</ele>
        <time>2021-03-27T15:45:09Z</time>
      </trkpt>
      <trkpt lat="46.06991" lon="6.06992">
        <ele>791.2</ele>
        <time>2021-03-27T15:45:10Z</time>
      </trkpt>
      <trkpt lat="46.06991" lon="6.06991">
        <ele>791.2</ele>
        <time>2021-03-27T15:45:11Z</time>
      </trkpt>
      <trkpt lat="46.06991" lon="6.0699">
        <ele>791.2</ele>
        <time>2021-03-27T15:45:12Z</time>
      </trkpt>
      <trkpt lat="46.06991" lon="6.0699">
        <ele>791.2</ele>
        <time>2021-03-27T15:45:13Z</time>
      </trkpt>
      <trkpt lat="46.06991" lon="6.0699">
        <ele>791</ele>
        <time>2021-03-27T15:45:14Z</time>
      </trkpt>
      <trkpt lat="46.06991" lon="6.0699">
        <ele>791.2</ele>
        <time>2021-03-27T15:45:15Z</time>
      </trkpt>
      <trkpt lat="46.06991" lon="6.06991">
        <ele>791.2</ele>
        <time>2021-03-27T15:45:16Z</time>
      </trkpt>
      <trkpt lat="46.06991" lon="6.06991">
        <ele>791.2</ele>
        <time>2021-03-27T15:45:17Z</time>
      </trkpt>
      <trkpt lat="46.06991" lon="6.06991">
        <ele>791.2</ele>
        <time>2021-03-27T15:45:18Z</time>
      </trkpt>
      <trkpt lat="46.0699" lon="6.06991">
        <ele>791</ele>
        <time>2021-03-27T15:45:19Z</time>
      </trkpt>
      <trkpt lat="46.0699" lon="6.06991">
        <ele>791</ele>
        <time>2021-03-27T15:45:20Z</time>
      </trkpt>
      <trkpt lat="46.0699" lon="6.06991">
        <ele>791</ele>
        <time>2021-03-27T15:45:21Z</time>
      </trkpt>
      <trkpt lat="46.0699" lon="6.06991">
        <ele>791</ele>
        <time>2021-03-27T15:45:22Z</time>
      </trkpt>
      <trkpt lat="46.0699" lon="6.06991">
        <ele>791</ele>
        <time>2021-03-27T15:45:23Z</time>
      </trkpt>
      <trkpt lat="46.0699" lon="6.06991">
        <ele>790.8</ele>
        <time>2021-03-27T15:45:24Z</time>
      </trkpt>
      <trkpt lat="46.0699" lon="6.06991">
        <ele>790.8</ele>
        <time>2021-03-27T15:45:25Z</time>
      </trkpt>
      <trkpt lat="46.0699" lon="6.06991">
        <ele>791</ele>
        <time>2021-03-27T15:45:26Z</time>
      </trkpt>
      <trkpt lat="46.0699" lon="6.06991">
        <ele>790.8</ele>
        <time>2021-03-27T15:45:27Z</time>
      </trkpt>
      <trkpt lat="46.0699" lon="6.06991">
        <ele>790.8</ele>
        <time>2021-03-27T15:45:28Z</time>
      </trkpt>
      <trkpt lat="46.0699" lon="6.06991">
        <ele>790.8</ele>
        <time>2021-03-27T15:45:29Z</time>
      </trkpt>
      <trkpt lat="46.0699" lon="6.0699">
        <ele>790.8</ele>
        <time>2021-03-27T15:45:30Z</time>
      </trkpt>
      <trkpt lat="46.06989" lon="6.06988">
        <ele>790.8</ele>
        <time>2021-03-27T15:45:31Z</time>
      </trkpt>
      <trkpt lat="46.06987" lon="6.06986">
        <ele>790.6</ele>
        <time>2021-03-27T15:45:32Z</time>
      </trkpt>
      <trkpt lat="46.06986" lon="6.06982">
        <ele>790.6</ele>
        <time>2021-03-27T15:45:33Z</time>
      </trkpt>
      <trkpt lat="46.06984" lon="6.06978">
        <ele>790.8</ele>
        <time>2021-03-27T15:45:34Z</time>
      </trkpt>
      <trkpt lat="46.06983" lon="6.06974">
        <ele>790.8</ele>
        <time>2021-03-27T15:45:35Z</time>
      </trkpt>
      <trkpt lat="46.06983" lon="6.06969">
        <ele>790.8</ele>
        <time>2021-03-27T15:45:36Z</time>
      </trkpt>
      <trkpt lat="46.06983" lon="6.06963">
        <ele>790.6</ele>
        <time>2021-03-27T15:45:37Z</time>
      </trkpt>
      <trkpt lat="46.06984" lon="6.06958">
        <ele>790.8</ele>
        <time>2021-03-27T15:45:38Z</time>
      </trkpt>
      <trkpt lat="46.06986" lon="6.06952">
        <ele>790.6</ele>
        <time>2021-03-27T15:45:39Z</time>
      </trkpt>
      <trkpt lat="46.06989" lon="6.06946">
        <ele>790.4</ele>
        <time>2021-03-27T15:45:40Z</time>
      </trkpt>
      <trkpt lat="46.06991" lon="6.06942">
        <ele>790</ele>
        <time>2021-03-27T15:45:41Z</time>
      </trkpt>
      <trkpt lat="46.06994" lon="6.06937">
        <ele>789.6</ele>
        <time>2021-03-27T15:45:42Z</time>
      </trkpt>
      <trkpt lat="46.06996" lon="6.06933">
        <ele>789.2</ele>
        <time>2021-03-27T15:45:43Z</time>
      </trkpt>
      <trkpt lat="46.06998" lon="6.06929">
        <ele>788.8</ele>
        <time>2021-03-27T15:45:44Z</time>
      </trkpt>
      <trkpt lat="46.07" lon="6.06925">
        <ele>788.6</ele>
        <time>2021-03-27T15:45:45Z</time>
      </trkpt>
      <trkpt lat="46.07002" lon="6.06921">
        <ele>788.4</ele>
        <time>2021-03-27T15:45:46Z</time>
      </trkpt>
      <trkpt lat="46.07003" lon="6.06917">
        <ele>788.2</ele>
        <time>2021-03-27T15:45:47Z</time>
      </trkpt>
      <trkpt lat="46.07005" lon="6.06913">
        <ele>788.2</ele>
        <time>2021-03-27T15:45:48Z</time>
      </trkpt>
      <trkpt lat="46.07006" lon="6.06908">
        <ele>788</ele>
        <time>2021-03-27T15:45:49Z</time>
      </trkpt>
      <trkpt lat="46.07008" lon="6.06904">
        <ele>788</ele>
        <time>2021-03-27T15:45:50Z</time>
      </trkpt>
      <trkpt lat="46.0701" lon="6.06899">
        <ele>787.8</ele>
        <time>2021-03-27T15:45:51Z</time>
      </trkpt>
      <trkpt lat="46.07011" lon="6.06894">
        <ele>787.8</ele>
        <time>2021-03-27T15:45:52Z</time>
      </trkpt>
      <trkpt lat="46.07013" lon="6.0689">
        <ele>787.6</ele>
        <time>2021-03-27T15:45:53Z</time>
      </trkpt>
      <trkpt lat="46.07016" lon="6.06885">
        <ele>787.8</ele>
        <time>2021-03-27T15:45:54Z</time>
      </trkpt>
      <trkpt lat="46.07019" lon="6.06881">
        <ele>787.6</ele>
        <time>2021-03-27T15:45:55Z</time>
      </trkpt>
      <trkpt lat="46.07022" lon="6.06876">
        <ele>787.6</ele>
        <time>2021-03-27T15:45:56Z</time>
      </trkpt>
      <trkpt lat="46.07026" lon="6.06872">
        <ele>787.6</ele>
        <time>2021-03-27T15:45:57Z</time>
      </trkpt>
      <trkpt lat="46.0703" lon="6.06867">
        <ele>787.4</ele>
        <time>2021-03-27T15:45:58Z</time>
      </trkpt>
      <trkpt lat="46.07033" lon="6.06861">
        <ele>787.2</ele>
        <time>2021-03-27T15:45:59Z</time>
      </trkpt>
      <trkpt lat="46.07036" lon="6.06856">
        <ele>787</ele>
        <time>2021-03-27T15:46:00Z</time>
      </trkpt>
      <trkpt lat="46.0704" lon="6.0685">
        <ele>786.8</ele>
        <time>2021-03-27T15:46:01Z</time>
      </trkpt>
      <trkpt lat="46.07043" lon="6.06844">
        <ele>786.4</ele>
        <time>2021-03-27T15:46:02Z</time>
      </trkpt>
      <trkpt lat="46.07046" lon="6.06838">
        <ele>786.2</ele>
        <time>2021-03-27T15:46:03Z</time>
      </trkpt>
      <trkpt lat="46.07049" lon="6.06833">
        <ele>786.2</ele>
        <time>2021-03-27T15:46:04Z</time>
      </trkpt>
      <trkpt lat="46.07052" lon="6.06827">
        <ele>786</ele>
        <time>2021-03-27T15:46:05Z</time>
      </trkpt>
      <trkpt lat="46.07055" lon="6.06822">
        <ele>785.8</ele>
        <time>2021-03-27T15:46:06Z</time>
      </trkpt>
      <trkpt lat="46.07058" lon="6.06817">
        <ele>785.6</ele>
        <time>2021-03-27T15:46:07Z</time>
      </trkpt>
      <trkpt lat="46.07062" lon="6.06813">
        <ele>785</ele>
        <time>2021-03-27T15:46:08Z</time>
      </trkpt>
      <trkpt lat="46.07066" lon="6.0681">
        <ele>784.8</ele>
        <time>2021-03-27T15:46:09Z</time>
      </trkpt>
      <trkpt lat="46.07071" lon="6.06809">
        <ele>784.6</ele>
        <time>2021-03-27T15:46:10Z</time>
      </trkpt>
      <trkpt lat="46.07075" lon="6.0681">
        <ele>784.4</ele>
        <time>2021-03-27T15:46:11Z</time>
      </trkpt>
      <trkpt lat="46.07079" lon="6.06811">
        <ele>784.4</ele>
        <time>2021-03-27T15:46:12Z</time>
      </trkpt>
      <trkpt lat="46.07083" lon="6.06813">
        <ele>784.4</ele>
        <time>2021-03-27T15:46:13Z</time>
      </trkpt>
      <trkpt lat="46.07087" lon="6.06814">
        <ele>784.2</ele>
        <time>2021-03-27T15:46:14Z</time>
      </trkpt>
      <trkpt lat="46.0709" lon="6.06816">
        <ele>784.2</ele>
        <time>2021-03-27T15:46:15Z</time>
      </trkpt>
      <trkpt lat="46.07094" lon="6.06818">
        <ele>784.2</ele>
        <time>2021-03-27T15:46:16Z</time>
      </trkpt>
      <trkpt lat="46.07097" lon="6.06819">
        <ele>784.2</ele>
        <time>2021-03-27T15:46:17Z</time>
      </trkpt>
      <trkpt lat="46.07101" lon="6.06821">
        <ele>784.2</ele>
        <time>2021-03-27T15:46:18Z</time>
      </trkpt>
      <trkpt lat="46.07105" lon="6.06823">
        <ele>784.4</ele>
        <time>2021-03-27T15:46:19Z</time>
      </trkpt>
      <trkpt lat="46.07109" lon="6.06825">
        <ele>784.2</ele>
        <time>2021-03-27T15:46:20Z</time>
      </trkpt>
      <trkpt lat="46.07113" lon="6.06827">
        <ele>784.2</ele>
        <time>2021-03-27T15:46:21Z</time>
      </trkpt>
      <trkpt lat="46.07118" lon="6.06828">
        <ele>784.4</ele>
        <time>2021-03-27T15:46:22Z</time>
      </trkpt>
      <trkpt lat="46.07123" lon="6.0683">
        <ele>784.6</ele>
        <time>2021-03-27T15:46:23Z</time>
      </trkpt>
      <trkpt lat="46.07128" lon="6.06832">
        <ele>784.6</ele>
        <time>2021-03-27T15:46:24Z</time>
      </trkpt>
      <trkpt lat="46.07132" lon="6.06834">
        <ele>784.8</ele>
        <time>2021-03-27T15:46:25Z</time>
      </trkpt>
      <trkpt lat="46.07136" lon="6.06836">
        <ele>784.8</ele>
        <time>2021-03-27T15:46:26Z</time>
      </trkpt>
      <trkpt lat="46.07141" lon="6.06837">
        <ele>785</ele>
        <time>2021-03-27T15:46:27Z</time>
      </trkpt>
      <trkpt lat="46.07146" lon="6.06839">
        <ele>785</ele>
        <time>2021-03-27T15:46:28Z</time>
      </trkpt>
      <trkpt lat="46.0715" lon="6.0684">
        <ele>785.2</ele>
        <time>2021-03-27T15:46:29Z</time>
      </trkpt>
      <trkpt lat="46.07155" lon="6.06841">
        <ele>785.2</ele>
        <time>2021-03-27T15:46:30Z</time>
      </trkpt>
      <trkpt lat="46.0716" lon="6.06843">
        <ele>785.2</ele>
        <time>2021-03-27T15:46:31Z</time>
      </trkpt>
      <trkpt lat="46.07165" lon="6.06844">
        <ele>785.4</ele>
        <time>2021-03-27T15:46:32Z</time>
      </trkpt>
      <trkpt lat="46.07169" lon="6.06845">
        <ele>785.6</ele>
        <time>2021-03-27T15:46:33Z</time>
      </trkpt>
      <trkpt lat="46.07174" lon="6.06846">
        <ele>785.6</ele>
        <time>2021-03-27T15:46:34Z</time>
      </trkpt>
      <trkpt lat="46.07179" lon="6.06846">
        <ele>785.8</ele>
        <time>2021-03-27T15:46:35Z</time>
      </trkpt>
      <trkpt lat="46.07184" lon="6.06848">
        <ele>785.8</ele>
        <time>2021-03-27T15:46:36Z</time>
      </trkpt>
      <trkpt lat="46.07189" lon="6.06849">
        <ele>786</ele>
        <time>2021-03-27T15:46:37Z</time>
      </trkpt>
      <trkpt lat="46.07194" lon="6.0685">
        <ele>786.4</ele>
        <time>2021-03-27T15:46:38Z</time>
      </trkpt>
      <trkpt lat="46.07199" lon="6.06852">
        <ele>786.6</ele>
        <time>2021-03-27T15:46:39Z</time>
      </trkpt>
      <trkpt lat="46.07204" lon="6.06853">
        <ele>786.8</ele>
        <time>2021-03-27T15:46:40Z</time>
      </trkpt>
      <trkpt lat="46.07209" lon="6.06854">
        <ele>787</ele>
        <time>2021-03-27T15:46:41Z</time>
      </trkpt>
      <trkpt lat="46.07214" lon="6.06855">
        <ele>787.2</ele>
        <time>2021-03-27T15:46:42Z</time>
      </trkpt>
      <trkpt lat="46.07219" lon="6.06856">
        <ele>787.4</ele>
        <time>2021-03-27T15:46:43Z</time>
      </trkpt>
      <trkpt lat="46.07224" lon="6.06857">
        <ele>787.4</ele>
        <time>2021-03-27T15:46:44Z</time>
      </trkpt>
      <trkpt lat="46.07229" lon="6.06858">
        <ele>787.8</ele>
        <time>2021-03-27T15:46:45Z</time>
      </trkpt>
      <trkpt lat="46.07234" lon="6.06859">
        <ele>788</ele>
        <time>2021-03-27T15:46:46Z</time>
      </trkpt>
      <trkpt lat="46.07239" lon="6.06859">
        <ele>788</ele>
        <time>2021-03-27T15:46:47Z</time>
      </trkpt>
      <trkpt lat="46.07243" lon="6.0686">
        <ele>788.2</ele>
        <time>2021-03-27T15:46:48Z</time>
      </trkpt>
      <trkpt lat="46.07248" lon="6.0686">
        <ele>788.6</ele>
        <time>2021-03-27T15:46:49Z</time>
      </trkpt>
      <trkpt lat="46.07253" lon="6.0686">
        <ele>788.8</ele>
        <time>2021-03-27T15:46:50Z</time>
      </trkpt>
      <trkpt lat="46.07259" lon="6.06859">
        <ele>788.8</ele>
        <time>2021-03-27T15:46:51Z</time>
      </trkpt>
      <trkpt lat="46.07264" lon="6.06857">
        <ele>789</ele>
        <time>2021-03-27T15:46:52Z</time>
      </trkpt>
      <trkpt lat="46.07266" lon="6.06849">
        <ele>789</ele>
        <time>2021-03-27T15:46:53Z</time>
      </trkpt>
      <trkpt lat="46.07269" lon="6.06841">
        <ele>789.2</ele>
        <time>2021-03-27T15:46:54Z</time>
      </trkpt>
      <trkpt lat="46.07271" lon="6.06833">
        <ele>789.2</ele>
        <time>2021-03-27T15:46:55Z</time>
      </trkpt>
      <trkpt lat="46.07273" lon="6.06826">
        <ele>789.2</ele>
        <time>2021-03-27T15:46:56Z</time>
      </trkpt>
      <trkpt lat="46.07274" lon="6.06819">
        <ele>789.2</ele>
        <time>2021-03-27T15:46:57Z</time>
      </trkpt>
      <trkpt lat="46.07274" lon="6.06813">
        <ele>789.2</ele>
        <time>2021-03-27T15:46:58Z</time>
      </trkpt>
      <trkpt lat="46.07273" lon="6.06805">
        <ele>789.4</ele>
        <time>2021-03-27T15:46:59Z</time>
      </trkpt>
      <trkpt lat="46.07272" lon="6.06799">
        <ele>789.4</ele>
        <time>2021-03-27T15:47:00Z</time>
      </trkpt>
      <trkpt lat="46.0727" lon="6.06793">
        <ele>789.6</ele>
        <time>2021-03-27T15:47:01Z</time>
      </trkpt>
      <trkpt lat="46.07266" lon="6.06787">
        <ele>789.6</ele>
        <time>2021-03-27T15:47:02Z</time>
      </trkpt>
      <trkpt lat="46.07263" lon="6.06781">
        <ele>789.6</ele>
        <time>2021-03-27T15:47:03Z</time>
      </trkpt>
      <trkpt lat="46.07258" lon="6.06776">
        <ele>789.8</ele>
        <time>2021-03-27T15:47:04Z</time>
      </trkpt>
      <trkpt lat="46.07254" lon="6.06771">
        <ele>789.8</ele>
        <time>2021-03-27T15:47:05Z</time>
      </trkpt>
      <trkpt lat="46.0725" lon="6.06766">
        <ele>789.6</ele>
        <time>2021-03-27T15:47:06Z</time>
      </trkpt>
      <trkpt lat="46.07246" lon="6.0676">
        <ele>789.8</ele>
        <time>2021-03-27T15:47:07Z</time>
      </trkpt>
      <trkpt lat="46.07242" lon="6.06754">
        <ele>789.8</ele>
        <time>2021-03-27T15:47:08Z</time>
      </trkpt>
      <trkpt lat="46.07239" lon="6.06748">
        <ele>789.8</ele>
        <time>2021-03-27T15:47:09Z</time>
      </trkpt>
      <trkpt lat="46.07235" lon="6.06741">
        <ele>789.8</ele>
        <time>2021-03-27T15:47:10Z</time>
      </trkpt>
      <trkpt lat="46.07232" lon="6.06734">
        <ele>789.8</ele>
        <time>2021-03-27T15:47:11Z</time>
      </trkpt>
      <trkpt lat="46.07229" lon="6.06727">
        <ele>789.8</ele>
        <time>2021-03-27T15:47:12Z</time>
      </trkpt>
      <trkpt lat="46.07225" lon="6.0672">
        <ele>789.8</ele>
        <time>2021-03-27T15:47:13Z</time>
      </trkpt>
      <trkpt lat="46.07222" lon="6.06713">
        <ele>789.6</ele>
        <time>2021-03-27T15:47:14Z</time>
      </trkpt>
      <trkpt lat="46.0722" lon="6.06706">
        <ele>789.6</ele>
        <time>2021-03-27T15:47:15Z</time>
      </trkpt>
      <trkpt lat="46.07217" lon="6.06699">
        <ele>789.8</ele>
        <time>2021-03-27T15:47:16Z</time>
      </trkpt>
      <trkpt lat="46.07214" lon="6.06692">
        <ele>789.6</ele>
        <time>2021-03-27T15:47:17Z</time>
      </trkpt>
      <trkpt lat="46.07211" lon="6.06685">
        <ele>789.8</ele>
        <time>2021-03-27T15:47:18Z</time>
      </trkpt>
      <trkpt lat="46.07208" lon="6.06678">
        <ele>789.8</ele>
        <time>2021-03-27T15:47:19Z</time>
      </trkpt>
      <trkpt lat="46.07205" lon="6.06671">
        <ele>789.6</ele>
        <time>2021-03-27T15:47:20Z</time>
      </trkpt>
      <trkpt lat="46.07203" lon="6.06664">
        <ele>789.6</ele>
        <time>2021-03-27T15:47:21Z</time>
      </trkpt>
      <trkpt lat="46.072" lon="6.06657">
        <ele>789.8</ele>
        <time>2021-03-27T15:47:22Z</time>
      </trkpt>
      <trkpt lat="46.07197" lon="6.06649">
        <ele>789.8</ele>
        <time>2021-03-27T15:47:23Z</time>
      </trkpt>
      <trkpt lat="46.07194" lon="6.06642">
        <ele>789.8</ele>
        <time>2021-03-27T15:47:24Z</time>
      </trkpt>
      <trkpt lat="46.07191" lon="6.06635">
        <ele>789.8</ele>
        <time>2021-03-27T15:47:25Z</time>
      </trkpt>
      <trkpt lat="46.07188" lon="6.06627">
        <ele>790</ele>
        <time>2021-03-27T15:47:26Z</time>
      </trkpt>
      <trkpt lat="46.07186" lon="6.0662">
        <ele>790</ele>
        <time>2021-03-27T15:47:27Z</time>
      </trkpt>
      <trkpt lat="46.07184" lon="6.06612">
        <ele>790</ele>
        <time>2021-03-27T15:47:28Z</time>
      </trkpt>
      <trkpt lat="46.07183" lon="6.06605">
        <ele>790</ele>
        <time>2021-03-27T15:47:29Z</time>
      </trkpt>
      <trkpt lat="46.07181" lon="6.06597">
        <ele>789.8</ele>
        <time>2021-03-27T15:47:30Z</time>
      </trkpt>
      <trkpt lat="46.0718" lon="6.06588">
        <ele>790</ele>
        <time>2021-03-27T15:47:31Z</time>
      </trkpt>
      <trkpt lat="46.07179" lon="6.06579">
        <ele>790.2</ele>
        <time>2021-03-27T15:47:32Z</time>
      </trkpt>
      <trkpt lat="46.0718" lon="6.06571">
        <ele>790.2</ele>
        <time>2021-03-27T15:47:33Z</time>
      </trkpt>
      <trkpt lat="46.0718" lon="6.06563">
        <ele>790</ele>
        <time>2021-03-27T15:47:34Z</time>
      </trkpt>
      <trkpt lat="46.07182" lon="6.06555">
        <ele>790</ele>
        <time>2021-03-27T15:47:35Z</time>
      </trkpt>
      <trkpt lat="46.07183" lon="6.06547">
        <ele>790.2</ele>
        <time>2021-03-27T15:47:36Z</time>
      </trkpt>
      <trkpt lat="46.07185" lon="6.0654">
        <ele>790.2</ele>
        <time>2021-03-27T15:47:37Z</time>
      </trkpt>
      <trkpt lat="46.07187" lon="6.06532">
        <ele>790.2</ele>
        <time>2021-03-27T15:47:38Z</time>
      </trkpt>
      <trkpt lat="46.07189" lon="6.06525">
        <ele>790.4</ele>
        <time>2021-03-27T15:47:39Z</time>
      </trkpt>
      <trkpt lat="46.07191" lon="6.06518">
        <ele>790.6</ele>
        <time>2021-03-27T15:47:40Z</time>
      </trkpt>
      <trkpt lat="46.07194" lon="6.06511">
        <ele>790.8</ele>
        <time>2021-03-27T15:47:41Z</time>
      </trkpt>
      <trkpt lat="46.07196" lon="6.06504">
        <ele>790.8</ele>
        <time>2021-03-27T15:47:42Z</time>
      </trkpt>
      <trkpt lat="46.07199" lon="6.06497">
        <ele>790.8</ele>
        <time>2021-03-27T15:47:43Z</time>
      </trkpt>
      <trkpt lat="46.07201" lon="6.06489">
        <ele>791.2</ele>
        <time>2021-03-27T15:47:44Z</time>
      </trkpt>
      <trkpt lat="46.07204" lon="6.06482">
        <ele>791.2</ele>
        <time>2021-03-27T15:47:45Z</time>
      </trkpt>
      <trkpt lat="46.07206" lon="6.06474">
        <ele>791.8</ele>
        <time>2021-03-27T15:47:46Z</time>
      </trkpt>
      <trkpt lat="46.07209" lon="6.06467">
        <ele>792</ele>
        <time>2021-03-27T15:47:47Z</time>
      </trkpt>
      <trkpt lat="46.07211" lon="6.0646">
        <ele>792.2</ele>
        <time>2021-03-27T15:47:48Z</time>
      </trkpt>
      <trkpt lat="46.07214" lon="6.06453">
        <ele>792.6</ele>
        <time>2021-03-27T15:47:49Z</time>
      </trkpt>
      <trkpt lat="46.07217" lon="6.06446">
        <ele>792.6</ele>
        <time>2021-03-27T15:47:50Z</time>
      </trkpt>
      <trkpt lat="46.07219" lon="6.06439">
        <ele>793</ele>
        <time>2021-03-27T15:47:51Z</time>
      </trkpt>
      <trkpt lat="46.07222" lon="6.06431">
        <ele>793</ele>
        <time>2021-03-27T15:47:52Z</time>
      </trkpt>
      <trkpt lat="46.07224" lon="6.06424">
        <ele>793.2</ele>
        <time>2021-03-27T15:47:53Z</time>
      </trkpt>
      <trkpt lat="46.07226" lon="6.06417">
        <ele>793.4</ele>
        <time>2021-03-27T15:47:54Z</time>
      </trkpt>
      <trkpt lat="46.07228" lon="6.0641">
        <ele>793.4</ele>
        <time>2021-03-27T15:47:55Z</time>
      </trkpt>
      <trkpt lat="46.0723" lon="6.06402">
        <ele>793.6</ele>
        <time>2021-03-27T15:47:56Z</time>
      </trkpt>
      <trkpt lat="46.07232" lon="6.06395">
        <ele>793.8</ele>
        <time>2021-03-27T15:47:57Z</time>
      </trkpt>
      <trkpt lat="46.07234" lon="6.06387">
        <ele>794</ele>
        <time>2021-03-27T15:47:58Z</time>
      </trkpt>
      <trkpt lat="46.07235" lon="6.0638">
        <ele>794</ele>
        <time>2021-03-27T15:47:59Z</time>
      </trkpt>
      <trkpt lat="46.07236" lon="6.06372">
        <ele>794.2</ele>
        <time>2021-03-27T15:48:00Z</time>
      </trkpt>
      <trkpt lat="46.07238" lon="6.06365">
        <ele>794</ele>
        <time>2021-03-27T15:48:01Z</time>
      </trkpt>
      <trkpt lat="46.07239" lon="6.06357">
        <ele>794</ele>
        <time>2021-03-27T15:48:02Z</time>
      </trkpt>
      <trkpt lat="46.07241" lon="6.0635">
        <ele>794.4</ele>
        <time>2021-03-27T15:48:03Z</time>
      </trkpt>
      <trkpt lat="46.07242" lon="6.06343">
        <ele>794.2</ele>
        <time>2021-03-27T15:48:04Z</time>
      </trkpt>
      <trkpt lat="46.07243" lon="6.06335">
        <ele>794.2</ele>
        <time>2021-03-27T15:48:05Z</time>
      </trkpt>
      <trkpt lat="46.07243" lon="6.06328">
        <ele>794.4</ele>
        <time>2021-03-27T15:48:06Z</time>
      </trkpt>
      <trkpt lat="46.07244" lon="6.0632">
        <ele>794.6</ele>
        <time>2021-03-27T15:48:07Z</time>
      </trkpt>
      <trkpt lat="46.07245" lon="6.06312">
        <ele>794.8</ele>
        <time>2021-03-27T15:48:08Z</time>
      </trkpt>
      <trkpt lat="46.07245" lon="6.06305">
        <ele>794.8</ele>
        <time>2021-03-27T15:48:09Z</time>
      </trkpt>
      <trkpt lat="46.07245" lon="6.06297">
        <ele>794.8</ele>
        <time>2021-03-27T15:48:10Z</time>
      </trkpt>
      <trkpt lat="46.07246" lon="6.0629">
        <ele>795.2</ele>
        <time>2021-03-27T15:48:11Z</time>
      </trkpt>
      <trkpt lat="46.07246" lon="6.06282">
        <ele>795.4</ele>
        <time>2021-03-27T15:48:12Z</time>
      </trkpt>
      <trkpt lat="46.07246" lon="6.06275">
        <ele>795.8</ele>
        <time>2021-03-27T15:48:13Z</time>
      </trkpt>
      <trkpt lat="46.07246" lon="6.06267">
        <ele>796</ele>
        <time>2021-03-27T15:48:14Z</time>
      </trkpt>
      <trkpt lat="46.07245" lon="6.06259">
        <ele>796.2</ele>
        <time>2021-03-27T15:48:15Z</time>
      </trkpt>
      <trkpt lat="46.07245" lon="6.06251">
        <ele>796.4</ele>
        <time>2021-03-27T15:48:16Z</time>
      </trkpt>
      <trkpt lat="46.07244" lon="6.06243">
        <ele>796.6</ele>
        <time>2021-03-27T15:48:17Z</time>
      </trkpt>
      <trkpt lat="46.07243" lon="6.06235">
        <ele>796.6</ele>
        <time>2021-03-27T15:48:18Z</time>
      </trkpt>
      <trkpt lat="46.07242" lon="6.06228">
        <ele>797</ele>
        <time>2021-03-27T15:48:19Z</time>
      </trkpt>
      <trkpt lat="46.07241" lon="6.0622">
        <ele>797.2</ele>
        <time>2021-03-27T15:48:20Z</time>
      </trkpt>
      <trkpt lat="46.0724" lon="6.06212">
        <ele>797.2</ele>
        <time>2021-03-27T15:48:21Z</time>
      </trkpt>
      <trkpt lat="46.07238" lon="6.06204">
        <ele>797.4</ele>
        <time>2021-03-27T15:48:22Z</time>
      </trkpt>
      <trkpt lat="46.07237" lon="6.06197">
        <ele>797.6</ele>
        <time>2021-03-27T15:48:23Z</time>
      </trkpt>
      <trkpt lat="46.07236" lon="6.06189">
        <ele>797.6</ele>
        <time>2021-03-27T15:48:24Z</time>
      </trkpt>
      <trkpt lat="46.07236" lon="6.06182">
        <ele>797.8</ele>
        <time>2021-03-27T15:48:25Z</time>
      </trkpt>
      <trkpt lat="46.07236" lon="6.06175">
        <ele>798</ele>
        <time>2021-03-27T15:48:26Z</time>
      </trkpt>
      <trkpt lat="46.07235" lon="6.06168">
        <ele>798.2</ele>
        <time>2021-03-27T15:48:27Z</time>
      </trkpt>
      <trkpt lat="46.07236" lon="6.06161">
        <ele>798.2</ele>
        <time>2021-03-27T15:48:28Z</time>
      </trkpt>
      <trkpt lat="46.07236" lon="6.06154">
        <ele>798.2</ele>
        <time>2021-03-27T15:48:29Z</time>
      </trkpt>
      <trkpt lat="46.07236" lon="6.06148">
        <ele>798.6</ele>
        <time>2021-03-27T15:48:30Z</time>
      </trkpt>
      <trkpt lat="46.07237" lon="6.06142">
        <ele>798.6</ele>
        <time>2021-03-27T15:48:31Z</time>
      </trkpt>
      <trkpt lat="46.07237" lon="6.06136">
        <ele>798.8</ele>
        <time>2021-03-27T15:48:32Z</time>
      </trkpt>
      <trkpt lat="46.07239" lon="6.0613">
        <ele>798.8</ele>
        <time>2021-03-27T15:48:33Z</time>
      </trkpt>
      <trkpt lat="46.0724" lon="6.06124">
        <ele>799</ele>
        <time>2021-03-27T15:48:34Z</time>
      </trkpt>
      <trkpt lat="46.07241" lon="6.06118">
        <ele>799.4</ele>
        <time>2021-03-27T15:48:35Z</time>
      </trkpt>
      <trkpt lat="46.07243" lon="6.06112">
        <ele>799.4</ele>
        <time>2021-03-27T15:48:36Z</time>
      </trkpt>
      <trkpt lat="46.07245" lon="6.06107">
        <ele>799.6</ele>
        <time>2021-03-27T15:48:37Z</time>
      </trkpt>
      <trkpt lat="46.07247" lon="6.06102">
        <ele>800</ele>
        <time>2021-03-27T15:48:38Z</time>
      </trkpt>
      <trkpt lat="46.07249" lon="6.06097">
        <ele>800</ele>
        <time>2021-03-27T15:48:39Z</time>
      </trkpt>
      <trkpt lat="46.07252" lon="6.06092">
        <ele>800.2</ele>
        <time>2021-03-27T15:48:40Z</time>
      </trkpt>
      <trkpt lat="46.07255" lon="6.06087">
        <ele>800.4</ele>
        <time>2021-03-27T15:48:41Z</time>
      </trkpt>
      <trkpt lat="46.07259" lon="6.06083">
        <ele>800.8</ele>
        <time>2021-03-27T15:48:42Z</time>
      </trkpt>
      <trkpt lat="46.07262" lon="6.06078">
        <ele>801</ele>
        <time>2021-03-27T15:48:43Z</time>
      </trkpt>
      <trkpt lat="46.07266" lon="6.06074">
        <ele>801</ele>
        <time>2021-03-27T15:48:44Z</time>
      </trkpt>
      <trkpt lat="46.0727" lon="6.06071">
        <ele>801.4</ele>
        <time>2021-03-27T15:48:45Z</time>
      </trkpt>
      <trkpt lat="46.07274" lon="6.06067">
        <ele>801.6</ele>
        <time>2021-03-27T15:48:46Z</time>
      </trkpt>
      <trkpt lat="46.07278" lon="6.06065">
        <ele>801.8</ele>
        <time>2021-03-27T15:48:47Z</time>
      </trkpt>
      <trkpt lat="46.07282" lon="6.06063">
        <ele>801.8</ele>
        <time>2021-03-27T15:48:48Z</time>
      </trkpt>
      <trkpt lat="46.07287" lon="6.06061">
        <ele>802.2</ele>
        <time>2021-03-27T15:48:49Z</time>
      </trkpt>
      <trkpt lat="46.07291" lon="6.06059">
        <ele>802.4</ele>
        <time>2021-03-27T15:48:50Z</time>
      </trkpt>
      <trkpt lat="46.07294" lon="6.06057">
        <ele>802.6</ele>
        <time>2021-03-27T15:48:51Z</time>
      </trkpt>
      <trkpt lat="46.07298" lon="6.06055">
        <ele>803</ele>
        <time>2021-03-27T15:48:52Z</time>
      </trkpt>
      <trkpt lat="46.07301" lon="6.06054">
        <ele>803</ele>
        <time>2021-03-27T15:48:53Z</time>
      </trkpt>
      <trkpt lat="46.07305" lon="6.06053">
        <ele>803.2</ele>
        <time>2021-03-27T15:48:54Z</time>
      </trkpt>
      <trkpt lat="46.07308" lon="6.06051">
        <ele>803.6</ele>
        <time>2021-03-27T15:48:55Z</time>
      </trkpt>
      <trkpt lat="46.07312" lon="6.0605">
        <ele>804</ele>
        <time>2021-03-27T15:48:56Z</time>
      </trkpt>
      <trkpt lat="46.07315" lon="6.06049">
        <ele>804</ele>
        <time>2021-03-27T15:48:57Z</time>
      </trkpt>
      <trkpt lat="46.07319" lon="6.06049">
        <ele>804.2</ele>
        <time>2021-03-27T15:48:58Z</time>
      </trkpt>
      <trkpt lat="46.07323" lon="6.06048">
        <ele>804.6</ele>
        <time>2021-03-27T15:48:59Z</time>
      </trkpt>
      <trkpt lat="46.07327" lon="6.06048">
        <ele>804.8</ele>
        <time>2021-03-27T15:49:00Z</time>
      </trkpt>
      <trkpt lat="46.07331" lon="6.06048">
        <ele>805.2</ele>
        <time>2021-03-27T15:49:01Z</time>
      </trkpt>
      <trkpt lat="46.07335" lon="6.06047">
        <ele>805.2</ele>
        <time>2021-03-27T15:49:02Z</time>
      </trkpt>
      <trkpt lat="46.07339" lon="6.06046">
        <ele>805.4</ele>
        <time>2021-03-27T15:49:03Z</time>
      </trkpt>
      <trkpt lat="46.07343" lon="6.06045">
        <ele>805.8</ele>
        <time>2021-03-27T15:49:04Z</time>
      </trkpt>
      <trkpt lat="46.07347" lon="6.06044">
        <ele>806</ele>
        <time>2021-03-27T15:49:05Z</time>
      </trkpt>
      <trkpt lat="46.07351" lon="6.06043">
        <ele>806.2</ele>
        <time>2021-03-27T15:49:06Z</time>
      </trkpt>
      <trkpt lat="46.07355" lon="6.06043">
        <ele>806.4</ele>
        <time>2021-03-27T15:49:07Z</time>
      </trkpt>
      <trkpt lat="46.07358" lon="6.06042">
        <ele>806.8</ele>
        <time>2021-03-27T15:49:08Z</time>
      </trkpt>
      <trkpt lat="46.07362" lon="6.0604">
        <ele>806.8</ele>
        <time>2021-03-27T15:49:09Z</time>
      </trkpt>
      <trkpt lat="46.07366" lon="6.0604">
        <ele>807</ele>
        <time>2021-03-27T15:49:10Z</time>
      </trkpt>
      <trkpt lat="46.07371" lon="6.06039">
        <ele>807.4</ele>
        <time>2021-03-27T15:49:11Z</time>
      </trkpt>
      <trkpt lat="46.07375" lon="6.06039">
        <ele>807.6</ele>
        <time>2021-03-27T15:49:12Z</time>
      </trkpt>
      <trkpt lat="46.0738" lon="6.06038">
        <ele>807.6</ele>
        <time>2021-03-27T15:49:13Z</time>
      </trkpt>
      <trkpt lat="46.07384" lon="6.06037">
        <ele>807.8</ele>
        <time>2021-03-27T15:49:14Z</time>
      </trkpt>
      <trkpt lat="46.07389" lon="6.06036">
        <ele>808</ele>
        <time>2021-03-27T15:49:15Z</time>
      </trkpt>
      <trkpt lat="46.07393" lon="6.06034">
        <ele>808.6</ele>
        <time>2021-03-27T15:49:16Z</time>
      </trkpt>
      <trkpt lat="46.07398" lon="6.06033">
        <ele>808.8</ele>
        <time>2021-03-27T15:49:17Z</time>
      </trkpt>
      <trkpt lat="46.07403" lon="6.06032">
        <ele>808.8</ele>
        <time>2021-03-27T15:49:18Z</time>
      </trkpt>
      <trkpt lat="46.07408" lon="6.0603">
        <ele>809.2</ele>
        <time>2021-03-27T15:49:19Z</time>
      </trkpt>
      <trkpt lat="46.07412" lon="6.06028">
        <ele>809.6</ele>
        <time>2021-03-27T15:49:20Z</time>
      </trkpt>
      <trkpt lat="46.07417" lon="6.06025">
        <ele>809.8</ele>
        <time>2021-03-27T15:49:21Z</time>
      </trkpt>
      <trkpt lat="46.07423" lon="6.06023">
        <ele>810</ele>
        <time>2021-03-27T15:49:22Z</time>
      </trkpt>
      <trkpt lat="46.07428" lon="6.0602">
        <ele>810</ele>
        <time>2021-03-27T15:49:23Z</time>
      </trkpt>
      <trkpt lat="46.07433" lon="6.06017">
        <ele>810.2</ele>
        <time>2021-03-27T15:49:24Z</time>
      </trkpt>
      <trkpt lat="46.07438" lon="6.06013">
        <ele>810.6</ele>
        <time>2021-03-27T15:49:25Z</time>
      </trkpt>
      <trkpt lat="46.07443" lon="6.06009">
        <ele>810.6</ele>
        <time>2021-03-27T15:49:26Z</time>
      </trkpt>
      <trkpt lat="46.07448" lon="6.06004">
        <ele>810.8</ele>
        <time>2021-03-27T15:49:27Z</time>
      </trkpt>
      <trkpt lat="46.07452" lon="6.05999">
        <ele>810.8</ele>
        <time>2021-03-27T15:49:28Z</time>
      </trkpt>
      <trkpt lat="46.07457" lon="6.05994">
        <ele>810.8</ele>
        <time>2021-03-27T15:49:29Z</time>
      </trkpt>
      <trkpt lat="46.07462" lon="6.05988">
        <ele>811</ele>
        <time>2021-03-27T15:49:30Z</time>
      </trkpt>
      <trkpt lat="46.07466" lon="6.05982">
        <ele>811.2</ele>
        <time>2021-03-27T15:49:31Z</time>
      </trkpt>
      <trkpt lat="46.0747" lon="6.05975">
        <ele>811.4</ele>
        <time>2021-03-27T15:49:32Z</time>
      </trkpt>
      <trkpt lat="46.07474" lon="6.05968">
        <ele>811.4</ele>
        <time>2021-03-27T15:49:33Z</time>
      </trkpt>
      <trkpt lat="46.07477" lon="6.0596">
        <ele>811.4</ele>
        <time>2021-03-27T15:49:34Z</time>
      </trkpt>
      <trkpt lat="46.07479" lon="6.05951">
        <ele>811.4</ele>
        <time>2021-03-27T15:49:35Z</time>
      </trkpt>
      <trkpt lat="46.07481" lon="6.05942">
        <ele>811.4</ele>
        <time>2021-03-27T15:49:36Z</time>
      </trkpt>
      <trkpt lat="46.07483" lon="6.05933">
        <ele>811.4</ele>
        <time>2021-03-27T15:49:37Z</time>
      </trkpt>
      <trkpt lat="46.07483" lon="6.05924">
        <ele>811.6</ele>
        <time>2021-03-27T15:49:38Z</time>
      </trkpt>
      <trkpt lat="46.07482" lon="6.05914">
        <ele>811.4</ele>
        <time>2021-03-27T15:49:39Z</time>
      </trkpt>
      <trkpt lat="46.07482" lon="6.05904">
        <ele>811.4</ele>
        <time>2021-03-27T15:49:40Z</time>
      </trkpt>
      <trkpt lat="46.07481" lon="6.05895">
        <ele>811.4</ele>
        <time>2021-03-27T15:49:41Z</time>
      </trkpt>
      <trkpt lat="46.07481" lon="6.05885">
        <ele>811.4</ele>
        <time>2021-03-27T15:49:42Z</time>
      </trkpt>
      <trkpt lat="46.0748" lon="6.05876">
        <ele>811.4</ele>
        <time>2021-03-27T15:49:43Z</time>
      </trkpt>
      <trkpt lat="46.0748" lon="6.05866">
        <ele>811.4</ele>
        <time>2021-03-27T15:49:44Z</time>
      </trkpt>
      <trkpt lat="46.0748" lon="6.05856">
        <ele>811.4</ele>
        <time>2021-03-27T15:49:45Z</time>
      </trkpt>
      <trkpt lat="46.07481" lon="6.05845">
        <ele>811.2</ele>
        <time>2021-03-27T15:49:46Z</time>
      </trkpt>
      <trkpt lat="46.07482" lon="6.05835">
        <ele>811.2</ele>
        <time>2021-03-27T15:49:47Z</time>
      </trkpt>
      <trkpt lat="46.07484" lon="6.05825">
        <ele>811.2</ele>
        <time>2021-03-27T15:49:48Z</time>
      </trkpt>
      <trkpt lat="46.07485" lon="6.05815">
        <ele>811.2</ele>
        <time>2021-03-27T15:49:49Z</time>
      </trkpt>
      <trkpt lat="46.07486" lon="6.05805">
        <ele>811.2</ele>
        <time>2021-03-27T15:49:50Z</time>
      </trkpt>
      <trkpt lat="46.07487" lon="6.05794">
        <ele>811.2</ele>
        <time>2021-03-27T15:49:51Z</time>
      </trkpt>
      <trkpt lat="46.07489" lon="6.05784">
        <ele>811</ele>
        <time>2021-03-27T15:49:52Z</time>
      </trkpt>
      <trkpt lat="46.0749" lon="6.05774">
        <ele>811.2</ele>
        <time>2021-03-27T15:49:53Z</time>
      </trkpt>
      <trkpt lat="46.07492" lon="6.05763">
        <ele>811</ele>
        <time>2021-03-27T15:49:54Z</time>
      </trkpt>
      <trkpt lat="46.07493" lon="6.05752">
        <ele>811</ele>
        <time>2021-03-27T15:49:55Z</time>
      </trkpt>
      <trkpt lat="46.07494" lon="6.05742">
        <ele>811</ele>
        <time>2021-03-27T15:49:56Z</time>
      </trkpt>
      <trkpt lat="46.07496" lon="6.05731">
        <ele>810.8</ele>
        <time>2021-03-27T15:49:57Z</time>
      </trkpt>
      <trkpt lat="46.07497" lon="6.0572">
        <ele>810.8</ele>
        <time>2021-03-27T15:49:58Z</time>
      </trkpt>
      <trkpt lat="46.07499" lon="6.05709">
        <ele>810.6</ele>
        <time>2021-03-27T15:49:59Z</time>
      </trkpt>
      <trkpt lat="46.075" lon="6.05699">
        <ele>810.6</ele>
        <time>2021-03-27T15:50:00Z</time>
      </trkpt>
      <trkpt lat="46.07502" lon="6.05688">
        <ele>810.8</ele>
        <time>2021-03-27T15:50:01Z</time>
      </trkpt>
      <trkpt lat="46.07503" lon="6.05678">
        <ele>810.8</ele>
        <time>2021-03-27T15:50:02Z</time>
      </trkpt>
      <trkpt lat="46.07505" lon="6.05668">
        <ele>810.6</ele>
        <time>2021-03-27T15:50:03Z</time>
      </trkpt>
      <trkpt lat="46.07506" lon="6.05658">
        <ele>810.8</ele>
        <time>2021-03-27T15:50:04Z</time>
      </trkpt>
      <trkpt lat="46.07508" lon="6.05649">
        <ele>810.6</ele>
        <time>2021-03-27T15:50:05Z</time>
      </trkpt>
      <trkpt lat="46.0751" lon="6.05641">
        <ele>810.8</ele>
        <time>2021-03-27T15:50:06Z</time>
      </trkpt>
      <trkpt lat="46.07512" lon="6.05632">
        <ele>810.8</ele>
        <time>2021-03-27T15:50:07Z</time>
      </trkpt>
      <trkpt lat="46.07514" lon="6.05624">
        <ele>810.6</ele>
        <time>2021-03-27T15:50:08Z</time>
      </trkpt>
      <trkpt lat="46.07517" lon="6.05616">
        <ele>810.6</ele>
        <time>2021-03-27T15:50:09Z</time>
      </trkpt>
      <trkpt lat="46.07519" lon="6.05609">
        <ele>810.6</ele>
        <time>2021-03-27T15:50:10Z</time>
      </trkpt>
      <trkpt lat="46.07521" lon="6.05601">
        <ele>810.8</ele>
        <time>2021-03-27T15:50:11Z</time>
      </trkpt>
      <trkpt lat="46.07523" lon="6.05593">
        <ele>810.8</ele>
        <time>2021-03-27T15:50:12Z</time>
      </trkpt>
      <trkpt lat="46.07525" lon="6.05585">
        <ele>811</ele>
        <time>2021-03-27T15:50:13Z</time>
      </trkpt>
      <trkpt lat="46.07527" lon="6.05576">
        <ele>811.4</ele>
        <time>2021-03-27T15:50:14Z</time>
      </trkpt>
      <trkpt lat="46.0753" lon="6.05568">
        <ele>811.4</ele>
        <time>2021-03-27T15:50:15Z</time>
      </trkpt>
      <trkpt lat="46.07533" lon="6.0556">
        <ele>811.6</ele>
        <time>2021-03-27T15:50:16Z</time>
      </trkpt>
      <trkpt lat="46.07536" lon="6.05552">
        <ele>811.6</ele>
        <time>2021-03-27T15:50:17Z</time>
      </trkpt>
      <trkpt lat="46.07539" lon="6.05543">
        <ele>811.8</ele>
        <time>2021-03-27T15:50:18Z</time>
      </trkpt>
      <trkpt lat="46.07542" lon="6.05535">
        <ele>811.6</ele>
        <time>2021-03-27T15:50:19Z</time>
      </trkpt>
      <trkpt lat="46.07546" lon="6.05526">
        <ele>811.6</ele>
        <time>2021-03-27T15:50:20Z</time>
      </trkpt>
      <trkpt lat="46.07549" lon="6.05518">
        <ele>811.6</ele>
        <time>2021-03-27T15:50:21Z</time>
      </trkpt>
      <trkpt lat="46.07553" lon="6.0551">
        <ele>811.6</ele>
        <time>2021-03-27T15:50:22Z</time>
      </trkpt>
      <trkpt lat="46.07556" lon="6.05501">
        <ele>811.6</ele>
        <time>2021-03-27T15:50:23Z</time>
      </trkpt>
      <trkpt lat="46.0756" lon="6.05492">
        <ele>811.6</ele>
        <time>2021-03-27T15:50:24Z</time>
      </trkpt>
      <trkpt lat="46.07563" lon="6.05484">
        <ele>811.6</ele>
        <time>2021-03-27T15:50:25Z</time>
      </trkpt>
      <trkpt lat="46.07566" lon="6.05475">
        <ele>811.6</ele>
        <time>2021-03-27T15:50:26Z</time>
      </trkpt>
      <trkpt lat="46.0757" lon="6.05467">
        <ele>811.8</ele>
        <time>2021-03-27T15:50:27Z</time>
      </trkpt>
      <trkpt lat="46.07573" lon="6.05458">
        <ele>811.6</ele>
        <time>2021-03-27T15:50:28Z</time>
      </trkpt>
      <trkpt lat="46.07577" lon="6.0545">
        <ele>811.6</ele>
        <time>2021-03-27T15:50:29Z</time>
      </trkpt>
      <trkpt lat="46.0758" lon="6.05442">
        <ele>811.6</ele>
        <time>2021-03-27T15:50:30Z</time>
      </trkpt>
      <trkpt lat="46.07584" lon="6.05434">
        <ele>811.6</ele>
        <time>2021-03-27T15:50:31Z</time>
      </trkpt>
      <trkpt lat="46.07587" lon="6.05427">
        <ele>811.6</ele>
        <time>2021-03-27T15:50:32Z</time>
      </trkpt>
      <trkpt lat="46.07592" lon="6.0542">
        <ele>811.6</ele>
        <time>2021-03-27T15:50:33Z</time>
      </trkpt>
      <trkpt lat="46.07597" lon="6.05413">
        <ele>811.6</ele>
        <time>2021-03-27T15:50:34Z</time>
      </trkpt>
      <trkpt lat="46.07602" lon="6.05407">
        <ele>811.6</ele>
        <time>2021-03-27T15:50:35Z</time>
      </trkpt>
      <trkpt lat="46.07607" lon="6.05401">
        <ele>811.6</ele>
        <time>2021-03-27T15:50:36Z</time>
      </trkpt>
      <trkpt lat="46.07613" lon="6.05396">
        <ele>811.4</ele>
        <time>2021-03-27T15:50:37Z</time>
      </trkpt>
      <trkpt lat="46.07619" lon="6.05392">
        <ele>811.6</ele>
        <time>2021-03-27T15:50:38Z</time>
      </trkpt>
      <trkpt lat="46.07626" lon="6.0539">
        <ele>811.6</ele>
        <time>2021-03-27T15:50:39Z</time>
      </trkpt>
      <trkpt lat="46.07632" lon="6.05387">
        <ele>811.4</ele>
        <time>2021-03-27T15:50:40Z</time>
      </trkpt>
      <trkpt lat="46.07639" lon="6.05385">
        <ele>811.6</ele>
        <time>2021-03-27T15:50:41Z</time>
      </trkpt>
      <trkpt lat="46.07647" lon="6.05383">
        <ele>811.4</ele>
        <time>2021-03-27T15:50:42Z</time>
      </trkpt>
      <trkpt lat="46.07655" lon="6.05381">
        <ele>811.4</ele>
        <time>2021-03-27T15:50:43Z</time>
      </trkpt>
      <trkpt lat="46.07662" lon="6.0538">
        <ele>811.4</ele>
        <time>2021-03-27T15:50:44Z</time>
      </trkpt>
      <trkpt lat="46.0767" lon="6.05379">
        <ele>811.4</ele>
        <time>2021-03-27T15:50:45Z</time>
      </trkpt>
      <trkpt lat="46.07678" lon="6.05378">
        <ele>811.6</ele>
        <time>2021-03-27T15:50:46Z</time>
      </trkpt>
      <trkpt lat="46.07693" lon="6.05375">
        <ele>811.4</ele>
        <time>2021-03-27T15:50:48Z</time>
      </trkpt>
      <trkpt lat="46.07701" lon="6.05374">
        <ele>811.6</ele>
        <time>2021-03-27T15:50:49Z</time>
      </trkpt>
      <trkpt lat="46.0771" lon="6.05374">
        <ele>811.4</ele>
        <time>2021-03-27T15:50:50Z</time>
      </trkpt>
      <trkpt lat="46.07718" lon="6.05374">
        <ele>811.6</ele>
        <time>2021-03-27T15:50:51Z</time>
      </trkpt>
      <trkpt lat="46.07726" lon="6.05375">
        <ele>811.4</ele>
        <time>2021-03-27T15:50:52Z</time>
      </trkpt>
      <trkpt lat="46.07734" lon="6.05376">
        <ele>811.6</ele>
        <time>2021-03-27T15:50:53Z</time>
      </trkpt>
      <trkpt lat="46.07742" lon="6.05378">
        <ele>811.4</ele>
        <time>2021-03-27T15:50:54Z</time>
      </trkpt>
      <trkpt lat="46.0775" lon="6.05379">
        <ele>811.4</ele>
        <time>2021-03-27T15:50:55Z</time>
      </trkpt>
      <trkpt lat="46.07758" lon="6.05381">
        <ele>811.6</ele>
        <time>2021-03-27T15:50:56Z</time>
      </trkpt>
      <trkpt lat="46.07766" lon="6.05382">
        <ele>811.4</ele>
        <time>2021-03-27T15:50:57Z</time>
      </trkpt>
      <trkpt lat="46.07774" lon="6.05382">
        <ele>811.6</ele>
        <time>2021-03-27T15:50:58Z</time>
      </trkpt>
      <trkpt lat="46.07782" lon="6.05383">
        <ele>811.6</ele>
        <time>2021-03-27T15:50:59Z</time>
      </trkpt>
      <trkpt lat="46.0779" lon="6.05383">
        <ele>811.6</ele>
        <time>2021-03-27T15:51:00Z</time>
      </trkpt>
      <trkpt lat="46.07798" lon="6.05383">
        <ele>811.6</ele>
        <time>2021-03-27T15:51:01Z</time>
      </trkpt>
      <trkpt lat="46.07806" lon="6.05383">
        <ele>811.4</ele>
        <time>2021-03-27T15:51:02Z</time>
      </trkpt>
      <trkpt lat="46.07814" lon="6.05383">
        <ele>811.4</ele>
        <time>2021-03-27T15:51:03Z</time>
      </trkpt>
      <trkpt lat="46.07821" lon="6.05384">
        <ele>811.4</ele>
        <time>2021-03-27T15:51:04Z</time>
      </trkpt>
      <trkpt lat="46.07829" lon="6.05385">
        <ele>811.6</ele>
        <time>2021-03-27T15:51:05Z</time>
      </trkpt>
      <trkpt lat="46.07836" lon="6.05386">
        <ele>811.4</ele>
        <time>2021-03-27T15:51:06Z</time>
      </trkpt>
      <trkpt lat="46.07843" lon="6.05388">
        <ele>811.4</ele>
        <time>2021-03-27T15:51:07Z</time>
      </trkpt>
      <trkpt lat="46.07851" lon="6.05391">
        <ele>811.4</ele>
        <time>2021-03-27T15:51:08Z</time>
      </trkpt>
      <trkpt lat="46.07859" lon="6.05393">
        <ele>811.4</ele>
        <time>2021-03-27T15:51:09Z</time>
      </trkpt>
      <trkpt lat="46.07866" lon="6.05396">
        <ele>811.4</ele>
        <time>2021-03-27T15:51:10Z</time>
      </trkpt>
      <trkpt lat="46.07874" lon="6.054">
        <ele>811.4</ele>
        <time>2021-03-27T15:51:11Z</time>
      </trkpt>
      <trkpt lat="46.07882" lon="6.05404">
        <ele>811.4</ele>
        <time>2021-03-27T15:51:12Z</time>
      </trkpt>
      <trkpt lat="46.0789" lon="6.05408">
        <ele>811.2</ele>
        <time>2021-03-27T15:51:13Z</time>
      </trkpt>
      <trkpt lat="46.07897" lon="6.05412">
        <ele>811.4</ele>
        <time>2021-03-27T15:51:14Z</time>
      </trkpt>
      <trkpt lat="46.07905" lon="6.05417">
        <ele>811.2</ele>
        <time>2021-03-27T15:51:15Z</time>
      </trkpt>
      <trkpt lat="46.07912" lon="6.05421">
        <ele>811.2</ele>
        <time>2021-03-27T15:51:16Z</time>
      </trkpt>
      <trkpt lat="46.07919" lon="6.05426">
        <ele>811</ele>
        <time>2021-03-27T15:51:17Z</time>
      </trkpt>
      <trkpt lat="46.07927" lon="6.05431">
        <ele>811</ele>
        <time>2021-03-27T15:51:18Z</time>
      </trkpt>
      <trkpt lat="46.07934" lon="6.05436">
        <ele>811.2</ele>
        <time>2021-03-27T15:51:19Z</time>
      </trkpt>
      <trkpt lat="46.07942" lon="6.05439">
        <ele>811.2</ele>
        <time>2021-03-27T15:51:20Z</time>
      </trkpt>
      <trkpt lat="46.0795" lon="6.05441">
        <ele>811.2</ele>
        <time>2021-03-27T15:51:21Z</time>
      </trkpt>
      <trkpt lat="46.07958" lon="6.05441">
        <ele>811.2</ele>
        <time>2021-03-27T15:51:22Z</time>
      </trkpt>
      <trkpt lat="46.07966" lon="6.05439">
        <ele>811.2</ele>
        <time>2021-03-27T15:51:23Z</time>
      </trkpt>
      <trkpt lat="46.07974" lon="6.05434">
        <ele>811.2</ele>
        <time>2021-03-27T15:51:24Z</time>
      </trkpt>
      <trkpt lat="46.07981" lon="6.05428">
        <ele>811</ele>
        <time>2021-03-27T15:51:25Z</time>
      </trkpt>
      <trkpt lat="46.07988" lon="6.0542">
        <ele>811.2</ele>
        <time>2021-03-27T15:51:26Z</time>
      </trkpt>
      <trkpt lat="46.07994" lon="6.05412">
        <ele>811.2</ele>
        <time>2021-03-27T15:51:27Z</time>
      </trkpt>
      <trkpt lat="46.08" lon="6.05404">
        <ele>811.2</ele>
        <time>2021-03-27T15:51:28Z</time>
      </trkpt>
      <trkpt lat="46.08007" lon="6.05396">
        <ele>811.2</ele>
        <time>2021-03-27T15:51:29Z</time>
      </trkpt>
      <trkpt lat="46.08013" lon="6.05388">
        <ele>811.2</ele>
        <time>2021-03-27T15:51:30Z</time>
      </trkpt>
      <trkpt lat="46.08019" lon="6.0538">
        <ele>811.2</ele>
        <time>2021-03-27T15:51:31Z</time>
      </trkpt>
      <trkpt lat="46.08026" lon="6.05373">
        <ele>811.2</ele>
        <time>2021-03-27T15:51:32Z</time>
      </trkpt>
      <trkpt lat="46.08033" lon="6.05366">
        <ele>811.4</ele>
        <time>2021-03-27T15:51:33Z</time>
      </trkpt>
      <trkpt lat="46.08041" lon="6.05359">
        <ele>811.2</ele>
        <time>2021-03-27T15:51:34Z</time>
      </trkpt>
      <trkpt lat="46.0805" lon="6.05353">
        <ele>811.2</ele>
        <time>2021-03-27T15:51:35Z</time>
      </trkpt>
      <trkpt lat="46.08058" lon="6.05349">
        <ele>811.4</ele>
        <time>2021-03-27T15:51:36Z</time>
      </trkpt>
      <trkpt lat="46.08068" lon="6.05346">
        <ele>811.4</ele>
        <time>2021-03-27T15:51:37Z</time>
      </trkpt>
      <trkpt lat="46.08078" lon="6.05344">
        <ele>811.2</ele>
        <time>2021-03-27T15:51:38Z</time>
      </trkpt>
      <trkpt lat="46.08089" lon="6.05344">
        <ele>811.4</ele>
        <time>2021-03-27T15:51:39Z</time>
      </trkpt>
      <trkpt lat="46.08099" lon="6.05345">
        <ele>811</ele>
        <time>2021-03-27T15:51:40Z</time>
      </trkpt>
      <trkpt lat="46.0811" lon="6.05347">
        <ele>810.8</ele>
        <time>2021-03-27T15:51:41Z</time>
      </trkpt>
      <trkpt lat="46.08121" lon="6.05349">
        <ele>810.8</ele>
        <time>2021-03-27T15:51:42Z</time>
      </trkpt>
      <trkpt lat="46.08132" lon="6.05351">
        <ele>810.2</ele>
        <time>2021-03-27T15:51:43Z</time>
      </trkpt>
      <trkpt lat="46.08143" lon="6.05351">
        <ele>809.6</ele>
        <time>2021-03-27T15:51:44Z</time>
      </trkpt>
      <trkpt lat="46.08154" lon="6.0535">
        <ele>808.8</ele>
        <time>2021-03-27T15:51:45Z</time>
      </trkpt>
      <trkpt lat="46.08164" lon="6.05347">
        <ele>808.2</ele>
        <time>2021-03-27T15:51:46Z</time>
      </trkpt>
      <trkpt lat="46.08175" lon="6.05342">
        <ele>807.4</ele>
        <time>2021-03-27T15:51:47Z</time>
      </trkpt>
      <trkpt lat="46.08184" lon="6.05335">
        <ele>807</ele>
        <time>2021-03-27T15:51:48Z</time>
      </trkpt>
      <trkpt lat="46.08193" lon="6.05325">
        <ele>806.2</ele>
        <time>2021-03-27T15:51:49Z</time>
      </trkpt>
      <trkpt lat="46.08201" lon="6.05314">
        <ele>805.4</ele>
        <time>2021-03-27T15:51:50Z</time>
      </trkpt>
      <trkpt lat="46.08208" lon="6.05301">
        <ele>804.6</ele>
        <time>2021-03-27T15:51:51Z</time>
      </trkpt>
      <trkpt lat="46.08214" lon="6.05287">
        <ele>804</ele>
        <time>2021-03-27T15:51:52Z</time>
      </trkpt>
      <trkpt lat="46.08218" lon="6.05271">
        <ele>803.2</ele>
        <time>2021-03-27T15:51:53Z</time>
      </trkpt>
      <trkpt lat="46.08222" lon="6.05255">
        <ele>802</ele>
        <time>2021-03-27T15:51:54Z</time>
      </trkpt>
      <trkpt lat="46.08225" lon="6.05238">
        <ele>800.4</ele>
        <time>2021-03-27T15:51:55Z</time>
      </trkpt>
      <trkpt lat="46.08229" lon="6.05221">
        <ele>799.6</ele>
        <time>2021-03-27T15:51:56Z</time>
      </trkpt>
      <trkpt lat="46.08232" lon="6.05205">
        <ele>799</ele>
        <time>2021-03-27T15:51:57Z</time>
      </trkpt>
      <trkpt lat="46.08235" lon="6.05187">
        <ele>798.6</ele>
        <time>2021-03-27T15:51:58Z</time>
      </trkpt>
      <trkpt lat="46.08238" lon="6.0517">
        <ele>798.4</ele>
        <time>2021-03-27T15:51:59Z</time>
      </trkpt>
      <trkpt lat="46.08243" lon="6.05152">
        <ele>798</ele>
        <time>2021-03-27T15:52:00Z</time>
      </trkpt>
      <trkpt lat="46.08248" lon="6.05135">
        <ele>797.6</ele>
        <time>2021-03-27T15:52:01Z</time>
      </trkpt>
      <trkpt lat="46.08255" lon="6.05119">
        <ele>797</ele>
        <time>2021-03-27T15:52:02Z</time>
      </trkpt>
      <trkpt lat="46.08261" lon="6.05103">
        <ele>796.6</ele>
        <time>2021-03-27T15:52:03Z</time>
      </trkpt>
      <trkpt lat="46.08267" lon="6.05088">
        <ele>795.8</ele>
        <time>2021-03-27T15:52:04Z</time>
      </trkpt>
      <trkpt lat="46.08274" lon="6.05072">
        <ele>795</ele>
        <time>2021-03-27T15:52:05Z</time>
      </trkpt>
      <trkpt lat="46.08281" lon="6.05057">
        <ele>794.4</ele>
        <time>2021-03-27T15:52:06Z</time>
      </trkpt>
      <trkpt lat="46.08288" lon="6.05042">
        <ele>793.4</ele>
        <time>2021-03-27T15:52:07Z</time>
      </trkpt>
      <trkpt lat="46.08296" lon="6.05028">
        <ele>792.2</ele>
        <time>2021-03-27T15:52:08Z</time>
      </trkpt>
      <trkpt lat="46.08304" lon="6.05015">
        <ele>791.4</ele>
        <time>2021-03-27T15:52:09Z</time>
      </trkpt>
      <trkpt lat="46.08313" lon="6.05002">
        <ele>790.6</ele>
        <time>2021-03-27T15:52:10Z</time>
      </trkpt>
      <trkpt lat="46.08322" lon="6.04989">
        <ele>789.4</ele>
        <time>2021-03-27T15:52:11Z</time>
      </trkpt>
      <trkpt lat="46.0833" lon="6.04977">
        <ele>788.8</ele>
        <time>2021-03-27T15:52:12Z</time>
      </trkpt>
      <trkpt lat="46.08339" lon="6.04965">
        <ele>788</ele>
        <time>2021-03-27T15:52:13Z</time>
      </trkpt>
      <trkpt lat="46.08348" lon="6.04953">
        <ele>787.4</ele>
        <time>2021-03-27T15:52:14Z</time>
      </trkpt>
      <trkpt lat="46.08357" lon="6.04941">
        <ele>786.8</ele>
        <time>2021-03-27T15:52:15Z</time>
      </trkpt>
      <trkpt lat="46.08365" lon="6.04929">
        <ele>785.8</ele>
        <time>2021-03-27T15:52:16Z</time>
      </trkpt>
      <trkpt lat="46.08373" lon="6.04918">
        <ele>785.4</ele>
        <time>2021-03-27T15:52:17Z</time>
      </trkpt>
      <trkpt lat="46.0838" lon="6.04906">
        <ele>784.4</ele>
        <time>2021-03-27T15:52:18Z</time>
      </trkpt>
      <trkpt lat="46.08386" lon="6.04896">
        <ele>783.4</ele>
        <time>2021-03-27T15:52:19Z</time>
      </trkpt>
      <trkpt lat="46.08391" lon="6.04887">
        <ele>782.8</ele>
        <time>2021-03-27T15:52:20Z</time>
      </trkpt>
      <trkpt lat="46.08396" lon="6.0488">
        <ele>782.2</ele>
        <time>2021-03-27T15:52:21Z</time>
      </trkpt>
      <trkpt lat="46.084" lon="6.04876">
        <ele>781.6</ele>
        <time>2021-03-27T15:52:22Z</time>
      </trkpt>
      <trkpt lat="46.08405" lon="6.04877">
        <ele>780.8</ele>
        <time>2021-03-27T15:52:23Z</time>
      </trkpt>
      <trkpt lat="46.08409" lon="6.04882">
        <ele>780</ele>
        <time>2021-03-27T15:52:24Z</time>
      </trkpt>
      <trkpt lat="46.08411" lon="6.0489">
        <ele>779.8</ele>
        <time>2021-03-27T15:52:25Z</time>
      </trkpt>
      <trkpt lat="46.08413" lon="6.04899">
        <ele>779.4</ele>
        <time>2021-03-27T15:52:26Z</time>
      </trkpt>
      <trkpt lat="46.08413" lon="6.04909">
        <ele>779.2</ele>
        <time>2021-03-27T15:52:27Z</time>
      </trkpt>
      <trkpt lat="46.08414" lon="6.04919">
        <ele>779.2</ele>
        <time>2021-03-27T15:52:28Z</time>
      </trkpt>
      <trkpt lat="46.08413" lon="6.0493">
        <ele>779</ele>
        <time>2021-03-27T15:52:29Z</time>
      </trkpt>
      <trkpt lat="46.08412" lon="6.0494">
        <ele>779</ele>
        <time>2021-03-27T15:52:30Z</time>
      </trkpt>
      <trkpt lat="46.0841" lon="6.04951">
        <ele>778.6</ele>
        <time>2021-03-27T15:52:31Z</time>
      </trkpt>
      <trkpt lat="46.08409" lon="6.04962">
        <ele>778.4</ele>
        <time>2021-03-27T15:52:32Z</time>
      </trkpt>
      <trkpt lat="46.08408" lon="6.04973">
        <ele>778</ele>
        <time>2021-03-27T15:52:33Z</time>
      </trkpt>
      <trkpt lat="46.08406" lon="6.04985">
        <ele>777.8</ele>
        <time>2021-03-27T15:52:34Z</time>
      </trkpt>
      <trkpt lat="46.08405" lon="6.04997">
        <ele>777.4</ele>
        <time>2021-03-27T15:52:35Z</time>
      </trkpt>
      <trkpt lat="46.08404" lon="6.05009">
        <ele>777.2</ele>
        <time>2021-03-27T15:52:36Z</time>
      </trkpt>
      <trkpt lat="46.08403" lon="6.05022">
        <ele>777.2</ele>
        <time>2021-03-27T15:52:37Z</time>
      </trkpt>
      <trkpt lat="46.08403" lon="6.05035">
        <ele>777.2</ele>
        <time>2021-03-27T15:52:38Z</time>
      </trkpt>
      <trkpt lat="46.08404" lon="6.05047">
        <ele>777</ele>
        <time>2021-03-27T15:52:39Z</time>
      </trkpt>
      <trkpt lat="46.08404" lon="6.0506">
        <ele>776.8</ele>
        <time>2021-03-27T15:52:40Z</time>
      </trkpt>
      <trkpt lat="46.08405" lon="6.05072">
        <ele>776.6</ele>
        <time>2021-03-27T15:52:41Z</time>
      </trkpt>
      <trkpt lat="46.08406" lon="6.05084">
        <ele>776.8</ele>
        <time>2021-03-27T15:52:42Z</time>
      </trkpt>
      <trkpt lat="46.08407" lon="6.05096">
        <ele>776.6</ele>
        <time>2021-03-27T15:52:43Z</time>
      </trkpt>
      <trkpt lat="46.08408" lon="6.05107">
        <ele>776.6</ele>
        <time>2021-03-27T15:52:44Z</time>
      </trkpt>
      <trkpt lat="46.08409" lon="6.05118">
        <ele>776.6</ele>
        <time>2021-03-27T15:52:45Z</time>
      </trkpt>
      <trkpt lat="46.0841" lon="6.05129">
        <ele>776.4</ele>
        <time>2021-03-27T15:52:46Z</time>
      </trkpt>
      <trkpt lat="46.08411" lon="6.0514">
        <ele>776.6</ele>
        <time>2021-03-27T15:52:47Z</time>
      </trkpt>
      <trkpt lat="46.08412" lon="6.05151">
        <ele>776.8</ele>
        <time>2021-03-27T15:52:48Z</time>
      </trkpt>
      <trkpt lat="46.08413" lon="6.05162">
        <ele>776.6</ele>
        <time>2021-03-27T15:52:49Z</time>
      </trkpt>
      <trkpt lat="46.08415" lon="6.05173">
        <ele>776.6</ele>
        <time>2021-03-27T15:52:50Z</time>
      </trkpt>
      <trkpt lat="46.08416" lon="6.05184">
        <ele>776.4</ele>
        <time>2021-03-27T15:52:51Z</time>
      </trkpt>
      <trkpt lat="46.08418" lon="6.05195">
        <ele>776.6</ele>
        <time>2021-03-27T15:52:52Z</time>
      </trkpt>
      <trkpt lat="46.0842" lon="6.05206">
        <ele>776.6</ele>
        <time>2021-03-27T15:52:53Z</time>
      </trkpt>
      <trkpt lat="46.08421" lon="6.05216">
        <ele>777</ele>
        <time>2021-03-27T15:52:54Z</time>
      </trkpt>
      <trkpt lat="46.08422" lon="6.05227">
        <ele>777.2</ele>
        <time>2021-03-27T15:52:55Z</time>
      </trkpt>
      <trkpt lat="46.08424" lon="6.05238">
        <ele>777.6</ele>
        <time>2021-03-27T15:52:56Z</time>
      </trkpt>
      <trkpt lat="46.08425" lon="6.05248">
        <ele>777.6</ele>
        <time>2021-03-27T15:52:57Z</time>
      </trkpt>
      <trkpt lat="46.08427" lon="6.05259">
        <ele>777.8</ele>
        <time>2021-03-27T15:52:58Z</time>
      </trkpt>
      <trkpt lat="46.08428" lon="6.05271">
        <ele>777.8</ele>
        <time>2021-03-27T15:52:59Z</time>
      </trkpt>
      <trkpt lat="46.0843" lon="6.05282">
        <ele>778</ele>
        <time>2021-03-27T15:53:00Z</time>
      </trkpt>
      <trkpt lat="46.08432" lon="6.05294">
        <ele>778</ele>
        <time>2021-03-27T15:53:01Z</time>
      </trkpt>
      <trkpt lat="46.08435" lon="6.05306">
        <ele>778</ele>
        <time>2021-03-27T15:53:02Z</time>
      </trkpt>
      <trkpt lat="46.08437" lon="6.05318">
        <ele>778</ele>
        <time>2021-03-27T15:53:03Z</time>
      </trkpt>
      <trkpt lat="46.08441" lon="6.0533">
        <ele>778</ele>
        <time>2021-03-27T15:53:04Z</time>
      </trkpt>
      <trkpt lat="46.08444" lon="6.05342">
        <ele>778</ele>
        <time>2021-03-27T15:53:05Z</time>
      </trkpt>
      <trkpt lat="46.08448" lon="6.05355">
        <ele>777.8</ele>
        <time>2021-03-27T15:53:06Z</time>
      </trkpt>
      <trkpt lat="46.08452" lon="6.05367">
        <ele>777.6</ele>
        <time>2021-03-27T15:53:07Z</time>
      </trkpt>
      <trkpt lat="46.08455" lon="6.0538">
        <ele>777.4</ele>
        <time>2021-03-27T15:53:08Z</time>
      </trkpt>
      <trkpt lat="46.08458" lon="6.05393">
        <ele>777.2</ele>
        <time>2021-03-27T15:53:09Z</time>
      </trkpt>
      <trkpt lat="46.08461" lon="6.05407">
        <ele>776.8</ele>
        <time>2021-03-27T15:53:10Z</time>
      </trkpt>
      <trkpt lat="46.08463" lon="6.0542">
        <ele>776.4</ele>
        <time>2021-03-27T15:53:11Z</time>
      </trkpt>
      <trkpt lat="46.08466" lon="6.05433">
        <ele>776</ele>
        <time>2021-03-27T15:53:12Z</time>
      </trkpt>
      <trkpt lat="46.08467" lon="6.05446">
        <ele>775.8</ele>
        <time>2021-03-27T15:53:13Z</time>
      </trkpt>
      <trkpt lat="46.08469" lon="6.0546">
        <ele>775.2</ele>
        <time>2021-03-27T15:53:14Z</time>
      </trkpt>
      <trkpt lat="46.0847" lon="6.05473">
        <ele>774.6</ele>
        <time>2021-03-27T15:53:15Z</time>
      </trkpt>
      <trkpt lat="46.08472" lon="6.05486">
        <ele>774</ele>
        <time>2021-03-27T15:53:16Z</time>
      </trkpt>
      <trkpt lat="46.08474" lon="6.05499">
        <ele>773.6</ele>
        <time>2021-03-27T15:53:17Z</time>
      </trkpt>
      <trkpt lat="46.08475" lon="6.05512">
        <ele>773.2</ele>
        <time>2021-03-27T15:53:18Z</time>
      </trkpt>
      <trkpt lat="46.08477" lon="6.05524">
        <ele>773.2</ele>
        <time>2021-03-27T15:53:19Z</time>
      </trkpt>
      <trkpt lat="46.08478" lon="6.05536">
        <ele>773</ele>
        <time>2021-03-27T15:53:20Z</time>
      </trkpt>
      <trkpt lat="46.0848" lon="6.05548">
        <ele>773</ele>
        <time>2021-03-27T15:53:21Z</time>
      </trkpt>
      <trkpt lat="46.08481" lon="6.0556">
        <ele>773</ele>
        <time>2021-03-27T15:53:22Z</time>
      </trkpt>
      <trkpt lat="46.08482" lon="6.05572">
        <ele>773</ele>
        <time>2021-03-27T15:53:23Z</time>
      </trkpt>
      <trkpt lat="46.08483" lon="6.05584">
        <ele>772.8</ele>
        <time>2021-03-27T15:53:24Z</time>
      </trkpt>
      <trkpt lat="46.08485" lon="6.05595">
        <ele>772.8</ele>
        <time>2021-03-27T15:53:25Z</time>
      </trkpt>
      <trkpt lat="46.08486" lon="6.05606">
        <ele>772.8</ele>
        <time>2021-03-27T15:53:26Z</time>
      </trkpt>
      <trkpt lat="46.08487" lon="6.05617">
        <ele>772.8</ele>
        <time>2021-03-27T15:53:27Z</time>
      </trkpt>
      <trkpt lat="46.08489" lon="6.05628">
        <ele>772.8</ele>
        <time>2021-03-27T15:53:28Z</time>
      </trkpt>
      <trkpt lat="46.0849" lon="6.05638">
        <ele>773</ele>
        <time>2021-03-27T15:53:29Z</time>
      </trkpt>
      <trkpt lat="46.08492" lon="6.05649">
        <ele>772.8</ele>
        <time>2021-03-27T15:53:30Z</time>
      </trkpt>
      <trkpt lat="46.08494" lon="6.05658">
        <ele>773</ele>
        <time>2021-03-27T15:53:31Z</time>
      </trkpt>
      <trkpt lat="46.08497" lon="6.05668">
        <ele>773</ele>
        <time>2021-03-27T15:53:32Z</time>
      </trkpt>
      <trkpt lat="46.085" lon="6.05677">
        <ele>773</ele>
        <time>2021-03-27T15:53:33Z</time>
      </trkpt>
      <trkpt lat="46.08503" lon="6.05686">
        <ele>773.2</ele>
        <time>2021-03-27T15:53:34Z</time>
      </trkpt>
      <trkpt lat="46.08506" lon="6.05694">
        <ele>773.2</ele>
        <time>2021-03-27T15:53:35Z</time>
      </trkpt>
      <trkpt lat="46.0851" lon="6.05702">
        <ele>773.2</ele>
        <time>2021-03-27T15:53:36Z</time>
      </trkpt>
      <trkpt lat="46.08514" lon="6.05711">
        <ele>773.4</ele>
        <time>2021-03-27T15:53:37Z</time>
      </trkpt>
      <trkpt lat="46.08517" lon="6.05718">
        <ele>773.6</ele>
        <time>2021-03-27T15:53:38Z</time>
      </trkpt>
      <trkpt lat="46.08521" lon="6.05725">
        <ele>773.8</ele>
        <time>2021-03-27T15:53:39Z</time>
      </trkpt>
      <trkpt lat="46.08525" lon="6.05732">
        <ele>774</ele>
        <time>2021-03-27T15:53:40Z</time>
      </trkpt>
      <trkpt lat="46.08529" lon="6.0574">
        <ele>774.4</ele>
        <time>2021-03-27T15:53:41Z</time>
      </trkpt>
      <trkpt lat="46.08533" lon="6.05748">
        <ele>774.4</ele>
        <time>2021-03-27T15:53:42Z</time>
      </trkpt>
      <trkpt lat="46.08537" lon="6.05757">
        <ele>774.8</ele>
        <time>2021-03-27T15:53:43Z</time>
      </trkpt>
      <trkpt lat="46.08541" lon="6.05765">
        <ele>775.2</ele>
        <time>2021-03-27T15:53:44Z</time>
      </trkpt>
      <trkpt lat="46.08546" lon="6.05773">
        <ele>775.4</ele>
        <time>2021-03-27T15:53:45Z</time>
      </trkpt>
      <trkpt lat="46.0855" lon="6.05782">
        <ele>775.6</ele>
        <time>2021-03-27T15:53:46Z</time>
      </trkpt>
      <trkpt lat="46.08555" lon="6.0579">
        <ele>775.6</ele>
        <time>2021-03-27T15:53:47Z</time>
      </trkpt>
      <trkpt lat="46.08559" lon="6.05798">
        <ele>775.8</ele>
        <time>2021-03-27T15:53:48Z</time>
      </trkpt>
      <trkpt lat="46.08564" lon="6.05806">
        <ele>775.8</ele>
        <time>2021-03-27T15:53:49Z</time>
      </trkpt>
      <trkpt lat="46.08568" lon="6.05814">
        <ele>775.8</ele>
        <time>2021-03-27T15:53:50Z</time>
      </trkpt>
      <trkpt lat="46.08573" lon="6.05823">
        <ele>775.8</ele>
        <time>2021-03-27T15:53:51Z</time>
      </trkpt>
      <trkpt lat="46.08578" lon="6.05832">
        <ele>776</ele>
        <time>2021-03-27T15:53:52Z</time>
      </trkpt>
      <trkpt lat="46.08583" lon="6.05841">
        <ele>776</ele>
        <time>2021-03-27T15:53:53Z</time>
      </trkpt>
      <trkpt lat="46.08588" lon="6.0585">
        <ele>775.8</ele>
        <time>2021-03-27T15:53:54Z</time>
      </trkpt>
      <trkpt lat="46.08593" lon="6.05859">
        <ele>775.8</ele>
        <time>2021-03-27T15:53:55Z</time>
      </trkpt>
      <trkpt lat="46.08598" lon="6.05868">
        <ele>776</ele>
        <time>2021-03-27T15:53:56Z</time>
      </trkpt>
      <trkpt lat="46.08603" lon="6.05877">
        <ele>775.8</ele>
        <time>2021-03-27T15:53:57Z</time>
      </trkpt>
      <trkpt lat="46.08608" lon="6.05886">
        <ele>775.8</ele>
        <time>2021-03-27T15:53:58Z</time>
      </trkpt>
      <trkpt lat="46.08613" lon="6.05895">
        <ele>775.8</ele>
        <time>2021-03-27T15:53:59Z</time>
      </trkpt>
      <trkpt lat="46.08617" lon="6.05904">
        <ele>775.8</ele>
        <time>2021-03-27T15:54:00Z</time>
      </trkpt>
      <trkpt lat="46.08622" lon="6.05913">
        <ele>775.8</ele>
        <time>2021-03-27T15:54:01Z</time>
      </trkpt>
      <trkpt lat="46.08627" lon="6.05922">
        <ele>775.8</ele>
        <time>2021-03-27T15:54:02Z</time>
      </trkpt>
      <trkpt lat="46.08632" lon="6.05932">
        <ele>775.6</ele>
        <time>2021-03-27T15:54:03Z</time>
      </trkpt>
      <trkpt lat="46.08637" lon="6.05941">
        <ele>775.6</ele>
        <time>2021-03-27T15:54:04Z</time>
      </trkpt>
      <trkpt lat="46.08642" lon="6.05949">
        <ele>775.6</ele>
        <time>2021-03-27T15:54:05Z</time>
      </trkpt>
      <trkpt lat="46.08646" lon="6.05958">
        <ele>775.4</ele>
        <time>2021-03-27T15:54:06Z</time>
      </trkpt>
      <trkpt lat="46.08651" lon="6.05967">
        <ele>775.2</ele>
        <time>2021-03-27T15:54:07Z</time>
      </trkpt>
      <trkpt lat="46.08656" lon="6.05976">
        <ele>775.2</ele>
        <time>2021-03-27T15:54:08Z</time>
      </trkpt>
      <trkpt lat="46.08661" lon="6.05985">
        <ele>775</ele>
        <time>2021-03-27T15:54:09Z</time>
      </trkpt>
      <trkpt lat="46.08666" lon="6.05994">
        <ele>775</ele>
        <time>2021-03-27T15:54:10Z</time>
      </trkpt>
      <trkpt lat="46.08671" lon="6.06003">
        <ele>775</ele>
        <time>2021-03-27T15:54:11Z</time>
      </trkpt>
      <trkpt lat="46.08676" lon="6.06012">
        <ele>775</ele>
        <time>2021-03-27T15:54:12Z</time>
      </trkpt>
      <trkpt lat="46.08681" lon="6.06021">
        <ele>774.8</ele>
        <time>2021-03-27T15:54:13Z</time>
      </trkpt>
      <trkpt lat="46.08685" lon="6.0603">
        <ele>774.8</ele>
        <time>2021-03-27T15:54:14Z</time>
      </trkpt>
      <trkpt lat="46.0869" lon="6.06039">
        <ele>774.8</ele>
        <time>2021-03-27T15:54:15Z</time>
      </trkpt>
      <trkpt lat="46.08695" lon="6.06047">
        <ele>774.8</ele>
        <time>2021-03-27T15:54:16Z</time>
      </trkpt>
      <trkpt lat="46.08701" lon="6.06056">
        <ele>774.8</ele>
        <time>2021-03-27T15:54:17Z</time>
      </trkpt>
      <trkpt lat="46.08707" lon="6.06063">
        <ele>774.6</ele>
        <time>2021-03-27T15:54:18Z</time>
      </trkpt>
      <trkpt lat="46.08713" lon="6.0607">
        <ele>774.6</ele>
        <time>2021-03-27T15:54:19Z</time>
      </trkpt>
      <trkpt lat="46.0872" lon="6.06075">
        <ele>774.4</ele>
        <time>2021-03-27T15:54:20Z</time>
      </trkpt>
      <trkpt lat="46.08727" lon="6.06079">
        <ele>774.4</ele>
        <time>2021-03-27T15:54:21Z</time>
      </trkpt>
      <trkpt lat="46.08735" lon="6.06083">
        <ele>774.4</ele>
        <time>2021-03-27T15:54:22Z</time>
      </trkpt>
      <trkpt lat="46.08742" lon="6.06086">
        <ele>774.4</ele>
        <time>2021-03-27T15:54:23Z</time>
      </trkpt>
      <trkpt lat="46.08749" lon="6.06088">
        <ele>774.2</ele>
        <time>2021-03-27T15:54:24Z</time>
      </trkpt>
      <trkpt lat="46.08755" lon="6.0609">
        <ele>774</ele>
        <time>2021-03-27T15:54:25Z</time>
      </trkpt>
      <trkpt lat="46.08762" lon="6.06092">
        <ele>773.6</ele>
        <time>2021-03-27T15:54:26Z</time>
      </trkpt>
      <trkpt lat="46.08769" lon="6.06093">
        <ele>773.4</ele>
        <time>2021-03-27T15:54:27Z</time>
      </trkpt>
      <trkpt lat="46.08775" lon="6.06096">
        <ele>773</ele>
        <time>2021-03-27T15:54:28Z</time>
      </trkpt>
      <trkpt lat="46.08782" lon="6.06099">
        <ele>773</ele>
        <time>2021-03-27T15:54:29Z</time>
      </trkpt>
      <trkpt lat="46.08789" lon="6.06104">
        <ele>772.8</ele>
        <time>2021-03-27T15:54:30Z</time>
      </trkpt>
      <trkpt lat="46.08795" lon="6.0611">
        <ele>772.6</ele>
        <time>2021-03-27T15:54:31Z</time>
      </trkpt>
      <trkpt lat="46.08801" lon="6.06118">
        <ele>772.4</ele>
        <time>2021-03-27T15:54:32Z</time>
      </trkpt>
      <trkpt lat="46.08807" lon="6.06127">
        <ele>772.4</ele>
        <time>2021-03-27T15:54:33Z</time>
      </trkpt>
      <trkpt lat="46.08812" lon="6.06137">
        <ele>772.2</ele>
        <time>2021-03-27T15:54:34Z</time>
      </trkpt>
      <trkpt lat="46.08816" lon="6.06148">
        <ele>772</ele>
        <time>2021-03-27T15:54:35Z</time>
      </trkpt>
      <trkpt lat="46.08819" lon="6.0616">
        <ele>772</ele>
        <time>2021-03-27T15:54:36Z</time>
      </trkpt>
      <trkpt lat="46.08822" lon="6.06173">
        <ele>771.8</ele>
        <time>2021-03-27T15:54:37Z</time>
      </trkpt>
      <trkpt lat="46.08825" lon="6.06186">
        <ele>771.8</ele>
        <time>2021-03-27T15:54:38Z</time>
      </trkpt>
      <trkpt lat="46.08827" lon="6.06199">
        <ele>771.6</ele>
        <time>2021-03-27T15:54:39Z</time>
      </trkpt>
      <trkpt lat="46.0883" lon="6.06212">
        <ele>771</ele>
        <time>2021-03-27T15:54:40Z</time>
      </trkpt>
      <trkpt lat="46.08833" lon="6.06225">
        <ele>770.6</ele>
        <time>2021-03-27T15:54:41Z</time>
      </trkpt>
      <trkpt lat="46.08836" lon="6.06237">
        <ele>770</ele>
        <time>2021-03-27T15:54:42Z</time>
      </trkpt>
      <trkpt lat="46.08839" lon="6.0625">
        <ele>769.2</ele>
        <time>2021-03-27T15:54:43Z</time>
      </trkpt>
      <trkpt lat="46.08842" lon="6.06264">
        <ele>768.4</ele>
        <time>2021-03-27T15:54:44Z</time>
      </trkpt>
      <trkpt lat="46.08846" lon="6.06277">
        <ele>768</ele>
        <time>2021-03-27T15:54:45Z</time>
      </trkpt>
      <trkpt lat="46.08849" lon="6.06291">
        <ele>767</ele>
        <time>2021-03-27T15:54:46Z</time>
      </trkpt>
      <trkpt lat="46.08852" lon="6.06304">
        <ele>766.4</ele>
        <time>2021-03-27T15:54:47Z</time>
      </trkpt>
      <trkpt lat="46.08855" lon="6.06318">
        <ele>766.2</ele>
        <time>2021-03-27T15:54:48Z</time>
      </trkpt>
      <trkpt lat="46.08858" lon="6.06332">
        <ele>765.6</ele>
        <time>2021-03-27T15:54:49Z</time>
      </trkpt>
      <trkpt lat="46.08861" lon="6.06346">
        <ele>765.4</ele>
        <time>2021-03-27T15:54:50Z</time>
      </trkpt>
      <trkpt lat="46.08866" lon="6.06374">
        <ele>764.8</ele>
        <time>2021-03-27T15:54:52Z</time>
      </trkpt>
      <trkpt lat="46.08868" lon="6.06387">
        <ele>764.4</ele>
        <time>2021-03-27T15:54:53Z</time>
      </trkpt>
      <trkpt lat="46.0887" lon="6.064">
        <ele>764.2</ele>
        <time>2021-03-27T15:54:54Z</time>
      </trkpt>
      <trkpt lat="46.08872" lon="6.06414">
        <ele>764.2</ele>
        <time>2021-03-27T15:54:55Z</time>
      </trkpt>
      <trkpt lat="46.08874" lon="6.06428">
        <ele>764</ele>
        <time>2021-03-27T15:54:56Z</time>
      </trkpt>
      <trkpt lat="46.08876" lon="6.06442">
        <ele>763.4</ele>
        <time>2021-03-27T15:54:57Z</time>
      </trkpt>
      <trkpt lat="46.08877" lon="6.06455">
        <ele>762.8</ele>
        <time>2021-03-27T15:54:58Z</time>
      </trkpt>
      <trkpt lat="46.08879" lon="6.06466">
        <ele>761.8</ele>
        <time>2021-03-27T15:54:59Z</time>
      </trkpt>
      <trkpt lat="46.0888" lon="6.06478">
        <ele>761.6</ele>
        <time>2021-03-27T15:55:00Z</time>
      </trkpt>
      <trkpt lat="46.08882" lon="6.06489">
        <ele>761.2</ele>
        <time>2021-03-27T15:55:01Z</time>
      </trkpt>
      <trkpt lat="46.08886" lon="6.06499">
        <ele>761</ele>
        <time>2021-03-27T15:55:02Z</time>
      </trkpt>
      <trkpt lat="46.08891" lon="6.06508">
        <ele>760.8</ele>
        <time>2021-03-27T15:55:03Z</time>
      </trkpt>
      <trkpt lat="46.08897" lon="6.06514">
        <ele>760.6</ele>
        <time>2021-03-27T15:55:04Z</time>
      </trkpt>
      <trkpt lat="46.08913" lon="6.06518">
        <ele>759</ele>
        <time>2021-03-27T15:55:06Z</time>
      </trkpt>
      <trkpt lat="46.08921" lon="6.06515">
        <ele>758.8</ele>
        <time>2021-03-27T15:55:07Z</time>
      </trkpt>
      <trkpt lat="46.08929" lon="6.0651">
        <ele>758.2</ele>
        <time>2021-03-27T15:55:08Z</time>
      </trkpt>
      <trkpt lat="46.08937" lon="6.06505">
        <ele>757.6</ele>
        <time>2021-03-27T15:55:09Z</time>
      </trkpt>
      <trkpt lat="46.08945" lon="6.06499">
        <ele>756.8</ele>
        <time>2021-03-27T15:55:10Z</time>
      </trkpt>
      <trkpt lat="46.08954" lon="6.06494">
        <ele>756.4</ele>
        <time>2021-03-27T15:55:11Z</time>
      </trkpt>
      <trkpt lat="46.08964" lon="6.06489">
        <ele>755.6</ele>
        <time>2021-03-27T15:55:12Z</time>
      </trkpt>
      <trkpt lat="46.08974" lon="6.06485">
        <ele>754.4</ele>
        <time>2021-03-27T15:55:13Z</time>
      </trkpt>
      <trkpt lat="46.08984" lon="6.06482">
        <ele>753.6</ele>
        <time>2021-03-27T15:55:14Z</time>
      </trkpt>
      <trkpt lat="46.08994" lon="6.06483">
        <ele>753.6</ele>
        <time>2021-03-27T15:55:15Z</time>
      </trkpt>
      <trkpt lat="46.09002" lon="6.06487">
        <ele>753.4</ele>
        <time>2021-03-27T15:55:16Z</time>
      </trkpt>
      <trkpt lat="46.09009" lon="6.06494">
        <ele>752.4</ele>
        <time>2021-03-27T15:55:17Z</time>
      </trkpt>
      <trkpt lat="46.09013" lon="6.06503">
        <ele>751.2</ele>
        <time>2021-03-27T15:55:18Z</time>
      </trkpt>
      <trkpt lat="46.09016" lon="6.06513">
        <ele>750.2</ele>
        <time>2021-03-27T15:55:19Z</time>
      </trkpt>
      <trkpt lat="46.09016" lon="6.06524">
        <ele>749.2</ele>
        <time>2021-03-27T15:55:20Z</time>
      </trkpt>
      <trkpt lat="46.09015" lon="6.06534">
        <ele>747.8</ele>
        <time>2021-03-27T15:55:21Z</time>
      </trkpt>
      <trkpt lat="46.09013" lon="6.06544">
        <ele>746.8</ele>
        <time>2021-03-27T15:55:22Z</time>
      </trkpt>
      <trkpt lat="46.09009" lon="6.06553">
        <ele>746</ele>
        <time>2021-03-27T15:55:23Z</time>
      </trkpt>
      <trkpt lat="46.09005" lon="6.06564">
        <ele>745.4</ele>
        <time>2021-03-27T15:55:24Z</time>
      </trkpt>
      <trkpt lat="46.09" lon="6.06573">
        <ele>744.6</ele>
        <time>2021-03-27T15:55:25Z</time>
      </trkpt>
      <trkpt lat="46.08993" lon="6.06582">
        <ele>744.2</ele>
        <time>2021-03-27T15:55:26Z</time>
      </trkpt>
      <trkpt lat="46.08986" lon="6.06589">
        <ele>743.6</ele>
        <time>2021-03-27T15:55:27Z</time>
      </trkpt>
      <trkpt lat="46.08977" lon="6.06597">
        <ele>743.2</ele>
        <time>2021-03-27T15:55:28Z</time>
      </trkpt>
      <trkpt lat="46.08968" lon="6.06604">
        <ele>742.4</ele>
        <time>2021-03-27T15:55:29Z</time>
      </trkpt>
      <trkpt lat="46.08958" lon="6.06611">
        <ele>741.8</ele>
        <time>2021-03-27T15:55:30Z</time>
      </trkpt>
      <trkpt lat="46.08949" lon="6.06622">
        <ele>741</ele>
        <time>2021-03-27T15:55:31Z</time>
      </trkpt>
      <trkpt lat="46.0894" lon="6.06633">
        <ele>740</ele>
        <time>2021-03-27T15:55:32Z</time>
      </trkpt>
      <trkpt lat="46.08932" lon="6.06646">
        <ele>738.8</ele>
        <time>2021-03-27T15:55:33Z</time>
      </trkpt>
      <trkpt lat="46.08923" lon="6.0666">
        <ele>737.8</ele>
        <time>2021-03-27T15:55:34Z</time>
      </trkpt>
      <trkpt lat="46.08915" lon="6.06674">
        <ele>736.8</ele>
        <time>2021-03-27T15:55:35Z</time>
      </trkpt>
      <trkpt lat="46.08906" lon="6.06687">
        <ele>735.8</ele>
        <time>2021-03-27T15:55:36Z</time>
      </trkpt>
      <trkpt lat="46.08898" lon="6.06702">
        <ele>734.8</ele>
        <time>2021-03-27T15:55:37Z</time>
      </trkpt>
      <trkpt lat="46.0889" lon="6.06716">
        <ele>733.6</ele>
        <time>2021-03-27T15:55:38Z</time>
      </trkpt>
      <trkpt lat="46.08875" lon="6.0674">
        <ele>731</ele>
        <time>2021-03-27T15:55:40Z</time>
      </trkpt>
      <trkpt lat="46.08869" lon="6.06751">
        <ele>730.2</ele>
        <time>2021-03-27T15:55:41Z</time>
      </trkpt>
      <trkpt lat="46.08864" lon="6.06764">
        <ele>729</ele>
        <time>2021-03-27T15:55:42Z</time>
      </trkpt>
      <trkpt lat="46.08862" lon="6.06778">
        <ele>727.8</ele>
        <time>2021-03-27T15:55:43Z</time>
      </trkpt>
      <trkpt lat="46.0886" lon="6.06791">
        <ele>726.2</ele>
        <time>2021-03-27T15:55:44Z</time>
      </trkpt>
      <trkpt lat="46.08862" lon="6.06804">
        <ele>724.8</ele>
        <time>2021-03-27T15:55:45Z</time>
      </trkpt>
      <trkpt lat="46.08868" lon="6.06816">
        <ele>723.8</ele>
        <time>2021-03-27T15:55:46Z</time>
      </trkpt>
      <trkpt lat="46.08876" lon="6.06827">
        <ele>722.8</ele>
        <time>2021-03-27T15:55:47Z</time>
      </trkpt>
      <trkpt lat="46.08885" lon="6.06838">
        <ele>721.8</ele>
        <time>2021-03-27T15:55:48Z</time>
      </trkpt>
      <trkpt lat="46.08893" lon="6.06848">
        <ele>721.2</ele>
        <time>2021-03-27T15:55:49Z</time>
      </trkpt>
      <trkpt lat="46.08904" lon="6.06859">
        <ele>720</ele>
        <time>2021-03-27T15:55:50Z</time>
      </trkpt>
      <trkpt lat="46.08914" lon="6.0687">
        <ele>718.2</ele>
        <time>2021-03-27T15:55:51Z</time>
      </trkpt>
      <trkpt lat="46.08925" lon="6.06882">
        <ele>717.4</ele>
        <time>2021-03-27T15:55:52Z</time>
      </trkpt>
      <trkpt lat="46.08935" lon="6.06894">
        <ele>716.4</ele>
        <time>2021-03-27T15:55:53Z</time>
      </trkpt>
      <trkpt lat="46.08946" lon="6.06906">
        <ele>716</ele>
        <time>2021-03-27T15:55:54Z</time>
      </trkpt>
      <trkpt lat="46.08955" lon="6.06918">
        <ele>714.8</ele>
        <time>2021-03-27T15:55:55Z</time>
      </trkpt>
      <trkpt lat="46.08964" lon="6.06929">
        <ele>713.8</ele>
        <time>2021-03-27T15:55:56Z</time>
      </trkpt>
      <trkpt lat="46.08971" lon="6.06941">
        <ele>712.8</ele>
        <time>2021-03-27T15:55:57Z</time>
      </trkpt>
      <trkpt lat="46.08976" lon="6.06953">
        <ele>711.6</ele>
        <time>2021-03-27T15:55:58Z</time>
      </trkpt>
      <trkpt lat="46.0898" lon="6.06966">
        <ele>710.2</ele>
        <time>2021-03-27T15:55:59Z</time>
      </trkpt>
      <trkpt lat="46.08984" lon="6.0698">
        <ele>709</ele>
        <time>2021-03-27T15:56:00Z</time>
      </trkpt>
      <trkpt lat="46.08987" lon="6.06995">
        <ele>707.8</ele>
        <time>2021-03-27T15:56:01Z</time>
      </trkpt>
      <trkpt lat="46.08989" lon="6.07009">
        <ele>706.6</ele>
        <time>2021-03-27T15:56:02Z</time>
      </trkpt>
      <trkpt lat="46.08991" lon="6.07024">
        <ele>705.8</ele>
        <time>2021-03-27T15:56:03Z</time>
      </trkpt>
      <trkpt lat="46.08992" lon="6.07038">
        <ele>705.4</ele>
        <time>2021-03-27T15:56:04Z</time>
      </trkpt>
      <trkpt lat="46.08994" lon="6.07052">
        <ele>705</ele>
        <time>2021-03-27T15:56:05Z</time>
      </trkpt>
      <trkpt lat="46.08996" lon="6.07065">
        <ele>704.8</ele>
        <time>2021-03-27T15:56:06Z</time>
      </trkpt>
      <trkpt lat="46.09002" lon="6.07073">
        <ele>704.6</ele>
        <time>2021-03-27T15:56:07Z</time>
      </trkpt>
      <trkpt lat="46.09009" lon="6.07079">
        <ele>703.8</ele>
        <time>2021-03-27T15:56:08Z</time>
      </trkpt>
      <trkpt lat="46.09015" lon="6.07083">
        <ele>703</ele>
        <time>2021-03-27T15:56:09Z</time>
      </trkpt>
      <trkpt lat="46.09021" lon="6.07088">
        <ele>701.8</ele>
        <time>2021-03-27T15:56:10Z</time>
      </trkpt>
      <trkpt lat="46.09026" lon="6.07093">
        <ele>701.4</ele>
        <time>2021-03-27T15:56:11Z</time>
      </trkpt>
      <trkpt lat="46.09032" lon="6.07098">
        <ele>701</ele>
        <time>2021-03-27T15:56:12Z</time>
      </trkpt>
      <trkpt lat="46.09037" lon="6.07103">
        <ele>700.8</ele>
        <time>2021-03-27T15:56:13Z</time>
      </trkpt>
      <trkpt lat="46.09043" lon="6.07109">
        <ele>700.8</ele>
        <time>2021-03-27T15:56:14Z</time>
      </trkpt>
      <trkpt lat="46.09048" lon="6.07114">
        <ele>700.6</ele>
        <time>2021-03-27T15:56:15Z</time>
      </trkpt>
      <trkpt lat="46.09053" lon="6.0712">
        <ele>700.6</ele>
        <time>2021-03-27T15:56:16Z</time>
      </trkpt>
      <trkpt lat="46.09059" lon="6.07125">
        <ele>700.6</ele>
        <time>2021-03-27T15:56:17Z</time>
      </trkpt>
      <trkpt lat="46.09064" lon="6.0713">
        <ele>700.6</ele>
        <time>2021-03-27T15:56:18Z</time>
      </trkpt>
      <trkpt lat="46.09069" lon="6.07136">
        <ele>700.8</ele>
        <time>2021-03-27T15:56:19Z</time>
      </trkpt>
      <trkpt lat="46.09074" lon="6.07141">
        <ele>700.6</ele>
        <time>2021-03-27T15:56:20Z</time>
      </trkpt>
      <trkpt lat="46.09079" lon="6.07145">
        <ele>701</ele>
        <time>2021-03-27T15:56:21Z</time>
      </trkpt>
      <trkpt lat="46.09084" lon="6.0715">
        <ele>701.4</ele>
        <time>2021-03-27T15:56:22Z</time>
      </trkpt>
      <trkpt lat="46.0909" lon="6.07155">
        <ele>701.8</ele>
        <time>2021-03-27T15:56:23Z</time>
      </trkpt>
      <trkpt lat="46.09095" lon="6.0716">
        <ele>701.8</ele>
        <time>2021-03-27T15:56:24Z</time>
      </trkpt>
      <trkpt lat="46.091" lon="6.07165">
        <ele>702.4</ele>
        <time>2021-03-27T15:56:25Z</time>
      </trkpt>
      <trkpt lat="46.09105" lon="6.07171">
        <ele>703</ele>
        <time>2021-03-27T15:56:26Z</time>
      </trkpt>
      <trkpt lat="46.0911" lon="6.07177">
        <ele>703.2</ele>
        <time>2021-03-27T15:56:27Z</time>
      </trkpt>
      <trkpt lat="46.09115" lon="6.07182">
        <ele>703.6</ele>
        <time>2021-03-27T15:56:28Z</time>
      </trkpt>
      <trkpt lat="46.09121" lon="6.07187">
        <ele>703.8</ele>
        <time>2021-03-27T15:56:29Z</time>
      </trkpt>
      <trkpt lat="46.09126" lon="6.07193">
        <ele>704</ele>
        <time>2021-03-27T15:56:30Z</time>
      </trkpt>
      <trkpt lat="46.09131" lon="6.07198">
        <ele>704.2</ele>
        <time>2021-03-27T15:56:31Z</time>
      </trkpt>
      <trkpt lat="46.09137" lon="6.07204">
        <ele>704.6</ele>
        <time>2021-03-27T15:56:32Z</time>
      </trkpt>
      <trkpt lat="46.09142" lon="6.07209">
        <ele>704.6</ele>
        <time>2021-03-27T15:56:33Z</time>
      </trkpt>
      <trkpt lat="46.09148" lon="6.07215">
        <ele>704.8</ele>
        <time>2021-03-27T15:56:34Z</time>
      </trkpt>
      <trkpt lat="46.09153" lon="6.07221">
        <ele>704.8</ele>
        <time>2021-03-27T15:56:35Z</time>
      </trkpt>
      <trkpt lat="46.09159" lon="6.07227">
        <ele>705</ele>
        <time>2021-03-27T15:56:36Z</time>
      </trkpt>
      <trkpt lat="46.09165" lon="6.07233">
        <ele>704.8</ele>
        <time>2021-03-27T15:56:37Z</time>
      </trkpt>
      <trkpt lat="46.09171" lon="6.07238">
        <ele>704.8</ele>
        <time>2021-03-27T15:56:38Z</time>
      </trkpt>
      <trkpt lat="46.09177" lon="6.07244">
        <ele>705</ele>
        <time>2021-03-27T15:56:39Z</time>
      </trkpt>
      <trkpt lat="46.09183" lon="6.07249">
        <ele>704.8</ele>
        <time>2021-03-27T15:56:40Z</time>
      </trkpt>
      <trkpt lat="46.09189" lon="6.07254">
        <ele>705</ele>
        <time>2021-03-27T15:56:41Z</time>
      </trkpt>
      <trkpt lat="46.09196" lon="6.07259">
        <ele>704.8</ele>
        <time>2021-03-27T15:56:42Z</time>
      </trkpt>
      <trkpt lat="46.09202" lon="6.07265">
        <ele>705</ele>
        <time>2021-03-27T15:56:43Z</time>
      </trkpt>
      <trkpt lat="46.09209" lon="6.07271">
        <ele>705</ele>
        <time>2021-03-27T15:56:44Z</time>
      </trkpt>
      <trkpt lat="46.09215" lon="6.07277">
        <ele>704.8</ele>
        <time>2021-03-27T15:56:45Z</time>
      </trkpt>
      <trkpt lat="46.09221" lon="6.07285">
        <ele>704.8</ele>
        <time>2021-03-27T15:56:46Z</time>
      </trkpt>
      <trkpt lat="46.09226" lon="6.07293">
        <ele>704.4</ele>
        <time>2021-03-27T15:56:47Z</time>
      </trkpt>
      <trkpt lat="46.09231" lon="6.07302">
        <ele>704</ele>
        <time>2021-03-27T15:56:48Z</time>
      </trkpt>
      <trkpt lat="46.09235" lon="6.07311">
        <ele>704</ele>
        <time>2021-03-27T15:56:49Z</time>
      </trkpt>
      <trkpt lat="46.09239" lon="6.07319">
        <ele>703.8</ele>
        <time>2021-03-27T15:56:50Z</time>
      </trkpt>
      <trkpt lat="46.09243" lon="6.07327">
        <ele>703.8</ele>
        <time>2021-03-27T15:56:51Z</time>
      </trkpt>
      <trkpt lat="46.09246" lon="6.07334">
        <ele>703.8</ele>
        <time>2021-03-27T15:56:52Z</time>
      </trkpt>
      <trkpt lat="46.09251" lon="6.07341">
        <ele>703.8</ele>
        <time>2021-03-27T15:56:53Z</time>
      </trkpt>
      <trkpt lat="46.09254" lon="6.07347">
        <ele>703.8</ele>
        <time>2021-03-27T15:56:54Z</time>
      </trkpt>
      <trkpt lat="46.09258" lon="6.07353">
        <ele>703.6</ele>
        <time>2021-03-27T15:56:55Z</time>
      </trkpt>
      <trkpt lat="46.09262" lon="6.07359">
        <ele>703.8</ele>
        <time>2021-03-27T15:56:56Z</time>
      </trkpt>
      <trkpt lat="46.09266" lon="6.07365">
        <ele>703.8</ele>
        <time>2021-03-27T15:56:57Z</time>
      </trkpt>
      <trkpt lat="46.09269" lon="6.07371">
        <ele>703.8</ele>
        <time>2021-03-27T15:56:58Z</time>
      </trkpt>
      <trkpt lat="46.09273" lon="6.07378">
        <ele>704.4</ele>
        <time>2021-03-27T15:56:59Z</time>
      </trkpt>
      <trkpt lat="46.09276" lon="6.07385">
        <ele>704.6</ele>
        <time>2021-03-27T15:57:00Z</time>
      </trkpt>
      <trkpt lat="46.09279" lon="6.07391">
        <ele>705.4</ele>
        <time>2021-03-27T15:57:01Z</time>
      </trkpt>
      <trkpt lat="46.09282" lon="6.07398">
        <ele>705.8</ele>
        <time>2021-03-27T15:57:02Z</time>
      </trkpt>
      <trkpt lat="46.09285" lon="6.07406">
        <ele>706</ele>
        <time>2021-03-27T15:57:03Z</time>
      </trkpt>
      <trkpt lat="46.09288" lon="6.07414">
        <ele>706</ele>
        <time>2021-03-27T15:57:04Z</time>
      </trkpt>
      <trkpt lat="46.09291" lon="6.07422">
        <ele>706</ele>
        <time>2021-03-27T15:57:05Z</time>
      </trkpt>
      <trkpt lat="46.09294" lon="6.0743">
        <ele>706.2</ele>
        <time>2021-03-27T15:57:06Z</time>
      </trkpt>
      <trkpt lat="46.09297" lon="6.07438">
        <ele>706</ele>
        <time>2021-03-27T15:57:07Z</time>
      </trkpt>
      <trkpt lat="46.093" lon="6.07445">
        <ele>706</ele>
        <time>2021-03-27T15:57:08Z</time>
      </trkpt>
      <trkpt lat="46.09302" lon="6.07452">
        <ele>706</ele>
        <time>2021-03-27T15:57:09Z</time>
      </trkpt>
      <trkpt lat="46.09305" lon="6.07459">
        <ele>706</ele>
        <time>2021-03-27T15:57:10Z</time>
      </trkpt>
      <trkpt lat="46.09307" lon="6.07466">
        <ele>706.2</ele>
        <time>2021-03-27T15:57:11Z</time>
      </trkpt>
      <trkpt lat="46.0931" lon="6.07473">
        <ele>706.2</ele>
        <time>2021-03-27T15:57:12Z</time>
      </trkpt>
      <trkpt lat="46.09313" lon="6.07481">
        <ele>706</ele>
        <time>2021-03-27T15:57:13Z</time>
      </trkpt>
      <trkpt lat="46.09317" lon="6.0749">
        <ele>705.4</ele>
        <time>2021-03-27T15:57:14Z</time>
      </trkpt>
      <trkpt lat="46.0932" lon="6.07501">
        <ele>705</ele>
        <time>2021-03-27T15:57:15Z</time>
      </trkpt>
      <trkpt lat="46.09324" lon="6.07512">
        <ele>704.6</ele>
        <time>2021-03-27T15:57:16Z</time>
      </trkpt>
      <trkpt lat="46.09328" lon="6.07524">
        <ele>704.6</ele>
        <time>2021-03-27T15:57:17Z</time>
      </trkpt>
      <trkpt lat="46.09332" lon="6.07534">
        <ele>704.2</ele>
        <time>2021-03-27T15:57:18Z</time>
      </trkpt>
      <trkpt lat="46.09338" lon="6.07544">
        <ele>703.4</ele>
        <time>2021-03-27T15:57:19Z</time>
      </trkpt>
      <trkpt lat="46.09345" lon="6.07551">
        <ele>702.6</ele>
        <time>2021-03-27T15:57:20Z</time>
      </trkpt>
      <trkpt lat="46.09352" lon="6.07557">
        <ele>702</ele>
        <time>2021-03-27T15:57:21Z</time>
      </trkpt>
      <trkpt lat="46.09357" lon="6.07563">
        <ele>700.8</ele>
        <time>2021-03-27T15:57:22Z</time>
      </trkpt>
      <trkpt lat="46.09361" lon="6.0757">
        <ele>699.8</ele>
        <time>2021-03-27T15:57:23Z</time>
      </trkpt>
      <trkpt lat="46.09363" lon="6.07578">
        <ele>698.6</ele>
        <time>2021-03-27T15:57:24Z</time>
      </trkpt>
      <trkpt lat="46.09364" lon="6.07588">
        <ele>697.8</ele>
        <time>2021-03-27T15:57:25Z</time>
      </trkpt>
      <trkpt lat="46.09363" lon="6.07598">
        <ele>697</ele>
        <time>2021-03-27T15:57:26Z</time>
      </trkpt>
      <trkpt lat="46.09363" lon="6.07608">
        <ele>696.2</ele>
        <time>2021-03-27T15:57:27Z</time>
      </trkpt>
      <trkpt lat="46.09362" lon="6.07618">
        <ele>695.6</ele>
        <time>2021-03-27T15:57:28Z</time>
      </trkpt>
      <trkpt lat="46.09361" lon="6.07628">
        <ele>695.2</ele>
        <time>2021-03-27T15:57:29Z</time>
      </trkpt>
      <trkpt lat="46.0936" lon="6.07637">
        <ele>694.6</ele>
        <time>2021-03-27T15:57:30Z</time>
      </trkpt>
      <trkpt lat="46.09357" lon="6.07646">
        <ele>694</ele>
        <time>2021-03-27T15:57:31Z</time>
      </trkpt>
      <trkpt lat="46.09356" lon="6.07654">
        <ele>694</ele>
        <time>2021-03-27T15:57:32Z</time>
      </trkpt>
      <trkpt lat="46.09354" lon="6.07662">
        <ele>693.6</ele>
        <time>2021-03-27T15:57:33Z</time>
      </trkpt>
      <trkpt lat="46.09352" lon="6.0767">
        <ele>693.4</ele>
        <time>2021-03-27T15:57:34Z</time>
      </trkpt>
      <trkpt lat="46.09349" lon="6.07678">
        <ele>693.4</ele>
        <time>2021-03-27T15:57:35Z</time>
      </trkpt>
      <trkpt lat="46.09347" lon="6.07686">
        <ele>693.2</ele>
        <time>2021-03-27T15:57:36Z</time>
      </trkpt>
      <trkpt lat="46.09344" lon="6.07694">
        <ele>693.4</ele>
        <time>2021-03-27T15:57:37Z</time>
      </trkpt>
      <trkpt lat="46.09342" lon="6.07702">
        <ele>693.4</ele>
        <time>2021-03-27T15:57:38Z</time>
      </trkpt>
      <trkpt lat="46.09339" lon="6.0771">
        <ele>693.2</ele>
        <time>2021-03-27T15:57:39Z</time>
      </trkpt>
      <trkpt lat="46.09336" lon="6.07719">
        <ele>693.4</ele>
        <time>2021-03-27T15:57:40Z</time>
      </trkpt>
      <trkpt lat="46.09333" lon="6.07727">
        <ele>693.4</ele>
        <time>2021-03-27T15:57:41Z</time>
      </trkpt>
      <trkpt lat="46.0933" lon="6.07736">
        <ele>693.4</ele>
        <time>2021-03-27T15:57:42Z</time>
      </trkpt>
      <trkpt lat="46.09326" lon="6.07745">
        <ele>693.4</ele>
        <time>2021-03-27T15:57:43Z</time>
      </trkpt>
      <trkpt lat="46.09322" lon="6.07753">
        <ele>693.8</ele>
        <time>2021-03-27T15:57:44Z</time>
      </trkpt>
      <trkpt lat="46.09318" lon="6.07761">
        <ele>693.8</ele>
        <time>2021-03-27T15:57:45Z</time>
      </trkpt>
      <trkpt lat="46.09314" lon="6.07769">
        <ele>694</ele>
        <time>2021-03-27T15:57:46Z</time>
      </trkpt>
      <trkpt lat="46.0931" lon="6.07777">
        <ele>694</ele>
        <time>2021-03-27T15:57:47Z</time>
      </trkpt>
      <trkpt lat="46.09305" lon="6.07785">
        <ele>694</ele>
        <time>2021-03-27T15:57:48Z</time>
      </trkpt>
      <trkpt lat="46.09301" lon="6.07792">
        <ele>694</ele>
        <time>2021-03-27T15:57:49Z</time>
      </trkpt>
      <trkpt lat="46.09296" lon="6.07799">
        <ele>694</ele>
        <time>2021-03-27T15:57:50Z</time>
      </trkpt>
      <trkpt lat="46.0929" lon="6.07806">
        <ele>694.2</ele>
        <time>2021-03-27T15:57:51Z</time>
      </trkpt>
      <trkpt lat="46.09285" lon="6.07812">
        <ele>694.2</ele>
        <time>2021-03-27T15:57:52Z</time>
      </trkpt>
      <trkpt lat="46.0928" lon="6.07819">
        <ele>694</ele>
        <time>2021-03-27T15:57:53Z</time>
      </trkpt>
      <trkpt lat="46.09274" lon="6.07825">
        <ele>694</ele>
        <time>2021-03-27T15:57:54Z</time>
      </trkpt>
      <trkpt lat="46.09269" lon="6.07832">
        <ele>694.2</ele>
        <time>2021-03-27T15:57:55Z</time>
      </trkpt>
      <trkpt lat="46.09264" lon="6.07839">
        <ele>694</ele>
        <time>2021-03-27T15:57:56Z</time>
      </trkpt>
      <trkpt lat="46.09259" lon="6.07845">
        <ele>693.8</ele>
        <time>2021-03-27T15:57:57Z</time>
      </trkpt>
      <trkpt lat="46.09254" lon="6.0785">
        <ele>693.6</ele>
        <time>2021-03-27T15:57:58Z</time>
      </trkpt>
      <trkpt lat="46.0925" lon="6.07856">
        <ele>693.4</ele>
        <time>2021-03-27T15:57:59Z</time>
      </trkpt>
      <trkpt lat="46.09247" lon="6.07863">
        <ele>693.4</ele>
        <time>2021-03-27T15:58:00Z</time>
      </trkpt>
      <trkpt lat="46.09248" lon="6.07871">
        <ele>693.2</ele>
        <time>2021-03-27T15:58:01Z</time>
      </trkpt>
      <trkpt lat="46.09248" lon="6.0788">
        <ele>693.2</ele>
        <time>2021-03-27T15:58:02Z</time>
      </trkpt>
      <trkpt lat="46.09247" lon="6.07889">
        <ele>693</ele>
        <time>2021-03-27T15:58:03Z</time>
      </trkpt>
      <trkpt lat="46.09246" lon="6.07899">
        <ele>692.8</ele>
        <time>2021-03-27T15:58:04Z</time>
      </trkpt>
      <trkpt lat="46.09245" lon="6.07909">
        <ele>692.6</ele>
        <time>2021-03-27T15:58:05Z</time>
      </trkpt>
      <trkpt lat="46.09242" lon="6.0792">
        <ele>692.4</ele>
        <time>2021-03-27T15:58:06Z</time>
      </trkpt>
      <trkpt lat="46.09238" lon="6.0793">
        <ele>692.4</ele>
        <time>2021-03-27T15:58:07Z</time>
      </trkpt>
      <trkpt lat="46.09233" lon="6.0794">
        <ele>692.4</ele>
        <time>2021-03-27T15:58:08Z</time>
      </trkpt>
      <trkpt lat="46.09228" lon="6.07949">
        <ele>691.6</ele>
        <time>2021-03-27T15:58:09Z</time>
      </trkpt>
      <trkpt lat="46.09222" lon="6.07959">
        <ele>691.2</ele>
        <time>2021-03-27T15:58:10Z</time>
      </trkpt>
      <trkpt lat="46.09215" lon="6.07968">
        <ele>691</ele>
        <time>2021-03-27T15:58:11Z</time>
      </trkpt>
      <trkpt lat="46.09209" lon="6.07978">
        <ele>690.6</ele>
        <time>2021-03-27T15:58:12Z</time>
      </trkpt>
      <trkpt lat="46.09203" lon="6.07989">
        <ele>690.2</ele>
        <time>2021-03-27T15:58:13Z</time>
      </trkpt>
      <trkpt lat="46.09198" lon="6.08">
        <ele>690</ele>
        <time>2021-03-27T15:58:14Z</time>
      </trkpt>
      <trkpt lat="46.09193" lon="6.08012">
        <ele>689</ele>
        <time>2021-03-27T15:58:15Z</time>
      </trkpt>
      <trkpt lat="46.09188" lon="6.08024">
        <ele>688.2</ele>
        <time>2021-03-27T15:58:16Z</time>
      </trkpt>
      <trkpt lat="46.09183" lon="6.08036">
        <ele>687.4</ele>
        <time>2021-03-27T15:58:17Z</time>
      </trkpt>
      <trkpt lat="46.09178" lon="6.08048">
        <ele>686.8</ele>
        <time>2021-03-27T15:58:18Z</time>
      </trkpt>
      <trkpt lat="46.09173" lon="6.0806">
        <ele>686.4</ele>
        <time>2021-03-27T15:58:19Z</time>
      </trkpt>
      <trkpt lat="46.09167" lon="6.08071">
        <ele>685.6</ele>
        <time>2021-03-27T15:58:20Z</time>
      </trkpt>
      <trkpt lat="46.09162" lon="6.08082">
        <ele>684.8</ele>
        <time>2021-03-27T15:58:21Z</time>
      </trkpt>
      <trkpt lat="46.09155" lon="6.08093">
        <ele>684.2</ele>
        <time>2021-03-27T15:58:22Z</time>
      </trkpt>
      <trkpt lat="46.09149" lon="6.08105">
        <ele>683.8</ele>
        <time>2021-03-27T15:58:23Z</time>
      </trkpt>
      <trkpt lat="46.09143" lon="6.08116">
        <ele>683.4</ele>
        <time>2021-03-27T15:58:24Z</time>
      </trkpt>
      <trkpt lat="46.09136" lon="6.08127">
        <ele>682.8</ele>
        <time>2021-03-27T15:58:25Z</time>
      </trkpt>
      <trkpt lat="46.09129" lon="6.08139">
        <ele>682.2</ele>
        <time>2021-03-27T15:58:26Z</time>
      </trkpt>
      <trkpt lat="46.09122" lon="6.08151">
        <ele>681.6</ele>
        <time>2021-03-27T15:58:27Z</time>
      </trkpt>
      <trkpt lat="46.09115" lon="6.08163">
        <ele>681</ele>
        <time>2021-03-27T15:58:28Z</time>
      </trkpt>
      <trkpt lat="46.09109" lon="6.08174">
        <ele>680.4</ele>
        <time>2021-03-27T15:58:29Z</time>
      </trkpt>
      <trkpt lat="46.09103" lon="6.08184">
        <ele>679.6</ele>
        <time>2021-03-27T15:58:30Z</time>
      </trkpt>
      <trkpt lat="46.09098" lon="6.08194">
        <ele>678.8</ele>
        <time>2021-03-27T15:58:31Z</time>
      </trkpt>
      <trkpt lat="46.09093" lon="6.08204">
        <ele>678.2</ele>
        <time>2021-03-27T15:58:32Z</time>
      </trkpt>
      <trkpt lat="46.09089" lon="6.08214">
        <ele>677.6</ele>
        <time>2021-03-27T15:58:33Z</time>
      </trkpt>
      <trkpt lat="46.09087" lon="6.08227">
        <ele>676.8</ele>
        <time>2021-03-27T15:58:34Z</time>
      </trkpt>
      <trkpt lat="46.09085" lon="6.0824">
        <ele>675.6</ele>
        <time>2021-03-27T15:58:35Z</time>
      </trkpt>
      <trkpt lat="46.09086" lon="6.08254">
        <ele>675</ele>
        <time>2021-03-27T15:58:36Z</time>
      </trkpt>
      <trkpt lat="46.09089" lon="6.08269">
        <ele>674.8</ele>
        <time>2021-03-27T15:58:37Z</time>
      </trkpt>
      <trkpt lat="46.09092" lon="6.08284">
        <ele>674.4</ele>
        <time>2021-03-27T15:58:38Z</time>
      </trkpt>
      <trkpt lat="46.09096" lon="6.08299">
        <ele>674</ele>
        <time>2021-03-27T15:58:39Z</time>
      </trkpt>
      <trkpt lat="46.091" lon="6.08314">
        <ele>673.8</ele>
        <time>2021-03-27T15:58:40Z</time>
      </trkpt>
      <trkpt lat="46.09104" lon="6.0833">
        <ele>673.8</ele>
        <time>2021-03-27T15:58:41Z</time>
      </trkpt>
      <trkpt lat="46.09109" lon="6.08346">
        <ele>673</ele>
        <time>2021-03-27T15:58:42Z</time>
      </trkpt>
      <trkpt lat="46.09113" lon="6.08362">
        <ele>672.2</ele>
        <time>2021-03-27T15:58:43Z</time>
      </trkpt>
      <trkpt lat="46.09117" lon="6.08378">
        <ele>670.8</ele>
        <time>2021-03-27T15:58:44Z</time>
      </trkpt>
      <trkpt lat="46.09121" lon="6.08395">
        <ele>670</ele>
        <time>2021-03-27T15:58:45Z</time>
      </trkpt>
      <trkpt lat="46.09126" lon="6.08411">
        <ele>669.4</ele>
        <time>2021-03-27T15:58:46Z</time>
      </trkpt>
      <trkpt lat="46.0913" lon="6.08427">
        <ele>668.4</ele>
        <time>2021-03-27T15:58:47Z</time>
      </trkpt>
      <trkpt lat="46.09134" lon="6.08444">
        <ele>667.6</ele>
        <time>2021-03-27T15:58:48Z</time>
      </trkpt>
      <trkpt lat="46.09138" lon="6.0846">
        <ele>666.8</ele>
        <time>2021-03-27T15:58:49Z</time>
      </trkpt>
      <trkpt lat="46.09141" lon="6.08478">
        <ele>665.8</ele>
        <time>2021-03-27T15:58:50Z</time>
      </trkpt>
      <trkpt lat="46.09143" lon="6.08495">
        <ele>664.6</ele>
        <time>2021-03-27T15:58:51Z</time>
      </trkpt>
      <trkpt lat="46.09146" lon="6.08511">
        <ele>663.2</ele>
        <time>2021-03-27T15:58:52Z</time>
      </trkpt>
      <trkpt lat="46.0915" lon="6.08527">
        <ele>662.4</ele>
        <time>2021-03-27T15:58:53Z</time>
      </trkpt>
      <trkpt lat="46.09155" lon="6.08541">
        <ele>661.6</ele>
        <time>2021-03-27T15:58:54Z</time>
      </trkpt>
      <trkpt lat="46.09161" lon="6.08556">
        <ele>660.8</ele>
        <time>2021-03-27T15:58:55Z</time>
      </trkpt>
      <trkpt lat="46.09167" lon="6.0857">
        <ele>659.6</ele>
        <time>2021-03-27T15:58:56Z</time>
      </trkpt>
      <trkpt lat="46.09172" lon="6.08584">
        <ele>658.8</ele>
        <time>2021-03-27T15:58:57Z</time>
      </trkpt>
      <trkpt lat="46.09176" lon="6.08599">
        <ele>658.2</ele>
        <time>2021-03-27T15:58:58Z</time>
      </trkpt>
      <trkpt lat="46.0918" lon="6.08614">
        <ele>657.6</ele>
        <time>2021-03-27T15:58:59Z</time>
      </trkpt>
      <trkpt lat="46.09183" lon="6.08629">
        <ele>657.2</ele>
        <time>2021-03-27T15:59:00Z</time>
      </trkpt>
      <trkpt lat="46.09186" lon="6.08644">
        <ele>656.8</ele>
        <time>2021-03-27T15:59:01Z</time>
      </trkpt>
      <trkpt lat="46.09189" lon="6.08659">
        <ele>656.4</ele>
        <time>2021-03-27T15:59:02Z</time>
      </trkpt>
      <trkpt lat="46.09193" lon="6.08674">
        <ele>655.8</ele>
        <time>2021-03-27T15:59:03Z</time>
      </trkpt>
      <trkpt lat="46.09196" lon="6.08688">
        <ele>655.2</ele>
        <time>2021-03-27T15:59:04Z</time>
      </trkpt>
      <trkpt lat="46.09199" lon="6.08703">
        <ele>655</ele>
        <time>2021-03-27T15:59:05Z</time>
      </trkpt>
      <trkpt lat="46.09201" lon="6.08717">
        <ele>654.8</ele>
        <time>2021-03-27T15:59:06Z</time>
      </trkpt>
      <trkpt lat="46.09204" lon="6.08731">
        <ele>654.6</ele>
        <time>2021-03-27T15:59:07Z</time>
      </trkpt>
      <trkpt lat="46.09206" lon="6.08745">
        <ele>654.6</ele>
        <time>2021-03-27T15:59:08Z</time>
      </trkpt>
      <trkpt lat="46.09209" lon="6.0876">
        <ele>654.2</ele>
        <time>2021-03-27T15:59:09Z</time>
      </trkpt>
      <trkpt lat="46.09212" lon="6.08774">
        <ele>654</ele>
        <time>2021-03-27T15:59:10Z</time>
      </trkpt>
      <trkpt lat="46.09216" lon="6.08786">
        <ele>653.6</ele>
        <time>2021-03-27T15:59:11Z</time>
      </trkpt>
      <trkpt lat="46.09223" lon="6.08797">
        <ele>653.2</ele>
        <time>2021-03-27T15:59:12Z</time>
      </trkpt>
      <trkpt lat="46.09231" lon="6.08805">
        <ele>653</ele>
        <time>2021-03-27T15:59:13Z</time>
      </trkpt>
      <trkpt lat="46.0924" lon="6.0881">
        <ele>652.4</ele>
        <time>2021-03-27T15:59:14Z</time>
      </trkpt>
      <trkpt lat="46.0925" lon="6.08813">
        <ele>652</ele>
        <time>2021-03-27T15:59:15Z</time>
      </trkpt>
      <trkpt lat="46.0926" lon="6.08814">
        <ele>651.8</ele>
        <time>2021-03-27T15:59:16Z</time>
      </trkpt>
      <trkpt lat="46.0927" lon="6.08815">
        <ele>651.4</ele>
        <time>2021-03-27T15:59:17Z</time>
      </trkpt>
      <trkpt lat="46.0928" lon="6.08816">
        <ele>651.2</ele>
        <time>2021-03-27T15:59:18Z</time>
      </trkpt>
      <trkpt lat="46.0929" lon="6.08816">
        <ele>650.6</ele>
        <time>2021-03-27T15:59:19Z</time>
      </trkpt>
      <trkpt lat="46.093" lon="6.08818">
        <ele>650.4</ele>
        <time>2021-03-27T15:59:20Z</time>
      </trkpt>
      <trkpt lat="46.0931" lon="6.08819">
        <ele>649.6</ele>
        <time>2021-03-27T15:59:21Z</time>
      </trkpt>
      <trkpt lat="46.09319" lon="6.0882">
        <ele>649</ele>
        <time>2021-03-27T15:59:22Z</time>
      </trkpt>
      <trkpt lat="46.09328" lon="6.08821">
        <ele>648.4</ele>
        <time>2021-03-27T15:59:23Z</time>
      </trkpt>
      <trkpt lat="46.09335" lon="6.08822">
        <ele>647.8</ele>
        <time>2021-03-27T15:59:24Z</time>
      </trkpt>
      <trkpt lat="46.09342" lon="6.08823">
        <ele>647.6</ele>
        <time>2021-03-27T15:59:25Z</time>
      </trkpt>
      <trkpt lat="46.09347" lon="6.08825">
        <ele>647</ele>
        <time>2021-03-27T15:59:26Z</time>
      </trkpt>
      <trkpt lat="46.09351" lon="6.0883">
        <ele>646.8</ele>
        <time>2021-03-27T15:59:27Z</time>
      </trkpt>
      <trkpt lat="46.09352" lon="6.08837">
        <ele>646.4</ele>
        <time>2021-03-27T15:59:28Z</time>
      </trkpt>
      <trkpt lat="46.09352" lon="6.08846">
        <ele>646.4</ele>
        <time>2021-03-27T15:59:29Z</time>
      </trkpt>
      <trkpt lat="46.09351" lon="6.08854">
        <ele>646.2</ele>
        <time>2021-03-27T15:59:30Z</time>
      </trkpt>
      <trkpt lat="46.0935" lon="6.08864">
        <ele>646</ele>
        <time>2021-03-27T15:59:31Z</time>
      </trkpt>
      <trkpt lat="46.09348" lon="6.08874">
        <ele>645.8</ele>
        <time>2021-03-27T15:59:32Z</time>
      </trkpt>
      <trkpt lat="46.09347" lon="6.08884">
        <ele>645.8</ele>
        <time>2021-03-27T15:59:33Z</time>
      </trkpt>
      <trkpt lat="46.09345" lon="6.08893">
        <ele>645.8</ele>
        <time>2021-03-27T15:59:34Z</time>
      </trkpt>
      <trkpt lat="46.09344" lon="6.08903">
        <ele>645.8</ele>
        <time>2021-03-27T15:59:35Z</time>
      </trkpt>
      <trkpt lat="46.09342" lon="6.08914">
        <ele>645.6</ele>
        <time>2021-03-27T15:59:36Z</time>
      </trkpt>
      <trkpt lat="46.0934" lon="6.08924">
        <ele>645.4</ele>
        <time>2021-03-27T15:59:37Z</time>
      </trkpt>
      <trkpt lat="46.09338" lon="6.08936">
        <ele>645.2</ele>
        <time>2021-03-27T15:59:38Z</time>
      </trkpt>
      <trkpt lat="46.09337" lon="6.08948">
        <ele>645</ele>
        <time>2021-03-27T15:59:39Z</time>
      </trkpt>
      <trkpt lat="46.09336" lon="6.08961">
        <ele>644.6</ele>
        <time>2021-03-27T15:59:40Z</time>
      </trkpt>
      <trkpt lat="46.09335" lon="6.08973">
        <ele>644.4</ele>
        <time>2021-03-27T15:59:41Z</time>
      </trkpt>
      <trkpt lat="46.09334" lon="6.08984">
        <ele>644.2</ele>
        <time>2021-03-27T15:59:42Z</time>
      </trkpt>
      <trkpt lat="46.09333" lon="6.08996">
        <ele>644</ele>
        <time>2021-03-27T15:59:43Z</time>
      </trkpt>
      <trkpt lat="46.09333" lon="6.09007">
        <ele>643.8</ele>
        <time>2021-03-27T15:59:44Z</time>
      </trkpt>
      <trkpt lat="46.09333" lon="6.09018">
        <ele>643.6</ele>
        <time>2021-03-27T15:59:45Z</time>
      </trkpt>
      <trkpt lat="46.09332" lon="6.09028">
        <ele>643.6</ele>
        <time>2021-03-27T15:59:46Z</time>
      </trkpt>
      <trkpt lat="46.09332" lon="6.09038">
        <ele>643.6</ele>
        <time>2021-03-27T15:59:47Z</time>
      </trkpt>
      <trkpt lat="46.09332" lon="6.09048">
        <ele>643.6</ele>
        <time>2021-03-27T15:59:48Z</time>
      </trkpt>
      <trkpt lat="46.09332" lon="6.09058">
        <ele>643.6</ele>
        <time>2021-03-27T15:59:49Z</time>
      </trkpt>
      <trkpt lat="46.09332" lon="6.09068">
        <ele>643.6</ele>
        <time>2021-03-27T15:59:50Z</time>
      </trkpt>
      <trkpt lat="46.09332" lon="6.09077">
        <ele>643.4</ele>
        <time>2021-03-27T15:59:51Z</time>
      </trkpt>
      <trkpt lat="46.09332" lon="6.09087">
        <ele>643.6</ele>
        <time>2021-03-27T15:59:52Z</time>
      </trkpt>
      <trkpt lat="46.09331" lon="6.09096">
        <ele>643.4</ele>
        <time>2021-03-27T15:59:53Z</time>
      </trkpt>
      <trkpt lat="46.09331" lon="6.09105">
        <ele>643.8</ele>
        <time>2021-03-27T15:59:54Z</time>
      </trkpt>
      <trkpt lat="46.09331" lon="6.09114">
        <ele>644.4</ele>
        <time>2021-03-27T15:59:55Z</time>
      </trkpt>
      <trkpt lat="46.09331" lon="6.09124">
        <ele>644.8</ele>
        <time>2021-03-27T15:59:56Z</time>
      </trkpt>
      <trkpt lat="46.09331" lon="6.09133">
        <ele>645.4</ele>
        <time>2021-03-27T15:59:57Z</time>
      </trkpt>
      <trkpt lat="46.09331" lon="6.09142">
        <ele>645.4</ele>
        <time>2021-03-27T15:59:58Z</time>
      </trkpt>
      <trkpt lat="46.09331" lon="6.09151">
        <ele>645.8</ele>
        <time>2021-03-27T15:59:59Z</time>
      </trkpt>
      <trkpt lat="46.09331" lon="6.0916">
        <ele>645.8</ele>
        <time>2021-03-27T16:00:00Z</time>
      </trkpt>
      <trkpt lat="46.09332" lon="6.09169">
        <ele>646.2</ele>
        <time>2021-03-27T16:00:01Z</time>
      </trkpt>
      <trkpt lat="46.09332" lon="6.09177">
        <ele>646.4</ele>
        <time>2021-03-27T16:00:02Z</time>
      </trkpt>
      <trkpt lat="46.09331" lon="6.09186">
        <ele>646.6</ele>
        <time>2021-03-27T16:00:03Z</time>
      </trkpt>
      <trkpt lat="46.09332" lon="6.09195">
        <ele>647.4</ele>
        <time>2021-03-27T16:00:04Z</time>
      </trkpt>
      <trkpt lat="46.09333" lon="6.09204">
        <ele>647.6</ele>
        <time>2021-03-27T16:00:05Z</time>
      </trkpt>
      <trkpt lat="46.09334" lon="6.09213">
        <ele>648</ele>
        <time>2021-03-27T16:00:06Z</time>
      </trkpt>
      <trkpt lat="46.09334" lon="6.09222">
        <ele>648.2</ele>
        <time>2021-03-27T16:00:07Z</time>
      </trkpt>
      <trkpt lat="46.09335" lon="6.09231">
        <ele>648.4</ele>
        <time>2021-03-27T16:00:08Z</time>
      </trkpt>
      <trkpt lat="46.09336" lon="6.0924">
        <ele>648.6</ele>
        <time>2021-03-27T16:00:09Z</time>
      </trkpt>
      <trkpt lat="46.09336" lon="6.09249">
        <ele>648.8</ele>
        <time>2021-03-27T16:00:10Z</time>
      </trkpt>
      <trkpt lat="46.09336" lon="6.09258">
        <ele>649</ele>
        <time>2021-03-27T16:00:11Z</time>
      </trkpt>
      <trkpt lat="46.09337" lon="6.09267">
        <ele>649.4</ele>
        <time>2021-03-27T16:00:12Z</time>
      </trkpt>
      <trkpt lat="46.09337" lon="6.09277">
        <ele>649.8</ele>
        <time>2021-03-27T16:00:13Z</time>
      </trkpt>
      <trkpt lat="46.09338" lon="6.09286">
        <ele>650</ele>
        <time>2021-03-27T16:00:14Z</time>
      </trkpt>
      <trkpt lat="46.09338" lon="6.09294">
        <ele>650.2</ele>
        <time>2021-03-27T16:00:15Z</time>
      </trkpt>
      <trkpt lat="46.09338" lon="6.09303">
        <ele>650.2</ele>
        <time>2021-03-27T16:00:16Z</time>
      </trkpt>
      <trkpt lat="46.09339" lon="6.09312">
        <ele>650.2</ele>
        <time>2021-03-27T16:00:17Z</time>
      </trkpt>
      <trkpt lat="46.09339" lon="6.09321">
        <ele>650.4</ele>
        <time>2021-03-27T16:00:18Z</time>
      </trkpt>
      <trkpt lat="46.0934" lon="6.09329">
        <ele>650.4</ele>
        <time>2021-03-27T16:00:19Z</time>
      </trkpt>
      <trkpt lat="46.0934" lon="6.09338">
        <ele>650.4</ele>
        <time>2021-03-27T16:00:20Z</time>
      </trkpt>
      <trkpt lat="46.0934" lon="6.09346">
        <ele>650.4</ele>
        <time>2021-03-27T16:00:21Z</time>
      </trkpt>
      <trkpt lat="46.0934" lon="6.09354">
        <ele>650.8</ele>
        <time>2021-03-27T16:00:22Z</time>
      </trkpt>
      <trkpt lat="46.09341" lon="6.09363">
        <ele>651.2</ele>
        <time>2021-03-27T16:00:23Z</time>
      </trkpt>
      <trkpt lat="46.09341" lon="6.09371">
        <ele>651.2</ele>
        <time>2021-03-27T16:00:24Z</time>
      </trkpt>
      <trkpt lat="46.09341" lon="6.09379">
        <ele>651.4</ele>
        <time>2021-03-27T16:00:25Z</time>
      </trkpt>
      <trkpt lat="46.09341" lon="6.09388">
        <ele>651.6</ele>
        <time>2021-03-27T16:00:26Z</time>
      </trkpt>
      <trkpt lat="46.09342" lon="6.09397">
        <ele>651.6</ele>
        <time>2021-03-27T16:00:27Z</time>
      </trkpt>
      <trkpt lat="46.09342" lon="6.09405">
        <ele>651.6</ele>
        <time>2021-03-27T16:00:28Z</time>
      </trkpt>
      <trkpt lat="46.09343" lon="6.09414">
        <ele>652</ele>
        <time>2021-03-27T16:00:29Z</time>
      </trkpt>
      <trkpt lat="46.09343" lon="6.09422">
        <ele>652.2</ele>
        <time>2021-03-27T16:00:30Z</time>
      </trkpt>
      <trkpt lat="46.09344" lon="6.0943">
        <ele>652.6</ele>
        <time>2021-03-27T16:00:31Z</time>
      </trkpt>
      <trkpt lat="46.09344" lon="6.09439">
        <ele>653</ele>
        <time>2021-03-27T16:00:32Z</time>
      </trkpt>
      <trkpt lat="46.09344" lon="6.09447">
        <ele>653.2</ele>
        <time>2021-03-27T16:00:33Z</time>
      </trkpt>
      <trkpt lat="46.09345" lon="6.09455">
        <ele>653.4</ele>
        <time>2021-03-27T16:00:34Z</time>
      </trkpt>
      <trkpt lat="46.09345" lon="6.09463">
        <ele>653.6</ele>
        <time>2021-03-27T16:00:35Z</time>
      </trkpt>
      <trkpt lat="46.09345" lon="6.09471">
        <ele>653.6</ele>
        <time>2021-03-27T16:00:36Z</time>
      </trkpt>
      <trkpt lat="46.09345" lon="6.09479">
        <ele>653.8</ele>
        <time>2021-03-27T16:00:37Z</time>
      </trkpt>
      <trkpt lat="46.09346" lon="6.09487">
        <ele>654.2</ele>
        <time>2021-03-27T16:00:38Z</time>
      </trkpt>
      <trkpt lat="46.09346" lon="6.09495">
        <ele>654.4</ele>
        <time>2021-03-27T16:00:39Z</time>
      </trkpt>
      <trkpt lat="46.09347" lon="6.09502">
        <ele>654.8</ele>
        <time>2021-03-27T16:00:40Z</time>
      </trkpt>
      <trkpt lat="46.09347" lon="6.0951">
        <ele>654.8</ele>
        <time>2021-03-27T16:00:41Z</time>
      </trkpt>
      <trkpt lat="46.09347" lon="6.09517">
        <ele>655</ele>
        <time>2021-03-27T16:00:42Z</time>
      </trkpt>
      <trkpt lat="46.09347" lon="6.09525">
        <ele>655.2</ele>
        <time>2021-03-27T16:00:43Z</time>
      </trkpt>
      <trkpt lat="46.09348" lon="6.09533">
        <ele>655</ele>
        <time>2021-03-27T16:00:44Z</time>
      </trkpt>
      <trkpt lat="46.09348" lon="6.0954">
        <ele>655.4</ele>
        <time>2021-03-27T16:00:45Z</time>
      </trkpt>
      <trkpt lat="46.09349" lon="6.09548">
        <ele>655.6</ele>
        <time>2021-03-27T16:00:46Z</time>
      </trkpt>
      <trkpt lat="46.09349" lon="6.09556">
        <ele>655.8</ele>
        <time>2021-03-27T16:00:47Z</time>
      </trkpt>
      <trkpt lat="46.09349" lon="6.09563">
        <ele>656</ele>
        <time>2021-03-27T16:00:48Z</time>
      </trkpt>
      <trkpt lat="46.0935" lon="6.09571">
        <ele>655.8</ele>
        <time>2021-03-27T16:00:49Z</time>
      </trkpt>
      <trkpt lat="46.0935" lon="6.09578">
        <ele>656</ele>
        <time>2021-03-27T16:00:50Z</time>
      </trkpt>
      <trkpt lat="46.0935" lon="6.09585">
        <ele>656.4</ele>
        <time>2021-03-27T16:00:51Z</time>
      </trkpt>
      <trkpt lat="46.09351" lon="6.09593">
        <ele>656.6</ele>
        <time>2021-03-27T16:00:52Z</time>
      </trkpt>
      <trkpt lat="46.09351" lon="6.096">
        <ele>657</ele>
        <time>2021-03-27T16:00:53Z</time>
      </trkpt>
      <trkpt lat="46.09351" lon="6.09607">
        <ele>657</ele>
        <time>2021-03-27T16:00:54Z</time>
      </trkpt>
      <trkpt lat="46.09351" lon="6.09615">
        <ele>657.2</ele>
        <time>2021-03-27T16:00:55Z</time>
      </trkpt>
      <trkpt lat="46.09352" lon="6.09622">
        <ele>657</ele>
        <time>2021-03-27T16:00:56Z</time>
      </trkpt>
      <trkpt lat="46.09352" lon="6.09629">
        <ele>657.2</ele>
        <time>2021-03-27T16:00:57Z</time>
      </trkpt>
      <trkpt lat="46.09352" lon="6.09636">
        <ele>657.4</ele>
        <time>2021-03-27T16:00:58Z</time>
      </trkpt>
      <trkpt lat="46.09352" lon="6.09643">
        <ele>657.8</ele>
        <time>2021-03-27T16:00:59Z</time>
      </trkpt>
      <trkpt lat="46.09353" lon="6.0965">
        <ele>658</ele>
        <time>2021-03-27T16:01:00Z</time>
      </trkpt>
      <trkpt lat="46.09353" lon="6.09656">
        <ele>658</ele>
        <time>2021-03-27T16:01:01Z</time>
      </trkpt>
      <trkpt lat="46.09353" lon="6.09663">
        <ele>658.2</ele>
        <time>2021-03-27T16:01:02Z</time>
      </trkpt>
      <trkpt lat="46.09353" lon="6.09669">
        <ele>658.6</ele>
        <time>2021-03-27T16:01:03Z</time>
      </trkpt>
      <trkpt lat="46.09353" lon="6.09675">
        <ele>658.8</ele>
        <time>2021-03-27T16:01:04Z</time>
      </trkpt>
      <trkpt lat="46.09353" lon="6.09681">
        <ele>659</ele>
        <time>2021-03-27T16:01:05Z</time>
      </trkpt>
      <trkpt lat="46.09353" lon="6.09688">
        <ele>659.2</ele>
        <time>2021-03-27T16:01:06Z</time>
      </trkpt>
      <trkpt lat="46.09354" lon="6.09695">
        <ele>659.6</ele>
        <time>2021-03-27T16:01:07Z</time>
      </trkpt>
      <trkpt lat="46.09354" lon="6.09701">
        <ele>660</ele>
        <time>2021-03-27T16:01:08Z</time>
      </trkpt>
      <trkpt lat="46.09355" lon="6.09708">
        <ele>660.2</ele>
        <time>2021-03-27T16:01:09Z</time>
      </trkpt>
      <trkpt lat="46.09355" lon="6.09714">
        <ele>660.4</ele>
        <time>2021-03-27T16:01:10Z</time>
      </trkpt>
      <trkpt lat="46.09356" lon="6.09721">
        <ele>660.4</ele>
        <time>2021-03-27T16:01:11Z</time>
      </trkpt>
      <trkpt lat="46.09356" lon="6.09728">
        <ele>660.6</ele>
        <time>2021-03-27T16:01:12Z</time>
      </trkpt>
      <trkpt lat="46.09357" lon="6.09735">
        <ele>660.6</ele>
        <time>2021-03-27T16:01:13Z</time>
      </trkpt>
      <trkpt lat="46.09357" lon="6.09742">
        <ele>661</ele>
        <time>2021-03-27T16:01:14Z</time>
      </trkpt>
      <trkpt lat="46.09357" lon="6.09749">
        <ele>661.2</ele>
        <time>2021-03-27T16:01:15Z</time>
      </trkpt>
      <trkpt lat="46.09358" lon="6.09756">
        <ele>661.2</ele>
        <time>2021-03-27T16:01:16Z</time>
      </trkpt>
      <trkpt lat="46.09358" lon="6.09763">
        <ele>661.6</ele>
        <time>2021-03-27T16:01:17Z</time>
      </trkpt>
      <trkpt lat="46.09359" lon="6.0977">
        <ele>661.4</ele>
        <time>2021-03-27T16:01:18Z</time>
      </trkpt>
      <trkpt lat="46.09359" lon="6.09777">
        <ele>662</ele>
        <time>2021-03-27T16:01:19Z</time>
      </trkpt>
      <trkpt lat="46.09359" lon="6.09784">
        <ele>662</ele>
        <time>2021-03-27T16:01:20Z</time>
      </trkpt>
      <trkpt lat="46.0936" lon="6.09791">
        <ele>662.2</ele>
        <time>2021-03-27T16:01:21Z</time>
      </trkpt>
      <trkpt lat="46.0936" lon="6.09798">
        <ele>662.4</ele>
        <time>2021-03-27T16:01:22Z</time>
      </trkpt>
      <trkpt lat="46.0936" lon="6.09805">
        <ele>662.6</ele>
        <time>2021-03-27T16:01:23Z</time>
      </trkpt>
      <trkpt lat="46.09361" lon="6.09812">
        <ele>662.8</ele>
        <time>2021-03-27T16:01:24Z</time>
      </trkpt>
      <trkpt lat="46.09361" lon="6.09819">
        <ele>663</ele>
        <time>2021-03-27T16:01:25Z</time>
      </trkpt>
      <trkpt lat="46.09362" lon="6.09826">
        <ele>663.2</ele>
        <time>2021-03-27T16:01:26Z</time>
      </trkpt>
      <trkpt lat="46.09362" lon="6.09833">
        <ele>663</ele>
        <time>2021-03-27T16:01:27Z</time>
      </trkpt>
      <trkpt lat="46.09363" lon="6.0984">
        <ele>663.2</ele>
        <time>2021-03-27T16:01:28Z</time>
      </trkpt>
      <trkpt lat="46.09363" lon="6.09848">
        <ele>663.6</ele>
        <time>2021-03-27T16:01:29Z</time>
      </trkpt>
      <trkpt lat="46.09363" lon="6.09855">
        <ele>663.8</ele>
        <time>2021-03-27T16:01:30Z</time>
      </trkpt>
      <trkpt lat="46.09363" lon="6.09862">
        <ele>663.8</ele>
        <time>2021-03-27T16:01:31Z</time>
      </trkpt>
      <trkpt lat="46.09364" lon="6.0987">
        <ele>664</ele>
        <time>2021-03-27T16:01:32Z</time>
      </trkpt>
      <trkpt lat="46.09364" lon="6.09877">
        <ele>664.2</ele>
        <time>2021-03-27T16:01:33Z</time>
      </trkpt>
      <trkpt lat="46.09365" lon="6.09884">
        <ele>664.2</ele>
        <time>2021-03-27T16:01:34Z</time>
      </trkpt>
      <trkpt lat="46.09365" lon="6.0989">
        <ele>664.4</ele>
        <time>2021-03-27T16:01:35Z</time>
      </trkpt>
      <trkpt lat="46.09365" lon="6.09897">
        <ele>664.6</ele>
        <time>2021-03-27T16:01:36Z</time>
      </trkpt>
      <trkpt lat="46.09366" lon="6.09905">
        <ele>664.8</ele>
        <time>2021-03-27T16:01:37Z</time>
      </trkpt>
      <trkpt lat="46.09366" lon="6.09912">
        <ele>665.2</ele>
        <time>2021-03-27T16:01:38Z</time>
      </trkpt>
      <trkpt lat="46.09366" lon="6.09919">
        <ele>665.2</ele>
        <time>2021-03-27T16:01:39Z</time>
      </trkpt>
      <trkpt lat="46.09367" lon="6.09926">
        <ele>665.2</ele>
        <time>2021-03-27T16:01:40Z</time>
      </trkpt>
      <trkpt lat="46.09367" lon="6.09933">
        <ele>665.4</ele>
        <time>2021-03-27T16:01:41Z</time>
      </trkpt>
      <trkpt lat="46.09368" lon="6.09941">
        <ele>665.4</ele>
        <time>2021-03-27T16:01:42Z</time>
      </trkpt>
      <trkpt lat="46.09368" lon="6.09948">
        <ele>665.6</ele>
        <time>2021-03-27T16:01:43Z</time>
      </trkpt>
      <trkpt lat="46.09368" lon="6.09955">
        <ele>666</ele>
        <time>2021-03-27T16:01:44Z</time>
      </trkpt>
      <trkpt lat="46.09368" lon="6.09962">
        <ele>666</ele>
        <time>2021-03-27T16:01:45Z</time>
      </trkpt>
      <trkpt lat="46.09369" lon="6.09969">
        <ele>666.4</ele>
        <time>2021-03-27T16:01:46Z</time>
      </trkpt>
      <trkpt lat="46.09369" lon="6.09976">
        <ele>666.4</ele>
        <time>2021-03-27T16:01:47Z</time>
      </trkpt>
      <trkpt lat="46.0937" lon="6.09983">
        <ele>666.6</ele>
        <time>2021-03-27T16:01:48Z</time>
      </trkpt>
      <trkpt lat="46.0937" lon="6.0999">
        <ele>666.8</ele>
        <time>2021-03-27T16:01:49Z</time>
      </trkpt>
      <trkpt lat="46.0937" lon="6.09997">
        <ele>667.2</ele>
        <time>2021-03-27T16:01:50Z</time>
      </trkpt>
      <trkpt lat="46.0937" lon="6.10004">
        <ele>667.2</ele>
        <time>2021-03-27T16:01:51Z</time>
      </trkpt>
      <trkpt lat="46.09371" lon="6.10011">
        <ele>667.6</ele>
        <time>2021-03-27T16:01:52Z</time>
      </trkpt>
      <trkpt lat="46.09371" lon="6.10019">
        <ele>667.8</ele>
        <time>2021-03-27T16:01:53Z</time>
      </trkpt>
      <trkpt lat="46.09372" lon="6.10026">
        <ele>668</ele>
        <time>2021-03-27T16:01:54Z</time>
      </trkpt>
      <trkpt lat="46.09372" lon="6.10033">
        <ele>668.2</ele>
        <time>2021-03-27T16:01:55Z</time>
      </trkpt>
      <trkpt lat="46.09372" lon="6.10039">
        <ele>668.2</ele>
        <time>2021-03-27T16:01:56Z</time>
      </trkpt>
      <trkpt lat="46.09372" lon="6.10046">
        <ele>668.6</ele>
        <time>2021-03-27T16:01:57Z</time>
      </trkpt>
      <trkpt lat="46.09372" lon="6.10053">
        <ele>668.6</ele>
        <time>2021-03-27T16:01:58Z</time>
      </trkpt>
      <trkpt lat="46.09372" lon="6.1006">
        <ele>669</ele>
        <time>2021-03-27T16:01:59Z</time>
      </trkpt>
      <trkpt lat="46.09372" lon="6.10066">
        <ele>669.2</ele>
        <time>2021-03-27T16:02:00Z</time>
      </trkpt>
      <trkpt lat="46.09372" lon="6.10073">
        <ele>669.4</ele>
        <time>2021-03-27T16:02:01Z</time>
      </trkpt>
      <trkpt lat="46.09372" lon="6.10079">
        <ele>669.6</ele>
        <time>2021-03-27T16:02:02Z</time>
      </trkpt>
      <trkpt lat="46.09372" lon="6.10085">
        <ele>669.6</ele>
        <time>2021-03-27T16:02:03Z</time>
      </trkpt>
      <trkpt lat="46.09372" lon="6.10092">
        <ele>670</ele>
        <time>2021-03-27T16:02:04Z</time>
      </trkpt>
      <trkpt lat="46.09373" lon="6.10098">
        <ele>670.4</ele>
        <time>2021-03-27T16:02:05Z</time>
      </trkpt>
      <trkpt lat="46.09373" lon="6.10104">
        <ele>670.6</ele>
        <time>2021-03-27T16:02:06Z</time>
      </trkpt>
      <trkpt lat="46.09373" lon="6.10111">
        <ele>671</ele>
        <time>2021-03-27T16:02:07Z</time>
      </trkpt>
      <trkpt lat="46.09373" lon="6.10117">
        <ele>671.2</ele>
        <time>2021-03-27T16:02:08Z</time>
      </trkpt>
      <trkpt lat="46.09373" lon="6.10123">
        <ele>671.2</ele>
        <time>2021-03-27T16:02:09Z</time>
      </trkpt>
      <trkpt lat="46.09373" lon="6.10129">
        <ele>671.4</ele>
        <time>2021-03-27T16:02:10Z</time>
      </trkpt>
      <trkpt lat="46.09374" lon="6.10136">
        <ele>671.6</ele>
        <time>2021-03-27T16:02:11Z</time>
      </trkpt>
      <trkpt lat="46.09374" lon="6.10143">
        <ele>671.8</ele>
        <time>2021-03-27T16:02:12Z</time>
      </trkpt>
      <trkpt lat="46.09375" lon="6.10149">
        <ele>671.8</ele>
        <time>2021-03-27T16:02:13Z</time>
      </trkpt>
      <trkpt lat="46.09375" lon="6.10156">
        <ele>672</ele>
        <time>2021-03-27T16:02:14Z</time>
      </trkpt>
      <trkpt lat="46.09375" lon="6.10163">
        <ele>672.2</ele>
        <time>2021-03-27T16:02:15Z</time>
      </trkpt>
      <trkpt lat="46.09376" lon="6.10169">
        <ele>672.2</ele>
        <time>2021-03-27T16:02:16Z</time>
      </trkpt>
      <trkpt lat="46.09376" lon="6.10176">
        <ele>672.2</ele>
        <time>2021-03-27T16:02:17Z</time>
      </trkpt>
      <trkpt lat="46.09376" lon="6.10182">
        <ele>672.6</ele>
        <time>2021-03-27T16:02:18Z</time>
      </trkpt>
      <trkpt lat="46.09376" lon="6.10188">
        <ele>672.8</ele>
        <time>2021-03-27T16:02:19Z</time>
      </trkpt>
      <trkpt lat="46.09376" lon="6.10194">
        <ele>673</ele>
        <time>2021-03-27T16:02:20Z</time>
      </trkpt>
      <trkpt lat="46.09377" lon="6.102">
        <ele>673.4</ele>
        <time>2021-03-27T16:02:21Z</time>
      </trkpt>
      <trkpt lat="46.09378" lon="6.10206">
        <ele>673.6</ele>
        <time>2021-03-27T16:02:22Z</time>
      </trkpt>
      <trkpt lat="46.09378" lon="6.10212">
        <ele>673.8</ele>
        <time>2021-03-27T16:02:23Z</time>
      </trkpt>
      <trkpt lat="46.09379" lon="6.10218">
        <ele>673.8</ele>
        <time>2021-03-27T16:02:24Z</time>
      </trkpt>
      <trkpt lat="46.09379" lon="6.10225">
        <ele>673.8</ele>
        <time>2021-03-27T16:02:25Z</time>
      </trkpt>
      <trkpt lat="46.0938" lon="6.10232">
        <ele>674</ele>
        <time>2021-03-27T16:02:26Z</time>
      </trkpt>
      <trkpt lat="46.0938" lon="6.10238">
        <ele>674</ele>
        <time>2021-03-27T16:02:27Z</time>
      </trkpt>
      <trkpt lat="46.09381" lon="6.10245">
        <ele>674</ele>
        <time>2021-03-27T16:02:28Z</time>
      </trkpt>
      <trkpt lat="46.09381" lon="6.10251">
        <ele>674.2</ele>
        <time>2021-03-27T16:02:29Z</time>
      </trkpt>
      <trkpt lat="46.09381" lon="6.10258">
        <ele>674.6</ele>
        <time>2021-03-27T16:02:30Z</time>
      </trkpt>
      <trkpt lat="46.09381" lon="6.10263">
        <ele>674.8</ele>
        <time>2021-03-27T16:02:31Z</time>
      </trkpt>
      <trkpt lat="46.09382" lon="6.1027">
        <ele>675</ele>
        <time>2021-03-27T16:02:32Z</time>
      </trkpt>
      <trkpt lat="46.09382" lon="6.10276">
        <ele>675.4</ele>
        <time>2021-03-27T16:02:33Z</time>
      </trkpt>
      <trkpt lat="46.09382" lon="6.10283">
        <ele>675.2</ele>
        <time>2021-03-27T16:02:34Z</time>
      </trkpt>
      <trkpt lat="46.09382" lon="6.10289">
        <ele>675.4</ele>
        <time>2021-03-27T16:02:35Z</time>
      </trkpt>
      <trkpt lat="46.09382" lon="6.10295">
        <ele>675.6</ele>
        <time>2021-03-27T16:02:36Z</time>
      </trkpt>
      <trkpt lat="46.09383" lon="6.103">
        <ele>676</ele>
        <time>2021-03-27T16:02:37Z</time>
      </trkpt>
      <trkpt lat="46.09383" lon="6.10306">
        <ele>676.2</ele>
        <time>2021-03-27T16:02:38Z</time>
      </trkpt>
      <trkpt lat="46.09383" lon="6.10312">
        <ele>676.4</ele>
        <time>2021-03-27T16:02:39Z</time>
      </trkpt>
      <trkpt lat="46.09383" lon="6.10318">
        <ele>676.6</ele>
        <time>2021-03-27T16:02:40Z</time>
      </trkpt>
      <trkpt lat="46.09384" lon="6.10324">
        <ele>676.8</ele>
        <time>2021-03-27T16:02:41Z</time>
      </trkpt>
      <trkpt lat="46.09384" lon="6.1033">
        <ele>677.2</ele>
        <time>2021-03-27T16:02:42Z</time>
      </trkpt>
      <trkpt lat="46.09384" lon="6.10335">
        <ele>677.4</ele>
        <time>2021-03-27T16:02:43Z</time>
      </trkpt>
      <trkpt lat="46.09385" lon="6.10341">
        <ele>677.6</ele>
        <time>2021-03-27T16:02:44Z</time>
      </trkpt>
      <trkpt lat="46.09385" lon="6.10346">
        <ele>677.8</ele>
        <time>2021-03-27T16:02:45Z</time>
      </trkpt>
      <trkpt lat="46.09385" lon="6.10351">
        <ele>678</ele>
        <time>2021-03-27T16:02:46Z</time>
      </trkpt>
      <trkpt lat="46.09385" lon="6.10356">
        <ele>678.2</ele>
        <time>2021-03-27T16:02:47Z</time>
      </trkpt>
      <trkpt lat="46.09384" lon="6.1036">
        <ele>678.4</ele>
        <time>2021-03-27T16:02:48Z</time>
      </trkpt>
      <trkpt lat="46.09384" lon="6.10364">
        <ele>678.8</ele>
        <time>2021-03-27T16:02:49Z</time>
      </trkpt>
      <trkpt lat="46.09383" lon="6.10368">
        <ele>678.8</ele>
        <time>2021-03-27T16:02:50Z</time>
      </trkpt>
      <trkpt lat="46.09382" lon="6.10371">
        <ele>679</ele>
        <time>2021-03-27T16:02:51Z</time>
      </trkpt>
      <trkpt lat="46.09381" lon="6.10374">
        <ele>679.2</ele>
        <time>2021-03-27T16:02:52Z</time>
      </trkpt>
      <trkpt lat="46.0938" lon="6.10377">
        <ele>679.4</ele>
        <time>2021-03-27T16:02:53Z</time>
      </trkpt>
      <trkpt lat="46.09379" lon="6.1038">
        <ele>679.6</ele>
        <time>2021-03-27T16:02:54Z</time>
      </trkpt>
      <trkpt lat="46.09379" lon="6.10383">
        <ele>679.8</ele>
        <time>2021-03-27T16:02:55Z</time>
      </trkpt>
      <trkpt lat="46.09379" lon="6.10386">
        <ele>680</ele>
        <time>2021-03-27T16:02:56Z</time>
      </trkpt>
      <trkpt lat="46.09379" lon="6.10388">
        <ele>680.2</ele>
        <time>2021-03-27T16:02:57Z</time>
      </trkpt>
      <trkpt lat="46.09379" lon="6.10391">
        <ele>680.4</ele>
        <time>2021-03-27T16:02:58Z</time>
      </trkpt>
      <trkpt lat="46.09379" lon="6.10394">
        <ele>680.4</ele>
        <time>2021-03-27T16:02:59Z</time>
      </trkpt>
      <trkpt lat="46.09379" lon="6.10399">
        <ele>680.6</ele>
        <time>2021-03-27T16:03:00Z</time>
      </trkpt>
      <trkpt lat="46.09379" lon="6.10404">
        <ele>680.8</ele>
        <time>2021-03-27T16:03:01Z</time>
      </trkpt>
      <trkpt lat="46.0938" lon="6.10409">
        <ele>680.8</ele>
        <time>2021-03-27T16:03:02Z</time>
      </trkpt>
      <trkpt lat="46.09381" lon="6.10414">
        <ele>680.8</ele>
        <time>2021-03-27T16:03:03Z</time>
      </trkpt>
      <trkpt lat="46.09383" lon="6.1042">
        <ele>681</ele>
        <time>2021-03-27T16:03:04Z</time>
      </trkpt>
      <trkpt lat="46.09385" lon="6.10425">
        <ele>681</ele>
        <time>2021-03-27T16:03:05Z</time>
      </trkpt>
      <trkpt lat="46.09388" lon="6.1043">
        <ele>681</ele>
        <time>2021-03-27T16:03:06Z</time>
      </trkpt>
      <trkpt lat="46.09392" lon="6.10433">
        <ele>681.4</ele>
        <time>2021-03-27T16:03:07Z</time>
      </trkpt>
      <trkpt lat="46.09396" lon="6.10435">
        <ele>681.2</ele>
        <time>2021-03-27T16:03:08Z</time>
      </trkpt>
      <trkpt lat="46.094" lon="6.10435">
        <ele>681.4</ele>
        <time>2021-03-27T16:03:09Z</time>
      </trkpt>
      <trkpt lat="46.09405" lon="6.10434">
        <ele>681.4</ele>
        <time>2021-03-27T16:03:10Z</time>
      </trkpt>
      <trkpt lat="46.0941" lon="6.10432">
        <ele>681.4</ele>
        <time>2021-03-27T16:03:11Z</time>
      </trkpt>
      <trkpt lat="46.09416" lon="6.10429">
        <ele>681.2</ele>
        <time>2021-03-27T16:03:12Z</time>
      </trkpt>
      <trkpt lat="46.09422" lon="6.10428">
        <ele>681.4</ele>
        <time>2021-03-27T16:03:13Z</time>
      </trkpt>
      <trkpt lat="46.09428" lon="6.1043">
        <ele>681.4</ele>
        <time>2021-03-27T16:03:14Z</time>
      </trkpt>
      <trkpt lat="46.09434" lon="6.10434">
        <ele>681.4</ele>
        <time>2021-03-27T16:03:15Z</time>
      </trkpt>
      <trkpt lat="46.09439" lon="6.10441">
        <ele>681.4</ele>
        <time>2021-03-27T16:03:16Z</time>
      </trkpt>
      <trkpt lat="46.09443" lon="6.10449">
        <ele>681.4</ele>
        <time>2021-03-27T16:03:17Z</time>
      </trkpt>
      <trkpt lat="46.09446" lon="6.10457">
        <ele>681.2</ele>
        <time>2021-03-27T16:03:18Z</time>
      </trkpt>
      <trkpt lat="46.09449" lon="6.10466">
        <ele>681.4</ele>
        <time>2021-03-27T16:03:19Z</time>
      </trkpt>
      <trkpt lat="46.09452" lon="6.10474">
        <ele>681.4</ele>
        <time>2021-03-27T16:03:20Z</time>
      </trkpt>
      <trkpt lat="46.09455" lon="6.10482">
        <ele>680.8</ele>
        <time>2021-03-27T16:03:21Z</time>
      </trkpt>
      <trkpt lat="46.09457" lon="6.1049">
        <ele>680.4</ele>
        <time>2021-03-27T16:03:22Z</time>
      </trkpt>
      <trkpt lat="46.0946" lon="6.10497">
        <ele>680</ele>
        <time>2021-03-27T16:03:23Z</time>
      </trkpt>
      <trkpt lat="46.09462" lon="6.10505">
        <ele>679.6</ele>
        <time>2021-03-27T16:03:24Z</time>
      </trkpt>
      <trkpt lat="46.09465" lon="6.10512">
        <ele>679.4</ele>
        <time>2021-03-27T16:03:25Z</time>
      </trkpt>
      <trkpt lat="46.09468" lon="6.10519">
        <ele>679.2</ele>
        <time>2021-03-27T16:03:26Z</time>
      </trkpt>
      <trkpt lat="46.09471" lon="6.10526">
        <ele>679</ele>
        <time>2021-03-27T16:03:27Z</time>
      </trkpt>
      <trkpt lat="46.09475" lon="6.10533">
        <ele>679.2</ele>
        <time>2021-03-27T16:03:28Z</time>
      </trkpt>
      <trkpt lat="46.09478" lon="6.10539">
        <ele>679</ele>
        <time>2021-03-27T16:03:29Z</time>
      </trkpt>
      <trkpt lat="46.09482" lon="6.10545">
        <ele>679</ele>
        <time>2021-03-27T16:03:30Z</time>
      </trkpt>
      <trkpt lat="46.09487" lon="6.10551">
        <ele>679</ele>
        <time>2021-03-27T16:03:31Z</time>
      </trkpt>
      <trkpt lat="46.09491" lon="6.10556">
        <ele>678.8</ele>
        <time>2021-03-27T16:03:32Z</time>
      </trkpt>
      <trkpt lat="46.09495" lon="6.10561">
        <ele>678.8</ele>
        <time>2021-03-27T16:03:33Z</time>
      </trkpt>
      <trkpt lat="46.095" lon="6.10567">
        <ele>678.8</ele>
        <time>2021-03-27T16:03:34Z</time>
      </trkpt>
      <trkpt lat="46.09504" lon="6.10573">
        <ele>678.6</ele>
        <time>2021-03-27T16:03:35Z</time>
      </trkpt>
      <trkpt lat="46.09508" lon="6.10578">
        <ele>678.6</ele>
        <time>2021-03-27T16:03:36Z</time>
      </trkpt>
      <trkpt lat="46.09512" lon="6.10584">
        <ele>678.8</ele>
        <time>2021-03-27T16:03:37Z</time>
      </trkpt>
      <trkpt lat="46.09517" lon="6.1059">
        <ele>678.8</ele>
        <time>2021-03-27T16:03:38Z</time>
      </trkpt>
      <trkpt lat="46.09521" lon="6.10596">
        <ele>678.6</ele>
        <time>2021-03-27T16:03:39Z</time>
      </trkpt>
      <trkpt lat="46.09525" lon="6.10602">
        <ele>678.2</ele>
        <time>2021-03-27T16:03:40Z</time>
      </trkpt>
      <trkpt lat="46.09529" lon="6.10608">
        <ele>678.2</ele>
        <time>2021-03-27T16:03:41Z</time>
      </trkpt>
      <trkpt lat="46.09533" lon="6.10613">
        <ele>678</ele>
        <time>2021-03-27T16:03:42Z</time>
      </trkpt>
      <trkpt lat="46.09538" lon="6.1062">
        <ele>677.8</ele>
        <time>2021-03-27T16:03:43Z</time>
      </trkpt>
      <trkpt lat="46.09542" lon="6.10626">
        <ele>677.6</ele>
        <time>2021-03-27T16:03:44Z</time>
      </trkpt>
      <trkpt lat="46.09546" lon="6.10633">
        <ele>677.2</ele>
        <time>2021-03-27T16:03:45Z</time>
      </trkpt>
      <trkpt lat="46.0955" lon="6.1064">
        <ele>677.2</ele>
        <time>2021-03-27T16:03:46Z</time>
      </trkpt>
      <trkpt lat="46.09555" lon="6.10648">
        <ele>677.2</ele>
        <time>2021-03-27T16:03:47Z</time>
      </trkpt>
      <trkpt lat="46.09559" lon="6.10655">
        <ele>677</ele>
        <time>2021-03-27T16:03:48Z</time>
      </trkpt>
      <trkpt lat="46.09563" lon="6.10663">
        <ele>676.8</ele>
        <time>2021-03-27T16:03:49Z</time>
      </trkpt>
      <trkpt lat="46.09568" lon="6.10671">
        <ele>676.8</ele>
        <time>2021-03-27T16:03:50Z</time>
      </trkpt>
      <trkpt lat="46.09572" lon="6.1068">
        <ele>676.8</ele>
        <time>2021-03-27T16:03:51Z</time>
      </trkpt>
      <trkpt lat="46.09577" lon="6.10688">
        <ele>676.8</ele>
        <time>2021-03-27T16:03:52Z</time>
      </trkpt>
      <trkpt lat="46.09582" lon="6.10695">
        <ele>676.6</ele>
        <time>2021-03-27T16:03:53Z</time>
      </trkpt>
      <trkpt lat="46.09588" lon="6.10701">
        <ele>676.6</ele>
        <time>2021-03-27T16:03:54Z</time>
      </trkpt>
      <trkpt lat="46.09593" lon="6.10706">
        <ele>676.4</ele>
        <time>2021-03-27T16:03:55Z</time>
      </trkpt>
      <trkpt lat="46.09599" lon="6.10712">
        <ele>676.4</ele>
        <time>2021-03-27T16:03:56Z</time>
      </trkpt>
      <trkpt lat="46.09605" lon="6.10717">
        <ele>676</ele>
        <time>2021-03-27T16:03:57Z</time>
      </trkpt>
      <trkpt lat="46.0961" lon="6.10722">
        <ele>675.8</ele>
        <time>2021-03-27T16:03:58Z</time>
      </trkpt>
      <trkpt lat="46.09616" lon="6.10727">
        <ele>675.6</ele>
        <time>2021-03-27T16:03:59Z</time>
      </trkpt>
      <trkpt lat="46.09622" lon="6.10732">
        <ele>675.6</ele>
        <time>2021-03-27T16:04:00Z</time>
      </trkpt>
      <trkpt lat="46.09627" lon="6.10737">
        <ele>675.4</ele>
        <time>2021-03-27T16:04:01Z</time>
      </trkpt>
      <trkpt lat="46.09632" lon="6.10741">
        <ele>675</ele>
        <time>2021-03-27T16:04:02Z</time>
      </trkpt>
      <trkpt lat="46.09638" lon="6.10746">
        <ele>674.8</ele>
        <time>2021-03-27T16:04:03Z</time>
      </trkpt>
      <trkpt lat="46.09643" lon="6.1075">
        <ele>674.2</ele>
        <time>2021-03-27T16:04:04Z</time>
      </trkpt>
      <trkpt lat="46.09647" lon="6.10754">
        <ele>674.2</ele>
        <time>2021-03-27T16:04:05Z</time>
      </trkpt>
      <trkpt lat="46.09652" lon="6.10758">
        <ele>674.2</ele>
        <time>2021-03-27T16:04:06Z</time>
      </trkpt>
      <trkpt lat="46.09657" lon="6.10762">
        <ele>674</ele>
        <time>2021-03-27T16:04:07Z</time>
      </trkpt>
      <trkpt lat="46.09662" lon="6.10766">
        <ele>673.8</ele>
        <time>2021-03-27T16:04:08Z</time>
      </trkpt>
      <trkpt lat="46.09667" lon="6.10771">
        <ele>674</ele>
        <time>2021-03-27T16:04:09Z</time>
      </trkpt>
      <trkpt lat="46.09672" lon="6.10775">
        <ele>674</ele>
        <time>2021-03-27T16:04:10Z</time>
      </trkpt>
      <trkpt lat="46.09677" lon="6.1078">
        <ele>674</ele>
        <time>2021-03-27T16:04:11Z</time>
      </trkpt>
      <trkpt lat="46.09682" lon="6.10784">
        <ele>673.8</ele>
        <time>2021-03-27T16:04:12Z</time>
      </trkpt>
      <trkpt lat="46.09687" lon="6.10789">
        <ele>674</ele>
        <time>2021-03-27T16:04:13Z</time>
      </trkpt>
      <trkpt lat="46.09692" lon="6.10794">
        <ele>673.8</ele>
        <time>2021-03-27T16:04:14Z</time>
      </trkpt>
      <trkpt lat="46.09698" lon="6.10798">
        <ele>673.8</ele>
        <time>2021-03-27T16:04:15Z</time>
      </trkpt>
      <trkpt lat="46.09703" lon="6.10803">
        <ele>673.8</ele>
        <time>2021-03-27T16:04:16Z</time>
      </trkpt>
      <trkpt lat="46.09708" lon="6.10808">
        <ele>673.8</ele>
        <time>2021-03-27T16:04:17Z</time>
      </trkpt>
      <trkpt lat="46.09714" lon="6.10813">
        <ele>673.8</ele>
        <time>2021-03-27T16:04:18Z</time>
      </trkpt>
      <trkpt lat="46.09719" lon="6.10818">
        <ele>673.8</ele>
        <time>2021-03-27T16:04:19Z</time>
      </trkpt>
      <trkpt lat="46.09724" lon="6.10823">
        <ele>673.6</ele>
        <time>2021-03-27T16:04:20Z</time>
      </trkpt>
      <trkpt lat="46.0973" lon="6.10828">
        <ele>673.6</ele>
        <time>2021-03-27T16:04:21Z</time>
      </trkpt>
      <trkpt lat="46.09735" lon="6.10833">
        <ele>673.4</ele>
        <time>2021-03-27T16:04:22Z</time>
      </trkpt>
      <trkpt lat="46.0974" lon="6.10838">
        <ele>673.4</ele>
        <time>2021-03-27T16:04:23Z</time>
      </trkpt>
      <trkpt lat="46.09746" lon="6.10843">
        <ele>673.4</ele>
        <time>2021-03-27T16:04:24Z</time>
      </trkpt>
      <trkpt lat="46.09751" lon="6.10847">
        <ele>673.4</ele>
        <time>2021-03-27T16:04:25Z</time>
      </trkpt>
      <trkpt lat="46.09757" lon="6.10852">
        <ele>673.4</ele>
        <time>2021-03-27T16:04:26Z</time>
      </trkpt>
      <trkpt lat="46.09762" lon="6.10858">
        <ele>673.4</ele>
        <time>2021-03-27T16:04:27Z</time>
      </trkpt>
      <trkpt lat="46.09767" lon="6.10863">
        <ele>673.4</ele>
        <time>2021-03-27T16:04:28Z</time>
      </trkpt>
      <trkpt lat="46.09773" lon="6.10868">
        <ele>673.4</ele>
        <time>2021-03-27T16:04:29Z</time>
      </trkpt>
      <trkpt lat="46.09778" lon="6.10873">
        <ele>673.4</ele>
        <time>2021-03-27T16:04:30Z</time>
      </trkpt>
      <trkpt lat="46.09784" lon="6.10879">
        <ele>673.4</ele>
        <time>2021-03-27T16:04:31Z</time>
      </trkpt>
      <trkpt lat="46.0979" lon="6.10884">
        <ele>673.4</ele>
        <time>2021-03-27T16:04:32Z</time>
      </trkpt>
      <trkpt lat="46.09795" lon="6.10889">
        <ele>673.2</ele>
        <time>2021-03-27T16:04:33Z</time>
      </trkpt>
      <trkpt lat="46.09801" lon="6.10895">
        <ele>673.2</ele>
        <time>2021-03-27T16:04:34Z</time>
      </trkpt>
      <trkpt lat="46.09807" lon="6.109">
        <ele>673.2</ele>
        <time>2021-03-27T16:04:35Z</time>
      </trkpt>
      <trkpt lat="46.09813" lon="6.10904">
        <ele>673.2</ele>
        <time>2021-03-27T16:04:36Z</time>
      </trkpt>
      <trkpt lat="46.09819" lon="6.10908">
        <ele>673.2</ele>
        <time>2021-03-27T16:04:37Z</time>
      </trkpt>
      <trkpt lat="46.09825" lon="6.10911">
        <ele>673.2</ele>
        <time>2021-03-27T16:04:38Z</time>
      </trkpt>
      <trkpt lat="46.09831" lon="6.10915">
        <ele>673.2</ele>
        <time>2021-03-27T16:04:39Z</time>
      </trkpt>
      <trkpt lat="46.09836" lon="6.10919">
        <ele>673.2</ele>
        <time>2021-03-27T16:04:40Z</time>
      </trkpt>
      <trkpt lat="46.09842" lon="6.10923">
        <ele>673.2</ele>
        <time>2021-03-27T16:04:41Z</time>
      </trkpt>
      <trkpt lat="46.09848" lon="6.10927">
        <ele>673.2</ele>
        <time>2021-03-27T16:04:42Z</time>
      </trkpt>
      <trkpt lat="46.09854" lon="6.10932">
        <ele>673.2</ele>
        <time>2021-03-27T16:04:43Z</time>
      </trkpt>
      <trkpt lat="46.09859" lon="6.10937">
        <ele>673.2</ele>
        <time>2021-03-27T16:04:44Z</time>
      </trkpt>
      <trkpt lat="46.09865" lon="6.10942">
        <ele>673</ele>
        <time>2021-03-27T16:04:45Z</time>
      </trkpt>
      <trkpt lat="46.0987" lon="6.10947">
        <ele>673.2</ele>
        <time>2021-03-27T16:04:46Z</time>
      </trkpt>
      <trkpt lat="46.09876" lon="6.10953">
        <ele>673.2</ele>
        <time>2021-03-27T16:04:47Z</time>
      </trkpt>
      <trkpt lat="46.09881" lon="6.10959">
        <ele>673.2</ele>
        <time>2021-03-27T16:04:48Z</time>
      </trkpt>
      <trkpt lat="46.09886" lon="6.10965">
        <ele>673.2</ele>
        <time>2021-03-27T16:04:49Z</time>
      </trkpt>
      <trkpt lat="46.09891" lon="6.10971">
        <ele>673.2</ele>
        <time>2021-03-27T16:04:50Z</time>
      </trkpt>
      <trkpt lat="46.09895" lon="6.10977">
        <ele>673.2</ele>
        <time>2021-03-27T16:04:51Z</time>
      </trkpt>
      <trkpt lat="46.099" lon="6.10983">
        <ele>673.2</ele>
        <time>2021-03-27T16:04:52Z</time>
      </trkpt>
      <trkpt lat="46.09905" lon="6.10989">
        <ele>673.2</ele>
        <time>2021-03-27T16:04:53Z</time>
      </trkpt>
      <trkpt lat="46.09909" lon="6.10996">
        <ele>673.2</ele>
        <time>2021-03-27T16:04:54Z</time>
      </trkpt>
      <trkpt lat="46.09914" lon="6.11002">
        <ele>673.2</ele>
        <time>2021-03-27T16:04:55Z</time>
      </trkpt>
      <trkpt lat="46.09919" lon="6.11009">
        <ele>673.2</ele>
        <time>2021-03-27T16:04:56Z</time>
      </trkpt>
      <trkpt lat="46.09923" lon="6.11015">
        <ele>673.4</ele>
        <time>2021-03-27T16:04:57Z</time>
      </trkpt>
      <trkpt lat="46.09928" lon="6.11021">
        <ele>673.4</ele>
        <time>2021-03-27T16:04:58Z</time>
      </trkpt>
      <trkpt lat="46.09932" lon="6.11026">
        <ele>673.6</ele>
        <time>2021-03-27T16:04:59Z</time>
      </trkpt>
      <trkpt lat="46.09937" lon="6.11032">
        <ele>673.6</ele>
        <time>2021-03-27T16:05:00Z</time>
      </trkpt>
      <trkpt lat="46.09942" lon="6.11037">
        <ele>673.8</ele>
        <time>2021-03-27T16:05:01Z</time>
      </trkpt>
      <trkpt lat="46.09947" lon="6.11042">
        <ele>673.8</ele>
        <time>2021-03-27T16:05:02Z</time>
      </trkpt>
      <trkpt lat="46.09951" lon="6.11047">
        <ele>674</ele>
        <time>2021-03-27T16:05:03Z</time>
      </trkpt>
      <trkpt lat="46.09956" lon="6.11052">
        <ele>674.2</ele>
        <time>2021-03-27T16:05:04Z</time>
      </trkpt>
      <trkpt lat="46.09961" lon="6.11057">
        <ele>674</ele>
        <time>2021-03-27T16:05:05Z</time>
      </trkpt>
      <trkpt lat="46.09965" lon="6.11062">
        <ele>674.4</ele>
        <time>2021-03-27T16:05:06Z</time>
      </trkpt>
      <trkpt lat="46.0997" lon="6.11066">
        <ele>674.6</ele>
        <time>2021-03-27T16:05:07Z</time>
      </trkpt>
      <trkpt lat="46.09975" lon="6.11071">
        <ele>674.8</ele>
        <time>2021-03-27T16:05:08Z</time>
      </trkpt>
      <trkpt lat="46.09979" lon="6.11075">
        <ele>675</ele>
        <time>2021-03-27T16:05:09Z</time>
      </trkpt>
      <trkpt lat="46.09983" lon="6.11079">
        <ele>675.2</ele>
        <time>2021-03-27T16:05:10Z</time>
      </trkpt>
      <trkpt lat="46.09987" lon="6.11083">
        <ele>675.4</ele>
        <time>2021-03-27T16:05:11Z</time>
      </trkpt>
      <trkpt lat="46.09992" lon="6.11088">
        <ele>675.6</ele>
        <time>2021-03-27T16:05:12Z</time>
      </trkpt>
      <trkpt lat="46.09996" lon="6.11092">
        <ele>676</ele>
        <time>2021-03-27T16:05:13Z</time>
      </trkpt>
      <trkpt lat="46.1" lon="6.11096">
        <ele>676.4</ele>
        <time>2021-03-27T16:05:14Z</time>
      </trkpt>
      <trkpt lat="46.10003" lon="6.111">
        <ele>676.6</ele>
        <time>2021-03-27T16:05:15Z</time>
      </trkpt>
      <trkpt lat="46.10009" lon="6.11106">
        <ele>676.8</ele>
        <time>2021-03-27T16:05:17Z</time>
      </trkpt>
      <trkpt lat="46.10012" lon="6.1111">
        <ele>677.2</ele>
        <time>2021-03-27T16:05:18Z</time>
      </trkpt>
      <trkpt lat="46.10015" lon="6.11114">
        <ele>677.4</ele>
        <time>2021-03-27T16:05:19Z</time>
      </trkpt>
      <trkpt lat="46.10019" lon="6.11118">
        <ele>677.8</ele>
        <time>2021-03-27T16:05:20Z</time>
      </trkpt>
      <trkpt lat="46.10023" lon="6.11122">
        <ele>678</ele>
        <time>2021-03-27T16:05:21Z</time>
      </trkpt>
      <trkpt lat="46.10026" lon="6.11126">
        <ele>678.2</ele>
        <time>2021-03-27T16:05:22Z</time>
      </trkpt>
      <trkpt lat="46.1003" lon="6.1113">
        <ele>678.6</ele>
        <time>2021-03-27T16:05:23Z</time>
      </trkpt>
      <trkpt lat="46.10034" lon="6.11134">
        <ele>679</ele>
        <time>2021-03-27T16:05:24Z</time>
      </trkpt>
      <trkpt lat="46.10037" lon="6.11138">
        <ele>679.4</ele>
        <time>2021-03-27T16:05:25Z</time>
      </trkpt>
      <trkpt lat="46.10041" lon="6.11143">
        <ele>679.4</ele>
        <time>2021-03-27T16:05:26Z</time>
      </trkpt>
      <trkpt lat="46.10045" lon="6.11147">
        <ele>679.8</ele>
        <time>2021-03-27T16:05:27Z</time>
      </trkpt>
      <trkpt lat="46.10049" lon="6.11151">
        <ele>680</ele>
        <time>2021-03-27T16:05:28Z</time>
      </trkpt>
      <trkpt lat="46.10053" lon="6.11155">
        <ele>680.2</ele>
        <time>2021-03-27T16:05:29Z</time>
      </trkpt>
      <trkpt lat="46.10057" lon="6.1116">
        <ele>680.2</ele>
        <time>2021-03-27T16:05:30Z</time>
      </trkpt>
      <trkpt lat="46.1006" lon="6.11164">
        <ele>680.2</ele>
        <time>2021-03-27T16:05:31Z</time>
      </trkpt>
      <trkpt lat="46.10064" lon="6.11169">
        <ele>680.4</ele>
        <time>2021-03-27T16:05:32Z</time>
      </trkpt>
      <trkpt lat="46.10068" lon="6.11174">
        <ele>680.6</ele>
        <time>2021-03-27T16:05:33Z</time>
      </trkpt>
      <trkpt lat="46.10071" lon="6.11178">
        <ele>680.6</ele>
        <time>2021-03-27T16:05:34Z</time>
      </trkpt>
      <trkpt lat="46.10075" lon="6.11183">
        <ele>680.8</ele>
        <time>2021-03-27T16:05:35Z</time>
      </trkpt>
      <trkpt lat="46.10078" lon="6.11188">
        <ele>680.8</ele>
        <time>2021-03-27T16:05:36Z</time>
      </trkpt>
      <trkpt lat="46.10082" lon="6.11192">
        <ele>680.8</ele>
        <time>2021-03-27T16:05:37Z</time>
      </trkpt>
      <trkpt lat="46.10085" lon="6.11197">
        <ele>681</ele>
        <time>2021-03-27T16:05:38Z</time>
      </trkpt>
      <trkpt lat="46.10089" lon="6.11201">
        <ele>681.2</ele>
        <time>2021-03-27T16:05:39Z</time>
      </trkpt>
      <trkpt lat="46.10093" lon="6.11204">
        <ele>681.2</ele>
        <time>2021-03-27T16:05:40Z</time>
      </trkpt>
      <trkpt lat="46.10097" lon="6.11207">
        <ele>681.2</ele>
        <time>2021-03-27T16:05:41Z</time>
      </trkpt>
      <trkpt lat="46.10101" lon="6.1121">
        <ele>681.4</ele>
        <time>2021-03-27T16:05:42Z</time>
      </trkpt>
      <trkpt lat="46.10105" lon="6.11213">
        <ele>681.4</ele>
        <time>2021-03-27T16:05:43Z</time>
      </trkpt>
      <trkpt lat="46.1011" lon="6.11215">
        <ele>681.8</ele>
        <time>2021-03-27T16:05:44Z</time>
      </trkpt>
      <trkpt lat="46.10114" lon="6.11217">
        <ele>681.8</ele>
        <time>2021-03-27T16:05:45Z</time>
      </trkpt>
      <trkpt lat="46.10118" lon="6.11219">
        <ele>682.2</ele>
        <time>2021-03-27T16:05:46Z</time>
      </trkpt>
      <trkpt lat="46.10122" lon="6.11221">
        <ele>682.2</ele>
        <time>2021-03-27T16:05:47Z</time>
      </trkpt>
      <trkpt lat="46.10127" lon="6.11223">
        <ele>682.6</ele>
        <time>2021-03-27T16:05:48Z</time>
      </trkpt>
      <trkpt lat="46.10131" lon="6.11224">
        <ele>682.8</ele>
        <time>2021-03-27T16:05:49Z</time>
      </trkpt>
      <trkpt lat="46.10135" lon="6.11226">
        <ele>683</ele>
        <time>2021-03-27T16:05:50Z</time>
      </trkpt>
      <trkpt lat="46.1014" lon="6.11227">
        <ele>683</ele>
        <time>2021-03-27T16:05:51Z</time>
      </trkpt>
      <trkpt lat="46.10144" lon="6.11228">
        <ele>683.2</ele>
        <time>2021-03-27T16:05:52Z</time>
      </trkpt>
      <trkpt lat="46.10149" lon="6.1123">
        <ele>683.6</ele>
        <time>2021-03-27T16:05:53Z</time>
      </trkpt>
      <trkpt lat="46.10153" lon="6.11231">
        <ele>683.6</ele>
        <time>2021-03-27T16:05:54Z</time>
      </trkpt>
      <trkpt lat="46.10157" lon="6.11233">
        <ele>683.8</ele>
        <time>2021-03-27T16:05:55Z</time>
      </trkpt>
      <trkpt lat="46.10162" lon="6.11234">
        <ele>684.2</ele>
        <time>2021-03-27T16:05:56Z</time>
      </trkpt>
      <trkpt lat="46.10166" lon="6.11235">
        <ele>684.4</ele>
        <time>2021-03-27T16:05:57Z</time>
      </trkpt>
      <trkpt lat="46.10171" lon="6.11236">
        <ele>684.4</ele>
        <time>2021-03-27T16:05:58Z</time>
      </trkpt>
      <trkpt lat="46.10175" lon="6.11237">
        <ele>684.6</ele>
        <time>2021-03-27T16:05:59Z</time>
      </trkpt>
      <trkpt lat="46.10179" lon="6.11238">
        <ele>684.6</ele>
        <time>2021-03-27T16:06:00Z</time>
      </trkpt>
      <trkpt lat="46.10184" lon="6.11239">
        <ele>684.8</ele>
        <time>2021-03-27T16:06:01Z</time>
      </trkpt>
      <trkpt lat="46.10188" lon="6.1124">
        <ele>685</ele>
        <time>2021-03-27T16:06:02Z</time>
      </trkpt>
      <trkpt lat="46.10192" lon="6.1124">
        <ele>685</ele>
        <time>2021-03-27T16:06:03Z</time>
      </trkpt>
      <trkpt lat="46.10197" lon="6.11241">
        <ele>685.6</ele>
        <time>2021-03-27T16:06:04Z</time>
      </trkpt>
      <trkpt lat="46.10201" lon="6.11241">
        <ele>685.6</ele>
        <time>2021-03-27T16:06:05Z</time>
      </trkpt>
      <trkpt lat="46.10205" lon="6.11241">
        <ele>685.8</ele>
        <time>2021-03-27T16:06:06Z</time>
      </trkpt>
      <trkpt lat="46.10209" lon="6.11241">
        <ele>686</ele>
        <time>2021-03-27T16:06:07Z</time>
      </trkpt>
      <trkpt lat="46.10214" lon="6.11241">
        <ele>686</ele>
        <time>2021-03-27T16:06:08Z</time>
      </trkpt>
      <trkpt lat="46.10218" lon="6.11242">
        <ele>686.4</ele>
        <time>2021-03-27T16:06:09Z</time>
      </trkpt>
      <trkpt lat="46.10222" lon="6.11242">
        <ele>686.6</ele>
        <time>2021-03-27T16:06:10Z</time>
      </trkpt>
      <trkpt lat="46.10226" lon="6.11242">
        <ele>686.8</ele>
        <time>2021-03-27T16:06:11Z</time>
      </trkpt>
      <trkpt lat="46.1023" lon="6.11242">
        <ele>687</ele>
        <time>2021-03-27T16:06:12Z</time>
      </trkpt>
      <trkpt lat="46.10235" lon="6.11242">
        <ele>687.2</ele>
        <time>2021-03-27T16:06:13Z</time>
      </trkpt>
      <trkpt lat="46.10239" lon="6.11242">
        <ele>687.4</ele>
        <time>2021-03-27T16:06:14Z</time>
      </trkpt>
      <trkpt lat="46.10243" lon="6.11243">
        <ele>687.6</ele>
        <time>2021-03-27T16:06:15Z</time>
      </trkpt>
      <trkpt lat="46.10247" lon="6.11243">
        <ele>687.8</ele>
        <time>2021-03-27T16:06:16Z</time>
      </trkpt>
      <trkpt lat="46.10251" lon="6.11243">
        <ele>688</ele>
        <time>2021-03-27T16:06:17Z</time>
      </trkpt>
      <trkpt lat="46.10255" lon="6.11243">
        <ele>688</ele>
        <time>2021-03-27T16:06:18Z</time>
      </trkpt>
      <trkpt lat="46.10259" lon="6.11244">
        <ele>688.4</ele>
        <time>2021-03-27T16:06:19Z</time>
      </trkpt>
      <trkpt lat="46.10264" lon="6.11244">
        <ele>688.6</ele>
        <time>2021-03-27T16:06:20Z</time>
      </trkpt>
      <trkpt lat="46.10268" lon="6.11245">
        <ele>689</ele>
        <time>2021-03-27T16:06:21Z</time>
      </trkpt>
      <trkpt lat="46.10272" lon="6.11246">
        <ele>689.2</ele>
        <time>2021-03-27T16:06:22Z</time>
      </trkpt>
      <trkpt lat="46.10276" lon="6.11246">
        <ele>689.6</ele>
        <time>2021-03-27T16:06:23Z</time>
      </trkpt>
      <trkpt lat="46.1028" lon="6.11247">
        <ele>689.6</ele>
        <time>2021-03-27T16:06:24Z</time>
      </trkpt>
      <trkpt lat="46.10284" lon="6.11249">
        <ele>689.8</ele>
        <time>2021-03-27T16:06:25Z</time>
      </trkpt>
      <trkpt lat="46.10288" lon="6.1125">
        <ele>689.8</ele>
        <time>2021-03-27T16:06:26Z</time>
      </trkpt>
      <trkpt lat="46.10292" lon="6.11251">
        <ele>690.2</ele>
        <time>2021-03-27T16:06:27Z</time>
      </trkpt>
      <trkpt lat="46.10296" lon="6.11252">
        <ele>690.6</ele>
        <time>2021-03-27T16:06:28Z</time>
      </trkpt>
      <trkpt lat="46.10301" lon="6.11253">
        <ele>690.6</ele>
        <time>2021-03-27T16:06:29Z</time>
      </trkpt>
      <trkpt lat="46.10305" lon="6.11255">
        <ele>690.8</ele>
        <time>2021-03-27T16:06:30Z</time>
      </trkpt>
      <trkpt lat="46.10309" lon="6.11256">
        <ele>691</ele>
        <time>2021-03-27T16:06:31Z</time>
      </trkpt>
      <trkpt lat="46.10313" lon="6.11257">
        <ele>691.2</ele>
        <time>2021-03-27T16:06:32Z</time>
      </trkpt>
      <trkpt lat="46.10317" lon="6.11258">
        <ele>691.4</ele>
        <time>2021-03-27T16:06:33Z</time>
      </trkpt>
      <trkpt lat="46.10321" lon="6.1126">
        <ele>691.6</ele>
        <time>2021-03-27T16:06:34Z</time>
      </trkpt>
      <trkpt lat="46.10324" lon="6.11262">
        <ele>692</ele>
        <time>2021-03-27T16:06:35Z</time>
      </trkpt>
      <trkpt lat="46.10328" lon="6.11263">
        <ele>692.2</ele>
        <time>2021-03-27T16:06:36Z</time>
      </trkpt>
      <trkpt lat="46.10331" lon="6.11265">
        <ele>692.2</ele>
        <time>2021-03-27T16:06:37Z</time>
      </trkpt>
      <trkpt lat="46.10335" lon="6.11266">
        <ele>692.4</ele>
        <time>2021-03-27T16:06:38Z</time>
      </trkpt>
      <trkpt lat="46.10339" lon="6.11268">
        <ele>692.6</ele>
        <time>2021-03-27T16:06:39Z</time>
      </trkpt>
      <trkpt lat="46.10342" lon="6.1127">
        <ele>693</ele>
        <time>2021-03-27T16:06:40Z</time>
      </trkpt>
      <trkpt lat="46.10346" lon="6.11272">
        <ele>693.2</ele>
        <time>2021-03-27T16:06:41Z</time>
      </trkpt>
      <trkpt lat="46.1035" lon="6.11274">
        <ele>693.6</ele>
        <time>2021-03-27T16:06:42Z</time>
      </trkpt>
      <trkpt lat="46.10354" lon="6.11276">
        <ele>693.8</ele>
        <time>2021-03-27T16:06:43Z</time>
      </trkpt>
      <trkpt lat="46.10358" lon="6.11279">
        <ele>694.2</ele>
        <time>2021-03-27T16:06:44Z</time>
      </trkpt>
      <trkpt lat="46.10362" lon="6.11282">
        <ele>694.6</ele>
        <time>2021-03-27T16:06:45Z</time>
      </trkpt>
      <trkpt lat="46.10365" lon="6.11284">
        <ele>694.8</ele>
        <time>2021-03-27T16:06:46Z</time>
      </trkpt>
      <trkpt lat="46.10369" lon="6.11287">
        <ele>695</ele>
        <time>2021-03-27T16:06:47Z</time>
      </trkpt>
      <trkpt lat="46.10373" lon="6.1129">
        <ele>695.4</ele>
        <time>2021-03-27T16:06:48Z</time>
      </trkpt>
      <trkpt lat="46.10378" lon="6.11293">
        <ele>695.6</ele>
        <time>2021-03-27T16:06:49Z</time>
      </trkpt>
      <trkpt lat="46.10382" lon="6.11295">
        <ele>695.8</ele>
        <time>2021-03-27T16:06:50Z</time>
      </trkpt>
      <trkpt lat="46.10386" lon="6.11298">
        <ele>696</ele>
        <time>2021-03-27T16:06:51Z</time>
      </trkpt>
      <trkpt lat="46.10391" lon="6.11302">
        <ele>696.2</ele>
        <time>2021-03-27T16:06:52Z</time>
      </trkpt>
      <trkpt lat="46.10395" lon="6.11305">
        <ele>696.2</ele>
        <time>2021-03-27T16:06:53Z</time>
      </trkpt>
      <trkpt lat="46.104" lon="6.11308">
        <ele>696.4</ele>
        <time>2021-03-27T16:06:54Z</time>
      </trkpt>
      <trkpt lat="46.10404" lon="6.11311">
        <ele>696.4</ele>
        <time>2021-03-27T16:06:55Z</time>
      </trkpt>
      <trkpt lat="46.10409" lon="6.11314">
        <ele>696.4</ele>
        <time>2021-03-27T16:06:56Z</time>
      </trkpt>
      <trkpt lat="46.10413" lon="6.11318">
        <ele>696.4</ele>
        <time>2021-03-27T16:06:57Z</time>
      </trkpt>
      <trkpt lat="46.10418" lon="6.11322">
        <ele>696.4</ele>
        <time>2021-03-27T16:06:58Z</time>
      </trkpt>
      <trkpt lat="46.10422" lon="6.11325">
        <ele>696.6</ele>
        <time>2021-03-27T16:06:59Z</time>
      </trkpt>
      <trkpt lat="46.10427" lon="6.11329">
        <ele>696.6</ele>
        <time>2021-03-27T16:07:00Z</time>
      </trkpt>
      <trkpt lat="46.10431" lon="6.11332">
        <ele>696.4</ele>
        <time>2021-03-27T16:07:01Z</time>
      </trkpt>
      <trkpt lat="46.10436" lon="6.11335">
        <ele>696.6</ele>
        <time>2021-03-27T16:07:02Z</time>
      </trkpt>
      <trkpt lat="46.10441" lon="6.11339">
        <ele>696.6</ele>
        <time>2021-03-27T16:07:03Z</time>
      </trkpt>
      <trkpt lat="46.10446" lon="6.11342">
        <ele>696.6</ele>
        <time>2021-03-27T16:07:04Z</time>
      </trkpt>
      <trkpt lat="46.1045" lon="6.11345">
        <ele>696.8</ele>
        <time>2021-03-27T16:07:05Z</time>
      </trkpt>
      <trkpt lat="46.10455" lon="6.11348">
        <ele>696.8</ele>
        <time>2021-03-27T16:07:06Z</time>
      </trkpt>
      <trkpt lat="46.1046" lon="6.1135">
        <ele>697</ele>
        <time>2021-03-27T16:07:07Z</time>
      </trkpt>
      <trkpt lat="46.10466" lon="6.11353">
        <ele>696.8</ele>
        <time>2021-03-27T16:07:08Z</time>
      </trkpt>
      <trkpt lat="46.10471" lon="6.11355">
        <ele>697</ele>
        <time>2021-03-27T16:07:09Z</time>
      </trkpt>
      <trkpt lat="46.10476" lon="6.11357">
        <ele>697</ele>
        <time>2021-03-27T16:07:10Z</time>
      </trkpt>
      <trkpt lat="46.10482" lon="6.1136">
        <ele>697</ele>
        <time>2021-03-27T16:07:11Z</time>
      </trkpt>
      <trkpt lat="46.10487" lon="6.11363">
        <ele>697.2</ele>
        <time>2021-03-27T16:07:12Z</time>
      </trkpt>
      <trkpt lat="46.10492" lon="6.11366">
        <ele>697</ele>
        <time>2021-03-27T16:07:13Z</time>
      </trkpt>
      <trkpt lat="46.10498" lon="6.11368">
        <ele>697.2</ele>
        <time>2021-03-27T16:07:14Z</time>
      </trkpt>
      <trkpt lat="46.10503" lon="6.11371">
        <ele>697</ele>
        <time>2021-03-27T16:07:15Z</time>
      </trkpt>
      <trkpt lat="46.10509" lon="6.11373">
        <ele>697</ele>
        <time>2021-03-27T16:07:16Z</time>
      </trkpt>
      <trkpt lat="46.10514" lon="6.11376">
        <ele>697</ele>
        <time>2021-03-27T16:07:17Z</time>
      </trkpt>
      <trkpt lat="46.1052" lon="6.11378">
        <ele>697.2</ele>
        <time>2021-03-27T16:07:18Z</time>
      </trkpt>
      <trkpt lat="46.10525" lon="6.1138">
        <ele>697.2</ele>
        <time>2021-03-27T16:07:19Z</time>
      </trkpt>
      <trkpt lat="46.10531" lon="6.11383">
        <ele>697.2</ele>
        <time>2021-03-27T16:07:20Z</time>
      </trkpt>
      <trkpt lat="46.10536" lon="6.11385">
        <ele>697</ele>
        <time>2021-03-27T16:07:21Z</time>
      </trkpt>
      <trkpt lat="46.10542" lon="6.11387">
        <ele>697.2</ele>
        <time>2021-03-27T16:07:22Z</time>
      </trkpt>
      <trkpt lat="46.10547" lon="6.1139">
        <ele>697</ele>
        <time>2021-03-27T16:07:23Z</time>
      </trkpt>
      <trkpt lat="46.10553" lon="6.11392">
        <ele>697</ele>
        <time>2021-03-27T16:07:24Z</time>
      </trkpt>
      <trkpt lat="46.10558" lon="6.11394">
        <ele>697</ele>
        <time>2021-03-27T16:07:25Z</time>
      </trkpt>
      <trkpt lat="46.10564" lon="6.11396">
        <ele>697.2</ele>
        <time>2021-03-27T16:07:26Z</time>
      </trkpt>
      <trkpt lat="46.10569" lon="6.11398">
        <ele>697</ele>
        <time>2021-03-27T16:07:27Z</time>
      </trkpt>
      <trkpt lat="46.10574" lon="6.114">
        <ele>697.2</ele>
        <time>2021-03-27T16:07:28Z</time>
      </trkpt>
      <trkpt lat="46.1058" lon="6.11402">
        <ele>697</ele>
        <time>2021-03-27T16:07:29Z</time>
      </trkpt>
      <trkpt lat="46.10586" lon="6.11404">
        <ele>697</ele>
        <time>2021-03-27T16:07:30Z</time>
      </trkpt>
      <trkpt lat="46.10591" lon="6.11407">
        <ele>697</ele>
        <time>2021-03-27T16:07:31Z</time>
      </trkpt>
      <trkpt lat="46.10596" lon="6.11409">
        <ele>697</ele>
        <time>2021-03-27T16:07:32Z</time>
      </trkpt>
      <trkpt lat="46.10602" lon="6.11411">
        <ele>697</ele>
        <time>2021-03-27T16:07:33Z</time>
      </trkpt>
      <trkpt lat="46.10607" lon="6.11413">
        <ele>697</ele>
        <time>2021-03-27T16:07:34Z</time>
      </trkpt>
      <trkpt lat="46.10613" lon="6.11415">
        <ele>697.2</ele>
        <time>2021-03-27T16:07:35Z</time>
      </trkpt>
      <trkpt lat="46.10618" lon="6.11417">
        <ele>697</ele>
        <time>2021-03-27T16:07:36Z</time>
      </trkpt>
      <trkpt lat="46.10623" lon="6.1142">
        <ele>697.2</ele>
        <time>2021-03-27T16:07:37Z</time>
      </trkpt>
      <trkpt lat="46.10628" lon="6.11423">
        <ele>697.2</ele>
        <time>2021-03-27T16:07:38Z</time>
      </trkpt>
      <trkpt lat="46.10634" lon="6.11425">
        <ele>697.4</ele>
        <time>2021-03-27T16:07:39Z</time>
      </trkpt>
      <trkpt lat="46.10639" lon="6.11428">
        <ele>697.4</ele>
        <time>2021-03-27T16:07:40Z</time>
      </trkpt>
      <trkpt lat="46.10644" lon="6.1143">
        <ele>697.6</ele>
        <time>2021-03-27T16:07:41Z</time>
      </trkpt>
      <trkpt lat="46.1065" lon="6.11433">
        <ele>697.8</ele>
        <time>2021-03-27T16:07:42Z</time>
      </trkpt>
      <trkpt lat="46.10655" lon="6.11436">
        <ele>697.8</ele>
        <time>2021-03-27T16:07:43Z</time>
      </trkpt>
      <trkpt lat="46.10661" lon="6.11438">
        <ele>697.8</ele>
        <time>2021-03-27T16:07:44Z</time>
      </trkpt>
      <trkpt lat="46.10666" lon="6.11441">
        <ele>698</ele>
        <time>2021-03-27T16:07:45Z</time>
      </trkpt>
      <trkpt lat="46.10672" lon="6.11443">
        <ele>698</ele>
        <time>2021-03-27T16:07:46Z</time>
      </trkpt>
      <trkpt lat="46.10677" lon="6.11446">
        <ele>698</ele>
        <time>2021-03-27T16:07:47Z</time>
      </trkpt>
      <trkpt lat="46.10682" lon="6.11449">
        <ele>698.2</ele>
        <time>2021-03-27T16:07:48Z</time>
      </trkpt>
      <trkpt lat="46.10687" lon="6.11452">
        <ele>698.2</ele>
        <time>2021-03-27T16:07:49Z</time>
      </trkpt>
      <trkpt lat="46.10693" lon="6.11454">
        <ele>698.4</ele>
        <time>2021-03-27T16:07:50Z</time>
      </trkpt>
      <trkpt lat="46.10698" lon="6.11457">
        <ele>698.2</ele>
        <time>2021-03-27T16:07:51Z</time>
      </trkpt>
      <trkpt lat="46.10704" lon="6.1146">
        <ele>698.2</ele>
        <time>2021-03-27T16:07:52Z</time>
      </trkpt>
      <trkpt lat="46.1071" lon="6.11462">
        <ele>698.4</ele>
        <time>2021-03-27T16:07:53Z</time>
      </trkpt>
      <trkpt lat="46.10715" lon="6.11465">
        <ele>698.4</ele>
        <time>2021-03-27T16:07:54Z</time>
      </trkpt>
      <trkpt lat="46.10721" lon="6.11468">
        <ele>698.4</ele>
        <time>2021-03-27T16:07:55Z</time>
      </trkpt>
      <trkpt lat="46.10727" lon="6.11471">
        <ele>698.4</ele>
        <time>2021-03-27T16:07:56Z</time>
      </trkpt>
      <trkpt lat="46.10733" lon="6.11474">
        <ele>698.4</ele>
        <time>2021-03-27T16:07:57Z</time>
      </trkpt>
      <trkpt lat="46.10739" lon="6.11478">
        <ele>698.4</ele>
        <time>2021-03-27T16:07:58Z</time>
      </trkpt>
      <trkpt lat="46.10746" lon="6.11481">
        <ele>698.2</ele>
        <time>2021-03-27T16:07:59Z</time>
      </trkpt>
      <trkpt lat="46.10752" lon="6.11485">
        <ele>698.2</ele>
        <time>2021-03-27T16:08:00Z</time>
      </trkpt>
      <trkpt lat="46.10759" lon="6.11488">
        <ele>698.2</ele>
        <time>2021-03-27T16:08:01Z</time>
      </trkpt>
      <trkpt lat="46.10766" lon="6.11492">
        <ele>698.2</ele>
        <time>2021-03-27T16:08:02Z</time>
      </trkpt>
      <trkpt lat="46.10773" lon="6.11496">
        <ele>698.2</ele>
        <time>2021-03-27T16:08:03Z</time>
      </trkpt>
      <trkpt lat="46.1078" lon="6.11499">
        <ele>698</ele>
        <time>2021-03-27T16:08:04Z</time>
      </trkpt>
      <trkpt lat="46.10787" lon="6.11503">
        <ele>697.8</ele>
        <time>2021-03-27T16:08:05Z</time>
      </trkpt>
      <trkpt lat="46.10795" lon="6.11505">
        <ele>697.8</ele>
        <time>2021-03-27T16:08:06Z</time>
      </trkpt>
      <trkpt lat="46.10803" lon="6.11507">
        <ele>697.6</ele>
        <time>2021-03-27T16:08:07Z</time>
      </trkpt>
      <trkpt lat="46.10811" lon="6.11509">
        <ele>697.6</ele>
        <time>2021-03-27T16:08:08Z</time>
      </trkpt>
      <trkpt lat="46.10819" lon="6.1151">
        <ele>697.2</ele>
        <time>2021-03-27T16:08:09Z</time>
      </trkpt>
      <trkpt lat="46.10827" lon="6.11512">
        <ele>697</ele>
        <time>2021-03-27T16:08:10Z</time>
      </trkpt>
      <trkpt lat="46.10835" lon="6.11514">
        <ele>696.8</ele>
        <time>2021-03-27T16:08:11Z</time>
      </trkpt>
      <trkpt lat="46.10842" lon="6.11517">
        <ele>696.6</ele>
        <time>2021-03-27T16:08:12Z</time>
      </trkpt>
      <trkpt lat="46.1085" lon="6.1152">
        <ele>696.6</ele>
        <time>2021-03-27T16:08:13Z</time>
      </trkpt>
      <trkpt lat="46.10858" lon="6.11523">
        <ele>696</ele>
        <time>2021-03-27T16:08:14Z</time>
      </trkpt>
      <trkpt lat="46.10866" lon="6.11527">
        <ele>695.8</ele>
        <time>2021-03-27T16:08:15Z</time>
      </trkpt>
      <trkpt lat="46.10873" lon="6.11529">
        <ele>695.4</ele>
        <time>2021-03-27T16:08:16Z</time>
      </trkpt>
      <trkpt lat="46.10881" lon="6.11531">
        <ele>695</ele>
        <time>2021-03-27T16:08:17Z</time>
      </trkpt>
      <trkpt lat="46.10888" lon="6.11531">
        <ele>694.8</ele>
        <time>2021-03-27T16:08:18Z</time>
      </trkpt>
      <trkpt lat="46.10896" lon="6.11532">
        <ele>694.6</ele>
        <time>2021-03-27T16:08:19Z</time>
      </trkpt>
      <trkpt lat="46.10903" lon="6.11532">
        <ele>694.6</ele>
        <time>2021-03-27T16:08:20Z</time>
      </trkpt>
      <trkpt lat="46.1091" lon="6.11532">
        <ele>694.6</ele>
        <time>2021-03-27T16:08:21Z</time>
      </trkpt>
      <trkpt lat="46.10917" lon="6.11532">
        <ele>694.6</ele>
        <time>2021-03-27T16:08:22Z</time>
      </trkpt>
      <trkpt lat="46.10924" lon="6.11532">
        <ele>694.6</ele>
        <time>2021-03-27T16:08:23Z</time>
      </trkpt>
      <trkpt lat="46.10931" lon="6.11532">
        <ele>694.6</ele>
        <time>2021-03-27T16:08:24Z</time>
      </trkpt>
      <trkpt lat="46.10938" lon="6.11532">
        <ele>694.6</ele>
        <time>2021-03-27T16:08:25Z</time>
      </trkpt>
      <trkpt lat="46.10944" lon="6.11533">
        <ele>694.6</ele>
        <time>2021-03-27T16:08:26Z</time>
      </trkpt>
      <trkpt lat="46.10951" lon="6.11534">
        <ele>694.6</ele>
        <time>2021-03-27T16:08:27Z</time>
      </trkpt>
      <trkpt lat="46.10958" lon="6.11535">
        <ele>694.6</ele>
        <time>2021-03-27T16:08:28Z</time>
      </trkpt>
      <trkpt lat="46.10965" lon="6.11536">
        <ele>694.8</ele>
        <time>2021-03-27T16:08:29Z</time>
      </trkpt>
      <trkpt lat="46.10971" lon="6.11538">
        <ele>694.8</ele>
        <time>2021-03-27T16:08:30Z</time>
      </trkpt>
      <trkpt lat="46.10978" lon="6.11539">
        <ele>694.8</ele>
        <time>2021-03-27T16:08:31Z</time>
      </trkpt>
      <trkpt lat="46.10985" lon="6.11541">
        <ele>695</ele>
        <time>2021-03-27T16:08:32Z</time>
      </trkpt>
      <trkpt lat="46.10991" lon="6.11543">
        <ele>695.2</ele>
        <time>2021-03-27T16:08:33Z</time>
      </trkpt>
      <trkpt lat="46.10998" lon="6.11544">
        <ele>695</ele>
        <time>2021-03-27T16:08:34Z</time>
      </trkpt>
      <trkpt lat="46.11005" lon="6.11546">
        <ele>695.2</ele>
        <time>2021-03-27T16:08:35Z</time>
      </trkpt>
      <trkpt lat="46.11012" lon="6.11549">
        <ele>695.2</ele>
        <time>2021-03-27T16:08:36Z</time>
      </trkpt>
      <trkpt lat="46.11019" lon="6.11551">
        <ele>695.4</ele>
        <time>2021-03-27T16:08:37Z</time>
      </trkpt>
      <trkpt lat="46.11026" lon="6.11552">
        <ele>695.4</ele>
        <time>2021-03-27T16:08:38Z</time>
      </trkpt>
      <trkpt lat="46.11034" lon="6.11554">
        <ele>695.4</ele>
        <time>2021-03-27T16:08:39Z</time>
      </trkpt>
      <trkpt lat="46.11042" lon="6.11555">
        <ele>695.2</ele>
        <time>2021-03-27T16:08:40Z</time>
      </trkpt>
      <trkpt lat="46.1105" lon="6.11556">
        <ele>695.2</ele>
        <time>2021-03-27T16:08:41Z</time>
      </trkpt>
      <trkpt lat="46.11059" lon="6.11556">
        <ele>695.2</ele>
        <time>2021-03-27T16:08:42Z</time>
      </trkpt>
      <trkpt lat="46.11067" lon="6.11556">
        <ele>695.2</ele>
        <time>2021-03-27T16:08:43Z</time>
      </trkpt>
      <trkpt lat="46.11076" lon="6.11555">
        <ele>695.2</ele>
        <time>2021-03-27T16:08:44Z</time>
      </trkpt>
      <trkpt lat="46.11086" lon="6.11555">
        <ele>695</ele>
        <time>2021-03-27T16:08:45Z</time>
      </trkpt>
      <trkpt lat="46.11095" lon="6.11556">
        <ele>694.4</ele>
        <time>2021-03-27T16:08:46Z</time>
      </trkpt>
      <trkpt lat="46.11105" lon="6.11558">
        <ele>694</ele>
        <time>2021-03-27T16:08:47Z</time>
      </trkpt>
      <trkpt lat="46.11114" lon="6.11561">
        <ele>693.6</ele>
        <time>2021-03-27T16:08:48Z</time>
      </trkpt>
      <trkpt lat="46.11124" lon="6.11565">
        <ele>692.8</ele>
        <time>2021-03-27T16:08:49Z</time>
      </trkpt>
      <trkpt lat="46.11133" lon="6.11571">
        <ele>692.2</ele>
        <time>2021-03-27T16:08:50Z</time>
      </trkpt>
      <trkpt lat="46.11142" lon="6.11577">
        <ele>691.6</ele>
        <time>2021-03-27T16:08:51Z</time>
      </trkpt>
      <trkpt lat="46.11151" lon="6.11584">
        <ele>691</ele>
        <time>2021-03-27T16:08:52Z</time>
      </trkpt>
      <trkpt lat="46.1116" lon="6.11591">
        <ele>690</ele>
        <time>2021-03-27T16:08:53Z</time>
      </trkpt>
      <trkpt lat="46.11169" lon="6.11598">
        <ele>689.4</ele>
        <time>2021-03-27T16:08:54Z</time>
      </trkpt>
      <trkpt lat="46.11178" lon="6.11605">
        <ele>689</ele>
        <time>2021-03-27T16:08:55Z</time>
      </trkpt>
      <trkpt lat="46.11187" lon="6.11611">
        <ele>688.4</ele>
        <time>2021-03-27T16:08:56Z</time>
      </trkpt>
      <trkpt lat="46.11195" lon="6.11617">
        <ele>687.4</ele>
        <time>2021-03-27T16:08:57Z</time>
      </trkpt>
      <trkpt lat="46.11204" lon="6.11622">
        <ele>686.4</ele>
        <time>2021-03-27T16:08:58Z</time>
      </trkpt>
      <trkpt lat="46.11213" lon="6.11627">
        <ele>685.6</ele>
        <time>2021-03-27T16:08:59Z</time>
      </trkpt>
      <trkpt lat="46.11222" lon="6.11632">
        <ele>685.2</ele>
        <time>2021-03-27T16:09:00Z</time>
      </trkpt>
      <trkpt lat="46.11231" lon="6.11637">
        <ele>684.8</ele>
        <time>2021-03-27T16:09:01Z</time>
      </trkpt>
      <trkpt lat="46.1124" lon="6.11642">
        <ele>684.8</ele>
        <time>2021-03-27T16:09:02Z</time>
      </trkpt>
      <trkpt lat="46.11248" lon="6.11649">
        <ele>684.6</ele>
        <time>2021-03-27T16:09:03Z</time>
      </trkpt>
      <trkpt lat="46.11255" lon="6.11656">
        <ele>684.6</ele>
        <time>2021-03-27T16:09:04Z</time>
      </trkpt>
      <trkpt lat="46.11263" lon="6.11665">
        <ele>684.4</ele>
        <time>2021-03-27T16:09:05Z</time>
      </trkpt>
      <trkpt lat="46.1127" lon="6.11673">
        <ele>684.4</ele>
        <time>2021-03-27T16:09:06Z</time>
      </trkpt>
      <trkpt lat="46.11277" lon="6.11682">
        <ele>684.4</ele>
        <time>2021-03-27T16:09:07Z</time>
      </trkpt>
      <trkpt lat="46.11283" lon="6.11691">
        <ele>684.4</ele>
        <time>2021-03-27T16:09:08Z</time>
      </trkpt>
      <trkpt lat="46.1129" lon="6.117">
        <ele>684.2</ele>
        <time>2021-03-27T16:09:09Z</time>
      </trkpt>
      <trkpt lat="46.11296" lon="6.1171">
        <ele>684</ele>
        <time>2021-03-27T16:09:10Z</time>
      </trkpt>
      <trkpt lat="46.11303" lon="6.1172">
        <ele>684</ele>
        <time>2021-03-27T16:09:11Z</time>
      </trkpt>
      <trkpt lat="46.11309" lon="6.1173">
        <ele>684</ele>
        <time>2021-03-27T16:09:12Z</time>
      </trkpt>
      <trkpt lat="46.11315" lon="6.11741">
        <ele>683.8</ele>
        <time>2021-03-27T16:09:13Z</time>
      </trkpt>
      <trkpt lat="46.11321" lon="6.11752">
        <ele>683.8</ele>
        <time>2021-03-27T16:09:14Z</time>
      </trkpt>
      <trkpt lat="46.11327" lon="6.11764">
        <ele>683.8</ele>
        <time>2021-03-27T16:09:15Z</time>
      </trkpt>
      <trkpt lat="46.11333" lon="6.11776">
        <ele>683.6</ele>
        <time>2021-03-27T16:09:16Z</time>
      </trkpt>
      <trkpt lat="46.11338" lon="6.11787">
        <ele>683.6</ele>
        <time>2021-03-27T16:09:17Z</time>
      </trkpt>
      <trkpt lat="46.11343" lon="6.11798">
        <ele>683.6</ele>
        <time>2021-03-27T16:09:18Z</time>
      </trkpt>
      <trkpt lat="46.11349" lon="6.11809">
        <ele>683.4</ele>
        <time>2021-03-27T16:09:19Z</time>
      </trkpt>
      <trkpt lat="46.11354" lon="6.1182">
        <ele>683.4</ele>
        <time>2021-03-27T16:09:20Z</time>
      </trkpt>
      <trkpt lat="46.1136" lon="6.1183">
        <ele>683.4</ele>
        <time>2021-03-27T16:09:21Z</time>
      </trkpt>
      <trkpt lat="46.11365" lon="6.1184">
        <ele>683.4</ele>
        <time>2021-03-27T16:09:22Z</time>
      </trkpt>
      <trkpt lat="46.1137" lon="6.11849">
        <ele>683.4</ele>
        <time>2021-03-27T16:09:23Z</time>
      </trkpt>
      <trkpt lat="46.11374" lon="6.11859">
        <ele>683.4</ele>
        <time>2021-03-27T16:09:24Z</time>
      </trkpt>
      <trkpt lat="46.11378" lon="6.11868">
        <ele>683.2</ele>
        <time>2021-03-27T16:09:25Z</time>
      </trkpt>
      <trkpt lat="46.11382" lon="6.11877">
        <ele>683.4</ele>
        <time>2021-03-27T16:09:26Z</time>
      </trkpt>
      <trkpt lat="46.11387" lon="6.11886">
        <ele>683.4</ele>
        <time>2021-03-27T16:09:27Z</time>
      </trkpt>
      <trkpt lat="46.11391" lon="6.11895">
        <ele>683.4</ele>
        <time>2021-03-27T16:09:28Z</time>
      </trkpt>
      <trkpt lat="46.11395" lon="6.11903">
        <ele>683.4</ele>
        <time>2021-03-27T16:09:29Z</time>
      </trkpt>
      <trkpt lat="46.11399" lon="6.11912">
        <ele>683.6</ele>
        <time>2021-03-27T16:09:30Z</time>
      </trkpt>
      <trkpt lat="46.11403" lon="6.1192">
        <ele>683.6</ele>
        <time>2021-03-27T16:09:31Z</time>
      </trkpt>
      <trkpt lat="46.11407" lon="6.11928">
        <ele>684</ele>
        <time>2021-03-27T16:09:32Z</time>
      </trkpt>
      <trkpt lat="46.11411" lon="6.11936">
        <ele>684.2</ele>
        <time>2021-03-27T16:09:33Z</time>
      </trkpt>
      <trkpt lat="46.11415" lon="6.11944">
        <ele>684.6</ele>
        <time>2021-03-27T16:09:34Z</time>
      </trkpt>
      <trkpt lat="46.11419" lon="6.11953">
        <ele>685</ele>
        <time>2021-03-27T16:09:35Z</time>
      </trkpt>
      <trkpt lat="46.11424" lon="6.11961">
        <ele>685.4</ele>
        <time>2021-03-27T16:09:36Z</time>
      </trkpt>
      <trkpt lat="46.11428" lon="6.11969">
        <ele>685.4</ele>
        <time>2021-03-27T16:09:37Z</time>
      </trkpt>
      <trkpt lat="46.11432" lon="6.11977">
        <ele>686</ele>
        <time>2021-03-27T16:09:38Z</time>
      </trkpt>
      <trkpt lat="46.11437" lon="6.11985">
        <ele>686</ele>
        <time>2021-03-27T16:09:39Z</time>
      </trkpt>
      <trkpt lat="46.11441" lon="6.11993">
        <ele>686.4</ele>
        <time>2021-03-27T16:09:40Z</time>
      </trkpt>
      <trkpt lat="46.11446" lon="6.12001">
        <ele>686.4</ele>
        <time>2021-03-27T16:09:41Z</time>
      </trkpt>
      <trkpt lat="46.1145" lon="6.12008">
        <ele>686.4</ele>
        <time>2021-03-27T16:09:42Z</time>
      </trkpt>
      <trkpt lat="46.11454" lon="6.12015">
        <ele>686.8</ele>
        <time>2021-03-27T16:09:43Z</time>
      </trkpt>
      <trkpt lat="46.11458" lon="6.12022">
        <ele>686.8</ele>
        <time>2021-03-27T16:09:44Z</time>
      </trkpt>
      <trkpt lat="46.11462" lon="6.12029">
        <ele>687</ele>
        <time>2021-03-27T16:09:45Z</time>
      </trkpt>
      <trkpt lat="46.11466" lon="6.12036">
        <ele>687</ele>
        <time>2021-03-27T16:09:46Z</time>
      </trkpt>
      <trkpt lat="46.1147" lon="6.12043">
        <ele>687.2</ele>
        <time>2021-03-27T16:09:47Z</time>
      </trkpt>
      <trkpt lat="46.11475" lon="6.1205">
        <ele>687.6</ele>
        <time>2021-03-27T16:09:48Z</time>
      </trkpt>
      <trkpt lat="46.11479" lon="6.12058">
        <ele>687.6</ele>
        <time>2021-03-27T16:09:49Z</time>
      </trkpt>
      <trkpt lat="46.11484" lon="6.12065">
        <ele>687.8</ele>
        <time>2021-03-27T16:09:50Z</time>
      </trkpt>
      <trkpt lat="46.11489" lon="6.12072">
        <ele>687.8</ele>
        <time>2021-03-27T16:09:51Z</time>
      </trkpt>
      <trkpt lat="46.11493" lon="6.1208">
        <ele>687.8</ele>
        <time>2021-03-27T16:09:52Z</time>
      </trkpt>
      <trkpt lat="46.11498" lon="6.12087">
        <ele>688</ele>
        <time>2021-03-27T16:09:53Z</time>
      </trkpt>
      <trkpt lat="46.11503" lon="6.12095">
        <ele>688</ele>
        <time>2021-03-27T16:09:54Z</time>
      </trkpt>
      <trkpt lat="46.11508" lon="6.12103">
        <ele>688</ele>
        <time>2021-03-27T16:09:55Z</time>
      </trkpt>
      <trkpt lat="46.11514" lon="6.1211">
        <ele>687.8</ele>
        <time>2021-03-27T16:09:56Z</time>
      </trkpt>
      <trkpt lat="46.11519" lon="6.12118">
        <ele>687.8</ele>
        <time>2021-03-27T16:09:57Z</time>
      </trkpt>
      <trkpt lat="46.11525" lon="6.12125">
        <ele>688</ele>
        <time>2021-03-27T16:09:58Z</time>
      </trkpt>
      <trkpt lat="46.11531" lon="6.12132">
        <ele>687.8</ele>
        <time>2021-03-27T16:09:59Z</time>
      </trkpt>
      <trkpt lat="46.11537" lon="6.12138">
        <ele>687.8</ele>
        <time>2021-03-27T16:10:00Z</time>
      </trkpt>
      <trkpt lat="46.11543" lon="6.12145">
        <ele>687.6</ele>
        <time>2021-03-27T16:10:01Z</time>
      </trkpt>
      <trkpt lat="46.11549" lon="6.12152">
        <ele>687.6</ele>
        <time>2021-03-27T16:10:02Z</time>
      </trkpt>
      <trkpt lat="46.11556" lon="6.12159">
        <ele>687.2</ele>
        <time>2021-03-27T16:10:03Z</time>
      </trkpt>
      <trkpt lat="46.11562" lon="6.12165">
        <ele>686.8</ele>
        <time>2021-03-27T16:10:04Z</time>
      </trkpt>
      <trkpt lat="46.11569" lon="6.12172">
        <ele>686.4</ele>
        <time>2021-03-27T16:10:05Z</time>
      </trkpt>
      <trkpt lat="46.11576" lon="6.12179">
        <ele>686.2</ele>
        <time>2021-03-27T16:10:06Z</time>
      </trkpt>
      <trkpt lat="46.11583" lon="6.12187">
        <ele>686.2</ele>
        <time>2021-03-27T16:10:07Z</time>
      </trkpt>
      <trkpt lat="46.1159" lon="6.12195">
        <ele>686</ele>
        <time>2021-03-27T16:10:08Z</time>
      </trkpt>
      <trkpt lat="46.11597" lon="6.12203">
        <ele>685.4</ele>
        <time>2021-03-27T16:10:09Z</time>
      </trkpt>
      <trkpt lat="46.11605" lon="6.12211">
        <ele>685.2</ele>
        <time>2021-03-27T16:10:10Z</time>
      </trkpt>
      <trkpt lat="46.11612" lon="6.12219">
        <ele>685</ele>
        <time>2021-03-27T16:10:11Z</time>
      </trkpt>
      <trkpt lat="46.11619" lon="6.12227">
        <ele>684.6</ele>
        <time>2021-03-27T16:10:12Z</time>
      </trkpt>
      <trkpt lat="46.11627" lon="6.12234">
        <ele>684.4</ele>
        <time>2021-03-27T16:10:13Z</time>
      </trkpt>
      <trkpt lat="46.11636" lon="6.12239">
        <ele>684</ele>
        <time>2021-03-27T16:10:14Z</time>
      </trkpt>
      <trkpt lat="46.11644" lon="6.12243">
        <ele>683.6</ele>
        <time>2021-03-27T16:10:15Z</time>
      </trkpt>
      <trkpt lat="46.11653" lon="6.12244">
        <ele>683.4</ele>
        <time>2021-03-27T16:10:16Z</time>
      </trkpt>
      <trkpt lat="46.11661" lon="6.12243">
        <ele>683</ele>
        <time>2021-03-27T16:10:17Z</time>
      </trkpt>
      <trkpt lat="46.1167" lon="6.12239">
        <ele>682.6</ele>
        <time>2021-03-27T16:10:18Z</time>
      </trkpt>
      <trkpt lat="46.11679" lon="6.12234">
        <ele>682.2</ele>
        <time>2021-03-27T16:10:19Z</time>
      </trkpt>
      <trkpt lat="46.11687" lon="6.12228">
        <ele>681.8</ele>
        <time>2021-03-27T16:10:20Z</time>
      </trkpt>
      <trkpt lat="46.11696" lon="6.12223">
        <ele>681.4</ele>
        <time>2021-03-27T16:10:21Z</time>
      </trkpt>
      <trkpt lat="46.11705" lon="6.12217">
        <ele>681</ele>
        <time>2021-03-27T16:10:22Z</time>
      </trkpt>
      <trkpt lat="46.11714" lon="6.12212">
        <ele>680.8</ele>
        <time>2021-03-27T16:10:23Z</time>
      </trkpt>
      <trkpt lat="46.11723" lon="6.12207">
        <ele>680.6</ele>
        <time>2021-03-27T16:10:24Z</time>
      </trkpt>
      <trkpt lat="46.11733" lon="6.12204">
        <ele>680.4</ele>
        <time>2021-03-27T16:10:25Z</time>
      </trkpt>
      <trkpt lat="46.11743" lon="6.12201">
        <ele>680</ele>
        <time>2021-03-27T16:10:26Z</time>
      </trkpt>
      <trkpt lat="46.11754" lon="6.122">
        <ele>679</ele>
        <time>2021-03-27T16:10:27Z</time>
      </trkpt>
      <trkpt lat="46.11764" lon="6.12198">
        <ele>678.2</ele>
        <time>2021-03-27T16:10:28Z</time>
      </trkpt>
      <trkpt lat="46.11775" lon="6.12197">
        <ele>677.6</ele>
        <time>2021-03-27T16:10:29Z</time>
      </trkpt>
      <trkpt lat="46.11787" lon="6.12196">
        <ele>676.8</ele>
        <time>2021-03-27T16:10:30Z</time>
      </trkpt>
      <trkpt lat="46.11798" lon="6.12197">
        <ele>676.4</ele>
        <time>2021-03-27T16:10:31Z</time>
      </trkpt>
      <trkpt lat="46.1181" lon="6.12198">
        <ele>675.8</ele>
        <time>2021-03-27T16:10:32Z</time>
      </trkpt>
      <trkpt lat="46.11821" lon="6.12202">
        <ele>675</ele>
        <time>2021-03-27T16:10:33Z</time>
      </trkpt>
      <trkpt lat="46.11831" lon="6.12209">
        <ele>674.4</ele>
        <time>2021-03-27T16:10:34Z</time>
      </trkpt>
      <trkpt lat="46.11841" lon="6.12218">
        <ele>673.8</ele>
        <time>2021-03-27T16:10:35Z</time>
      </trkpt>
      <trkpt lat="46.11851" lon="6.12228">
        <ele>673</ele>
        <time>2021-03-27T16:10:36Z</time>
      </trkpt>
      <trkpt lat="46.1186" lon="6.12239">
        <ele>672.2</ele>
        <time>2021-03-27T16:10:37Z</time>
      </trkpt>
      <trkpt lat="46.11869" lon="6.1225">
        <ele>671.2</ele>
        <time>2021-03-27T16:10:38Z</time>
      </trkpt>
      <trkpt lat="46.11879" lon="6.12261">
        <ele>670.2</ele>
        <time>2021-03-27T16:10:39Z</time>
      </trkpt>
      <trkpt lat="46.11887" lon="6.12274">
        <ele>669.2</ele>
        <time>2021-03-27T16:10:40Z</time>
      </trkpt>
      <trkpt lat="46.11896" lon="6.12287">
        <ele>668.2</ele>
        <time>2021-03-27T16:10:41Z</time>
      </trkpt>
      <trkpt lat="46.11903" lon="6.12301">
        <ele>667.2</ele>
        <time>2021-03-27T16:10:42Z</time>
      </trkpt>
      <trkpt lat="46.1191" lon="6.12316">
        <ele>666.4</ele>
        <time>2021-03-27T16:10:43Z</time>
      </trkpt>
      <trkpt lat="46.11915" lon="6.12331">
        <ele>665.8</ele>
        <time>2021-03-27T16:10:44Z</time>
      </trkpt>
      <trkpt lat="46.1192" lon="6.12347">
        <ele>665.2</ele>
        <time>2021-03-27T16:10:45Z</time>
      </trkpt>
      <trkpt lat="46.11924" lon="6.12364">
        <ele>664.6</ele>
        <time>2021-03-27T16:10:46Z</time>
      </trkpt>
      <trkpt lat="46.11926" lon="6.1238">
        <ele>663.8</ele>
        <time>2021-03-27T16:10:47Z</time>
      </trkpt>
      <trkpt lat="46.11927" lon="6.12397">
        <ele>662.8</ele>
        <time>2021-03-27T16:10:48Z</time>
      </trkpt>
      <trkpt lat="46.11928" lon="6.12414">
        <ele>662</ele>
        <time>2021-03-27T16:10:49Z</time>
      </trkpt>
      <trkpt lat="46.11928" lon="6.12431">
        <ele>661</ele>
        <time>2021-03-27T16:10:50Z</time>
      </trkpt>
      <trkpt lat="46.11928" lon="6.12448">
        <ele>660.4</ele>
        <time>2021-03-27T16:10:51Z</time>
      </trkpt>
      <trkpt lat="46.11927" lon="6.12466">
        <ele>659.8</ele>
        <time>2021-03-27T16:10:52Z</time>
      </trkpt>
      <trkpt lat="46.11926" lon="6.12483">
        <ele>659.2</ele>
        <time>2021-03-27T16:10:53Z</time>
      </trkpt>
      <trkpt lat="46.11925" lon="6.12499">
        <ele>658.2</ele>
        <time>2021-03-27T16:10:54Z</time>
      </trkpt>
      <trkpt lat="46.11925" lon="6.12516">
        <ele>657.6</ele>
        <time>2021-03-27T16:10:55Z</time>
      </trkpt>
      <trkpt lat="46.11927" lon="6.12532">
        <ele>657.2</ele>
        <time>2021-03-27T16:10:56Z</time>
      </trkpt>
      <trkpt lat="46.11931" lon="6.12547">
        <ele>656.4</ele>
        <time>2021-03-27T16:10:57Z</time>
      </trkpt>
      <trkpt lat="46.11935" lon="6.12561">
        <ele>655.8</ele>
        <time>2021-03-27T16:10:58Z</time>
      </trkpt>
      <trkpt lat="46.1194" lon="6.12575">
        <ele>655</ele>
        <time>2021-03-27T16:10:59Z</time>
      </trkpt>
      <trkpt lat="46.11946" lon="6.12589">
        <ele>655</ele>
        <time>2021-03-27T16:11:00Z</time>
      </trkpt>
      <trkpt lat="46.11952" lon="6.12603">
        <ele>654.6</ele>
        <time>2021-03-27T16:11:01Z</time>
      </trkpt>
      <trkpt lat="46.11957" lon="6.12618">
        <ele>653.6</ele>
        <time>2021-03-27T16:11:02Z</time>
      </trkpt>
      <trkpt lat="46.11961" lon="6.12633">
        <ele>653.2</ele>
        <time>2021-03-27T16:11:03Z</time>
      </trkpt>
      <trkpt lat="46.11966" lon="6.12647">
        <ele>653</ele>
        <time>2021-03-27T16:11:04Z</time>
      </trkpt>
      <trkpt lat="46.11973" lon="6.1266">
        <ele>651.8</ele>
        <time>2021-03-27T16:11:05Z</time>
      </trkpt>
      <trkpt lat="46.11979" lon="6.12672">
        <ele>651</ele>
        <time>2021-03-27T16:11:06Z</time>
      </trkpt>
      <trkpt lat="46.11986" lon="6.12682">
        <ele>650.4</ele>
        <time>2021-03-27T16:11:07Z</time>
      </trkpt>
      <trkpt lat="46.11994" lon="6.12692">
        <ele>650</ele>
        <time>2021-03-27T16:11:08Z</time>
      </trkpt>
      <trkpt lat="46.12003" lon="6.12702">
        <ele>649.2</ele>
        <time>2021-03-27T16:11:09Z</time>
      </trkpt>
      <trkpt lat="46.12012" lon="6.12711">
        <ele>648</ele>
        <time>2021-03-27T16:11:10Z</time>
      </trkpt>
      <trkpt lat="46.12022" lon="6.12719">
        <ele>647.4</ele>
        <time>2021-03-27T16:11:11Z</time>
      </trkpt>
      <trkpt lat="46.12032" lon="6.12726">
        <ele>646.6</ele>
        <time>2021-03-27T16:11:12Z</time>
      </trkpt>
      <trkpt lat="46.12043" lon="6.12732">
        <ele>645.8</ele>
        <time>2021-03-27T16:11:13Z</time>
      </trkpt>
      <trkpt lat="46.12053" lon="6.12738">
        <ele>645.4</ele>
        <time>2021-03-27T16:11:14Z</time>
      </trkpt>
      <trkpt lat="46.12063" lon="6.12744">
        <ele>644.8</ele>
        <time>2021-03-27T16:11:15Z</time>
      </trkpt>
      <trkpt lat="46.12072" lon="6.12748">
        <ele>643.8</ele>
        <time>2021-03-27T16:11:16Z</time>
      </trkpt>
      <trkpt lat="46.12082" lon="6.1275">
        <ele>643.4</ele>
        <time>2021-03-27T16:11:17Z</time>
      </trkpt>
      <trkpt lat="46.12091" lon="6.12753">
        <ele>642.8</ele>
        <time>2021-03-27T16:11:18Z</time>
      </trkpt>
      <trkpt lat="46.121" lon="6.12758">
        <ele>641.6</ele>
        <time>2021-03-27T16:11:19Z</time>
      </trkpt>
      <trkpt lat="46.12116" lon="6.12767">
        <ele>639.6</ele>
        <time>2021-03-27T16:11:21Z</time>
      </trkpt>
      <trkpt lat="46.12125" lon="6.12772">
        <ele>639.2</ele>
        <time>2021-03-27T16:11:22Z</time>
      </trkpt>
      <trkpt lat="46.12134" lon="6.12778">
        <ele>638</ele>
        <time>2021-03-27T16:11:23Z</time>
      </trkpt>
      <trkpt lat="46.12142" lon="6.12784">
        <ele>637</ele>
        <time>2021-03-27T16:11:24Z</time>
      </trkpt>
      <trkpt lat="46.12151" lon="6.1279">
        <ele>636.4</ele>
        <time>2021-03-27T16:11:25Z</time>
      </trkpt>
      <trkpt lat="46.1217" lon="6.12802">
        <ele>635.8</ele>
        <time>2021-03-27T16:11:27Z</time>
      </trkpt>
      <trkpt lat="46.12179" lon="6.12809">
        <ele>635.4</ele>
        <time>2021-03-27T16:11:28Z</time>
      </trkpt>
      <trkpt lat="46.12188" lon="6.12816">
        <ele>635.4</ele>
        <time>2021-03-27T16:11:29Z</time>
      </trkpt>
      <trkpt lat="46.12196" lon="6.12824">
        <ele>635.2</ele>
        <time>2021-03-27T16:11:30Z</time>
      </trkpt>
      <trkpt lat="46.12202" lon="6.12832">
        <ele>634.6</ele>
        <time>2021-03-27T16:11:31Z</time>
      </trkpt>
      <trkpt lat="46.12207" lon="6.12839">
        <ele>633.6</ele>
        <time>2021-03-27T16:11:32Z</time>
      </trkpt>
      <trkpt lat="46.12213" lon="6.12845">
        <ele>632.6</ele>
        <time>2021-03-27T16:11:33Z</time>
      </trkpt>
      <trkpt lat="46.12219" lon="6.12848">
        <ele>631.6</ele>
        <time>2021-03-27T16:11:34Z</time>
      </trkpt>
      <trkpt lat="46.12225" lon="6.1285">
        <ele>630.6</ele>
        <time>2021-03-27T16:11:35Z</time>
      </trkpt>
      <trkpt lat="46.12231" lon="6.12853">
        <ele>630</ele>
        <time>2021-03-27T16:11:36Z</time>
      </trkpt>
      <trkpt lat="46.12236" lon="6.12858">
        <ele>629.6</ele>
        <time>2021-03-27T16:11:37Z</time>
      </trkpt>
      <trkpt lat="46.12242" lon="6.12864">
        <ele>629</ele>
        <time>2021-03-27T16:11:38Z</time>
      </trkpt>
      <trkpt lat="46.12248" lon="6.12869">
        <ele>629.2</ele>
        <time>2021-03-27T16:11:39Z</time>
      </trkpt>
      <trkpt lat="46.12254" lon="6.12875">
        <ele>629</ele>
        <time>2021-03-27T16:11:40Z</time>
      </trkpt>
      <trkpt lat="46.12261" lon="6.1288">
        <ele>628.8</ele>
        <time>2021-03-27T16:11:41Z</time>
      </trkpt>
      <trkpt lat="46.12267" lon="6.12886">
        <ele>628.6</ele>
        <time>2021-03-27T16:11:42Z</time>
      </trkpt>
      <trkpt lat="46.12274" lon="6.12892">
        <ele>628.6</ele>
        <time>2021-03-27T16:11:43Z</time>
      </trkpt>
      <trkpt lat="46.1228" lon="6.12898">
        <ele>628.6</ele>
        <time>2021-03-27T16:11:44Z</time>
      </trkpt>
      <trkpt lat="46.12286" lon="6.12904">
        <ele>628.4</ele>
        <time>2021-03-27T16:11:45Z</time>
      </trkpt>
      <trkpt lat="46.12293" lon="6.1291">
        <ele>628.4</ele>
        <time>2021-03-27T16:11:46Z</time>
      </trkpt>
      <trkpt lat="46.12299" lon="6.12915">
        <ele>628.2</ele>
        <time>2021-03-27T16:11:47Z</time>
      </trkpt>
      <trkpt lat="46.12306" lon="6.12921">
        <ele>628.2</ele>
        <time>2021-03-27T16:11:48Z</time>
      </trkpt>
      <trkpt lat="46.12312" lon="6.12926">
        <ele>628</ele>
        <time>2021-03-27T16:11:49Z</time>
      </trkpt>
      <trkpt lat="46.12318" lon="6.12932">
        <ele>627.6</ele>
        <time>2021-03-27T16:11:50Z</time>
      </trkpt>
      <trkpt lat="46.12324" lon="6.12938">
        <ele>627.6</ele>
        <time>2021-03-27T16:11:51Z</time>
      </trkpt>
      <trkpt lat="46.12331" lon="6.12943">
        <ele>627.4</ele>
        <time>2021-03-27T16:11:52Z</time>
      </trkpt>
      <trkpt lat="46.12337" lon="6.12949">
        <ele>627.4</ele>
        <time>2021-03-27T16:11:53Z</time>
      </trkpt>
      <trkpt lat="46.12343" lon="6.12954">
        <ele>627.4</ele>
        <time>2021-03-27T16:11:54Z</time>
      </trkpt>
      <trkpt lat="46.12349" lon="6.1296">
        <ele>627.4</ele>
        <time>2021-03-27T16:11:55Z</time>
      </trkpt>
      <trkpt lat="46.12356" lon="6.12966">
        <ele>627.2</ele>
        <time>2021-03-27T16:11:56Z</time>
      </trkpt>
      <trkpt lat="46.12362" lon="6.12972">
        <ele>627.4</ele>
        <time>2021-03-27T16:11:57Z</time>
      </trkpt>
      <trkpt lat="46.12368" lon="6.12977">
        <ele>627.2</ele>
        <time>2021-03-27T16:11:58Z</time>
      </trkpt>
      <trkpt lat="46.12375" lon="6.12983">
        <ele>627.2</ele>
        <time>2021-03-27T16:11:59Z</time>
      </trkpt>
      <trkpt lat="46.12382" lon="6.12989">
        <ele>627</ele>
        <time>2021-03-27T16:12:00Z</time>
      </trkpt>
      <trkpt lat="46.12388" lon="6.12995">
        <ele>627.2</ele>
        <time>2021-03-27T16:12:01Z</time>
      </trkpt>
      <trkpt lat="46.12395" lon="6.13">
        <ele>627.2</ele>
        <time>2021-03-27T16:12:02Z</time>
      </trkpt>
      <trkpt lat="46.12401" lon="6.13006">
        <ele>627</ele>
        <time>2021-03-27T16:12:03Z</time>
      </trkpt>
      <trkpt lat="46.12408" lon="6.13012">
        <ele>627</ele>
        <time>2021-03-27T16:12:04Z</time>
      </trkpt>
      <trkpt lat="46.12414" lon="6.13018">
        <ele>627</ele>
        <time>2021-03-27T16:12:05Z</time>
      </trkpt>
      <trkpt lat="46.1242" lon="6.13025">
        <ele>627</ele>
        <time>2021-03-27T16:12:06Z</time>
      </trkpt>
      <trkpt lat="46.12427" lon="6.13031">
        <ele>627</ele>
        <time>2021-03-27T16:12:07Z</time>
      </trkpt>
      <trkpt lat="46.12434" lon="6.13037">
        <ele>627.2</ele>
        <time>2021-03-27T16:12:08Z</time>
      </trkpt>
      <trkpt lat="46.12441" lon="6.13044">
        <ele>627</ele>
        <time>2021-03-27T16:12:09Z</time>
      </trkpt>
      <trkpt lat="46.12448" lon="6.1305">
        <ele>627</ele>
        <time>2021-03-27T16:12:10Z</time>
      </trkpt>
      <trkpt lat="46.12456" lon="6.13057">
        <ele>626.8</ele>
        <time>2021-03-27T16:12:11Z</time>
      </trkpt>
      <trkpt lat="46.12464" lon="6.13064">
        <ele>626.8</ele>
        <time>2021-03-27T16:12:12Z</time>
      </trkpt>
      <trkpt lat="46.12471" lon="6.13071">
        <ele>626.8</ele>
        <time>2021-03-27T16:12:13Z</time>
      </trkpt>
      <trkpt lat="46.12479" lon="6.13079">
        <ele>626.4</ele>
        <time>2021-03-27T16:12:14Z</time>
      </trkpt>
      <trkpt lat="46.12487" lon="6.13086">
        <ele>626.2</ele>
        <time>2021-03-27T16:12:15Z</time>
      </trkpt>
      <trkpt lat="46.12496" lon="6.13093">
        <ele>625.8</ele>
        <time>2021-03-27T16:12:16Z</time>
      </trkpt>
      <trkpt lat="46.12505" lon="6.13101">
        <ele>625.4</ele>
        <time>2021-03-27T16:12:17Z</time>
      </trkpt>
      <trkpt lat="46.12515" lon="6.13109">
        <ele>624.8</ele>
        <time>2021-03-27T16:12:18Z</time>
      </trkpt>
      <trkpt lat="46.12525" lon="6.13116">
        <ele>624.2</ele>
        <time>2021-03-27T16:12:19Z</time>
      </trkpt>
      <trkpt lat="46.12535" lon="6.13123">
        <ele>623.8</ele>
        <time>2021-03-27T16:12:20Z</time>
      </trkpt>
      <trkpt lat="46.12546" lon="6.13131">
        <ele>623.2</ele>
        <time>2021-03-27T16:12:21Z</time>
      </trkpt>
      <trkpt lat="46.12557" lon="6.13138">
        <ele>622.6</ele>
        <time>2021-03-27T16:12:22Z</time>
      </trkpt>
      <trkpt lat="46.12568" lon="6.13146">
        <ele>621.8</ele>
        <time>2021-03-27T16:12:23Z</time>
      </trkpt>
      <trkpt lat="46.1258" lon="6.13154">
        <ele>621.2</ele>
        <time>2021-03-27T16:12:24Z</time>
      </trkpt>
      <trkpt lat="46.12591" lon="6.13162">
        <ele>620.6</ele>
        <time>2021-03-27T16:12:25Z</time>
      </trkpt>
      <trkpt lat="46.12603" lon="6.1317">
        <ele>619.6</ele>
        <time>2021-03-27T16:12:26Z</time>
      </trkpt>
      <trkpt lat="46.12615" lon="6.13178">
        <ele>618.6</ele>
        <time>2021-03-27T16:12:27Z</time>
      </trkpt>
      <trkpt lat="46.12628" lon="6.13187">
        <ele>617.4</ele>
        <time>2021-03-27T16:12:28Z</time>
      </trkpt>
      <trkpt lat="46.1264" lon="6.13195">
        <ele>616.2</ele>
        <time>2021-03-27T16:12:29Z</time>
      </trkpt>
      <trkpt lat="46.12653" lon="6.13203">
        <ele>615</ele>
        <time>2021-03-27T16:12:30Z</time>
      </trkpt>
      <trkpt lat="46.12666" lon="6.13211">
        <ele>613.6</ele>
        <time>2021-03-27T16:12:31Z</time>
      </trkpt>
      <trkpt lat="46.1268" lon="6.13216">
        <ele>612.2</ele>
        <time>2021-03-27T16:12:32Z</time>
      </trkpt>
      <trkpt lat="46.12694" lon="6.1322">
        <ele>610.8</ele>
        <time>2021-03-27T16:12:33Z</time>
      </trkpt>
      <trkpt lat="46.12708" lon="6.13223">
        <ele>609.4</ele>
        <time>2021-03-27T16:12:34Z</time>
      </trkpt>
      <trkpt lat="46.12721" lon="6.13226">
        <ele>608</ele>
        <time>2021-03-27T16:12:35Z</time>
      </trkpt>
      <trkpt lat="46.12735" lon="6.13228">
        <ele>606.2</ele>
        <time>2021-03-27T16:12:36Z</time>
      </trkpt>
      <trkpt lat="46.12748" lon="6.1323">
        <ele>604.8</ele>
        <time>2021-03-27T16:12:37Z</time>
      </trkpt>
      <trkpt lat="46.12761" lon="6.13231">
        <ele>603.4</ele>
        <time>2021-03-27T16:12:38Z</time>
      </trkpt>
      <trkpt lat="46.12774" lon="6.13233">
        <ele>602.4</ele>
        <time>2021-03-27T16:12:39Z</time>
      </trkpt>
      <trkpt lat="46.12787" lon="6.13235">
        <ele>601.2</ele>
        <time>2021-03-27T16:12:40Z</time>
      </trkpt>
      <trkpt lat="46.12799" lon="6.13237">
        <ele>599.4</ele>
        <time>2021-03-27T16:12:41Z</time>
      </trkpt>
      <trkpt lat="46.12811" lon="6.13239">
        <ele>598.4</ele>
        <time>2021-03-27T16:12:42Z</time>
      </trkpt>
      <trkpt lat="46.12824" lon="6.13241">
        <ele>597.4</ele>
        <time>2021-03-27T16:12:43Z</time>
      </trkpt>
      <trkpt lat="46.12836" lon="6.13243">
        <ele>596.8</ele>
        <time>2021-03-27T16:12:44Z</time>
      </trkpt>
      <trkpt lat="46.12847" lon="6.13245">
        <ele>596</ele>
        <time>2021-03-27T16:12:45Z</time>
      </trkpt>
      <trkpt lat="46.12859" lon="6.13247">
        <ele>595.6</ele>
        <time>2021-03-27T16:12:46Z</time>
      </trkpt>
      <trkpt lat="46.12871" lon="6.1325">
        <ele>595</ele>
        <time>2021-03-27T16:12:47Z</time>
      </trkpt>
      <trkpt lat="46.12883" lon="6.13252">
        <ele>594.2</ele>
        <time>2021-03-27T16:12:48Z</time>
      </trkpt>
      <trkpt lat="46.12895" lon="6.13255">
        <ele>593.2</ele>
        <time>2021-03-27T16:12:49Z</time>
      </trkpt>
      <trkpt lat="46.12907" lon="6.13258">
        <ele>592.6</ele>
        <time>2021-03-27T16:12:50Z</time>
      </trkpt>
      <trkpt lat="46.12919" lon="6.13262">
        <ele>592.2</ele>
        <time>2021-03-27T16:12:51Z</time>
      </trkpt>
      <trkpt lat="46.12931" lon="6.13265">
        <ele>592</ele>
        <time>2021-03-27T16:12:52Z</time>
      </trkpt>
      <trkpt lat="46.12943" lon="6.13268">
        <ele>591</ele>
        <time>2021-03-27T16:12:53Z</time>
      </trkpt>
      <trkpt lat="46.12955" lon="6.13271">
        <ele>590.4</ele>
        <time>2021-03-27T16:12:54Z</time>
      </trkpt>
      <trkpt lat="46.12967" lon="6.13274">
        <ele>589.4</ele>
        <time>2021-03-27T16:12:55Z</time>
      </trkpt>
      <trkpt lat="46.12978" lon="6.13277">
        <ele>588.4</ele>
        <time>2021-03-27T16:12:56Z</time>
      </trkpt>
      <trkpt lat="46.12989" lon="6.1328">
        <ele>587.6</ele>
        <time>2021-03-27T16:12:57Z</time>
      </trkpt>
      <trkpt lat="46.12999" lon="6.13282">
        <ele>586.6</ele>
        <time>2021-03-27T16:12:58Z</time>
      </trkpt>
      <trkpt lat="46.13008" lon="6.13284">
        <ele>585.8</ele>
        <time>2021-03-27T16:12:59Z</time>
      </trkpt>
      <trkpt lat="46.13017" lon="6.13286">
        <ele>585</ele>
        <time>2021-03-27T16:13:00Z</time>
      </trkpt>
      <trkpt lat="46.13026" lon="6.13287">
        <ele>583.8</ele>
        <time>2021-03-27T16:13:01Z</time>
      </trkpt>
      <trkpt lat="46.13035" lon="6.13287">
        <ele>583</ele>
        <time>2021-03-27T16:13:02Z</time>
      </trkpt>
      <trkpt lat="46.13045" lon="6.13288">
        <ele>582.4</ele>
        <time>2021-03-27T16:13:03Z</time>
      </trkpt>
      <trkpt lat="46.13054" lon="6.13288">
        <ele>582</ele>
        <time>2021-03-27T16:13:04Z</time>
      </trkpt>
      <trkpt lat="46.13064" lon="6.13289">
        <ele>581.6</ele>
        <time>2021-03-27T16:13:05Z</time>
      </trkpt>
      <trkpt lat="46.13074" lon="6.1329">
        <ele>581</ele>
        <time>2021-03-27T16:13:06Z</time>
      </trkpt>
      <trkpt lat="46.13083" lon="6.13291">
        <ele>580.4</ele>
        <time>2021-03-27T16:13:07Z</time>
      </trkpt>
      <trkpt lat="46.13093" lon="6.13292">
        <ele>579.8</ele>
        <time>2021-03-27T16:13:08Z</time>
      </trkpt>
      <trkpt lat="46.13103" lon="6.13292">
        <ele>579.4</ele>
        <time>2021-03-27T16:13:09Z</time>
      </trkpt>
      <trkpt lat="46.13112" lon="6.13291">
        <ele>579.2</ele>
        <time>2021-03-27T16:13:10Z</time>
      </trkpt>
      <trkpt lat="46.13122" lon="6.1329">
        <ele>578.8</ele>
        <time>2021-03-27T16:13:11Z</time>
      </trkpt>
      <trkpt lat="46.13132" lon="6.13286">
        <ele>578.2</ele>
        <time>2021-03-27T16:13:12Z</time>
      </trkpt>
      <trkpt lat="46.13141" lon="6.13281">
        <ele>577.4</ele>
        <time>2021-03-27T16:13:13Z</time>
      </trkpt>
      <trkpt lat="46.13151" lon="6.13274">
        <ele>577</ele>
        <time>2021-03-27T16:13:14Z</time>
      </trkpt>
      <trkpt lat="46.13161" lon="6.13267">
        <ele>576.2</ele>
        <time>2021-03-27T16:13:15Z</time>
      </trkpt>
      <trkpt lat="46.13171" lon="6.1326">
        <ele>576.2</ele>
        <time>2021-03-27T16:13:16Z</time>
      </trkpt>
      <trkpt lat="46.1318" lon="6.13253">
        <ele>575.4</ele>
        <time>2021-03-27T16:13:17Z</time>
      </trkpt>
      <trkpt lat="46.13189" lon="6.13246">
        <ele>574.8</ele>
        <time>2021-03-27T16:13:18Z</time>
      </trkpt>
      <trkpt lat="46.13197" lon="6.1324">
        <ele>574.4</ele>
        <time>2021-03-27T16:13:19Z</time>
      </trkpt>
      <trkpt lat="46.13204" lon="6.13234">
        <ele>573.6</ele>
        <time>2021-03-27T16:13:20Z</time>
      </trkpt>
      <trkpt lat="46.13211" lon="6.1323">
        <ele>572.4</ele>
        <time>2021-03-27T16:13:21Z</time>
      </trkpt>
      <trkpt lat="46.13218" lon="6.13229">
        <ele>571</ele>
        <time>2021-03-27T16:13:22Z</time>
      </trkpt>
      <trkpt lat="46.13226" lon="6.1323">
        <ele>569.6</ele>
        <time>2021-03-27T16:13:23Z</time>
      </trkpt>
      <trkpt lat="46.13234" lon="6.13231">
        <ele>568.4</ele>
        <time>2021-03-27T16:13:24Z</time>
      </trkpt>
      <trkpt lat="46.13243" lon="6.13233">
        <ele>567.6</ele>
        <time>2021-03-27T16:13:25Z</time>
      </trkpt>
      <trkpt lat="46.13251" lon="6.13234">
        <ele>566.6</ele>
        <time>2021-03-27T16:13:26Z</time>
      </trkpt>
      <trkpt lat="46.13261" lon="6.13237">
        <ele>565.8</ele>
        <time>2021-03-27T16:13:27Z</time>
      </trkpt>
      <trkpt lat="46.1327" lon="6.1324">
        <ele>565.2</ele>
        <time>2021-03-27T16:13:28Z</time>
      </trkpt>
      <trkpt lat="46.13279" lon="6.13243">
        <ele>564.8</ele>
        <time>2021-03-27T16:13:29Z</time>
      </trkpt>
      <trkpt lat="46.13289" lon="6.13247">
        <ele>564.6</ele>
        <time>2021-03-27T16:13:30Z</time>
      </trkpt>
      <trkpt lat="46.133" lon="6.13251">
        <ele>563.8</ele>
        <time>2021-03-27T16:13:31Z</time>
      </trkpt>
      <trkpt lat="46.1331" lon="6.13256">
        <ele>563</ele>
        <time>2021-03-27T16:13:32Z</time>
      </trkpt>
      <trkpt lat="46.1332" lon="6.1326">
        <ele>562.4</ele>
        <time>2021-03-27T16:13:33Z</time>
      </trkpt>
      <trkpt lat="46.13331" lon="6.13264">
        <ele>561.2</ele>
        <time>2021-03-27T16:13:34Z</time>
      </trkpt>
      <trkpt lat="46.13343" lon="6.13267">
        <ele>560.2</ele>
        <time>2021-03-27T16:13:35Z</time>
      </trkpt>
      <trkpt lat="46.13354" lon="6.13271">
        <ele>559.2</ele>
        <time>2021-03-27T16:13:36Z</time>
      </trkpt>
      <trkpt lat="46.13365" lon="6.13275">
        <ele>558</ele>
        <time>2021-03-27T16:13:37Z</time>
      </trkpt>
      <trkpt lat="46.13375" lon="6.13279">
        <ele>557</ele>
        <time>2021-03-27T16:13:38Z</time>
      </trkpt>
      <trkpt lat="46.13386" lon="6.13283">
        <ele>556.6</ele>
        <time>2021-03-27T16:13:39Z</time>
      </trkpt>
      <trkpt lat="46.13395" lon="6.13286">
        <ele>556</ele>
        <time>2021-03-27T16:13:40Z</time>
      </trkpt>
      <trkpt lat="46.13404" lon="6.1329">
        <ele>555</ele>
        <time>2021-03-27T16:13:41Z</time>
      </trkpt>
      <trkpt lat="46.13412" lon="6.13295">
        <ele>554.2</ele>
        <time>2021-03-27T16:13:42Z</time>
      </trkpt>
      <trkpt lat="46.1342" lon="6.13301">
        <ele>553.2</ele>
        <time>2021-03-27T16:13:43Z</time>
      </trkpt>
      <trkpt lat="46.13428" lon="6.13308">
        <ele>552.4</ele>
        <time>2021-03-27T16:13:44Z</time>
      </trkpt>
      <trkpt lat="46.13435" lon="6.13314">
        <ele>551.4</ele>
        <time>2021-03-27T16:13:45Z</time>
      </trkpt>
      <trkpt lat="46.13442" lon="6.13321">
        <ele>550.4</ele>
        <time>2021-03-27T16:13:46Z</time>
      </trkpt>
      <trkpt lat="46.13449" lon="6.13327">
        <ele>549.8</ele>
        <time>2021-03-27T16:13:47Z</time>
      </trkpt>
      <trkpt lat="46.13455" lon="6.13334">
        <ele>548.8</ele>
        <time>2021-03-27T16:13:48Z</time>
      </trkpt>
      <trkpt lat="46.13461" lon="6.13339">
        <ele>548.2</ele>
        <time>2021-03-27T16:13:49Z</time>
      </trkpt>
      <trkpt lat="46.13466" lon="6.13344">
        <ele>547.6</ele>
        <time>2021-03-27T16:13:50Z</time>
      </trkpt>
      <trkpt lat="46.1347" lon="6.13349">
        <ele>546.6</ele>
        <time>2021-03-27T16:13:51Z</time>
      </trkpt>
      <trkpt lat="46.13474" lon="6.13352">
        <ele>546.4</ele>
        <time>2021-03-27T16:13:52Z</time>
      </trkpt>
      <trkpt lat="46.13479" lon="6.13356">
        <ele>545.8</ele>
        <time>2021-03-27T16:13:53Z</time>
      </trkpt>
      <trkpt lat="46.13483" lon="6.13358">
        <ele>545.2</ele>
        <time>2021-03-27T16:13:54Z</time>
      </trkpt>
      <trkpt lat="46.13487" lon="6.1336">
        <ele>545</ele>
        <time>2021-03-27T16:13:55Z</time>
      </trkpt>
      <trkpt lat="46.13491" lon="6.1336">
        <ele>544.6</ele>
        <time>2021-03-27T16:13:56Z</time>
      </trkpt>
      <trkpt lat="46.13495" lon="6.13357">
        <ele>544.4</ele>
        <time>2021-03-27T16:13:57Z</time>
      </trkpt>
      <trkpt lat="46.135" lon="6.13354">
        <ele>544.2</ele>
        <time>2021-03-27T16:13:58Z</time>
      </trkpt>
      <trkpt lat="46.13505" lon="6.1335">
        <ele>544</ele>
        <time>2021-03-27T16:13:59Z</time>
      </trkpt>
      <trkpt lat="46.1351" lon="6.13347">
        <ele>544</ele>
        <time>2021-03-27T16:14:00Z</time>
      </trkpt>
      <trkpt lat="46.13515" lon="6.13345">
        <ele>543.6</ele>
        <time>2021-03-27T16:14:01Z</time>
      </trkpt>
      <trkpt lat="46.13527" lon="6.13342">
        <ele>543.4</ele>
        <time>2021-03-27T16:14:03Z</time>
      </trkpt>
      <trkpt lat="46.13533" lon="6.1334">
        <ele>543.2</ele>
        <time>2021-03-27T16:14:04Z</time>
      </trkpt>
      <trkpt lat="46.13539" lon="6.13338">
        <ele>542.8</ele>
        <time>2021-03-27T16:14:05Z</time>
      </trkpt>
      <trkpt lat="46.13545" lon="6.13337">
        <ele>542.4</ele>
        <time>2021-03-27T16:14:06Z</time>
      </trkpt>
      <trkpt lat="46.13552" lon="6.13338">
        <ele>541.6</ele>
        <time>2021-03-27T16:14:07Z</time>
      </trkpt>
      <trkpt lat="46.13559" lon="6.13341">
        <ele>541.2</ele>
        <time>2021-03-27T16:14:08Z</time>
      </trkpt>
      <trkpt lat="46.13565" lon="6.13347">
        <ele>540.8</ele>
        <time>2021-03-27T16:14:09Z</time>
      </trkpt>
      <trkpt lat="46.13571" lon="6.13353">
        <ele>540.2</ele>
        <time>2021-03-27T16:14:10Z</time>
      </trkpt>
      <trkpt lat="46.13577" lon="6.1336">
        <ele>539.6</ele>
        <time>2021-03-27T16:14:11Z</time>
      </trkpt>
      <trkpt lat="46.13584" lon="6.13366">
        <ele>538.8</ele>
        <time>2021-03-27T16:14:12Z</time>
      </trkpt>
      <trkpt lat="46.13591" lon="6.1337">
        <ele>538.4</ele>
        <time>2021-03-27T16:14:13Z</time>
      </trkpt>
      <trkpt lat="46.13599" lon="6.13375">
        <ele>538</ele>
        <time>2021-03-27T16:14:14Z</time>
      </trkpt>
      <trkpt lat="46.13607" lon="6.13379">
        <ele>537.6</ele>
        <time>2021-03-27T16:14:15Z</time>
      </trkpt>
      <trkpt lat="46.13615" lon="6.13382">
        <ele>537</ele>
        <time>2021-03-27T16:14:16Z</time>
      </trkpt>
      <trkpt lat="46.13624" lon="6.13386">
        <ele>536.4</ele>
        <time>2021-03-27T16:14:17Z</time>
      </trkpt>
      <trkpt lat="46.13633" lon="6.1339">
        <ele>536.4</ele>
        <time>2021-03-27T16:14:18Z</time>
      </trkpt>
      <trkpt lat="46.13641" lon="6.13394">
        <ele>535.6</ele>
        <time>2021-03-27T16:14:19Z</time>
      </trkpt>
      <trkpt lat="46.13649" lon="6.134">
        <ele>535</ele>
        <time>2021-03-27T16:14:20Z</time>
      </trkpt>
      <trkpt lat="46.13657" lon="6.13405">
        <ele>534.4</ele>
        <time>2021-03-27T16:14:21Z</time>
      </trkpt>
      <trkpt lat="46.13665" lon="6.13412">
        <ele>534</ele>
        <time>2021-03-27T16:14:22Z</time>
      </trkpt>
      <trkpt lat="46.13672" lon="6.13418">
        <ele>533.6</ele>
        <time>2021-03-27T16:14:23Z</time>
      </trkpt>
      <trkpt lat="46.1368" lon="6.13425">
        <ele>533</ele>
        <time>2021-03-27T16:14:24Z</time>
      </trkpt>
      <trkpt lat="46.13688" lon="6.13432">
        <ele>532.8</ele>
        <time>2021-03-27T16:14:25Z</time>
      </trkpt>
      <trkpt lat="46.13695" lon="6.1344">
        <ele>532.4</ele>
        <time>2021-03-27T16:14:26Z</time>
      </trkpt>
      <trkpt lat="46.13703" lon="6.13447">
        <ele>532.2</ele>
        <time>2021-03-27T16:14:27Z</time>
      </trkpt>
      <trkpt lat="46.1371" lon="6.13455">
        <ele>532</ele>
        <time>2021-03-27T16:14:28Z</time>
      </trkpt>
      <trkpt lat="46.13718" lon="6.13462">
        <ele>531.6</ele>
        <time>2021-03-27T16:14:29Z</time>
      </trkpt>
      <trkpt lat="46.13725" lon="6.13469">
        <ele>531.2</ele>
        <time>2021-03-27T16:14:30Z</time>
      </trkpt>
      <trkpt lat="46.13733" lon="6.13476">
        <ele>530.8</ele>
        <time>2021-03-27T16:14:31Z</time>
      </trkpt>
      <trkpt lat="46.1374" lon="6.13481">
        <ele>530.6</ele>
        <time>2021-03-27T16:14:32Z</time>
      </trkpt>
      <trkpt lat="46.13749" lon="6.13484">
        <ele>530.2</ele>
        <time>2021-03-27T16:14:33Z</time>
      </trkpt>
      <trkpt lat="46.13758" lon="6.13486">
        <ele>529.8</ele>
        <time>2021-03-27T16:14:34Z</time>
      </trkpt>
      <trkpt lat="46.13767" lon="6.13485">
        <ele>529.2</ele>
        <time>2021-03-27T16:14:35Z</time>
      </trkpt>
      <trkpt lat="46.13777" lon="6.13483">
        <ele>528.8</ele>
        <time>2021-03-27T16:14:36Z</time>
      </trkpt>
      <trkpt lat="46.13787" lon="6.13479">
        <ele>528.4</ele>
        <time>2021-03-27T16:14:37Z</time>
      </trkpt>
      <trkpt lat="46.13797" lon="6.13475">
        <ele>528</ele>
        <time>2021-03-27T16:14:38Z</time>
      </trkpt>
      <trkpt lat="46.13806" lon="6.1347">
        <ele>527.6</ele>
        <time>2021-03-27T16:14:39Z</time>
      </trkpt>
      <trkpt lat="46.13815" lon="6.13465">
        <ele>527.4</ele>
        <time>2021-03-27T16:14:40Z</time>
      </trkpt>
      <trkpt lat="46.13825" lon="6.13459">
        <ele>526.8</ele>
        <time>2021-03-27T16:14:41Z</time>
      </trkpt>
      <trkpt lat="46.13834" lon="6.13452">
        <ele>526.6</ele>
        <time>2021-03-27T16:14:42Z</time>
      </trkpt>
      <trkpt lat="46.13843" lon="6.13444">
        <ele>526</ele>
        <time>2021-03-27T16:14:43Z</time>
      </trkpt>
      <trkpt lat="46.13852" lon="6.13437">
        <ele>525.6</ele>
        <time>2021-03-27T16:14:44Z</time>
      </trkpt>
      <trkpt lat="46.13863" lon="6.13432">
        <ele>524.8</ele>
        <time>2021-03-27T16:14:45Z</time>
      </trkpt>
      <trkpt lat="46.13873" lon="6.13432">
        <ele>523.6</ele>
        <time>2021-03-27T16:14:46Z</time>
      </trkpt>
      <trkpt lat="46.13885" lon="6.13435">
        <ele>522.6</ele>
        <time>2021-03-27T16:14:47Z</time>
      </trkpt>
      <trkpt lat="46.13895" lon="6.1344">
        <ele>521.8</ele>
        <time>2021-03-27T16:14:48Z</time>
      </trkpt>
      <trkpt lat="46.13905" lon="6.13446">
        <ele>521.2</ele>
        <time>2021-03-27T16:14:49Z</time>
      </trkpt>
      <trkpt lat="46.13915" lon="6.13452">
        <ele>520.2</ele>
        <time>2021-03-27T16:14:50Z</time>
      </trkpt>
      <trkpt lat="46.13925" lon="6.13458">
        <ele>519.4</ele>
        <time>2021-03-27T16:14:51Z</time>
      </trkpt>
      <trkpt lat="46.13936" lon="6.13464">
        <ele>518.8</ele>
        <time>2021-03-27T16:14:52Z</time>
      </trkpt>
      <trkpt lat="46.13946" lon="6.13471">
        <ele>518.2</ele>
        <time>2021-03-27T16:14:53Z</time>
      </trkpt>
      <trkpt lat="46.13957" lon="6.13479">
        <ele>518.2</ele>
        <time>2021-03-27T16:14:54Z</time>
      </trkpt>
      <trkpt lat="46.13968" lon="6.13487">
        <ele>517.6</ele>
        <time>2021-03-27T16:14:55Z</time>
      </trkpt>
      <trkpt lat="46.13979" lon="6.13495">
        <ele>517.2</ele>
        <time>2021-03-27T16:14:56Z</time>
      </trkpt>
      <trkpt lat="46.1399" lon="6.13503">
        <ele>516.8</ele>
        <time>2021-03-27T16:14:57Z</time>
      </trkpt>
      <trkpt lat="46.14001" lon="6.13512">
        <ele>516.2</ele>
        <time>2021-03-27T16:14:58Z</time>
      </trkpt>
      <trkpt lat="46.14012" lon="6.1352">
        <ele>515.4</ele>
        <time>2021-03-27T16:14:59Z</time>
      </trkpt>
      <trkpt lat="46.14022" lon="6.13529">
        <ele>514.4</ele>
        <time>2021-03-27T16:15:00Z</time>
      </trkpt>
      <trkpt lat="46.14033" lon="6.13538">
        <ele>513.6</ele>
        <time>2021-03-27T16:15:01Z</time>
      </trkpt>
      <trkpt lat="46.14044" lon="6.13547">
        <ele>512.2</ele>
        <time>2021-03-27T16:15:02Z</time>
      </trkpt>
      <trkpt lat="46.14055" lon="6.13557">
        <ele>510.2</ele>
        <time>2021-03-27T16:15:03Z</time>
      </trkpt>
      <trkpt lat="46.14066" lon="6.13566">
        <ele>509</ele>
        <time>2021-03-27T16:15:04Z</time>
      </trkpt>
      <trkpt lat="46.14076" lon="6.13575">
        <ele>508</ele>
        <time>2021-03-27T16:15:05Z</time>
      </trkpt>
      <trkpt lat="46.14085" lon="6.13584">
        <ele>506.6</ele>
        <time>2021-03-27T16:15:06Z</time>
      </trkpt>
      <trkpt lat="46.14094" lon="6.13594">
        <ele>505</ele>
        <time>2021-03-27T16:15:07Z</time>
      </trkpt>
      <trkpt lat="46.14101" lon="6.13604">
        <ele>504.4</ele>
        <time>2021-03-27T16:15:08Z</time>
      </trkpt>
      <trkpt lat="46.14107" lon="6.13615">
        <ele>503</ele>
        <time>2021-03-27T16:15:09Z</time>
      </trkpt>
      <trkpt lat="46.14112" lon="6.13625">
        <ele>501.6</ele>
        <time>2021-03-27T16:15:10Z</time>
      </trkpt>
      <trkpt lat="46.14116" lon="6.13634">
        <ele>500.6</ele>
        <time>2021-03-27T16:15:11Z</time>
      </trkpt>
      <trkpt lat="46.14119" lon="6.13642">
        <ele>499</ele>
        <time>2021-03-27T16:15:12Z</time>
      </trkpt>
      <trkpt lat="46.14123" lon="6.1365">
        <ele>498.2</ele>
        <time>2021-03-27T16:15:13Z</time>
      </trkpt>
      <trkpt lat="46.14126" lon="6.13659">
        <ele>497.6</ele>
        <time>2021-03-27T16:15:14Z</time>
      </trkpt>
      <trkpt lat="46.14129" lon="6.13667">
        <ele>497</ele>
        <time>2021-03-27T16:15:15Z</time>
      </trkpt>
      <trkpt lat="46.14132" lon="6.13676">
        <ele>496.2</ele>
        <time>2021-03-27T16:15:16Z</time>
      </trkpt>
      <trkpt lat="46.14133" lon="6.13685">
        <ele>495.8</ele>
        <time>2021-03-27T16:15:17Z</time>
      </trkpt>
      <trkpt lat="46.14134" lon="6.13695">
        <ele>495</ele>
        <time>2021-03-27T16:15:18Z</time>
      </trkpt>
      <trkpt lat="46.14135" lon="6.13704">
        <ele>494.8</ele>
        <time>2021-03-27T16:15:19Z</time>
      </trkpt>
      <trkpt lat="46.14137" lon="6.13714">
        <ele>494.4</ele>
        <time>2021-03-27T16:15:20Z</time>
      </trkpt>
      <trkpt lat="46.14139" lon="6.13724">
        <ele>493.8</ele>
        <time>2021-03-27T16:15:21Z</time>
      </trkpt>
      <trkpt lat="46.14141" lon="6.13735">
        <ele>493.6</ele>
        <time>2021-03-27T16:15:22Z</time>
      </trkpt>
      <trkpt lat="46.14143" lon="6.13746">
        <ele>493.6</ele>
        <time>2021-03-27T16:15:23Z</time>
      </trkpt>
      <trkpt lat="46.14145" lon="6.13757">
        <ele>493.4</ele>
        <time>2021-03-27T16:15:24Z</time>
      </trkpt>
      <trkpt lat="46.14147" lon="6.13768">
        <ele>493</ele>
        <time>2021-03-27T16:15:25Z</time>
      </trkpt>
      <trkpt lat="46.14149" lon="6.13779">
        <ele>492.8</ele>
        <time>2021-03-27T16:15:26Z</time>
      </trkpt>
      <trkpt lat="46.1415" lon="6.1379">
        <ele>492.8</ele>
        <time>2021-03-27T16:15:27Z</time>
      </trkpt>
      <trkpt lat="46.14149" lon="6.13802">
        <ele>492.4</ele>
        <time>2021-03-27T16:15:28Z</time>
      </trkpt>
      <trkpt lat="46.14146" lon="6.13812">
        <ele>492.2</ele>
        <time>2021-03-27T16:15:29Z</time>
      </trkpt>
      <trkpt lat="46.14143" lon="6.13822">
        <ele>492</ele>
        <time>2021-03-27T16:15:30Z</time>
      </trkpt>
      <trkpt lat="46.1414" lon="6.13832">
        <ele>491.8</ele>
        <time>2021-03-27T16:15:31Z</time>
      </trkpt>
      <trkpt lat="46.14137" lon="6.13842">
        <ele>491.4</ele>
        <time>2021-03-27T16:15:32Z</time>
      </trkpt>
      <trkpt lat="46.14134" lon="6.13852">
        <ele>491</ele>
        <time>2021-03-27T16:15:33Z</time>
      </trkpt>
      <trkpt lat="46.14131" lon="6.13862">
        <ele>490.8</ele>
        <time>2021-03-27T16:15:34Z</time>
      </trkpt>
      <trkpt lat="46.14128" lon="6.13872">
        <ele>490.8</ele>
        <time>2021-03-27T16:15:35Z</time>
      </trkpt>
      <trkpt lat="46.14126" lon="6.13882">
        <ele>490.8</ele>
        <time>2021-03-27T16:15:36Z</time>
      </trkpt>
      <trkpt lat="46.14125" lon="6.13893">
        <ele>490.6</ele>
        <time>2021-03-27T16:15:37Z</time>
      </trkpt>
      <trkpt lat="46.14123" lon="6.13904">
        <ele>490.4</ele>
        <time>2021-03-27T16:15:38Z</time>
      </trkpt>
      <trkpt lat="46.14121" lon="6.13914">
        <ele>490.4</ele>
        <time>2021-03-27T16:15:39Z</time>
      </trkpt>
      <trkpt lat="46.14119" lon="6.13925">
        <ele>490.4</ele>
        <time>2021-03-27T16:15:40Z</time>
      </trkpt>
      <trkpt lat="46.14117" lon="6.13935">
        <ele>490.4</ele>
        <time>2021-03-27T16:15:41Z</time>
      </trkpt>
      <trkpt lat="46.14114" lon="6.13945">
        <ele>490.4</ele>
        <time>2021-03-27T16:15:42Z</time>
      </trkpt>
      <trkpt lat="46.14112" lon="6.13955">
        <ele>490.4</ele>
        <time>2021-03-27T16:15:43Z</time>
      </trkpt>
      <trkpt lat="46.14111" lon="6.13965">
        <ele>490.2</ele>
        <time>2021-03-27T16:15:44Z</time>
      </trkpt>
      <trkpt lat="46.14108" lon="6.13974">
        <ele>490.4</ele>
        <time>2021-03-27T16:15:45Z</time>
      </trkpt>
      <trkpt lat="46.14107" lon="6.13983">
        <ele>490.4</ele>
        <time>2021-03-27T16:15:46Z</time>
      </trkpt>
      <trkpt lat="46.14106" lon="6.13992">
        <ele>490.6</ele>
        <time>2021-03-27T16:15:47Z</time>
      </trkpt>
      <trkpt lat="46.14105" lon="6.13999">
        <ele>490.6</ele>
        <time>2021-03-27T16:15:48Z</time>
      </trkpt>
      <trkpt lat="46.14104" lon="6.14004">
        <ele>490.8</ele>
        <time>2021-03-27T16:15:49Z</time>
      </trkpt>
      <trkpt lat="46.14104" lon="6.14008">
        <ele>490.8</ele>
        <time>2021-03-27T16:15:50Z</time>
      </trkpt>
      <trkpt lat="46.14104" lon="6.14012">
        <ele>491</ele>
        <time>2021-03-27T16:15:51Z</time>
      </trkpt>
      <trkpt lat="46.14104" lon="6.14017">
        <ele>491.2</ele>
        <time>2021-03-27T16:15:52Z</time>
      </trkpt>
      <trkpt lat="46.14104" lon="6.14023">
        <ele>491.4</ele>
        <time>2021-03-27T16:15:53Z</time>
      </trkpt>
      <trkpt lat="46.14104" lon="6.14029">
        <ele>492</ele>
        <time>2021-03-27T16:15:54Z</time>
      </trkpt>
      <trkpt lat="46.14104" lon="6.14037">
        <ele>492.2</ele>
        <time>2021-03-27T16:15:55Z</time>
      </trkpt>
      <trkpt lat="46.14104" lon="6.14045">
        <ele>492.4</ele>
        <time>2021-03-27T16:15:56Z</time>
      </trkpt>
      <trkpt lat="46.14104" lon="6.14054">
        <ele>492.6</ele>
        <time>2021-03-27T16:15:57Z</time>
      </trkpt>
      <trkpt lat="46.14105" lon="6.14062">
        <ele>492.6</ele>
        <time>2021-03-27T16:15:58Z</time>
      </trkpt>
      <trkpt lat="46.14107" lon="6.14071">
        <ele>492.6</ele>
        <time>2021-03-27T16:15:59Z</time>
      </trkpt>
      <trkpt lat="46.14109" lon="6.14079">
        <ele>492.8</ele>
        <time>2021-03-27T16:16:00Z</time>
      </trkpt>
      <trkpt lat="46.1411" lon="6.14088">
        <ele>492.6</ele>
        <time>2021-03-27T16:16:01Z</time>
      </trkpt>
      <trkpt lat="46.14112" lon="6.14096">
        <ele>492.6</ele>
        <time>2021-03-27T16:16:02Z</time>
      </trkpt>
      <trkpt lat="46.14114" lon="6.14104">
        <ele>492.6</ele>
        <time>2021-03-27T16:16:03Z</time>
      </trkpt>
      <trkpt lat="46.14117" lon="6.14112">
        <ele>492.6</ele>
        <time>2021-03-27T16:16:04Z</time>
      </trkpt>
      <trkpt lat="46.14121" lon="6.14119">
        <ele>492.6</ele>
        <time>2021-03-27T16:16:05Z</time>
      </trkpt>
      <trkpt lat="46.14125" lon="6.14125">
        <ele>492.6</ele>
        <time>2021-03-27T16:16:06Z</time>
      </trkpt>
      <trkpt lat="46.14129" lon="6.1413">
        <ele>492.6</ele>
        <time>2021-03-27T16:16:07Z</time>
      </trkpt>
      <trkpt lat="46.14132" lon="6.14134">
        <ele>492.6</ele>
        <time>2021-03-27T16:16:08Z</time>
      </trkpt>
      <trkpt lat="46.14135" lon="6.14137">
        <ele>492.6</ele>
        <time>2021-03-27T16:16:09Z</time>
      </trkpt>
      <trkpt lat="46.14137" lon="6.14139">
        <ele>492.4</ele>
        <time>2021-03-27T16:16:10Z</time>
      </trkpt>
      <trkpt lat="46.14139" lon="6.1414">
        <ele>492.4</ele>
        <time>2021-03-27T16:16:11Z</time>
      </trkpt>
      <trkpt lat="46.14139" lon="6.1414">
        <ele>492.2</ele>
        <time>2021-03-27T16:16:12Z</time>
      </trkpt>
      <trkpt lat="46.1414" lon="6.1414">
        <ele>492.2</ele>
        <time>2021-03-27T16:16:13Z</time>
      </trkpt>
      <trkpt lat="46.14142" lon="6.14139">
        <ele>492</ele>
        <time>2021-03-27T16:16:14Z</time>
      </trkpt>
      <trkpt lat="46.14144" lon="6.14137">
        <ele>492</ele>
        <time>2021-03-27T16:16:15Z</time>
      </trkpt>
      <trkpt lat="46.14146" lon="6.14134">
        <ele>492</ele>
        <time>2021-03-27T16:16:16Z</time>
      </trkpt>
      <trkpt lat="46.14148" lon="6.1413">
        <ele>492</ele>
        <time>2021-03-27T16:16:17Z</time>
      </trkpt>
      <trkpt lat="46.1415" lon="6.14125">
        <ele>492</ele>
        <time>2021-03-27T16:16:18Z</time>
      </trkpt>
      <trkpt lat="46.14152" lon="6.14119">
        <ele>491.8</ele>
        <time>2021-03-27T16:16:19Z</time>
      </trkpt>
      <trkpt lat="46.14155" lon="6.14114">
        <ele>491.8</ele>
        <time>2021-03-27T16:16:20Z</time>
      </trkpt>
      <trkpt lat="46.14158" lon="6.14108">
        <ele>491.8</ele>
        <time>2021-03-27T16:16:21Z</time>
      </trkpt>
      <trkpt lat="46.14161" lon="6.14104">
        <ele>491.8</ele>
        <time>2021-03-27T16:16:22Z</time>
      </trkpt>
      <trkpt lat="46.14165" lon="6.14099">
        <ele>491.6</ele>
        <time>2021-03-27T16:16:23Z</time>
      </trkpt>
      <trkpt lat="46.14169" lon="6.14094">
        <ele>491.4</ele>
        <time>2021-03-27T16:16:24Z</time>
      </trkpt>
      <trkpt lat="46.14173" lon="6.1409">
        <ele>491.2</ele>
        <time>2021-03-27T16:16:25Z</time>
      </trkpt>
      <trkpt lat="46.14177" lon="6.14085">
        <ele>491</ele>
        <time>2021-03-27T16:16:26Z</time>
      </trkpt>
      <trkpt lat="46.14181" lon="6.14079">
        <ele>490.4</ele>
        <time>2021-03-27T16:16:27Z</time>
      </trkpt>
      <trkpt lat="46.14185" lon="6.14073">
        <ele>490.2</ele>
        <time>2021-03-27T16:16:28Z</time>
      </trkpt>
      <trkpt lat="46.14189" lon="6.14067">
        <ele>490.2</ele>
        <time>2021-03-27T16:16:29Z</time>
      </trkpt>
      <trkpt lat="46.14194" lon="6.1406">
        <ele>490</ele>
        <time>2021-03-27T16:16:30Z</time>
      </trkpt>
      <trkpt lat="46.14198" lon="6.14054">
        <ele>489.8</ele>
        <time>2021-03-27T16:16:31Z</time>
      </trkpt>
      <trkpt lat="46.14201" lon="6.14048">
        <ele>489.6</ele>
        <time>2021-03-27T16:16:32Z</time>
      </trkpt>
      <trkpt lat="46.14205" lon="6.14042">
        <ele>489.4</ele>
        <time>2021-03-27T16:16:33Z</time>
      </trkpt>
      <trkpt lat="46.14208" lon="6.14036">
        <ele>489.6</ele>
        <time>2021-03-27T16:16:34Z</time>
      </trkpt>
      <trkpt lat="46.1421" lon="6.14031">
        <ele>489.2</ele>
        <time>2021-03-27T16:16:35Z</time>
      </trkpt>
      <trkpt lat="46.14213" lon="6.14027">
        <ele>489.4</ele>
        <time>2021-03-27T16:16:36Z</time>
      </trkpt>
      <trkpt lat="46.14216" lon="6.14023">
        <ele>489.2</ele>
        <time>2021-03-27T16:16:37Z</time>
      </trkpt>
      <trkpt lat="46.14219" lon="6.14019">
        <ele>489</ele>
        <time>2021-03-27T16:16:38Z</time>
      </trkpt>
      <trkpt lat="46.14223" lon="6.14016">
        <ele>488.8</ele>
        <time>2021-03-27T16:16:39Z</time>
      </trkpt>
      <trkpt lat="46.14227" lon="6.14012">
        <ele>488.6</ele>
        <time>2021-03-27T16:16:40Z</time>
      </trkpt>
      <trkpt lat="46.1423" lon="6.14008">
        <ele>488.4</ele>
        <time>2021-03-27T16:16:41Z</time>
      </trkpt>
      <trkpt lat="46.14234" lon="6.14002">
        <ele>488.2</ele>
        <time>2021-03-27T16:16:42Z</time>
      </trkpt>
      <trkpt lat="46.14238" lon="6.13996">
        <ele>488</ele>
        <time>2021-03-27T16:16:43Z</time>
      </trkpt>
      <trkpt lat="46.14243" lon="6.1399">
        <ele>487.8</ele>
        <time>2021-03-27T16:16:44Z</time>
      </trkpt>
      <trkpt lat="46.14247" lon="6.13983">
        <ele>487.6</ele>
        <time>2021-03-27T16:16:45Z</time>
      </trkpt>
      <trkpt lat="46.14252" lon="6.13976">
        <ele>487.4</ele>
        <time>2021-03-27T16:16:46Z</time>
      </trkpt>
      <trkpt lat="46.14263" lon="6.1396">
        <ele>487</ele>
        <time>2021-03-27T16:16:48Z</time>
      </trkpt>
      <trkpt lat="46.14269" lon="6.13952">
        <ele>486.8</ele>
        <time>2021-03-27T16:16:49Z</time>
      </trkpt>
      <trkpt lat="46.14275" lon="6.13944">
        <ele>486.6</ele>
        <time>2021-03-27T16:16:50Z</time>
      </trkpt>
      <trkpt lat="46.14281" lon="6.13936">
        <ele>486.4</ele>
        <time>2021-03-27T16:16:51Z</time>
      </trkpt>
      <trkpt lat="46.14287" lon="6.13927">
        <ele>486</ele>
        <time>2021-03-27T16:16:52Z</time>
      </trkpt>
      <trkpt lat="46.14293" lon="6.13919">
        <ele>486.2</ele>
        <time>2021-03-27T16:16:53Z</time>
      </trkpt>
      <trkpt lat="46.14299" lon="6.13911">
        <ele>485.6</ele>
        <time>2021-03-27T16:16:54Z</time>
      </trkpt>
      <trkpt lat="46.14305" lon="6.13903">
        <ele>485.2</ele>
        <time>2021-03-27T16:16:55Z</time>
      </trkpt>
      <trkpt lat="46.14311" lon="6.13894">
        <ele>484.8</ele>
        <time>2021-03-27T16:16:56Z</time>
      </trkpt>
      <trkpt lat="46.14317" lon="6.13886">
        <ele>484</ele>
        <time>2021-03-27T16:16:57Z</time>
      </trkpt>
      <trkpt lat="46.14323" lon="6.13879">
        <ele>483.8</ele>
        <time>2021-03-27T16:16:58Z</time>
      </trkpt>
      <trkpt lat="46.14328" lon="6.13872">
        <ele>483.6</ele>
        <time>2021-03-27T16:16:59Z</time>
      </trkpt>
      <trkpt lat="46.14334" lon="6.13865">
        <ele>483.4</ele>
        <time>2021-03-27T16:17:00Z</time>
      </trkpt>
      <trkpt lat="46.14339" lon="6.13858">
        <ele>483.4</ele>
        <time>2021-03-27T16:17:01Z</time>
      </trkpt>
      <trkpt lat="46.14344" lon="6.13851">
        <ele>483.4</ele>
        <time>2021-03-27T16:17:02Z</time>
      </trkpt>
      <trkpt lat="46.1435" lon="6.13845">
        <ele>483.2</ele>
        <time>2021-03-27T16:17:03Z</time>
      </trkpt>
      <trkpt lat="46.14355" lon="6.13838">
        <ele>483.2</ele>
        <time>2021-03-27T16:17:04Z</time>
      </trkpt>
      <trkpt lat="46.1436" lon="6.13831">
        <ele>483.2</ele>
        <time>2021-03-27T16:17:05Z</time>
      </trkpt>
      <trkpt lat="46.14366" lon="6.13825">
        <ele>483.2</ele>
        <time>2021-03-27T16:17:06Z</time>
      </trkpt>
      <trkpt lat="46.14371" lon="6.13819">
        <ele>483.2</ele>
        <time>2021-03-27T16:17:07Z</time>
      </trkpt>
      <trkpt lat="46.14377" lon="6.13813">
        <ele>483</ele>
        <time>2021-03-27T16:17:08Z</time>
      </trkpt>
      <trkpt lat="46.14382" lon="6.13806">
        <ele>483</ele>
        <time>2021-03-27T16:17:09Z</time>
      </trkpt>
      <trkpt lat="46.14387" lon="6.13799">
        <ele>483</ele>
        <time>2021-03-27T16:17:10Z</time>
      </trkpt>
      <trkpt lat="46.14392" lon="6.13793">
        <ele>483</ele>
        <time>2021-03-27T16:17:11Z</time>
      </trkpt>
      <trkpt lat="46.14397" lon="6.13785">
        <ele>483.2</ele>
        <time>2021-03-27T16:17:12Z</time>
      </trkpt>
      <trkpt lat="46.14401" lon="6.13777">
        <ele>483</ele>
        <time>2021-03-27T16:17:13Z</time>
      </trkpt>
      <trkpt lat="46.14406" lon="6.13769">
        <ele>483.2</ele>
        <time>2021-03-27T16:17:14Z</time>
      </trkpt>
      <trkpt lat="46.1441" lon="6.13761">
        <ele>483.2</ele>
        <time>2021-03-27T16:17:15Z</time>
      </trkpt>
      <trkpt lat="46.14415" lon="6.13753">
        <ele>483.4</ele>
        <time>2021-03-27T16:17:16Z</time>
      </trkpt>
      <trkpt lat="46.1442" lon="6.13746">
        <ele>483.4</ele>
        <time>2021-03-27T16:17:17Z</time>
      </trkpt>
      <trkpt lat="46.14425" lon="6.13739">
        <ele>483.6</ele>
        <time>2021-03-27T16:17:18Z</time>
      </trkpt>
      <trkpt lat="46.14431" lon="6.13732">
        <ele>483.6</ele>
        <time>2021-03-27T16:17:19Z</time>
      </trkpt>
      <trkpt lat="46.14436" lon="6.13726">
        <ele>483.6</ele>
        <time>2021-03-27T16:17:20Z</time>
      </trkpt>
      <trkpt lat="46.14442" lon="6.13719">
        <ele>483.8</ele>
        <time>2021-03-27T16:17:21Z</time>
      </trkpt>
      <trkpt lat="46.14447" lon="6.13713">
        <ele>483.6</ele>
        <time>2021-03-27T16:17:22Z</time>
      </trkpt>
      <trkpt lat="46.14453" lon="6.13707">
        <ele>483.8</ele>
        <time>2021-03-27T16:17:23Z</time>
      </trkpt>
      <trkpt lat="46.14458" lon="6.13701">
        <ele>483.8</ele>
        <time>2021-03-27T16:17:24Z</time>
      </trkpt>
      <trkpt lat="46.14463" lon="6.13695">
        <ele>483.8</ele>
        <time>2021-03-27T16:17:25Z</time>
      </trkpt>
      <trkpt lat="46.14469" lon="6.13689">
        <ele>484</ele>
        <time>2021-03-27T16:17:26Z</time>
      </trkpt>
      <trkpt lat="46.14474" lon="6.13684">
        <ele>483.8</ele>
        <time>2021-03-27T16:17:27Z</time>
      </trkpt>
      <trkpt lat="46.14479" lon="6.13679">
        <ele>484.4</ele>
        <time>2021-03-27T16:17:28Z</time>
      </trkpt>
      <trkpt lat="46.14485" lon="6.13674">
        <ele>484.6</ele>
        <time>2021-03-27T16:17:29Z</time>
      </trkpt>
      <trkpt lat="46.1449" lon="6.13668">
        <ele>484.8</ele>
        <time>2021-03-27T16:17:30Z</time>
      </trkpt>
      <trkpt lat="46.14495" lon="6.13663">
        <ele>485.2</ele>
        <time>2021-03-27T16:17:31Z</time>
      </trkpt>
      <trkpt lat="46.145" lon="6.13658">
        <ele>485.2</ele>
        <time>2021-03-27T16:17:32Z</time>
      </trkpt>
      <trkpt lat="46.14505" lon="6.13653">
        <ele>485.4</ele>
        <time>2021-03-27T16:17:33Z</time>
      </trkpt>
      <trkpt lat="46.1451" lon="6.13649">
        <ele>485.6</ele>
        <time>2021-03-27T16:17:34Z</time>
      </trkpt>
      <trkpt lat="46.14515" lon="6.13646">
        <ele>485.8</ele>
        <time>2021-03-27T16:17:35Z</time>
      </trkpt>
      <trkpt lat="46.1452" lon="6.13645">
        <ele>485.8</ele>
        <time>2021-03-27T16:17:36Z</time>
      </trkpt>
      <trkpt lat="46.14526" lon="6.13645">
        <ele>485.8</ele>
        <time>2021-03-27T16:17:37Z</time>
      </trkpt>
      <trkpt lat="46.14532" lon="6.13646">
        <ele>486</ele>
        <time>2021-03-27T16:17:38Z</time>
      </trkpt>
      <trkpt lat="46.14538" lon="6.13648">
        <ele>486</ele>
        <time>2021-03-27T16:17:39Z</time>
      </trkpt>
      <trkpt lat="46.14544" lon="6.13649">
        <ele>486</ele>
        <time>2021-03-27T16:17:40Z</time>
      </trkpt>
      <trkpt lat="46.14551" lon="6.1365">
        <ele>486.2</ele>
        <time>2021-03-27T16:17:41Z</time>
      </trkpt>
      <trkpt lat="46.14558" lon="6.13652">
        <ele>486.2</ele>
        <time>2021-03-27T16:17:42Z</time>
      </trkpt>
      <trkpt lat="46.14565" lon="6.13653">
        <ele>486</ele>
        <time>2021-03-27T16:17:43Z</time>
      </trkpt>
      <trkpt lat="46.14573" lon="6.13655">
        <ele>486</ele>
        <time>2021-03-27T16:17:44Z</time>
      </trkpt>
      <trkpt lat="46.1458" lon="6.13656">
        <ele>486.2</ele>
        <time>2021-03-27T16:17:45Z</time>
      </trkpt>
      <trkpt lat="46.14596" lon="6.13659">
        <ele>486.2</ele>
        <time>2021-03-27T16:17:47Z</time>
      </trkpt>
      <trkpt lat="46.14604" lon="6.13661">
        <ele>486.2</ele>
        <time>2021-03-27T16:17:48Z</time>
      </trkpt>
      <trkpt lat="46.14612" lon="6.13664">
        <ele>486.2</ele>
        <time>2021-03-27T16:17:49Z</time>
      </trkpt>
      <trkpt lat="46.1462" lon="6.13668">
        <ele>486</ele>
        <time>2021-03-27T16:17:50Z</time>
      </trkpt>
      <trkpt lat="46.14628" lon="6.13672">
        <ele>486</ele>
        <time>2021-03-27T16:17:51Z</time>
      </trkpt>
      <trkpt lat="46.14636" lon="6.13676">
        <ele>486</ele>
        <time>2021-03-27T16:17:52Z</time>
      </trkpt>
      <trkpt lat="46.14643" lon="6.13682">
        <ele>485.8</ele>
        <time>2021-03-27T16:17:53Z</time>
      </trkpt>
      <trkpt lat="46.14651" lon="6.13688">
        <ele>485.6</ele>
        <time>2021-03-27T16:17:54Z</time>
      </trkpt>
      <trkpt lat="46.14658" lon="6.13694">
        <ele>485.2</ele>
        <time>2021-03-27T16:17:55Z</time>
      </trkpt>
      <trkpt lat="46.14665" lon="6.137">
        <ele>485</ele>
        <time>2021-03-27T16:17:56Z</time>
      </trkpt>
      <trkpt lat="46.14673" lon="6.13706">
        <ele>484.8</ele>
        <time>2021-03-27T16:17:57Z</time>
      </trkpt>
      <trkpt lat="46.14681" lon="6.13712">
        <ele>484.6</ele>
        <time>2021-03-27T16:17:58Z</time>
      </trkpt>
      <trkpt lat="46.14689" lon="6.13718">
        <ele>484.6</ele>
        <time>2021-03-27T16:17:59Z</time>
      </trkpt>
      <trkpt lat="46.14697" lon="6.13725">
        <ele>484.6</ele>
        <time>2021-03-27T16:18:00Z</time>
      </trkpt>
      <trkpt lat="46.14705" lon="6.13731">
        <ele>484.2</ele>
        <time>2021-03-27T16:18:01Z</time>
      </trkpt>
      <trkpt lat="46.14714" lon="6.13738">
        <ele>484.2</ele>
        <time>2021-03-27T16:18:02Z</time>
      </trkpt>
      <trkpt lat="46.14722" lon="6.13745">
        <ele>483.6</ele>
        <time>2021-03-27T16:18:03Z</time>
      </trkpt>
      <trkpt lat="46.14731" lon="6.13752">
        <ele>483.6</ele>
        <time>2021-03-27T16:18:04Z</time>
      </trkpt>
      <trkpt lat="46.1474" lon="6.13759">
        <ele>483.2</ele>
        <time>2021-03-27T16:18:05Z</time>
      </trkpt>
      <trkpt lat="46.1475" lon="6.13766">
        <ele>483</ele>
        <time>2021-03-27T16:18:06Z</time>
      </trkpt>
      <trkpt lat="46.14759" lon="6.13773">
        <ele>482.6</ele>
        <time>2021-03-27T16:18:07Z</time>
      </trkpt>
      <trkpt lat="46.14769" lon="6.13781">
        <ele>482</ele>
        <time>2021-03-27T16:18:08Z</time>
      </trkpt>
      <trkpt lat="46.14779" lon="6.13788">
        <ele>481.6</ele>
        <time>2021-03-27T16:18:09Z</time>
      </trkpt>
      <trkpt lat="46.14789" lon="6.13794">
        <ele>481.2</ele>
        <time>2021-03-27T16:18:10Z</time>
      </trkpt>
      <trkpt lat="46.14799" lon="6.138">
        <ele>480.8</ele>
        <time>2021-03-27T16:18:11Z</time>
      </trkpt>
      <trkpt lat="46.1481" lon="6.13805">
        <ele>480.4</ele>
        <time>2021-03-27T16:18:12Z</time>
      </trkpt>
      <trkpt lat="46.1482" lon="6.13809">
        <ele>479.6</ele>
        <time>2021-03-27T16:18:13Z</time>
      </trkpt>
      <trkpt lat="46.1483" lon="6.13813">
        <ele>479.2</ele>
        <time>2021-03-27T16:18:14Z</time>
      </trkpt>
      <trkpt lat="46.14841" lon="6.13816">
        <ele>478.6</ele>
        <time>2021-03-27T16:18:15Z</time>
      </trkpt>
      <trkpt lat="46.14851" lon="6.13819">
        <ele>478</ele>
        <time>2021-03-27T16:18:16Z</time>
      </trkpt>
      <trkpt lat="46.14861" lon="6.13822">
        <ele>477.8</ele>
        <time>2021-03-27T16:18:17Z</time>
      </trkpt>
      <trkpt lat="46.14872" lon="6.13823">
        <ele>477.2</ele>
        <time>2021-03-27T16:18:18Z</time>
      </trkpt>
      <trkpt lat="46.14882" lon="6.13824">
        <ele>476.8</ele>
        <time>2021-03-27T16:18:19Z</time>
      </trkpt>
      <trkpt lat="46.14893" lon="6.13826">
        <ele>476.4</ele>
        <time>2021-03-27T16:18:20Z</time>
      </trkpt>
      <trkpt lat="46.14903" lon="6.13826">
        <ele>476.2</ele>
        <time>2021-03-27T16:18:21Z</time>
      </trkpt>
      <trkpt lat="46.14914" lon="6.13827">
        <ele>476</ele>
        <time>2021-03-27T16:18:22Z</time>
      </trkpt>
      <trkpt lat="46.14924" lon="6.13827">
        <ele>475.8</ele>
        <time>2021-03-27T16:18:23Z</time>
      </trkpt>
      <trkpt lat="46.14935" lon="6.13827">
        <ele>475.6</ele>
        <time>2021-03-27T16:18:24Z</time>
      </trkpt>
      <trkpt lat="46.14945" lon="6.13826">
        <ele>475.6</ele>
        <time>2021-03-27T16:18:25Z</time>
      </trkpt>
      <trkpt lat="46.14955" lon="6.13825">
        <ele>475.6</ele>
        <time>2021-03-27T16:18:26Z</time>
      </trkpt>
      <trkpt lat="46.14965" lon="6.13824">
        <ele>475.4</ele>
        <time>2021-03-27T16:18:27Z</time>
      </trkpt>
      <trkpt lat="46.14975" lon="6.13823">
        <ele>475.2</ele>
        <time>2021-03-27T16:18:28Z</time>
      </trkpt>
      <trkpt lat="46.14986" lon="6.13822">
        <ele>475.2</ele>
        <time>2021-03-27T16:18:29Z</time>
      </trkpt>
      <trkpt lat="46.14997" lon="6.13821">
        <ele>475.2</ele>
        <time>2021-03-27T16:18:30Z</time>
      </trkpt>
      <trkpt lat="46.15009" lon="6.13822">
        <ele>475</ele>
        <time>2021-03-27T16:18:31Z</time>
      </trkpt>
      <trkpt lat="46.1502" lon="6.13823">
        <ele>474.8</ele>
        <time>2021-03-27T16:18:32Z</time>
      </trkpt>
      <trkpt lat="46.15032" lon="6.13825">
        <ele>474.6</ele>
        <time>2021-03-27T16:18:33Z</time>
      </trkpt>
      <trkpt lat="46.15043" lon="6.13827">
        <ele>474.2</ele>
        <time>2021-03-27T16:18:34Z</time>
      </trkpt>
      <trkpt lat="46.15053" lon="6.13831">
        <ele>474</ele>
        <time>2021-03-27T16:18:35Z</time>
      </trkpt>
      <trkpt lat="46.15064" lon="6.13835">
        <ele>473.4</ele>
        <time>2021-03-27T16:18:36Z</time>
      </trkpt>
      <trkpt lat="46.15074" lon="6.1384">
        <ele>473</ele>
        <time>2021-03-27T16:18:37Z</time>
      </trkpt>
      <trkpt lat="46.15084" lon="6.13844">
        <ele>472.8</ele>
        <time>2021-03-27T16:18:38Z</time>
      </trkpt>
      <trkpt lat="46.15095" lon="6.13849">
        <ele>472.2</ele>
        <time>2021-03-27T16:18:39Z</time>
      </trkpt>
      <trkpt lat="46.15106" lon="6.13855">
        <ele>471.6</ele>
        <time>2021-03-27T16:18:40Z</time>
      </trkpt>
      <trkpt lat="46.15117" lon="6.1386">
        <ele>471.2</ele>
        <time>2021-03-27T16:18:41Z</time>
      </trkpt>
      <trkpt lat="46.15128" lon="6.13866">
        <ele>471</ele>
        <time>2021-03-27T16:18:42Z</time>
      </trkpt>
      <trkpt lat="46.15139" lon="6.13871">
        <ele>470.4</ele>
        <time>2021-03-27T16:18:43Z</time>
      </trkpt>
      <trkpt lat="46.1515" lon="6.13876">
        <ele>470</ele>
        <time>2021-03-27T16:18:44Z</time>
      </trkpt>
      <trkpt lat="46.15161" lon="6.13881">
        <ele>469.4</ele>
        <time>2021-03-27T16:18:45Z</time>
      </trkpt>
      <trkpt lat="46.15172" lon="6.13886">
        <ele>468.8</ele>
        <time>2021-03-27T16:18:46Z</time>
      </trkpt>
      <trkpt lat="46.15182" lon="6.13891">
        <ele>468.2</ele>
        <time>2021-03-27T16:18:47Z</time>
      </trkpt>
      <trkpt lat="46.15193" lon="6.13895">
        <ele>467.8</ele>
        <time>2021-03-27T16:18:48Z</time>
      </trkpt>
      <trkpt lat="46.15203" lon="6.13898">
        <ele>467.8</ele>
        <time>2021-03-27T16:18:49Z</time>
      </trkpt>
      <trkpt lat="46.15213" lon="6.13901">
        <ele>467.6</ele>
        <time>2021-03-27T16:18:50Z</time>
      </trkpt>
      <trkpt lat="46.15224" lon="6.13904">
        <ele>467.2</ele>
        <time>2021-03-27T16:18:51Z</time>
      </trkpt>
      <trkpt lat="46.15234" lon="6.13906">
        <ele>466.8</ele>
        <time>2021-03-27T16:18:52Z</time>
      </trkpt>
      <trkpt lat="46.15245" lon="6.13907">
        <ele>466.6</ele>
        <time>2021-03-27T16:18:53Z</time>
      </trkpt>
      <trkpt lat="46.15256" lon="6.13909">
        <ele>466.2</ele>
        <time>2021-03-27T16:18:54Z</time>
      </trkpt>
      <trkpt lat="46.15267" lon="6.13911">
        <ele>466</ele>
        <time>2021-03-27T16:18:55Z</time>
      </trkpt>
      <trkpt lat="46.15277" lon="6.13912">
        <ele>465.8</ele>
        <time>2021-03-27T16:18:56Z</time>
      </trkpt>
      <trkpt lat="46.15288" lon="6.13914">
        <ele>465.4</ele>
        <time>2021-03-27T16:18:57Z</time>
      </trkpt>
      <trkpt lat="46.15298" lon="6.13916">
        <ele>465.2</ele>
        <time>2021-03-27T16:18:58Z</time>
      </trkpt>
      <trkpt lat="46.15309" lon="6.13918">
        <ele>465</ele>
        <time>2021-03-27T16:18:59Z</time>
      </trkpt>
      <trkpt lat="46.1532" lon="6.1392">
        <ele>464.6</ele>
        <time>2021-03-27T16:19:00Z</time>
      </trkpt>
      <trkpt lat="46.15331" lon="6.13922">
        <ele>464.2</ele>
        <time>2021-03-27T16:19:01Z</time>
      </trkpt>
      <trkpt lat="46.15342" lon="6.13923">
        <ele>464</ele>
        <time>2021-03-27T16:19:02Z</time>
      </trkpt>
      <trkpt lat="46.15352" lon="6.13923">
        <ele>463.4</ele>
        <time>2021-03-27T16:19:03Z</time>
      </trkpt>
      <trkpt lat="46.15363" lon="6.13922">
        <ele>462.8</ele>
        <time>2021-03-27T16:19:04Z</time>
      </trkpt>
      <trkpt lat="46.15374" lon="6.13922">
        <ele>462.6</ele>
        <time>2021-03-27T16:19:05Z</time>
      </trkpt>
      <trkpt lat="46.15384" lon="6.13921">
        <ele>462.2</ele>
        <time>2021-03-27T16:19:06Z</time>
      </trkpt>
      <trkpt lat="46.15395" lon="6.1392">
        <ele>462</ele>
        <time>2021-03-27T16:19:07Z</time>
      </trkpt>
      <trkpt lat="46.15404" lon="6.13918">
        <ele>461.8</ele>
        <time>2021-03-27T16:19:08Z</time>
      </trkpt>
      <trkpt lat="46.15414" lon="6.13917">
        <ele>461.4</ele>
        <time>2021-03-27T16:19:09Z</time>
      </trkpt>
      <trkpt lat="46.15424" lon="6.13916">
        <ele>461.4</ele>
        <time>2021-03-27T16:19:10Z</time>
      </trkpt>
      <trkpt lat="46.15435" lon="6.13916">
        <ele>461.2</ele>
        <time>2021-03-27T16:19:11Z</time>
      </trkpt>
      <trkpt lat="46.15445" lon="6.13916">
        <ele>461</ele>
        <time>2021-03-27T16:19:12Z</time>
      </trkpt>
      <trkpt lat="46.15455" lon="6.13917">
        <ele>461</ele>
        <time>2021-03-27T16:19:13Z</time>
      </trkpt>
      <trkpt lat="46.15465" lon="6.13918">
        <ele>460.8</ele>
        <time>2021-03-27T16:19:14Z</time>
      </trkpt>
      <trkpt lat="46.15476" lon="6.13919">
        <ele>460.6</ele>
        <time>2021-03-27T16:19:15Z</time>
      </trkpt>
      <trkpt lat="46.15487" lon="6.13921">
        <ele>460.6</ele>
        <time>2021-03-27T16:19:16Z</time>
      </trkpt>
      <trkpt lat="46.15498" lon="6.13923">
        <ele>460.4</ele>
        <time>2021-03-27T16:19:17Z</time>
      </trkpt>
      <trkpt lat="46.15508" lon="6.13925">
        <ele>460.2</ele>
        <time>2021-03-27T16:19:18Z</time>
      </trkpt>
      <trkpt lat="46.15519" lon="6.13928">
        <ele>460.2</ele>
        <time>2021-03-27T16:19:19Z</time>
      </trkpt>
      <trkpt lat="46.1553" lon="6.1393">
        <ele>459.6</ele>
        <time>2021-03-27T16:19:20Z</time>
      </trkpt>
      <trkpt lat="46.1554" lon="6.13933">
        <ele>459.2</ele>
        <time>2021-03-27T16:19:21Z</time>
      </trkpt>
      <trkpt lat="46.15551" lon="6.13935">
        <ele>458.8</ele>
        <time>2021-03-27T16:19:22Z</time>
      </trkpt>
      <trkpt lat="46.15562" lon="6.13938">
        <ele>458.6</ele>
        <time>2021-03-27T16:19:23Z</time>
      </trkpt>
      <trkpt lat="46.15573" lon="6.13941">
        <ele>458.2</ele>
        <time>2021-03-27T16:19:24Z</time>
      </trkpt>
      <trkpt lat="46.15584" lon="6.13944">
        <ele>457.8</ele>
        <time>2021-03-27T16:19:25Z</time>
      </trkpt>
      <trkpt lat="46.15594" lon="6.13947">
        <ele>457.4</ele>
        <time>2021-03-27T16:19:26Z</time>
      </trkpt>
      <trkpt lat="46.15605" lon="6.13949">
        <ele>457</ele>
        <time>2021-03-27T16:19:27Z</time>
      </trkpt>
      <trkpt lat="46.15615" lon="6.13952">
        <ele>456.6</ele>
        <time>2021-03-27T16:19:28Z</time>
      </trkpt>
      <trkpt lat="46.15625" lon="6.13954">
        <ele>456.4</ele>
        <time>2021-03-27T16:19:29Z</time>
      </trkpt>
      <trkpt lat="46.15635" lon="6.13957">
        <ele>456.4</ele>
        <time>2021-03-27T16:19:30Z</time>
      </trkpt>
      <trkpt lat="46.15645" lon="6.1396">
        <ele>455.8</ele>
        <time>2021-03-27T16:19:31Z</time>
      </trkpt>
      <trkpt lat="46.15655" lon="6.13967">
        <ele>455.6</ele>
        <time>2021-03-27T16:19:32Z</time>
      </trkpt>
      <trkpt lat="46.15663" lon="6.13976">
        <ele>455.4</ele>
        <time>2021-03-27T16:19:33Z</time>
      </trkpt>
      <trkpt lat="46.1567" lon="6.13986">
        <ele>455.2</ele>
        <time>2021-03-27T16:19:34Z</time>
      </trkpt>
      <trkpt lat="46.15676" lon="6.13996">
        <ele>455.2</ele>
        <time>2021-03-27T16:19:35Z</time>
      </trkpt>
      <trkpt lat="46.15688" lon="6.14017">
        <ele>455</ele>
        <time>2021-03-27T16:19:37Z</time>
      </trkpt>
      <trkpt lat="46.15694" lon="6.14028">
        <ele>454.8</ele>
        <time>2021-03-27T16:19:38Z</time>
      </trkpt>
      <trkpt lat="46.157" lon="6.14039">
        <ele>454.6</ele>
        <time>2021-03-27T16:19:39Z</time>
      </trkpt>
      <trkpt lat="46.15706" lon="6.1405">
        <ele>454.2</ele>
        <time>2021-03-27T16:19:40Z</time>
      </trkpt>
      <trkpt lat="46.15712" lon="6.14061">
        <ele>454.2</ele>
        <time>2021-03-27T16:19:41Z</time>
      </trkpt>
      <trkpt lat="46.15725" lon="6.14083">
        <ele>454</ele>
        <time>2021-03-27T16:19:43Z</time>
      </trkpt>
      <trkpt lat="46.15731" lon="6.14094">
        <ele>454</ele>
        <time>2021-03-27T16:19:44Z</time>
      </trkpt>
      <trkpt lat="46.15738" lon="6.14106">
        <ele>453.8</ele>
        <time>2021-03-27T16:19:45Z</time>
      </trkpt>
      <trkpt lat="46.15746" lon="6.14118">
        <ele>453.8</ele>
        <time>2021-03-27T16:19:46Z</time>
      </trkpt>
      <trkpt lat="46.15754" lon="6.1413">
        <ele>453.6</ele>
        <time>2021-03-27T16:19:47Z</time>
      </trkpt>
      <trkpt lat="46.15771" lon="6.14155">
        <ele>453.4</ele>
        <time>2021-03-27T16:19:49Z</time>
      </trkpt>
      <trkpt lat="46.1578" lon="6.14168">
        <ele>453.4</ele>
        <time>2021-03-27T16:19:50Z</time>
      </trkpt>
      <trkpt lat="46.15789" lon="6.1418">
        <ele>453.2</ele>
        <time>2021-03-27T16:19:51Z</time>
      </trkpt>
      <trkpt lat="46.15797" lon="6.14193">
        <ele>452.8</ele>
        <time>2021-03-27T16:19:52Z</time>
      </trkpt>
      <trkpt lat="46.15806" lon="6.14205">
        <ele>452.2</ele>
        <time>2021-03-27T16:19:53Z</time>
      </trkpt>
      <trkpt lat="46.15815" lon="6.14217">
        <ele>451.6</ele>
        <time>2021-03-27T16:19:54Z</time>
      </trkpt>
      <trkpt lat="46.15824" lon="6.1423">
        <ele>450.8</ele>
        <time>2021-03-27T16:19:55Z</time>
      </trkpt>
      <trkpt lat="46.15832" lon="6.14242">
        <ele>450</ele>
        <time>2021-03-27T16:19:56Z</time>
      </trkpt>
      <trkpt lat="46.15841" lon="6.14254">
        <ele>449.2</ele>
        <time>2021-03-27T16:19:57Z</time>
      </trkpt>
      <trkpt lat="46.1585" lon="6.14266">
        <ele>448.6</ele>
        <time>2021-03-27T16:19:58Z</time>
      </trkpt>
      <trkpt lat="46.15859" lon="6.14279">
        <ele>448.2</ele>
        <time>2021-03-27T16:19:59Z</time>
      </trkpt>
      <trkpt lat="46.15867" lon="6.14291">
        <ele>447.8</ele>
        <time>2021-03-27T16:20:00Z</time>
      </trkpt>
      <trkpt lat="46.15875" lon="6.14303">
        <ele>447.4</ele>
        <time>2021-03-27T16:20:01Z</time>
      </trkpt>
      <trkpt lat="46.15883" lon="6.14314">
        <ele>447</ele>
        <time>2021-03-27T16:20:02Z</time>
      </trkpt>
      <trkpt lat="46.15889" lon="6.14327">
        <ele>446.4</ele>
        <time>2021-03-27T16:20:03Z</time>
      </trkpt>
      <trkpt lat="46.15896" lon="6.14339">
        <ele>445.8</ele>
        <time>2021-03-27T16:20:04Z</time>
      </trkpt>
      <trkpt lat="46.15902" lon="6.14352">
        <ele>445.2</ele>
        <time>2021-03-27T16:20:05Z</time>
      </trkpt>
      <trkpt lat="46.15908" lon="6.14365">
        <ele>445</ele>
        <time>2021-03-27T16:20:06Z</time>
      </trkpt>
      <trkpt lat="46.15913" lon="6.14377">
        <ele>444.2</ele>
        <time>2021-03-27T16:20:07Z</time>
      </trkpt>
      <trkpt lat="46.15917" lon="6.1439">
        <ele>443.2</ele>
        <time>2021-03-27T16:20:08Z</time>
      </trkpt>
      <trkpt lat="46.15921" lon="6.14403">
        <ele>442.2</ele>
        <time>2021-03-27T16:20:09Z</time>
      </trkpt>
      <trkpt lat="46.15923" lon="6.14416">
        <ele>441.6</ele>
        <time>2021-03-27T16:20:10Z</time>
      </trkpt>
      <trkpt lat="46.15924" lon="6.1443">
        <ele>441.2</ele>
        <time>2021-03-27T16:20:11Z</time>
      </trkpt>
      <trkpt lat="46.15925" lon="6.14444">
        <ele>441.2</ele>
        <time>2021-03-27T16:20:12Z</time>
      </trkpt>
      <trkpt lat="46.15925" lon="6.14457">
        <ele>440.2</ele>
        <time>2021-03-27T16:20:13Z</time>
      </trkpt>
      <trkpt lat="46.15925" lon="6.1447">
        <ele>439.6</ele>
        <time>2021-03-27T16:20:14Z</time>
      </trkpt>
      <trkpt lat="46.15925" lon="6.14483">
        <ele>438.8</ele>
        <time>2021-03-27T16:20:15Z</time>
      </trkpt>
      <trkpt lat="46.15925" lon="6.14496">
        <ele>438.6</ele>
        <time>2021-03-27T16:20:16Z</time>
      </trkpt>
      <trkpt lat="46.15925" lon="6.14508">
        <ele>438.2</ele>
        <time>2021-03-27T16:20:17Z</time>
      </trkpt>
      <trkpt lat="46.15925" lon="6.14521">
        <ele>438.2</ele>
        <time>2021-03-27T16:20:18Z</time>
      </trkpt>
      <trkpt lat="46.15925" lon="6.14534">
        <ele>438.2</ele>
        <time>2021-03-27T16:20:19Z</time>
      </trkpt>
      <trkpt lat="46.15925" lon="6.14546">
        <ele>438.2</ele>
        <time>2021-03-27T16:20:20Z</time>
      </trkpt>
      <trkpt lat="46.15925" lon="6.14558">
        <ele>438.2</ele>
        <time>2021-03-27T16:20:21Z</time>
      </trkpt>
      <trkpt lat="46.15924" lon="6.14583">
        <ele>438.2</ele>
        <time>2021-03-27T16:20:23Z</time>
      </trkpt>
      <trkpt lat="46.15924" lon="6.14595">
        <ele>438.2</ele>
        <time>2021-03-27T16:20:24Z</time>
      </trkpt>
      <trkpt lat="46.15924" lon="6.14607">
        <ele>438</ele>
        <time>2021-03-27T16:20:25Z</time>
      </trkpt>
      <trkpt lat="46.15924" lon="6.14619">
        <ele>438.2</ele>
        <time>2021-03-27T16:20:26Z</time>
      </trkpt>
      <trkpt lat="46.15924" lon="6.14631">
        <ele>438.4</ele>
        <time>2021-03-27T16:20:27Z</time>
      </trkpt>
      <trkpt lat="46.15924" lon="6.14643">
        <ele>438.4</ele>
        <time>2021-03-27T16:20:28Z</time>
      </trkpt>
      <trkpt lat="46.15924" lon="6.14655">
        <ele>438.8</ele>
        <time>2021-03-27T16:20:29Z</time>
      </trkpt>
      <trkpt lat="46.15924" lon="6.14667">
        <ele>438.6</ele>
        <time>2021-03-27T16:20:30Z</time>
      </trkpt>
      <trkpt lat="46.15924" lon="6.14678">
        <ele>438.8</ele>
        <time>2021-03-27T16:20:31Z</time>
      </trkpt>
      <trkpt lat="46.15925" lon="6.14689">
        <ele>438.8</ele>
        <time>2021-03-27T16:20:32Z</time>
      </trkpt>
      <trkpt lat="46.15927" lon="6.14711">
        <ele>438.8</ele>
        <time>2021-03-27T16:20:34Z</time>
      </trkpt>
      <trkpt lat="46.1593" lon="6.14721">
        <ele>439</ele>
        <time>2021-03-27T16:20:35Z</time>
      </trkpt>
      <trkpt lat="46.15933" lon="6.14731">
        <ele>439.4</ele>
        <time>2021-03-27T16:20:36Z</time>
      </trkpt>
      <trkpt lat="46.15936" lon="6.1474">
        <ele>439.8</ele>
        <time>2021-03-27T16:20:37Z</time>
      </trkpt>
      <trkpt lat="46.1594" lon="6.14748">
        <ele>440.2</ele>
        <time>2021-03-27T16:20:38Z</time>
      </trkpt>
      <trkpt lat="46.15944" lon="6.14756">
        <ele>440.6</ele>
        <time>2021-03-27T16:20:39Z</time>
      </trkpt>
      <trkpt lat="46.15948" lon="6.14763">
        <ele>440.8</ele>
        <time>2021-03-27T16:20:40Z</time>
      </trkpt>
      <trkpt lat="46.15953" lon="6.1477">
        <ele>441.2</ele>
        <time>2021-03-27T16:20:41Z</time>
      </trkpt>
      <trkpt lat="46.15957" lon="6.14777">
        <ele>441.4</ele>
        <time>2021-03-27T16:20:42Z</time>
      </trkpt>
      <trkpt lat="46.15962" lon="6.14784">
        <ele>441.6</ele>
        <time>2021-03-27T16:20:43Z</time>
      </trkpt>
      <trkpt lat="46.15967" lon="6.14791">
        <ele>441.8</ele>
        <time>2021-03-27T16:20:44Z</time>
      </trkpt>
      <trkpt lat="46.15973" lon="6.14798">
        <ele>442.2</ele>
        <time>2021-03-27T16:20:45Z</time>
      </trkpt>
      <trkpt lat="46.15978" lon="6.14804">
        <ele>442.2</ele>
        <time>2021-03-27T16:20:46Z</time>
      </trkpt>
      <trkpt lat="46.15984" lon="6.14811">
        <ele>442.4</ele>
        <time>2021-03-27T16:20:47Z</time>
      </trkpt>
      <trkpt lat="46.1599" lon="6.14817">
        <ele>442.6</ele>
        <time>2021-03-27T16:20:48Z</time>
      </trkpt>
      <trkpt lat="46.15996" lon="6.14823">
        <ele>442.6</ele>
        <time>2021-03-27T16:20:49Z</time>
      </trkpt>
      <trkpt lat="46.16003" lon="6.14829">
        <ele>442.6</ele>
        <time>2021-03-27T16:20:50Z</time>
      </trkpt>
      <trkpt lat="46.16009" lon="6.14834">
        <ele>442.6</ele>
        <time>2021-03-27T16:20:51Z</time>
      </trkpt>
      <trkpt lat="46.16016" lon="6.14839">
        <ele>442.6</ele>
        <time>2021-03-27T16:20:52Z</time>
      </trkpt>
      <trkpt lat="46.16023" lon="6.14844">
        <ele>442.6</ele>
        <time>2021-03-27T16:20:53Z</time>
      </trkpt>
      <trkpt lat="46.16029" lon="6.14849">
        <ele>442.6</ele>
        <time>2021-03-27T16:20:54Z</time>
      </trkpt>
      <trkpt lat="46.16044" lon="6.14859">
        <ele>442.6</ele>
        <time>2021-03-27T16:20:56Z</time>
      </trkpt>
      <trkpt lat="46.16051" lon="6.14864">
        <ele>442.4</ele>
        <time>2021-03-27T16:20:57Z</time>
      </trkpt>
      <trkpt lat="46.16058" lon="6.14868">
        <ele>442.2</ele>
        <time>2021-03-27T16:20:58Z</time>
      </trkpt>
      <trkpt lat="46.16063" lon="6.14872">
        <ele>442</ele>
        <time>2021-03-27T16:20:59Z</time>
      </trkpt>
      <trkpt lat="46.16067" lon="6.14879">
        <ele>441.6</ele>
        <time>2021-03-27T16:21:00Z</time>
      </trkpt>
      <trkpt lat="46.16068" lon="6.14886">
        <ele>441.4</ele>
        <time>2021-03-27T16:21:01Z</time>
      </trkpt>
      <trkpt lat="46.16067" lon="6.14893">
        <ele>440.8</ele>
        <time>2021-03-27T16:21:02Z</time>
      </trkpt>
      <trkpt lat="46.16065" lon="6.14901">
        <ele>440.4</ele>
        <time>2021-03-27T16:21:03Z</time>
      </trkpt>
      <trkpt lat="46.16062" lon="6.14909">
        <ele>440</ele>
        <time>2021-03-27T16:21:04Z</time>
      </trkpt>
      <trkpt lat="46.16059" lon="6.14918">
        <ele>439.4</ele>
        <time>2021-03-27T16:21:05Z</time>
      </trkpt>
      <trkpt lat="46.16056" lon="6.14928">
        <ele>439.2</ele>
        <time>2021-03-27T16:21:06Z</time>
      </trkpt>
      <trkpt lat="46.1605" lon="6.14948">
        <ele>439</ele>
        <time>2021-03-27T16:21:08Z</time>
      </trkpt>
      <trkpt lat="46.16048" lon="6.14959">
        <ele>438.8</ele>
        <time>2021-03-27T16:21:09Z</time>
      </trkpt>
      <trkpt lat="46.16046" lon="6.1497">
        <ele>438.6</ele>
        <time>2021-03-27T16:21:10Z</time>
      </trkpt>
      <trkpt lat="46.16043" lon="6.1498">
        <ele>438.2</ele>
        <time>2021-03-27T16:21:11Z</time>
      </trkpt>
      <trkpt lat="46.16041" lon="6.1499">
        <ele>438</ele>
        <time>2021-03-27T16:21:12Z</time>
      </trkpt>
      <trkpt lat="46.16039" lon="6.15">
        <ele>437.8</ele>
        <time>2021-03-27T16:21:13Z</time>
      </trkpt>
      <trkpt lat="46.16036" lon="6.15009">
        <ele>437.6</ele>
        <time>2021-03-27T16:21:14Z</time>
      </trkpt>
      <trkpt lat="46.16034" lon="6.15018">
        <ele>437.6</ele>
        <time>2021-03-27T16:21:15Z</time>
      </trkpt>
      <trkpt lat="46.16031" lon="6.15026">
        <ele>437.8</ele>
        <time>2021-03-27T16:21:16Z</time>
      </trkpt>
      <trkpt lat="46.16029" lon="6.15034">
        <ele>437.6</ele>
        <time>2021-03-27T16:21:17Z</time>
      </trkpt>
      <trkpt lat="46.16027" lon="6.15042">
        <ele>437.6</ele>
        <time>2021-03-27T16:21:18Z</time>
      </trkpt>
      <trkpt lat="46.16022" lon="6.15055">
        <ele>437.4</ele>
        <time>2021-03-27T16:21:20Z</time>
      </trkpt>
      <trkpt lat="46.16019" lon="6.1506">
        <ele>437.6</ele>
        <time>2021-03-27T16:21:21Z</time>
      </trkpt>
      <trkpt lat="46.16016" lon="6.15065">
        <ele>437.6</ele>
        <time>2021-03-27T16:21:22Z</time>
      </trkpt>
      <trkpt lat="46.16014" lon="6.15069">
        <ele>437.6</ele>
        <time>2021-03-27T16:21:23Z</time>
      </trkpt>
      <trkpt lat="46.16012" lon="6.15072">
        <ele>438</ele>
        <time>2021-03-27T16:21:24Z</time>
      </trkpt>
      <trkpt lat="46.16011" lon="6.15074">
        <ele>438.4</ele>
        <time>2021-03-27T16:21:25Z</time>
      </trkpt>
      <trkpt lat="46.1601" lon="6.15075">
        <ele>438.6</ele>
        <time>2021-03-27T16:21:26Z</time>
      </trkpt>
      <trkpt lat="46.16009" lon="6.15075">
        <ele>439</ele>
        <time>2021-03-27T16:21:27Z</time>
      </trkpt>
      <trkpt lat="46.16008" lon="6.15077">
        <ele>439.6</ele>
        <time>2021-03-27T16:21:28Z</time>
      </trkpt>
      <trkpt lat="46.16008" lon="6.15078">
        <ele>440.2</ele>
        <time>2021-03-27T16:21:29Z</time>
      </trkpt>
      <trkpt lat="46.16009" lon="6.1508">
        <ele>440.6</ele>
        <time>2021-03-27T16:21:30Z</time>
      </trkpt>
      <trkpt lat="46.1601" lon="6.15082">
        <ele>441</ele>
        <time>2021-03-27T16:21:31Z</time>
      </trkpt>
      <trkpt lat="46.16012" lon="6.15084">
        <ele>441.2</ele>
        <time>2021-03-27T16:21:32Z</time>
      </trkpt>
      <trkpt lat="46.16014" lon="6.15087">
        <ele>441.6</ele>
        <time>2021-03-27T16:21:33Z</time>
      </trkpt>
      <trkpt lat="46.16016" lon="6.1509">
        <ele>442</ele>
        <time>2021-03-27T16:21:34Z</time>
      </trkpt>
      <trkpt lat="46.1602" lon="6.15093">
        <ele>442</ele>
        <time>2021-03-27T16:21:35Z</time>
      </trkpt>
      <trkpt lat="46.16023" lon="6.15096">
        <ele>442.2</ele>
        <time>2021-03-27T16:21:36Z</time>
      </trkpt>
      <trkpt lat="46.1603" lon="6.15101">
        <ele>442.2</ele>
        <time>2021-03-27T16:21:38Z</time>
      </trkpt>
      <trkpt lat="46.16034" lon="6.15104">
        <ele>442.2</ele>
        <time>2021-03-27T16:21:39Z</time>
      </trkpt>
      <trkpt lat="46.16039" lon="6.15107">
        <ele>442.2</ele>
        <time>2021-03-27T16:21:40Z</time>
      </trkpt>
      <trkpt lat="46.16043" lon="6.1511">
        <ele>442.2</ele>
        <time>2021-03-27T16:21:41Z</time>
      </trkpt>
      <trkpt lat="46.16047" lon="6.15113">
        <ele>442.2</ele>
        <time>2021-03-27T16:21:42Z</time>
      </trkpt>
      <trkpt lat="46.16052" lon="6.15115">
        <ele>442.2</ele>
        <time>2021-03-27T16:21:43Z</time>
      </trkpt>
      <trkpt lat="46.16056" lon="6.15118">
        <ele>442.2</ele>
        <time>2021-03-27T16:21:44Z</time>
      </trkpt>
      <trkpt lat="46.16062" lon="6.1512">
        <ele>442</ele>
        <time>2021-03-27T16:21:45Z</time>
      </trkpt>
      <trkpt lat="46.16068" lon="6.15123">
        <ele>442.2</ele>
        <time>2021-03-27T16:21:46Z</time>
      </trkpt>
      <trkpt lat="46.16075" lon="6.15126">
        <ele>442</ele>
        <time>2021-03-27T16:21:47Z</time>
      </trkpt>
      <trkpt lat="46.16081" lon="6.15128">
        <ele>442</ele>
        <time>2021-03-27T16:21:48Z</time>
      </trkpt>
      <trkpt lat="46.16087" lon="6.15131">
        <ele>442</ele>
        <time>2021-03-27T16:21:49Z</time>
      </trkpt>
      <trkpt lat="46.16094" lon="6.15133">
        <ele>442</ele>
        <time>2021-03-27T16:21:50Z</time>
      </trkpt>
      <trkpt lat="46.16101" lon="6.15135">
        <ele>442</ele>
        <time>2021-03-27T16:21:51Z</time>
      </trkpt>
      <trkpt lat="46.16108" lon="6.15138">
        <ele>442</ele>
        <time>2021-03-27T16:21:52Z</time>
      </trkpt>
      <trkpt lat="46.16115" lon="6.15141">
        <ele>441.8</ele>
        <time>2021-03-27T16:21:53Z</time>
      </trkpt>
      <trkpt lat="46.16122" lon="6.15144">
        <ele>441.8</ele>
        <time>2021-03-27T16:21:54Z</time>
      </trkpt>
      <trkpt lat="46.16129" lon="6.15148">
        <ele>441.6</ele>
        <time>2021-03-27T16:21:55Z</time>
      </trkpt>
      <trkpt lat="46.16137" lon="6.15152">
        <ele>441.6</ele>
        <time>2021-03-27T16:21:56Z</time>
      </trkpt>
      <trkpt lat="46.16144" lon="6.15156">
        <ele>441.6</ele>
        <time>2021-03-27T16:21:57Z</time>
      </trkpt>
      <trkpt lat="46.16151" lon="6.1516">
        <ele>441.4</ele>
        <time>2021-03-27T16:21:58Z</time>
      </trkpt>
      <trkpt lat="46.16158" lon="6.15164">
        <ele>441.4</ele>
        <time>2021-03-27T16:21:59Z</time>
      </trkpt>
      <trkpt lat="46.16165" lon="6.15168">
        <ele>441.4</ele>
        <time>2021-03-27T16:22:00Z</time>
      </trkpt>
      <trkpt lat="46.16171" lon="6.15172">
        <ele>441.2</ele>
        <time>2021-03-27T16:22:01Z</time>
      </trkpt>
      <trkpt lat="46.16179" lon="6.15176">
        <ele>441.2</ele>
        <time>2021-03-27T16:22:02Z</time>
      </trkpt>
      <trkpt lat="46.16186" lon="6.15182">
        <ele>441.2</ele>
        <time>2021-03-27T16:22:03Z</time>
      </trkpt>
      <trkpt lat="46.16193" lon="6.15187">
        <ele>441.2</ele>
        <time>2021-03-27T16:22:04Z</time>
      </trkpt>
      <trkpt lat="46.162" lon="6.15192">
        <ele>441</ele>
        <time>2021-03-27T16:22:05Z</time>
      </trkpt>
      <trkpt lat="46.16207" lon="6.15196">
        <ele>441</ele>
        <time>2021-03-27T16:22:06Z</time>
      </trkpt>
      <trkpt lat="46.16213" lon="6.15201">
        <ele>441</ele>
        <time>2021-03-27T16:22:07Z</time>
      </trkpt>
      <trkpt lat="46.1622" lon="6.15206">
        <ele>441</ele>
        <time>2021-03-27T16:22:08Z</time>
      </trkpt>
      <trkpt lat="46.16227" lon="6.1521">
        <ele>440.8</ele>
        <time>2021-03-27T16:22:09Z</time>
      </trkpt>
      <trkpt lat="46.16234" lon="6.15215">
        <ele>440.6</ele>
        <time>2021-03-27T16:22:10Z</time>
      </trkpt>
      <trkpt lat="46.16241" lon="6.15219">
        <ele>440.8</ele>
        <time>2021-03-27T16:22:11Z</time>
      </trkpt>
      <trkpt lat="46.16249" lon="6.15223">
        <ele>440.2</ele>
        <time>2021-03-27T16:22:12Z</time>
      </trkpt>
      <trkpt lat="46.16256" lon="6.15227">
        <ele>440</ele>
        <time>2021-03-27T16:22:13Z</time>
      </trkpt>
      <trkpt lat="46.16264" lon="6.1523">
        <ele>439.6</ele>
        <time>2021-03-27T16:22:14Z</time>
      </trkpt>
      <trkpt lat="46.16272" lon="6.15232">
        <ele>439.4</ele>
        <time>2021-03-27T16:22:15Z</time>
      </trkpt>
      <trkpt lat="46.1628" lon="6.15234">
        <ele>439.2</ele>
        <time>2021-03-27T16:22:16Z</time>
      </trkpt>
      <trkpt lat="46.16289" lon="6.15237">
        <ele>438.8</ele>
        <time>2021-03-27T16:22:17Z</time>
      </trkpt>
      <trkpt lat="46.16297" lon="6.15241">
        <ele>438.8</ele>
        <time>2021-03-27T16:22:18Z</time>
      </trkpt>
      <trkpt lat="46.16306" lon="6.15245">
        <ele>438.2</ele>
        <time>2021-03-27T16:22:19Z</time>
      </trkpt>
      <trkpt lat="46.16315" lon="6.1525">
        <ele>438</ele>
        <time>2021-03-27T16:22:20Z</time>
      </trkpt>
      <trkpt lat="46.16324" lon="6.15255">
        <ele>438</ele>
        <time>2021-03-27T16:22:21Z</time>
      </trkpt>
      <trkpt lat="46.16333" lon="6.15261">
        <ele>437.8</ele>
        <time>2021-03-27T16:22:22Z</time>
      </trkpt>
      <trkpt lat="46.16342" lon="6.15267">
        <ele>437.8</ele>
        <time>2021-03-27T16:22:23Z</time>
      </trkpt>
      <trkpt lat="46.16351" lon="6.15273">
        <ele>437.4</ele>
        <time>2021-03-27T16:22:24Z</time>
      </trkpt>
      <trkpt lat="46.1636" lon="6.15279">
        <ele>437.4</ele>
        <time>2021-03-27T16:22:25Z</time>
      </trkpt>
      <trkpt lat="46.16368" lon="6.15285">
        <ele>437</ele>
        <time>2021-03-27T16:22:26Z</time>
      </trkpt>
      <trkpt lat="46.16377" lon="6.15292">
        <ele>436.6</ele>
        <time>2021-03-27T16:22:27Z</time>
      </trkpt>
      <trkpt lat="46.16385" lon="6.15298">
        <ele>436.2</ele>
        <time>2021-03-27T16:22:28Z</time>
      </trkpt>
      <trkpt lat="46.16394" lon="6.15304">
        <ele>435.8</ele>
        <time>2021-03-27T16:22:29Z</time>
      </trkpt>
      <trkpt lat="46.16404" lon="6.15312">
        <ele>435.4</ele>
        <time>2021-03-27T16:22:30Z</time>
      </trkpt>
      <trkpt lat="46.16414" lon="6.15319">
        <ele>434.8</ele>
        <time>2021-03-27T16:22:31Z</time>
      </trkpt>
      <trkpt lat="46.16423" lon="6.15326">
        <ele>434.2</ele>
        <time>2021-03-27T16:22:32Z</time>
      </trkpt>
      <trkpt lat="46.16433" lon="6.15333">
        <ele>433.8</ele>
        <time>2021-03-27T16:22:33Z</time>
      </trkpt>
      <trkpt lat="46.16443" lon="6.15341">
        <ele>433.4</ele>
        <time>2021-03-27T16:22:34Z</time>
      </trkpt>
      <trkpt lat="46.16454" lon="6.15348">
        <ele>433</ele>
        <time>2021-03-27T16:22:35Z</time>
      </trkpt>
      <trkpt lat="46.16464" lon="6.15355">
        <ele>432.8</ele>
        <time>2021-03-27T16:22:36Z</time>
      </trkpt>
      <trkpt lat="46.16475" lon="6.15362">
        <ele>432.4</ele>
        <time>2021-03-27T16:22:37Z</time>
      </trkpt>
      <trkpt lat="46.16485" lon="6.15369">
        <ele>432.2</ele>
        <time>2021-03-27T16:22:38Z</time>
      </trkpt>
      <trkpt lat="46.16495" lon="6.15375">
        <ele>431.6</ele>
        <time>2021-03-27T16:22:39Z</time>
      </trkpt>
      <trkpt lat="46.16504" lon="6.1538">
        <ele>431.2</ele>
        <time>2021-03-27T16:22:40Z</time>
      </trkpt>
      <trkpt lat="46.16514" lon="6.15385">
        <ele>430.8</ele>
        <time>2021-03-27T16:22:41Z</time>
      </trkpt>
      <trkpt lat="46.16524" lon="6.15388">
        <ele>430.6</ele>
        <time>2021-03-27T16:22:42Z</time>
      </trkpt>
      <trkpt lat="46.16535" lon="6.15391">
        <ele>430.2</ele>
        <time>2021-03-27T16:22:43Z</time>
      </trkpt>
      <trkpt lat="46.16546" lon="6.15392">
        <ele>429.8</ele>
        <time>2021-03-27T16:22:44Z</time>
      </trkpt>
      <trkpt lat="46.16556" lon="6.15392">
        <ele>429.6</ele>
        <time>2021-03-27T16:22:45Z</time>
      </trkpt>
      <trkpt lat="46.16566" lon="6.15392">
        <ele>429.4</ele>
        <time>2021-03-27T16:22:46Z</time>
      </trkpt>
      <trkpt lat="46.16577" lon="6.15393">
        <ele>429</ele>
        <time>2021-03-27T16:22:47Z</time>
      </trkpt>
      <trkpt lat="46.16587" lon="6.15395">
        <ele>428.8</ele>
        <time>2021-03-27T16:22:48Z</time>
      </trkpt>
      <trkpt lat="46.16598" lon="6.15397">
        <ele>428.6</ele>
        <time>2021-03-27T16:22:49Z</time>
      </trkpt>
      <trkpt lat="46.16608" lon="6.15401">
        <ele>428.2</ele>
        <time>2021-03-27T16:22:50Z</time>
      </trkpt>
      <trkpt lat="46.16619" lon="6.15406">
        <ele>428</ele>
        <time>2021-03-27T16:22:51Z</time>
      </trkpt>
      <trkpt lat="46.16629" lon="6.15412">
        <ele>427.8</ele>
        <time>2021-03-27T16:22:52Z</time>
      </trkpt>
      <trkpt lat="46.16639" lon="6.15417">
        <ele>427.6</ele>
        <time>2021-03-27T16:22:53Z</time>
      </trkpt>
      <trkpt lat="46.16648" lon="6.15424">
        <ele>427.6</ele>
        <time>2021-03-27T16:22:54Z</time>
      </trkpt>
      <trkpt lat="46.16658" lon="6.1543">
        <ele>427.4</ele>
        <time>2021-03-27T16:22:55Z</time>
      </trkpt>
      <trkpt lat="46.16667" lon="6.15437">
        <ele>427.4</ele>
        <time>2021-03-27T16:22:56Z</time>
      </trkpt>
      <trkpt lat="46.16676" lon="6.15443">
        <ele>427.4</ele>
        <time>2021-03-27T16:22:57Z</time>
      </trkpt>
      <trkpt lat="46.16685" lon="6.15449">
        <ele>427.6</ele>
        <time>2021-03-27T16:22:58Z</time>
      </trkpt>
      <trkpt lat="46.16693" lon="6.15455">
        <ele>427.4</ele>
        <time>2021-03-27T16:22:59Z</time>
      </trkpt>
      <trkpt lat="46.16702" lon="6.15462">
        <ele>427.4</ele>
        <time>2021-03-27T16:23:00Z</time>
      </trkpt>
      <trkpt lat="46.1671" lon="6.15468">
        <ele>427.4</ele>
        <time>2021-03-27T16:23:01Z</time>
      </trkpt>
      <trkpt lat="46.16717" lon="6.15473">
        <ele>427.6</ele>
        <time>2021-03-27T16:23:02Z</time>
      </trkpt>
      <trkpt lat="46.16725" lon="6.15479">
        <ele>427.4</ele>
        <time>2021-03-27T16:23:03Z</time>
      </trkpt>
      <trkpt lat="46.16732" lon="6.15484">
        <ele>427.4</ele>
        <time>2021-03-27T16:23:04Z</time>
      </trkpt>
      <trkpt lat="46.1674" lon="6.1549">
        <ele>427.6</ele>
        <time>2021-03-27T16:23:05Z</time>
      </trkpt>
      <trkpt lat="46.16748" lon="6.15495">
        <ele>427.8</ele>
        <time>2021-03-27T16:23:06Z</time>
      </trkpt>
      <trkpt lat="46.16756" lon="6.15501">
        <ele>428.2</ele>
        <time>2021-03-27T16:23:07Z</time>
      </trkpt>
      <trkpt lat="46.16763" lon="6.15506">
        <ele>428.4</ele>
        <time>2021-03-27T16:23:08Z</time>
      </trkpt>
      <trkpt lat="46.16771" lon="6.15511">
        <ele>428.8</ele>
        <time>2021-03-27T16:23:09Z</time>
      </trkpt>
      <trkpt lat="46.16778" lon="6.15516">
        <ele>429.4</ele>
        <time>2021-03-27T16:23:10Z</time>
      </trkpt>
      <trkpt lat="46.16786" lon="6.1552">
        <ele>429.6</ele>
        <time>2021-03-27T16:23:11Z</time>
      </trkpt>
      <trkpt lat="46.16793" lon="6.15525">
        <ele>429.8</ele>
        <time>2021-03-27T16:23:12Z</time>
      </trkpt>
      <trkpt lat="46.16801" lon="6.15529">
        <ele>430.2</ele>
        <time>2021-03-27T16:23:13Z</time>
      </trkpt>
      <trkpt lat="46.16808" lon="6.15534">
        <ele>430.2</ele>
        <time>2021-03-27T16:23:14Z</time>
      </trkpt>
      <trkpt lat="46.16815" lon="6.15538">
        <ele>430.4</ele>
        <time>2021-03-27T16:23:15Z</time>
      </trkpt>
      <trkpt lat="46.16823" lon="6.15542">
        <ele>430.4</ele>
        <time>2021-03-27T16:23:16Z</time>
      </trkpt>
      <trkpt lat="46.1683" lon="6.15546">
        <ele>430.6</ele>
        <time>2021-03-27T16:23:17Z</time>
      </trkpt>
      <trkpt lat="46.16837" lon="6.1555">
        <ele>430.8</ele>
        <time>2021-03-27T16:23:18Z</time>
      </trkpt>
      <trkpt lat="46.16844" lon="6.15554">
        <ele>430.8</ele>
        <time>2021-03-27T16:23:19Z</time>
      </trkpt>
      <trkpt lat="46.16852" lon="6.15558">
        <ele>430.8</ele>
        <time>2021-03-27T16:23:20Z</time>
      </trkpt>
      <trkpt lat="46.16859" lon="6.15562">
        <ele>431.2</ele>
        <time>2021-03-27T16:23:21Z</time>
      </trkpt>
      <trkpt lat="46.16867" lon="6.15567">
        <ele>431.4</ele>
        <time>2021-03-27T16:23:22Z</time>
      </trkpt>
      <trkpt lat="46.16875" lon="6.15571">
        <ele>431.8</ele>
        <time>2021-03-27T16:23:23Z</time>
      </trkpt>
      <trkpt lat="46.16883" lon="6.15575">
        <ele>431.8</ele>
        <time>2021-03-27T16:23:24Z</time>
      </trkpt>
      <trkpt lat="46.1689" lon="6.15579">
        <ele>431.8</ele>
        <time>2021-03-27T16:23:25Z</time>
      </trkpt>
      <trkpt lat="46.16898" lon="6.15584">
        <ele>432</ele>
        <time>2021-03-27T16:23:26Z</time>
      </trkpt>
      <trkpt lat="46.16905" lon="6.15588">
        <ele>431.8</ele>
        <time>2021-03-27T16:23:27Z</time>
      </trkpt>
      <trkpt lat="46.16913" lon="6.15592">
        <ele>431.8</ele>
        <time>2021-03-27T16:23:28Z</time>
      </trkpt>
      <trkpt lat="46.1692" lon="6.15596">
        <ele>432</ele>
        <time>2021-03-27T16:23:29Z</time>
      </trkpt>
      <trkpt lat="46.16928" lon="6.15601">
        <ele>432</ele>
        <time>2021-03-27T16:23:30Z</time>
      </trkpt>
      <trkpt lat="46.16935" lon="6.15606">
        <ele>432.2</ele>
        <time>2021-03-27T16:23:31Z</time>
      </trkpt>
      <trkpt lat="46.16941" lon="6.15613">
        <ele>432</ele>
        <time>2021-03-27T16:23:32Z</time>
      </trkpt>
      <trkpt lat="46.16947" lon="6.15621">
        <ele>432.2</ele>
        <time>2021-03-27T16:23:33Z</time>
      </trkpt>
      <trkpt lat="46.16952" lon="6.1563">
        <ele>432.2</ele>
        <time>2021-03-27T16:23:34Z</time>
      </trkpt>
      <trkpt lat="46.16956" lon="6.15639">
        <ele>432.4</ele>
        <time>2021-03-27T16:23:35Z</time>
      </trkpt>
      <trkpt lat="46.1696" lon="6.15649">
        <ele>432.4</ele>
        <time>2021-03-27T16:23:36Z</time>
      </trkpt>
      <trkpt lat="46.16965" lon="6.15659">
        <ele>432.4</ele>
        <time>2021-03-27T16:23:37Z</time>
      </trkpt>
      <trkpt lat="46.16969" lon="6.15669">
        <ele>432.4</ele>
        <time>2021-03-27T16:23:38Z</time>
      </trkpt>
      <trkpt lat="46.16974" lon="6.15679">
        <ele>432.4</ele>
        <time>2021-03-27T16:23:39Z</time>
      </trkpt>
      <trkpt lat="46.16978" lon="6.15689">
        <ele>432.4</ele>
        <time>2021-03-27T16:23:40Z</time>
      </trkpt>
      <trkpt lat="46.16983" lon="6.157">
        <ele>432.4</ele>
        <time>2021-03-27T16:23:41Z</time>
      </trkpt>
      <trkpt lat="46.16987" lon="6.1571">
        <ele>432.6</ele>
        <time>2021-03-27T16:23:42Z</time>
      </trkpt>
      <trkpt lat="46.16991" lon="6.15721">
        <ele>432.4</ele>
        <time>2021-03-27T16:23:43Z</time>
      </trkpt>
      <trkpt lat="46.16996" lon="6.15732">
        <ele>432.4</ele>
        <time>2021-03-27T16:23:44Z</time>
      </trkpt>
      <trkpt lat="46.17" lon="6.15742">
        <ele>432.4</ele>
        <time>2021-03-27T16:23:45Z</time>
      </trkpt>
      <trkpt lat="46.17004" lon="6.15752">
        <ele>432.4</ele>
        <time>2021-03-27T16:23:46Z</time>
      </trkpt>
      <trkpt lat="46.17008" lon="6.15762">
        <ele>432.2</ele>
        <time>2021-03-27T16:23:47Z</time>
      </trkpt>
      <trkpt lat="46.17013" lon="6.15772">
        <ele>432</ele>
        <time>2021-03-27T16:23:48Z</time>
      </trkpt>
      <trkpt lat="46.17017" lon="6.15782">
        <ele>431.8</ele>
        <time>2021-03-27T16:23:49Z</time>
      </trkpt>
      <trkpt lat="46.17022" lon="6.15793">
        <ele>431.4</ele>
        <time>2021-03-27T16:23:50Z</time>
      </trkpt>
      <trkpt lat="46.17026" lon="6.15803">
        <ele>431.4</ele>
        <time>2021-03-27T16:23:51Z</time>
      </trkpt>
      <trkpt lat="46.17031" lon="6.15813">
        <ele>430.8</ele>
        <time>2021-03-27T16:23:52Z</time>
      </trkpt>
      <trkpt lat="46.17035" lon="6.15824">
        <ele>430.8</ele>
        <time>2021-03-27T16:23:53Z</time>
      </trkpt>
      <trkpt lat="46.1704" lon="6.15835">
        <ele>430.4</ele>
        <time>2021-03-27T16:23:54Z</time>
      </trkpt>
      <trkpt lat="46.17045" lon="6.15846">
        <ele>430.2</ele>
        <time>2021-03-27T16:23:55Z</time>
      </trkpt>
      <trkpt lat="46.1705" lon="6.15857">
        <ele>430.4</ele>
        <time>2021-03-27T16:23:56Z</time>
      </trkpt>
      <trkpt lat="46.17055" lon="6.15868">
        <ele>430.2</ele>
        <time>2021-03-27T16:23:57Z</time>
      </trkpt>
      <trkpt lat="46.1706" lon="6.15879">
        <ele>430</ele>
        <time>2021-03-27T16:23:58Z</time>
      </trkpt>
      <trkpt lat="46.17066" lon="6.1589">
        <ele>429.8</ele>
        <time>2021-03-27T16:23:59Z</time>
      </trkpt>
      <trkpt lat="46.17071" lon="6.15902">
        <ele>429.8</ele>
        <time>2021-03-27T16:24:00Z</time>
      </trkpt>
      <trkpt lat="46.17076" lon="6.15913">
        <ele>429.8</ele>
        <time>2021-03-27T16:24:01Z</time>
      </trkpt>
      <trkpt lat="46.17082" lon="6.15924">
        <ele>429.4</ele>
        <time>2021-03-27T16:24:02Z</time>
      </trkpt>
      <trkpt lat="46.17087" lon="6.15936">
        <ele>429.2</ele>
        <time>2021-03-27T16:24:03Z</time>
      </trkpt>
      <trkpt lat="46.17092" lon="6.15947">
        <ele>429.2</ele>
        <time>2021-03-27T16:24:04Z</time>
      </trkpt>
      <trkpt lat="46.17097" lon="6.15958">
        <ele>429</ele>
        <time>2021-03-27T16:24:05Z</time>
      </trkpt>
      <trkpt lat="46.17102" lon="6.15968">
        <ele>428.8</ele>
        <time>2021-03-27T16:24:06Z</time>
      </trkpt>
      <trkpt lat="46.17106" lon="6.15979">
        <ele>428.4</ele>
        <time>2021-03-27T16:24:07Z</time>
      </trkpt>
      <trkpt lat="46.17111" lon="6.15989">
        <ele>428.2</ele>
        <time>2021-03-27T16:24:08Z</time>
      </trkpt>
      <trkpt lat="46.17115" lon="6.16">
        <ele>427.8</ele>
        <time>2021-03-27T16:24:09Z</time>
      </trkpt>
      <trkpt lat="46.17119" lon="6.1601">
        <ele>427.6</ele>
        <time>2021-03-27T16:24:10Z</time>
      </trkpt>
      <trkpt lat="46.17123" lon="6.16021">
        <ele>427.4</ele>
        <time>2021-03-27T16:24:11Z</time>
      </trkpt>
      <trkpt lat="46.17127" lon="6.16031">
        <ele>427</ele>
        <time>2021-03-27T16:24:12Z</time>
      </trkpt>
      <trkpt lat="46.17131" lon="6.16042">
        <ele>427</ele>
        <time>2021-03-27T16:24:13Z</time>
      </trkpt>
      <trkpt lat="46.17134" lon="6.16053">
        <ele>426.8</ele>
        <time>2021-03-27T16:24:14Z</time>
      </trkpt>
      <trkpt lat="46.17138" lon="6.16064">
        <ele>426.6</ele>
        <time>2021-03-27T16:24:15Z</time>
      </trkpt>
      <trkpt lat="46.17141" lon="6.16076">
        <ele>426.4</ele>
        <time>2021-03-27T16:24:16Z</time>
      </trkpt>
      <trkpt lat="46.17144" lon="6.16088">
        <ele>426.2</ele>
        <time>2021-03-27T16:24:17Z</time>
      </trkpt>
      <trkpt lat="46.17147" lon="6.161">
        <ele>425.8</ele>
        <time>2021-03-27T16:24:18Z</time>
      </trkpt>
      <trkpt lat="46.1715" lon="6.16112">
        <ele>425.8</ele>
        <time>2021-03-27T16:24:19Z</time>
      </trkpt>
      <trkpt lat="46.17152" lon="6.16124">
        <ele>425.6</ele>
        <time>2021-03-27T16:24:20Z</time>
      </trkpt>
      <trkpt lat="46.17155" lon="6.16136">
        <ele>425.8</ele>
        <time>2021-03-27T16:24:21Z</time>
      </trkpt>
      <trkpt lat="46.17161" lon="6.1616">
        <ele>425.4</ele>
        <time>2021-03-27T16:24:23Z</time>
      </trkpt>
      <trkpt lat="46.17164" lon="6.16172">
        <ele>425</ele>
        <time>2021-03-27T16:24:24Z</time>
      </trkpt>
      <trkpt lat="46.17167" lon="6.16184">
        <ele>425</ele>
        <time>2021-03-27T16:24:25Z</time>
      </trkpt>
      <trkpt lat="46.17173" lon="6.16209">
        <ele>424.8</ele>
        <time>2021-03-27T16:24:27Z</time>
      </trkpt>
      <trkpt lat="46.17176" lon="6.16221">
        <ele>425</ele>
        <time>2021-03-27T16:24:28Z</time>
      </trkpt>
      <trkpt lat="46.17179" lon="6.16233">
        <ele>425</ele>
        <time>2021-03-27T16:24:29Z</time>
      </trkpt>
      <trkpt lat="46.17182" lon="6.16245">
        <ele>424.8</ele>
        <time>2021-03-27T16:24:30Z</time>
      </trkpt>
      <trkpt lat="46.17186" lon="6.16256">
        <ele>425</ele>
        <time>2021-03-27T16:24:31Z</time>
      </trkpt>
      <trkpt lat="46.17189" lon="6.16267">
        <ele>424.8</ele>
        <time>2021-03-27T16:24:32Z</time>
      </trkpt>
      <trkpt lat="46.17192" lon="6.16277">
        <ele>424.8</ele>
        <time>2021-03-27T16:24:33Z</time>
      </trkpt>
      <trkpt lat="46.17195" lon="6.16288">
        <ele>424.8</ele>
        <time>2021-03-27T16:24:34Z</time>
      </trkpt>
      <trkpt lat="46.17198" lon="6.16299">
        <ele>425</ele>
        <time>2021-03-27T16:24:35Z</time>
      </trkpt>
      <trkpt lat="46.17201" lon="6.1631">
        <ele>424.8</ele>
        <time>2021-03-27T16:24:36Z</time>
      </trkpt>
      <trkpt lat="46.17203" lon="6.1632">
        <ele>425</ele>
        <time>2021-03-27T16:24:37Z</time>
      </trkpt>
      <trkpt lat="46.17206" lon="6.16331">
        <ele>425</ele>
        <time>2021-03-27T16:24:38Z</time>
      </trkpt>
      <trkpt lat="46.17212" lon="6.16353">
        <ele>425</ele>
        <time>2021-03-27T16:24:40Z</time>
      </trkpt>
      <trkpt lat="46.17216" lon="6.16363">
        <ele>425.2</ele>
        <time>2021-03-27T16:24:41Z</time>
      </trkpt>
      <trkpt lat="46.17219" lon="6.16374">
        <ele>425.2</ele>
        <time>2021-03-27T16:24:42Z</time>
      </trkpt>
      <trkpt lat="46.17225" lon="6.16395">
        <ele>425.4</ele>
        <time>2021-03-27T16:24:44Z</time>
      </trkpt>
      <trkpt lat="46.17227" lon="6.16405">
        <ele>425.2</ele>
        <time>2021-03-27T16:24:45Z</time>
      </trkpt>
      <trkpt lat="46.17229" lon="6.16415">
        <ele>425.4</ele>
        <time>2021-03-27T16:24:46Z</time>
      </trkpt>
      <trkpt lat="46.17232" lon="6.16425">
        <ele>425.4</ele>
        <time>2021-03-27T16:24:47Z</time>
      </trkpt>
      <trkpt lat="46.17235" lon="6.16434">
        <ele>425.6</ele>
        <time>2021-03-27T16:24:48Z</time>
      </trkpt>
      <trkpt lat="46.17237" lon="6.16444">
        <ele>425.6</ele>
        <time>2021-03-27T16:24:49Z</time>
      </trkpt>
      <trkpt lat="46.1724" lon="6.16454">
        <ele>425.4</ele>
        <time>2021-03-27T16:24:50Z</time>
      </trkpt>
      <trkpt lat="46.17242" lon="6.16464">
        <ele>425.6</ele>
        <time>2021-03-27T16:24:51Z</time>
      </trkpt>
      <trkpt lat="46.17244" lon="6.16473">
        <ele>425.8</ele>
        <time>2021-03-27T16:24:52Z</time>
      </trkpt>
      <trkpt lat="46.17247" lon="6.16483">
        <ele>426</ele>
        <time>2021-03-27T16:24:53Z</time>
      </trkpt>
      <trkpt lat="46.17249" lon="6.16492">
        <ele>426.4</ele>
        <time>2021-03-27T16:24:54Z</time>
      </trkpt>
      <trkpt lat="46.17252" lon="6.16502">
        <ele>426.8</ele>
        <time>2021-03-27T16:24:55Z</time>
      </trkpt>
      <trkpt lat="46.17257" lon="6.16522">
        <ele>427</ele>
        <time>2021-03-27T16:24:57Z</time>
      </trkpt>
      <trkpt lat="46.17259" lon="6.16532">
        <ele>427.2</ele>
        <time>2021-03-27T16:24:58Z</time>
      </trkpt>
      <trkpt lat="46.17261" lon="6.16542">
        <ele>427.2</ele>
        <time>2021-03-27T16:24:59Z</time>
      </trkpt>
      <trkpt lat="46.17266" lon="6.16562">
        <ele>427.4</ele>
        <time>2021-03-27T16:25:01Z</time>
      </trkpt>
      <trkpt lat="46.17269" lon="6.16572">
        <ele>427.4</ele>
        <time>2021-03-27T16:25:02Z</time>
      </trkpt>
      <trkpt lat="46.17271" lon="6.16582">
        <ele>427.6</ele>
        <time>2021-03-27T16:25:03Z</time>
      </trkpt>
      <trkpt lat="46.17276" lon="6.16603">
        <ele>427.6</ele>
        <time>2021-03-27T16:25:05Z</time>
      </trkpt>
      <trkpt lat="46.17278" lon="6.16613">
        <ele>427.6</ele>
        <time>2021-03-27T16:25:06Z</time>
      </trkpt>
      <trkpt lat="46.17281" lon="6.16623">
        <ele>427.6</ele>
        <time>2021-03-27T16:25:07Z</time>
      </trkpt>
      <trkpt lat="46.17283" lon="6.16633">
        <ele>427.6</ele>
        <time>2021-03-27T16:25:08Z</time>
      </trkpt>
      <trkpt lat="46.17285" lon="6.16643">
        <ele>427.8</ele>
        <time>2021-03-27T16:25:09Z</time>
      </trkpt>
      <trkpt lat="46.17288" lon="6.16654">
        <ele>427.6</ele>
        <time>2021-03-27T16:25:10Z</time>
      </trkpt>
      <trkpt lat="46.1729" lon="6.16664">
        <ele>427.8</ele>
        <time>2021-03-27T16:25:11Z</time>
      </trkpt>
      <trkpt lat="46.17293" lon="6.16674">
        <ele>427.6</ele>
        <time>2021-03-27T16:25:12Z</time>
      </trkpt>
      <trkpt lat="46.17295" lon="6.16684">
        <ele>427.8</ele>
        <time>2021-03-27T16:25:13Z</time>
      </trkpt>
      <trkpt lat="46.17297" lon="6.16695">
        <ele>428</ele>
        <time>2021-03-27T16:25:14Z</time>
      </trkpt>
      <trkpt lat="46.17299" lon="6.16705">
        <ele>428</ele>
        <time>2021-03-27T16:25:15Z</time>
      </trkpt>
      <trkpt lat="46.17302" lon="6.16715">
        <ele>428</ele>
        <time>2021-03-27T16:25:16Z</time>
      </trkpt>
      <trkpt lat="46.17308" lon="6.16736">
        <ele>428.2</ele>
        <time>2021-03-27T16:25:18Z</time>
      </trkpt>
      <trkpt lat="46.17311" lon="6.16746">
        <ele>428.2</ele>
        <time>2021-03-27T16:25:19Z</time>
      </trkpt>
      <trkpt lat="46.17314" lon="6.16756">
        <ele>428.6</ele>
        <time>2021-03-27T16:25:20Z</time>
      </trkpt>
      <trkpt lat="46.17318" lon="6.16766">
        <ele>428.8</ele>
        <time>2021-03-27T16:25:21Z</time>
      </trkpt>
      <trkpt lat="46.17321" lon="6.16776">
        <ele>428.8</ele>
        <time>2021-03-27T16:25:22Z</time>
      </trkpt>
      <trkpt lat="46.17325" lon="6.16786">
        <ele>428.6</ele>
        <time>2021-03-27T16:25:23Z</time>
      </trkpt>
      <trkpt lat="46.17329" lon="6.16796">
        <ele>428.8</ele>
        <time>2021-03-27T16:25:24Z</time>
      </trkpt>
      <trkpt lat="46.17333" lon="6.16806">
        <ele>429.2</ele>
        <time>2021-03-27T16:25:25Z</time>
      </trkpt>
      <trkpt lat="46.17336" lon="6.16815">
        <ele>429.2</ele>
        <time>2021-03-27T16:25:26Z</time>
      </trkpt>
      <trkpt lat="46.1734" lon="6.16824">
        <ele>429.2</ele>
        <time>2021-03-27T16:25:27Z</time>
      </trkpt>
      <trkpt lat="46.17343" lon="6.16833">
        <ele>429.2</ele>
        <time>2021-03-27T16:25:28Z</time>
      </trkpt>
      <trkpt lat="46.17347" lon="6.16841">
        <ele>429.4</ele>
        <time>2021-03-27T16:25:29Z</time>
      </trkpt>
      <trkpt lat="46.17355" lon="6.16857">
        <ele>429.4</ele>
        <time>2021-03-27T16:25:31Z</time>
      </trkpt>
      <trkpt lat="46.17358" lon="6.16864">
        <ele>429.4</ele>
        <time>2021-03-27T16:25:32Z</time>
      </trkpt>
      <trkpt lat="46.17362" lon="6.16871">
        <ele>429.2</ele>
        <time>2021-03-27T16:25:33Z</time>
      </trkpt>
      <trkpt lat="46.17366" lon="6.16878">
        <ele>429.4</ele>
        <time>2021-03-27T16:25:34Z</time>
      </trkpt>
      <trkpt lat="46.17369" lon="6.16885">
        <ele>429.4</ele>
        <time>2021-03-27T16:25:35Z</time>
      </trkpt>
      <trkpt lat="46.17373" lon="6.16893">
        <ele>429.4</ele>
        <time>2021-03-27T16:25:36Z</time>
      </trkpt>
      <trkpt lat="46.17377" lon="6.169">
        <ele>429.4</ele>
        <time>2021-03-27T16:25:37Z</time>
      </trkpt>
      <trkpt lat="46.17381" lon="6.16907">
        <ele>429.4</ele>
        <time>2021-03-27T16:25:38Z</time>
      </trkpt>
      <trkpt lat="46.17388" lon="6.1692">
        <ele>429.4</ele>
        <time>2021-03-27T16:25:40Z</time>
      </trkpt>
      <trkpt lat="46.17391" lon="6.16926">
        <ele>429.2</ele>
        <time>2021-03-27T16:25:41Z</time>
      </trkpt>
      <trkpt lat="46.17394" lon="6.16931">
        <ele>429</ele>
        <time>2021-03-27T16:25:42Z</time>
      </trkpt>
      <trkpt lat="46.17399" lon="6.1694">
        <ele>429</ele>
        <time>2021-03-27T16:25:44Z</time>
      </trkpt>
      <trkpt lat="46.17401" lon="6.16943">
        <ele>429</ele>
        <time>2021-03-27T16:25:45Z</time>
      </trkpt>
      <trkpt lat="46.17403" lon="6.16946">
        <ele>428.8</ele>
        <time>2021-03-27T16:25:46Z</time>
      </trkpt>
      <trkpt lat="46.17405" lon="6.16949">
        <ele>428.6</ele>
        <time>2021-03-27T16:25:47Z</time>
      </trkpt>
      <trkpt lat="46.17407" lon="6.16952">
        <ele>428.6</ele>
        <time>2021-03-27T16:25:48Z</time>
      </trkpt>
      <trkpt lat="46.17408" lon="6.16954">
        <ele>428.6</ele>
        <time>2021-03-27T16:25:49Z</time>
      </trkpt>
      <trkpt lat="46.17409" lon="6.16956">
        <ele>428.4</ele>
        <time>2021-03-27T16:25:50Z</time>
      </trkpt>
      <trkpt lat="46.17409" lon="6.16956">
        <ele>428.4</ele>
        <time>2021-03-27T16:25:51Z</time>
      </trkpt>
      <trkpt lat="46.1741" lon="6.16956">
        <ele>428.2</ele>
        <time>2021-03-27T16:25:53Z</time>
      </trkpt>
      <trkpt lat="46.17409" lon="6.16956">
        <ele>428.2</ele>
        <time>2021-03-27T16:25:54Z</time>
      </trkpt>
      <trkpt lat="46.17409" lon="6.16956">
        <ele>428</ele>
        <time>2021-03-27T16:25:55Z</time>
      </trkpt>
      <trkpt lat="46.17409" lon="6.16956">
        <ele>428</ele>
        <time>2021-03-27T16:25:57Z</time>
      </trkpt>
      <trkpt lat="46.17409" lon="6.16956">
        <ele>428.2</ele>
        <time>2021-03-27T16:25:58Z</time>
      </trkpt>
      <trkpt lat="46.17409" lon="6.16956">
        <ele>428.2</ele>
        <time>2021-03-27T16:25:59Z</time>
      </trkpt>
      <trkpt lat="46.17409" lon="6.16956">
        <ele>428</ele>
        <time>2021-03-27T16:26:00Z</time>
      </trkpt>
      <trkpt lat="46.17409" lon="6.16956">
        <ele>428</ele>
        <time>2021-03-27T16:26:01Z</time>
      </trkpt>
      <trkpt lat="46.17409" lon="6.16956">
        <ele>428</ele>
        <time>2021-03-27T16:26:02Z</time>
      </trkpt>
      <trkpt lat="46.17409" lon="6.16956">
        <ele>428</ele>
        <time>2021-03-27T16:26:03Z</time>
      </trkpt>
      <trkpt lat="46.17409" lon="6.16956">
        <ele>428</ele>
        <time>2021-03-27T16:26:04Z</time>
      </trkpt>
      <trkpt lat="46.17409" lon="6.16955">
        <ele>428</ele>
        <time>2021-03-27T16:26:06Z</time>
      </trkpt>
      <trkpt lat="46.17409" lon="6.16955">
        <ele>428.2</ele>
        <time>2021-03-27T16:26:07Z</time>
      </trkpt>
      <trkpt lat="46.17409" lon="6.16955">
        <ele>428</ele>
        <time>2021-03-27T16:26:08Z</time>
      </trkpt>
      <trkpt lat="46.17409" lon="6.16955">
        <ele>428</ele>
        <time>2021-03-27T16:26:10Z</time>
      </trkpt>
      <trkpt lat="46.17408" lon="6.16955">
        <ele>428</ele>
        <time>2021-03-27T16:26:11Z</time>
      </trkpt>
      <trkpt lat="46.17408" lon="6.16955">
        <ele>428</ele>
        <time>2021-03-27T16:26:12Z</time>
      </trkpt>
      <trkpt lat="46.17408" lon="6.16955">
        <ele>428</ele>
        <time>2021-03-27T16:26:13Z</time>
      </trkpt>
      <trkpt lat="46.17408" lon="6.16955">
        <ele>428.2</ele>
        <time>2021-03-27T16:26:14Z</time>
      </trkpt>
      <trkpt lat="46.17408" lon="6.16955">
        <ele>428</ele>
        <time>2021-03-27T16:26:15Z</time>
      </trkpt>
      <trkpt lat="46.17408" lon="6.16954">
        <ele>428</ele>
        <time>2021-03-27T16:26:16Z</time>
      </trkpt>
      <trkpt lat="46.17408" lon="6.16954">
        <ele>428</ele>
        <time>2021-03-27T16:26:17Z</time>
      </trkpt>
      <trkpt lat="46.17409" lon="6.16954">
        <ele>428</ele>
        <time>2021-03-27T16:26:19Z</time>
      </trkpt>
      <trkpt lat="46.17409" lon="6.16954">
        <ele>428</ele>
        <time>2021-03-27T16:26:20Z</time>
      </trkpt>
      <trkpt lat="46.17409" lon="6.16953">
        <ele>428</ele>
        <time>2021-03-27T16:26:21Z</time>
      </trkpt>
      <trkpt lat="46.17409" lon="6.16953">
        <ele>428</ele>
        <time>2021-03-27T16:26:23Z</time>
      </trkpt>
      <trkpt lat="46.1741" lon="6.16953">
        <ele>428</ele>
        <time>2021-03-27T16:26:24Z</time>
      </trkpt>
      <trkpt lat="46.1741" lon="6.16953">
        <ele>428</ele>
        <time>2021-03-27T16:26:25Z</time>
      </trkpt>
      <trkpt lat="46.1741" lon="6.16953">
        <ele>428</ele>
        <time>2021-03-27T16:26:26Z</time>
      </trkpt>
      <trkpt lat="46.17411" lon="6.16953">
        <ele>428.2</ele>
        <time>2021-03-27T16:26:27Z</time>
      </trkpt>
      <trkpt lat="46.17411" lon="6.16953">
        <ele>428.2</ele>
        <time>2021-03-27T16:26:28Z</time>
      </trkpt>
      <trkpt lat="46.17411" lon="6.16953">
        <ele>428</ele>
        <time>2021-03-27T16:26:29Z</time>
      </trkpt>
      <trkpt lat="46.17411" lon="6.16953">
        <ele>428</ele>
        <time>2021-03-27T16:26:30Z</time>
      </trkpt>
      <trkpt lat="46.17413" lon="6.16956">
        <ele>428</ele>
        <time>2021-03-27T16:26:32Z</time>
      </trkpt>
      <trkpt lat="46.17413" lon="6.16957">
        <ele>428</ele>
        <time>2021-03-27T16:26:33Z</time>
      </trkpt>
      <trkpt lat="46.17414" lon="6.1696">
        <ele>428.2</ele>
        <time>2021-03-27T16:26:34Z</time>
      </trkpt>
      <trkpt lat="46.17417" lon="6.16966">
        <ele>428.2</ele>
        <time>2021-03-27T16:26:36Z</time>
      </trkpt>
      <trkpt lat="46.17419" lon="6.1697">
        <ele>428.2</ele>
        <time>2021-03-27T16:26:37Z</time>
      </trkpt>
      <trkpt lat="46.17421" lon="6.16975">
        <ele>428</ele>
        <time>2021-03-27T16:26:38Z</time>
      </trkpt>
      <trkpt lat="46.17423" lon="6.1698">
        <ele>428.2</ele>
        <time>2021-03-27T16:26:39Z</time>
      </trkpt>
      <trkpt lat="46.17425" lon="6.16985">
        <ele>428</ele>
        <time>2021-03-27T16:26:40Z</time>
      </trkpt>
      <trkpt lat="46.17427" lon="6.16991">
        <ele>428.2</ele>
        <time>2021-03-27T16:26:41Z</time>
      </trkpt>
      <trkpt lat="46.1743" lon="6.16998">
        <ele>428.2</ele>
        <time>2021-03-27T16:26:42Z</time>
      </trkpt>
      <trkpt lat="46.17432" lon="6.17004">
        <ele>428.2</ele>
        <time>2021-03-27T16:26:43Z</time>
      </trkpt>
      <trkpt lat="46.17435" lon="6.17012">
        <ele>428.2</ele>
        <time>2021-03-27T16:26:44Z</time>
      </trkpt>
      <trkpt lat="46.17437" lon="6.1702">
        <ele>428.2</ele>
        <time>2021-03-27T16:26:45Z</time>
      </trkpt>
      <trkpt lat="46.17439" lon="6.17029">
        <ele>428.2</ele>
        <time>2021-03-27T16:26:46Z</time>
      </trkpt>
      <trkpt lat="46.17441" lon="6.17038">
        <ele>428.4</ele>
        <time>2021-03-27T16:26:47Z</time>
      </trkpt>
      <trkpt lat="46.17442" lon="6.17048">
        <ele>428.2</ele>
        <time>2021-03-27T16:26:48Z</time>
      </trkpt>
      <trkpt lat="46.17444" lon="6.17057">
        <ele>428.4</ele>
        <time>2021-03-27T16:26:49Z</time>
      </trkpt>
      <trkpt lat="46.17446" lon="6.17067">
        <ele>428.4</ele>
        <time>2021-03-27T16:26:50Z</time>
      </trkpt>
      <trkpt lat="46.17447" lon="6.17077">
        <ele>428.4</ele>
        <time>2021-03-27T16:26:51Z</time>
      </trkpt>
      <trkpt lat="46.17449" lon="6.17086">
        <ele>428.4</ele>
        <time>2021-03-27T16:26:52Z</time>
      </trkpt>
      <trkpt lat="46.17451" lon="6.17096">
        <ele>428.6</ele>
        <time>2021-03-27T16:26:53Z</time>
      </trkpt>
      <trkpt lat="46.17453" lon="6.17107">
        <ele>428.6</ele>
        <time>2021-03-27T16:26:54Z</time>
      </trkpt>
      <trkpt lat="46.17455" lon="6.17117">
        <ele>428.6</ele>
        <time>2021-03-27T16:26:55Z</time>
      </trkpt>
      <trkpt lat="46.17456" lon="6.17128">
        <ele>428.8</ele>
        <time>2021-03-27T16:26:56Z</time>
      </trkpt>
      <trkpt lat="46.17457" lon="6.17138">
        <ele>429</ele>
        <time>2021-03-27T16:26:57Z</time>
      </trkpt>
      <trkpt lat="46.17458" lon="6.17148">
        <ele>428.8</ele>
        <time>2021-03-27T16:26:58Z</time>
      </trkpt>
      <trkpt lat="46.17459" lon="6.17159">
        <ele>428.8</ele>
        <time>2021-03-27T16:26:59Z</time>
      </trkpt>
      <trkpt lat="46.17461" lon="6.17169">
        <ele>428.8</ele>
        <time>2021-03-27T16:27:00Z</time>
      </trkpt>
      <trkpt lat="46.17463" lon="6.1718">
        <ele>428.8</ele>
        <time>2021-03-27T16:27:01Z</time>
      </trkpt>
      <trkpt lat="46.17466" lon="6.17192">
        <ele>428.8</ele>
        <time>2021-03-27T16:27:02Z</time>
      </trkpt>
      <trkpt lat="46.17468" lon="6.17203">
        <ele>428.8</ele>
        <time>2021-03-27T16:27:03Z</time>
      </trkpt>
      <trkpt lat="46.17469" lon="6.17214">
        <ele>428.8</ele>
        <time>2021-03-27T16:27:04Z</time>
      </trkpt>
      <trkpt lat="46.17471" lon="6.17225">
        <ele>428.8</ele>
        <time>2021-03-27T16:27:05Z</time>
      </trkpt>
      <trkpt lat="46.17474" lon="6.17237">
        <ele>428.6</ele>
        <time>2021-03-27T16:27:06Z</time>
      </trkpt>
      <trkpt lat="46.17476" lon="6.17249">
        <ele>428.4</ele>
        <time>2021-03-27T16:27:07Z</time>
      </trkpt>
      <trkpt lat="46.17479" lon="6.17261">
        <ele>428.2</ele>
        <time>2021-03-27T16:27:08Z</time>
      </trkpt>
      <trkpt lat="46.17481" lon="6.17273">
        <ele>427.4</ele>
        <time>2021-03-27T16:27:09Z</time>
      </trkpt>
      <trkpt lat="46.17483" lon="6.17285">
        <ele>426.6</ele>
        <time>2021-03-27T16:27:10Z</time>
      </trkpt>
      <trkpt lat="46.17485" lon="6.17298">
        <ele>426</ele>
        <time>2021-03-27T16:27:11Z</time>
      </trkpt>
      <trkpt lat="46.17488" lon="6.1731">
        <ele>426</ele>
        <time>2021-03-27T16:27:12Z</time>
      </trkpt>
      <trkpt lat="46.1749" lon="6.17322">
        <ele>425.4</ele>
        <time>2021-03-27T16:27:13Z</time>
      </trkpt>
      <trkpt lat="46.17493" lon="6.17335">
        <ele>425</ele>
        <time>2021-03-27T16:27:14Z</time>
      </trkpt>
      <trkpt lat="46.17496" lon="6.17347">
        <ele>425</ele>
        <time>2021-03-27T16:27:15Z</time>
      </trkpt>
      <trkpt lat="46.17498" lon="6.17359">
        <ele>424.8</ele>
        <time>2021-03-27T16:27:16Z</time>
      </trkpt>
      <trkpt lat="46.17501" lon="6.17371">
        <ele>424.4</ele>
        <time>2021-03-27T16:27:17Z</time>
      </trkpt>
      <trkpt lat="46.17504" lon="6.17383">
        <ele>424.2</ele>
        <time>2021-03-27T16:27:18Z</time>
      </trkpt>
      <trkpt lat="46.17508" lon="6.17395">
        <ele>424</ele>
        <time>2021-03-27T16:27:19Z</time>
      </trkpt>
      <trkpt lat="46.1751" lon="6.17408">
        <ele>423.8</ele>
        <time>2021-03-27T16:27:20Z</time>
      </trkpt>
      <trkpt lat="46.17513" lon="6.1742">
        <ele>423.6</ele>
        <time>2021-03-27T16:27:21Z</time>
      </trkpt>
      <trkpt lat="46.17516" lon="6.17433">
        <ele>423.4</ele>
        <time>2021-03-27T16:27:22Z</time>
      </trkpt>
      <trkpt lat="46.17519" lon="6.17445">
        <ele>423.2</ele>
        <time>2021-03-27T16:27:23Z</time>
      </trkpt>
      <trkpt lat="46.17521" lon="6.17458">
        <ele>423</ele>
        <time>2021-03-27T16:27:24Z</time>
      </trkpt>
      <trkpt lat="46.17525" lon="6.1747">
        <ele>423</ele>
        <time>2021-03-27T16:27:25Z</time>
      </trkpt>
      <trkpt lat="46.17528" lon="6.17482">
        <ele>423</ele>
        <time>2021-03-27T16:27:26Z</time>
      </trkpt>
      <trkpt lat="46.17531" lon="6.17495">
        <ele>423</ele>
        <time>2021-03-27T16:27:27Z</time>
      </trkpt>
      <trkpt lat="46.17533" lon="6.17507">
        <ele>423</ele>
        <time>2021-03-27T16:27:28Z</time>
      </trkpt>
      <trkpt lat="46.17536" lon="6.1752">
        <ele>423</ele>
        <time>2021-03-27T16:27:29Z</time>
      </trkpt>
      <trkpt lat="46.17539" lon="6.17532">
        <ele>423</ele>
        <time>2021-03-27T16:27:30Z</time>
      </trkpt>
      <trkpt lat="46.17542" lon="6.17544">
        <ele>423</ele>
        <time>2021-03-27T16:27:31Z</time>
      </trkpt>
      <trkpt lat="46.17545" lon="6.17557">
        <ele>422.8</ele>
        <time>2021-03-27T16:27:32Z</time>
      </trkpt>
      <trkpt lat="46.17548" lon="6.17569">
        <ele>423</ele>
        <time>2021-03-27T16:27:33Z</time>
      </trkpt>
      <trkpt lat="46.17552" lon="6.17581">
        <ele>423</ele>
        <time>2021-03-27T16:27:34Z</time>
      </trkpt>
      <trkpt lat="46.17555" lon="6.17593">
        <ele>422.8</ele>
        <time>2021-03-27T16:27:35Z</time>
      </trkpt>
      <trkpt lat="46.17558" lon="6.17605">
        <ele>422.8</ele>
        <time>2021-03-27T16:27:36Z</time>
      </trkpt>
      <trkpt lat="46.17561" lon="6.17617">
        <ele>423</ele>
        <time>2021-03-27T16:27:37Z</time>
      </trkpt>
      <trkpt lat="46.17564" lon="6.17629">
        <ele>423</ele>
        <time>2021-03-27T16:27:38Z</time>
      </trkpt>
      <trkpt lat="46.17567" lon="6.17641">
        <ele>423</ele>
        <time>2021-03-27T16:27:39Z</time>
      </trkpt>
      <trkpt lat="46.1757" lon="6.17653">
        <ele>423</ele>
        <time>2021-03-27T16:27:40Z</time>
      </trkpt>
      <trkpt lat="46.17573" lon="6.17665">
        <ele>423</ele>
        <time>2021-03-27T16:27:41Z</time>
      </trkpt>
      <trkpt lat="46.17576" lon="6.17677">
        <ele>422.8</ele>
        <time>2021-03-27T16:27:42Z</time>
      </trkpt>
      <trkpt lat="46.17579" lon="6.17689">
        <ele>422.6</ele>
        <time>2021-03-27T16:27:43Z</time>
      </trkpt>
      <trkpt lat="46.17583" lon="6.17701">
        <ele>422.6</ele>
        <time>2021-03-27T16:27:44Z</time>
      </trkpt>
      <trkpt lat="46.17586" lon="6.17713">
        <ele>422.6</ele>
        <time>2021-03-27T16:27:45Z</time>
      </trkpt>
      <trkpt lat="46.17589" lon="6.17725">
        <ele>422.6</ele>
        <time>2021-03-27T16:27:46Z</time>
      </trkpt>
      <trkpt lat="46.17592" lon="6.17737">
        <ele>422.8</ele>
        <time>2021-03-27T16:27:47Z</time>
      </trkpt>
      <trkpt lat="46.17595" lon="6.17748">
        <ele>422.6</ele>
        <time>2021-03-27T16:27:48Z</time>
      </trkpt>
      <trkpt lat="46.17599" lon="6.17759">
        <ele>422.6</ele>
        <time>2021-03-27T16:27:49Z</time>
      </trkpt>
      <trkpt lat="46.17602" lon="6.1777">
        <ele>422.4</ele>
        <time>2021-03-27T16:27:50Z</time>
      </trkpt>
      <trkpt lat="46.17606" lon="6.17782">
        <ele>422.4</ele>
        <time>2021-03-27T16:27:51Z</time>
      </trkpt>
      <trkpt lat="46.17609" lon="6.17794">
        <ele>422.4</ele>
        <time>2021-03-27T16:27:52Z</time>
      </trkpt>
      <trkpt lat="46.17613" lon="6.17805">
        <ele>422.4</ele>
        <time>2021-03-27T16:27:53Z</time>
      </trkpt>
      <trkpt lat="46.17616" lon="6.17817">
        <ele>422.4</ele>
        <time>2021-03-27T16:27:54Z</time>
      </trkpt>
      <trkpt lat="46.1762" lon="6.17828">
        <ele>422.2</ele>
        <time>2021-03-27T16:27:55Z</time>
      </trkpt>
      <trkpt lat="46.17623" lon="6.1784">
        <ele>422.2</ele>
        <time>2021-03-27T16:27:56Z</time>
      </trkpt>
      <trkpt lat="46.17627" lon="6.17851">
        <ele>422.2</ele>
        <time>2021-03-27T16:27:57Z</time>
      </trkpt>
      <trkpt lat="46.17631" lon="6.17862">
        <ele>422.2</ele>
        <time>2021-03-27T16:27:58Z</time>
      </trkpt>
      <trkpt lat="46.17634" lon="6.17873">
        <ele>422.2</ele>
        <time>2021-03-27T16:27:59Z</time>
      </trkpt>
      <trkpt lat="46.17637" lon="6.17884">
        <ele>422</ele>
        <time>2021-03-27T16:28:00Z</time>
      </trkpt>
      <trkpt lat="46.17641" lon="6.17895">
        <ele>421.8</ele>
        <time>2021-03-27T16:28:01Z</time>
      </trkpt>
      <trkpt lat="46.17644" lon="6.17906">
        <ele>421.8</ele>
        <time>2021-03-27T16:28:02Z</time>
      </trkpt>
      <trkpt lat="46.17647" lon="6.17916">
        <ele>421.4</ele>
        <time>2021-03-27T16:28:03Z</time>
      </trkpt>
      <trkpt lat="46.1765" lon="6.17925">
        <ele>421.4</ele>
        <time>2021-03-27T16:28:04Z</time>
      </trkpt>
      <trkpt lat="46.17653" lon="6.17934">
        <ele>421.6</ele>
        <time>2021-03-27T16:28:05Z</time>
      </trkpt>
      <trkpt lat="46.17655" lon="6.17942">
        <ele>421.6</ele>
        <time>2021-03-27T16:28:06Z</time>
      </trkpt>
      <trkpt lat="46.17658" lon="6.1795">
        <ele>421.4</ele>
        <time>2021-03-27T16:28:07Z</time>
      </trkpt>
      <trkpt lat="46.1766" lon="6.17958">
        <ele>421.4</ele>
        <time>2021-03-27T16:28:08Z</time>
      </trkpt>
      <trkpt lat="46.17661" lon="6.17966">
        <ele>421.4</ele>
        <time>2021-03-27T16:28:09Z</time>
      </trkpt>
      <trkpt lat="46.17661" lon="6.17974">
        <ele>421.4</ele>
        <time>2021-03-27T16:28:10Z</time>
      </trkpt>
      <trkpt lat="46.17662" lon="6.17982">
        <ele>421.4</ele>
        <time>2021-03-27T16:28:11Z</time>
      </trkpt>
      <trkpt lat="46.17664" lon="6.17988">
        <ele>421.4</ele>
        <time>2021-03-27T16:28:12Z</time>
      </trkpt>
      <trkpt lat="46.17668" lon="6.17993">
        <ele>421.4</ele>
        <time>2021-03-27T16:28:13Z</time>
      </trkpt>
      <trkpt lat="46.17673" lon="6.17993">
        <ele>421.6</ele>
        <time>2021-03-27T16:28:14Z</time>
      </trkpt>
      <trkpt lat="46.17679" lon="6.17991">
        <ele>421.4</ele>
        <time>2021-03-27T16:28:15Z</time>
      </trkpt>
      <trkpt lat="46.17685" lon="6.17988">
        <ele>421.6</ele>
        <time>2021-03-27T16:28:16Z</time>
      </trkpt>
      <trkpt lat="46.17692" lon="6.17986">
        <ele>421.6</ele>
        <time>2021-03-27T16:28:17Z</time>
      </trkpt>
      <trkpt lat="46.17699" lon="6.17986">
        <ele>421.4</ele>
        <time>2021-03-27T16:28:18Z</time>
      </trkpt>
      <trkpt lat="46.17707" lon="6.17987">
        <ele>421.6</ele>
        <time>2021-03-27T16:28:19Z</time>
      </trkpt>
      <trkpt lat="46.17715" lon="6.17989">
        <ele>421.6</ele>
        <time>2021-03-27T16:28:20Z</time>
      </trkpt>
      <trkpt lat="46.17724" lon="6.17994">
        <ele>421.6</ele>
        <time>2021-03-27T16:28:21Z</time>
      </trkpt>
      <trkpt lat="46.17732" lon="6.17999">
        <ele>421.6</ele>
        <time>2021-03-27T16:28:22Z</time>
      </trkpt>
      <trkpt lat="46.1774" lon="6.18006">
        <ele>421.6</ele>
        <time>2021-03-27T16:28:23Z</time>
      </trkpt>
      <trkpt lat="46.17748" lon="6.18014">
        <ele>421.4</ele>
        <time>2021-03-27T16:28:24Z</time>
      </trkpt>
      <trkpt lat="46.17756" lon="6.18023">
        <ele>421</ele>
        <time>2021-03-27T16:28:25Z</time>
      </trkpt>
      <trkpt lat="46.17764" lon="6.18033">
        <ele>420.6</ele>
        <time>2021-03-27T16:28:26Z</time>
      </trkpt>
      <trkpt lat="46.17772" lon="6.18045">
        <ele>420.2</ele>
        <time>2021-03-27T16:28:27Z</time>
      </trkpt>
      <trkpt lat="46.1778" lon="6.18057">
        <ele>420</ele>
        <time>2021-03-27T16:28:28Z</time>
      </trkpt>
      <trkpt lat="46.17787" lon="6.1807">
        <ele>419</ele>
        <time>2021-03-27T16:28:29Z</time>
      </trkpt>
      <trkpt lat="46.17795" lon="6.18082">
        <ele>418.4</ele>
        <time>2021-03-27T16:28:30Z</time>
      </trkpt>
      <trkpt lat="46.17801" lon="6.18093">
        <ele>418</ele>
        <time>2021-03-27T16:28:31Z</time>
      </trkpt>
      <trkpt lat="46.17808" lon="6.18105">
        <ele>417.4</ele>
        <time>2021-03-27T16:28:32Z</time>
      </trkpt>
      <trkpt lat="46.17814" lon="6.18116">
        <ele>416.6</ele>
        <time>2021-03-27T16:28:33Z</time>
      </trkpt>
      <trkpt lat="46.1782" lon="6.18129">
        <ele>416</ele>
        <time>2021-03-27T16:28:34Z</time>
      </trkpt>
      <trkpt lat="46.17827" lon="6.18141">
        <ele>415.2</ele>
        <time>2021-03-27T16:28:35Z</time>
      </trkpt>
      <trkpt lat="46.17833" lon="6.18153">
        <ele>414.6</ele>
        <time>2021-03-27T16:28:36Z</time>
      </trkpt>
      <trkpt lat="46.1784" lon="6.18166">
        <ele>413.8</ele>
        <time>2021-03-27T16:28:37Z</time>
      </trkpt>
      <trkpt lat="46.17847" lon="6.18179">
        <ele>412.6</ele>
        <time>2021-03-27T16:28:38Z</time>
      </trkpt>
      <trkpt lat="46.17854" lon="6.18193">
        <ele>412</ele>
        <time>2021-03-27T16:28:39Z</time>
      </trkpt>
      <trkpt lat="46.17861" lon="6.18207">
        <ele>411.2</ele>
        <time>2021-03-27T16:28:40Z</time>
      </trkpt>
      <trkpt lat="46.17868" lon="6.18221">
        <ele>410.8</ele>
        <time>2021-03-27T16:28:41Z</time>
      </trkpt>
      <trkpt lat="46.17876" lon="6.18235">
        <ele>410.8</ele>
        <time>2021-03-27T16:28:42Z</time>
      </trkpt>
      <trkpt lat="46.17883" lon="6.18248">
        <ele>410</ele>
        <time>2021-03-27T16:28:43Z</time>
      </trkpt>
      <trkpt lat="46.17892" lon="6.18259">
        <ele>409</ele>
        <time>2021-03-27T16:28:44Z</time>
      </trkpt>
      <trkpt lat="46.17901" lon="6.18268">
        <ele>408</ele>
        <time>2021-03-27T16:28:45Z</time>
      </trkpt>
      <trkpt lat="46.17911" lon="6.18274">
        <ele>407.4</ele>
        <time>2021-03-27T16:28:46Z</time>
      </trkpt>
      <trkpt lat="46.17921" lon="6.18278">
        <ele>407</ele>
        <time>2021-03-27T16:28:47Z</time>
      </trkpt>
      <trkpt lat="46.17933" lon="6.18281">
        <ele>406.2</ele>
        <time>2021-03-27T16:28:48Z</time>
      </trkpt>
      <trkpt lat="46.17945" lon="6.18283">
        <ele>405.6</ele>
        <time>2021-03-27T16:28:49Z</time>
      </trkpt>
      <trkpt lat="46.17956" lon="6.18285">
        <ele>405.2</ele>
        <time>2021-03-27T16:28:50Z</time>
      </trkpt>
      <trkpt lat="46.17967" lon="6.18287">
        <ele>405</ele>
        <time>2021-03-27T16:28:51Z</time>
      </trkpt>
      <trkpt lat="46.17976" lon="6.18289">
        <ele>405</ele>
        <time>2021-03-27T16:28:52Z</time>
      </trkpt>
      <trkpt lat="46.17984" lon="6.18291">
        <ele>404.8</ele>
        <time>2021-03-27T16:28:53Z</time>
      </trkpt>
      <trkpt lat="46.17992" lon="6.18296">
        <ele>404.8</ele>
        <time>2021-03-27T16:28:54Z</time>
      </trkpt>
      <trkpt lat="46.17998" lon="6.18304">
        <ele>404.6</ele>
        <time>2021-03-27T16:28:55Z</time>
      </trkpt>
      <trkpt lat="46.18003" lon="6.18313">
        <ele>404.8</ele>
        <time>2021-03-27T16:28:56Z</time>
      </trkpt>
      <trkpt lat="46.18008" lon="6.18322">
        <ele>404.6</ele>
        <time>2021-03-27T16:28:57Z</time>
      </trkpt>
      <trkpt lat="46.18013" lon="6.18332">
        <ele>404.6</ele>
        <time>2021-03-27T16:28:58Z</time>
      </trkpt>
      <trkpt lat="46.18018" lon="6.18342">
        <ele>404.6</ele>
        <time>2021-03-27T16:28:59Z</time>
      </trkpt>
      <trkpt lat="46.18022" lon="6.18353">
        <ele>404.6</ele>
        <time>2021-03-27T16:29:00Z</time>
      </trkpt>
      <trkpt lat="46.18026" lon="6.18363">
        <ele>404.4</ele>
        <time>2021-03-27T16:29:01Z</time>
      </trkpt>
      <trkpt lat="46.18031" lon="6.18374">
        <ele>404.4</ele>
        <time>2021-03-27T16:29:02Z</time>
      </trkpt>
      <trkpt lat="46.18035" lon="6.18386">
        <ele>404.4</ele>
        <time>2021-03-27T16:29:03Z</time>
      </trkpt>
      <trkpt lat="46.18038" lon="6.18398">
        <ele>404.4</ele>
        <time>2021-03-27T16:29:04Z</time>
      </trkpt>
      <trkpt lat="46.18041" lon="6.18411">
        <ele>404.4</ele>
        <time>2021-03-27T16:29:05Z</time>
      </trkpt>
      <trkpt lat="46.18044" lon="6.18424">
        <ele>404.4</ele>
        <time>2021-03-27T16:29:06Z</time>
      </trkpt>
      <trkpt lat="46.18045" lon="6.18437">
        <ele>404.2</ele>
        <time>2021-03-27T16:29:07Z</time>
      </trkpt>
      <trkpt lat="46.18047" lon="6.18451">
        <ele>404</ele>
        <time>2021-03-27T16:29:08Z</time>
      </trkpt>
      <trkpt lat="46.18048" lon="6.18465">
        <ele>403.6</ele>
        <time>2021-03-27T16:29:09Z</time>
      </trkpt>
      <trkpt lat="46.18048" lon="6.18479">
        <ele>403.6</ele>
        <time>2021-03-27T16:29:10Z</time>
      </trkpt>
      <trkpt lat="46.18048" lon="6.18493">
        <ele>403.2</ele>
        <time>2021-03-27T16:29:11Z</time>
      </trkpt>
      <trkpt lat="46.18048" lon="6.18506">
        <ele>402.8</ele>
        <time>2021-03-27T16:29:12Z</time>
      </trkpt>
      <trkpt lat="46.18048" lon="6.1852">
        <ele>402.6</ele>
        <time>2021-03-27T16:29:13Z</time>
      </trkpt>
      <trkpt lat="46.18048" lon="6.18533">
        <ele>402.4</ele>
        <time>2021-03-27T16:29:14Z</time>
      </trkpt>
      <trkpt lat="46.18048" lon="6.18545">
        <ele>402.2</ele>
        <time>2021-03-27T16:29:15Z</time>
      </trkpt>
      <trkpt lat="46.18047" lon="6.18558">
        <ele>402</ele>
        <time>2021-03-27T16:29:16Z</time>
      </trkpt>
      <trkpt lat="46.18047" lon="6.1857">
        <ele>401.8</ele>
        <time>2021-03-27T16:29:17Z</time>
      </trkpt>
      <trkpt lat="46.18047" lon="6.18583">
        <ele>401.8</ele>
        <time>2021-03-27T16:29:18Z</time>
      </trkpt>
      <trkpt lat="46.18047" lon="6.18595">
        <ele>401.8</ele>
        <time>2021-03-27T16:29:19Z</time>
      </trkpt>
      <trkpt lat="46.18047" lon="6.18608">
        <ele>401.8</ele>
        <time>2021-03-27T16:29:20Z</time>
      </trkpt>
      <trkpt lat="46.18048" lon="6.18621">
        <ele>401.8</ele>
        <time>2021-03-27T16:29:21Z</time>
      </trkpt>
      <trkpt lat="46.18048" lon="6.18635">
        <ele>401.6</ele>
        <time>2021-03-27T16:29:22Z</time>
      </trkpt>
      <trkpt lat="46.18049" lon="6.18647">
        <ele>401.6</ele>
        <time>2021-03-27T16:29:23Z</time>
      </trkpt>
      <trkpt lat="46.1805" lon="6.1866">
        <ele>401.6</ele>
        <time>2021-03-27T16:29:24Z</time>
      </trkpt>
      <trkpt lat="46.18052" lon="6.18672">
        <ele>401.6</ele>
        <time>2021-03-27T16:29:25Z</time>
      </trkpt>
      <trkpt lat="46.18054" lon="6.18684">
        <ele>401.4</ele>
        <time>2021-03-27T16:29:26Z</time>
      </trkpt>
      <trkpt lat="46.18057" lon="6.18697">
        <ele>401.4</ele>
        <time>2021-03-27T16:29:27Z</time>
      </trkpt>
      <trkpt lat="46.1806" lon="6.18709">
        <ele>401.6</ele>
        <time>2021-03-27T16:29:28Z</time>
      </trkpt>
      <trkpt lat="46.18064" lon="6.18721">
        <ele>401.4</ele>
        <time>2021-03-27T16:29:29Z</time>
      </trkpt>
      <trkpt lat="46.18068" lon="6.18732">
        <ele>401.4</ele>
        <time>2021-03-27T16:29:30Z</time>
      </trkpt>
      <trkpt lat="46.18073" lon="6.18743">
        <ele>401.6</ele>
        <time>2021-03-27T16:29:31Z</time>
      </trkpt>
      <trkpt lat="46.18079" lon="6.18754">
        <ele>401.6</ele>
        <time>2021-03-27T16:29:32Z</time>
      </trkpt>
      <trkpt lat="46.18084" lon="6.18764">
        <ele>401.6</ele>
        <time>2021-03-27T16:29:33Z</time>
      </trkpt>
      <trkpt lat="46.18091" lon="6.18773">
        <ele>401.6</ele>
        <time>2021-03-27T16:29:34Z</time>
      </trkpt>
      <trkpt lat="46.18097" lon="6.18782">
        <ele>401.6</ele>
        <time>2021-03-27T16:29:35Z</time>
      </trkpt>
      <trkpt lat="46.18104" lon="6.1879">
        <ele>401.6</ele>
        <time>2021-03-27T16:29:36Z</time>
      </trkpt>
      <trkpt lat="46.18112" lon="6.18797">
        <ele>401.6</ele>
        <time>2021-03-27T16:29:37Z</time>
      </trkpt>
      <trkpt lat="46.18119" lon="6.18805">
        <ele>401.8</ele>
        <time>2021-03-27T16:29:38Z</time>
      </trkpt>
      <trkpt lat="46.18127" lon="6.18811">
        <ele>401.8</ele>
        <time>2021-03-27T16:29:39Z</time>
      </trkpt>
      <trkpt lat="46.18135" lon="6.18817">
        <ele>401.8</ele>
        <time>2021-03-27T16:29:40Z</time>
      </trkpt>
      <trkpt lat="46.18143" lon="6.18823">
        <ele>402</ele>
        <time>2021-03-27T16:29:41Z</time>
      </trkpt>
      <trkpt lat="46.18151" lon="6.18828">
        <ele>401.8</ele>
        <time>2021-03-27T16:29:42Z</time>
      </trkpt>
      <trkpt lat="46.18159" lon="6.18833">
        <ele>402</ele>
        <time>2021-03-27T16:29:43Z</time>
      </trkpt>
      <trkpt lat="46.18167" lon="6.18838">
        <ele>402</ele>
        <time>2021-03-27T16:29:44Z</time>
      </trkpt>
      <trkpt lat="46.18175" lon="6.18842">
        <ele>402</ele>
        <time>2021-03-27T16:29:45Z</time>
      </trkpt>
      <trkpt lat="46.18183" lon="6.18846">
        <ele>402</ele>
        <time>2021-03-27T16:29:46Z</time>
      </trkpt>
      <trkpt lat="46.18191" lon="6.1885">
        <ele>402</ele>
        <time>2021-03-27T16:29:47Z</time>
      </trkpt>
      <trkpt lat="46.18199" lon="6.18854">
        <ele>402</ele>
        <time>2021-03-27T16:29:48Z</time>
      </trkpt>
      <trkpt lat="46.18207" lon="6.18858">
        <ele>402</ele>
        <time>2021-03-27T16:29:49Z</time>
      </trkpt>
      <trkpt lat="46.18215" lon="6.18862">
        <ele>402</ele>
        <time>2021-03-27T16:29:50Z</time>
      </trkpt>
      <trkpt lat="46.18222" lon="6.18865">
        <ele>402.2</ele>
        <time>2021-03-27T16:29:51Z</time>
      </trkpt>
      <trkpt lat="46.18229" lon="6.18869">
        <ele>402.6</ele>
        <time>2021-03-27T16:29:52Z</time>
      </trkpt>
      <trkpt lat="46.18237" lon="6.18873">
        <ele>402.6</ele>
        <time>2021-03-27T16:29:53Z</time>
      </trkpt>
      <trkpt lat="46.18244" lon="6.18877">
        <ele>402.6</ele>
        <time>2021-03-27T16:29:54Z</time>
      </trkpt>
      <trkpt lat="46.18251" lon="6.1888">
        <ele>402.8</ele>
        <time>2021-03-27T16:29:55Z</time>
      </trkpt>
      <trkpt lat="46.18258" lon="6.18884">
        <ele>403.2</ele>
        <time>2021-03-27T16:29:56Z</time>
      </trkpt>
      <trkpt lat="46.18265" lon="6.18889">
        <ele>403.2</ele>
        <time>2021-03-27T16:29:57Z</time>
      </trkpt>
      <trkpt lat="46.18272" lon="6.18892">
        <ele>403.4</ele>
        <time>2021-03-27T16:29:58Z</time>
      </trkpt>
      <trkpt lat="46.18278" lon="6.18896">
        <ele>403.4</ele>
        <time>2021-03-27T16:29:59Z</time>
      </trkpt>
      <trkpt lat="46.18285" lon="6.189">
        <ele>403.8</ele>
        <time>2021-03-27T16:30:00Z</time>
      </trkpt>
      <trkpt lat="46.18291" lon="6.18903">
        <ele>404</ele>
        <time>2021-03-27T16:30:01Z</time>
      </trkpt>
      <trkpt lat="46.18298" lon="6.18907">
        <ele>404.2</ele>
        <time>2021-03-27T16:30:02Z</time>
      </trkpt>
      <trkpt lat="46.18304" lon="6.1891">
        <ele>404.4</ele>
        <time>2021-03-27T16:30:03Z</time>
      </trkpt>
      <trkpt lat="46.18311" lon="6.18914">
        <ele>404.6</ele>
        <time>2021-03-27T16:30:04Z</time>
      </trkpt>
      <trkpt lat="46.18317" lon="6.18918">
        <ele>405</ele>
        <time>2021-03-27T16:30:05Z</time>
      </trkpt>
      <trkpt lat="46.18323" lon="6.18921">
        <ele>405</ele>
        <time>2021-03-27T16:30:06Z</time>
      </trkpt>
      <trkpt lat="46.18329" lon="6.18925">
        <ele>405.4</ele>
        <time>2021-03-27T16:30:07Z</time>
      </trkpt>
      <trkpt lat="46.18334" lon="6.18929">
        <ele>405.8</ele>
        <time>2021-03-27T16:30:08Z</time>
      </trkpt>
      <trkpt lat="46.1834" lon="6.18933">
        <ele>406.2</ele>
        <time>2021-03-27T16:30:09Z</time>
      </trkpt>
      <trkpt lat="46.18345" lon="6.18937">
        <ele>406.6</ele>
        <time>2021-03-27T16:30:10Z</time>
      </trkpt>
      <trkpt lat="46.1835" lon="6.18941">
        <ele>406.8</ele>
        <time>2021-03-27T16:30:11Z</time>
      </trkpt>
      <trkpt lat="46.18355" lon="6.18946">
        <ele>407</ele>
        <time>2021-03-27T16:30:12Z</time>
      </trkpt>
      <trkpt lat="46.1836" lon="6.18951">
        <ele>407.4</ele>
        <time>2021-03-27T16:30:13Z</time>
      </trkpt>
      <trkpt lat="46.18365" lon="6.18956">
        <ele>407.8</ele>
        <time>2021-03-27T16:30:14Z</time>
      </trkpt>
      <trkpt lat="46.18369" lon="6.18962">
        <ele>408.2</ele>
        <time>2021-03-27T16:30:15Z</time>
      </trkpt>
      <trkpt lat="46.18374" lon="6.18968">
        <ele>408.4</ele>
        <time>2021-03-27T16:30:16Z</time>
      </trkpt>
      <trkpt lat="46.18378" lon="6.18973">
        <ele>408.8</ele>
        <time>2021-03-27T16:30:17Z</time>
      </trkpt>
      <trkpt lat="46.18383" lon="6.18979">
        <ele>409.2</ele>
        <time>2021-03-27T16:30:18Z</time>
      </trkpt>
      <trkpt lat="46.18387" lon="6.18985">
        <ele>409.4</ele>
        <time>2021-03-27T16:30:19Z</time>
      </trkpt>
      <trkpt lat="46.18391" lon="6.18991">
        <ele>409.6</ele>
        <time>2021-03-27T16:30:20Z</time>
      </trkpt>
      <trkpt lat="46.18395" lon="6.18998">
        <ele>410</ele>
        <time>2021-03-27T16:30:21Z</time>
      </trkpt>
      <trkpt lat="46.184" lon="6.19005">
        <ele>410.2</ele>
        <time>2021-03-27T16:30:22Z</time>
      </trkpt>
      <trkpt lat="46.18404" lon="6.19012">
        <ele>410.4</ele>
        <time>2021-03-27T16:30:23Z</time>
      </trkpt>
      <trkpt lat="46.18407" lon="6.19019">
        <ele>410.4</ele>
        <time>2021-03-27T16:30:24Z</time>
      </trkpt>
      <trkpt lat="46.1841" lon="6.19026">
        <ele>410.8</ele>
        <time>2021-03-27T16:30:25Z</time>
      </trkpt>
      <trkpt lat="46.18414" lon="6.19035">
        <ele>410.8</ele>
        <time>2021-03-27T16:30:26Z</time>
      </trkpt>
      <trkpt lat="46.18418" lon="6.19043">
        <ele>411.2</ele>
        <time>2021-03-27T16:30:27Z</time>
      </trkpt>
      <trkpt lat="46.18421" lon="6.19051">
        <ele>411.2</ele>
        <time>2021-03-27T16:30:28Z</time>
      </trkpt>
      <trkpt lat="46.18425" lon="6.1906">
        <ele>411.2</ele>
        <time>2021-03-27T16:30:29Z</time>
      </trkpt>
      <trkpt lat="46.18429" lon="6.19069">
        <ele>411.2</ele>
        <time>2021-03-27T16:30:30Z</time>
      </trkpt>
      <trkpt lat="46.18433" lon="6.19079">
        <ele>411.2</ele>
        <time>2021-03-27T16:30:31Z</time>
      </trkpt>
      <trkpt lat="46.18437" lon="6.19089">
        <ele>411.2</ele>
        <time>2021-03-27T16:30:32Z</time>
      </trkpt>
      <trkpt lat="46.1844" lon="6.19099">
        <ele>411.4</ele>
        <time>2021-03-27T16:30:33Z</time>
      </trkpt>
      <trkpt lat="46.18444" lon="6.19109">
        <ele>411.2</ele>
        <time>2021-03-27T16:30:34Z</time>
      </trkpt>
      <trkpt lat="46.18448" lon="6.19119">
        <ele>411.2</ele>
        <time>2021-03-27T16:30:35Z</time>
      </trkpt>
      <trkpt lat="46.18452" lon="6.19128">
        <ele>411.2</ele>
        <time>2021-03-27T16:30:36Z</time>
      </trkpt>
      <trkpt lat="46.18455" lon="6.19137">
        <ele>411</ele>
        <time>2021-03-27T16:30:37Z</time>
      </trkpt>
      <trkpt lat="46.18459" lon="6.19145">
        <ele>411</ele>
        <time>2021-03-27T16:30:38Z</time>
      </trkpt>
      <trkpt lat="46.18462" lon="6.19151">
        <ele>410.6</ele>
        <time>2021-03-27T16:30:39Z</time>
      </trkpt>
      <trkpt lat="46.18464" lon="6.19157">
        <ele>410.6</ele>
        <time>2021-03-27T16:30:40Z</time>
      </trkpt>
      <trkpt lat="46.18466" lon="6.19162">
        <ele>410.6</ele>
        <time>2021-03-27T16:30:41Z</time>
      </trkpt>
      <trkpt lat="46.18468" lon="6.19166">
        <ele>410.4</ele>
        <time>2021-03-27T16:30:42Z</time>
      </trkpt>
      <trkpt lat="46.18469" lon="6.19171">
        <ele>410.4</ele>
        <time>2021-03-27T16:30:43Z</time>
      </trkpt>
      <trkpt lat="46.1847" lon="6.19174">
        <ele>410.2</ele>
        <time>2021-03-27T16:30:44Z</time>
      </trkpt>
      <trkpt lat="46.18471" lon="6.19176">
        <ele>410.2</ele>
        <time>2021-03-27T16:30:45Z</time>
      </trkpt>
      <trkpt lat="46.18471" lon="6.19177">
        <ele>410.2</ele>
        <time>2021-03-27T16:30:46Z</time>
      </trkpt>
      <trkpt lat="46.18471" lon="6.19178">
        <ele>410</ele>
        <time>2021-03-27T16:30:47Z</time>
      </trkpt>
      <trkpt lat="46.18472" lon="6.19179">
        <ele>410</ele>
        <time>2021-03-27T16:30:48Z</time>
      </trkpt>
      <trkpt lat="46.18472" lon="6.19179">
        <ele>410.2</ele>
        <time>2021-03-27T16:30:49Z</time>
      </trkpt>
      <trkpt lat="46.18472" lon="6.19179">
        <ele>410</ele>
        <time>2021-03-27T16:30:50Z</time>
      </trkpt>
      <trkpt lat="46.18472" lon="6.19179">
        <ele>410</ele>
        <time>2021-03-27T16:30:51Z</time>
      </trkpt>
      <trkpt lat="46.18471" lon="6.1918">
        <ele>410</ele>
        <time>2021-03-27T16:30:52Z</time>
      </trkpt>
      <trkpt lat="46.18471" lon="6.1918">
        <ele>410</ele>
        <time>2021-03-27T16:30:53Z</time>
      </trkpt>
      <trkpt lat="46.18471" lon="6.1918">
        <ele>410.2</ele>
        <time>2021-03-27T16:30:54Z</time>
      </trkpt>
      <trkpt lat="46.18471" lon="6.1918">
        <ele>410</ele>
        <time>2021-03-27T16:30:55Z</time>
      </trkpt>
      <trkpt lat="46.18472" lon="6.1918">
        <ele>410</ele>
        <time>2021-03-27T16:30:56Z</time>
      </trkpt>
      <trkpt lat="46.18472" lon="6.1918">
        <ele>410.2</ele>
        <time>2021-03-27T16:30:57Z</time>
      </trkpt>
      <trkpt lat="46.18472" lon="6.1918">
        <ele>410</ele>
        <time>2021-03-27T16:30:58Z</time>
      </trkpt>
      <trkpt lat="46.18472" lon="6.19181">
        <ele>410</ele>
        <time>2021-03-27T16:30:59Z</time>
      </trkpt>
      <trkpt lat="46.18472" lon="6.19181">
        <ele>410</ele>
        <time>2021-03-27T16:31:00Z</time>
      </trkpt>
      <trkpt lat="46.18472" lon="6.19181">
        <ele>410</ele>
        <time>2021-03-27T16:31:01Z</time>
      </trkpt>
      <trkpt lat="46.18472" lon="6.19181">
        <ele>410.2</ele>
        <time>2021-03-27T16:31:02Z</time>
      </trkpt>
      <trkpt lat="46.18473" lon="6.19181">
        <ele>410</ele>
        <time>2021-03-27T16:31:03Z</time>
      </trkpt>
      <trkpt lat="46.18473" lon="6.19181">
        <ele>410</ele>
        <time>2021-03-27T16:31:04Z</time>
      </trkpt>
      <trkpt lat="46.18473" lon="6.19181">
        <ele>410</ele>
        <time>2021-03-27T16:31:05Z</time>
      </trkpt>
      <trkpt lat="46.18473" lon="6.19181">
        <ele>410</ele>
        <time>2021-03-27T16:31:06Z</time>
      </trkpt>
      <trkpt lat="46.18473" lon="6.19181">
        <ele>410</ele>
        <time>2021-03-27T16:31:07Z</time>
      </trkpt>
      <trkpt lat="46.18473" lon="6.19181">
        <ele>410</ele>
        <time>2021-03-27T16:31:08Z</time>
      </trkpt>
      <trkpt lat="46.18474" lon="6.19183">
        <ele>410</ele>
        <time>2021-03-27T16:31:09Z</time>
      </trkpt>
      <trkpt lat="46.18475" lon="6.19185">
        <ele>410</ele>
        <time>2021-03-27T16:31:10Z</time>
      </trkpt>
      <trkpt lat="46.18476" lon="6.19188">
        <ele>409.8</ele>
        <time>2021-03-27T16:31:11Z</time>
      </trkpt>
      <trkpt lat="46.18478" lon="6.19192">
        <ele>410</ele>
        <time>2021-03-27T16:31:12Z</time>
      </trkpt>
      <trkpt lat="46.1848" lon="6.19198">
        <ele>410</ele>
        <time>2021-03-27T16:31:13Z</time>
      </trkpt>
      <trkpt lat="46.18483" lon="6.19205">
        <ele>410</ele>
        <time>2021-03-27T16:31:14Z</time>
      </trkpt>
      <trkpt lat="46.18485" lon="6.19213">
        <ele>410</ele>
        <time>2021-03-27T16:31:15Z</time>
      </trkpt>
      <trkpt lat="46.18488" lon="6.19221">
        <ele>410</ele>
        <time>2021-03-27T16:31:16Z</time>
      </trkpt>
      <trkpt lat="46.18491" lon="6.1923">
        <ele>409.8</ele>
        <time>2021-03-27T16:31:17Z</time>
      </trkpt>
      <trkpt lat="46.18495" lon="6.19239">
        <ele>410</ele>
        <time>2021-03-27T16:31:18Z</time>
      </trkpt>
      <trkpt lat="46.18498" lon="6.19247">
        <ele>409.8</ele>
        <time>2021-03-27T16:31:19Z</time>
      </trkpt>
      <trkpt lat="46.18501" lon="6.19256">
        <ele>409.4</ele>
        <time>2021-03-27T16:31:20Z</time>
      </trkpt>
      <trkpt lat="46.18503" lon="6.19265">
        <ele>409.2</ele>
        <time>2021-03-27T16:31:21Z</time>
      </trkpt>
      <trkpt lat="46.18507" lon="6.19273">
        <ele>408.8</ele>
        <time>2021-03-27T16:31:22Z</time>
      </trkpt>
      <trkpt lat="46.1851" lon="6.19282">
        <ele>408.4</ele>
        <time>2021-03-27T16:31:23Z</time>
      </trkpt>
      <trkpt lat="46.18513" lon="6.1929">
        <ele>408.2</ele>
        <time>2021-03-27T16:31:24Z</time>
      </trkpt>
      <trkpt lat="46.18516" lon="6.19299">
        <ele>408.2</ele>
        <time>2021-03-27T16:31:25Z</time>
      </trkpt>
      <trkpt lat="46.18519" lon="6.19307">
        <ele>408.2</ele>
        <time>2021-03-27T16:31:26Z</time>
      </trkpt>
      <trkpt lat="46.18522" lon="6.19316">
        <ele>408.2</ele>
        <time>2021-03-27T16:31:27Z</time>
      </trkpt>
      <trkpt lat="46.18525" lon="6.19325">
        <ele>408.2</ele>
        <time>2021-03-27T16:31:28Z</time>
      </trkpt>
      <trkpt lat="46.18529" lon="6.19334">
        <ele>408.2</ele>
        <time>2021-03-27T16:31:29Z</time>
      </trkpt>
      <trkpt lat="46.18532" lon="6.19343">
        <ele>408</ele>
        <time>2021-03-27T16:31:30Z</time>
      </trkpt>
      <trkpt lat="46.18535" lon="6.19352">
        <ele>408.2</ele>
        <time>2021-03-27T16:31:31Z</time>
      </trkpt>
      <trkpt lat="46.18539" lon="6.19361">
        <ele>408.2</ele>
        <time>2021-03-27T16:31:32Z</time>
      </trkpt>
      <trkpt lat="46.18542" lon="6.1937">
        <ele>408</ele>
        <time>2021-03-27T16:31:33Z</time>
      </trkpt>
      <trkpt lat="46.18546" lon="6.19379">
        <ele>408.2</ele>
        <time>2021-03-27T16:31:34Z</time>
      </trkpt>
      <trkpt lat="46.18549" lon="6.19388">
        <ele>408.4</ele>
        <time>2021-03-27T16:31:35Z</time>
      </trkpt>
      <trkpt lat="46.18552" lon="6.19397">
        <ele>408.6</ele>
        <time>2021-03-27T16:31:36Z</time>
      </trkpt>
      <trkpt lat="46.18556" lon="6.19406">
        <ele>408.8</ele>
        <time>2021-03-27T16:31:37Z</time>
      </trkpt>
      <trkpt lat="46.18559" lon="6.19415">
        <ele>408.8</ele>
        <time>2021-03-27T16:31:38Z</time>
      </trkpt>
      <trkpt lat="46.18563" lon="6.19424">
        <ele>408.8</ele>
        <time>2021-03-27T16:31:39Z</time>
      </trkpt>
      <trkpt lat="46.18566" lon="6.19433">
        <ele>409</ele>
        <time>2021-03-27T16:31:40Z</time>
      </trkpt>
      <trkpt lat="46.1857" lon="6.19442">
        <ele>409</ele>
        <time>2021-03-27T16:31:41Z</time>
      </trkpt>
      <trkpt lat="46.18574" lon="6.19452">
        <ele>409</ele>
        <time>2021-03-27T16:31:42Z</time>
      </trkpt>
      <trkpt lat="46.18577" lon="6.19461">
        <ele>409</ele>
        <time>2021-03-27T16:31:43Z</time>
      </trkpt>
      <trkpt lat="46.18581" lon="6.1947">
        <ele>409.2</ele>
        <time>2021-03-27T16:31:44Z</time>
      </trkpt>
      <trkpt lat="46.18585" lon="6.19479">
        <ele>409.4</ele>
        <time>2021-03-27T16:31:45Z</time>
      </trkpt>
      <trkpt lat="46.18588" lon="6.19488">
        <ele>409.2</ele>
        <time>2021-03-27T16:31:46Z</time>
      </trkpt>
      <trkpt lat="46.18592" lon="6.19497">
        <ele>409.4</ele>
        <time>2021-03-27T16:31:47Z</time>
      </trkpt>
      <trkpt lat="46.18596" lon="6.19507">
        <ele>409.4</ele>
        <time>2021-03-27T16:31:48Z</time>
      </trkpt>
      <trkpt lat="46.18599" lon="6.19516">
        <ele>409.4</ele>
        <time>2021-03-27T16:31:49Z</time>
      </trkpt>
      <trkpt lat="46.18603" lon="6.19526">
        <ele>409.4</ele>
        <time>2021-03-27T16:31:50Z</time>
      </trkpt>
      <trkpt lat="46.18606" lon="6.19535">
        <ele>409.6</ele>
        <time>2021-03-27T16:31:51Z</time>
      </trkpt>
      <trkpt lat="46.1861" lon="6.19545">
        <ele>409.6</ele>
        <time>2021-03-27T16:31:52Z</time>
      </trkpt>
      <trkpt lat="46.18614" lon="6.19554">
        <ele>409.6</ele>
        <time>2021-03-27T16:31:53Z</time>
      </trkpt>
      <trkpt lat="46.18617" lon="6.19563">
        <ele>409.6</ele>
        <time>2021-03-27T16:31:54Z</time>
      </trkpt>
      <trkpt lat="46.18621" lon="6.19573">
        <ele>409.6</ele>
        <time>2021-03-27T16:31:55Z</time>
      </trkpt>
      <trkpt lat="46.18625" lon="6.19582">
        <ele>409.8</ele>
        <time>2021-03-27T16:31:56Z</time>
      </trkpt>
      <trkpt lat="46.18628" lon="6.19591">
        <ele>410</ele>
        <time>2021-03-27T16:31:57Z</time>
      </trkpt>
      <trkpt lat="46.18631" lon="6.19601">
        <ele>410</ele>
        <time>2021-03-27T16:31:58Z</time>
      </trkpt>
      <trkpt lat="46.18635" lon="6.1961">
        <ele>409.8</ele>
        <time>2021-03-27T16:31:59Z</time>
      </trkpt>
      <trkpt lat="46.18638" lon="6.19619">
        <ele>410</ele>
        <time>2021-03-27T16:32:00Z</time>
      </trkpt>
      <trkpt lat="46.18641" lon="6.19628">
        <ele>410</ele>
        <time>2021-03-27T16:32:01Z</time>
      </trkpt>
      <trkpt lat="46.18643" lon="6.19636">
        <ele>410.2</ele>
        <time>2021-03-27T16:32:02Z</time>
      </trkpt>
      <trkpt lat="46.18645" lon="6.19645">
        <ele>410.2</ele>
        <time>2021-03-27T16:32:03Z</time>
      </trkpt>
      <trkpt lat="46.18646" lon="6.19654">
        <ele>410</ele>
        <time>2021-03-27T16:32:04Z</time>
      </trkpt>
      <trkpt lat="46.18647" lon="6.19663">
        <ele>410.2</ele>
        <time>2021-03-27T16:32:05Z</time>
      </trkpt>
      <trkpt lat="46.18649" lon="6.19671">
        <ele>410.4</ele>
        <time>2021-03-27T16:32:06Z</time>
      </trkpt>
      <trkpt lat="46.18654" lon="6.19677">
        <ele>410.4</ele>
        <time>2021-03-27T16:32:07Z</time>
      </trkpt>
      <trkpt lat="46.18659" lon="6.19683">
        <ele>410.6</ele>
        <time>2021-03-27T16:32:08Z</time>
      </trkpt>
      <trkpt lat="46.18663" lon="6.1969">
        <ele>410.6</ele>
        <time>2021-03-27T16:32:09Z</time>
      </trkpt>
      <trkpt lat="46.18668" lon="6.19697">
        <ele>410.8</ele>
        <time>2021-03-27T16:32:10Z</time>
      </trkpt>
      <trkpt lat="46.18672" lon="6.19705">
        <ele>410.8</ele>
        <time>2021-03-27T16:32:11Z</time>
      </trkpt>
      <trkpt lat="46.18676" lon="6.19713">
        <ele>411</ele>
        <time>2021-03-27T16:32:12Z</time>
      </trkpt>
      <trkpt lat="46.1868" lon="6.19721">
        <ele>411.2</ele>
        <time>2021-03-27T16:32:13Z</time>
      </trkpt>
      <trkpt lat="46.18684" lon="6.19729">
        <ele>411.2</ele>
        <time>2021-03-27T16:32:14Z</time>
      </trkpt>
      <trkpt lat="46.18689" lon="6.19737">
        <ele>411.4</ele>
        <time>2021-03-27T16:32:15Z</time>
      </trkpt>
      <trkpt lat="46.18694" lon="6.19743">
        <ele>411.4</ele>
        <time>2021-03-27T16:32:16Z</time>
      </trkpt>
      <trkpt lat="46.187" lon="6.1975">
        <ele>411.4</ele>
        <time>2021-03-27T16:32:17Z</time>
      </trkpt>
      <trkpt lat="46.18705" lon="6.19756">
        <ele>411.6</ele>
        <time>2021-03-27T16:32:18Z</time>
      </trkpt>
      <trkpt lat="46.18711" lon="6.19763">
        <ele>411.6</ele>
        <time>2021-03-27T16:32:19Z</time>
      </trkpt>
      <trkpt lat="46.18718" lon="6.19768">
        <ele>411.6</ele>
        <time>2021-03-27T16:32:20Z</time>
      </trkpt>
      <trkpt lat="46.18724" lon="6.19774">
        <ele>411.6</ele>
        <time>2021-03-27T16:32:21Z</time>
      </trkpt>
      <trkpt lat="46.1873" lon="6.19779">
        <ele>411.8</ele>
        <time>2021-03-27T16:32:22Z</time>
      </trkpt>
      <trkpt lat="46.18736" lon="6.19785">
        <ele>412</ele>
        <time>2021-03-27T16:32:23Z</time>
      </trkpt>
      <trkpt lat="46.18742" lon="6.1979">
        <ele>411.8</ele>
        <time>2021-03-27T16:32:24Z</time>
      </trkpt>
      <trkpt lat="46.18748" lon="6.19796">
        <ele>412</ele>
        <time>2021-03-27T16:32:25Z</time>
      </trkpt>
      <trkpt lat="46.18754" lon="6.19801">
        <ele>412.2</ele>
        <time>2021-03-27T16:32:26Z</time>
      </trkpt>
      <trkpt lat="46.18761" lon="6.19807">
        <ele>412.2</ele>
        <time>2021-03-27T16:32:27Z</time>
      </trkpt>
      <trkpt lat="46.18767" lon="6.19812">
        <ele>412.2</ele>
        <time>2021-03-27T16:32:28Z</time>
      </trkpt>
      <trkpt lat="46.18773" lon="6.19818">
        <ele>412.4</ele>
        <time>2021-03-27T16:32:29Z</time>
      </trkpt>
      <trkpt lat="46.1878" lon="6.19823">
        <ele>412.4</ele>
        <time>2021-03-27T16:32:30Z</time>
      </trkpt>
      <trkpt lat="46.18786" lon="6.19827">
        <ele>412.4</ele>
        <time>2021-03-27T16:32:31Z</time>
      </trkpt>
      <trkpt lat="46.18792" lon="6.19831">
        <ele>412.4</ele>
        <time>2021-03-27T16:32:32Z</time>
      </trkpt>
      <trkpt lat="46.18797" lon="6.19836">
        <ele>412.6</ele>
        <time>2021-03-27T16:32:33Z</time>
      </trkpt>
      <trkpt lat="46.18803" lon="6.1984">
        <ele>412.6</ele>
        <time>2021-03-27T16:32:34Z</time>
      </trkpt>
      <trkpt lat="46.18808" lon="6.19843">
        <ele>412.6</ele>
        <time>2021-03-27T16:32:35Z</time>
      </trkpt>
      <trkpt lat="46.18813" lon="6.19846">
        <ele>412.6</ele>
        <time>2021-03-27T16:32:36Z</time>
      </trkpt>
      <trkpt lat="46.18817" lon="6.19848">
        <ele>412.8</ele>
        <time>2021-03-27T16:32:37Z</time>
      </trkpt>
      <trkpt lat="46.18821" lon="6.19849">
        <ele>412.6</ele>
        <time>2021-03-27T16:32:38Z</time>
      </trkpt>
      <trkpt lat="46.18824" lon="6.1985">
        <ele>412.6</ele>
        <time>2021-03-27T16:32:39Z</time>
      </trkpt>
      <trkpt lat="46.18826" lon="6.19851">
        <ele>413</ele>
        <time>2021-03-27T16:32:40Z</time>
      </trkpt>
      <trkpt lat="46.18828" lon="6.19851">
        <ele>413.2</ele>
        <time>2021-03-27T16:32:41Z</time>
      </trkpt>
      <trkpt lat="46.1883" lon="6.19851">
        <ele>413.6</ele>
        <time>2021-03-27T16:32:42Z</time>
      </trkpt>
      <trkpt lat="46.18833" lon="6.19851">
        <ele>413.8</ele>
        <time>2021-03-27T16:32:43Z</time>
      </trkpt>
      <trkpt lat="46.18836" lon="6.19852">
        <ele>414</ele>
        <time>2021-03-27T16:32:44Z</time>
      </trkpt>
      <trkpt lat="46.18838" lon="6.19851">
        <ele>414.2</ele>
        <time>2021-03-27T16:32:45Z</time>
      </trkpt>
      <trkpt lat="46.18841" lon="6.19851">
        <ele>414.6</ele>
        <time>2021-03-27T16:32:46Z</time>
      </trkpt>
      <trkpt lat="46.18844" lon="6.1985">
        <ele>414.8</ele>
        <time>2021-03-27T16:32:47Z</time>
      </trkpt>
      <trkpt lat="46.18849" lon="6.19849">
        <ele>415</ele>
        <time>2021-03-27T16:32:48Z</time>
      </trkpt>
      <trkpt lat="46.18853" lon="6.19848">
        <ele>415.2</ele>
        <time>2021-03-27T16:32:49Z</time>
      </trkpt>
      <trkpt lat="46.18858" lon="6.19848">
        <ele>415.4</ele>
        <time>2021-03-27T16:32:50Z</time>
      </trkpt>
      <trkpt lat="46.18863" lon="6.19848">
        <ele>415.4</ele>
        <time>2021-03-27T16:32:51Z</time>
      </trkpt>
      <trkpt lat="46.18868" lon="6.19847">
        <ele>415.4</ele>
        <time>2021-03-27T16:32:52Z</time>
      </trkpt>
      <trkpt lat="46.18873" lon="6.19847">
        <ele>415.4</ele>
        <time>2021-03-27T16:32:53Z</time>
      </trkpt>
      <trkpt lat="46.18877" lon="6.19847">
        <ele>415.6</ele>
        <time>2021-03-27T16:32:54Z</time>
      </trkpt>
      <trkpt lat="46.18882" lon="6.19848">
        <ele>415.8</ele>
        <time>2021-03-27T16:32:55Z</time>
      </trkpt>
      <trkpt lat="46.18887" lon="6.19848">
        <ele>415.8</ele>
        <time>2021-03-27T16:32:56Z</time>
      </trkpt>
      <trkpt lat="46.18892" lon="6.19848">
        <ele>415.8</ele>
        <time>2021-03-27T16:32:57Z</time>
      </trkpt>
      <trkpt lat="46.18898" lon="6.19848">
        <ele>415.8</ele>
        <time>2021-03-27T16:32:58Z</time>
      </trkpt>
      <trkpt lat="46.18903" lon="6.19847">
        <ele>416</ele>
        <time>2021-03-27T16:32:59Z</time>
      </trkpt>
      <trkpt lat="46.18908" lon="6.19847">
        <ele>416.2</ele>
        <time>2021-03-27T16:33:00Z</time>
      </trkpt>
      <trkpt lat="46.18913" lon="6.19847">
        <ele>416.4</ele>
        <time>2021-03-27T16:33:01Z</time>
      </trkpt>
      <trkpt lat="46.18918" lon="6.19846">
        <ele>416.4</ele>
        <time>2021-03-27T16:33:02Z</time>
      </trkpt>
      <trkpt lat="46.18924" lon="6.19846">
        <ele>416.6</ele>
        <time>2021-03-27T16:33:03Z</time>
      </trkpt>
      <trkpt lat="46.18929" lon="6.19846">
        <ele>417</ele>
        <time>2021-03-27T16:33:04Z</time>
      </trkpt>
      <trkpt lat="46.18934" lon="6.19846">
        <ele>417</ele>
        <time>2021-03-27T16:33:05Z</time>
      </trkpt>
      <trkpt lat="46.18939" lon="6.19846">
        <ele>417.4</ele>
        <time>2021-03-27T16:33:06Z</time>
      </trkpt>
      <trkpt lat="46.18944" lon="6.19847">
        <ele>417.6</ele>
        <time>2021-03-27T16:33:07Z</time>
      </trkpt>
      <trkpt lat="46.1895" lon="6.19847">
        <ele>417.6</ele>
        <time>2021-03-27T16:33:08Z</time>
      </trkpt>
      <trkpt lat="46.18955" lon="6.19847">
        <ele>417.8</ele>
        <time>2021-03-27T16:33:09Z</time>
      </trkpt>
      <trkpt lat="46.18959" lon="6.19846">
        <ele>418.2</ele>
        <time>2021-03-27T16:33:10Z</time>
      </trkpt>
      <trkpt lat="46.18963" lon="6.19846">
        <ele>418.2</ele>
        <time>2021-03-27T16:33:11Z</time>
      </trkpt>
      <trkpt lat="46.18969" lon="6.19846">
        <ele>418.6</ele>
        <time>2021-03-27T16:33:12Z</time>
      </trkpt>
      <trkpt lat="46.18974" lon="6.19846">
        <ele>418.6</ele>
        <time>2021-03-27T16:33:13Z</time>
      </trkpt>
      <trkpt lat="46.1898" lon="6.19846">
        <ele>419</ele>
        <time>2021-03-27T16:33:14Z</time>
      </trkpt>
      <trkpt lat="46.18986" lon="6.19846">
        <ele>419.2</ele>
        <time>2021-03-27T16:33:15Z</time>
      </trkpt>
      <trkpt lat="46.18991" lon="6.19846">
        <ele>419.6</ele>
        <time>2021-03-27T16:33:16Z</time>
      </trkpt>
      <trkpt lat="46.18997" lon="6.19846">
        <ele>419.8</ele>
        <time>2021-03-27T16:33:17Z</time>
      </trkpt>
      <trkpt lat="46.19002" lon="6.19846">
        <ele>420</ele>
        <time>2021-03-27T16:33:18Z</time>
      </trkpt>
      <trkpt lat="46.19008" lon="6.19846">
        <ele>420.4</ele>
        <time>2021-03-27T16:33:19Z</time>
      </trkpt>
      <trkpt lat="46.19013" lon="6.19846">
        <ele>420.8</ele>
        <time>2021-03-27T16:33:20Z</time>
      </trkpt>
      <trkpt lat="46.19018" lon="6.19846">
        <ele>421</ele>
        <time>2021-03-27T16:33:21Z</time>
      </trkpt>
      <trkpt lat="46.19023" lon="6.19847">
        <ele>421.2</ele>
        <time>2021-03-27T16:33:22Z</time>
      </trkpt>
      <trkpt lat="46.19027" lon="6.19847">
        <ele>421.6</ele>
        <time>2021-03-27T16:33:23Z</time>
      </trkpt>
      <trkpt lat="46.19032" lon="6.19847">
        <ele>421.6</ele>
        <time>2021-03-27T16:33:24Z</time>
      </trkpt>
      <trkpt lat="46.19036" lon="6.19846">
        <ele>422</ele>
        <time>2021-03-27T16:33:25Z</time>
      </trkpt>
      <trkpt lat="46.19041" lon="6.19847">
        <ele>422.2</ele>
        <time>2021-03-27T16:33:26Z</time>
      </trkpt>
      <trkpt lat="46.19044" lon="6.1985">
        <ele>422.4</ele>
        <time>2021-03-27T16:33:27Z</time>
      </trkpt>
      <trkpt lat="46.19046" lon="6.19856">
        <ele>422.8</ele>
        <time>2021-03-27T16:33:28Z</time>
      </trkpt>
      <trkpt lat="46.19045" lon="6.19861">
        <ele>423.2</ele>
        <time>2021-03-27T16:33:29Z</time>
      </trkpt>
      <trkpt lat="46.19043" lon="6.19867">
        <ele>423.4</ele>
        <time>2021-03-27T16:33:30Z</time>
      </trkpt>
      <trkpt lat="46.19041" lon="6.19872">
        <ele>423.4</ele>
        <time>2021-03-27T16:33:31Z</time>
      </trkpt>
      <trkpt lat="46.19038" lon="6.19878">
        <ele>423.4</ele>
        <time>2021-03-27T16:33:32Z</time>
      </trkpt>
      <trkpt lat="46.19035" lon="6.19884">
        <ele>423.4</ele>
        <time>2021-03-27T16:33:33Z</time>
      </trkpt>
      <trkpt lat="46.19033" lon="6.19891">
        <ele>423.4</ele>
        <time>2021-03-27T16:33:34Z</time>
      </trkpt>
      <trkpt lat="46.1903" lon="6.19898">
        <ele>423.6</ele>
        <time>2021-03-27T16:33:35Z</time>
      </trkpt>
      <trkpt lat="46.19027" lon="6.19905">
        <ele>423.6</ele>
        <time>2021-03-27T16:33:36Z</time>
      </trkpt>
      <trkpt lat="46.19024" lon="6.19913">
        <ele>423.4</ele>
        <time>2021-03-27T16:33:37Z</time>
      </trkpt>
      <trkpt lat="46.1902" lon="6.19922">
        <ele>423.4</ele>
        <time>2021-03-27T16:33:38Z</time>
      </trkpt>
      <trkpt lat="46.19016" lon="6.19931">
        <ele>423.6</ele>
        <time>2021-03-27T16:33:39Z</time>
      </trkpt>
      <trkpt lat="46.19012" lon="6.19941">
        <ele>423.2</ele>
        <time>2021-03-27T16:33:40Z</time>
      </trkpt>
      <trkpt lat="46.19008" lon="6.19951">
        <ele>422.8</ele>
        <time>2021-03-27T16:33:41Z</time>
      </trkpt>
      <trkpt lat="46.19004" lon="6.1996">
        <ele>422.2</ele>
        <time>2021-03-27T16:33:42Z</time>
      </trkpt>
      <trkpt lat="46.18999" lon="6.1997">
        <ele>421.6</ele>
        <time>2021-03-27T16:33:43Z</time>
      </trkpt>
      <trkpt lat="46.18995" lon="6.1998">
        <ele>420.8</ele>
        <time>2021-03-27T16:33:44Z</time>
      </trkpt>
      <trkpt lat="46.1899" lon="6.1999">
        <ele>420.2</ele>
        <time>2021-03-27T16:33:45Z</time>
      </trkpt>
      <trkpt lat="46.18986" lon="6.20001">
        <ele>420</ele>
        <time>2021-03-27T16:33:46Z</time>
      </trkpt>
      <trkpt lat="46.18983" lon="6.20012">
        <ele>419</ele>
        <time>2021-03-27T16:33:47Z</time>
      </trkpt>
      <trkpt lat="46.18981" lon="6.20024">
        <ele>418.8</ele>
        <time>2021-03-27T16:33:48Z</time>
      </trkpt>
      <trkpt lat="46.1898" lon="6.20035">
        <ele>418.4</ele>
        <time>2021-03-27T16:33:49Z</time>
      </trkpt>
      <trkpt lat="46.18981" lon="6.20047">
        <ele>418</ele>
        <time>2021-03-27T16:33:50Z</time>
      </trkpt>
      <trkpt lat="46.18983" lon="6.20058">
        <ele>417.6</ele>
        <time>2021-03-27T16:33:51Z</time>
      </trkpt>
      <trkpt lat="46.18987" lon="6.20067">
        <ele>417.6</ele>
        <time>2021-03-27T16:33:52Z</time>
      </trkpt>
      <trkpt lat="46.1899" lon="6.20077">
        <ele>417.4</ele>
        <time>2021-03-27T16:33:53Z</time>
      </trkpt>
      <trkpt lat="46.18993" lon="6.20087">
        <ele>417.2</ele>
        <time>2021-03-27T16:33:54Z</time>
      </trkpt>
      <trkpt lat="46.18997" lon="6.20097">
        <ele>417.2</ele>
        <time>2021-03-27T16:33:55Z</time>
      </trkpt>
      <trkpt lat="46.19001" lon="6.20106">
        <ele>417</ele>
        <time>2021-03-27T16:33:56Z</time>
      </trkpt>
      <trkpt lat="46.19005" lon="6.20114">
        <ele>417.2</ele>
        <time>2021-03-27T16:33:57Z</time>
      </trkpt>
      <trkpt lat="46.19009" lon="6.20123">
        <ele>417.2</ele>
        <time>2021-03-27T16:33:58Z</time>
      </trkpt>
      <trkpt lat="46.19013" lon="6.20131">
        <ele>416.8</ele>
        <time>2021-03-27T16:33:59Z</time>
      </trkpt>
      <trkpt lat="46.19017" lon="6.20139">
        <ele>417</ele>
        <time>2021-03-27T16:34:00Z</time>
      </trkpt>
      <trkpt lat="46.19021" lon="6.20146">
        <ele>417</ele>
        <time>2021-03-27T16:34:01Z</time>
      </trkpt>
      <trkpt lat="46.19026" lon="6.20153">
        <ele>417</ele>
        <time>2021-03-27T16:34:02Z</time>
      </trkpt>
      <trkpt lat="46.1903" lon="6.20159">
        <ele>417</ele>
        <time>2021-03-27T16:34:03Z</time>
      </trkpt>
      <trkpt lat="46.19034" lon="6.20164">
        <ele>417.6</ele>
        <time>2021-03-27T16:34:04Z</time>
      </trkpt>
      <trkpt lat="46.19039" lon="6.20169">
        <ele>418</ele>
        <time>2021-03-27T16:34:05Z</time>
      </trkpt>
      <trkpt lat="46.19044" lon="6.20173">
        <ele>418.4</ele>
        <time>2021-03-27T16:34:06Z</time>
      </trkpt>
      <trkpt lat="46.19048" lon="6.20177">
        <ele>418.8</ele>
        <time>2021-03-27T16:34:07Z</time>
      </trkpt>
      <trkpt lat="46.19053" lon="6.2018">
        <ele>419.2</ele>
        <time>2021-03-27T16:34:08Z</time>
      </trkpt>
      <trkpt lat="46.19057" lon="6.20182">
        <ele>419.6</ele>
        <time>2021-03-27T16:34:09Z</time>
      </trkpt>
      <trkpt lat="46.19062" lon="6.20185">
        <ele>420.2</ele>
        <time>2021-03-27T16:34:10Z</time>
      </trkpt>
      <trkpt lat="46.19067" lon="6.20188">
        <ele>420.4</ele>
        <time>2021-03-27T16:34:11Z</time>
      </trkpt>
      <trkpt lat="46.19071" lon="6.2019">
        <ele>420.8</ele>
        <time>2021-03-27T16:34:12Z</time>
      </trkpt>
      <trkpt lat="46.19076" lon="6.20193">
        <ele>421.4</ele>
        <time>2021-03-27T16:34:13Z</time>
      </trkpt>
      <trkpt lat="46.19081" lon="6.20195">
        <ele>421.8</ele>
        <time>2021-03-27T16:34:14Z</time>
      </trkpt>
      <trkpt lat="46.19086" lon="6.20197">
        <ele>422</ele>
        <time>2021-03-27T16:34:15Z</time>
      </trkpt>
      <trkpt lat="46.19091" lon="6.20199">
        <ele>422.6</ele>
        <time>2021-03-27T16:34:16Z</time>
      </trkpt>
      <trkpt lat="46.19096" lon="6.20202">
        <ele>423.2</ele>
        <time>2021-03-27T16:34:17Z</time>
      </trkpt>
      <trkpt lat="46.19101" lon="6.20204">
        <ele>423.2</ele>
        <time>2021-03-27T16:34:18Z</time>
      </trkpt>
      <trkpt lat="46.19106" lon="6.20206">
        <ele>423.4</ele>
        <time>2021-03-27T16:34:19Z</time>
      </trkpt>
      <trkpt lat="46.19111" lon="6.20208">
        <ele>423.8</ele>
        <time>2021-03-27T16:34:20Z</time>
      </trkpt>
      <trkpt lat="46.19117" lon="6.2021">
        <ele>424</ele>
        <time>2021-03-27T16:34:21Z</time>
      </trkpt>
      <trkpt lat="46.19122" lon="6.20212">
        <ele>424.2</ele>
        <time>2021-03-27T16:34:22Z</time>
      </trkpt>
      <trkpt lat="46.19126" lon="6.20214">
        <ele>424.4</ele>
        <time>2021-03-27T16:34:23Z</time>
      </trkpt>
      <trkpt lat="46.19132" lon="6.20216">
        <ele>425</ele>
        <time>2021-03-27T16:34:24Z</time>
      </trkpt>
      <trkpt lat="46.19136" lon="6.20217">
        <ele>425.2</ele>
        <time>2021-03-27T16:34:25Z</time>
      </trkpt>
      <trkpt lat="46.19141" lon="6.20219">
        <ele>425.4</ele>
        <time>2021-03-27T16:34:26Z</time>
      </trkpt>
      <trkpt lat="46.19146" lon="6.20221">
        <ele>425.4</ele>
        <time>2021-03-27T16:34:27Z</time>
      </trkpt>
      <trkpt lat="46.19151" lon="6.20222">
        <ele>426</ele>
        <time>2021-03-27T16:34:28Z</time>
      </trkpt>
      <trkpt lat="46.19156" lon="6.20224">
        <ele>426</ele>
        <time>2021-03-27T16:34:29Z</time>
      </trkpt>
      <trkpt lat="46.19161" lon="6.20225">
        <ele>426.2</ele>
        <time>2021-03-27T16:34:30Z</time>
      </trkpt>
      <trkpt lat="46.19167" lon="6.20227">
        <ele>426.6</ele>
        <time>2021-03-27T16:34:31Z</time>
      </trkpt>
      <trkpt lat="46.19173" lon="6.20229">
        <ele>426.8</ele>
        <time>2021-03-27T16:34:32Z</time>
      </trkpt>
      <trkpt lat="46.19178" lon="6.20231">
        <ele>427</ele>
        <time>2021-03-27T16:34:33Z</time>
      </trkpt>
      <trkpt lat="46.19184" lon="6.20233">
        <ele>427</ele>
        <time>2021-03-27T16:34:34Z</time>
      </trkpt>
      <trkpt lat="46.1919" lon="6.20236">
        <ele>427</ele>
        <time>2021-03-27T16:34:35Z</time>
      </trkpt>
      <trkpt lat="46.19196" lon="6.20238">
        <ele>427.2</ele>
        <time>2021-03-27T16:34:36Z</time>
      </trkpt>
      <trkpt lat="46.19202" lon="6.20241">
        <ele>427.2</ele>
        <time>2021-03-27T16:34:37Z</time>
      </trkpt>
      <trkpt lat="46.19207" lon="6.20244">
        <ele>427.2</ele>
        <time>2021-03-27T16:34:38Z</time>
      </trkpt>
      <trkpt lat="46.19213" lon="6.20246">
        <ele>427.2</ele>
        <time>2021-03-27T16:34:39Z</time>
      </trkpt>
      <trkpt lat="46.19218" lon="6.20249">
        <ele>427.2</ele>
        <time>2021-03-27T16:34:40Z</time>
      </trkpt>
      <trkpt lat="46.19224" lon="6.20251">
        <ele>427.2</ele>
        <time>2021-03-27T16:34:41Z</time>
      </trkpt>
      <trkpt lat="46.19228" lon="6.20254">
        <ele>427.4</ele>
        <time>2021-03-27T16:34:42Z</time>
      </trkpt>
      <trkpt lat="46.19233" lon="6.20257">
        <ele>427.4</ele>
        <time>2021-03-27T16:34:43Z</time>
      </trkpt>
      <trkpt lat="46.19238" lon="6.20259">
        <ele>427.4</ele>
        <time>2021-03-27T16:34:44Z</time>
      </trkpt>
      <trkpt lat="46.19242" lon="6.20261">
        <ele>427.4</ele>
        <time>2021-03-27T16:34:45Z</time>
      </trkpt>
      <trkpt lat="46.19246" lon="6.20264">
        <ele>427.4</ele>
        <time>2021-03-27T16:34:46Z</time>
      </trkpt>
      <trkpt lat="46.1925" lon="6.20266">
        <ele>427.6</ele>
        <time>2021-03-27T16:34:47Z</time>
      </trkpt>
      <trkpt lat="46.19255" lon="6.20268">
        <ele>427.6</ele>
        <time>2021-03-27T16:34:48Z</time>
      </trkpt>
      <trkpt lat="46.19259" lon="6.2027">
        <ele>427.4</ele>
        <time>2021-03-27T16:34:49Z</time>
      </trkpt>
      <trkpt lat="46.19264" lon="6.20272">
        <ele>427.6</ele>
        <time>2021-03-27T16:34:50Z</time>
      </trkpt>
      <trkpt lat="46.19269" lon="6.20275">
        <ele>427.4</ele>
        <time>2021-03-27T16:34:51Z</time>
      </trkpt>
      <trkpt lat="46.19274" lon="6.20279">
        <ele>427.6</ele>
        <time>2021-03-27T16:34:52Z</time>
      </trkpt>
      <trkpt lat="46.19279" lon="6.20283">
        <ele>427.6</ele>
        <time>2021-03-27T16:34:53Z</time>
      </trkpt>
      <trkpt lat="46.19283" lon="6.20288">
        <ele>427.6</ele>
        <time>2021-03-27T16:34:54Z</time>
      </trkpt>
      <trkpt lat="46.19288" lon="6.20293">
        <ele>427.6</ele>
        <time>2021-03-27T16:34:55Z</time>
      </trkpt>
      <trkpt lat="46.19293" lon="6.20298">
        <ele>427.6</ele>
        <time>2021-03-27T16:34:56Z</time>
      </trkpt>
      <trkpt lat="46.19297" lon="6.20303">
        <ele>427.8</ele>
        <time>2021-03-27T16:34:57Z</time>
      </trkpt>
      <trkpt lat="46.19302" lon="6.20308">
        <ele>427.8</ele>
        <time>2021-03-27T16:34:58Z</time>
      </trkpt>
      <trkpt lat="46.19307" lon="6.20312">
        <ele>427.8</ele>
        <time>2021-03-27T16:34:59Z</time>
      </trkpt>
      <trkpt lat="46.19312" lon="6.20317">
        <ele>427.8</ele>
        <time>2021-03-27T16:35:00Z</time>
      </trkpt>
      <trkpt lat="46.19317" lon="6.20322">
        <ele>427.8</ele>
        <time>2021-03-27T16:35:01Z</time>
      </trkpt>
      <trkpt lat="46.19323" lon="6.20327">
        <ele>427.8</ele>
        <time>2021-03-27T16:35:02Z</time>
      </trkpt>
      <trkpt lat="46.19328" lon="6.20332">
        <ele>427.8</ele>
        <time>2021-03-27T16:35:03Z</time>
      </trkpt>
      <trkpt lat="46.19333" lon="6.20336">
        <ele>427.8</ele>
        <time>2021-03-27T16:35:04Z</time>
      </trkpt>
      <trkpt lat="46.19339" lon="6.2034">
        <ele>427.6</ele>
        <time>2021-03-27T16:35:05Z</time>
      </trkpt>
      <trkpt lat="46.19345" lon="6.20345">
        <ele>427.8</ele>
        <time>2021-03-27T16:35:06Z</time>
      </trkpt>
      <trkpt lat="46.1935" lon="6.2035">
        <ele>427.8</ele>
        <time>2021-03-27T16:35:07Z</time>
      </trkpt>
      <trkpt lat="46.19356" lon="6.20355">
        <ele>427.8</ele>
        <time>2021-03-27T16:35:08Z</time>
      </trkpt>
      <trkpt lat="46.19361" lon="6.2036">
        <ele>427.8</ele>
        <time>2021-03-27T16:35:09Z</time>
      </trkpt>
      <trkpt lat="46.19367" lon="6.20366">
        <ele>427.8</ele>
        <time>2021-03-27T16:35:10Z</time>
      </trkpt>
      <trkpt lat="46.19372" lon="6.20372">
        <ele>427.8</ele>
        <time>2021-03-27T16:35:11Z</time>
      </trkpt>
      <trkpt lat="46.19377" lon="6.20378">
        <ele>427.8</ele>
        <time>2021-03-27T16:35:12Z</time>
      </trkpt>
      <trkpt lat="46.19382" lon="6.20384">
        <ele>427.8</ele>
        <time>2021-03-27T16:35:13Z</time>
      </trkpt>
      <trkpt lat="46.19388" lon="6.2039">
        <ele>427.8</ele>
        <time>2021-03-27T16:35:14Z</time>
      </trkpt>
      <trkpt lat="46.19393" lon="6.20396">
        <ele>427.8</ele>
        <time>2021-03-27T16:35:15Z</time>
      </trkpt>
      <trkpt lat="46.19399" lon="6.20402">
        <ele>427.8</ele>
        <time>2021-03-27T16:35:16Z</time>
      </trkpt>
      <trkpt lat="46.19405" lon="6.20408">
        <ele>427.8</ele>
        <time>2021-03-27T16:35:17Z</time>
      </trkpt>
      <trkpt lat="46.1941" lon="6.20413">
        <ele>428</ele>
        <time>2021-03-27T16:35:18Z</time>
      </trkpt>
      <trkpt lat="46.19416" lon="6.20419">
        <ele>428</ele>
        <time>2021-03-27T16:35:19Z</time>
      </trkpt>
      <trkpt lat="46.19421" lon="6.20425">
        <ele>427.8</ele>
        <time>2021-03-27T16:35:20Z</time>
      </trkpt>
      <trkpt lat="46.19427" lon="6.20431">
        <ele>428</ele>
        <time>2021-03-27T16:35:21Z</time>
      </trkpt>
      <trkpt lat="46.19433" lon="6.20437">
        <ele>428</ele>
        <time>2021-03-27T16:35:22Z</time>
      </trkpt>
      <trkpt lat="46.19439" lon="6.20443">
        <ele>428</ele>
        <time>2021-03-27T16:35:23Z</time>
      </trkpt>
      <trkpt lat="46.19445" lon="6.20449">
        <ele>428</ele>
        <time>2021-03-27T16:35:24Z</time>
      </trkpt>
      <trkpt lat="46.19451" lon="6.20454">
        <ele>428</ele>
        <time>2021-03-27T16:35:25Z</time>
      </trkpt>
      <trkpt lat="46.19456" lon="6.2046">
        <ele>428</ele>
        <time>2021-03-27T16:35:26Z</time>
      </trkpt>
      <trkpt lat="46.19462" lon="6.20466">
        <ele>428.2</ele>
        <time>2021-03-27T16:35:27Z</time>
      </trkpt>
      <trkpt lat="46.19468" lon="6.20472">
        <ele>428</ele>
        <time>2021-03-27T16:35:28Z</time>
      </trkpt>
      <trkpt lat="46.19474" lon="6.20479">
        <ele>428</ele>
        <time>2021-03-27T16:35:29Z</time>
      </trkpt>
      <trkpt lat="46.1948" lon="6.20485">
        <ele>428</ele>
        <time>2021-03-27T16:35:30Z</time>
      </trkpt>
      <trkpt lat="46.19486" lon="6.20491">
        <ele>428</ele>
        <time>2021-03-27T16:35:31Z</time>
      </trkpt>
      <trkpt lat="46.19492" lon="6.20496">
        <ele>428</ele>
        <time>2021-03-27T16:35:32Z</time>
      </trkpt>
      <trkpt lat="46.19498" lon="6.20502">
        <ele>428.2</ele>
        <time>2021-03-27T16:35:33Z</time>
      </trkpt>
      <trkpt lat="46.19504" lon="6.20508">
        <ele>428.2</ele>
        <time>2021-03-27T16:35:34Z</time>
      </trkpt>
      <trkpt lat="46.1951" lon="6.20514">
        <ele>428</ele>
        <time>2021-03-27T16:35:35Z</time>
      </trkpt>
      <trkpt lat="46.19516" lon="6.2052">
        <ele>428</ele>
        <time>2021-03-27T16:35:36Z</time>
      </trkpt>
      <trkpt lat="46.19522" lon="6.20526">
        <ele>428.4</ele>
        <time>2021-03-27T16:35:37Z</time>
      </trkpt>
      <trkpt lat="46.19528" lon="6.20532">
        <ele>428.2</ele>
        <time>2021-03-27T16:35:38Z</time>
      </trkpt>
      <trkpt lat="46.19534" lon="6.20538">
        <ele>428.2</ele>
        <time>2021-03-27T16:35:39Z</time>
      </trkpt>
      <trkpt lat="46.19539" lon="6.20544">
        <ele>428.4</ele>
        <time>2021-03-27T16:35:40Z</time>
      </trkpt>
      <trkpt lat="46.19545" lon="6.2055">
        <ele>428.4</ele>
        <time>2021-03-27T16:35:41Z</time>
      </trkpt>
      <trkpt lat="46.19551" lon="6.20556">
        <ele>428.4</ele>
        <time>2021-03-27T16:35:42Z</time>
      </trkpt>
      <trkpt lat="46.19557" lon="6.20563">
        <ele>428.4</ele>
        <time>2021-03-27T16:35:43Z</time>
      </trkpt>
      <trkpt lat="46.19564" lon="6.2057">
        <ele>428.4</ele>
        <time>2021-03-27T16:35:44Z</time>
      </trkpt>
      <trkpt lat="46.1957" lon="6.20577">
        <ele>428.4</ele>
        <time>2021-03-27T16:35:45Z</time>
      </trkpt>
      <trkpt lat="46.19576" lon="6.20584">
        <ele>428.4</ele>
        <time>2021-03-27T16:35:46Z</time>
      </trkpt>
      <trkpt lat="46.19582" lon="6.2059">
        <ele>428.4</ele>
        <time>2021-03-27T16:35:47Z</time>
      </trkpt>
      <trkpt lat="46.19588" lon="6.20597">
        <ele>428.4</ele>
        <time>2021-03-27T16:35:48Z</time>
      </trkpt>
      <trkpt lat="46.19594" lon="6.20604">
        <ele>428.4</ele>
        <time>2021-03-27T16:35:49Z</time>
      </trkpt>
      <trkpt lat="46.196" lon="6.2061">
        <ele>428.4</ele>
        <time>2021-03-27T16:35:50Z</time>
      </trkpt>
      <trkpt lat="46.19606" lon="6.20617">
        <ele>428.6</ele>
        <time>2021-03-27T16:35:51Z</time>
      </trkpt>
      <trkpt lat="46.19611" lon="6.20623">
        <ele>428.6</ele>
        <time>2021-03-27T16:35:52Z</time>
      </trkpt>
      <trkpt lat="46.19617" lon="6.20631">
        <ele>428.6</ele>
        <time>2021-03-27T16:35:53Z</time>
      </trkpt>
      <trkpt lat="46.19622" lon="6.20638">
        <ele>428.8</ele>
        <time>2021-03-27T16:35:54Z</time>
      </trkpt>
      <trkpt lat="46.19627" lon="6.20645">
        <ele>428.6</ele>
        <time>2021-03-27T16:35:55Z</time>
      </trkpt>
      <trkpt lat="46.19632" lon="6.20652">
        <ele>428.8</ele>
        <time>2021-03-27T16:35:56Z</time>
      </trkpt>
      <trkpt lat="46.19636" lon="6.20659">
        <ele>428.8</ele>
        <time>2021-03-27T16:35:57Z</time>
      </trkpt>
      <trkpt lat="46.19641" lon="6.20666">
        <ele>428.8</ele>
        <time>2021-03-27T16:35:58Z</time>
      </trkpt>
      <trkpt lat="46.19645" lon="6.20673">
        <ele>429.2</ele>
        <time>2021-03-27T16:35:59Z</time>
      </trkpt>
      <trkpt lat="46.19649" lon="6.20681">
        <ele>429.2</ele>
        <time>2021-03-27T16:36:00Z</time>
      </trkpt>
      <trkpt lat="46.19653" lon="6.20689">
        <ele>429.2</ele>
        <time>2021-03-27T16:36:01Z</time>
      </trkpt>
      <trkpt lat="46.19656" lon="6.20698">
        <ele>429.2</ele>
        <time>2021-03-27T16:36:02Z</time>
      </trkpt>
      <trkpt lat="46.1966" lon="6.20707">
        <ele>429.4</ele>
        <time>2021-03-27T16:36:03Z</time>
      </trkpt>
      <trkpt lat="46.19664" lon="6.20716">
        <ele>429.4</ele>
        <time>2021-03-27T16:36:04Z</time>
      </trkpt>
      <trkpt lat="46.19668" lon="6.20726">
        <ele>429.4</ele>
        <time>2021-03-27T16:36:05Z</time>
      </trkpt>
      <trkpt lat="46.19673" lon="6.20735">
        <ele>429.2</ele>
        <time>2021-03-27T16:36:06Z</time>
      </trkpt>
      <trkpt lat="46.19678" lon="6.20744">
        <ele>429.4</ele>
        <time>2021-03-27T16:36:07Z</time>
      </trkpt>
      <trkpt lat="46.19682" lon="6.20754">
        <ele>429.4</ele>
        <time>2021-03-27T16:36:08Z</time>
      </trkpt>
      <trkpt lat="46.19686" lon="6.20763">
        <ele>429.2</ele>
        <time>2021-03-27T16:36:09Z</time>
      </trkpt>
      <trkpt lat="46.1969" lon="6.20773">
        <ele>429.4</ele>
        <time>2021-03-27T16:36:10Z</time>
      </trkpt>
      <trkpt lat="46.19694" lon="6.20783">
        <ele>429.4</ele>
        <time>2021-03-27T16:36:11Z</time>
      </trkpt>
      <trkpt lat="46.19698" lon="6.20793">
        <ele>429.4</ele>
        <time>2021-03-27T16:36:12Z</time>
      </trkpt>
      <trkpt lat="46.19701" lon="6.20803">
        <ele>429</ele>
        <time>2021-03-27T16:36:13Z</time>
      </trkpt>
      <trkpt lat="46.19704" lon="6.20813">
        <ele>429</ele>
        <time>2021-03-27T16:36:14Z</time>
      </trkpt>
      <trkpt lat="46.19708" lon="6.20823">
        <ele>429.2</ele>
        <time>2021-03-27T16:36:15Z</time>
      </trkpt>
      <trkpt lat="46.19711" lon="6.20834">
        <ele>429</ele>
        <time>2021-03-27T16:36:16Z</time>
      </trkpt>
      <trkpt lat="46.19715" lon="6.20844">
        <ele>428.8</ele>
        <time>2021-03-27T16:36:17Z</time>
      </trkpt>
      <trkpt lat="46.19718" lon="6.20855">
        <ele>428.8</ele>
        <time>2021-03-27T16:36:18Z</time>
      </trkpt>
      <trkpt lat="46.19722" lon="6.20865">
        <ele>429</ele>
        <time>2021-03-27T16:36:19Z</time>
      </trkpt>
      <trkpt lat="46.19725" lon="6.20876">
        <ele>429</ele>
        <time>2021-03-27T16:36:20Z</time>
      </trkpt>
      <trkpt lat="46.19728" lon="6.20887">
        <ele>428.8</ele>
        <time>2021-03-27T16:36:21Z</time>
      </trkpt>
      <trkpt lat="46.19732" lon="6.20898">
        <ele>428.8</ele>
        <time>2021-03-27T16:36:22Z</time>
      </trkpt>
      <trkpt lat="46.19735" lon="6.20908">
        <ele>429</ele>
        <time>2021-03-27T16:36:23Z</time>
      </trkpt>
      <trkpt lat="46.19739" lon="6.20919">
        <ele>428.8</ele>
        <time>2021-03-27T16:36:24Z</time>
      </trkpt>
      <trkpt lat="46.19742" lon="6.2093">
        <ele>428.8</ele>
        <time>2021-03-27T16:36:25Z</time>
      </trkpt>
      <trkpt lat="46.19746" lon="6.20941">
        <ele>428.8</ele>
        <time>2021-03-27T16:36:26Z</time>
      </trkpt>
      <trkpt lat="46.19749" lon="6.20952">
        <ele>428.8</ele>
        <time>2021-03-27T16:36:27Z</time>
      </trkpt>
      <trkpt lat="46.19752" lon="6.20962">
        <ele>428.8</ele>
        <time>2021-03-27T16:36:28Z</time>
      </trkpt>
      <trkpt lat="46.19756" lon="6.20973">
        <ele>428.8</ele>
        <time>2021-03-27T16:36:29Z</time>
      </trkpt>
      <trkpt lat="46.19759" lon="6.20983">
        <ele>429</ele>
        <time>2021-03-27T16:36:30Z</time>
      </trkpt>
      <trkpt lat="46.19763" lon="6.20994">
        <ele>429</ele>
        <time>2021-03-27T16:36:31Z</time>
      </trkpt>
      <trkpt lat="46.19767" lon="6.21006">
        <ele>429</ele>
        <time>2021-03-27T16:36:32Z</time>
      </trkpt>
      <trkpt lat="46.1977" lon="6.21017">
        <ele>429</ele>
        <time>2021-03-27T16:36:33Z</time>
      </trkpt>
      <trkpt lat="46.19774" lon="6.21028">
        <ele>429</ele>
        <time>2021-03-27T16:36:34Z</time>
      </trkpt>
      <trkpt lat="46.19777" lon="6.21039">
        <ele>429</ele>
        <time>2021-03-27T16:36:35Z</time>
      </trkpt>
      <trkpt lat="46.19781" lon="6.2105">
        <ele>429</ele>
        <time>2021-03-27T16:36:36Z</time>
      </trkpt>
      <trkpt lat="46.19784" lon="6.21062">
        <ele>429</ele>
        <time>2021-03-27T16:36:37Z</time>
      </trkpt>
      <trkpt lat="46.19788" lon="6.21073">
        <ele>429.2</ele>
        <time>2021-03-27T16:36:38Z</time>
      </trkpt>
      <trkpt lat="46.19792" lon="6.21084">
        <ele>429.2</ele>
        <time>2021-03-27T16:36:39Z</time>
      </trkpt>
      <trkpt lat="46.19795" lon="6.21094">
        <ele>429.4</ele>
        <time>2021-03-27T16:36:40Z</time>
      </trkpt>
      <trkpt lat="46.19798" lon="6.21105">
        <ele>429.4</ele>
        <time>2021-03-27T16:36:41Z</time>
      </trkpt>
      <trkpt lat="46.19802" lon="6.21116">
        <ele>429.6</ele>
        <time>2021-03-27T16:36:42Z</time>
      </trkpt>
      <trkpt lat="46.19805" lon="6.21126">
        <ele>429.4</ele>
        <time>2021-03-27T16:36:43Z</time>
      </trkpt>
      <trkpt lat="46.19808" lon="6.21136">
        <ele>429.4</ele>
        <time>2021-03-27T16:36:44Z</time>
      </trkpt>
      <trkpt lat="46.19811" lon="6.21146">
        <ele>429.4</ele>
        <time>2021-03-27T16:36:45Z</time>
      </trkpt>
      <trkpt lat="46.19814" lon="6.21155">
        <ele>429.8</ele>
        <time>2021-03-27T16:36:46Z</time>
      </trkpt>
      <trkpt lat="46.19818" lon="6.21163">
        <ele>429.8</ele>
        <time>2021-03-27T16:36:47Z</time>
      </trkpt>
      <trkpt lat="46.19822" lon="6.21171">
        <ele>429.8</ele>
        <time>2021-03-27T16:36:48Z</time>
      </trkpt>
      <trkpt lat="46.19826" lon="6.21178">
        <ele>429.8</ele>
        <time>2021-03-27T16:36:49Z</time>
      </trkpt>
      <trkpt lat="46.1983" lon="6.21186">
        <ele>430</ele>
        <time>2021-03-27T16:36:50Z</time>
      </trkpt>
      <trkpt lat="46.19834" lon="6.21193">
        <ele>430</ele>
        <time>2021-03-27T16:36:51Z</time>
      </trkpt>
      <trkpt lat="46.19838" lon="6.212">
        <ele>430.2</ele>
        <time>2021-03-27T16:36:52Z</time>
      </trkpt>
      <trkpt lat="46.19842" lon="6.21208">
        <ele>430.4</ele>
        <time>2021-03-27T16:36:53Z</time>
      </trkpt>
      <trkpt lat="46.19846" lon="6.21216">
        <ele>430.4</ele>
        <time>2021-03-27T16:36:54Z</time>
      </trkpt>
      <trkpt lat="46.1985" lon="6.21224">
        <ele>430.6</ele>
        <time>2021-03-27T16:36:55Z</time>
      </trkpt>
      <trkpt lat="46.19855" lon="6.21231">
        <ele>430.8</ele>
        <time>2021-03-27T16:36:56Z</time>
      </trkpt>
      <trkpt lat="46.1986" lon="6.21238">
        <ele>430.8</ele>
        <time>2021-03-27T16:36:57Z</time>
      </trkpt>
      <trkpt lat="46.19865" lon="6.21245">
        <ele>431</ele>
        <time>2021-03-27T16:36:58Z</time>
      </trkpt>
      <trkpt lat="46.19869" lon="6.21253">
        <ele>431</ele>
        <time>2021-03-27T16:36:59Z</time>
      </trkpt>
      <trkpt lat="46.19875" lon="6.21261">
        <ele>431</ele>
        <time>2021-03-27T16:37:00Z</time>
      </trkpt>
      <trkpt lat="46.1988" lon="6.21269">
        <ele>431</ele>
        <time>2021-03-27T16:37:01Z</time>
      </trkpt>
      <trkpt lat="46.19885" lon="6.21278">
        <ele>431.2</ele>
        <time>2021-03-27T16:37:02Z</time>
      </trkpt>
      <trkpt lat="46.1989" lon="6.21286">
        <ele>431.2</ele>
        <time>2021-03-27T16:37:03Z</time>
      </trkpt>
      <trkpt lat="46.19895" lon="6.21295">
        <ele>431.2</ele>
        <time>2021-03-27T16:37:04Z</time>
      </trkpt>
      <trkpt lat="46.199" lon="6.21304">
        <ele>431.2</ele>
        <time>2021-03-27T16:37:05Z</time>
      </trkpt>
      <trkpt lat="46.19905" lon="6.21312">
        <ele>431.2</ele>
        <time>2021-03-27T16:37:06Z</time>
      </trkpt>
      <trkpt lat="46.1991" lon="6.21321">
        <ele>431.2</ele>
        <time>2021-03-27T16:37:07Z</time>
      </trkpt>
      <trkpt lat="46.19916" lon="6.21329">
        <ele>431.4</ele>
        <time>2021-03-27T16:37:08Z</time>
      </trkpt>
      <trkpt lat="46.19921" lon="6.21338">
        <ele>431.2</ele>
        <time>2021-03-27T16:37:09Z</time>
      </trkpt>
      <trkpt lat="46.19926" lon="6.21346">
        <ele>431.4</ele>
        <time>2021-03-27T16:37:10Z</time>
      </trkpt>
      <trkpt lat="46.19932" lon="6.21354">
        <ele>431.2</ele>
        <time>2021-03-27T16:37:11Z</time>
      </trkpt>
      <trkpt lat="46.19937" lon="6.21362">
        <ele>431.4</ele>
        <time>2021-03-27T16:37:12Z</time>
      </trkpt>
      <trkpt lat="46.19942" lon="6.2137">
        <ele>431.2</ele>
        <time>2021-03-27T16:37:13Z</time>
      </trkpt>
      <trkpt lat="46.19947" lon="6.21378">
        <ele>431.2</ele>
        <time>2021-03-27T16:37:14Z</time>
      </trkpt>
      <trkpt lat="46.19952" lon="6.21385">
        <ele>431.2</ele>
        <time>2021-03-27T16:37:15Z</time>
      </trkpt>
      <trkpt lat="46.19957" lon="6.21392">
        <ele>431.4</ele>
        <time>2021-03-27T16:37:16Z</time>
      </trkpt>
      <trkpt lat="46.19961" lon="6.21399">
        <ele>431.6</ele>
        <time>2021-03-27T16:37:17Z</time>
      </trkpt>
      <trkpt lat="46.19965" lon="6.21406">
        <ele>431.6</ele>
        <time>2021-03-27T16:37:18Z</time>
      </trkpt>
      <trkpt lat="46.1997" lon="6.21414">
        <ele>431.8</ele>
        <time>2021-03-27T16:37:19Z</time>
      </trkpt>
      <trkpt lat="46.19975" lon="6.2142">
        <ele>431.8</ele>
        <time>2021-03-27T16:37:20Z</time>
      </trkpt>
      <trkpt lat="46.19979" lon="6.21427">
        <ele>432</ele>
        <time>2021-03-27T16:37:21Z</time>
      </trkpt>
      <trkpt lat="46.19984" lon="6.21434">
        <ele>432</ele>
        <time>2021-03-27T16:37:22Z</time>
      </trkpt>
      <trkpt lat="46.19989" lon="6.21441">
        <ele>432.2</ele>
        <time>2021-03-27T16:37:23Z</time>
      </trkpt>
      <trkpt lat="46.19994" lon="6.21448">
        <ele>432.2</ele>
        <time>2021-03-27T16:37:24Z</time>
      </trkpt>
      <trkpt lat="46.19999" lon="6.21455">
        <ele>432.2</ele>
        <time>2021-03-27T16:37:25Z</time>
      </trkpt>
      <trkpt lat="46.20004" lon="6.21462">
        <ele>432.4</ele>
        <time>2021-03-27T16:37:26Z</time>
      </trkpt>
      <trkpt lat="46.2001" lon="6.2147">
        <ele>432.4</ele>
        <time>2021-03-27T16:37:27Z</time>
      </trkpt>
      <trkpt lat="46.20015" lon="6.21478">
        <ele>432.2</ele>
        <time>2021-03-27T16:37:28Z</time>
      </trkpt>
      <trkpt lat="46.2002" lon="6.21486">
        <ele>432.4</ele>
        <time>2021-03-27T16:37:29Z</time>
      </trkpt>
      <trkpt lat="46.20025" lon="6.21493">
        <ele>432.4</ele>
        <time>2021-03-27T16:37:30Z</time>
      </trkpt>
      <trkpt lat="46.2003" lon="6.21501">
        <ele>432.4</ele>
        <time>2021-03-27T16:37:31Z</time>
      </trkpt>
      <trkpt lat="46.20034" lon="6.21509">
        <ele>432.4</ele>
        <time>2021-03-27T16:37:32Z</time>
      </trkpt>
      <trkpt lat="46.20039" lon="6.21517">
        <ele>432.4</ele>
        <time>2021-03-27T16:37:33Z</time>
      </trkpt>
      <trkpt lat="46.20043" lon="6.21524">
        <ele>432.4</ele>
        <time>2021-03-27T16:37:34Z</time>
      </trkpt>
      <trkpt lat="46.20047" lon="6.21531">
        <ele>432.6</ele>
        <time>2021-03-27T16:37:35Z</time>
      </trkpt>
      <trkpt lat="46.20051" lon="6.21537">
        <ele>432.6</ele>
        <time>2021-03-27T16:37:36Z</time>
      </trkpt>
      <trkpt lat="46.20055" lon="6.21543">
        <ele>432.6</ele>
        <time>2021-03-27T16:37:37Z</time>
      </trkpt>
      <trkpt lat="46.20059" lon="6.21549">
        <ele>432.6</ele>
        <time>2021-03-27T16:37:38Z</time>
      </trkpt>
      <trkpt lat="46.20063" lon="6.21556">
        <ele>432.6</ele>
        <time>2021-03-27T16:37:39Z</time>
      </trkpt>
      <trkpt lat="46.20067" lon="6.21562">
        <ele>432.6</ele>
        <time>2021-03-27T16:37:40Z</time>
      </trkpt>
      <trkpt lat="46.20071" lon="6.21569">
        <ele>432.6</ele>
        <time>2021-03-27T16:37:41Z</time>
      </trkpt>
      <trkpt lat="46.20075" lon="6.21576">
        <ele>432.8</ele>
        <time>2021-03-27T16:37:42Z</time>
      </trkpt>
      <trkpt lat="46.20079" lon="6.21583">
        <ele>432.8</ele>
        <time>2021-03-27T16:37:43Z</time>
      </trkpt>
      <trkpt lat="46.20083" lon="6.2159">
        <ele>432.8</ele>
        <time>2021-03-27T16:37:44Z</time>
      </trkpt>
      <trkpt lat="46.20087" lon="6.21597">
        <ele>432.8</ele>
        <time>2021-03-27T16:37:45Z</time>
      </trkpt>
      <trkpt lat="46.20091" lon="6.21605">
        <ele>433</ele>
        <time>2021-03-27T16:37:46Z</time>
      </trkpt>
      <trkpt lat="46.20096" lon="6.21612">
        <ele>432.8</ele>
        <time>2021-03-27T16:37:47Z</time>
      </trkpt>
      <trkpt lat="46.201" lon="6.2162">
        <ele>433</ele>
        <time>2021-03-27T16:37:48Z</time>
      </trkpt>
      <trkpt lat="46.20105" lon="6.21628">
        <ele>433</ele>
        <time>2021-03-27T16:37:49Z</time>
      </trkpt>
      <trkpt lat="46.2011" lon="6.21635">
        <ele>433</ele>
        <time>2021-03-27T16:37:50Z</time>
      </trkpt>
      <trkpt lat="46.20115" lon="6.21643">
        <ele>433</ele>
        <time>2021-03-27T16:37:51Z</time>
      </trkpt>
      <trkpt lat="46.2012" lon="6.2165">
        <ele>433</ele>
        <time>2021-03-27T16:37:52Z</time>
      </trkpt>
      <trkpt lat="46.20125" lon="6.21658">
        <ele>433.2</ele>
        <time>2021-03-27T16:37:53Z</time>
      </trkpt>
      <trkpt lat="46.2013" lon="6.21665">
        <ele>433</ele>
        <time>2021-03-27T16:37:54Z</time>
      </trkpt>
      <trkpt lat="46.20135" lon="6.21673">
        <ele>433.2</ele>
        <time>2021-03-27T16:37:55Z</time>
      </trkpt>
      <trkpt lat="46.2014" lon="6.2168">
        <ele>433.2</ele>
        <time>2021-03-27T16:37:56Z</time>
      </trkpt>
      <trkpt lat="46.20144" lon="6.21688">
        <ele>433.2</ele>
        <time>2021-03-27T16:37:57Z</time>
      </trkpt>
      <trkpt lat="46.20149" lon="6.21695">
        <ele>433.2</ele>
        <time>2021-03-27T16:37:58Z</time>
      </trkpt>
      <trkpt lat="46.20154" lon="6.21702">
        <ele>433.2</ele>
        <time>2021-03-27T16:37:59Z</time>
      </trkpt>
      <trkpt lat="46.20159" lon="6.21709">
        <ele>433.2</ele>
        <time>2021-03-27T16:38:00Z</time>
      </trkpt>
      <trkpt lat="46.20163" lon="6.21717">
        <ele>433.2</ele>
        <time>2021-03-27T16:38:01Z</time>
      </trkpt>
      <trkpt lat="46.20168" lon="6.21725">
        <ele>433.4</ele>
        <time>2021-03-27T16:38:02Z</time>
      </trkpt>
      <trkpt lat="46.20172" lon="6.21733">
        <ele>433.4</ele>
        <time>2021-03-27T16:38:03Z</time>
      </trkpt>
      <trkpt lat="46.20176" lon="6.21741">
        <ele>433.6</ele>
        <time>2021-03-27T16:38:04Z</time>
      </trkpt>
      <trkpt lat="46.2018" lon="6.21749">
        <ele>433.4</ele>
        <time>2021-03-27T16:38:05Z</time>
      </trkpt>
      <trkpt lat="46.20184" lon="6.21758">
        <ele>433.6</ele>
        <time>2021-03-27T16:38:06Z</time>
      </trkpt>
      <trkpt lat="46.20188" lon="6.21766">
        <ele>433.6</ele>
        <time>2021-03-27T16:38:07Z</time>
      </trkpt>
      <trkpt lat="46.20192" lon="6.21775">
        <ele>433.6</ele>
        <time>2021-03-27T16:38:08Z</time>
      </trkpt>
      <trkpt lat="46.20196" lon="6.21784">
        <ele>433.6</ele>
        <time>2021-03-27T16:38:09Z</time>
      </trkpt>
      <trkpt lat="46.202" lon="6.21792">
        <ele>433.8</ele>
        <time>2021-03-27T16:38:10Z</time>
      </trkpt>
      <trkpt lat="46.20204" lon="6.21801">
        <ele>434</ele>
        <time>2021-03-27T16:38:11Z</time>
      </trkpt>
      <trkpt lat="46.20207" lon="6.2181">
        <ele>434</ele>
        <time>2021-03-27T16:38:12Z</time>
      </trkpt>
      <trkpt lat="46.20211" lon="6.21819">
        <ele>434</ele>
        <time>2021-03-27T16:38:13Z</time>
      </trkpt>
      <trkpt lat="46.20214" lon="6.21828">
        <ele>434.2</ele>
        <time>2021-03-27T16:38:14Z</time>
      </trkpt>
      <trkpt lat="46.20218" lon="6.21836">
        <ele>434.2</ele>
        <time>2021-03-27T16:38:15Z</time>
      </trkpt>
      <trkpt lat="46.20221" lon="6.21845">
        <ele>434.2</ele>
        <time>2021-03-27T16:38:16Z</time>
      </trkpt>
      <trkpt lat="46.20225" lon="6.21854">
        <ele>434.4</ele>
        <time>2021-03-27T16:38:17Z</time>
      </trkpt>
      <trkpt lat="46.20228" lon="6.21863">
        <ele>434.6</ele>
        <time>2021-03-27T16:38:18Z</time>
      </trkpt>
      <trkpt lat="46.20232" lon="6.21872">
        <ele>434.6</ele>
        <time>2021-03-27T16:38:19Z</time>
      </trkpt>
      <trkpt lat="46.20236" lon="6.21881">
        <ele>434.6</ele>
        <time>2021-03-27T16:38:20Z</time>
      </trkpt>
      <trkpt lat="46.20239" lon="6.2189">
        <ele>434.6</ele>
        <time>2021-03-27T16:38:21Z</time>
      </trkpt>
      <trkpt lat="46.20243" lon="6.21899">
        <ele>434.8</ele>
        <time>2021-03-27T16:38:22Z</time>
      </trkpt>
      <trkpt lat="46.20246" lon="6.21908">
        <ele>434.8</ele>
        <time>2021-03-27T16:38:23Z</time>
      </trkpt>
      <trkpt lat="46.2025" lon="6.21917">
        <ele>434.8</ele>
        <time>2021-03-27T16:38:24Z</time>
      </trkpt>
      <trkpt lat="46.20253" lon="6.21926">
        <ele>435</ele>
        <time>2021-03-27T16:38:25Z</time>
      </trkpt>
      <trkpt lat="46.20257" lon="6.21936">
        <ele>435</ele>
        <time>2021-03-27T16:38:26Z</time>
      </trkpt>
      <trkpt lat="46.2026" lon="6.21945">
        <ele>435.2</ele>
        <time>2021-03-27T16:38:27Z</time>
      </trkpt>
      <trkpt lat="46.20264" lon="6.21954">
        <ele>435</ele>
        <time>2021-03-27T16:38:28Z</time>
      </trkpt>
      <trkpt lat="46.20267" lon="6.21963">
        <ele>435.2</ele>
        <time>2021-03-27T16:38:29Z</time>
      </trkpt>
      <trkpt lat="46.20271" lon="6.21973">
        <ele>435.2</ele>
        <time>2021-03-27T16:38:30Z</time>
      </trkpt>
      <trkpt lat="46.20274" lon="6.21982">
        <ele>435.2</ele>
        <time>2021-03-27T16:38:31Z</time>
      </trkpt>
      <trkpt lat="46.20278" lon="6.21991">
        <ele>435.4</ele>
        <time>2021-03-27T16:38:32Z</time>
      </trkpt>
      <trkpt lat="46.20281" lon="6.22001">
        <ele>435.4</ele>
        <time>2021-03-27T16:38:33Z</time>
      </trkpt>
      <trkpt lat="46.20285" lon="6.2201">
        <ele>435.4</ele>
        <time>2021-03-27T16:38:34Z</time>
      </trkpt>
      <trkpt lat="46.20288" lon="6.2202">
        <ele>435.4</ele>
        <time>2021-03-27T16:38:35Z</time>
      </trkpt>
      <trkpt lat="46.20292" lon="6.22029">
        <ele>435.6</ele>
        <time>2021-03-27T16:38:36Z</time>
      </trkpt>
      <trkpt lat="46.20296" lon="6.22039">
        <ele>435.6</ele>
        <time>2021-03-27T16:38:37Z</time>
      </trkpt>
      <trkpt lat="46.203" lon="6.22049">
        <ele>435.6</ele>
        <time>2021-03-27T16:38:38Z</time>
      </trkpt>
      <trkpt lat="46.20304" lon="6.22058">
        <ele>435.6</ele>
        <time>2021-03-27T16:38:39Z</time>
      </trkpt>
      <trkpt lat="46.20308" lon="6.22068">
        <ele>435.6</ele>
        <time>2021-03-27T16:38:40Z</time>
      </trkpt>
      <trkpt lat="46.20311" lon="6.22078">
        <ele>435.6</ele>
        <time>2021-03-27T16:38:41Z</time>
      </trkpt>
      <trkpt lat="46.20315" lon="6.22088">
        <ele>435.6</ele>
        <time>2021-03-27T16:38:42Z</time>
      </trkpt>
      <trkpt lat="46.20319" lon="6.22097">
        <ele>435.6</ele>
        <time>2021-03-27T16:38:43Z</time>
      </trkpt>
      <trkpt lat="46.20322" lon="6.22107">
        <ele>435.6</ele>
        <time>2021-03-27T16:38:44Z</time>
      </trkpt>
      <trkpt lat="46.20326" lon="6.22117">
        <ele>435.6</ele>
        <time>2021-03-27T16:38:45Z</time>
      </trkpt>
      <trkpt lat="46.2033" lon="6.22126">
        <ele>435.6</ele>
        <time>2021-03-27T16:38:46Z</time>
      </trkpt>
      <trkpt lat="46.20334" lon="6.22136">
        <ele>435.8</ele>
        <time>2021-03-27T16:38:47Z</time>
      </trkpt>
      <trkpt lat="46.20337" lon="6.22145">
        <ele>435.8</ele>
        <time>2021-03-27T16:38:48Z</time>
      </trkpt>
      <trkpt lat="46.20341" lon="6.22155">
        <ele>435.6</ele>
        <time>2021-03-27T16:38:49Z</time>
      </trkpt>
      <trkpt lat="46.20344" lon="6.22164">
        <ele>435.8</ele>
        <time>2021-03-27T16:38:50Z</time>
      </trkpt>
      <trkpt lat="46.20348" lon="6.22173">
        <ele>435.8</ele>
        <time>2021-03-27T16:38:51Z</time>
      </trkpt>
      <trkpt lat="46.20351" lon="6.22183">
        <ele>435.8</ele>
        <time>2021-03-27T16:38:52Z</time>
      </trkpt>
      <trkpt lat="46.20354" lon="6.22192">
        <ele>435.8</ele>
        <time>2021-03-27T16:38:53Z</time>
      </trkpt>
      <trkpt lat="46.20358" lon="6.22202">
        <ele>435.8</ele>
        <time>2021-03-27T16:38:54Z</time>
      </trkpt>
      <trkpt lat="46.20361" lon="6.22212">
        <ele>435.8</ele>
        <time>2021-03-27T16:38:55Z</time>
      </trkpt>
      <trkpt lat="46.20365" lon="6.22221">
        <ele>435.8</ele>
        <time>2021-03-27T16:38:56Z</time>
      </trkpt>
      <trkpt lat="46.20368" lon="6.2223">
        <ele>436</ele>
        <time>2021-03-27T16:38:57Z</time>
      </trkpt>
      <trkpt lat="46.20371" lon="6.22238">
        <ele>436</ele>
        <time>2021-03-27T16:38:58Z</time>
      </trkpt>
      <trkpt lat="46.20374" lon="6.22246">
        <ele>435.8</ele>
        <time>2021-03-27T16:38:59Z</time>
      </trkpt>
      <trkpt lat="46.20376" lon="6.22255">
        <ele>435.8</ele>
        <time>2021-03-27T16:39:00Z</time>
      </trkpt>
      <trkpt lat="46.20379" lon="6.22262">
        <ele>436</ele>
        <time>2021-03-27T16:39:01Z</time>
      </trkpt>
      <trkpt lat="46.20381" lon="6.2227">
        <ele>436.2</ele>
        <time>2021-03-27T16:39:02Z</time>
      </trkpt>
      <trkpt lat="46.20384" lon="6.22277">
        <ele>436</ele>
        <time>2021-03-27T16:39:03Z</time>
      </trkpt>
      <trkpt lat="46.20388" lon="6.22284">
        <ele>436</ele>
        <time>2021-03-27T16:39:04Z</time>
      </trkpt>
      <trkpt lat="46.20393" lon="6.22289">
        <ele>436</ele>
        <time>2021-03-27T16:39:05Z</time>
      </trkpt>
      <trkpt lat="46.20398" lon="6.22296">
        <ele>436.2</ele>
        <time>2021-03-27T16:39:06Z</time>
      </trkpt>
      <trkpt lat="46.20402" lon="6.22303">
        <ele>436.2</ele>
        <time>2021-03-27T16:39:07Z</time>
      </trkpt>
      <trkpt lat="46.20406" lon="6.22311">
        <ele>436.2</ele>
        <time>2021-03-27T16:39:08Z</time>
      </trkpt>
      <trkpt lat="46.2041" lon="6.2232">
        <ele>436.2</ele>
        <time>2021-03-27T16:39:09Z</time>
      </trkpt>
      <trkpt lat="46.20414" lon="6.22328">
        <ele>436</ele>
        <time>2021-03-27T16:39:10Z</time>
      </trkpt>
      <trkpt lat="46.20418" lon="6.22336">
        <ele>436.2</ele>
        <time>2021-03-27T16:39:11Z</time>
      </trkpt>
      <trkpt lat="46.20422" lon="6.22345">
        <ele>436.2</ele>
        <time>2021-03-27T16:39:12Z</time>
      </trkpt>
      <trkpt lat="46.20426" lon="6.22353">
        <ele>436</ele>
        <time>2021-03-27T16:39:13Z</time>
      </trkpt>
      <trkpt lat="46.20431" lon="6.22362">
        <ele>436</ele>
        <time>2021-03-27T16:39:14Z</time>
      </trkpt>
      <trkpt lat="46.20435" lon="6.2237">
        <ele>436</ele>
        <time>2021-03-27T16:39:15Z</time>
      </trkpt>
      <trkpt lat="46.20439" lon="6.22378">
        <ele>436</ele>
        <time>2021-03-27T16:39:16Z</time>
      </trkpt>
      <trkpt lat="46.20444" lon="6.22387">
        <ele>436</ele>
        <time>2021-03-27T16:39:17Z</time>
      </trkpt>
      <trkpt lat="46.20448" lon="6.22394">
        <ele>435.8</ele>
        <time>2021-03-27T16:39:18Z</time>
      </trkpt>
      <trkpt lat="46.20453" lon="6.22402">
        <ele>436</ele>
        <time>2021-03-27T16:39:19Z</time>
      </trkpt>
      <trkpt lat="46.20458" lon="6.22409">
        <ele>436</ele>
        <time>2021-03-27T16:39:20Z</time>
      </trkpt>
      <trkpt lat="46.20463" lon="6.22416">
        <ele>436</ele>
        <time>2021-03-27T16:39:21Z</time>
      </trkpt>
      <trkpt lat="46.20468" lon="6.22423">
        <ele>436</ele>
        <time>2021-03-27T16:39:22Z</time>
      </trkpt>
      <trkpt lat="46.20473" lon="6.2243">
        <ele>436</ele>
        <time>2021-03-27T16:39:23Z</time>
      </trkpt>
      <trkpt lat="46.20479" lon="6.22436">
        <ele>436</ele>
        <time>2021-03-27T16:39:24Z</time>
      </trkpt>
      <trkpt lat="46.20484" lon="6.22443">
        <ele>436</ele>
        <time>2021-03-27T16:39:25Z</time>
      </trkpt>
      <trkpt lat="46.20489" lon="6.22449">
        <ele>436</ele>
        <time>2021-03-27T16:39:26Z</time>
      </trkpt>
      <trkpt lat="46.20495" lon="6.22456">
        <ele>436</ele>
        <time>2021-03-27T16:39:27Z</time>
      </trkpt>
      <trkpt lat="46.20501" lon="6.22462">
        <ele>436</ele>
        <time>2021-03-27T16:39:28Z</time>
      </trkpt>
      <trkpt lat="46.20506" lon="6.22468">
        <ele>436</ele>
        <time>2021-03-27T16:39:29Z</time>
      </trkpt>
      <trkpt lat="46.20512" lon="6.22474">
        <ele>436.2</ele>
        <time>2021-03-27T16:39:30Z</time>
      </trkpt>
      <trkpt lat="46.20518" lon="6.22479">
        <ele>436</ele>
        <time>2021-03-27T16:39:31Z</time>
      </trkpt>
      <trkpt lat="46.20524" lon="6.22485">
        <ele>436</ele>
        <time>2021-03-27T16:39:32Z</time>
      </trkpt>
      <trkpt lat="46.2053" lon="6.22491">
        <ele>436</ele>
        <time>2021-03-27T16:39:33Z</time>
      </trkpt>
      <trkpt lat="46.20535" lon="6.22496">
        <ele>436</ele>
        <time>2021-03-27T16:39:34Z</time>
      </trkpt>
      <trkpt lat="46.20541" lon="6.22501">
        <ele>436.2</ele>
        <time>2021-03-27T16:39:35Z</time>
      </trkpt>
      <trkpt lat="46.20547" lon="6.22506">
        <ele>436.2</ele>
        <time>2021-03-27T16:39:36Z</time>
      </trkpt>
      <trkpt lat="46.20553" lon="6.22511">
        <ele>436.2</ele>
        <time>2021-03-27T16:39:37Z</time>
      </trkpt>
      <trkpt lat="46.20559" lon="6.22516">
        <ele>436.2</ele>
        <time>2021-03-27T16:39:38Z</time>
      </trkpt>
      <trkpt lat="46.20565" lon="6.22521">
        <ele>436.2</ele>
        <time>2021-03-27T16:39:39Z</time>
      </trkpt>
      <trkpt lat="46.20571" lon="6.22526">
        <ele>436.2</ele>
        <time>2021-03-27T16:39:40Z</time>
      </trkpt>
      <trkpt lat="46.20577" lon="6.22531">
        <ele>436.2</ele>
        <time>2021-03-27T16:39:41Z</time>
      </trkpt>
      <trkpt lat="46.20582" lon="6.22537">
        <ele>436.2</ele>
        <time>2021-03-27T16:39:42Z</time>
      </trkpt>
      <trkpt lat="46.20588" lon="6.22542">
        <ele>436.2</ele>
        <time>2021-03-27T16:39:43Z</time>
      </trkpt>
      <trkpt lat="46.20594" lon="6.22547">
        <ele>436.2</ele>
        <time>2021-03-27T16:39:44Z</time>
      </trkpt>
      <trkpt lat="46.206" lon="6.22552">
        <ele>436.2</ele>
        <time>2021-03-27T16:39:45Z</time>
      </trkpt>
      <trkpt lat="46.20606" lon="6.22556">
        <ele>436</ele>
        <time>2021-03-27T16:39:46Z</time>
      </trkpt>
      <trkpt lat="46.20612" lon="6.2256">
        <ele>436.2</ele>
        <time>2021-03-27T16:39:47Z</time>
      </trkpt>
      <trkpt lat="46.20619" lon="6.22564">
        <ele>436.2</ele>
        <time>2021-03-27T16:39:48Z</time>
      </trkpt>
      <trkpt lat="46.20625" lon="6.22568">
        <ele>436.4</ele>
        <time>2021-03-27T16:39:49Z</time>
      </trkpt>
      <trkpt lat="46.20632" lon="6.22572">
        <ele>436.4</ele>
        <time>2021-03-27T16:39:50Z</time>
      </trkpt>
      <trkpt lat="46.20638" lon="6.22576">
        <ele>436.2</ele>
        <time>2021-03-27T16:39:51Z</time>
      </trkpt>
      <trkpt lat="46.20645" lon="6.22579">
        <ele>436.4</ele>
        <time>2021-03-27T16:39:52Z</time>
      </trkpt>
      <trkpt lat="46.20652" lon="6.22583">
        <ele>436.4</ele>
        <time>2021-03-27T16:39:53Z</time>
      </trkpt>
      <trkpt lat="46.20658" lon="6.22586">
        <ele>436.4</ele>
        <time>2021-03-27T16:39:54Z</time>
      </trkpt>
      <trkpt lat="46.20665" lon="6.2259">
        <ele>436.4</ele>
        <time>2021-03-27T16:39:55Z</time>
      </trkpt>
      <trkpt lat="46.20671" lon="6.22593">
        <ele>436.4</ele>
        <time>2021-03-27T16:39:56Z</time>
      </trkpt>
      <trkpt lat="46.20678" lon="6.22596">
        <ele>436.6</ele>
        <time>2021-03-27T16:39:57Z</time>
      </trkpt>
      <trkpt lat="46.20685" lon="6.226">
        <ele>436.4</ele>
        <time>2021-03-27T16:39:58Z</time>
      </trkpt>
      <trkpt lat="46.20692" lon="6.22603">
        <ele>436.4</ele>
        <time>2021-03-27T16:39:59Z</time>
      </trkpt>
      <trkpt lat="46.20698" lon="6.22606">
        <ele>436.6</ele>
        <time>2021-03-27T16:40:00Z</time>
      </trkpt>
      <trkpt lat="46.20705" lon="6.22609">
        <ele>436.4</ele>
        <time>2021-03-27T16:40:01Z</time>
      </trkpt>
      <trkpt lat="46.20712" lon="6.22612">
        <ele>436.4</ele>
        <time>2021-03-27T16:40:02Z</time>
      </trkpt>
      <trkpt lat="46.20719" lon="6.22615">
        <ele>436.4</ele>
        <time>2021-03-27T16:40:03Z</time>
      </trkpt>
      <trkpt lat="46.20725" lon="6.22618">
        <ele>436.4</ele>
        <time>2021-03-27T16:40:04Z</time>
      </trkpt>
      <trkpt lat="46.20732" lon="6.22621">
        <ele>436.6</ele>
        <time>2021-03-27T16:40:05Z</time>
      </trkpt>
      <trkpt lat="46.20739" lon="6.22623">
        <ele>436.6</ele>
        <time>2021-03-27T16:40:06Z</time>
      </trkpt>
      <trkpt lat="46.20746" lon="6.22626">
        <ele>436.6</ele>
        <time>2021-03-27T16:40:07Z</time>
      </trkpt>
      <trkpt lat="46.20753" lon="6.22629">
        <ele>436.6</ele>
        <time>2021-03-27T16:40:08Z</time>
      </trkpt>
      <trkpt lat="46.2076" lon="6.22632">
        <ele>436.6</ele>
        <time>2021-03-27T16:40:09Z</time>
      </trkpt>
      <trkpt lat="46.20767" lon="6.22635">
        <ele>436.6</ele>
        <time>2021-03-27T16:40:10Z</time>
      </trkpt>
      <trkpt lat="46.20774" lon="6.22638">
        <ele>436.6</ele>
        <time>2021-03-27T16:40:11Z</time>
      </trkpt>
      <trkpt lat="46.20782" lon="6.2264">
        <ele>436.6</ele>
        <time>2021-03-27T16:40:12Z</time>
      </trkpt>
      <trkpt lat="46.20789" lon="6.22643">
        <ele>436.6</ele>
        <time>2021-03-27T16:40:13Z</time>
      </trkpt>
      <trkpt lat="46.20796" lon="6.22646">
        <ele>436.6</ele>
        <time>2021-03-27T16:40:14Z</time>
      </trkpt>
      <trkpt lat="46.20803" lon="6.22649">
        <ele>436.4</ele>
        <time>2021-03-27T16:40:15Z</time>
      </trkpt>
      <trkpt lat="46.2081" lon="6.22652">
        <ele>436.6</ele>
        <time>2021-03-27T16:40:16Z</time>
      </trkpt>
      <trkpt lat="46.20817" lon="6.22654">
        <ele>436.6</ele>
        <time>2021-03-27T16:40:17Z</time>
      </trkpt>
      <trkpt lat="46.20824" lon="6.22657">
        <ele>436.6</ele>
        <time>2021-03-27T16:40:18Z</time>
      </trkpt>
      <trkpt lat="46.20831" lon="6.2266">
        <ele>436.6</ele>
        <time>2021-03-27T16:40:19Z</time>
      </trkpt>
      <trkpt lat="46.20837" lon="6.22663">
        <ele>436.6</ele>
        <time>2021-03-27T16:40:20Z</time>
      </trkpt>
      <trkpt lat="46.20843" lon="6.22665">
        <ele>436.4</ele>
        <time>2021-03-27T16:40:21Z</time>
      </trkpt>
      <trkpt lat="46.2085" lon="6.22668">
        <ele>436.4</ele>
        <time>2021-03-27T16:40:22Z</time>
      </trkpt>
      <trkpt lat="46.20856" lon="6.22671">
        <ele>436.4</ele>
        <time>2021-03-27T16:40:23Z</time>
      </trkpt>
      <trkpt lat="46.20862" lon="6.22673">
        <ele>436.4</ele>
        <time>2021-03-27T16:40:24Z</time>
      </trkpt>
      <trkpt lat="46.20869" lon="6.22676">
        <ele>436.4</ele>
        <time>2021-03-27T16:40:25Z</time>
      </trkpt>
      <trkpt lat="46.20875" lon="6.22679">
        <ele>436.2</ele>
        <time>2021-03-27T16:40:26Z</time>
      </trkpt>
      <trkpt lat="46.20881" lon="6.22681">
        <ele>436.4</ele>
        <time>2021-03-27T16:40:27Z</time>
      </trkpt>
      <trkpt lat="46.20887" lon="6.22684">
        <ele>436.4</ele>
        <time>2021-03-27T16:40:28Z</time>
      </trkpt>
      <trkpt lat="46.20893" lon="6.22687">
        <ele>436.4</ele>
        <time>2021-03-27T16:40:29Z</time>
      </trkpt>
      <trkpt lat="46.209" lon="6.22689">
        <ele>436.4</ele>
        <time>2021-03-27T16:40:30Z</time>
      </trkpt>
      <trkpt lat="46.20906" lon="6.22692">
        <ele>436.4</ele>
        <time>2021-03-27T16:40:31Z</time>
      </trkpt>
      <trkpt lat="46.20912" lon="6.22695">
        <ele>436.4</ele>
        <time>2021-03-27T16:40:32Z</time>
      </trkpt>
      <trkpt lat="46.20918" lon="6.22698">
        <ele>436.2</ele>
        <time>2021-03-27T16:40:33Z</time>
      </trkpt>
      <trkpt lat="46.20925" lon="6.22701">
        <ele>436.4</ele>
        <time>2021-03-27T16:40:34Z</time>
      </trkpt>
      <trkpt lat="46.20931" lon="6.22704">
        <ele>436.2</ele>
        <time>2021-03-27T16:40:35Z</time>
      </trkpt>
      <trkpt lat="46.20938" lon="6.22707">
        <ele>436.4</ele>
        <time>2021-03-27T16:40:36Z</time>
      </trkpt>
      <trkpt lat="46.20944" lon="6.22711">
        <ele>436.4</ele>
        <time>2021-03-27T16:40:37Z</time>
      </trkpt>
      <trkpt lat="46.20951" lon="6.22714">
        <ele>436.4</ele>
        <time>2021-03-27T16:40:38Z</time>
      </trkpt>
      <trkpt lat="46.20958" lon="6.22718">
        <ele>436.2</ele>
        <time>2021-03-27T16:40:39Z</time>
      </trkpt>
      <trkpt lat="46.20964" lon="6.22721">
        <ele>436.4</ele>
        <time>2021-03-27T16:40:40Z</time>
      </trkpt>
      <trkpt lat="46.20971" lon="6.22725">
        <ele>436.2</ele>
        <time>2021-03-27T16:40:41Z</time>
      </trkpt>
      <trkpt lat="46.20979" lon="6.22728">
        <ele>436.4</ele>
        <time>2021-03-27T16:40:42Z</time>
      </trkpt>
      <trkpt lat="46.20986" lon="6.22732">
        <ele>436</ele>
        <time>2021-03-27T16:40:43Z</time>
      </trkpt>
      <trkpt lat="46.20993" lon="6.22736">
        <ele>436.2</ele>
        <time>2021-03-27T16:40:44Z</time>
      </trkpt>
      <trkpt lat="46.20999" lon="6.2274">
        <ele>436.2</ele>
        <time>2021-03-27T16:40:45Z</time>
      </trkpt>
      <trkpt lat="46.21006" lon="6.22744">
        <ele>436.2</ele>
        <time>2021-03-27T16:40:46Z</time>
      </trkpt>
      <trkpt lat="46.21013" lon="6.22748">
        <ele>436.2</ele>
        <time>2021-03-27T16:40:47Z</time>
      </trkpt>
      <trkpt lat="46.2102" lon="6.22752">
        <ele>436.2</ele>
        <time>2021-03-27T16:40:48Z</time>
      </trkpt>
      <trkpt lat="46.21027" lon="6.22757">
        <ele>436</ele>
        <time>2021-03-27T16:40:49Z</time>
      </trkpt>
      <trkpt lat="46.21034" lon="6.22762">
        <ele>436</ele>
        <time>2021-03-27T16:40:50Z</time>
      </trkpt>
      <trkpt lat="46.2104" lon="6.22767">
        <ele>436</ele>
        <time>2021-03-27T16:40:51Z</time>
      </trkpt>
      <trkpt lat="46.21047" lon="6.22771">
        <ele>436</ele>
        <time>2021-03-27T16:40:52Z</time>
      </trkpt>
      <trkpt lat="46.21054" lon="6.22776">
        <ele>436</ele>
        <time>2021-03-27T16:40:53Z</time>
      </trkpt>
      <trkpt lat="46.21061" lon="6.22781">
        <ele>435.6</ele>
        <time>2021-03-27T16:40:54Z</time>
      </trkpt>
      <trkpt lat="46.21067" lon="6.22786">
        <ele>435.8</ele>
        <time>2021-03-27T16:40:55Z</time>
      </trkpt>
      <trkpt lat="46.21081" lon="6.22796">
        <ele>435.8</ele>
        <time>2021-03-27T16:40:57Z</time>
      </trkpt>
      <trkpt lat="46.21094" lon="6.22807">
        <ele>435.6</ele>
        <time>2021-03-27T16:40:59Z</time>
      </trkpt>
      <trkpt lat="46.21106" lon="6.22817">
        <ele>435.6</ele>
        <time>2021-03-27T16:41:01Z</time>
      </trkpt>
      <trkpt lat="46.21118" lon="6.22827">
        <ele>435.6</ele>
        <time>2021-03-27T16:41:03Z</time>
      </trkpt>
      <trkpt lat="46.21124" lon="6.22832">
        <ele>435.6</ele>
        <time>2021-03-27T16:41:04Z</time>
      </trkpt>
      <trkpt lat="46.21135" lon="6.22842">
        <ele>435.6</ele>
        <time>2021-03-27T16:41:06Z</time>
      </trkpt>
      <trkpt lat="46.21141" lon="6.22847">
        <ele>435.6</ele>
        <time>2021-03-27T16:41:07Z</time>
      </trkpt>
      <trkpt lat="46.21152" lon="6.22858">
        <ele>435.4</ele>
        <time>2021-03-27T16:41:09Z</time>
      </trkpt>
      <trkpt lat="46.2116" lon="6.22872">
        <ele>435.6</ele>
        <time>2021-03-27T16:41:11Z</time>
      </trkpt>
      <trkpt lat="46.21165" lon="6.22879">
        <ele>435.6</ele>
        <time>2021-03-27T16:41:12Z</time>
      </trkpt>
      <trkpt lat="46.2117" lon="6.22885">
        <ele>435.6</ele>
        <time>2021-03-27T16:41:13Z</time>
      </trkpt>
      <trkpt lat="46.21176" lon="6.2289">
        <ele>435.6</ele>
        <time>2021-03-27T16:41:14Z</time>
      </trkpt>
      <trkpt lat="46.21181" lon="6.22894">
        <ele>435.6</ele>
        <time>2021-03-27T16:41:15Z</time>
      </trkpt>
      <trkpt lat="46.21187" lon="6.22899">
        <ele>435.6</ele>
        <time>2021-03-27T16:41:16Z</time>
      </trkpt>
      <trkpt lat="46.21192" lon="6.22904">
        <ele>435.6</ele>
        <time>2021-03-27T16:41:17Z</time>
      </trkpt>
      <trkpt lat="46.21196" lon="6.22909">
        <ele>435.6</ele>
        <time>2021-03-27T16:41:18Z</time>
      </trkpt>
      <trkpt lat="46.21201" lon="6.22915">
        <ele>435.6</ele>
        <time>2021-03-27T16:41:19Z</time>
      </trkpt>
      <trkpt lat="46.21205" lon="6.22921">
        <ele>435.8</ele>
        <time>2021-03-27T16:41:20Z</time>
      </trkpt>
      <trkpt lat="46.21215" lon="6.22933">
        <ele>435.8</ele>
        <time>2021-03-27T16:41:22Z</time>
      </trkpt>
      <trkpt lat="46.2122" lon="6.22939">
        <ele>435.8</ele>
        <time>2021-03-27T16:41:23Z</time>
      </trkpt>
      <trkpt lat="46.21225" lon="6.22946">
        <ele>435.8</ele>
        <time>2021-03-27T16:41:24Z</time>
      </trkpt>
      <trkpt lat="46.2123" lon="6.22953">
        <ele>435.8</ele>
        <time>2021-03-27T16:41:25Z</time>
      </trkpt>
      <trkpt lat="46.21235" lon="6.22959">
        <ele>435.6</ele>
        <time>2021-03-27T16:41:26Z</time>
      </trkpt>
      <trkpt lat="46.2124" lon="6.22966">
        <ele>435.6</ele>
        <time>2021-03-27T16:41:27Z</time>
      </trkpt>
      <trkpt lat="46.21246" lon="6.22973">
        <ele>435.6</ele>
        <time>2021-03-27T16:41:28Z</time>
      </trkpt>
      <trkpt lat="46.21251" lon="6.2298">
        <ele>435.6</ele>
        <time>2021-03-27T16:41:29Z</time>
      </trkpt>
      <trkpt lat="46.21256" lon="6.22988">
        <ele>435.6</ele>
        <time>2021-03-27T16:41:30Z</time>
      </trkpt>
      <trkpt lat="46.21261" lon="6.22995">
        <ele>435.4</ele>
        <time>2021-03-27T16:41:31Z</time>
      </trkpt>
      <trkpt lat="46.21266" lon="6.23003">
        <ele>435.6</ele>
        <time>2021-03-27T16:41:32Z</time>
      </trkpt>
      <trkpt lat="46.21272" lon="6.2301">
        <ele>435.4</ele>
        <time>2021-03-27T16:41:33Z</time>
      </trkpt>
      <trkpt lat="46.21277" lon="6.23018">
        <ele>435.2</ele>
        <time>2021-03-27T16:41:34Z</time>
      </trkpt>
      <trkpt lat="46.21282" lon="6.23026">
        <ele>435.4</ele>
        <time>2021-03-27T16:41:35Z</time>
      </trkpt>
      <trkpt lat="46.21287" lon="6.23033">
        <ele>435.2</ele>
        <time>2021-03-27T16:41:36Z</time>
      </trkpt>
      <trkpt lat="46.21293" lon="6.23041">
        <ele>435.2</ele>
        <time>2021-03-27T16:41:37Z</time>
      </trkpt>
      <trkpt lat="46.21298" lon="6.2305">
        <ele>435.2</ele>
        <time>2021-03-27T16:41:38Z</time>
      </trkpt>
      <trkpt lat="46.21303" lon="6.23058">
        <ele>435.2</ele>
        <time>2021-03-27T16:41:39Z</time>
      </trkpt>
      <trkpt lat="46.21308" lon="6.23066">
        <ele>435</ele>
        <time>2021-03-27T16:41:40Z</time>
      </trkpt>
      <trkpt lat="46.21314" lon="6.23075">
        <ele>435</ele>
        <time>2021-03-27T16:41:41Z</time>
      </trkpt>
      <trkpt lat="46.21318" lon="6.23083">
        <ele>435</ele>
        <time>2021-03-27T16:41:42Z</time>
      </trkpt>
      <trkpt lat="46.21323" lon="6.23091">
        <ele>435</ele>
        <time>2021-03-27T16:41:43Z</time>
      </trkpt>
      <trkpt lat="46.21328" lon="6.231">
        <ele>434.8</ele>
        <time>2021-03-27T16:41:44Z</time>
      </trkpt>
      <trkpt lat="46.21332" lon="6.23109">
        <ele>434.8</ele>
        <time>2021-03-27T16:41:45Z</time>
      </trkpt>
      <trkpt lat="46.21337" lon="6.23118">
        <ele>434.8</ele>
        <time>2021-03-27T16:41:46Z</time>
      </trkpt>
      <trkpt lat="46.21341" lon="6.23127">
        <ele>434.8</ele>
        <time>2021-03-27T16:41:47Z</time>
      </trkpt>
      <trkpt lat="46.21345" lon="6.23136">
        <ele>434.8</ele>
        <time>2021-03-27T16:41:48Z</time>
      </trkpt>
      <trkpt lat="46.21349" lon="6.23145">
        <ele>434.8</ele>
        <time>2021-03-27T16:41:49Z</time>
      </trkpt>
      <trkpt lat="46.21354" lon="6.23154">
        <ele>434.6</ele>
        <time>2021-03-27T16:41:50Z</time>
      </trkpt>
      <trkpt lat="46.21358" lon="6.23164">
        <ele>434.8</ele>
        <time>2021-03-27T16:41:51Z</time>
      </trkpt>
      <trkpt lat="46.21362" lon="6.23173">
        <ele>434.8</ele>
        <time>2021-03-27T16:41:52Z</time>
      </trkpt>
      <trkpt lat="46.21367" lon="6.23181">
        <ele>434.6</ele>
        <time>2021-03-27T16:41:53Z</time>
      </trkpt>
      <trkpt lat="46.21371" lon="6.2319">
        <ele>434.6</ele>
        <time>2021-03-27T16:41:54Z</time>
      </trkpt>
      <trkpt lat="46.21375" lon="6.23199">
        <ele>434.8</ele>
        <time>2021-03-27T16:41:55Z</time>
      </trkpt>
      <trkpt lat="46.2138" lon="6.23208">
        <ele>434.6</ele>
        <time>2021-03-27T16:41:56Z</time>
      </trkpt>
      <trkpt lat="46.21383" lon="6.23217">
        <ele>434.6</ele>
        <time>2021-03-27T16:41:57Z</time>
      </trkpt>
      <trkpt lat="46.21387" lon="6.23225">
        <ele>434.6</ele>
        <time>2021-03-27T16:41:58Z</time>
      </trkpt>
      <trkpt lat="46.21391" lon="6.23234">
        <ele>434.4</ele>
        <time>2021-03-27T16:41:59Z</time>
      </trkpt>
      <trkpt lat="46.21395" lon="6.23243">
        <ele>434.6</ele>
        <time>2021-03-27T16:42:00Z</time>
      </trkpt>
      <trkpt lat="46.21399" lon="6.23252">
        <ele>434.4</ele>
        <time>2021-03-27T16:42:01Z</time>
      </trkpt>
      <trkpt lat="46.21404" lon="6.23261">
        <ele>434.6</ele>
        <time>2021-03-27T16:42:02Z</time>
      </trkpt>
      <trkpt lat="46.21408" lon="6.2327">
        <ele>434.6</ele>
        <time>2021-03-27T16:42:03Z</time>
      </trkpt>
      <trkpt lat="46.21412" lon="6.23279">
        <ele>434.6</ele>
        <time>2021-03-27T16:42:04Z</time>
      </trkpt>
      <trkpt lat="46.21415" lon="6.23288">
        <ele>434.8</ele>
        <time>2021-03-27T16:42:05Z</time>
      </trkpt>
      <trkpt lat="46.21419" lon="6.23297">
        <ele>434.8</ele>
        <time>2021-03-27T16:42:06Z</time>
      </trkpt>
      <trkpt lat="46.21423" lon="6.23306">
        <ele>434.6</ele>
        <time>2021-03-27T16:42:07Z</time>
      </trkpt>
      <trkpt lat="46.21426" lon="6.23315">
        <ele>434.8</ele>
        <time>2021-03-27T16:42:08Z</time>
      </trkpt>
      <trkpt lat="46.2143" lon="6.23324">
        <ele>434.8</ele>
        <time>2021-03-27T16:42:09Z</time>
      </trkpt>
      <trkpt lat="46.21433" lon="6.23333">
        <ele>434.6</ele>
        <time>2021-03-27T16:42:10Z</time>
      </trkpt>
      <trkpt lat="46.21437" lon="6.23341">
        <ele>434.8</ele>
        <time>2021-03-27T16:42:11Z</time>
      </trkpt>
      <trkpt lat="46.21441" lon="6.2335">
        <ele>434.8</ele>
        <time>2021-03-27T16:42:12Z</time>
      </trkpt>
      <trkpt lat="46.21445" lon="6.23357">
        <ele>434.8</ele>
        <time>2021-03-27T16:42:13Z</time>
      </trkpt>
      <trkpt lat="46.21449" lon="6.23365">
        <ele>434.8</ele>
        <time>2021-03-27T16:42:14Z</time>
      </trkpt>
      <trkpt lat="46.21453" lon="6.23373">
        <ele>435</ele>
        <time>2021-03-27T16:42:15Z</time>
      </trkpt>
      <trkpt lat="46.21457" lon="6.23382">
        <ele>435.2</ele>
        <time>2021-03-27T16:42:16Z</time>
      </trkpt>
      <trkpt lat="46.2146" lon="6.23391">
        <ele>435.2</ele>
        <time>2021-03-27T16:42:17Z</time>
      </trkpt>
      <trkpt lat="46.21463" lon="6.234">
        <ele>435.2</ele>
        <time>2021-03-27T16:42:18Z</time>
      </trkpt>
      <trkpt lat="46.21465" lon="6.23409">
        <ele>435.2</ele>
        <time>2021-03-27T16:42:19Z</time>
      </trkpt>
      <trkpt lat="46.21468" lon="6.23418">
        <ele>435.2</ele>
        <time>2021-03-27T16:42:20Z</time>
      </trkpt>
      <trkpt lat="46.21472" lon="6.23425">
        <ele>435.2</ele>
        <time>2021-03-27T16:42:21Z</time>
      </trkpt>
      <trkpt lat="46.21476" lon="6.23433">
        <ele>435.2</ele>
        <time>2021-03-27T16:42:22Z</time>
      </trkpt>
      <trkpt lat="46.2148" lon="6.2344">
        <ele>435.4</ele>
        <time>2021-03-27T16:42:23Z</time>
      </trkpt>
      <trkpt lat="46.21484" lon="6.23447">
        <ele>435.2</ele>
        <time>2021-03-27T16:42:24Z</time>
      </trkpt>
      <trkpt lat="46.21487" lon="6.23454">
        <ele>435.4</ele>
        <time>2021-03-27T16:42:25Z</time>
      </trkpt>
      <trkpt lat="46.21491" lon="6.23462">
        <ele>435.4</ele>
        <time>2021-03-27T16:42:26Z</time>
      </trkpt>
      <trkpt lat="46.21494" lon="6.2347">
        <ele>435.6</ele>
        <time>2021-03-27T16:42:27Z</time>
      </trkpt>
      <trkpt lat="46.21498" lon="6.23477">
        <ele>435.8</ele>
        <time>2021-03-27T16:42:28Z</time>
      </trkpt>
      <trkpt lat="46.21502" lon="6.23485">
        <ele>435.8</ele>
        <time>2021-03-27T16:42:29Z</time>
      </trkpt>
      <trkpt lat="46.21506" lon="6.23493">
        <ele>435.8</ele>
        <time>2021-03-27T16:42:30Z</time>
      </trkpt>
      <trkpt lat="46.2151" lon="6.23501">
        <ele>435.8</ele>
        <time>2021-03-27T16:42:31Z</time>
      </trkpt>
      <trkpt lat="46.21514" lon="6.23509">
        <ele>436</ele>
        <time>2021-03-27T16:42:32Z</time>
      </trkpt>
      <trkpt lat="46.21519" lon="6.23517">
        <ele>436</ele>
        <time>2021-03-27T16:42:33Z</time>
      </trkpt>
      <trkpt lat="46.21523" lon="6.23525">
        <ele>435.8</ele>
        <time>2021-03-27T16:42:34Z</time>
      </trkpt>
      <trkpt lat="46.21528" lon="6.23533">
        <ele>436</ele>
        <time>2021-03-27T16:42:35Z</time>
      </trkpt>
      <trkpt lat="46.21532" lon="6.23541">
        <ele>436</ele>
        <time>2021-03-27T16:42:36Z</time>
      </trkpt>
      <trkpt lat="46.21536" lon="6.23548">
        <ele>436</ele>
        <time>2021-03-27T16:42:37Z</time>
      </trkpt>
      <trkpt lat="46.21541" lon="6.23556">
        <ele>435.8</ele>
        <time>2021-03-27T16:42:38Z</time>
      </trkpt>
      <trkpt lat="46.21545" lon="6.23564">
        <ele>436</ele>
        <time>2021-03-27T16:42:39Z</time>
      </trkpt>
      <trkpt lat="46.2155" lon="6.23571">
        <ele>436</ele>
        <time>2021-03-27T16:42:40Z</time>
      </trkpt>
      <trkpt lat="46.21555" lon="6.23579">
        <ele>436</ele>
        <time>2021-03-27T16:42:41Z</time>
      </trkpt>
      <trkpt lat="46.2156" lon="6.23587">
        <ele>436.2</ele>
        <time>2021-03-27T16:42:42Z</time>
      </trkpt>
      <trkpt lat="46.21564" lon="6.23594">
        <ele>436</ele>
        <time>2021-03-27T16:42:43Z</time>
      </trkpt>
      <trkpt lat="46.21574" lon="6.23609">
        <ele>436.2</ele>
        <time>2021-03-27T16:42:45Z</time>
      </trkpt>
      <trkpt lat="46.21579" lon="6.23616">
        <ele>436</ele>
        <time>2021-03-27T16:42:46Z</time>
      </trkpt>
      <trkpt lat="46.21584" lon="6.23623">
        <ele>436</ele>
        <time>2021-03-27T16:42:47Z</time>
      </trkpt>
      <trkpt lat="46.2159" lon="6.23629">
        <ele>436.2</ele>
        <time>2021-03-27T16:42:48Z</time>
      </trkpt>
      <trkpt lat="46.216" lon="6.23643">
        <ele>436.2</ele>
        <time>2021-03-27T16:42:50Z</time>
      </trkpt>
      <trkpt lat="46.21605" lon="6.2365">
        <ele>436</ele>
        <time>2021-03-27T16:42:51Z</time>
      </trkpt>
      <trkpt lat="46.21611" lon="6.23656">
        <ele>436</ele>
        <time>2021-03-27T16:42:52Z</time>
      </trkpt>
      <trkpt lat="46.21616" lon="6.23662">
        <ele>436.2</ele>
        <time>2021-03-27T16:42:53Z</time>
      </trkpt>
      <trkpt lat="46.21622" lon="6.23668">
        <ele>436.2</ele>
        <time>2021-03-27T16:42:54Z</time>
      </trkpt>
      <trkpt lat="46.21628" lon="6.23675">
        <ele>436.4</ele>
        <time>2021-03-27T16:42:55Z</time>
      </trkpt>
      <trkpt lat="46.21633" lon="6.23681">
        <ele>436.2</ele>
        <time>2021-03-27T16:42:56Z</time>
      </trkpt>
      <trkpt lat="46.21639" lon="6.23687">
        <ele>436.6</ele>
        <time>2021-03-27T16:42:57Z</time>
      </trkpt>
      <trkpt lat="46.21644" lon="6.23693">
        <ele>436.4</ele>
        <time>2021-03-27T16:42:58Z</time>
      </trkpt>
      <trkpt lat="46.2165" lon="6.23699">
        <ele>436.6</ele>
        <time>2021-03-27T16:42:59Z</time>
      </trkpt>
      <trkpt lat="46.21656" lon="6.23704">
        <ele>436.4</ele>
        <time>2021-03-27T16:43:00Z</time>
      </trkpt>
      <trkpt lat="46.21661" lon="6.23709">
        <ele>436.6</ele>
        <time>2021-03-27T16:43:01Z</time>
      </trkpt>
      <trkpt lat="46.21667" lon="6.23714">
        <ele>436.6</ele>
        <time>2021-03-27T16:43:02Z</time>
      </trkpt>
      <trkpt lat="46.21673" lon="6.23719">
        <ele>436.6</ele>
        <time>2021-03-27T16:43:03Z</time>
      </trkpt>
      <trkpt lat="46.21678" lon="6.23724">
        <ele>436.8</ele>
        <time>2021-03-27T16:43:04Z</time>
      </trkpt>
      <trkpt lat="46.21684" lon="6.23729">
        <ele>436.8</ele>
        <time>2021-03-27T16:43:05Z</time>
      </trkpt>
      <trkpt lat="46.2169" lon="6.23734">
        <ele>436.8</ele>
        <time>2021-03-27T16:43:06Z</time>
      </trkpt>
      <trkpt lat="46.21696" lon="6.23739">
        <ele>436.8</ele>
        <time>2021-03-27T16:43:07Z</time>
      </trkpt>
      <trkpt lat="46.21702" lon="6.23744">
        <ele>437</ele>
        <time>2021-03-27T16:43:08Z</time>
      </trkpt>
      <trkpt lat="46.21708" lon="6.23749">
        <ele>437</ele>
        <time>2021-03-27T16:43:09Z</time>
      </trkpt>
      <trkpt lat="46.21714" lon="6.23754">
        <ele>437.2</ele>
        <time>2021-03-27T16:43:10Z</time>
      </trkpt>
      <trkpt lat="46.2172" lon="6.23758">
        <ele>437.2</ele>
        <time>2021-03-27T16:43:11Z</time>
      </trkpt>
      <trkpt lat="46.21725" lon="6.23762">
        <ele>437</ele>
        <time>2021-03-27T16:43:12Z</time>
      </trkpt>
      <trkpt lat="46.21731" lon="6.23766">
        <ele>437.2</ele>
        <time>2021-03-27T16:43:13Z</time>
      </trkpt>
      <trkpt lat="46.21736" lon="6.23771">
        <ele>437.2</ele>
        <time>2021-03-27T16:43:14Z</time>
      </trkpt>
      <trkpt lat="46.21747" lon="6.23779">
        <ele>437.2</ele>
        <time>2021-03-27T16:43:16Z</time>
      </trkpt>
      <trkpt lat="46.21753" lon="6.23783">
        <ele>437.2</ele>
        <time>2021-03-27T16:43:17Z</time>
      </trkpt>
      <trkpt lat="46.21759" lon="6.23787">
        <ele>437.2</ele>
        <time>2021-03-27T16:43:18Z</time>
      </trkpt>
      <trkpt lat="46.21765" lon="6.23791">
        <ele>437.2</ele>
        <time>2021-03-27T16:43:19Z</time>
      </trkpt>
      <trkpt lat="46.2177" lon="6.23795">
        <ele>437.2</ele>
        <time>2021-03-27T16:43:20Z</time>
      </trkpt>
      <trkpt lat="46.21776" lon="6.23798">
        <ele>437.2</ele>
        <time>2021-03-27T16:43:21Z</time>
      </trkpt>
      <trkpt lat="46.21781" lon="6.23802">
        <ele>437.4</ele>
        <time>2021-03-27T16:43:22Z</time>
      </trkpt>
      <trkpt lat="46.21787" lon="6.23806">
        <ele>437.4</ele>
        <time>2021-03-27T16:43:23Z</time>
      </trkpt>
      <trkpt lat="46.21793" lon="6.23809">
        <ele>437.4</ele>
        <time>2021-03-27T16:43:24Z</time>
      </trkpt>
      <trkpt lat="46.21798" lon="6.23813">
        <ele>437.4</ele>
        <time>2021-03-27T16:43:25Z</time>
      </trkpt>
      <trkpt lat="46.21805" lon="6.23817">
        <ele>437.4</ele>
        <time>2021-03-27T16:43:26Z</time>
      </trkpt>
      <trkpt lat="46.21811" lon="6.23821">
        <ele>437.4</ele>
        <time>2021-03-27T16:43:27Z</time>
      </trkpt>
      <trkpt lat="46.21817" lon="6.23825">
        <ele>437.4</ele>
        <time>2021-03-27T16:43:28Z</time>
      </trkpt>
      <trkpt lat="46.21823" lon="6.23829">
        <ele>437.4</ele>
        <time>2021-03-27T16:43:29Z</time>
      </trkpt>
      <trkpt lat="46.21829" lon="6.23833">
        <ele>437.4</ele>
        <time>2021-03-27T16:43:30Z</time>
      </trkpt>
      <trkpt lat="46.21835" lon="6.23837">
        <ele>437.2</ele>
        <time>2021-03-27T16:43:31Z</time>
      </trkpt>
      <trkpt lat="46.21841" lon="6.23842">
        <ele>437.2</ele>
        <time>2021-03-27T16:43:32Z</time>
      </trkpt>
      <trkpt lat="46.21847" lon="6.23846">
        <ele>437.2</ele>
        <time>2021-03-27T16:43:33Z</time>
      </trkpt>
      <trkpt lat="46.21853" lon="6.2385">
        <ele>437.2</ele>
        <time>2021-03-27T16:43:34Z</time>
      </trkpt>
      <trkpt lat="46.21859" lon="6.23854">
        <ele>437.2</ele>
        <time>2021-03-27T16:43:35Z</time>
      </trkpt>
      <trkpt lat="46.21865" lon="6.23858">
        <ele>437.2</ele>
        <time>2021-03-27T16:43:36Z</time>
      </trkpt>
      <trkpt lat="46.21871" lon="6.23862">
        <ele>437.2</ele>
        <time>2021-03-27T16:43:37Z</time>
      </trkpt>
      <trkpt lat="46.21877" lon="6.23866">
        <ele>437.2</ele>
        <time>2021-03-27T16:43:38Z</time>
      </trkpt>
      <trkpt lat="46.21884" lon="6.23871">
        <ele>437.2</ele>
        <time>2021-03-27T16:43:39Z</time>
      </trkpt>
      <trkpt lat="46.2189" lon="6.23875">
        <ele>437.2</ele>
        <time>2021-03-27T16:43:40Z</time>
      </trkpt>
      <trkpt lat="46.21896" lon="6.2388">
        <ele>437.2</ele>
        <time>2021-03-27T16:43:41Z</time>
      </trkpt>
      <trkpt lat="46.21902" lon="6.23884">
        <ele>437.2</ele>
        <time>2021-03-27T16:43:42Z</time>
      </trkpt>
      <trkpt lat="46.21909" lon="6.23889">
        <ele>437.2</ele>
        <time>2021-03-27T16:43:43Z</time>
      </trkpt>
      <trkpt lat="46.21915" lon="6.23894">
        <ele>437.2</ele>
        <time>2021-03-27T16:43:44Z</time>
      </trkpt>
      <trkpt lat="46.21921" lon="6.23898">
        <ele>437.2</ele>
        <time>2021-03-27T16:43:45Z</time>
      </trkpt>
      <trkpt lat="46.21933" lon="6.23909">
        <ele>437.2</ele>
        <time>2021-03-27T16:43:47Z</time>
      </trkpt>
      <trkpt lat="46.21939" lon="6.23914">
        <ele>437.4</ele>
        <time>2021-03-27T16:43:48Z</time>
      </trkpt>
      <trkpt lat="46.21945" lon="6.23919">
        <ele>437.4</ele>
        <time>2021-03-27T16:43:49Z</time>
      </trkpt>
      <trkpt lat="46.2195" lon="6.23924">
        <ele>437.2</ele>
        <time>2021-03-27T16:43:50Z</time>
      </trkpt>
      <trkpt lat="46.21956" lon="6.2393">
        <ele>437.4</ele>
        <time>2021-03-27T16:43:51Z</time>
      </trkpt>
      <trkpt lat="46.21961" lon="6.23936">
        <ele>437.4</ele>
        <time>2021-03-27T16:43:52Z</time>
      </trkpt>
      <trkpt lat="46.21966" lon="6.23942">
        <ele>437.4</ele>
        <time>2021-03-27T16:43:53Z</time>
      </trkpt>
      <trkpt lat="46.21972" lon="6.23948">
        <ele>437.4</ele>
        <time>2021-03-27T16:43:54Z</time>
      </trkpt>
      <trkpt lat="46.21977" lon="6.23954">
        <ele>437.6</ele>
        <time>2021-03-27T16:43:55Z</time>
      </trkpt>
      <trkpt lat="46.21983" lon="6.23961">
        <ele>437.6</ele>
        <time>2021-03-27T16:43:56Z</time>
      </trkpt>
      <trkpt lat="46.21988" lon="6.23967">
        <ele>437.6</ele>
        <time>2021-03-27T16:43:57Z</time>
      </trkpt>
      <trkpt lat="46.21993" lon="6.23974">
        <ele>437.6</ele>
        <time>2021-03-27T16:43:58Z</time>
      </trkpt>
      <trkpt lat="46.21998" lon="6.2398">
        <ele>437.6</ele>
        <time>2021-03-27T16:43:59Z</time>
      </trkpt>
      <trkpt lat="46.22003" lon="6.23987">
        <ele>437.6</ele>
        <time>2021-03-27T16:44:00Z</time>
      </trkpt>
      <trkpt lat="46.22008" lon="6.23993">
        <ele>437.8</ele>
        <time>2021-03-27T16:44:01Z</time>
      </trkpt>
      <trkpt lat="46.22013" lon="6.23999">
        <ele>437.8</ele>
        <time>2021-03-27T16:44:02Z</time>
      </trkpt>
      <trkpt lat="46.22018" lon="6.24005">
        <ele>437.6</ele>
        <time>2021-03-27T16:44:03Z</time>
      </trkpt>
      <trkpt lat="46.22022" lon="6.2401">
        <ele>437.8</ele>
        <time>2021-03-27T16:44:04Z</time>
      </trkpt>
      <trkpt lat="46.22027" lon="6.24015">
        <ele>437.8</ele>
        <time>2021-03-27T16:44:05Z</time>
      </trkpt>
      <trkpt lat="46.22032" lon="6.24021">
        <ele>437.8</ele>
        <time>2021-03-27T16:44:06Z</time>
      </trkpt>
      <trkpt lat="46.22036" lon="6.24028">
        <ele>437.8</ele>
        <time>2021-03-27T16:44:07Z</time>
      </trkpt>
      <trkpt lat="46.22041" lon="6.24034">
        <ele>438</ele>
        <time>2021-03-27T16:44:08Z</time>
      </trkpt>
      <trkpt lat="46.22046" lon="6.24041">
        <ele>438</ele>
        <time>2021-03-27T16:44:09Z</time>
      </trkpt>
      <trkpt lat="46.2205" lon="6.24048">
        <ele>438.2</ele>
        <time>2021-03-27T16:44:10Z</time>
      </trkpt>
      <trkpt lat="46.22054" lon="6.24055">
        <ele>438.2</ele>
        <time>2021-03-27T16:44:11Z</time>
      </trkpt>
      <trkpt lat="46.22058" lon="6.24063">
        <ele>438</ele>
        <time>2021-03-27T16:44:12Z</time>
      </trkpt>
      <trkpt lat="46.22066" lon="6.24078">
        <ele>438.2</ele>
        <time>2021-03-27T16:44:14Z</time>
      </trkpt>
      <trkpt lat="46.2207" lon="6.24085">
        <ele>438.2</ele>
        <time>2021-03-27T16:44:15Z</time>
      </trkpt>
      <trkpt lat="46.22073" lon="6.24092">
        <ele>438.4</ele>
        <time>2021-03-27T16:44:16Z</time>
      </trkpt>
      <trkpt lat="46.22077" lon="6.241">
        <ele>438.6</ele>
        <time>2021-03-27T16:44:17Z</time>
      </trkpt>
      <trkpt lat="46.22081" lon="6.24107">
        <ele>438.6</ele>
        <time>2021-03-27T16:44:18Z</time>
      </trkpt>
      <trkpt lat="46.22085" lon="6.24113">
        <ele>438.6</ele>
        <time>2021-03-27T16:44:19Z</time>
      </trkpt>
      <trkpt lat="46.22088" lon="6.24121">
        <ele>438.8</ele>
        <time>2021-03-27T16:44:20Z</time>
      </trkpt>
      <trkpt lat="46.22092" lon="6.24128">
        <ele>438.8</ele>
        <time>2021-03-27T16:44:21Z</time>
      </trkpt>
      <trkpt lat="46.221" lon="6.24142">
        <ele>438.8</ele>
        <time>2021-03-27T16:44:23Z</time>
      </trkpt>
      <trkpt lat="46.22103" lon="6.24148">
        <ele>439</ele>
        <time>2021-03-27T16:44:24Z</time>
      </trkpt>
      <trkpt lat="46.22107" lon="6.24155">
        <ele>439.2</ele>
        <time>2021-03-27T16:44:25Z</time>
      </trkpt>
      <trkpt lat="46.22115" lon="6.24168">
        <ele>439.4</ele>
        <time>2021-03-27T16:44:27Z</time>
      </trkpt>
      <trkpt lat="46.22118" lon="6.24175">
        <ele>439.6</ele>
        <time>2021-03-27T16:44:28Z</time>
      </trkpt>
      <trkpt lat="46.22122" lon="6.24182">
        <ele>439.6</ele>
        <time>2021-03-27T16:44:29Z</time>
      </trkpt>
      <trkpt lat="46.22126" lon="6.24189">
        <ele>439.8</ele>
        <time>2021-03-27T16:44:30Z</time>
      </trkpt>
      <trkpt lat="46.2213" lon="6.24197">
        <ele>440</ele>
        <time>2021-03-27T16:44:31Z</time>
      </trkpt>
      <trkpt lat="46.22135" lon="6.24204">
        <ele>440</ele>
        <time>2021-03-27T16:44:32Z</time>
      </trkpt>
      <trkpt lat="46.22139" lon="6.24211">
        <ele>440</ele>
        <time>2021-03-27T16:44:33Z</time>
      </trkpt>
      <trkpt lat="46.22148" lon="6.24225">
        <ele>440</ele>
        <time>2021-03-27T16:44:35Z</time>
      </trkpt>
      <trkpt lat="46.22152" lon="6.24233">
        <ele>440.2</ele>
        <time>2021-03-27T16:44:36Z</time>
      </trkpt>
      <trkpt lat="46.22161" lon="6.24248">
        <ele>440.4</ele>
        <time>2021-03-27T16:44:38Z</time>
      </trkpt>
      <trkpt lat="46.22165" lon="6.24255">
        <ele>440.4</ele>
        <time>2021-03-27T16:44:39Z</time>
      </trkpt>
      <trkpt lat="46.2217" lon="6.24263">
        <ele>440.6</ele>
        <time>2021-03-27T16:44:40Z</time>
      </trkpt>
      <trkpt lat="46.22175" lon="6.2427">
        <ele>440.8</ele>
        <time>2021-03-27T16:44:41Z</time>
      </trkpt>
      <trkpt lat="46.2218" lon="6.24278">
        <ele>440.8</ele>
        <time>2021-03-27T16:44:42Z</time>
      </trkpt>
      <trkpt lat="46.22185" lon="6.24284">
        <ele>441</ele>
        <time>2021-03-27T16:44:43Z</time>
      </trkpt>
      <trkpt lat="46.2219" lon="6.24291">
        <ele>441</ele>
        <time>2021-03-27T16:44:44Z</time>
      </trkpt>
      <trkpt lat="46.22195" lon="6.24298">
        <ele>441</ele>
        <time>2021-03-27T16:44:45Z</time>
      </trkpt>
      <trkpt lat="46.222" lon="6.24305">
        <ele>441</ele>
        <time>2021-03-27T16:44:46Z</time>
      </trkpt>
      <trkpt lat="46.22205" lon="6.24311">
        <ele>440.8</ele>
        <time>2021-03-27T16:44:47Z</time>
      </trkpt>
      <trkpt lat="46.2221" lon="6.24317">
        <ele>441</ele>
        <time>2021-03-27T16:44:48Z</time>
      </trkpt>
      <trkpt lat="46.22215" lon="6.24323">
        <ele>441</ele>
        <time>2021-03-27T16:44:49Z</time>
      </trkpt>
      <trkpt lat="46.22221" lon="6.24328">
        <ele>441</ele>
        <time>2021-03-27T16:44:50Z</time>
      </trkpt>
      <trkpt lat="46.22226" lon="6.24333">
        <ele>441</ele>
        <time>2021-03-27T16:44:51Z</time>
      </trkpt>
      <trkpt lat="46.22231" lon="6.24338">
        <ele>441</ele>
        <time>2021-03-27T16:44:52Z</time>
      </trkpt>
      <trkpt lat="46.22236" lon="6.24344">
        <ele>441</ele>
        <time>2021-03-27T16:44:53Z</time>
      </trkpt>
      <trkpt lat="46.22242" lon="6.24349">
        <ele>441</ele>
        <time>2021-03-27T16:44:54Z</time>
      </trkpt>
      <trkpt lat="46.22248" lon="6.24354">
        <ele>441</ele>
        <time>2021-03-27T16:44:55Z</time>
      </trkpt>
      <trkpt lat="46.22253" lon="6.2436">
        <ele>441</ele>
        <time>2021-03-27T16:44:56Z</time>
      </trkpt>
      <trkpt lat="46.22259" lon="6.24365">
        <ele>441</ele>
        <time>2021-03-27T16:44:57Z</time>
      </trkpt>
      <trkpt lat="46.22264" lon="6.2437">
        <ele>441</ele>
        <time>2021-03-27T16:44:58Z</time>
      </trkpt>
      <trkpt lat="46.2227" lon="6.24376">
        <ele>441</ele>
        <time>2021-03-27T16:44:59Z</time>
      </trkpt>
      <trkpt lat="46.22275" lon="6.24381">
        <ele>441</ele>
        <time>2021-03-27T16:45:00Z</time>
      </trkpt>
      <trkpt lat="46.22281" lon="6.24386">
        <ele>441</ele>
        <time>2021-03-27T16:45:01Z</time>
      </trkpt>
      <trkpt lat="46.22286" lon="6.24391">
        <ele>441</ele>
        <time>2021-03-27T16:45:02Z</time>
      </trkpt>
      <trkpt lat="46.22292" lon="6.24396">
        <ele>441</ele>
        <time>2021-03-27T16:45:03Z</time>
      </trkpt>
      <trkpt lat="46.22297" lon="6.24401">
        <ele>441.2</ele>
        <time>2021-03-27T16:45:04Z</time>
      </trkpt>
      <trkpt lat="46.22303" lon="6.24406">
        <ele>441.2</ele>
        <time>2021-03-27T16:45:05Z</time>
      </trkpt>
      <trkpt lat="46.22308" lon="6.24411">
        <ele>441.6</ele>
        <time>2021-03-27T16:45:06Z</time>
      </trkpt>
      <trkpt lat="46.22313" lon="6.24416">
        <ele>441.8</ele>
        <time>2021-03-27T16:45:07Z</time>
      </trkpt>
      <trkpt lat="46.22318" lon="6.24421">
        <ele>441.8</ele>
        <time>2021-03-27T16:45:08Z</time>
      </trkpt>
      <trkpt lat="46.22323" lon="6.24426">
        <ele>442</ele>
        <time>2021-03-27T16:45:09Z</time>
      </trkpt>
      <trkpt lat="46.22328" lon="6.24431">
        <ele>442.2</ele>
        <time>2021-03-27T16:45:10Z</time>
      </trkpt>
      <trkpt lat="46.22333" lon="6.24436">
        <ele>442.4</ele>
        <time>2021-03-27T16:45:11Z</time>
      </trkpt>
      <trkpt lat="46.22339" lon="6.24441">
        <ele>442.4</ele>
        <time>2021-03-27T16:45:12Z</time>
      </trkpt>
      <trkpt lat="46.22344" lon="6.24445">
        <ele>442.6</ele>
        <time>2021-03-27T16:45:13Z</time>
      </trkpt>
      <trkpt lat="46.22349" lon="6.2445">
        <ele>442.8</ele>
        <time>2021-03-27T16:45:14Z</time>
      </trkpt>
      <trkpt lat="46.22354" lon="6.24454">
        <ele>442.8</ele>
        <time>2021-03-27T16:45:15Z</time>
      </trkpt>
      <trkpt lat="46.2236" lon="6.24458">
        <ele>443</ele>
        <time>2021-03-27T16:45:16Z</time>
      </trkpt>
      <trkpt lat="46.22365" lon="6.24463">
        <ele>443</ele>
        <time>2021-03-27T16:45:17Z</time>
      </trkpt>
      <trkpt lat="46.22371" lon="6.24467">
        <ele>443.2</ele>
        <time>2021-03-27T16:45:18Z</time>
      </trkpt>
      <trkpt lat="46.22376" lon="6.24471">
        <ele>443.2</ele>
        <time>2021-03-27T16:45:19Z</time>
      </trkpt>
      <trkpt lat="46.22381" lon="6.24475">
        <ele>443.4</ele>
        <time>2021-03-27T16:45:20Z</time>
      </trkpt>
      <trkpt lat="46.22387" lon="6.24479">
        <ele>443.8</ele>
        <time>2021-03-27T16:45:21Z</time>
      </trkpt>
      <trkpt lat="46.22393" lon="6.24483">
        <ele>443.8</ele>
        <time>2021-03-27T16:45:22Z</time>
      </trkpt>
      <trkpt lat="46.22398" lon="6.24487">
        <ele>444</ele>
        <time>2021-03-27T16:45:23Z</time>
      </trkpt>
      <trkpt lat="46.22404" lon="6.24491">
        <ele>444.2</ele>
        <time>2021-03-27T16:45:24Z</time>
      </trkpt>
      <trkpt lat="46.2241" lon="6.24494">
        <ele>444.4</ele>
        <time>2021-03-27T16:45:25Z</time>
      </trkpt>
      <trkpt lat="46.22416" lon="6.24498">
        <ele>444.6</ele>
        <time>2021-03-27T16:45:26Z</time>
      </trkpt>
      <trkpt lat="46.22421" lon="6.24502">
        <ele>444.6</ele>
        <time>2021-03-27T16:45:27Z</time>
      </trkpt>
      <trkpt lat="46.22427" lon="6.24506">
        <ele>444.8</ele>
        <time>2021-03-27T16:45:28Z</time>
      </trkpt>
      <trkpt lat="46.22432" lon="6.24509">
        <ele>445</ele>
        <time>2021-03-27T16:45:29Z</time>
      </trkpt>
      <trkpt lat="46.22437" lon="6.24513">
        <ele>445</ele>
        <time>2021-03-27T16:45:30Z</time>
      </trkpt>
      <trkpt lat="46.22443" lon="6.24517">
        <ele>445</ele>
        <time>2021-03-27T16:45:31Z</time>
      </trkpt>
      <trkpt lat="46.22448" lon="6.24521">
        <ele>445.2</ele>
        <time>2021-03-27T16:45:32Z</time>
      </trkpt>
      <trkpt lat="46.22453" lon="6.24525">
        <ele>445.2</ele>
        <time>2021-03-27T16:45:33Z</time>
      </trkpt>
      <trkpt lat="46.22459" lon="6.24529">
        <ele>445.4</ele>
        <time>2021-03-27T16:45:34Z</time>
      </trkpt>
      <trkpt lat="46.22464" lon="6.24533">
        <ele>445.6</ele>
        <time>2021-03-27T16:45:35Z</time>
      </trkpt>
      <trkpt lat="46.2247" lon="6.24538">
        <ele>445.8</ele>
        <time>2021-03-27T16:45:36Z</time>
      </trkpt>
      <trkpt lat="46.22475" lon="6.24542">
        <ele>445.8</ele>
        <time>2021-03-27T16:45:37Z</time>
      </trkpt>
      <trkpt lat="46.2248" lon="6.24546">
        <ele>445.8</ele>
        <time>2021-03-27T16:45:38Z</time>
      </trkpt>
      <trkpt lat="46.22486" lon="6.2455">
        <ele>446</ele>
        <time>2021-03-27T16:45:39Z</time>
      </trkpt>
      <trkpt lat="46.22491" lon="6.24554">
        <ele>446</ele>
        <time>2021-03-27T16:45:40Z</time>
      </trkpt>
      <trkpt lat="46.22497" lon="6.24558">
        <ele>446.2</ele>
        <time>2021-03-27T16:45:41Z</time>
      </trkpt>
      <trkpt lat="46.22502" lon="6.24562">
        <ele>446.2</ele>
        <time>2021-03-27T16:45:42Z</time>
      </trkpt>
      <trkpt lat="46.22508" lon="6.24565">
        <ele>446.2</ele>
        <time>2021-03-27T16:45:43Z</time>
      </trkpt>
      <trkpt lat="46.22513" lon="6.24568">
        <ele>446.4</ele>
        <time>2021-03-27T16:45:44Z</time>
      </trkpt>
      <trkpt lat="46.22519" lon="6.24571">
        <ele>446.4</ele>
        <time>2021-03-27T16:45:45Z</time>
      </trkpt>
      <trkpt lat="46.22525" lon="6.24574">
        <ele>446.4</ele>
        <time>2021-03-27T16:45:46Z</time>
      </trkpt>
      <trkpt lat="46.22531" lon="6.24577">
        <ele>446.6</ele>
        <time>2021-03-27T16:45:47Z</time>
      </trkpt>
      <trkpt lat="46.22537" lon="6.2458">
        <ele>446.6</ele>
        <time>2021-03-27T16:45:48Z</time>
      </trkpt>
      <trkpt lat="46.22544" lon="6.24583">
        <ele>446.6</ele>
        <time>2021-03-27T16:45:49Z</time>
      </trkpt>
      <trkpt lat="46.2255" lon="6.24586">
        <ele>446.6</ele>
        <time>2021-03-27T16:45:50Z</time>
      </trkpt>
      <trkpt lat="46.22556" lon="6.24589">
        <ele>446.6</ele>
        <time>2021-03-27T16:45:51Z</time>
      </trkpt>
      <trkpt lat="46.22562" lon="6.24592">
        <ele>446.8</ele>
        <time>2021-03-27T16:45:52Z</time>
      </trkpt>
      <trkpt lat="46.22568" lon="6.24596">
        <ele>446.8</ele>
        <time>2021-03-27T16:45:53Z</time>
      </trkpt>
      <trkpt lat="46.22574" lon="6.24598">
        <ele>446.8</ele>
        <time>2021-03-27T16:45:54Z</time>
      </trkpt>
      <trkpt lat="46.2258" lon="6.24601">
        <ele>446.8</ele>
        <time>2021-03-27T16:45:55Z</time>
      </trkpt>
      <trkpt lat="46.22586" lon="6.24604">
        <ele>446.8</ele>
        <time>2021-03-27T16:45:56Z</time>
      </trkpt>
      <trkpt lat="46.22592" lon="6.24607">
        <ele>446.8</ele>
        <time>2021-03-27T16:45:57Z</time>
      </trkpt>
      <trkpt lat="46.22599" lon="6.24611">
        <ele>446.8</ele>
        <time>2021-03-27T16:45:58Z</time>
      </trkpt>
      <trkpt lat="46.22605" lon="6.24613">
        <ele>446.8</ele>
        <time>2021-03-27T16:45:59Z</time>
      </trkpt>
      <trkpt lat="46.22611" lon="6.24617">
        <ele>446.8</ele>
        <time>2021-03-27T16:46:00Z</time>
      </trkpt>
      <trkpt lat="46.22617" lon="6.2462">
        <ele>446.8</ele>
        <time>2021-03-27T16:46:01Z</time>
      </trkpt>
      <trkpt lat="46.22623" lon="6.24623">
        <ele>446.8</ele>
        <time>2021-03-27T16:46:02Z</time>
      </trkpt>
      <trkpt lat="46.2263" lon="6.24626">
        <ele>446.6</ele>
        <time>2021-03-27T16:46:03Z</time>
      </trkpt>
      <trkpt lat="46.22636" lon="6.24629">
        <ele>446.8</ele>
        <time>2021-03-27T16:46:04Z</time>
      </trkpt>
      <trkpt lat="46.22641" lon="6.24632">
        <ele>446.8</ele>
        <time>2021-03-27T16:46:05Z</time>
      </trkpt>
      <trkpt lat="46.22647" lon="6.24636">
        <ele>446.8</ele>
        <time>2021-03-27T16:46:06Z</time>
      </trkpt>
      <trkpt lat="46.22653" lon="6.24639">
        <ele>446.8</ele>
        <time>2021-03-27T16:46:07Z</time>
      </trkpt>
      <trkpt lat="46.22659" lon="6.24643">
        <ele>446.8</ele>
        <time>2021-03-27T16:46:08Z</time>
      </trkpt>
      <trkpt lat="46.22665" lon="6.24646">
        <ele>446.8</ele>
        <time>2021-03-27T16:46:09Z</time>
      </trkpt>
      <trkpt lat="46.2267" lon="6.2465">
        <ele>446.8</ele>
        <time>2021-03-27T16:46:10Z</time>
      </trkpt>
      <trkpt lat="46.22676" lon="6.24653">
        <ele>446.8</ele>
        <time>2021-03-27T16:46:11Z</time>
      </trkpt>
      <trkpt lat="46.22681" lon="6.24657">
        <ele>446.8</ele>
        <time>2021-03-27T16:46:12Z</time>
      </trkpt>
      <trkpt lat="46.22686" lon="6.24661">
        <ele>446.8</ele>
        <time>2021-03-27T16:46:13Z</time>
      </trkpt>
      <trkpt lat="46.22691" lon="6.24666">
        <ele>447</ele>
        <time>2021-03-27T16:46:14Z</time>
      </trkpt>
      <trkpt lat="46.22694" lon="6.24672">
        <ele>446.8</ele>
        <time>2021-03-27T16:46:15Z</time>
      </trkpt>
      <trkpt lat="46.22697" lon="6.24679">
        <ele>447</ele>
        <time>2021-03-27T16:46:16Z</time>
      </trkpt>
      <trkpt lat="46.22697" lon="6.24686">
        <ele>447</ele>
        <time>2021-03-27T16:46:17Z</time>
      </trkpt>
      <trkpt lat="46.22696" lon="6.24692">
        <ele>447</ele>
        <time>2021-03-27T16:46:18Z</time>
      </trkpt>
      <trkpt lat="46.22694" lon="6.24699">
        <ele>447.2</ele>
        <time>2021-03-27T16:46:19Z</time>
      </trkpt>
      <trkpt lat="46.22692" lon="6.24705">
        <ele>447.2</ele>
        <time>2021-03-27T16:46:20Z</time>
      </trkpt>
      <trkpt lat="46.22689" lon="6.24712">
        <ele>447.2</ele>
        <time>2021-03-27T16:46:21Z</time>
      </trkpt>
      <trkpt lat="46.22687" lon="6.24718">
        <ele>447.4</ele>
        <time>2021-03-27T16:46:22Z</time>
      </trkpt>
      <trkpt lat="46.22684" lon="6.24725">
        <ele>447.4</ele>
        <time>2021-03-27T16:46:23Z</time>
      </trkpt>
      <trkpt lat="46.22682" lon="6.24731">
        <ele>447.8</ele>
        <time>2021-03-27T16:46:24Z</time>
      </trkpt>
      <trkpt lat="46.22679" lon="6.24737">
        <ele>448</ele>
        <time>2021-03-27T16:46:25Z</time>
      </trkpt>
      <trkpt lat="46.22677" lon="6.24743">
        <ele>448</ele>
        <time>2021-03-27T16:46:26Z</time>
      </trkpt>
      <trkpt lat="46.22675" lon="6.2475">
        <ele>448.2</ele>
        <time>2021-03-27T16:46:27Z</time>
      </trkpt>
      <trkpt lat="46.22672" lon="6.24756">
        <ele>448.2</ele>
        <time>2021-03-27T16:46:28Z</time>
      </trkpt>
      <trkpt lat="46.2267" lon="6.24762">
        <ele>448.4</ele>
        <time>2021-03-27T16:46:29Z</time>
      </trkpt>
      <trkpt lat="46.22667" lon="6.24768">
        <ele>448.4</ele>
        <time>2021-03-27T16:46:30Z</time>
      </trkpt>
      <trkpt lat="46.22665" lon="6.24774">
        <ele>448.6</ele>
        <time>2021-03-27T16:46:31Z</time>
      </trkpt>
      <trkpt lat="46.22662" lon="6.2478">
        <ele>448.6</ele>
        <time>2021-03-27T16:46:32Z</time>
      </trkpt>
      <trkpt lat="46.2266" lon="6.24786">
        <ele>448.8</ele>
        <time>2021-03-27T16:46:33Z</time>
      </trkpt>
      <trkpt lat="46.22657" lon="6.24792">
        <ele>448.6</ele>
        <time>2021-03-27T16:46:34Z</time>
      </trkpt>
      <trkpt lat="46.22655" lon="6.24798">
        <ele>448.8</ele>
        <time>2021-03-27T16:46:35Z</time>
      </trkpt>
      <trkpt lat="46.22652" lon="6.24804">
        <ele>449</ele>
        <time>2021-03-27T16:46:36Z</time>
      </trkpt>
      <trkpt lat="46.2265" lon="6.2481">
        <ele>449.2</ele>
        <time>2021-03-27T16:46:37Z</time>
      </trkpt>
      <trkpt lat="46.22647" lon="6.24816">
        <ele>449.2</ele>
        <time>2021-03-27T16:46:38Z</time>
      </trkpt>
      <trkpt lat="46.22645" lon="6.24821">
        <ele>449.4</ele>
        <time>2021-03-27T16:46:39Z</time>
      </trkpt>
      <trkpt lat="46.22642" lon="6.24827">
        <ele>449.6</ele>
        <time>2021-03-27T16:46:40Z</time>
      </trkpt>
      <trkpt lat="46.22639" lon="6.24832">
        <ele>449.8</ele>
        <time>2021-03-27T16:46:41Z</time>
      </trkpt>
      <trkpt lat="46.22636" lon="6.24838">
        <ele>450</ele>
        <time>2021-03-27T16:46:42Z</time>
      </trkpt>
      <trkpt lat="46.22633" lon="6.24844">
        <ele>450.2</ele>
        <time>2021-03-27T16:46:43Z</time>
      </trkpt>
      <trkpt lat="46.2263" lon="6.24849">
        <ele>450.4</ele>
        <time>2021-03-27T16:46:44Z</time>
      </trkpt>
      <trkpt lat="46.22626" lon="6.24854">
        <ele>450.4</ele>
        <time>2021-03-27T16:46:45Z</time>
      </trkpt>
      <trkpt lat="46.22622" lon="6.24859">
        <ele>450.6</ele>
        <time>2021-03-27T16:46:46Z</time>
      </trkpt>
      <trkpt lat="46.22619" lon="6.24864">
        <ele>450.8</ele>
        <time>2021-03-27T16:46:47Z</time>
      </trkpt>
      <trkpt lat="46.22615" lon="6.24869">
        <ele>451</ele>
        <time>2021-03-27T16:46:48Z</time>
      </trkpt>
      <trkpt lat="46.22611" lon="6.24874">
        <ele>451</ele>
        <time>2021-03-27T16:46:49Z</time>
      </trkpt>
      <trkpt lat="46.22607" lon="6.24879">
        <ele>451.2</ele>
        <time>2021-03-27T16:46:50Z</time>
      </trkpt>
      <trkpt lat="46.22603" lon="6.24884">
        <ele>451.4</ele>
        <time>2021-03-27T16:46:51Z</time>
      </trkpt>
      <trkpt lat="46.22598" lon="6.24889">
        <ele>451.6</ele>
        <time>2021-03-27T16:46:52Z</time>
      </trkpt>
      <trkpt lat="46.22593" lon="6.24893">
        <ele>451.6</ele>
        <time>2021-03-27T16:46:53Z</time>
      </trkpt>
      <trkpt lat="46.22589" lon="6.24898">
        <ele>451.8</ele>
        <time>2021-03-27T16:46:54Z</time>
      </trkpt>
      <trkpt lat="46.22584" lon="6.24902">
        <ele>451.6</ele>
        <time>2021-03-27T16:46:55Z</time>
      </trkpt>
      <trkpt lat="46.22579" lon="6.24906">
        <ele>451.8</ele>
        <time>2021-03-27T16:46:56Z</time>
      </trkpt>
      <trkpt lat="46.22573" lon="6.24909">
        <ele>451.8</ele>
        <time>2021-03-27T16:46:57Z</time>
      </trkpt>
      <trkpt lat="46.22568" lon="6.24913">
        <ele>451.8</ele>
        <time>2021-03-27T16:46:58Z</time>
      </trkpt>
      <trkpt lat="46.22562" lon="6.24916">
        <ele>451.8</ele>
        <time>2021-03-27T16:46:59Z</time>
      </trkpt>
      <trkpt lat="46.22557" lon="6.2492">
        <ele>452</ele>
        <time>2021-03-27T16:47:00Z</time>
      </trkpt>
      <trkpt lat="46.22551" lon="6.24924">
        <ele>452</ele>
        <time>2021-03-27T16:47:01Z</time>
      </trkpt>
      <trkpt lat="46.22546" lon="6.24927">
        <ele>452</ele>
        <time>2021-03-27T16:47:02Z</time>
      </trkpt>
      <trkpt lat="46.2254" lon="6.24931">
        <ele>452</ele>
        <time>2021-03-27T16:47:03Z</time>
      </trkpt>
      <trkpt lat="46.22534" lon="6.24935">
        <ele>452</ele>
        <time>2021-03-27T16:47:04Z</time>
      </trkpt>
      <trkpt lat="46.22528" lon="6.24939">
        <ele>452</ele>
        <time>2021-03-27T16:47:05Z</time>
      </trkpt>
      <trkpt lat="46.22522" lon="6.24943">
        <ele>452</ele>
        <time>2021-03-27T16:47:06Z</time>
      </trkpt>
      <trkpt lat="46.22516" lon="6.24948">
        <ele>452</ele>
        <time>2021-03-27T16:47:07Z</time>
      </trkpt>
      <trkpt lat="46.2251" lon="6.24952">
        <ele>452</ele>
        <time>2021-03-27T16:47:08Z</time>
      </trkpt>
      <trkpt lat="46.22504" lon="6.24956">
        <ele>452</ele>
        <time>2021-03-27T16:47:09Z</time>
      </trkpt>
      <trkpt lat="46.22498" lon="6.2496">
        <ele>451.8</ele>
        <time>2021-03-27T16:47:10Z</time>
      </trkpt>
      <trkpt lat="46.22492" lon="6.24964">
        <ele>451.8</ele>
        <time>2021-03-27T16:47:11Z</time>
      </trkpt>
      <trkpt lat="46.22486" lon="6.24968">
        <ele>451.8</ele>
        <time>2021-03-27T16:47:12Z</time>
      </trkpt>
      <trkpt lat="46.2248" lon="6.24973">
        <ele>451.8</ele>
        <time>2021-03-27T16:47:13Z</time>
      </trkpt>
      <trkpt lat="46.22474" lon="6.24977">
        <ele>451.8</ele>
        <time>2021-03-27T16:47:14Z</time>
      </trkpt>
      <trkpt lat="46.22468" lon="6.24981">
        <ele>451.8</ele>
        <time>2021-03-27T16:47:15Z</time>
      </trkpt>
      <trkpt lat="46.22461" lon="6.24985">
        <ele>451.6</ele>
        <time>2021-03-27T16:47:16Z</time>
      </trkpt>
      <trkpt lat="46.22455" lon="6.24989">
        <ele>451.8</ele>
        <time>2021-03-27T16:47:17Z</time>
      </trkpt>
      <trkpt lat="46.22449" lon="6.24994">
        <ele>451.6</ele>
        <time>2021-03-27T16:47:18Z</time>
      </trkpt>
      <trkpt lat="46.22443" lon="6.24998">
        <ele>451.6</ele>
        <time>2021-03-27T16:47:19Z</time>
      </trkpt>
      <trkpt lat="46.22436" lon="6.25002">
        <ele>451.6</ele>
        <time>2021-03-27T16:47:20Z</time>
      </trkpt>
      <trkpt lat="46.2243" lon="6.25006">
        <ele>451.6</ele>
        <time>2021-03-27T16:47:21Z</time>
      </trkpt>
      <trkpt lat="46.22423" lon="6.2501">
        <ele>451.8</ele>
        <time>2021-03-27T16:47:22Z</time>
      </trkpt>
      <trkpt lat="46.22416" lon="6.25014">
        <ele>451.6</ele>
        <time>2021-03-27T16:47:23Z</time>
      </trkpt>
      <trkpt lat="46.22409" lon="6.25018">
        <ele>451.6</ele>
        <time>2021-03-27T16:47:24Z</time>
      </trkpt>
      <trkpt lat="46.22402" lon="6.25022">
        <ele>451.6</ele>
        <time>2021-03-27T16:47:25Z</time>
      </trkpt>
      <trkpt lat="46.22396" lon="6.25027">
        <ele>451.6</ele>
        <time>2021-03-27T16:47:26Z</time>
      </trkpt>
      <trkpt lat="46.22389" lon="6.25031">
        <ele>451.8</ele>
        <time>2021-03-27T16:47:27Z</time>
      </trkpt>
      <trkpt lat="46.22382" lon="6.25036">
        <ele>451.8</ele>
        <time>2021-03-27T16:47:28Z</time>
      </trkpt>
      <trkpt lat="46.22376" lon="6.25041">
        <ele>451.8</ele>
        <time>2021-03-27T16:47:29Z</time>
      </trkpt>
      <trkpt lat="46.22369" lon="6.25046">
        <ele>451.8</ele>
        <time>2021-03-27T16:47:30Z</time>
      </trkpt>
      <trkpt lat="46.22362" lon="6.2505">
        <ele>451.8</ele>
        <time>2021-03-27T16:47:31Z</time>
      </trkpt>
      <trkpt lat="46.22356" lon="6.25054">
        <ele>451.8</ele>
        <time>2021-03-27T16:47:32Z</time>
      </trkpt>
      <trkpt lat="46.22349" lon="6.25059">
        <ele>451.8</ele>
        <time>2021-03-27T16:47:33Z</time>
      </trkpt>
      <trkpt lat="46.22342" lon="6.25063">
        <ele>452</ele>
        <time>2021-03-27T16:47:34Z</time>
      </trkpt>
      <trkpt lat="46.22336" lon="6.25068">
        <ele>451.8</ele>
        <time>2021-03-27T16:47:35Z</time>
      </trkpt>
      <trkpt lat="46.22329" lon="6.25072">
        <ele>452</ele>
        <time>2021-03-27T16:47:36Z</time>
      </trkpt>
      <trkpt lat="46.22323" lon="6.25077">
        <ele>452</ele>
        <time>2021-03-27T16:47:37Z</time>
      </trkpt>
      <trkpt lat="46.22316" lon="6.25081">
        <ele>452</ele>
        <time>2021-03-27T16:47:38Z</time>
      </trkpt>
      <trkpt lat="46.22309" lon="6.25086">
        <ele>452.2</ele>
        <time>2021-03-27T16:47:39Z</time>
      </trkpt>
      <trkpt lat="46.22303" lon="6.2509">
        <ele>452</ele>
        <time>2021-03-27T16:47:40Z</time>
      </trkpt>
      <trkpt lat="46.22296" lon="6.25095">
        <ele>452.2</ele>
        <time>2021-03-27T16:47:41Z</time>
      </trkpt>
      <trkpt lat="46.2229" lon="6.251">
        <ele>452.2</ele>
        <time>2021-03-27T16:47:42Z</time>
      </trkpt>
      <trkpt lat="46.22283" lon="6.25105">
        <ele>452</ele>
        <time>2021-03-27T16:47:43Z</time>
      </trkpt>
      <trkpt lat="46.22277" lon="6.25109">
        <ele>452.2</ele>
        <time>2021-03-27T16:47:44Z</time>
      </trkpt>
      <trkpt lat="46.2227" lon="6.25113">
        <ele>452.2</ele>
        <time>2021-03-27T16:47:45Z</time>
      </trkpt>
      <trkpt lat="46.22264" lon="6.25118">
        <ele>452.2</ele>
        <time>2021-03-27T16:47:46Z</time>
      </trkpt>
      <trkpt lat="46.22257" lon="6.25122">
        <ele>452.2</ele>
        <time>2021-03-27T16:47:47Z</time>
      </trkpt>
      <trkpt lat="46.22251" lon="6.25127">
        <ele>452.2</ele>
        <time>2021-03-27T16:47:48Z</time>
      </trkpt>
      <trkpt lat="46.22244" lon="6.25131">
        <ele>452.2</ele>
        <time>2021-03-27T16:47:49Z</time>
      </trkpt>
      <trkpt lat="46.22238" lon="6.25135">
        <ele>452.2</ele>
        <time>2021-03-27T16:47:50Z</time>
      </trkpt>
      <trkpt lat="46.22231" lon="6.25139">
        <ele>452.2</ele>
        <time>2021-03-27T16:47:51Z</time>
      </trkpt>
      <trkpt lat="46.22224" lon="6.25143">
        <ele>452.2</ele>
        <time>2021-03-27T16:47:52Z</time>
      </trkpt>
      <trkpt lat="46.22218" lon="6.25147">
        <ele>452.2</ele>
        <time>2021-03-27T16:47:53Z</time>
      </trkpt>
      <trkpt lat="46.22211" lon="6.2515">
        <ele>452.2</ele>
        <time>2021-03-27T16:47:54Z</time>
      </trkpt>
      <trkpt lat="46.22204" lon="6.25154">
        <ele>452</ele>
        <time>2021-03-27T16:47:55Z</time>
      </trkpt>
      <trkpt lat="46.22197" lon="6.25158">
        <ele>452</ele>
        <time>2021-03-27T16:47:56Z</time>
      </trkpt>
      <trkpt lat="46.2219" lon="6.25164">
        <ele>452.2</ele>
        <time>2021-03-27T16:47:57Z</time>
      </trkpt>
      <trkpt lat="46.22184" lon="6.25169">
        <ele>452.2</ele>
        <time>2021-03-27T16:47:58Z</time>
      </trkpt>
      <trkpt lat="46.22177" lon="6.25174">
        <ele>452</ele>
        <time>2021-03-27T16:47:59Z</time>
      </trkpt>
      <trkpt lat="46.22171" lon="6.25179">
        <ele>452.2</ele>
        <time>2021-03-27T16:48:00Z</time>
      </trkpt>
      <trkpt lat="46.22164" lon="6.25184">
        <ele>452.2</ele>
        <time>2021-03-27T16:48:01Z</time>
      </trkpt>
      <trkpt lat="46.22157" lon="6.25189">
        <ele>452.2</ele>
        <time>2021-03-27T16:48:02Z</time>
      </trkpt>
      <trkpt lat="46.22151" lon="6.25194">
        <ele>452.2</ele>
        <time>2021-03-27T16:48:03Z</time>
      </trkpt>
      <trkpt lat="46.22144" lon="6.25198">
        <ele>452.2</ele>
        <time>2021-03-27T16:48:04Z</time>
      </trkpt>
      <trkpt lat="46.22137" lon="6.25203">
        <ele>452.2</ele>
        <time>2021-03-27T16:48:05Z</time>
      </trkpt>
      <trkpt lat="46.22131" lon="6.25208">
        <ele>452.2</ele>
        <time>2021-03-27T16:48:06Z</time>
      </trkpt>
      <trkpt lat="46.22124" lon="6.25212">
        <ele>452.2</ele>
        <time>2021-03-27T16:48:07Z</time>
      </trkpt>
      <trkpt lat="46.22118" lon="6.25216">
        <ele>452.4</ele>
        <time>2021-03-27T16:48:08Z</time>
      </trkpt>
      <trkpt lat="46.22111" lon="6.25221">
        <ele>452.4</ele>
        <time>2021-03-27T16:48:09Z</time>
      </trkpt>
      <trkpt lat="46.22105" lon="6.25225">
        <ele>452.4</ele>
        <time>2021-03-27T16:48:10Z</time>
      </trkpt>
      <trkpt lat="46.22099" lon="6.25229">
        <ele>452.4</ele>
        <time>2021-03-27T16:48:11Z</time>
      </trkpt>
      <trkpt lat="46.22093" lon="6.25233">
        <ele>452.6</ele>
        <time>2021-03-27T16:48:12Z</time>
      </trkpt>
      <trkpt lat="46.22087" lon="6.25237">
        <ele>452.6</ele>
        <time>2021-03-27T16:48:13Z</time>
      </trkpt>
      <trkpt lat="46.22081" lon="6.2524">
        <ele>452.6</ele>
        <time>2021-03-27T16:48:14Z</time>
      </trkpt>
      <trkpt lat="46.22076" lon="6.25244">
        <ele>452.8</ele>
        <time>2021-03-27T16:48:15Z</time>
      </trkpt>
      <trkpt lat="46.22071" lon="6.25247">
        <ele>453</ele>
        <time>2021-03-27T16:48:16Z</time>
      </trkpt>
      <trkpt lat="46.22066" lon="6.2525">
        <ele>453.2</ele>
        <time>2021-03-27T16:48:17Z</time>
      </trkpt>
      <trkpt lat="46.22061" lon="6.25253">
        <ele>453.4</ele>
        <time>2021-03-27T16:48:18Z</time>
      </trkpt>
      <trkpt lat="46.22056" lon="6.25257">
        <ele>453.8</ele>
        <time>2021-03-27T16:48:19Z</time>
      </trkpt>
      <trkpt lat="46.22051" lon="6.2526">
        <ele>454</ele>
        <time>2021-03-27T16:48:20Z</time>
      </trkpt>
      <trkpt lat="46.22046" lon="6.25263">
        <ele>454.4</ele>
        <time>2021-03-27T16:48:21Z</time>
      </trkpt>
      <trkpt lat="46.22041" lon="6.25266">
        <ele>454.8</ele>
        <time>2021-03-27T16:48:22Z</time>
      </trkpt>
      <trkpt lat="46.22036" lon="6.25269">
        <ele>455</ele>
        <time>2021-03-27T16:48:23Z</time>
      </trkpt>
      <trkpt lat="46.22031" lon="6.25272">
        <ele>455.4</ele>
        <time>2021-03-27T16:48:24Z</time>
      </trkpt>
      <trkpt lat="46.22026" lon="6.25276">
        <ele>455.6</ele>
        <time>2021-03-27T16:48:25Z</time>
      </trkpt>
      <trkpt lat="46.22021" lon="6.25279">
        <ele>456</ele>
        <time>2021-03-27T16:48:26Z</time>
      </trkpt>
      <trkpt lat="46.22016" lon="6.25282">
        <ele>456.2</ele>
        <time>2021-03-27T16:48:27Z</time>
      </trkpt>
      <trkpt lat="46.22011" lon="6.25285">
        <ele>456.4</ele>
        <time>2021-03-27T16:48:28Z</time>
      </trkpt>
      <trkpt lat="46.22006" lon="6.25289">
        <ele>456.6</ele>
        <time>2021-03-27T16:48:29Z</time>
      </trkpt>
      <trkpt lat="46.22001" lon="6.25292">
        <ele>456.6</ele>
        <time>2021-03-27T16:48:30Z</time>
      </trkpt>
      <trkpt lat="46.21996" lon="6.25296">
        <ele>456.6</ele>
        <time>2021-03-27T16:48:31Z</time>
      </trkpt>
      <trkpt lat="46.2199" lon="6.25299">
        <ele>456.6</ele>
        <time>2021-03-27T16:48:32Z</time>
      </trkpt>
      <trkpt lat="46.21985" lon="6.25302">
        <ele>456.8</ele>
        <time>2021-03-27T16:48:33Z</time>
      </trkpt>
      <trkpt lat="46.2198" lon="6.25305">
        <ele>457.2</ele>
        <time>2021-03-27T16:48:34Z</time>
      </trkpt>
      <trkpt lat="46.21975" lon="6.25309">
        <ele>457.2</ele>
        <time>2021-03-27T16:48:35Z</time>
      </trkpt>
      <trkpt lat="46.2197" lon="6.25312">
        <ele>457.4</ele>
        <time>2021-03-27T16:48:36Z</time>
      </trkpt>
      <trkpt lat="46.21965" lon="6.25315">
        <ele>457.8</ele>
        <time>2021-03-27T16:48:37Z</time>
      </trkpt>
      <trkpt lat="46.2196" lon="6.25319">
        <ele>457.8</ele>
        <time>2021-03-27T16:48:38Z</time>
      </trkpt>
      <trkpt lat="46.21954" lon="6.25322">
        <ele>458</ele>
        <time>2021-03-27T16:48:39Z</time>
      </trkpt>
      <trkpt lat="46.21949" lon="6.25326">
        <ele>458.2</ele>
        <time>2021-03-27T16:48:40Z</time>
      </trkpt>
      <trkpt lat="46.21944" lon="6.25329">
        <ele>458.4</ele>
        <time>2021-03-27T16:48:41Z</time>
      </trkpt>
      <trkpt lat="46.21938" lon="6.25333">
        <ele>458.4</ele>
        <time>2021-03-27T16:48:42Z</time>
      </trkpt>
      <trkpt lat="46.21933" lon="6.25336">
        <ele>458.8</ele>
        <time>2021-03-27T16:48:43Z</time>
      </trkpt>
      <trkpt lat="46.21927" lon="6.2534">
        <ele>458.8</ele>
        <time>2021-03-27T16:48:44Z</time>
      </trkpt>
      <trkpt lat="46.21922" lon="6.25343">
        <ele>459</ele>
        <time>2021-03-27T16:48:45Z</time>
      </trkpt>
      <trkpt lat="46.21916" lon="6.25346">
        <ele>459.2</ele>
        <time>2021-03-27T16:48:46Z</time>
      </trkpt>
      <trkpt lat="46.2191" lon="6.25348">
        <ele>459.2</ele>
        <time>2021-03-27T16:48:47Z</time>
      </trkpt>
      <trkpt lat="46.21904" lon="6.2535">
        <ele>459.4</ele>
        <time>2021-03-27T16:48:48Z</time>
      </trkpt>
      <trkpt lat="46.21898" lon="6.25352">
        <ele>459.4</ele>
        <time>2021-03-27T16:48:49Z</time>
      </trkpt>
      <trkpt lat="46.21892" lon="6.25353">
        <ele>459.6</ele>
        <time>2021-03-27T16:48:50Z</time>
      </trkpt>
      <trkpt lat="46.21886" lon="6.25355">
        <ele>459.6</ele>
        <time>2021-03-27T16:48:51Z</time>
      </trkpt>
      <trkpt lat="46.2188" lon="6.25355">
        <ele>459.8</ele>
        <time>2021-03-27T16:48:52Z</time>
      </trkpt>
      <trkpt lat="46.21873" lon="6.25355">
        <ele>459.8</ele>
        <time>2021-03-27T16:48:53Z</time>
      </trkpt>
      <trkpt lat="46.21867" lon="6.25354">
        <ele>459.8</ele>
        <time>2021-03-27T16:48:54Z</time>
      </trkpt>
      <trkpt lat="46.2186" lon="6.25353">
        <ele>459.8</ele>
        <time>2021-03-27T16:48:55Z</time>
      </trkpt>
      <trkpt lat="46.21853" lon="6.25351">
        <ele>460</ele>
        <time>2021-03-27T16:48:56Z</time>
      </trkpt>
      <trkpt lat="46.21846" lon="6.25348">
        <ele>459.8</ele>
        <time>2021-03-27T16:48:57Z</time>
      </trkpt>
      <trkpt lat="46.21839" lon="6.25346">
        <ele>459.8</ele>
        <time>2021-03-27T16:48:58Z</time>
      </trkpt>
      <trkpt lat="46.21832" lon="6.25344">
        <ele>459.8</ele>
        <time>2021-03-27T16:48:59Z</time>
      </trkpt>
      <trkpt lat="46.21824" lon="6.25341">
        <ele>459.8</ele>
        <time>2021-03-27T16:49:00Z</time>
      </trkpt>
      <trkpt lat="46.21816" lon="6.25338">
        <ele>459.8</ele>
        <time>2021-03-27T16:49:01Z</time>
      </trkpt>
      <trkpt lat="46.21809" lon="6.25336">
        <ele>459.8</ele>
        <time>2021-03-27T16:49:02Z</time>
      </trkpt>
      <trkpt lat="46.21801" lon="6.25333">
        <ele>460</ele>
        <time>2021-03-27T16:49:03Z</time>
      </trkpt>
      <trkpt lat="46.21793" lon="6.2533">
        <ele>459.8</ele>
        <time>2021-03-27T16:49:04Z</time>
      </trkpt>
      <trkpt lat="46.21786" lon="6.25327">
        <ele>459.8</ele>
        <time>2021-03-27T16:49:05Z</time>
      </trkpt>
      <trkpt lat="46.21778" lon="6.25324">
        <ele>459.6</ele>
        <time>2021-03-27T16:49:06Z</time>
      </trkpt>
      <trkpt lat="46.2177" lon="6.25321">
        <ele>459.6</ele>
        <time>2021-03-27T16:49:07Z</time>
      </trkpt>
      <trkpt lat="46.21763" lon="6.25317">
        <ele>459.4</ele>
        <time>2021-03-27T16:49:08Z</time>
      </trkpt>
      <trkpt lat="46.21755" lon="6.25314">
        <ele>459.4</ele>
        <time>2021-03-27T16:49:09Z</time>
      </trkpt>
      <trkpt lat="46.21748" lon="6.2531">
        <ele>459</ele>
        <time>2021-03-27T16:49:10Z</time>
      </trkpt>
      <trkpt lat="46.21741" lon="6.25306">
        <ele>459</ele>
        <time>2021-03-27T16:49:11Z</time>
      </trkpt>
      <trkpt lat="46.21733" lon="6.25301">
        <ele>458.8</ele>
        <time>2021-03-27T16:49:12Z</time>
      </trkpt>
      <trkpt lat="46.21725" lon="6.25295">
        <ele>458.8</ele>
        <time>2021-03-27T16:49:13Z</time>
      </trkpt>
      <trkpt lat="46.21717" lon="6.25289">
        <ele>458.4</ele>
        <time>2021-03-27T16:49:14Z</time>
      </trkpt>
      <trkpt lat="46.2171" lon="6.25283">
        <ele>458.2</ele>
        <time>2021-03-27T16:49:15Z</time>
      </trkpt>
      <trkpt lat="46.21702" lon="6.25277">
        <ele>457.8</ele>
        <time>2021-03-27T16:49:16Z</time>
      </trkpt>
      <trkpt lat="46.21695" lon="6.25271">
        <ele>457.8</ele>
        <time>2021-03-27T16:49:17Z</time>
      </trkpt>
      <trkpt lat="46.21687" lon="6.25265">
        <ele>457.6</ele>
        <time>2021-03-27T16:49:18Z</time>
      </trkpt>
      <trkpt lat="46.2168" lon="6.25257">
        <ele>457.4</ele>
        <time>2021-03-27T16:49:19Z</time>
      </trkpt>
      <trkpt lat="46.21673" lon="6.25249">
        <ele>457.4</ele>
        <time>2021-03-27T16:49:20Z</time>
      </trkpt>
      <trkpt lat="46.21667" lon="6.25241">
        <ele>457.2</ele>
        <time>2021-03-27T16:49:21Z</time>
      </trkpt>
      <trkpt lat="46.21661" lon="6.25232">
        <ele>457.2</ele>
        <time>2021-03-27T16:49:22Z</time>
      </trkpt>
      <trkpt lat="46.21655" lon="6.25224">
        <ele>456.6</ele>
        <time>2021-03-27T16:49:23Z</time>
      </trkpt>
      <trkpt lat="46.21648" lon="6.25214">
        <ele>456.4</ele>
        <time>2021-03-27T16:49:24Z</time>
      </trkpt>
      <trkpt lat="46.21641" lon="6.25205">
        <ele>456.4</ele>
        <time>2021-03-27T16:49:25Z</time>
      </trkpt>
      <trkpt lat="46.21635" lon="6.25196">
        <ele>455.8</ele>
        <time>2021-03-27T16:49:26Z</time>
      </trkpt>
      <trkpt lat="46.21628" lon="6.25187">
        <ele>455.8</ele>
        <time>2021-03-27T16:49:27Z</time>
      </trkpt>
      <trkpt lat="46.21622" lon="6.25178">
        <ele>455.4</ele>
        <time>2021-03-27T16:49:28Z</time>
      </trkpt>
      <trkpt lat="46.21615" lon="6.25169">
        <ele>455.4</ele>
        <time>2021-03-27T16:49:29Z</time>
      </trkpt>
      <trkpt lat="46.21601" lon="6.25153">
        <ele>455</ele>
        <time>2021-03-27T16:49:31Z</time>
      </trkpt>
      <trkpt lat="46.21595" lon="6.25146">
        <ele>455</ele>
        <time>2021-03-27T16:49:32Z</time>
      </trkpt>
      <trkpt lat="46.21581" lon="6.25132">
        <ele>454.2</ele>
        <time>2021-03-27T16:49:34Z</time>
      </trkpt>
      <trkpt lat="46.21574" lon="6.25126">
        <ele>454.2</ele>
        <time>2021-03-27T16:49:35Z</time>
      </trkpt>
      <trkpt lat="46.21567" lon="6.25119">
        <ele>454</ele>
        <time>2021-03-27T16:49:36Z</time>
      </trkpt>
      <trkpt lat="46.21554" lon="6.25106">
        <ele>453.8</ele>
        <time>2021-03-27T16:49:38Z</time>
      </trkpt>
      <trkpt lat="46.21548" lon="6.251">
        <ele>453.6</ele>
        <time>2021-03-27T16:49:39Z</time>
      </trkpt>
      <trkpt lat="46.21535" lon="6.25088">
        <ele>453.6</ele>
        <time>2021-03-27T16:49:41Z</time>
      </trkpt>
      <trkpt lat="46.21528" lon="6.25082">
        <ele>453.6</ele>
        <time>2021-03-27T16:49:42Z</time>
      </trkpt>
      <trkpt lat="46.21521" lon="6.25076">
        <ele>453.6</ele>
        <time>2021-03-27T16:49:43Z</time>
      </trkpt>
      <trkpt lat="46.21508" lon="6.25066">
        <ele>453.6</ele>
        <time>2021-03-27T16:49:45Z</time>
      </trkpt>
      <trkpt lat="46.21502" lon="6.25062">
        <ele>453.4</ele>
        <time>2021-03-27T16:49:46Z</time>
      </trkpt>
      <trkpt lat="46.21496" lon="6.25059">
        <ele>453.4</ele>
        <time>2021-03-27T16:49:47Z</time>
      </trkpt>
      <trkpt lat="46.21489" lon="6.25059">
        <ele>453.4</ele>
        <time>2021-03-27T16:49:48Z</time>
      </trkpt>
      <trkpt lat="46.21484" lon="6.25063">
        <ele>453.4</ele>
        <time>2021-03-27T16:49:49Z</time>
      </trkpt>
      <trkpt lat="46.21479" lon="6.25068">
        <ele>453.2</ele>
        <time>2021-03-27T16:49:50Z</time>
      </trkpt>
      <trkpt lat="46.21476" lon="6.25074">
        <ele>453.4</ele>
        <time>2021-03-27T16:49:51Z</time>
      </trkpt>
      <trkpt lat="46.21474" lon="6.25082">
        <ele>453.4</ele>
        <time>2021-03-27T16:49:52Z</time>
      </trkpt>
      <trkpt lat="46.21472" lon="6.25089">
        <ele>453.2</ele>
        <time>2021-03-27T16:49:53Z</time>
      </trkpt>
      <trkpt lat="46.21469" lon="6.25095">
        <ele>453.2</ele>
        <time>2021-03-27T16:49:54Z</time>
      </trkpt>
      <trkpt lat="46.21467" lon="6.251">
        <ele>453.2</ele>
        <time>2021-03-27T16:49:55Z</time>
      </trkpt>
      <trkpt lat="46.21465" lon="6.25105">
        <ele>453.4</ele>
        <time>2021-03-27T16:49:56Z</time>
      </trkpt>
      <trkpt lat="46.21465" lon="6.2511">
        <ele>453.2</ele>
        <time>2021-03-27T16:49:57Z</time>
      </trkpt>
      <trkpt lat="46.21464" lon="6.25114">
        <ele>453.4</ele>
        <time>2021-03-27T16:49:58Z</time>
      </trkpt>
      <trkpt lat="46.21462" lon="6.25117">
        <ele>453.6</ele>
        <time>2021-03-27T16:49:59Z</time>
      </trkpt>
      <trkpt lat="46.21462" lon="6.2512">
        <ele>453.8</ele>
        <time>2021-03-27T16:50:00Z</time>
      </trkpt>
      <trkpt lat="46.21463" lon="6.25122">
        <ele>454</ele>
        <time>2021-03-27T16:50:01Z</time>
      </trkpt>
      <trkpt lat="46.21465" lon="6.25121">
        <ele>454.2</ele>
        <time>2021-03-27T16:50:02Z</time>
      </trkpt>
      <trkpt lat="46.21465" lon="6.25119">
        <ele>454.4</ele>
        <time>2021-03-27T16:50:03Z</time>
      </trkpt>
      <trkpt lat="46.21464" lon="6.25119">
        <ele>454.8</ele>
        <time>2021-03-27T16:50:04Z</time>
      </trkpt>
      <trkpt lat="46.21463" lon="6.25121">
        <ele>455</ele>
        <time>2021-03-27T16:50:05Z</time>
      </trkpt>
      <trkpt lat="46.21462" lon="6.25123">
        <ele>455.2</ele>
        <time>2021-03-27T16:50:06Z</time>
      </trkpt>
      <trkpt lat="46.21461" lon="6.25126">
        <ele>455.4</ele>
        <time>2021-03-27T16:50:07Z</time>
      </trkpt>
      <trkpt lat="46.2146" lon="6.25129">
        <ele>455.4</ele>
        <time>2021-03-27T16:50:08Z</time>
      </trkpt>
      <trkpt lat="46.21458" lon="6.25132">
        <ele>455.6</ele>
        <time>2021-03-27T16:50:09Z</time>
      </trkpt>
      <trkpt lat="46.21457" lon="6.25136">
        <ele>455.4</ele>
        <time>2021-03-27T16:50:10Z</time>
      </trkpt>
      <trkpt lat="46.21456" lon="6.25139">
        <ele>455.8</ele>
        <time>2021-03-27T16:50:11Z</time>
      </trkpt>
      <trkpt lat="46.21455" lon="6.25143">
        <ele>455.8</ele>
        <time>2021-03-27T16:50:12Z</time>
      </trkpt>
      <trkpt lat="46.21454" lon="6.25147">
        <ele>455.8</ele>
        <time>2021-03-27T16:50:13Z</time>
      </trkpt>
      <trkpt lat="46.21452" lon="6.25151">
        <ele>455.8</ele>
        <time>2021-03-27T16:50:14Z</time>
      </trkpt>
      <trkpt lat="46.21451" lon="6.25155">
        <ele>456</ele>
        <time>2021-03-27T16:50:15Z</time>
      </trkpt>
      <trkpt lat="46.2145" lon="6.2516">
        <ele>456.2</ele>
        <time>2021-03-27T16:50:16Z</time>
      </trkpt>
      <trkpt lat="46.21448" lon="6.25165">
        <ele>456.2</ele>
        <time>2021-03-27T16:50:17Z</time>
      </trkpt>
      <trkpt lat="46.21447" lon="6.2517">
        <ele>456.2</ele>
        <time>2021-03-27T16:50:18Z</time>
      </trkpt>
      <trkpt lat="46.21444" lon="6.25176">
        <ele>456.6</ele>
        <time>2021-03-27T16:50:19Z</time>
      </trkpt>
      <trkpt lat="46.21442" lon="6.25182">
        <ele>456.6</ele>
        <time>2021-03-27T16:50:20Z</time>
      </trkpt>
      <trkpt lat="46.2144" lon="6.25187">
        <ele>457</ele>
        <time>2021-03-27T16:50:21Z</time>
      </trkpt>
      <trkpt lat="46.21437" lon="6.25193">
        <ele>457</ele>
        <time>2021-03-27T16:50:22Z</time>
      </trkpt>
      <trkpt lat="46.21433" lon="6.25198">
        <ele>457.2</ele>
        <time>2021-03-27T16:50:23Z</time>
      </trkpt>
      <trkpt lat="46.2143" lon="6.25202">
        <ele>457.2</ele>
        <time>2021-03-27T16:50:24Z</time>
      </trkpt>
      <trkpt lat="46.21425" lon="6.25205">
        <ele>457.4</ele>
        <time>2021-03-27T16:50:25Z</time>
      </trkpt>
      <trkpt lat="46.21421" lon="6.25208">
        <ele>457.6</ele>
        <time>2021-03-27T16:50:26Z</time>
      </trkpt>
      <trkpt lat="46.21416" lon="6.25209">
        <ele>457.6</ele>
        <time>2021-03-27T16:50:27Z</time>
      </trkpt>
      <trkpt lat="46.2141" lon="6.25209">
        <ele>457.8</ele>
        <time>2021-03-27T16:50:28Z</time>
      </trkpt>
      <trkpt lat="46.21404" lon="6.2521">
        <ele>458</ele>
        <time>2021-03-27T16:50:29Z</time>
      </trkpt>
      <trkpt lat="46.21399" lon="6.25209">
        <ele>458.2</ele>
        <time>2021-03-27T16:50:30Z</time>
      </trkpt>
      <trkpt lat="46.21394" lon="6.25208">
        <ele>458.2</ele>
        <time>2021-03-27T16:50:31Z</time>
      </trkpt>
      <trkpt lat="46.21389" lon="6.25208">
        <ele>458.6</ele>
        <time>2021-03-27T16:50:32Z</time>
      </trkpt>
      <trkpt lat="46.21384" lon="6.25207">
        <ele>458.8</ele>
        <time>2021-03-27T16:50:33Z</time>
      </trkpt>
      <trkpt lat="46.21379" lon="6.25206">
        <ele>459</ele>
        <time>2021-03-27T16:50:34Z</time>
      </trkpt>
      <trkpt lat="46.21374" lon="6.25205">
        <ele>459.2</ele>
        <time>2021-03-27T16:50:35Z</time>
      </trkpt>
      <trkpt lat="46.21369" lon="6.25203">
        <ele>459.4</ele>
        <time>2021-03-27T16:50:36Z</time>
      </trkpt>
      <trkpt lat="46.21364" lon="6.25204">
        <ele>459.6</ele>
        <time>2021-03-27T16:50:37Z</time>
      </trkpt>
      <trkpt lat="46.21359" lon="6.25203">
        <ele>459.8</ele>
        <time>2021-03-27T16:50:38Z</time>
      </trkpt>
      <trkpt lat="46.21354" lon="6.25203">
        <ele>460</ele>
        <time>2021-03-27T16:50:39Z</time>
      </trkpt>
      <trkpt lat="46.2135" lon="6.25202">
        <ele>460.2</ele>
        <time>2021-03-27T16:50:40Z</time>
      </trkpt>
      <trkpt lat="46.21345" lon="6.25201">
        <ele>460.4</ele>
        <time>2021-03-27T16:50:41Z</time>
      </trkpt>
      <trkpt lat="46.21341" lon="6.25201">
        <ele>460.6</ele>
        <time>2021-03-27T16:50:42Z</time>
      </trkpt>
      <trkpt lat="46.21337" lon="6.252">
        <ele>460.6</ele>
        <time>2021-03-27T16:50:43Z</time>
      </trkpt>
      <trkpt lat="46.21333" lon="6.25199">
        <ele>460.8</ele>
        <time>2021-03-27T16:50:44Z</time>
      </trkpt>
      <trkpt lat="46.21328" lon="6.25199">
        <ele>461.2</ele>
        <time>2021-03-27T16:50:45Z</time>
      </trkpt>
      <trkpt lat="46.21324" lon="6.25198">
        <ele>461.4</ele>
        <time>2021-03-27T16:50:46Z</time>
      </trkpt>
      <trkpt lat="46.2132" lon="6.25198">
        <ele>461.6</ele>
        <time>2021-03-27T16:50:47Z</time>
      </trkpt>
      <trkpt lat="46.21315" lon="6.25197">
        <ele>461.6</ele>
        <time>2021-03-27T16:50:48Z</time>
      </trkpt>
      <trkpt lat="46.21311" lon="6.25197">
        <ele>461.8</ele>
        <time>2021-03-27T16:50:49Z</time>
      </trkpt>
      <trkpt lat="46.21307" lon="6.25197">
        <ele>461.8</ele>
        <time>2021-03-27T16:50:50Z</time>
      </trkpt>
      <trkpt lat="46.21303" lon="6.25196">
        <ele>462</ele>
        <time>2021-03-27T16:50:51Z</time>
      </trkpt>
      <trkpt lat="46.21298" lon="6.25196">
        <ele>462</ele>
        <time>2021-03-27T16:50:52Z</time>
      </trkpt>
      <trkpt lat="46.21294" lon="6.25196">
        <ele>462.2</ele>
        <time>2021-03-27T16:50:53Z</time>
      </trkpt>
      <trkpt lat="46.21289" lon="6.25196">
        <ele>462.6</ele>
        <time>2021-03-27T16:50:54Z</time>
      </trkpt>
      <trkpt lat="46.21285" lon="6.25197">
        <ele>462.6</ele>
        <time>2021-03-27T16:50:55Z</time>
      </trkpt>
      <trkpt lat="46.2128" lon="6.25198">
        <ele>462.8</ele>
        <time>2021-03-27T16:50:56Z</time>
      </trkpt>
      <trkpt lat="46.21276" lon="6.25198">
        <ele>462.8</ele>
        <time>2021-03-27T16:50:57Z</time>
      </trkpt>
      <trkpt lat="46.21271" lon="6.25199">
        <ele>463</ele>
        <time>2021-03-27T16:50:58Z</time>
      </trkpt>
      <trkpt lat="46.21266" lon="6.252">
        <ele>463.2</ele>
        <time>2021-03-27T16:50:59Z</time>
      </trkpt>
      <trkpt lat="46.21261" lon="6.252">
        <ele>463.4</ele>
        <time>2021-03-27T16:51:00Z</time>
      </trkpt>
      <trkpt lat="46.21256" lon="6.252">
        <ele>463.6</ele>
        <time>2021-03-27T16:51:01Z</time>
      </trkpt>
      <trkpt lat="46.21251" lon="6.25199">
        <ele>463.8</ele>
        <time>2021-03-27T16:51:02Z</time>
      </trkpt>
      <trkpt lat="46.21247" lon="6.25197">
        <ele>464.2</ele>
        <time>2021-03-27T16:51:03Z</time>
      </trkpt>
      <trkpt lat="46.21243" lon="6.25193">
        <ele>464.4</ele>
        <time>2021-03-27T16:51:04Z</time>
      </trkpt>
      <trkpt lat="46.2124" lon="6.25189">
        <ele>464.6</ele>
        <time>2021-03-27T16:51:05Z</time>
      </trkpt>
      <trkpt lat="46.21237" lon="6.25184">
        <ele>465</ele>
        <time>2021-03-27T16:51:06Z</time>
      </trkpt>
      <trkpt lat="46.21233" lon="6.25178">
        <ele>465.2</ele>
        <time>2021-03-27T16:51:07Z</time>
      </trkpt>
      <trkpt lat="46.2123" lon="6.25172">
        <ele>465.4</ele>
        <time>2021-03-27T16:51:08Z</time>
      </trkpt>
      <trkpt lat="46.21226" lon="6.25165">
        <ele>465.6</ele>
        <time>2021-03-27T16:51:09Z</time>
      </trkpt>
      <trkpt lat="46.21223" lon="6.25159">
        <ele>465.8</ele>
        <time>2021-03-27T16:51:10Z</time>
      </trkpt>
      <trkpt lat="46.21219" lon="6.25152">
        <ele>465.6</ele>
        <time>2021-03-27T16:51:11Z</time>
      </trkpt>
      <trkpt lat="46.21215" lon="6.25145">
        <ele>465.8</ele>
        <time>2021-03-27T16:51:12Z</time>
      </trkpt>
      <trkpt lat="46.21211" lon="6.25138">
        <ele>465.6</ele>
        <time>2021-03-27T16:51:13Z</time>
      </trkpt>
      <trkpt lat="46.21206" lon="6.2513">
        <ele>465.8</ele>
        <time>2021-03-27T16:51:14Z</time>
      </trkpt>
      <trkpt lat="46.21202" lon="6.25123">
        <ele>465.8</ele>
        <time>2021-03-27T16:51:15Z</time>
      </trkpt>
      <trkpt lat="46.21196" lon="6.25116">
        <ele>465.6</ele>
        <time>2021-03-27T16:51:16Z</time>
      </trkpt>
      <trkpt lat="46.21191" lon="6.25109">
        <ele>465.8</ele>
        <time>2021-03-27T16:51:17Z</time>
      </trkpt>
      <trkpt lat="46.21185" lon="6.25103">
        <ele>465.6</ele>
        <time>2021-03-27T16:51:18Z</time>
      </trkpt>
      <trkpt lat="46.21179" lon="6.25097">
        <ele>465.6</ele>
        <time>2021-03-27T16:51:19Z</time>
      </trkpt>
      <trkpt lat="46.21172" lon="6.25092">
        <ele>465.4</ele>
        <time>2021-03-27T16:51:20Z</time>
      </trkpt>
      <trkpt lat="46.21166" lon="6.25087">
        <ele>465.2</ele>
        <time>2021-03-27T16:51:21Z</time>
      </trkpt>
      <trkpt lat="46.21159" lon="6.25082">
        <ele>465</ele>
        <time>2021-03-27T16:51:22Z</time>
      </trkpt>
      <trkpt lat="46.21152" lon="6.25076">
        <ele>465.2</ele>
        <time>2021-03-27T16:51:23Z</time>
      </trkpt>
      <trkpt lat="46.21146" lon="6.25071">
        <ele>464.6</ele>
        <time>2021-03-27T16:51:24Z</time>
      </trkpt>
      <trkpt lat="46.2114" lon="6.25065">
        <ele>464.2</ele>
        <time>2021-03-27T16:51:25Z</time>
      </trkpt>
      <trkpt lat="46.21133" lon="6.25059">
        <ele>463.8</ele>
        <time>2021-03-27T16:51:26Z</time>
      </trkpt>
      <trkpt lat="46.21127" lon="6.25054">
        <ele>463.6</ele>
        <time>2021-03-27T16:51:27Z</time>
      </trkpt>
      <trkpt lat="46.2112" lon="6.25048">
        <ele>463.6</ele>
        <time>2021-03-27T16:51:28Z</time>
      </trkpt>
      <trkpt lat="46.21114" lon="6.25042">
        <ele>463.6</ele>
        <time>2021-03-27T16:51:29Z</time>
      </trkpt>
      <trkpt lat="46.21107" lon="6.25036">
        <ele>463.4</ele>
        <time>2021-03-27T16:51:30Z</time>
      </trkpt>
      <trkpt lat="46.21101" lon="6.25031">
        <ele>463.2</ele>
        <time>2021-03-27T16:51:31Z</time>
      </trkpt>
      <trkpt lat="46.21095" lon="6.25025">
        <ele>463</ele>
        <time>2021-03-27T16:51:32Z</time>
      </trkpt>
      <trkpt lat="46.21089" lon="6.2502">
        <ele>462.8</ele>
        <time>2021-03-27T16:51:33Z</time>
      </trkpt>
      <trkpt lat="46.21082" lon="6.25015">
        <ele>462.4</ele>
        <time>2021-03-27T16:51:34Z</time>
      </trkpt>
      <trkpt lat="46.21076" lon="6.2501">
        <ele>462.4</ele>
        <time>2021-03-27T16:51:35Z</time>
      </trkpt>
      <trkpt lat="46.21069" lon="6.25006">
        <ele>462.4</ele>
        <time>2021-03-27T16:51:36Z</time>
      </trkpt>
      <trkpt lat="46.21062" lon="6.25001">
        <ele>462.2</ele>
        <time>2021-03-27T16:51:37Z</time>
      </trkpt>
      <trkpt lat="46.21056" lon="6.24997">
        <ele>462</ele>
        <time>2021-03-27T16:51:38Z</time>
      </trkpt>
      <trkpt lat="46.21049" lon="6.24992">
        <ele>461.8</ele>
        <time>2021-03-27T16:51:39Z</time>
      </trkpt>
      <trkpt lat="46.21042" lon="6.24987">
        <ele>461.8</ele>
        <time>2021-03-27T16:51:40Z</time>
      </trkpt>
      <trkpt lat="46.21035" lon="6.24982">
        <ele>461.6</ele>
        <time>2021-03-27T16:51:41Z</time>
      </trkpt>
      <trkpt lat="46.21028" lon="6.24976">
        <ele>461.8</ele>
        <time>2021-03-27T16:51:42Z</time>
      </trkpt>
      <trkpt lat="46.21021" lon="6.2497">
        <ele>461.4</ele>
        <time>2021-03-27T16:51:43Z</time>
      </trkpt>
      <trkpt lat="46.21014" lon="6.24963">
        <ele>461.2</ele>
        <time>2021-03-27T16:51:44Z</time>
      </trkpt>
      <trkpt lat="46.21007" lon="6.24956">
        <ele>461.2</ele>
        <time>2021-03-27T16:51:45Z</time>
      </trkpt>
      <trkpt lat="46.21001" lon="6.24948">
        <ele>461</ele>
        <time>2021-03-27T16:51:46Z</time>
      </trkpt>
      <trkpt lat="46.20994" lon="6.2494">
        <ele>461</ele>
        <time>2021-03-27T16:51:47Z</time>
      </trkpt>
      <trkpt lat="46.20988" lon="6.24932">
        <ele>460.8</ele>
        <time>2021-03-27T16:51:48Z</time>
      </trkpt>
      <trkpt lat="46.20982" lon="6.24924">
        <ele>460.8</ele>
        <time>2021-03-27T16:51:49Z</time>
      </trkpt>
      <trkpt lat="46.20976" lon="6.24917">
        <ele>460.4</ele>
        <time>2021-03-27T16:51:50Z</time>
      </trkpt>
      <trkpt lat="46.20969" lon="6.24909">
        <ele>460</ele>
        <time>2021-03-27T16:51:51Z</time>
      </trkpt>
      <trkpt lat="46.20963" lon="6.24902">
        <ele>459.8</ele>
        <time>2021-03-27T16:51:52Z</time>
      </trkpt>
      <trkpt lat="46.20957" lon="6.24894">
        <ele>459.6</ele>
        <time>2021-03-27T16:51:53Z</time>
      </trkpt>
      <trkpt lat="46.20951" lon="6.24887">
        <ele>459.4</ele>
        <time>2021-03-27T16:51:54Z</time>
      </trkpt>
      <trkpt lat="46.20945" lon="6.24879">
        <ele>459.4</ele>
        <time>2021-03-27T16:51:55Z</time>
      </trkpt>
      <trkpt lat="46.20939" lon="6.24871">
        <ele>459.2</ele>
        <time>2021-03-27T16:51:56Z</time>
      </trkpt>
      <trkpt lat="46.20933" lon="6.24862">
        <ele>459</ele>
        <time>2021-03-27T16:51:57Z</time>
      </trkpt>
      <trkpt lat="46.20927" lon="6.24854">
        <ele>459</ele>
        <time>2021-03-27T16:51:58Z</time>
      </trkpt>
      <trkpt lat="46.20921" lon="6.24846">
        <ele>458.8</ele>
        <time>2021-03-27T16:51:59Z</time>
      </trkpt>
      <trkpt lat="46.20916" lon="6.24839">
        <ele>458.8</ele>
        <time>2021-03-27T16:52:00Z</time>
      </trkpt>
      <trkpt lat="46.2091" lon="6.24831">
        <ele>458.8</ele>
        <time>2021-03-27T16:52:01Z</time>
      </trkpt>
      <trkpt lat="46.20905" lon="6.24824">
        <ele>458.8</ele>
        <time>2021-03-27T16:52:02Z</time>
      </trkpt>
      <trkpt lat="46.20899" lon="6.24817">
        <ele>458.6</ele>
        <time>2021-03-27T16:52:03Z</time>
      </trkpt>
      <trkpt lat="46.20892" lon="6.24814">
        <ele>458.4</ele>
        <time>2021-03-27T16:52:04Z</time>
      </trkpt>
      <trkpt lat="46.20885" lon="6.24816">
        <ele>458.4</ele>
        <time>2021-03-27T16:52:05Z</time>
      </trkpt>
      <trkpt lat="46.20879" lon="6.24822">
        <ele>458.4</ele>
        <time>2021-03-27T16:52:06Z</time>
      </trkpt>
      <trkpt lat="46.20874" lon="6.2483">
        <ele>458.4</ele>
        <time>2021-03-27T16:52:07Z</time>
      </trkpt>
      <trkpt lat="46.20869" lon="6.24838">
        <ele>458.2</ele>
        <time>2021-03-27T16:52:08Z</time>
      </trkpt>
      <trkpt lat="46.20864" lon="6.24846">
        <ele>458.2</ele>
        <time>2021-03-27T16:52:09Z</time>
      </trkpt>
      <trkpt lat="46.20859" lon="6.24854">
        <ele>458</ele>
        <time>2021-03-27T16:52:10Z</time>
      </trkpt>
      <trkpt lat="46.20853" lon="6.24862">
        <ele>458</ele>
        <time>2021-03-27T16:52:11Z</time>
      </trkpt>
      <trkpt lat="46.20848" lon="6.2487">
        <ele>458</ele>
        <time>2021-03-27T16:52:12Z</time>
      </trkpt>
      <trkpt lat="46.20842" lon="6.24879">
        <ele>458.2</ele>
        <time>2021-03-27T16:52:13Z</time>
      </trkpt>
      <trkpt lat="46.20837" lon="6.24887">
        <ele>457.8</ele>
        <time>2021-03-27T16:52:14Z</time>
      </trkpt>
      <trkpt lat="46.20832" lon="6.24896">
        <ele>457.6</ele>
        <time>2021-03-27T16:52:15Z</time>
      </trkpt>
      <trkpt lat="46.20826" lon="6.24904">
        <ele>457</ele>
        <time>2021-03-27T16:52:16Z</time>
      </trkpt>
      <trkpt lat="46.20821" lon="6.24913">
        <ele>456.6</ele>
        <time>2021-03-27T16:52:17Z</time>
      </trkpt>
      <trkpt lat="46.20815" lon="6.24921">
        <ele>456.6</ele>
        <time>2021-03-27T16:52:18Z</time>
      </trkpt>
      <trkpt lat="46.2081" lon="6.2493">
        <ele>456.4</ele>
        <time>2021-03-27T16:52:19Z</time>
      </trkpt>
      <trkpt lat="46.20804" lon="6.24939">
        <ele>456.4</ele>
        <time>2021-03-27T16:52:20Z</time>
      </trkpt>
      <trkpt lat="46.20799" lon="6.24948">
        <ele>455.8</ele>
        <time>2021-03-27T16:52:21Z</time>
      </trkpt>
      <trkpt lat="46.20794" lon="6.24957">
        <ele>455.4</ele>
        <time>2021-03-27T16:52:22Z</time>
      </trkpt>
      <trkpt lat="46.20788" lon="6.24965">
        <ele>455.2</ele>
        <time>2021-03-27T16:52:23Z</time>
      </trkpt>
      <trkpt lat="46.20782" lon="6.24973">
        <ele>455</ele>
        <time>2021-03-27T16:52:24Z</time>
      </trkpt>
      <trkpt lat="46.20777" lon="6.24982">
        <ele>454.8</ele>
        <time>2021-03-27T16:52:25Z</time>
      </trkpt>
      <trkpt lat="46.20771" lon="6.2499">
        <ele>454.8</ele>
        <time>2021-03-27T16:52:26Z</time>
      </trkpt>
      <trkpt lat="46.20766" lon="6.24999">
        <ele>454.8</ele>
        <time>2021-03-27T16:52:27Z</time>
      </trkpt>
      <trkpt lat="46.2076" lon="6.25006">
        <ele>454.6</ele>
        <time>2021-03-27T16:52:28Z</time>
      </trkpt>
      <trkpt lat="46.20754" lon="6.25013">
        <ele>454.4</ele>
        <time>2021-03-27T16:52:29Z</time>
      </trkpt>
      <trkpt lat="46.20747" lon="6.25018">
        <ele>454.4</ele>
        <time>2021-03-27T16:52:30Z</time>
      </trkpt>
      <trkpt lat="46.2074" lon="6.25023">
        <ele>454.2</ele>
        <time>2021-03-27T16:52:31Z</time>
      </trkpt>
      <trkpt lat="46.20733" lon="6.25026">
        <ele>454.2</ele>
        <time>2021-03-27T16:52:32Z</time>
      </trkpt>
      <trkpt lat="46.20725" lon="6.25027">
        <ele>454.2</ele>
        <time>2021-03-27T16:52:33Z</time>
      </trkpt>
      <trkpt lat="46.20718" lon="6.25027">
        <ele>454.2</ele>
        <time>2021-03-27T16:52:34Z</time>
      </trkpt>
      <trkpt lat="46.20711" lon="6.25026">
        <ele>454.4</ele>
        <time>2021-03-27T16:52:35Z</time>
      </trkpt>
      <trkpt lat="46.20704" lon="6.25025">
        <ele>454.2</ele>
        <time>2021-03-27T16:52:36Z</time>
      </trkpt>
      <trkpt lat="46.20697" lon="6.25025">
        <ele>454.2</ele>
        <time>2021-03-27T16:52:37Z</time>
      </trkpt>
      <trkpt lat="46.2069" lon="6.25025">
        <ele>454.4</ele>
        <time>2021-03-27T16:52:38Z</time>
      </trkpt>
      <trkpt lat="46.20684" lon="6.25024">
        <ele>454.2</ele>
        <time>2021-03-27T16:52:39Z</time>
      </trkpt>
      <trkpt lat="46.20672" lon="6.25018">
        <ele>454.4</ele>
        <time>2021-03-27T16:52:41Z</time>
      </trkpt>
      <trkpt lat="46.20666" lon="6.25014">
        <ele>454.4</ele>
        <time>2021-03-27T16:52:42Z</time>
      </trkpt>
      <trkpt lat="46.2066" lon="6.25011">
        <ele>454.6</ele>
        <time>2021-03-27T16:52:43Z</time>
      </trkpt>
      <trkpt lat="46.20656" lon="6.25009">
        <ele>454.8</ele>
        <time>2021-03-27T16:52:44Z</time>
      </trkpt>
      <trkpt lat="46.20653" lon="6.25007">
        <ele>455</ele>
        <time>2021-03-27T16:52:46Z</time>
      </trkpt>
      <trkpt lat="46.20652" lon="6.25007">
        <ele>455</ele>
        <time>2021-03-27T16:52:47Z</time>
      </trkpt>
      <trkpt lat="46.20652" lon="6.25007">
        <ele>455.2</ele>
        <time>2021-03-27T16:52:48Z</time>
      </trkpt>
      <trkpt lat="46.20652" lon="6.25007">
        <ele>455.2</ele>
        <time>2021-03-27T16:52:49Z</time>
      </trkpt>
      <trkpt lat="46.20652" lon="6.25007">
        <ele>455.2</ele>
        <time>2021-03-27T16:52:50Z</time>
      </trkpt>
      <trkpt lat="46.20652" lon="6.25007">
        <ele>455.2</ele>
        <time>2021-03-27T16:52:51Z</time>
      </trkpt>
      <trkpt lat="46.20652" lon="6.25007">
        <ele>455.8</ele>
        <time>2021-03-27T16:52:53Z</time>
      </trkpt>
      <trkpt lat="46.20652" lon="6.25006">
        <ele>456</ele>
        <time>2021-03-27T16:52:54Z</time>
      </trkpt>
      <trkpt lat="46.20652" lon="6.25007">
        <ele>456.2</ele>
        <time>2021-03-27T16:52:55Z</time>
      </trkpt>
      <trkpt lat="46.20652" lon="6.25007">
        <ele>456.2</ele>
        <time>2021-03-27T16:52:56Z</time>
      </trkpt>
      <trkpt lat="46.20652" lon="6.25007">
        <ele>456.2</ele>
        <time>2021-03-27T16:52:57Z</time>
      </trkpt>
      <trkpt lat="46.20653" lon="6.25007">
        <ele>456.2</ele>
        <time>2021-03-27T16:52:58Z</time>
      </trkpt>
      <trkpt lat="46.20653" lon="6.25007">
        <ele>456.2</ele>
        <time>2021-03-27T16:53:00Z</time>
      </trkpt>
      <trkpt lat="46.20653" lon="6.25007">
        <ele>456.4</ele>
        <time>2021-03-27T16:53:02Z</time>
      </trkpt>
      <trkpt lat="46.20653" lon="6.25007">
        <ele>456.2</ele>
        <time>2021-03-27T16:53:03Z</time>
      </trkpt>
      <trkpt lat="46.20653" lon="6.25007">
        <ele>456.2</ele>
        <time>2021-03-27T16:53:04Z</time>
      </trkpt>
      <trkpt lat="46.20653" lon="6.25007">
        <ele>456.4</ele>
        <time>2021-03-27T16:53:05Z</time>
      </trkpt>
      <trkpt lat="46.20653" lon="6.25007">
        <ele>456.4</ele>
        <time>2021-03-27T16:53:06Z</time>
      </trkpt>
      <trkpt lat="46.20653" lon="6.25007">
        <ele>456.2</ele>
        <time>2021-03-27T16:53:07Z</time>
      </trkpt>
      <trkpt lat="46.20653" lon="6.25007">
        <ele>456.2</ele>
        <time>2021-03-27T16:53:08Z</time>
      </trkpt>
      <trkpt lat="46.20653" lon="6.25007">
        <ele>456.4</ele>
        <time>2021-03-27T16:53:09Z</time>
      </trkpt>
      <trkpt lat="46.20653" lon="6.25007">
        <ele>456.2</ele>
        <time>2021-03-27T16:53:10Z</time>
      </trkpt>
      <trkpt lat="46.20653" lon="6.25007">
        <ele>456.2</ele>
        <time>2021-03-27T16:53:11Z</time>
      </trkpt>
      <trkpt lat="46.20653" lon="6.25007">
        <ele>456.4</ele>
        <time>2021-03-27T16:53:12Z</time>
      </trkpt>
      <trkpt lat="46.20653" lon="6.25007">
        <ele>456.2</ele>
        <time>2021-03-27T16:53:13Z</time>
      </trkpt>
      <trkpt lat="46.20653" lon="6.25007">
        <ele>456.4</ele>
        <time>2021-03-27T16:53:14Z</time>
      </trkpt>
      <trkpt lat="46.20653" lon="6.25007">
        <ele>456.4</ele>
        <time>2021-03-27T16:53:15Z</time>
      </trkpt>
      <trkpt lat="46.20653" lon="6.25007">
        <ele>456.2</ele>
        <time>2021-03-27T16:53:16Z</time>
      </trkpt>
      <trkpt lat="46.20653" lon="6.25007">
        <ele>456.4</ele>
        <time>2021-03-27T16:53:17Z</time>
      </trkpt>
      <trkpt lat="46.20653" lon="6.25007">
        <ele>456.4</ele>
        <time>2021-03-27T16:53:18Z</time>
      </trkpt>
      <trkpt lat="46.20653" lon="6.25007">
        <ele>456.4</ele>
        <time>2021-03-27T16:53:19Z</time>
      </trkpt>
      <trkpt lat="46.20653" lon="6.25007">
        <ele>456.2</ele>
        <time>2021-03-27T16:53:20Z</time>
      </trkpt>
      <trkpt lat="46.20653" lon="6.25007">
        <ele>456.2</ele>
        <time>2021-03-27T16:53:21Z</time>
      </trkpt>
      <trkpt lat="46.20653" lon="6.25007">
        <ele>456.2</ele>
        <time>2021-03-27T16:53:22Z</time>
      </trkpt>
      <trkpt lat="46.20653" lon="6.25007">
        <ele>456.4</ele>
        <time>2021-03-27T16:53:23Z</time>
      </trkpt>
      <trkpt lat="46.20653" lon="6.25007">
        <ele>456.4</ele>
        <time>2021-03-27T16:53:24Z</time>
      </trkpt>
      <trkpt lat="46.20653" lon="6.25007">
        <ele>456.4</ele>
        <time>2021-03-27T16:53:25Z</time>
      </trkpt>
      <trkpt lat="46.20653" lon="6.25007">
        <ele>456.2</ele>
        <time>2021-03-27T16:53:26Z</time>
      </trkpt>
      <trkpt lat="46.20653" lon="6.25007">
        <ele>456.4</ele>
        <time>2021-03-27T16:53:27Z</time>
      </trkpt>
      <trkpt lat="46.20653" lon="6.25007">
        <ele>456.4</ele>
        <time>2021-03-27T16:53:28Z</time>
      </trkpt>
      <trkpt lat="46.20653" lon="6.25007">
        <ele>456.2</ele>
        <time>2021-03-27T16:53:29Z</time>
      </trkpt>
      <trkpt lat="46.20653" lon="6.25007">
        <ele>456.2</ele>
        <time>2021-03-27T16:53:30Z</time>
      </trkpt>
      <trkpt lat="46.20653" lon="6.25007">
        <ele>456.4</ele>
        <time>2021-03-27T16:53:31Z</time>
      </trkpt>
      <trkpt lat="46.20653" lon="6.25006">
        <ele>456.4</ele>
        <time>2021-03-27T16:53:32Z</time>
      </trkpt>
      <trkpt lat="46.20653" lon="6.25006">
        <ele>456.4</ele>
        <time>2021-03-27T16:53:33Z</time>
      </trkpt>
      <trkpt lat="46.20653" lon="6.25006">
        <ele>456.2</ele>
        <time>2021-03-27T16:53:34Z</time>
      </trkpt>
      <trkpt lat="46.20653" lon="6.25006">
        <ele>456.4</ele>
        <time>2021-03-27T16:53:35Z</time>
      </trkpt>
      <trkpt lat="46.20653" lon="6.25006">
        <ele>456.4</ele>
        <time>2021-03-27T16:53:36Z</time>
      </trkpt>
      <trkpt lat="46.20653" lon="6.25006">
        <ele>456.4</ele>
        <time>2021-03-27T16:53:37Z</time>
      </trkpt>
      <trkpt lat="46.20653" lon="6.25006">
        <ele>456.2</ele>
        <time>2021-03-27T16:53:38Z</time>
      </trkpt>
      <trkpt lat="46.20653" lon="6.25006">
        <ele>456.2</ele>
        <time>2021-03-27T16:53:39Z</time>
      </trkpt>
      <trkpt lat="46.20653" lon="6.25006">
        <ele>456.2</ele>
        <time>2021-03-27T16:53:40Z</time>
      </trkpt>
      <trkpt lat="46.20653" lon="6.25006">
        <ele>456.2</ele>
        <time>2021-03-27T16:53:41Z</time>
      </trkpt>
      <trkpt lat="46.20653" lon="6.25006">
        <ele>456</ele>
        <time>2021-03-27T16:53:42Z</time>
      </trkpt>
      <trkpt lat="46.20653" lon="6.25006">
        <ele>456</ele>
        <time>2021-03-27T16:53:43Z</time>
      </trkpt>
      <trkpt lat="46.20653" lon="6.25006">
        <ele>456</ele>
        <time>2021-03-27T16:53:44Z</time>
      </trkpt>
      <trkpt lat="46.20653" lon="6.25007">
        <ele>456</ele>
        <time>2021-03-27T16:53:45Z</time>
      </trkpt>
      <trkpt lat="46.20654" lon="6.25007">
        <ele>456</ele>
        <time>2021-03-27T16:53:46Z</time>
      </trkpt>
      <trkpt lat="46.20653" lon="6.25007">
        <ele>456</ele>
        <time>2021-03-27T16:53:47Z</time>
      </trkpt>
      <trkpt lat="46.20653" lon="6.25007">
        <ele>456.2</ele>
        <time>2021-03-27T16:53:48Z</time>
      </trkpt>
      <trkpt lat="46.20652" lon="6.25007">
        <ele>456</ele>
        <time>2021-03-27T16:53:49Z</time>
      </trkpt>
      <trkpt lat="46.2065" lon="6.25007">
        <ele>455.8</ele>
        <time>2021-03-27T16:53:50Z</time>
      </trkpt>
      <trkpt lat="46.20648" lon="6.25007">
        <ele>455.8</ele>
        <time>2021-03-27T16:53:51Z</time>
      </trkpt>
      <trkpt lat="46.20645" lon="6.25005">
        <ele>456</ele>
        <time>2021-03-27T16:53:52Z</time>
      </trkpt>
      <trkpt lat="46.20642" lon="6.25002">
        <ele>456</ele>
        <time>2021-03-27T16:53:53Z</time>
      </trkpt>
      <trkpt lat="46.20639" lon="6.24998">
        <ele>455.8</ele>
        <time>2021-03-27T16:53:54Z</time>
      </trkpt>
      <trkpt lat="46.20636" lon="6.24993">
        <ele>455.8</ele>
        <time>2021-03-27T16:53:55Z</time>
      </trkpt>
      <trkpt lat="46.20633" lon="6.24988">
        <ele>455.8</ele>
        <time>2021-03-27T16:53:56Z</time>
      </trkpt>
      <trkpt lat="46.2063" lon="6.24983">
        <ele>455.8</ele>
        <time>2021-03-27T16:53:57Z</time>
      </trkpt>
      <trkpt lat="46.20627" lon="6.24978">
        <ele>455.6</ele>
        <time>2021-03-27T16:53:58Z</time>
      </trkpt>
      <trkpt lat="46.20623" lon="6.24973">
        <ele>455.8</ele>
        <time>2021-03-27T16:53:59Z</time>
      </trkpt>
      <trkpt lat="46.2062" lon="6.24967">
        <ele>455.4</ele>
        <time>2021-03-27T16:54:00Z</time>
      </trkpt>
      <trkpt lat="46.20616" lon="6.24962">
        <ele>455.2</ele>
        <time>2021-03-27T16:54:01Z</time>
      </trkpt>
      <trkpt lat="46.20608" lon="6.24951">
        <ele>455</ele>
        <time>2021-03-27T16:54:03Z</time>
      </trkpt>
      <trkpt lat="46.20603" lon="6.24945">
        <ele>454.8</ele>
        <time>2021-03-27T16:54:04Z</time>
      </trkpt>
      <trkpt lat="46.20598" lon="6.24939">
        <ele>454.8</ele>
        <time>2021-03-27T16:54:05Z</time>
      </trkpt>
      <trkpt lat="46.20593" lon="6.24935">
        <ele>454.6</ele>
        <time>2021-03-27T16:54:06Z</time>
      </trkpt>
      <trkpt lat="46.20587" lon="6.24932">
        <ele>454.4</ele>
        <time>2021-03-27T16:54:07Z</time>
      </trkpt>
      <trkpt lat="46.2058" lon="6.24932">
        <ele>454.4</ele>
        <time>2021-03-27T16:54:08Z</time>
      </trkpt>
      <trkpt lat="46.20573" lon="6.24935">
        <ele>454</ele>
        <time>2021-03-27T16:54:09Z</time>
      </trkpt>
      <trkpt lat="46.20567" lon="6.24939">
        <ele>454</ele>
        <time>2021-03-27T16:54:10Z</time>
      </trkpt>
      <trkpt lat="46.20561" lon="6.24944">
        <ele>453.8</ele>
        <time>2021-03-27T16:54:11Z</time>
      </trkpt>
      <trkpt lat="46.20555" lon="6.2495">
        <ele>453.8</ele>
        <time>2021-03-27T16:54:12Z</time>
      </trkpt>
      <trkpt lat="46.20549" lon="6.24956">
        <ele>453.8</ele>
        <time>2021-03-27T16:54:13Z</time>
      </trkpt>
      <trkpt lat="46.20543" lon="6.24962">
        <ele>453.6</ele>
        <time>2021-03-27T16:54:14Z</time>
      </trkpt>
      <trkpt lat="46.20536" lon="6.24966">
        <ele>453.6</ele>
        <time>2021-03-27T16:54:15Z</time>
      </trkpt>
      <trkpt lat="46.20528" lon="6.24969">
        <ele>453.4</ele>
        <time>2021-03-27T16:54:16Z</time>
      </trkpt>
      <trkpt lat="46.20521" lon="6.24968">
        <ele>453.4</ele>
        <time>2021-03-27T16:54:17Z</time>
      </trkpt>
      <trkpt lat="46.20513" lon="6.24967">
        <ele>453.4</ele>
        <time>2021-03-27T16:54:18Z</time>
      </trkpt>
      <trkpt lat="46.20506" lon="6.24964">
        <ele>453.2</ele>
        <time>2021-03-27T16:54:19Z</time>
      </trkpt>
      <trkpt lat="46.20499" lon="6.24962">
        <ele>453</ele>
        <time>2021-03-27T16:54:20Z</time>
      </trkpt>
      <trkpt lat="46.20492" lon="6.2496">
        <ele>452.8</ele>
        <time>2021-03-27T16:54:21Z</time>
      </trkpt>
      <trkpt lat="46.20484" lon="6.24957">
        <ele>452.6</ele>
        <time>2021-03-27T16:54:22Z</time>
      </trkpt>
      <trkpt lat="46.20476" lon="6.24955">
        <ele>452.6</ele>
        <time>2021-03-27T16:54:23Z</time>
      </trkpt>
      <trkpt lat="46.20468" lon="6.24953">
        <ele>452.4</ele>
        <time>2021-03-27T16:54:24Z</time>
      </trkpt>
      <trkpt lat="46.2046" lon="6.24952">
        <ele>452</ele>
        <time>2021-03-27T16:54:25Z</time>
      </trkpt>
      <trkpt lat="46.20452" lon="6.24951">
        <ele>451.6</ele>
        <time>2021-03-27T16:54:26Z</time>
      </trkpt>
      <trkpt lat="46.20445" lon="6.2495">
        <ele>451</ele>
        <time>2021-03-27T16:54:27Z</time>
      </trkpt>
      <trkpt lat="46.20437" lon="6.2495">
        <ele>450.6</ele>
        <time>2021-03-27T16:54:28Z</time>
      </trkpt>
      <trkpt lat="46.20431" lon="6.24951">
        <ele>450.2</ele>
        <time>2021-03-27T16:54:29Z</time>
      </trkpt>
      <trkpt lat="46.20426" lon="6.24952">
        <ele>450</ele>
        <time>2021-03-27T16:54:30Z</time>
      </trkpt>
      <trkpt lat="46.20421" lon="6.24953">
        <ele>449.4</ele>
        <time>2021-03-27T16:54:31Z</time>
      </trkpt>
      <trkpt lat="46.20416" lon="6.24955">
        <ele>449.4</ele>
        <time>2021-03-27T16:54:32Z</time>
      </trkpt>
      <trkpt lat="46.20411" lon="6.24957">
        <ele>449.2</ele>
        <time>2021-03-27T16:54:33Z</time>
      </trkpt>
      <trkpt lat="46.20406" lon="6.2496">
        <ele>449.2</ele>
        <time>2021-03-27T16:54:34Z</time>
      </trkpt>
      <trkpt lat="46.20401" lon="6.24963">
        <ele>449.2</ele>
        <time>2021-03-27T16:54:35Z</time>
      </trkpt>
      <trkpt lat="46.20396" lon="6.24966">
        <ele>449.2</ele>
        <time>2021-03-27T16:54:36Z</time>
      </trkpt>
      <trkpt lat="46.2039" lon="6.2497">
        <ele>449</ele>
        <time>2021-03-27T16:54:37Z</time>
      </trkpt>
      <trkpt lat="46.20385" lon="6.24974">
        <ele>448.8</ele>
        <time>2021-03-27T16:54:38Z</time>
      </trkpt>
      <trkpt lat="46.2038" lon="6.24977">
        <ele>448.8</ele>
        <time>2021-03-27T16:54:39Z</time>
      </trkpt>
      <trkpt lat="46.20375" lon="6.2498">
        <ele>448.8</ele>
        <time>2021-03-27T16:54:40Z</time>
      </trkpt>
      <trkpt lat="46.2037" lon="6.24983">
        <ele>448.6</ele>
        <time>2021-03-27T16:54:41Z</time>
      </trkpt>
      <trkpt lat="46.20366" lon="6.24985">
        <ele>448.8</ele>
        <time>2021-03-27T16:54:42Z</time>
      </trkpt>
      <trkpt lat="46.20361" lon="6.24987">
        <ele>448.8</ele>
        <time>2021-03-27T16:54:43Z</time>
      </trkpt>
      <trkpt lat="46.20357" lon="6.24988">
        <ele>448.8</ele>
        <time>2021-03-27T16:54:44Z</time>
      </trkpt>
      <trkpt lat="46.20353" lon="6.24987">
        <ele>449</ele>
        <time>2021-03-27T16:54:45Z</time>
      </trkpt>
      <trkpt lat="46.20349" lon="6.24986">
        <ele>449</ele>
        <time>2021-03-27T16:54:46Z</time>
      </trkpt>
      <trkpt lat="46.20345" lon="6.24985">
        <ele>449.2</ele>
        <time>2021-03-27T16:54:47Z</time>
      </trkpt>
      <trkpt lat="46.20341" lon="6.24984">
        <ele>449.2</ele>
        <time>2021-03-27T16:54:48Z</time>
      </trkpt>
      <trkpt lat="46.20338" lon="6.24982">
        <ele>449</ele>
        <time>2021-03-27T16:54:49Z</time>
      </trkpt>
      <trkpt lat="46.20335" lon="6.24977">
        <ele>449.2</ele>
        <time>2021-03-27T16:54:50Z</time>
      </trkpt>
      <trkpt lat="46.20334" lon="6.24971">
        <ele>449</ele>
        <time>2021-03-27T16:54:51Z</time>
      </trkpt>
      <trkpt lat="46.20333" lon="6.24964">
        <ele>449</ele>
        <time>2021-03-27T16:54:52Z</time>
      </trkpt>
      <trkpt lat="46.20332" lon="6.24956">
        <ele>448.8</ele>
        <time>2021-03-27T16:54:53Z</time>
      </trkpt>
      <trkpt lat="46.20332" lon="6.24948">
        <ele>449</ele>
        <time>2021-03-27T16:54:54Z</time>
      </trkpt>
      <trkpt lat="46.20332" lon="6.2494">
        <ele>449</ele>
        <time>2021-03-27T16:54:55Z</time>
      </trkpt>
      <trkpt lat="46.20331" lon="6.24931">
        <ele>449</ele>
        <time>2021-03-27T16:54:56Z</time>
      </trkpt>
      <trkpt lat="46.20331" lon="6.24922">
        <ele>449</ele>
        <time>2021-03-27T16:54:57Z</time>
      </trkpt>
      <trkpt lat="46.20331" lon="6.24913">
        <ele>449</ele>
        <time>2021-03-27T16:54:58Z</time>
      </trkpt>
      <trkpt lat="46.2033" lon="6.24904">
        <ele>449</ele>
        <time>2021-03-27T16:54:59Z</time>
      </trkpt>
      <trkpt lat="46.20329" lon="6.24886">
        <ele>448.6</ele>
        <time>2021-03-27T16:55:01Z</time>
      </trkpt>
      <trkpt lat="46.20327" lon="6.24877">
        <ele>448.4</ele>
        <time>2021-03-27T16:55:02Z</time>
      </trkpt>
      <trkpt lat="46.20325" lon="6.24868">
        <ele>448.4</ele>
        <time>2021-03-27T16:55:03Z</time>
      </trkpt>
      <trkpt lat="46.20323" lon="6.2486">
        <ele>448.2</ele>
        <time>2021-03-27T16:55:04Z</time>
      </trkpt>
      <trkpt lat="46.2032" lon="6.24851">
        <ele>448.2</ele>
        <time>2021-03-27T16:55:05Z</time>
      </trkpt>
      <trkpt lat="46.20318" lon="6.24843">
        <ele>448</ele>
        <time>2021-03-27T16:55:06Z</time>
      </trkpt>
      <trkpt lat="46.20316" lon="6.24835">
        <ele>447.8</ele>
        <time>2021-03-27T16:55:07Z</time>
      </trkpt>
      <trkpt lat="46.20314" lon="6.24827">
        <ele>447.6</ele>
        <time>2021-03-27T16:55:08Z</time>
      </trkpt>
      <trkpt lat="46.20313" lon="6.24819">
        <ele>447.4</ele>
        <time>2021-03-27T16:55:09Z</time>
      </trkpt>
      <trkpt lat="46.20313" lon="6.24811">
        <ele>447.4</ele>
        <time>2021-03-27T16:55:10Z</time>
      </trkpt>
      <trkpt lat="46.20313" lon="6.24803">
        <ele>447.2</ele>
        <time>2021-03-27T16:55:11Z</time>
      </trkpt>
      <trkpt lat="46.20315" lon="6.24795">
        <ele>447.4</ele>
        <time>2021-03-27T16:55:12Z</time>
      </trkpt>
      <trkpt lat="46.20317" lon="6.24787">
        <ele>447.4</ele>
        <time>2021-03-27T16:55:13Z</time>
      </trkpt>
      <trkpt lat="46.20319" lon="6.2478">
        <ele>447</ele>
        <time>2021-03-27T16:55:14Z</time>
      </trkpt>
      <trkpt lat="46.20321" lon="6.24773">
        <ele>447</ele>
        <time>2021-03-27T16:55:15Z</time>
      </trkpt>
      <trkpt lat="46.20323" lon="6.24766">
        <ele>447.2</ele>
        <time>2021-03-27T16:55:16Z</time>
      </trkpt>
      <trkpt lat="46.20325" lon="6.24759">
        <ele>447</ele>
        <time>2021-03-27T16:55:17Z</time>
      </trkpt>
      <trkpt lat="46.20327" lon="6.24752">
        <ele>447</ele>
        <time>2021-03-27T16:55:18Z</time>
      </trkpt>
      <trkpt lat="46.20329" lon="6.24745">
        <ele>447</ele>
        <time>2021-03-27T16:55:19Z</time>
      </trkpt>
      <trkpt lat="46.20331" lon="6.24739">
        <ele>446.8</ele>
        <time>2021-03-27T16:55:20Z</time>
      </trkpt>
      <trkpt lat="46.20333" lon="6.24732">
        <ele>446.8</ele>
        <time>2021-03-27T16:55:21Z</time>
      </trkpt>
      <trkpt lat="46.20335" lon="6.24725">
        <ele>446.6</ele>
        <time>2021-03-27T16:55:22Z</time>
      </trkpt>
      <trkpt lat="46.20336" lon="6.24719">
        <ele>446.8</ele>
        <time>2021-03-27T16:55:23Z</time>
      </trkpt>
      <trkpt lat="46.20338" lon="6.24712">
        <ele>446.6</ele>
        <time>2021-03-27T16:55:24Z</time>
      </trkpt>
      <trkpt lat="46.20339" lon="6.24706">
        <ele>446.6</ele>
        <time>2021-03-27T16:55:25Z</time>
      </trkpt>
      <trkpt lat="46.20339" lon="6.24702">
        <ele>446.4</ele>
        <time>2021-03-27T16:55:26Z</time>
      </trkpt>
      <trkpt lat="46.20339" lon="6.24698">
        <ele>446.6</ele>
        <time>2021-03-27T16:55:28Z</time>
      </trkpt>
      <trkpt lat="46.20338" lon="6.24697">
        <ele>446.4</ele>
        <time>2021-03-27T16:55:29Z</time>
      </trkpt>
      <trkpt lat="46.20334" lon="6.24695">
        <ele>446.4</ele>
        <time>2021-03-27T16:55:30Z</time>
      </trkpt>
      <trkpt lat="46.20331" lon="6.24693">
        <ele>446.2</ele>
        <time>2021-03-27T16:55:31Z</time>
      </trkpt>
      <trkpt lat="46.20327" lon="6.2469">
        <ele>446.2</ele>
        <time>2021-03-27T16:55:32Z</time>
      </trkpt>
      <trkpt lat="46.20322" lon="6.24686">
        <ele>446.2</ele>
        <time>2021-03-27T16:55:33Z</time>
      </trkpt>
      <trkpt lat="46.20318" lon="6.24681">
        <ele>446.2</ele>
        <time>2021-03-27T16:55:34Z</time>
      </trkpt>
      <trkpt lat="46.20313" lon="6.24675">
        <ele>446.2</ele>
        <time>2021-03-27T16:55:35Z</time>
      </trkpt>
      <trkpt lat="46.20308" lon="6.24669">
        <ele>446.2</ele>
        <time>2021-03-27T16:55:36Z</time>
      </trkpt>
      <trkpt lat="46.20303" lon="6.24663">
        <ele>446.2</ele>
        <time>2021-03-27T16:55:37Z</time>
      </trkpt>
      <trkpt lat="46.20298" lon="6.24657">
        <ele>446.2</ele>
        <time>2021-03-27T16:55:38Z</time>
      </trkpt>
      <trkpt lat="46.20292" lon="6.24651">
        <ele>446</ele>
        <time>2021-03-27T16:55:39Z</time>
      </trkpt>
      <trkpt lat="46.20287" lon="6.24645">
        <ele>446</ele>
        <time>2021-03-27T16:55:40Z</time>
      </trkpt>
      <trkpt lat="46.20281" lon="6.2464">
        <ele>446</ele>
        <time>2021-03-27T16:55:41Z</time>
      </trkpt>
      <trkpt lat="46.20275" lon="6.24633">
        <ele>446.2</ele>
        <time>2021-03-27T16:55:42Z</time>
      </trkpt>
      <trkpt lat="46.20269" lon="6.24627">
        <ele>446</ele>
        <time>2021-03-27T16:55:43Z</time>
      </trkpt>
      <trkpt lat="46.20263" lon="6.24621">
        <ele>446</ele>
        <time>2021-03-27T16:55:44Z</time>
      </trkpt>
      <trkpt lat="46.20256" lon="6.24616">
        <ele>446</ele>
        <time>2021-03-27T16:55:45Z</time>
      </trkpt>
      <trkpt lat="46.2025" lon="6.2461">
        <ele>446</ele>
        <time>2021-03-27T16:55:46Z</time>
      </trkpt>
      <trkpt lat="46.20243" lon="6.24604">
        <ele>446.2</ele>
        <time>2021-03-27T16:55:47Z</time>
      </trkpt>
      <trkpt lat="46.2023" lon="6.24594">
        <ele>446</ele>
        <time>2021-03-27T16:55:49Z</time>
      </trkpt>
      <trkpt lat="46.20222" lon="6.2459">
        <ele>445.8</ele>
        <time>2021-03-27T16:55:50Z</time>
      </trkpt>
      <trkpt lat="46.20208" lon="6.24581">
        <ele>445.8</ele>
        <time>2021-03-27T16:55:52Z</time>
      </trkpt>
      <trkpt lat="46.20201" lon="6.24578">
        <ele>445.8</ele>
        <time>2021-03-27T16:55:53Z</time>
      </trkpt>
      <trkpt lat="46.20186" lon="6.2457">
        <ele>445.6</ele>
        <time>2021-03-27T16:55:55Z</time>
      </trkpt>
      <trkpt lat="46.20179" lon="6.24567">
        <ele>445.6</ele>
        <time>2021-03-27T16:55:56Z</time>
      </trkpt>
      <trkpt lat="46.20172" lon="6.24563">
        <ele>445.4</ele>
        <time>2021-03-27T16:55:57Z</time>
      </trkpt>
      <trkpt lat="46.20165" lon="6.2456">
        <ele>445.4</ele>
        <time>2021-03-27T16:55:58Z</time>
      </trkpt>
      <trkpt lat="46.2016" lon="6.24558">
        <ele>445.4</ele>
        <time>2021-03-27T16:55:59Z</time>
      </trkpt>
      <trkpt lat="46.20155" lon="6.24556">
        <ele>445.4</ele>
        <time>2021-03-27T16:56:00Z</time>
      </trkpt>
      <trkpt lat="46.20151" lon="6.24555">
        <ele>445.4</ele>
        <time>2021-03-27T16:56:01Z</time>
      </trkpt>
      <trkpt lat="46.20147" lon="6.24554">
        <ele>445.4</ele>
        <time>2021-03-27T16:56:02Z</time>
      </trkpt>
      <trkpt lat="46.20144" lon="6.24553">
        <ele>445.2</ele>
        <time>2021-03-27T16:56:03Z</time>
      </trkpt>
      <trkpt lat="46.20136" lon="6.24555">
        <ele>445.4</ele>
        <time>2021-03-27T16:56:05Z</time>
      </trkpt>
      <trkpt lat="46.20133" lon="6.24558">
        <ele>445.4</ele>
        <time>2021-03-27T16:56:06Z</time>
      </trkpt>
      <trkpt lat="46.20132" lon="6.24563">
        <ele>445.6</ele>
        <time>2021-03-27T16:56:07Z</time>
      </trkpt>
      <trkpt lat="46.20132" lon="6.24574">
        <ele>446</ele>
        <time>2021-03-27T16:56:09Z</time>
      </trkpt>
      <trkpt lat="46.20135" lon="6.24587">
        <ele>446.2</ele>
        <time>2021-03-27T16:56:11Z</time>
      </trkpt>
      <trkpt lat="46.20137" lon="6.24593">
        <ele>446.2</ele>
        <time>2021-03-27T16:56:12Z</time>
      </trkpt>
      <trkpt lat="46.20137" lon="6.246">
        <ele>446.4</ele>
        <time>2021-03-27T16:56:13Z</time>
      </trkpt>
      <trkpt lat="46.20137" lon="6.24607">
        <ele>446.4</ele>
        <time>2021-03-27T16:56:14Z</time>
      </trkpt>
      <trkpt lat="46.20136" lon="6.24614">
        <ele>446.4</ele>
        <time>2021-03-27T16:56:15Z</time>
      </trkpt>
      <trkpt lat="46.20135" lon="6.2462">
        <ele>446.4</ele>
        <time>2021-03-27T16:56:16Z</time>
      </trkpt>
      <trkpt lat="46.20135" lon="6.24627">
        <ele>446.4</ele>
        <time>2021-03-27T16:56:17Z</time>
      </trkpt>
      <trkpt lat="46.20136" lon="6.24634">
        <ele>446.4</ele>
        <time>2021-03-27T16:56:18Z</time>
      </trkpt>
      <trkpt lat="46.20138" lon="6.2464">
        <ele>446.6</ele>
        <time>2021-03-27T16:56:19Z</time>
      </trkpt>
      <trkpt lat="46.20142" lon="6.24644">
        <ele>446.6</ele>
        <time>2021-03-27T16:56:20Z</time>
      </trkpt>
      <trkpt lat="46.20147" lon="6.24648">
        <ele>446.6</ele>
        <time>2021-03-27T16:56:21Z</time>
      </trkpt>
      <trkpt lat="46.20151" lon="6.24653">
        <ele>446.6</ele>
        <time>2021-03-27T16:56:22Z</time>
      </trkpt>
      <trkpt lat="46.20154" lon="6.24659">
        <ele>446.8</ele>
        <time>2021-03-27T16:56:23Z</time>
      </trkpt>
      <trkpt lat="46.20155" lon="6.24666">
        <ele>447.2</ele>
        <time>2021-03-27T16:56:24Z</time>
      </trkpt>
      <trkpt lat="46.20155" lon="6.24674">
        <ele>447.4</ele>
        <time>2021-03-27T16:56:25Z</time>
      </trkpt>
      <trkpt lat="46.20153" lon="6.24682">
        <ele>447.8</ele>
        <time>2021-03-27T16:56:26Z</time>
      </trkpt>
      <trkpt lat="46.20151" lon="6.2469">
        <ele>447.8</ele>
        <time>2021-03-27T16:56:27Z</time>
      </trkpt>
      <trkpt lat="46.20145" lon="6.24706">
        <ele>448.2</ele>
        <time>2021-03-27T16:56:29Z</time>
      </trkpt>
      <trkpt lat="46.20143" lon="6.24713">
        <ele>448.2</ele>
        <time>2021-03-27T16:56:30Z</time>
      </trkpt>
      <trkpt lat="46.2014" lon="6.24721">
        <ele>448.4</ele>
        <time>2021-03-27T16:56:31Z</time>
      </trkpt>
      <trkpt lat="46.20138" lon="6.24729">
        <ele>448.4</ele>
        <time>2021-03-27T16:56:32Z</time>
      </trkpt>
      <trkpt lat="46.20135" lon="6.24737">
        <ele>448.6</ele>
        <time>2021-03-27T16:56:33Z</time>
      </trkpt>
      <trkpt lat="46.20132" lon="6.24745">
        <ele>448.6</ele>
        <time>2021-03-27T16:56:34Z</time>
      </trkpt>
      <trkpt lat="46.2013" lon="6.24753">
        <ele>448.8</ele>
        <time>2021-03-27T16:56:35Z</time>
      </trkpt>
      <trkpt lat="46.20127" lon="6.24762">
        <ele>449</ele>
        <time>2021-03-27T16:56:36Z</time>
      </trkpt>
      <trkpt lat="46.20124" lon="6.2477">
        <ele>449.2</ele>
        <time>2021-03-27T16:56:37Z</time>
      </trkpt>
      <trkpt lat="46.20121" lon="6.24779">
        <ele>449.2</ele>
        <time>2021-03-27T16:56:38Z</time>
      </trkpt>
      <trkpt lat="46.20118" lon="6.24788">
        <ele>449.4</ele>
        <time>2021-03-27T16:56:39Z</time>
      </trkpt>
      <trkpt lat="46.20115" lon="6.24797">
        <ele>449.4</ele>
        <time>2021-03-27T16:56:40Z</time>
      </trkpt>
      <trkpt lat="46.20112" lon="6.24805">
        <ele>449.6</ele>
        <time>2021-03-27T16:56:41Z</time>
      </trkpt>
      <trkpt lat="46.2011" lon="6.24814">
        <ele>449.8</ele>
        <time>2021-03-27T16:56:42Z</time>
      </trkpt>
      <trkpt lat="46.20107" lon="6.24823">
        <ele>449.8</ele>
        <time>2021-03-27T16:56:43Z</time>
      </trkpt>
      <trkpt lat="46.20104" lon="6.24832">
        <ele>450</ele>
        <time>2021-03-27T16:56:44Z</time>
      </trkpt>
      <trkpt lat="46.20101" lon="6.24841">
        <ele>450</ele>
        <time>2021-03-27T16:56:45Z</time>
      </trkpt>
      <trkpt lat="46.20098" lon="6.2485">
        <ele>450</ele>
        <time>2021-03-27T16:56:46Z</time>
      </trkpt>
      <trkpt lat="46.20096" lon="6.24859">
        <ele>450</ele>
        <time>2021-03-27T16:56:47Z</time>
      </trkpt>
      <trkpt lat="46.20093" lon="6.24868">
        <ele>450</ele>
        <time>2021-03-27T16:56:48Z</time>
      </trkpt>
      <trkpt lat="46.2009" lon="6.24877">
        <ele>450.2</ele>
        <time>2021-03-27T16:56:49Z</time>
      </trkpt>
      <trkpt lat="46.20088" lon="6.24885">
        <ele>450</ele>
        <time>2021-03-27T16:56:50Z</time>
      </trkpt>
      <trkpt lat="46.20085" lon="6.24893">
        <ele>450.2</ele>
        <time>2021-03-27T16:56:51Z</time>
      </trkpt>
      <trkpt lat="46.20082" lon="6.24901">
        <ele>450.4</ele>
        <time>2021-03-27T16:56:52Z</time>
      </trkpt>
      <trkpt lat="46.20079" lon="6.24909">
        <ele>450.2</ele>
        <time>2021-03-27T16:56:53Z</time>
      </trkpt>
      <trkpt lat="46.20077" lon="6.24917">
        <ele>450.4</ele>
        <time>2021-03-27T16:56:54Z</time>
      </trkpt>
      <trkpt lat="46.20074" lon="6.24924">
        <ele>450.4</ele>
        <time>2021-03-27T16:56:55Z</time>
      </trkpt>
      <trkpt lat="46.20071" lon="6.24932">
        <ele>450.4</ele>
        <time>2021-03-27T16:56:56Z</time>
      </trkpt>
      <trkpt lat="46.20068" lon="6.24939">
        <ele>450.4</ele>
        <time>2021-03-27T16:56:57Z</time>
      </trkpt>
      <trkpt lat="46.20065" lon="6.24945">
        <ele>450.4</ele>
        <time>2021-03-27T16:56:58Z</time>
      </trkpt>
      <trkpt lat="46.2006" lon="6.24951">
        <ele>450.4</ele>
        <time>2021-03-27T16:56:59Z</time>
      </trkpt>
      <trkpt lat="46.20057" lon="6.24956">
        <ele>450.4</ele>
        <time>2021-03-27T16:57:00Z</time>
      </trkpt>
      <trkpt lat="46.20054" lon="6.24962">
        <ele>450.6</ele>
        <time>2021-03-27T16:57:01Z</time>
      </trkpt>
      <trkpt lat="46.20051" lon="6.24969">
        <ele>450.4</ele>
        <time>2021-03-27T16:57:02Z</time>
      </trkpt>
      <trkpt lat="46.2005" lon="6.24977">
        <ele>450.6</ele>
        <time>2021-03-27T16:57:03Z</time>
      </trkpt>
      <trkpt lat="46.20049" lon="6.24986">
        <ele>450.4</ele>
        <time>2021-03-27T16:57:04Z</time>
      </trkpt>
      <trkpt lat="46.20048" lon="6.24995">
        <ele>450.4</ele>
        <time>2021-03-27T16:57:05Z</time>
      </trkpt>
      <trkpt lat="46.20045" lon="6.25003">
        <ele>450.4</ele>
        <time>2021-03-27T16:57:06Z</time>
      </trkpt>
      <trkpt lat="46.20043" lon="6.25012">
        <ele>450.4</ele>
        <time>2021-03-27T16:57:07Z</time>
      </trkpt>
      <trkpt lat="46.2004" lon="6.25021">
        <ele>450.4</ele>
        <time>2021-03-27T16:57:08Z</time>
      </trkpt>
      <trkpt lat="46.20038" lon="6.25029">
        <ele>450.6</ele>
        <time>2021-03-27T16:57:09Z</time>
      </trkpt>
      <trkpt lat="46.20035" lon="6.25038">
        <ele>450.4</ele>
        <time>2021-03-27T16:57:10Z</time>
      </trkpt>
      <trkpt lat="46.20033" lon="6.25046">
        <ele>450.6</ele>
        <time>2021-03-27T16:57:11Z</time>
      </trkpt>
      <trkpt lat="46.20031" lon="6.25053">
        <ele>450.6</ele>
        <time>2021-03-27T16:57:12Z</time>
      </trkpt>
      <trkpt lat="46.20028" lon="6.25061">
        <ele>450.6</ele>
        <time>2021-03-27T16:57:13Z</time>
      </trkpt>
      <trkpt lat="46.20026" lon="6.25069">
        <ele>450.6</ele>
        <time>2021-03-27T16:57:14Z</time>
      </trkpt>
      <trkpt lat="46.20024" lon="6.25076">
        <ele>450.6</ele>
        <time>2021-03-27T16:57:15Z</time>
      </trkpt>
      <trkpt lat="46.20022" lon="6.25083">
        <ele>450.8</ele>
        <time>2021-03-27T16:57:16Z</time>
      </trkpt>
      <trkpt lat="46.2002" lon="6.25091">
        <ele>450.8</ele>
        <time>2021-03-27T16:57:17Z</time>
      </trkpt>
      <trkpt lat="46.20018" lon="6.25097">
        <ele>451.2</ele>
        <time>2021-03-27T16:57:18Z</time>
      </trkpt>
      <trkpt lat="46.20015" lon="6.25104">
        <ele>451.8</ele>
        <time>2021-03-27T16:57:19Z</time>
      </trkpt>
      <trkpt lat="46.20013" lon="6.2511">
        <ele>452.2</ele>
        <time>2021-03-27T16:57:20Z</time>
      </trkpt>
      <trkpt lat="46.2001" lon="6.25115">
        <ele>452.8</ele>
        <time>2021-03-27T16:57:21Z</time>
      </trkpt>
      <trkpt lat="46.20008" lon="6.25121">
        <ele>453</ele>
        <time>2021-03-27T16:57:22Z</time>
      </trkpt>
      <trkpt lat="46.20005" lon="6.25125">
        <ele>453.4</ele>
        <time>2021-03-27T16:57:23Z</time>
      </trkpt>
      <trkpt lat="46.20001" lon="6.25129">
        <ele>453.8</ele>
        <time>2021-03-27T16:57:24Z</time>
      </trkpt>
      <trkpt lat="46.19997" lon="6.25133">
        <ele>454.2</ele>
        <time>2021-03-27T16:57:25Z</time>
      </trkpt>
      <trkpt lat="46.19994" lon="6.25138">
        <ele>454.6</ele>
        <time>2021-03-27T16:57:26Z</time>
      </trkpt>
      <trkpt lat="46.19991" lon="6.25144">
        <ele>454.8</ele>
        <time>2021-03-27T16:57:27Z</time>
      </trkpt>
      <trkpt lat="46.19988" lon="6.2515">
        <ele>455</ele>
        <time>2021-03-27T16:57:28Z</time>
      </trkpt>
      <trkpt lat="46.19984" lon="6.25155">
        <ele>455.6</ele>
        <time>2021-03-27T16:57:29Z</time>
      </trkpt>
      <trkpt lat="46.1998" lon="6.25159">
        <ele>455.8</ele>
        <time>2021-03-27T16:57:30Z</time>
      </trkpt>
      <trkpt lat="46.19974" lon="6.25162">
        <ele>456.2</ele>
        <time>2021-03-27T16:57:31Z</time>
      </trkpt>
      <trkpt lat="46.19969" lon="6.25165">
        <ele>456.2</ele>
        <time>2021-03-27T16:57:32Z</time>
      </trkpt>
      <trkpt lat="46.19963" lon="6.25167">
        <ele>456.2</ele>
        <time>2021-03-27T16:57:33Z</time>
      </trkpt>
      <trkpt lat="46.19958" lon="6.2517">
        <ele>456.2</ele>
        <time>2021-03-27T16:57:34Z</time>
      </trkpt>
      <trkpt lat="46.19952" lon="6.25173">
        <ele>456.4</ele>
        <time>2021-03-27T16:57:35Z</time>
      </trkpt>
      <trkpt lat="46.19946" lon="6.25176">
        <ele>456.4</ele>
        <time>2021-03-27T16:57:36Z</time>
      </trkpt>
      <trkpt lat="46.19941" lon="6.25179">
        <ele>456.4</ele>
        <time>2021-03-27T16:57:37Z</time>
      </trkpt>
      <trkpt lat="46.19935" lon="6.25182">
        <ele>456.4</ele>
        <time>2021-03-27T16:57:38Z</time>
      </trkpt>
      <trkpt lat="46.1993" lon="6.25184">
        <ele>456.4</ele>
        <time>2021-03-27T16:57:39Z</time>
      </trkpt>
      <trkpt lat="46.19924" lon="6.25187">
        <ele>456.4</ele>
        <time>2021-03-27T16:57:40Z</time>
      </trkpt>
      <trkpt lat="46.19918" lon="6.25189">
        <ele>456.6</ele>
        <time>2021-03-27T16:57:41Z</time>
      </trkpt>
      <trkpt lat="46.19912" lon="6.25191">
        <ele>456.6</ele>
        <time>2021-03-27T16:57:42Z</time>
      </trkpt>
      <trkpt lat="46.19906" lon="6.25194">
        <ele>456.6</ele>
        <time>2021-03-27T16:57:43Z</time>
      </trkpt>
      <trkpt lat="46.199" lon="6.25196">
        <ele>456.6</ele>
        <time>2021-03-27T16:57:44Z</time>
      </trkpt>
      <trkpt lat="46.19894" lon="6.25199">
        <ele>456.4</ele>
        <time>2021-03-27T16:57:45Z</time>
      </trkpt>
      <trkpt lat="46.19888" lon="6.25202">
        <ele>456.6</ele>
        <time>2021-03-27T16:57:46Z</time>
      </trkpt>
      <trkpt lat="46.19882" lon="6.25204">
        <ele>456.6</ele>
        <time>2021-03-27T16:57:47Z</time>
      </trkpt>
      <trkpt lat="46.19875" lon="6.25205">
        <ele>456.6</ele>
        <time>2021-03-27T16:57:48Z</time>
      </trkpt>
      <trkpt lat="46.19869" lon="6.25206">
        <ele>456.6</ele>
        <time>2021-03-27T16:57:49Z</time>
      </trkpt>
      <trkpt lat="46.19862" lon="6.25207">
        <ele>456.8</ele>
        <time>2021-03-27T16:57:50Z</time>
      </trkpt>
      <trkpt lat="46.19856" lon="6.25209">
        <ele>456.8</ele>
        <time>2021-03-27T16:57:51Z</time>
      </trkpt>
      <trkpt lat="46.19849" lon="6.2521">
        <ele>456.8</ele>
        <time>2021-03-27T16:57:52Z</time>
      </trkpt>
      <trkpt lat="46.19843" lon="6.25212">
        <ele>456.8</ele>
        <time>2021-03-27T16:57:53Z</time>
      </trkpt>
      <trkpt lat="46.19836" lon="6.25213">
        <ele>456.8</ele>
        <time>2021-03-27T16:57:54Z</time>
      </trkpt>
      <trkpt lat="46.1983" lon="6.25215">
        <ele>456.8</ele>
        <time>2021-03-27T16:57:55Z</time>
      </trkpt>
      <trkpt lat="46.19823" lon="6.25216">
        <ele>456.8</ele>
        <time>2021-03-27T16:57:56Z</time>
      </trkpt>
      <trkpt lat="46.19817" lon="6.25218">
        <ele>456.8</ele>
        <time>2021-03-27T16:57:57Z</time>
      </trkpt>
      <trkpt lat="46.1981" lon="6.25219">
        <ele>457</ele>
        <time>2021-03-27T16:57:58Z</time>
      </trkpt>
      <trkpt lat="46.19804" lon="6.25221">
        <ele>456.8</ele>
        <time>2021-03-27T16:57:59Z</time>
      </trkpt>
      <trkpt lat="46.19797" lon="6.25222">
        <ele>457</ele>
        <time>2021-03-27T16:58:00Z</time>
      </trkpt>
      <trkpt lat="46.19791" lon="6.25222">
        <ele>457</ele>
        <time>2021-03-27T16:58:01Z</time>
      </trkpt>
      <trkpt lat="46.19784" lon="6.25222">
        <ele>457</ele>
        <time>2021-03-27T16:58:02Z</time>
      </trkpt>
      <trkpt lat="46.19777" lon="6.25222">
        <ele>457</ele>
        <time>2021-03-27T16:58:03Z</time>
      </trkpt>
      <trkpt lat="46.1977" lon="6.25222">
        <ele>457</ele>
        <time>2021-03-27T16:58:04Z</time>
      </trkpt>
      <trkpt lat="46.19763" lon="6.2522">
        <ele>457</ele>
        <time>2021-03-27T16:58:05Z</time>
      </trkpt>
      <trkpt lat="46.19756" lon="6.25219">
        <ele>457.2</ele>
        <time>2021-03-27T16:58:06Z</time>
      </trkpt>
      <trkpt lat="46.19748" lon="6.25218">
        <ele>457</ele>
        <time>2021-03-27T16:58:07Z</time>
      </trkpt>
      <trkpt lat="46.19741" lon="6.25217">
        <ele>457.2</ele>
        <time>2021-03-27T16:58:08Z</time>
      </trkpt>
      <trkpt lat="46.19733" lon="6.25217">
        <ele>457.2</ele>
        <time>2021-03-27T16:58:09Z</time>
      </trkpt>
      <trkpt lat="46.19725" lon="6.25216">
        <ele>457</ele>
        <time>2021-03-27T16:58:10Z</time>
      </trkpt>
      <trkpt lat="46.19717" lon="6.25216">
        <ele>457</ele>
        <time>2021-03-27T16:58:11Z</time>
      </trkpt>
      <trkpt lat="46.1971" lon="6.25216">
        <ele>456.6</ele>
        <time>2021-03-27T16:58:12Z</time>
      </trkpt>
      <trkpt lat="46.19702" lon="6.25216">
        <ele>456.6</ele>
        <time>2021-03-27T16:58:13Z</time>
      </trkpt>
      <trkpt lat="46.19695" lon="6.25216">
        <ele>456.4</ele>
        <time>2021-03-27T16:58:14Z</time>
      </trkpt>
      <trkpt lat="46.19688" lon="6.25216">
        <ele>456.2</ele>
        <time>2021-03-27T16:58:15Z</time>
      </trkpt>
      <trkpt lat="46.19681" lon="6.25215">
        <ele>456.2</ele>
        <time>2021-03-27T16:58:16Z</time>
      </trkpt>
      <trkpt lat="46.19675" lon="6.25213">
        <ele>456</ele>
        <time>2021-03-27T16:58:17Z</time>
      </trkpt>
      <trkpt lat="46.19668" lon="6.25211">
        <ele>456</ele>
        <time>2021-03-27T16:58:18Z</time>
      </trkpt>
      <trkpt lat="46.19661" lon="6.25209">
        <ele>455.8</ele>
        <time>2021-03-27T16:58:19Z</time>
      </trkpt>
      <trkpt lat="46.19655" lon="6.25206">
        <ele>455.8</ele>
        <time>2021-03-27T16:58:20Z</time>
      </trkpt>
      <trkpt lat="46.19647" lon="6.25203">
        <ele>455.8</ele>
        <time>2021-03-27T16:58:21Z</time>
      </trkpt>
      <trkpt lat="46.1964" lon="6.252">
        <ele>455.6</ele>
        <time>2021-03-27T16:58:22Z</time>
      </trkpt>
      <trkpt lat="46.19633" lon="6.25195">
        <ele>455.6</ele>
        <time>2021-03-27T16:58:23Z</time>
      </trkpt>
      <trkpt lat="46.19625" lon="6.25191">
        <ele>455.4</ele>
        <time>2021-03-27T16:58:24Z</time>
      </trkpt>
      <trkpt lat="46.19617" lon="6.25186">
        <ele>455.4</ele>
        <time>2021-03-27T16:58:25Z</time>
      </trkpt>
      <trkpt lat="46.1961" lon="6.25183">
        <ele>455.2</ele>
        <time>2021-03-27T16:58:26Z</time>
      </trkpt>
      <trkpt lat="46.19604" lon="6.25179">
        <ele>455</ele>
        <time>2021-03-27T16:58:27Z</time>
      </trkpt>
      <trkpt lat="46.19597" lon="6.25175">
        <ele>455</ele>
        <time>2021-03-27T16:58:28Z</time>
      </trkpt>
      <trkpt lat="46.19591" lon="6.25171">
        <ele>454.8</ele>
        <time>2021-03-27T16:58:29Z</time>
      </trkpt>
      <trkpt lat="46.19586" lon="6.25168">
        <ele>454.8</ele>
        <time>2021-03-27T16:58:30Z</time>
      </trkpt>
      <trkpt lat="46.1958" lon="6.25164">
        <ele>454.6</ele>
        <time>2021-03-27T16:58:31Z</time>
      </trkpt>
      <trkpt lat="46.19574" lon="6.25161">
        <ele>454.8</ele>
        <time>2021-03-27T16:58:32Z</time>
      </trkpt>
      <trkpt lat="46.19568" lon="6.25157">
        <ele>454.6</ele>
        <time>2021-03-27T16:58:33Z</time>
      </trkpt>
      <trkpt lat="46.19562" lon="6.25155">
        <ele>454.6</ele>
        <time>2021-03-27T16:58:34Z</time>
      </trkpt>
      <trkpt lat="46.19549" lon="6.25149">
        <ele>454.6</ele>
        <time>2021-03-27T16:58:36Z</time>
      </trkpt>
      <trkpt lat="46.19542" lon="6.25146">
        <ele>454.8</ele>
        <time>2021-03-27T16:58:37Z</time>
      </trkpt>
      <trkpt lat="46.19535" lon="6.25143">
        <ele>454.6</ele>
        <time>2021-03-27T16:58:38Z</time>
      </trkpt>
      <trkpt lat="46.19527" lon="6.2514">
        <ele>454.6</ele>
        <time>2021-03-27T16:58:39Z</time>
      </trkpt>
      <trkpt lat="46.1952" lon="6.25138">
        <ele>454.8</ele>
        <time>2021-03-27T16:58:40Z</time>
      </trkpt>
      <trkpt lat="46.19513" lon="6.25136">
        <ele>455</ele>
        <time>2021-03-27T16:58:41Z</time>
      </trkpt>
      <trkpt lat="46.19499" lon="6.25131">
        <ele>455.2</ele>
        <time>2021-03-27T16:58:43Z</time>
      </trkpt>
      <trkpt lat="46.19491" lon="6.25129">
        <ele>455.2</ele>
        <time>2021-03-27T16:58:44Z</time>
      </trkpt>
      <trkpt lat="46.19484" lon="6.25127">
        <ele>455.2</ele>
        <time>2021-03-27T16:58:45Z</time>
      </trkpt>
      <trkpt lat="46.19477" lon="6.25125">
        <ele>455.4</ele>
        <time>2021-03-27T16:58:46Z</time>
      </trkpt>
      <trkpt lat="46.1947" lon="6.25123">
        <ele>455.4</ele>
        <time>2021-03-27T16:58:47Z</time>
      </trkpt>
      <trkpt lat="46.19464" lon="6.25121">
        <ele>455.6</ele>
        <time>2021-03-27T16:58:48Z</time>
      </trkpt>
      <trkpt lat="46.19445" lon="6.25117">
        <ele>455.6</ele>
        <time>2021-03-27T16:58:51Z</time>
      </trkpt>
      <trkpt lat="46.19439" lon="6.25115">
        <ele>455.4</ele>
        <time>2021-03-27T16:58:52Z</time>
      </trkpt>
      <trkpt lat="46.19427" lon="6.25109">
        <ele>455.4</ele>
        <time>2021-03-27T16:58:54Z</time>
      </trkpt>
      <trkpt lat="46.19421" lon="6.25105">
        <ele>455.2</ele>
        <time>2021-03-27T16:58:55Z</time>
      </trkpt>
      <trkpt lat="46.19417" lon="6.251">
        <ele>455.2</ele>
        <time>2021-03-27T16:58:56Z</time>
      </trkpt>
      <trkpt lat="46.19412" lon="6.25094">
        <ele>455.2</ele>
        <time>2021-03-27T16:58:57Z</time>
      </trkpt>
      <trkpt lat="46.19407" lon="6.25091">
        <ele>455.2</ele>
        <time>2021-03-27T16:58:58Z</time>
      </trkpt>
      <trkpt lat="46.19402" lon="6.2509">
        <ele>455</ele>
        <time>2021-03-27T16:58:59Z</time>
      </trkpt>
      <trkpt lat="46.19396" lon="6.25091">
        <ele>455</ele>
        <time>2021-03-27T16:59:00Z</time>
      </trkpt>
      <trkpt lat="46.19391" lon="6.25093">
        <ele>455.2</ele>
        <time>2021-03-27T16:59:01Z</time>
      </trkpt>
      <trkpt lat="46.19385" lon="6.25096">
        <ele>455.2</ele>
        <time>2021-03-27T16:59:02Z</time>
      </trkpt>
      <trkpt lat="46.1938" lon="6.25099">
        <ele>455.2</ele>
        <time>2021-03-27T16:59:03Z</time>
      </trkpt>
      <trkpt lat="46.19374" lon="6.251">
        <ele>455</ele>
        <time>2021-03-27T16:59:04Z</time>
      </trkpt>
      <trkpt lat="46.19368" lon="6.25101">
        <ele>455.2</ele>
        <time>2021-03-27T16:59:05Z</time>
      </trkpt>
      <trkpt lat="46.19362" lon="6.25101">
        <ele>455</ele>
        <time>2021-03-27T16:59:06Z</time>
      </trkpt>
      <trkpt lat="46.19357" lon="6.25101">
        <ele>455.2</ele>
        <time>2021-03-27T16:59:07Z</time>
      </trkpt>
      <trkpt lat="46.19351" lon="6.25102">
        <ele>455.6</ele>
        <time>2021-03-27T16:59:08Z</time>
      </trkpt>
      <trkpt lat="46.19345" lon="6.25102">
        <ele>455.6</ele>
        <time>2021-03-27T16:59:09Z</time>
      </trkpt>
      <trkpt lat="46.19339" lon="6.25103">
        <ele>455.8</ele>
        <time>2021-03-27T16:59:10Z</time>
      </trkpt>
      <trkpt lat="46.19334" lon="6.25103">
        <ele>456</ele>
        <time>2021-03-27T16:59:11Z</time>
      </trkpt>
      <trkpt lat="46.19328" lon="6.25104">
        <ele>456.8</ele>
        <time>2021-03-27T16:59:12Z</time>
      </trkpt>
      <trkpt lat="46.19322" lon="6.25105">
        <ele>457</ele>
        <time>2021-03-27T16:59:13Z</time>
      </trkpt>
      <trkpt lat="46.19316" lon="6.25105">
        <ele>457.4</ele>
        <time>2021-03-27T16:59:14Z</time>
      </trkpt>
      <trkpt lat="46.19311" lon="6.25105">
        <ele>457.6</ele>
        <time>2021-03-27T16:59:15Z</time>
      </trkpt>
      <trkpt lat="46.19306" lon="6.25106">
        <ele>458</ele>
        <time>2021-03-27T16:59:16Z</time>
      </trkpt>
      <trkpt lat="46.19301" lon="6.25106">
        <ele>458.2</ele>
        <time>2021-03-27T16:59:17Z</time>
      </trkpt>
      <trkpt lat="46.19297" lon="6.25107">
        <ele>458.6</ele>
        <time>2021-03-27T16:59:18Z</time>
      </trkpt>
      <trkpt lat="46.19293" lon="6.25107">
        <ele>458.8</ele>
        <time>2021-03-27T16:59:19Z</time>
      </trkpt>
      <trkpt lat="46.19289" lon="6.25107">
        <ele>459</ele>
        <time>2021-03-27T16:59:20Z</time>
      </trkpt>
      <trkpt lat="46.19286" lon="6.25108">
        <ele>459.2</ele>
        <time>2021-03-27T16:59:21Z</time>
      </trkpt>
      <trkpt lat="46.19281" lon="6.25108">
        <ele>459.2</ele>
        <time>2021-03-27T16:59:22Z</time>
      </trkpt>
      <trkpt lat="46.19273" lon="6.25109">
        <ele>460</ele>
        <time>2021-03-27T16:59:24Z</time>
      </trkpt>
      <trkpt lat="46.19268" lon="6.2511">
        <ele>460.4</ele>
        <time>2021-03-27T16:59:25Z</time>
      </trkpt>
      <trkpt lat="46.19263" lon="6.2511">
        <ele>460.6</ele>
        <time>2021-03-27T16:59:26Z</time>
      </trkpt>
      <trkpt lat="46.19258" lon="6.25111">
        <ele>460.8</ele>
        <time>2021-03-27T16:59:27Z</time>
      </trkpt>
      <trkpt lat="46.19252" lon="6.25111">
        <ele>460.8</ele>
        <time>2021-03-27T16:59:28Z</time>
      </trkpt>
      <trkpt lat="46.19247" lon="6.25112">
        <ele>461</ele>
        <time>2021-03-27T16:59:29Z</time>
      </trkpt>
      <trkpt lat="46.19242" lon="6.25112">
        <ele>461</ele>
        <time>2021-03-27T16:59:30Z</time>
      </trkpt>
      <trkpt lat="46.19237" lon="6.25113">
        <ele>461</ele>
        <time>2021-03-27T16:59:31Z</time>
      </trkpt>
      <trkpt lat="46.19232" lon="6.25113">
        <ele>461</ele>
        <time>2021-03-27T16:59:32Z</time>
      </trkpt>
      <trkpt lat="46.19227" lon="6.25114">
        <ele>461.2</ele>
        <time>2021-03-27T16:59:33Z</time>
      </trkpt>
      <trkpt lat="46.19222" lon="6.25114">
        <ele>461.2</ele>
        <time>2021-03-27T16:59:34Z</time>
      </trkpt>
      <trkpt lat="46.19218" lon="6.25114">
        <ele>461.4</ele>
        <time>2021-03-27T16:59:35Z</time>
      </trkpt>
      <trkpt lat="46.19213" lon="6.25112">
        <ele>461.4</ele>
        <time>2021-03-27T16:59:36Z</time>
      </trkpt>
      <trkpt lat="46.19209" lon="6.2511">
        <ele>461.4</ele>
        <time>2021-03-27T16:59:37Z</time>
      </trkpt>
      <trkpt lat="46.19206" lon="6.25106">
        <ele>461.8</ele>
        <time>2021-03-27T16:59:38Z</time>
      </trkpt>
      <trkpt lat="46.19202" lon="6.25099">
        <ele>462</ele>
        <time>2021-03-27T16:59:40Z</time>
      </trkpt>
      <trkpt lat="46.192" lon="6.25097">
        <ele>462.2</ele>
        <time>2021-03-27T16:59:41Z</time>
      </trkpt>
      <trkpt lat="46.19198" lon="6.25093">
        <ele>462.2</ele>
        <time>2021-03-27T16:59:42Z</time>
      </trkpt>
      <trkpt lat="46.19193" lon="6.25084">
        <ele>462.6</ele>
        <time>2021-03-27T16:59:44Z</time>
      </trkpt>
      <trkpt lat="46.1919" lon="6.2508">
        <ele>462.8</ele>
        <time>2021-03-27T16:59:45Z</time>
      </trkpt>
      <trkpt lat="46.19186" lon="6.25077">
        <ele>463.2</ele>
        <time>2021-03-27T16:59:46Z</time>
      </trkpt>
      <trkpt lat="46.19182" lon="6.25074">
        <ele>463.6</ele>
        <time>2021-03-27T16:59:47Z</time>
      </trkpt>
      <trkpt lat="46.19173" lon="6.25071">
        <ele>463.8</ele>
        <time>2021-03-27T16:59:49Z</time>
      </trkpt>
      <trkpt lat="46.19169" lon="6.25069">
        <ele>464</ele>
        <time>2021-03-27T16:59:50Z</time>
      </trkpt>
      <trkpt lat="46.19165" lon="6.25065">
        <ele>464</ele>
        <time>2021-03-27T16:59:51Z</time>
      </trkpt>
      <trkpt lat="46.1916" lon="6.2506">
        <ele>464</ele>
        <time>2021-03-27T16:59:52Z</time>
      </trkpt>
      <trkpt lat="46.19155" lon="6.25056">
        <ele>464</ele>
        <time>2021-03-27T16:59:53Z</time>
      </trkpt>
      <trkpt lat="46.19149" lon="6.25054">
        <ele>464</ele>
        <time>2021-03-27T16:59:54Z</time>
      </trkpt>
      <trkpt lat="46.19143" lon="6.25054">
        <ele>464</ele>
        <time>2021-03-27T16:59:55Z</time>
      </trkpt>
      <trkpt lat="46.19137" lon="6.25057">
        <ele>464</ele>
        <time>2021-03-27T16:59:56Z</time>
      </trkpt>
      <trkpt lat="46.19132" lon="6.25061">
        <ele>464</ele>
        <time>2021-03-27T16:59:57Z</time>
      </trkpt>
      <trkpt lat="46.19128" lon="6.25067">
        <ele>464</ele>
        <time>2021-03-27T16:59:58Z</time>
      </trkpt>
      <trkpt lat="46.19124" lon="6.25074">
        <ele>464</ele>
        <time>2021-03-27T16:59:59Z</time>
      </trkpt>
      <trkpt lat="46.19122" lon="6.25082">
        <ele>464</ele>
        <time>2021-03-27T17:00:00Z</time>
      </trkpt>
      <trkpt lat="46.19118" lon="6.25097">
        <ele>464</ele>
        <time>2021-03-27T17:00:02Z</time>
      </trkpt>
      <trkpt lat="46.19114" lon="6.25103">
        <ele>464</ele>
        <time>2021-03-27T17:00:03Z</time>
      </trkpt>
      <trkpt lat="46.19108" lon="6.25108">
        <ele>464</ele>
        <time>2021-03-27T17:00:04Z</time>
      </trkpt>
      <trkpt lat="46.19102" lon="6.25112">
        <ele>464</ele>
        <time>2021-03-27T17:00:05Z</time>
      </trkpt>
      <trkpt lat="46.19095" lon="6.25116">
        <ele>464</ele>
        <time>2021-03-27T17:00:06Z</time>
      </trkpt>
      <trkpt lat="46.19088" lon="6.25118">
        <ele>464</ele>
        <time>2021-03-27T17:00:07Z</time>
      </trkpt>
      <trkpt lat="46.1908" lon="6.25119">
        <ele>463.8</ele>
        <time>2021-03-27T17:00:08Z</time>
      </trkpt>
      <trkpt lat="46.19072" lon="6.25118">
        <ele>463.8</ele>
        <time>2021-03-27T17:00:09Z</time>
      </trkpt>
      <trkpt lat="46.19064" lon="6.25116">
        <ele>463.6</ele>
        <time>2021-03-27T17:00:10Z</time>
      </trkpt>
      <trkpt lat="46.19057" lon="6.25112">
        <ele>463.6</ele>
        <time>2021-03-27T17:00:11Z</time>
      </trkpt>
      <trkpt lat="46.19051" lon="6.25108">
        <ele>463.6</ele>
        <time>2021-03-27T17:00:12Z</time>
      </trkpt>
      <trkpt lat="46.19045" lon="6.25104">
        <ele>463.2</ele>
        <time>2021-03-27T17:00:13Z</time>
      </trkpt>
      <trkpt lat="46.19041" lon="6.25099">
        <ele>462.8</ele>
        <time>2021-03-27T17:00:14Z</time>
      </trkpt>
      <trkpt lat="46.19038" lon="6.25094">
        <ele>462.4</ele>
        <time>2021-03-27T17:00:15Z</time>
      </trkpt>
      <trkpt lat="46.19035" lon="6.25088">
        <ele>462.4</ele>
        <time>2021-03-27T17:00:16Z</time>
      </trkpt>
      <trkpt lat="46.1903" lon="6.25085">
        <ele>462.4</ele>
        <time>2021-03-27T17:00:17Z</time>
      </trkpt>
      <trkpt lat="46.19026" lon="6.25084">
        <ele>462.4</ele>
        <time>2021-03-27T17:00:18Z</time>
      </trkpt>
      <trkpt lat="46.19021" lon="6.25085">
        <ele>462</ele>
        <time>2021-03-27T17:00:19Z</time>
      </trkpt>
      <trkpt lat="46.19017" lon="6.25084">
        <ele>462.2</ele>
        <time>2021-03-27T17:00:20Z</time>
      </trkpt>
      <trkpt lat="46.19014" lon="6.25083">
        <ele>462.2</ele>
        <time>2021-03-27T17:00:21Z</time>
      </trkpt>
      <trkpt lat="46.1901" lon="6.25081">
        <ele>462.2</ele>
        <time>2021-03-27T17:00:22Z</time>
      </trkpt>
      <trkpt lat="46.19007" lon="6.25079">
        <ele>462.2</ele>
        <time>2021-03-27T17:00:23Z</time>
      </trkpt>
      <trkpt lat="46.19004" lon="6.25077">
        <ele>462</ele>
        <time>2021-03-27T17:00:24Z</time>
      </trkpt>
      <trkpt lat="46.19001" lon="6.25076">
        <ele>462.2</ele>
        <time>2021-03-27T17:00:25Z</time>
      </trkpt>
      <trkpt lat="46.18998" lon="6.25075">
        <ele>462.4</ele>
        <time>2021-03-27T17:00:26Z</time>
      </trkpt>
      <trkpt lat="46.18996" lon="6.25073">
        <ele>462.4</ele>
        <time>2021-03-27T17:00:27Z</time>
      </trkpt>
      <trkpt lat="46.18994" lon="6.25072">
        <ele>462.6</ele>
        <time>2021-03-27T17:00:28Z</time>
      </trkpt>
      <trkpt lat="46.18991" lon="6.25071">
        <ele>462.8</ele>
        <time>2021-03-27T17:00:29Z</time>
      </trkpt>
      <trkpt lat="46.18989" lon="6.2507">
        <ele>463</ele>
        <time>2021-03-27T17:00:30Z</time>
      </trkpt>
      <trkpt lat="46.18987" lon="6.25069">
        <ele>463.2</ele>
        <time>2021-03-27T17:00:31Z</time>
      </trkpt>
      <trkpt lat="46.18984" lon="6.25069">
        <ele>463.4</ele>
        <time>2021-03-27T17:00:32Z</time>
      </trkpt>
      <trkpt lat="46.18981" lon="6.25068">
        <ele>463.4</ele>
        <time>2021-03-27T17:00:33Z</time>
      </trkpt>
      <trkpt lat="46.18978" lon="6.25068">
        <ele>463.8</ele>
        <time>2021-03-27T17:00:34Z</time>
      </trkpt>
      <trkpt lat="46.18975" lon="6.25069">
        <ele>464.2</ele>
        <time>2021-03-27T17:00:35Z</time>
      </trkpt>
      <trkpt lat="46.18971" lon="6.25068">
        <ele>464.4</ele>
        <time>2021-03-27T17:00:36Z</time>
      </trkpt>
      <trkpt lat="46.18967" lon="6.25068">
        <ele>464.6</ele>
        <time>2021-03-27T17:00:37Z</time>
      </trkpt>
      <trkpt lat="46.18963" lon="6.25068">
        <ele>464.8</ele>
        <time>2021-03-27T17:00:38Z</time>
      </trkpt>
      <trkpt lat="46.18959" lon="6.25067">
        <ele>465</ele>
        <time>2021-03-27T17:00:39Z</time>
      </trkpt>
      <trkpt lat="46.18955" lon="6.25067">
        <ele>464.8</ele>
        <time>2021-03-27T17:00:40Z</time>
      </trkpt>
      <trkpt lat="46.1895" lon="6.25067">
        <ele>465</ele>
        <time>2021-03-27T17:00:41Z</time>
      </trkpt>
      <trkpt lat="46.18946" lon="6.25068">
        <ele>465.2</ele>
        <time>2021-03-27T17:00:42Z</time>
      </trkpt>
      <trkpt lat="46.18941" lon="6.25069">
        <ele>465.2</ele>
        <time>2021-03-27T17:00:43Z</time>
      </trkpt>
      <trkpt lat="46.18936" lon="6.2507">
        <ele>465.4</ele>
        <time>2021-03-27T17:00:44Z</time>
      </trkpt>
      <trkpt lat="46.18931" lon="6.25071">
        <ele>465.4</ele>
        <time>2021-03-27T17:00:45Z</time>
      </trkpt>
      <trkpt lat="46.18926" lon="6.25072">
        <ele>465.4</ele>
        <time>2021-03-27T17:00:46Z</time>
      </trkpt>
      <trkpt lat="46.18921" lon="6.25073">
        <ele>465.6</ele>
        <time>2021-03-27T17:00:47Z</time>
      </trkpt>
      <trkpt lat="46.18915" lon="6.25074">
        <ele>465.8</ele>
        <time>2021-03-27T17:00:48Z</time>
      </trkpt>
      <trkpt lat="46.1891" lon="6.25075">
        <ele>466</ele>
        <time>2021-03-27T17:00:49Z</time>
      </trkpt>
      <trkpt lat="46.18904" lon="6.25076">
        <ele>466.2</ele>
        <time>2021-03-27T17:00:50Z</time>
      </trkpt>
      <trkpt lat="46.18899" lon="6.25077">
        <ele>466.2</ele>
        <time>2021-03-27T17:00:51Z</time>
      </trkpt>
      <trkpt lat="46.18893" lon="6.25078">
        <ele>466.4</ele>
        <time>2021-03-27T17:00:52Z</time>
      </trkpt>
      <trkpt lat="46.18888" lon="6.25078">
        <ele>466.4</ele>
        <time>2021-03-27T17:00:53Z</time>
      </trkpt>
      <trkpt lat="46.18882" lon="6.25079">
        <ele>466.4</ele>
        <time>2021-03-27T17:00:54Z</time>
      </trkpt>
      <trkpt lat="46.18877" lon="6.25079">
        <ele>466.6</ele>
        <time>2021-03-27T17:00:55Z</time>
      </trkpt>
      <trkpt lat="46.18871" lon="6.2508">
        <ele>466.6</ele>
        <time>2021-03-27T17:00:56Z</time>
      </trkpt>
      <trkpt lat="46.18866" lon="6.2508">
        <ele>466.8</ele>
        <time>2021-03-27T17:00:57Z</time>
      </trkpt>
      <trkpt lat="46.1886" lon="6.2508">
        <ele>466.8</ele>
        <time>2021-03-27T17:00:58Z</time>
      </trkpt>
      <trkpt lat="46.18855" lon="6.2508">
        <ele>466.8</ele>
        <time>2021-03-27T17:00:59Z</time>
      </trkpt>
      <trkpt lat="46.18849" lon="6.2508">
        <ele>466.8</ele>
        <time>2021-03-27T17:01:00Z</time>
      </trkpt>
      <trkpt lat="46.18843" lon="6.2508">
        <ele>467</ele>
        <time>2021-03-27T17:01:01Z</time>
      </trkpt>
      <trkpt lat="46.18838" lon="6.2508">
        <ele>467.2</ele>
        <time>2021-03-27T17:01:02Z</time>
      </trkpt>
      <trkpt lat="46.18832" lon="6.2508">
        <ele>467.2</ele>
        <time>2021-03-27T17:01:03Z</time>
      </trkpt>
      <trkpt lat="46.18827" lon="6.2508">
        <ele>467.4</ele>
        <time>2021-03-27T17:01:04Z</time>
      </trkpt>
      <trkpt lat="46.18821" lon="6.2508">
        <ele>467.6</ele>
        <time>2021-03-27T17:01:05Z</time>
      </trkpt>
      <trkpt lat="46.18815" lon="6.2508">
        <ele>467.6</ele>
        <time>2021-03-27T17:01:06Z</time>
      </trkpt>
      <trkpt lat="46.1881" lon="6.2508">
        <ele>467.8</ele>
        <time>2021-03-27T17:01:07Z</time>
      </trkpt>
      <trkpt lat="46.18804" lon="6.2508">
        <ele>467.8</ele>
        <time>2021-03-27T17:01:08Z</time>
      </trkpt>
      <trkpt lat="46.18799" lon="6.25081">
        <ele>468</ele>
        <time>2021-03-27T17:01:09Z</time>
      </trkpt>
      <trkpt lat="46.18793" lon="6.25081">
        <ele>468</ele>
        <time>2021-03-27T17:01:10Z</time>
      </trkpt>
      <trkpt lat="46.18787" lon="6.25082">
        <ele>468.2</ele>
        <time>2021-03-27T17:01:11Z</time>
      </trkpt>
      <trkpt lat="46.18782" lon="6.25083">
        <ele>468.6</ele>
        <time>2021-03-27T17:01:12Z</time>
      </trkpt>
      <trkpt lat="46.18776" lon="6.25084">
        <ele>468.8</ele>
        <time>2021-03-27T17:01:13Z</time>
      </trkpt>
      <trkpt lat="46.18771" lon="6.25085">
        <ele>469</ele>
        <time>2021-03-27T17:01:14Z</time>
      </trkpt>
      <trkpt lat="46.18765" lon="6.25086">
        <ele>469.2</ele>
        <time>2021-03-27T17:01:15Z</time>
      </trkpt>
      <trkpt lat="46.1876" lon="6.25088">
        <ele>469.2</ele>
        <time>2021-03-27T17:01:16Z</time>
      </trkpt>
      <trkpt lat="46.18754" lon="6.2509">
        <ele>469.4</ele>
        <time>2021-03-27T17:01:17Z</time>
      </trkpt>
      <trkpt lat="46.18749" lon="6.25092">
        <ele>469.4</ele>
        <time>2021-03-27T17:01:18Z</time>
      </trkpt>
      <trkpt lat="46.18743" lon="6.25094">
        <ele>469.6</ele>
        <time>2021-03-27T17:01:19Z</time>
      </trkpt>
      <trkpt lat="46.18738" lon="6.25096">
        <ele>469.6</ele>
        <time>2021-03-27T17:01:20Z</time>
      </trkpt>
      <trkpt lat="46.18732" lon="6.25098">
        <ele>469.6</ele>
        <time>2021-03-27T17:01:21Z</time>
      </trkpt>
      <trkpt lat="46.18727" lon="6.25101">
        <ele>469.6</ele>
        <time>2021-03-27T17:01:22Z</time>
      </trkpt>
      <trkpt lat="46.18721" lon="6.25103">
        <ele>469.6</ele>
        <time>2021-03-27T17:01:23Z</time>
      </trkpt>
      <trkpt lat="46.18716" lon="6.25106">
        <ele>470</ele>
        <time>2021-03-27T17:01:24Z</time>
      </trkpt>
      <trkpt lat="46.1871" lon="6.25108">
        <ele>469.8</ele>
        <time>2021-03-27T17:01:25Z</time>
      </trkpt>
      <trkpt lat="46.18705" lon="6.2511">
        <ele>470</ele>
        <time>2021-03-27T17:01:26Z</time>
      </trkpt>
      <trkpt lat="46.187" lon="6.25113">
        <ele>470</ele>
        <time>2021-03-27T17:01:27Z</time>
      </trkpt>
      <trkpt lat="46.18694" lon="6.25115">
        <ele>470.2</ele>
        <time>2021-03-27T17:01:28Z</time>
      </trkpt>
      <trkpt lat="46.18688" lon="6.25117">
        <ele>470.4</ele>
        <time>2021-03-27T17:01:29Z</time>
      </trkpt>
      <trkpt lat="46.18683" lon="6.25119">
        <ele>470.6</ele>
        <time>2021-03-27T17:01:30Z</time>
      </trkpt>
      <trkpt lat="46.18677" lon="6.25121">
        <ele>470.6</ele>
        <time>2021-03-27T17:01:31Z</time>
      </trkpt>
      <trkpt lat="46.18672" lon="6.25123">
        <ele>470.8</ele>
        <time>2021-03-27T17:01:32Z</time>
      </trkpt>
      <trkpt lat="46.18667" lon="6.25126">
        <ele>471</ele>
        <time>2021-03-27T17:01:33Z</time>
      </trkpt>
      <trkpt lat="46.18662" lon="6.25128">
        <ele>471</ele>
        <time>2021-03-27T17:01:34Z</time>
      </trkpt>
      <trkpt lat="46.18656" lon="6.2513">
        <ele>471.2</ele>
        <time>2021-03-27T17:01:35Z</time>
      </trkpt>
      <trkpt lat="46.18651" lon="6.25132">
        <ele>471.4</ele>
        <time>2021-03-27T17:01:36Z</time>
      </trkpt>
      <trkpt lat="46.18646" lon="6.25134">
        <ele>471.6</ele>
        <time>2021-03-27T17:01:37Z</time>
      </trkpt>
      <trkpt lat="46.1864" lon="6.25136">
        <ele>471.8</ele>
        <time>2021-03-27T17:01:38Z</time>
      </trkpt>
      <trkpt lat="46.18635" lon="6.25138">
        <ele>471.8</ele>
        <time>2021-03-27T17:01:39Z</time>
      </trkpt>
      <trkpt lat="46.1863" lon="6.2514">
        <ele>472</ele>
        <time>2021-03-27T17:01:40Z</time>
      </trkpt>
      <trkpt lat="46.18624" lon="6.25142">
        <ele>472.2</ele>
        <time>2021-03-27T17:01:41Z</time>
      </trkpt>
      <trkpt lat="46.18619" lon="6.25144">
        <ele>472.2</ele>
        <time>2021-03-27T17:01:42Z</time>
      </trkpt>
      <trkpt lat="46.18614" lon="6.25146">
        <ele>472.4</ele>
        <time>2021-03-27T17:01:43Z</time>
      </trkpt>
      <trkpt lat="46.18609" lon="6.25148">
        <ele>472.6</ele>
        <time>2021-03-27T17:01:44Z</time>
      </trkpt>
      <trkpt lat="46.18603" lon="6.2515">
        <ele>472.6</ele>
        <time>2021-03-27T17:01:45Z</time>
      </trkpt>
      <trkpt lat="46.18598" lon="6.25152">
        <ele>472.6</ele>
        <time>2021-03-27T17:01:46Z</time>
      </trkpt>
      <trkpt lat="46.18593" lon="6.25154">
        <ele>472.8</ele>
        <time>2021-03-27T17:01:47Z</time>
      </trkpt>
      <trkpt lat="46.18589" lon="6.25155">
        <ele>472.8</ele>
        <time>2021-03-27T17:01:48Z</time>
      </trkpt>
      <trkpt lat="46.18584" lon="6.25155">
        <ele>473</ele>
        <time>2021-03-27T17:01:49Z</time>
      </trkpt>
      <trkpt lat="46.1858" lon="6.25155">
        <ele>473</ele>
        <time>2021-03-27T17:01:50Z</time>
      </trkpt>
      <trkpt lat="46.18576" lon="6.25156">
        <ele>473.2</ele>
        <time>2021-03-27T17:01:51Z</time>
      </trkpt>
      <trkpt lat="46.18571" lon="6.25157">
        <ele>473.4</ele>
        <time>2021-03-27T17:01:52Z</time>
      </trkpt>
      <trkpt lat="46.18567" lon="6.25159">
        <ele>473.6</ele>
        <time>2021-03-27T17:01:53Z</time>
      </trkpt>
      <trkpt lat="46.18562" lon="6.2516">
        <ele>473.6</ele>
        <time>2021-03-27T17:01:54Z</time>
      </trkpt>
      <trkpt lat="46.18557" lon="6.25162">
        <ele>473.8</ele>
        <time>2021-03-27T17:01:55Z</time>
      </trkpt>
      <trkpt lat="46.18552" lon="6.25163">
        <ele>474</ele>
        <time>2021-03-27T17:01:56Z</time>
      </trkpt>
      <trkpt lat="46.18547" lon="6.25164">
        <ele>474</ele>
        <time>2021-03-27T17:01:57Z</time>
      </trkpt>
      <trkpt lat="46.18542" lon="6.25165">
        <ele>474.2</ele>
        <time>2021-03-27T17:01:58Z</time>
      </trkpt>
      <trkpt lat="46.18536" lon="6.25167">
        <ele>474.4</ele>
        <time>2021-03-27T17:01:59Z</time>
      </trkpt>
      <trkpt lat="46.18531" lon="6.25168">
        <ele>474.6</ele>
        <time>2021-03-27T17:02:00Z</time>
      </trkpt>
      <trkpt lat="46.18526" lon="6.25169">
        <ele>474.8</ele>
        <time>2021-03-27T17:02:01Z</time>
      </trkpt>
      <trkpt lat="46.1852" lon="6.2517">
        <ele>475</ele>
        <time>2021-03-27T17:02:02Z</time>
      </trkpt>
      <trkpt lat="46.18515" lon="6.25172">
        <ele>475</ele>
        <time>2021-03-27T17:02:03Z</time>
      </trkpt>
      <trkpt lat="46.18509" lon="6.25173">
        <ele>475.2</ele>
        <time>2021-03-27T17:02:04Z</time>
      </trkpt>
      <trkpt lat="46.18503" lon="6.25174">
        <ele>475.2</ele>
        <time>2021-03-27T17:02:05Z</time>
      </trkpt>
      <trkpt lat="46.18498" lon="6.25176">
        <ele>475.2</ele>
        <time>2021-03-27T17:02:06Z</time>
      </trkpt>
      <trkpt lat="46.18492" lon="6.25177">
        <ele>475.4</ele>
        <time>2021-03-27T17:02:07Z</time>
      </trkpt>
      <trkpt lat="46.18486" lon="6.25178">
        <ele>475.6</ele>
        <time>2021-03-27T17:02:08Z</time>
      </trkpt>
      <trkpt lat="46.1848" lon="6.2518">
        <ele>475.6</ele>
        <time>2021-03-27T17:02:09Z</time>
      </trkpt>
      <trkpt lat="46.18475" lon="6.25181">
        <ele>475.8</ele>
        <time>2021-03-27T17:02:10Z</time>
      </trkpt>
      <trkpt lat="46.18469" lon="6.25182">
        <ele>476</ele>
        <time>2021-03-27T17:02:11Z</time>
      </trkpt>
      <trkpt lat="46.18463" lon="6.25184">
        <ele>476</ele>
        <time>2021-03-27T17:02:12Z</time>
      </trkpt>
      <trkpt lat="46.18458" lon="6.25186">
        <ele>476</ele>
        <time>2021-03-27T17:02:13Z</time>
      </trkpt>
      <trkpt lat="46.18452" lon="6.25187">
        <ele>476.2</ele>
        <time>2021-03-27T17:02:14Z</time>
      </trkpt>
      <trkpt lat="46.18446" lon="6.2519">
        <ele>476.4</ele>
        <time>2021-03-27T17:02:15Z</time>
      </trkpt>
      <trkpt lat="46.18441" lon="6.25192">
        <ele>476.2</ele>
        <time>2021-03-27T17:02:16Z</time>
      </trkpt>
      <trkpt lat="46.18435" lon="6.25194">
        <ele>476.4</ele>
        <time>2021-03-27T17:02:17Z</time>
      </trkpt>
      <trkpt lat="46.1843" lon="6.25196">
        <ele>476.6</ele>
        <time>2021-03-27T17:02:18Z</time>
      </trkpt>
      <trkpt lat="46.18424" lon="6.25199">
        <ele>477</ele>
        <time>2021-03-27T17:02:19Z</time>
      </trkpt>
      <trkpt lat="46.18419" lon="6.25201">
        <ele>477</ele>
        <time>2021-03-27T17:02:20Z</time>
      </trkpt>
      <trkpt lat="46.18413" lon="6.25204">
        <ele>477.2</ele>
        <time>2021-03-27T17:02:21Z</time>
      </trkpt>
      <trkpt lat="46.18408" lon="6.25207">
        <ele>477.4</ele>
        <time>2021-03-27T17:02:22Z</time>
      </trkpt>
      <trkpt lat="46.18403" lon="6.2521">
        <ele>477.6</ele>
        <time>2021-03-27T17:02:23Z</time>
      </trkpt>
      <trkpt lat="46.18397" lon="6.25213">
        <ele>477.8</ele>
        <time>2021-03-27T17:02:24Z</time>
      </trkpt>
      <trkpt lat="46.18392" lon="6.25216">
        <ele>478</ele>
        <time>2021-03-27T17:02:25Z</time>
      </trkpt>
      <trkpt lat="46.18387" lon="6.25219">
        <ele>478.2</ele>
        <time>2021-03-27T17:02:26Z</time>
      </trkpt>
      <trkpt lat="46.18382" lon="6.25223">
        <ele>478.2</ele>
        <time>2021-03-27T17:02:27Z</time>
      </trkpt>
      <trkpt lat="46.18377" lon="6.25226">
        <ele>478.6</ele>
        <time>2021-03-27T17:02:28Z</time>
      </trkpt>
      <trkpt lat="46.18372" lon="6.25229">
        <ele>478.6</ele>
        <time>2021-03-27T17:02:29Z</time>
      </trkpt>
      <trkpt lat="46.18367" lon="6.25232">
        <ele>478.6</ele>
        <time>2021-03-27T17:02:30Z</time>
      </trkpt>
      <trkpt lat="46.18363" lon="6.25235">
        <ele>478.8</ele>
        <time>2021-03-27T17:02:31Z</time>
      </trkpt>
      <trkpt lat="46.18358" lon="6.25239">
        <ele>478.8</ele>
        <time>2021-03-27T17:02:32Z</time>
      </trkpt>
      <trkpt lat="46.18353" lon="6.25242">
        <ele>479</ele>
        <time>2021-03-27T17:02:33Z</time>
      </trkpt>
      <trkpt lat="46.18349" lon="6.25245">
        <ele>479.2</ele>
        <time>2021-03-27T17:02:34Z</time>
      </trkpt>
      <trkpt lat="46.18344" lon="6.25247">
        <ele>479.2</ele>
        <time>2021-03-27T17:02:35Z</time>
      </trkpt>
      <trkpt lat="46.18339" lon="6.2525">
        <ele>479.6</ele>
        <time>2021-03-27T17:02:36Z</time>
      </trkpt>
      <trkpt lat="46.18335" lon="6.25254">
        <ele>479.8</ele>
        <time>2021-03-27T17:02:37Z</time>
      </trkpt>
      <trkpt lat="46.1833" lon="6.25257">
        <ele>480.2</ele>
        <time>2021-03-27T17:02:38Z</time>
      </trkpt>
      <trkpt lat="46.18326" lon="6.2526">
        <ele>480.2</ele>
        <time>2021-03-27T17:02:39Z</time>
      </trkpt>
      <trkpt lat="46.18321" lon="6.25262">
        <ele>480.6</ele>
        <time>2021-03-27T17:02:40Z</time>
      </trkpt>
      <trkpt lat="46.18317" lon="6.25265">
        <ele>480.6</ele>
        <time>2021-03-27T17:02:41Z</time>
      </trkpt>
      <trkpt lat="46.18312" lon="6.25268">
        <ele>480.8</ele>
        <time>2021-03-27T17:02:42Z</time>
      </trkpt>
      <trkpt lat="46.18308" lon="6.25271">
        <ele>481.2</ele>
        <time>2021-03-27T17:02:43Z</time>
      </trkpt>
      <trkpt lat="46.18304" lon="6.25274">
        <ele>481.2</ele>
        <time>2021-03-27T17:02:44Z</time>
      </trkpt>
      <trkpt lat="46.18299" lon="6.25277">
        <ele>481.6</ele>
        <time>2021-03-27T17:02:45Z</time>
      </trkpt>
      <trkpt lat="46.18295" lon="6.2528">
        <ele>481.8</ele>
        <time>2021-03-27T17:02:46Z</time>
      </trkpt>
      <trkpt lat="46.1829" lon="6.25283">
        <ele>482.2</ele>
        <time>2021-03-27T17:02:47Z</time>
      </trkpt>
      <trkpt lat="46.18286" lon="6.25286">
        <ele>482.2</ele>
        <time>2021-03-27T17:02:48Z</time>
      </trkpt>
      <trkpt lat="46.18281" lon="6.25289">
        <ele>482.4</ele>
        <time>2021-03-27T17:02:49Z</time>
      </trkpt>
      <trkpt lat="46.18277" lon="6.25292">
        <ele>482.4</ele>
        <time>2021-03-27T17:02:50Z</time>
      </trkpt>
      <trkpt lat="46.18272" lon="6.25295">
        <ele>482.6</ele>
        <time>2021-03-27T17:02:51Z</time>
      </trkpt>
      <trkpt lat="46.18268" lon="6.25298">
        <ele>483</ele>
        <time>2021-03-27T17:02:52Z</time>
      </trkpt>
      <trkpt lat="46.18264" lon="6.25301">
        <ele>483.2</ele>
        <time>2021-03-27T17:02:53Z</time>
      </trkpt>
      <trkpt lat="46.18259" lon="6.25304">
        <ele>483.2</ele>
        <time>2021-03-27T17:02:54Z</time>
      </trkpt>
      <trkpt lat="46.18255" lon="6.25307">
        <ele>483.6</ele>
        <time>2021-03-27T17:02:55Z</time>
      </trkpt>
      <trkpt lat="46.1825" lon="6.2531">
        <ele>483.8</ele>
        <time>2021-03-27T17:02:56Z</time>
      </trkpt>
      <trkpt lat="46.18245" lon="6.25312">
        <ele>484</ele>
        <time>2021-03-27T17:02:57Z</time>
      </trkpt>
      <trkpt lat="46.1824" lon="6.25315">
        <ele>484.4</ele>
        <time>2021-03-27T17:02:58Z</time>
      </trkpt>
      <trkpt lat="46.18236" lon="6.25318">
        <ele>484.6</ele>
        <time>2021-03-27T17:02:59Z</time>
      </trkpt>
      <trkpt lat="46.18231" lon="6.25321">
        <ele>484.8</ele>
        <time>2021-03-27T17:03:00Z</time>
      </trkpt>
      <trkpt lat="46.18226" lon="6.25325">
        <ele>484.8</ele>
        <time>2021-03-27T17:03:01Z</time>
      </trkpt>
      <trkpt lat="46.18221" lon="6.25328">
        <ele>485</ele>
        <time>2021-03-27T17:03:02Z</time>
      </trkpt>
      <trkpt lat="46.18216" lon="6.25331">
        <ele>485.2</ele>
        <time>2021-03-27T17:03:03Z</time>
      </trkpt>
      <trkpt lat="46.18211" lon="6.25334">
        <ele>485.2</ele>
        <time>2021-03-27T17:03:04Z</time>
      </trkpt>
      <trkpt lat="46.18206" lon="6.25337">
        <ele>485.4</ele>
        <time>2021-03-27T17:03:05Z</time>
      </trkpt>
      <trkpt lat="46.18201" lon="6.25341">
        <ele>485.4</ele>
        <time>2021-03-27T17:03:06Z</time>
      </trkpt>
      <trkpt lat="46.18196" lon="6.25344">
        <ele>485.6</ele>
        <time>2021-03-27T17:03:07Z</time>
      </trkpt>
      <trkpt lat="46.18191" lon="6.25347">
        <ele>485.6</ele>
        <time>2021-03-27T17:03:08Z</time>
      </trkpt>
      <trkpt lat="46.18186" lon="6.25351">
        <ele>485.6</ele>
        <time>2021-03-27T17:03:09Z</time>
      </trkpt>
      <trkpt lat="46.18181" lon="6.25354">
        <ele>485.8</ele>
        <time>2021-03-27T17:03:10Z</time>
      </trkpt>
      <trkpt lat="46.18176" lon="6.25357">
        <ele>485.8</ele>
        <time>2021-03-27T17:03:11Z</time>
      </trkpt>
      <trkpt lat="46.1817" lon="6.2536">
        <ele>486</ele>
        <time>2021-03-27T17:03:12Z</time>
      </trkpt>
      <trkpt lat="46.18165" lon="6.25364">
        <ele>486.2</ele>
        <time>2021-03-27T17:03:13Z</time>
      </trkpt>
      <trkpt lat="46.1816" lon="6.25367">
        <ele>486.2</ele>
        <time>2021-03-27T17:03:14Z</time>
      </trkpt>
      <trkpt lat="46.18155" lon="6.2537">
        <ele>486.4</ele>
        <time>2021-03-27T17:03:15Z</time>
      </trkpt>
      <trkpt lat="46.1815" lon="6.25373">
        <ele>486.2</ele>
        <time>2021-03-27T17:03:16Z</time>
      </trkpt>
      <trkpt lat="46.18145" lon="6.25376">
        <ele>486.4</ele>
        <time>2021-03-27T17:03:17Z</time>
      </trkpt>
      <trkpt lat="46.1814" lon="6.25379">
        <ele>486.4</ele>
        <time>2021-03-27T17:03:18Z</time>
      </trkpt>
      <trkpt lat="46.18135" lon="6.25381">
        <ele>486.6</ele>
        <time>2021-03-27T17:03:19Z</time>
      </trkpt>
      <trkpt lat="46.1813" lon="6.25385">
        <ele>486.6</ele>
        <time>2021-03-27T17:03:20Z</time>
      </trkpt>
      <trkpt lat="46.18125" lon="6.25388">
        <ele>486.6</ele>
        <time>2021-03-27T17:03:21Z</time>
      </trkpt>
      <trkpt lat="46.1812" lon="6.25391">
        <ele>486.6</ele>
        <time>2021-03-27T17:03:22Z</time>
      </trkpt>
      <trkpt lat="46.18115" lon="6.25395">
        <ele>486.6</ele>
        <time>2021-03-27T17:03:23Z</time>
      </trkpt>
      <trkpt lat="46.1811" lon="6.25398">
        <ele>486.8</ele>
        <time>2021-03-27T17:03:24Z</time>
      </trkpt>
      <trkpt lat="46.18105" lon="6.25401">
        <ele>486.8</ele>
        <time>2021-03-27T17:03:25Z</time>
      </trkpt>
      <trkpt lat="46.181" lon="6.25405">
        <ele>486.8</ele>
        <time>2021-03-27T17:03:26Z</time>
      </trkpt>
      <trkpt lat="46.18095" lon="6.25408">
        <ele>487</ele>
        <time>2021-03-27T17:03:27Z</time>
      </trkpt>
      <trkpt lat="46.1809" lon="6.25412">
        <ele>487</ele>
        <time>2021-03-27T17:03:28Z</time>
      </trkpt>
      <trkpt lat="46.18086" lon="6.25416">
        <ele>487.2</ele>
        <time>2021-03-27T17:03:29Z</time>
      </trkpt>
      <trkpt lat="46.18081" lon="6.2542">
        <ele>487.4</ele>
        <time>2021-03-27T17:03:30Z</time>
      </trkpt>
      <trkpt lat="46.18077" lon="6.25424">
        <ele>487.6</ele>
        <time>2021-03-27T17:03:31Z</time>
      </trkpt>
      <trkpt lat="46.18074" lon="6.25428">
        <ele>487.6</ele>
        <time>2021-03-27T17:03:32Z</time>
      </trkpt>
      <trkpt lat="46.1807" lon="6.25432">
        <ele>487.6</ele>
        <time>2021-03-27T17:03:33Z</time>
      </trkpt>
      <trkpt lat="46.18067" lon="6.25436">
        <ele>487.8</ele>
        <time>2021-03-27T17:03:34Z</time>
      </trkpt>
      <trkpt lat="46.18063" lon="6.25441">
        <ele>488</ele>
        <time>2021-03-27T17:03:35Z</time>
      </trkpt>
      <trkpt lat="46.1806" lon="6.25445">
        <ele>488.2</ele>
        <time>2021-03-27T17:03:36Z</time>
      </trkpt>
      <trkpt lat="46.18057" lon="6.2545">
        <ele>488.4</ele>
        <time>2021-03-27T17:03:37Z</time>
      </trkpt>
      <trkpt lat="46.18054" lon="6.25455">
        <ele>488.6</ele>
        <time>2021-03-27T17:03:38Z</time>
      </trkpt>
      <trkpt lat="46.18051" lon="6.25459">
        <ele>489</ele>
        <time>2021-03-27T17:03:39Z</time>
      </trkpt>
      <trkpt lat="46.18049" lon="6.25464">
        <ele>489.4</ele>
        <time>2021-03-27T17:03:40Z</time>
      </trkpt>
      <trkpt lat="46.18046" lon="6.25468">
        <ele>489.4</ele>
        <time>2021-03-27T17:03:41Z</time>
      </trkpt>
      <trkpt lat="46.18043" lon="6.25473">
        <ele>490</ele>
        <time>2021-03-27T17:03:42Z</time>
      </trkpt>
      <trkpt lat="46.1804" lon="6.25477">
        <ele>490.2</ele>
        <time>2021-03-27T17:03:43Z</time>
      </trkpt>
      <trkpt lat="46.18036" lon="6.25481">
        <ele>490.8</ele>
        <time>2021-03-27T17:03:44Z</time>
      </trkpt>
      <trkpt lat="46.18033" lon="6.25485">
        <ele>491</ele>
        <time>2021-03-27T17:03:45Z</time>
      </trkpt>
      <trkpt lat="46.1803" lon="6.25489">
        <ele>491.4</ele>
        <time>2021-03-27T17:03:46Z</time>
      </trkpt>
      <trkpt lat="46.18026" lon="6.25493">
        <ele>491.6</ele>
        <time>2021-03-27T17:03:47Z</time>
      </trkpt>
      <trkpt lat="46.18022" lon="6.25497">
        <ele>492.2</ele>
        <time>2021-03-27T17:03:48Z</time>
      </trkpt>
      <trkpt lat="46.18019" lon="6.255">
        <ele>492.4</ele>
        <time>2021-03-27T17:03:49Z</time>
      </trkpt>
      <trkpt lat="46.18015" lon="6.25504">
        <ele>492.6</ele>
        <time>2021-03-27T17:03:50Z</time>
      </trkpt>
      <trkpt lat="46.18011" lon="6.25507">
        <ele>492.8</ele>
        <time>2021-03-27T17:03:51Z</time>
      </trkpt>
      <trkpt lat="46.18007" lon="6.25511">
        <ele>493</ele>
        <time>2021-03-27T17:03:52Z</time>
      </trkpt>
      <trkpt lat="46.18003" lon="6.25514">
        <ele>493.2</ele>
        <time>2021-03-27T17:03:53Z</time>
      </trkpt>
      <trkpt lat="46.17999" lon="6.25518">
        <ele>493.4</ele>
        <time>2021-03-27T17:03:54Z</time>
      </trkpt>
      <trkpt lat="46.17994" lon="6.25521">
        <ele>493.4</ele>
        <time>2021-03-27T17:03:55Z</time>
      </trkpt>
      <trkpt lat="46.1799" lon="6.25524">
        <ele>493.6</ele>
        <time>2021-03-27T17:03:56Z</time>
      </trkpt>
      <trkpt lat="46.17985" lon="6.25527">
        <ele>494</ele>
        <time>2021-03-27T17:03:57Z</time>
      </trkpt>
      <trkpt lat="46.1798" lon="6.2553">
        <ele>494</ele>
        <time>2021-03-27T17:03:58Z</time>
      </trkpt>
      <trkpt lat="46.17975" lon="6.25532">
        <ele>494.2</ele>
        <time>2021-03-27T17:03:59Z</time>
      </trkpt>
      <trkpt lat="46.1797" lon="6.25535">
        <ele>494.2</ele>
        <time>2021-03-27T17:04:00Z</time>
      </trkpt>
      <trkpt lat="46.17964" lon="6.25538">
        <ele>494.2</ele>
        <time>2021-03-27T17:04:01Z</time>
      </trkpt>
      <trkpt lat="46.17959" lon="6.2554">
        <ele>494.2</ele>
        <time>2021-03-27T17:04:02Z</time>
      </trkpt>
      <trkpt lat="46.17953" lon="6.25542">
        <ele>494.2</ele>
        <time>2021-03-27T17:04:03Z</time>
      </trkpt>
      <trkpt lat="46.17947" lon="6.25544">
        <ele>494.4</ele>
        <time>2021-03-27T17:04:04Z</time>
      </trkpt>
      <trkpt lat="46.17941" lon="6.25546">
        <ele>494.2</ele>
        <time>2021-03-27T17:04:05Z</time>
      </trkpt>
      <trkpt lat="46.17934" lon="6.25547">
        <ele>494.2</ele>
        <time>2021-03-27T17:04:06Z</time>
      </trkpt>
      <trkpt lat="46.17928" lon="6.25549">
        <ele>494.2</ele>
        <time>2021-03-27T17:04:07Z</time>
      </trkpt>
      <trkpt lat="46.17921" lon="6.25551">
        <ele>494.2</ele>
        <time>2021-03-27T17:04:08Z</time>
      </trkpt>
      <trkpt lat="46.17914" lon="6.25552">
        <ele>494.2</ele>
        <time>2021-03-27T17:04:09Z</time>
      </trkpt>
      <trkpt lat="46.17907" lon="6.25553">
        <ele>494</ele>
        <time>2021-03-27T17:04:10Z</time>
      </trkpt>
      <trkpt lat="46.179" lon="6.25553">
        <ele>494</ele>
        <time>2021-03-27T17:04:11Z</time>
      </trkpt>
      <trkpt lat="46.17892" lon="6.25554">
        <ele>494</ele>
        <time>2021-03-27T17:04:12Z</time>
      </trkpt>
      <trkpt lat="46.17884" lon="6.25554">
        <ele>493.8</ele>
        <time>2021-03-27T17:04:13Z</time>
      </trkpt>
      <trkpt lat="46.17876" lon="6.25554">
        <ele>493.6</ele>
        <time>2021-03-27T17:04:14Z</time>
      </trkpt>
      <trkpt lat="46.17867" lon="6.25553">
        <ele>493.4</ele>
        <time>2021-03-27T17:04:15Z</time>
      </trkpt>
      <trkpt lat="46.17858" lon="6.25552">
        <ele>492.8</ele>
        <time>2021-03-27T17:04:16Z</time>
      </trkpt>
      <trkpt lat="46.1785" lon="6.2555">
        <ele>492.2</ele>
        <time>2021-03-27T17:04:17Z</time>
      </trkpt>
      <trkpt lat="46.1784" lon="6.25549">
        <ele>492</ele>
        <time>2021-03-27T17:04:18Z</time>
      </trkpt>
      <trkpt lat="46.17831" lon="6.25548">
        <ele>491.8</ele>
        <time>2021-03-27T17:04:19Z</time>
      </trkpt>
      <trkpt lat="46.17822" lon="6.25547">
        <ele>491.4</ele>
        <time>2021-03-27T17:04:20Z</time>
      </trkpt>
      <trkpt lat="46.17813" lon="6.25547">
        <ele>491</ele>
        <time>2021-03-27T17:04:21Z</time>
      </trkpt>
      <trkpt lat="46.17804" lon="6.25548">
        <ele>490.4</ele>
        <time>2021-03-27T17:04:22Z</time>
      </trkpt>
      <trkpt lat="46.17795" lon="6.25549">
        <ele>490</ele>
        <time>2021-03-27T17:04:23Z</time>
      </trkpt>
      <trkpt lat="46.17786" lon="6.25551">
        <ele>489.4</ele>
        <time>2021-03-27T17:04:24Z</time>
      </trkpt>
      <trkpt lat="46.17777" lon="6.25552">
        <ele>488.8</ele>
        <time>2021-03-27T17:04:25Z</time>
      </trkpt>
      <trkpt lat="46.17768" lon="6.25553">
        <ele>488.2</ele>
        <time>2021-03-27T17:04:26Z</time>
      </trkpt>
      <trkpt lat="46.1776" lon="6.25555">
        <ele>488</ele>
        <time>2021-03-27T17:04:27Z</time>
      </trkpt>
      <trkpt lat="46.17751" lon="6.25558">
        <ele>487.8</ele>
        <time>2021-03-27T17:04:28Z</time>
      </trkpt>
      <trkpt lat="46.17743" lon="6.25562">
        <ele>487.6</ele>
        <time>2021-03-27T17:04:29Z</time>
      </trkpt>
      <trkpt lat="46.17736" lon="6.25565">
        <ele>487.6</ele>
        <time>2021-03-27T17:04:30Z</time>
      </trkpt>
      <trkpt lat="46.17728" lon="6.25569">
        <ele>487.6</ele>
        <time>2021-03-27T17:04:31Z</time>
      </trkpt>
      <trkpt lat="46.1772" lon="6.25573">
        <ele>487.4</ele>
        <time>2021-03-27T17:04:32Z</time>
      </trkpt>
      <trkpt lat="46.17713" lon="6.25577">
        <ele>487.4</ele>
        <time>2021-03-27T17:04:33Z</time>
      </trkpt>
      <trkpt lat="46.17706" lon="6.25581">
        <ele>487.4</ele>
        <time>2021-03-27T17:04:34Z</time>
      </trkpt>
      <trkpt lat="46.17699" lon="6.25585">
        <ele>487.4</ele>
        <time>2021-03-27T17:04:35Z</time>
      </trkpt>
      <trkpt lat="46.17692" lon="6.25589">
        <ele>487.6</ele>
        <time>2021-03-27T17:04:36Z</time>
      </trkpt>
      <trkpt lat="46.17685" lon="6.25593">
        <ele>487.4</ele>
        <time>2021-03-27T17:04:37Z</time>
      </trkpt>
      <trkpt lat="46.17679" lon="6.25597">
        <ele>487.4</ele>
        <time>2021-03-27T17:04:38Z</time>
      </trkpt>
      <trkpt lat="46.17672" lon="6.25601">
        <ele>487.8</ele>
        <time>2021-03-27T17:04:39Z</time>
      </trkpt>
      <trkpt lat="46.17666" lon="6.25604">
        <ele>488.2</ele>
        <time>2021-03-27T17:04:40Z</time>
      </trkpt>
      <trkpt lat="46.17659" lon="6.25607">
        <ele>488.4</ele>
        <time>2021-03-27T17:04:41Z</time>
      </trkpt>
      <trkpt lat="46.17653" lon="6.2561">
        <ele>488.6</ele>
        <time>2021-03-27T17:04:42Z</time>
      </trkpt>
      <trkpt lat="46.17647" lon="6.25614">
        <ele>488.6</ele>
        <time>2021-03-27T17:04:43Z</time>
      </trkpt>
      <trkpt lat="46.1764" lon="6.25617">
        <ele>488.8</ele>
        <time>2021-03-27T17:04:44Z</time>
      </trkpt>
      <trkpt lat="46.17634" lon="6.2562">
        <ele>489.2</ele>
        <time>2021-03-27T17:04:45Z</time>
      </trkpt>
      <trkpt lat="46.17628" lon="6.25624">
        <ele>489</ele>
        <time>2021-03-27T17:04:46Z</time>
      </trkpt>
      <trkpt lat="46.17622" lon="6.25627">
        <ele>489.2</ele>
        <time>2021-03-27T17:04:47Z</time>
      </trkpt>
      <trkpt lat="46.17616" lon="6.2563">
        <ele>489.4</ele>
        <time>2021-03-27T17:04:48Z</time>
      </trkpt>
      <trkpt lat="46.1761" lon="6.25633">
        <ele>489.8</ele>
        <time>2021-03-27T17:04:49Z</time>
      </trkpt>
      <trkpt lat="46.17604" lon="6.25636">
        <ele>490</ele>
        <time>2021-03-27T17:04:50Z</time>
      </trkpt>
      <trkpt lat="46.17598" lon="6.2564">
        <ele>490</ele>
        <time>2021-03-27T17:04:51Z</time>
      </trkpt>
      <trkpt lat="46.17592" lon="6.25643">
        <ele>490.2</ele>
        <time>2021-03-27T17:04:52Z</time>
      </trkpt>
      <trkpt lat="46.17586" lon="6.25646">
        <ele>490.4</ele>
        <time>2021-03-27T17:04:53Z</time>
      </trkpt>
      <trkpt lat="46.17581" lon="6.25649">
        <ele>490.4</ele>
        <time>2021-03-27T17:04:54Z</time>
      </trkpt>
      <trkpt lat="46.17575" lon="6.25652">
        <ele>490.6</ele>
        <time>2021-03-27T17:04:55Z</time>
      </trkpt>
      <trkpt lat="46.1757" lon="6.25655">
        <ele>491</ele>
        <time>2021-03-27T17:04:56Z</time>
      </trkpt>
      <trkpt lat="46.17564" lon="6.25658">
        <ele>491</ele>
        <time>2021-03-27T17:04:57Z</time>
      </trkpt>
      <trkpt lat="46.17559" lon="6.25662">
        <ele>491.2</ele>
        <time>2021-03-27T17:04:58Z</time>
      </trkpt>
      <trkpt lat="46.17554" lon="6.25666">
        <ele>491.2</ele>
        <time>2021-03-27T17:04:59Z</time>
      </trkpt>
      <trkpt lat="46.17549" lon="6.2567">
        <ele>491.4</ele>
        <time>2021-03-27T17:05:00Z</time>
      </trkpt>
      <trkpt lat="46.17544" lon="6.25674">
        <ele>491.6</ele>
        <time>2021-03-27T17:05:01Z</time>
      </trkpt>
      <trkpt lat="46.17535" lon="6.25682">
        <ele>492.2</ele>
        <time>2021-03-27T17:05:03Z</time>
      </trkpt>
      <trkpt lat="46.1753" lon="6.25686">
        <ele>492.2</ele>
        <time>2021-03-27T17:05:04Z</time>
      </trkpt>
      <trkpt lat="46.17526" lon="6.2569">
        <ele>492.6</ele>
        <time>2021-03-27T17:05:05Z</time>
      </trkpt>
      <trkpt lat="46.17522" lon="6.25694">
        <ele>492.6</ele>
        <time>2021-03-27T17:05:06Z</time>
      </trkpt>
      <trkpt lat="46.17518" lon="6.25697">
        <ele>492.8</ele>
        <time>2021-03-27T17:05:07Z</time>
      </trkpt>
      <trkpt lat="46.17509" lon="6.25704">
        <ele>493.4</ele>
        <time>2021-03-27T17:05:09Z</time>
      </trkpt>
      <trkpt lat="46.17506" lon="6.25708">
        <ele>493.6</ele>
        <time>2021-03-27T17:05:10Z</time>
      </trkpt>
      <trkpt lat="46.17502" lon="6.25711">
        <ele>493.6</ele>
        <time>2021-03-27T17:05:11Z</time>
      </trkpt>
      <trkpt lat="46.17498" lon="6.25715">
        <ele>494.2</ele>
        <time>2021-03-27T17:05:12Z</time>
      </trkpt>
      <trkpt lat="46.17494" lon="6.25718">
        <ele>494.4</ele>
        <time>2021-03-27T17:05:13Z</time>
      </trkpt>
      <trkpt lat="46.17487" lon="6.25724">
        <ele>495</ele>
        <time>2021-03-27T17:05:15Z</time>
      </trkpt>
      <trkpt lat="46.17483" lon="6.25727">
        <ele>495.6</ele>
        <time>2021-03-27T17:05:16Z</time>
      </trkpt>
      <trkpt lat="46.1748" lon="6.25731">
        <ele>495.8</ele>
        <time>2021-03-27T17:05:17Z</time>
      </trkpt>
      <trkpt lat="46.17476" lon="6.25733">
        <ele>496.2</ele>
        <time>2021-03-27T17:05:18Z</time>
      </trkpt>
      <trkpt lat="46.17472" lon="6.25736">
        <ele>496.6</ele>
        <time>2021-03-27T17:05:19Z</time>
      </trkpt>
      <trkpt lat="46.17465" lon="6.25742">
        <ele>497.2</ele>
        <time>2021-03-27T17:05:21Z</time>
      </trkpt>
      <trkpt lat="46.17461" lon="6.25746">
        <ele>497.6</ele>
        <time>2021-03-27T17:05:22Z</time>
      </trkpt>
      <trkpt lat="46.17457" lon="6.25749">
        <ele>497.8</ele>
        <time>2021-03-27T17:05:23Z</time>
      </trkpt>
      <trkpt lat="46.17454" lon="6.25752">
        <ele>498.2</ele>
        <time>2021-03-27T17:05:24Z</time>
      </trkpt>
      <trkpt lat="46.1745" lon="6.25755">
        <ele>498.4</ele>
        <time>2021-03-27T17:05:25Z</time>
      </trkpt>
      <trkpt lat="46.17446" lon="6.25759">
        <ele>498.6</ele>
        <time>2021-03-27T17:05:26Z</time>
      </trkpt>
      <trkpt lat="46.17443" lon="6.25763">
        <ele>499</ele>
        <time>2021-03-27T17:05:27Z</time>
      </trkpt>
      <trkpt lat="46.1744" lon="6.25767">
        <ele>499.4</ele>
        <time>2021-03-27T17:05:28Z</time>
      </trkpt>
      <trkpt lat="46.17437" lon="6.25772">
        <ele>499.6</ele>
        <time>2021-03-27T17:05:29Z</time>
      </trkpt>
      <trkpt lat="46.17435" lon="6.25776">
        <ele>499.8</ele>
        <time>2021-03-27T17:05:30Z</time>
      </trkpt>
      <trkpt lat="46.17431" lon="6.2578">
        <ele>500</ele>
        <time>2021-03-27T17:05:31Z</time>
      </trkpt>
      <trkpt lat="46.17424" lon="6.25783">
        <ele>500.6</ele>
        <time>2021-03-27T17:05:33Z</time>
      </trkpt>
      <trkpt lat="46.17421" lon="6.25782">
        <ele>501</ele>
        <time>2021-03-27T17:05:34Z</time>
      </trkpt>
      <trkpt lat="46.17419" lon="6.25778">
        <ele>501.2</ele>
        <time>2021-03-27T17:05:35Z</time>
      </trkpt>
      <trkpt lat="46.17417" lon="6.25773">
        <ele>501.2</ele>
        <time>2021-03-27T17:05:36Z</time>
      </trkpt>
      <trkpt lat="46.17415" lon="6.25768">
        <ele>501.4</ele>
        <time>2021-03-27T17:05:37Z</time>
      </trkpt>
      <trkpt lat="46.17409" lon="6.25761">
        <ele>501.2</ele>
        <time>2021-03-27T17:05:39Z</time>
      </trkpt>
      <trkpt lat="46.17406" lon="6.25763">
        <ele>501.4</ele>
        <time>2021-03-27T17:05:40Z</time>
      </trkpt>
      <trkpt lat="46.17404" lon="6.25767">
        <ele>501.4</ele>
        <time>2021-03-27T17:05:41Z</time>
      </trkpt>
      <trkpt lat="46.17404" lon="6.25771">
        <ele>501.4</ele>
        <time>2021-03-27T17:05:42Z</time>
      </trkpt>
      <trkpt lat="46.17404" lon="6.25775">
        <ele>501.6</ele>
        <time>2021-03-27T17:05:43Z</time>
      </trkpt>
      <trkpt lat="46.17405" lon="6.25781">
        <ele>501.4</ele>
        <time>2021-03-27T17:05:45Z</time>
      </trkpt>
      <trkpt lat="46.17407" lon="6.25782">
        <ele>501.6</ele>
        <time>2021-03-27T17:05:46Z</time>
      </trkpt>
      <trkpt lat="46.17408" lon="6.25782">
        <ele>501.4</ele>
        <time>2021-03-27T17:05:47Z</time>
      </trkpt>
      <trkpt lat="46.17408" lon="6.25782">
        <ele>501.4</ele>
        <time>2021-03-27T17:05:48Z</time>
      </trkpt>
      <trkpt lat="46.17409" lon="6.25782">
        <ele>501.6</ele>
        <time>2021-03-27T17:05:49Z</time>
      </trkpt>
      <trkpt lat="46.17409" lon="6.25782">
        <ele>501.4</ele>
        <time>2021-03-27T17:05:51Z</time>
      </trkpt>
      <trkpt lat="46.17409" lon="6.25782">
        <ele>501.6</ele>
        <time>2021-03-27T17:05:52Z</time>
      </trkpt>
      <trkpt lat="46.17409" lon="6.25782">
        <ele>501.6</ele>
        <time>2021-03-27T17:05:53Z</time>
      </trkpt>
      <trkpt lat="46.17409" lon="6.25782">
        <ele>501.6</ele>
        <time>2021-03-27T17:05:54Z</time>
      </trkpt>
      <trkpt lat="46.17409" lon="6.25782">
        <ele>501.6</ele>
        <time>2021-03-27T17:05:56Z</time>
      </trkpt>
      <trkpt lat="46.17409" lon="6.25782">
        <ele>501.6</ele>
        <time>2021-03-27T17:05:57Z</time>
      </trkpt>
      <trkpt lat="46.17409" lon="6.25782">
        <ele>501.6</ele>
        <time>2021-03-27T17:05:58Z</time>
      </trkpt>
      <trkpt lat="46.17409" lon="6.25782">
        <ele>501.6</ele>
        <time>2021-03-27T17:05:59Z</time>
      </trkpt>
      <trkpt lat="46.17409" lon="6.25782">
        <ele>501.6</ele>
        <time>2021-03-27T17:06:00Z</time>
      </trkpt>
      <trkpt lat="46.17409" lon="6.25782">
        <ele>501.6</ele>
        <time>2021-03-27T17:06:01Z</time>
      </trkpt>
      <trkpt lat="46.17409" lon="6.25783">
        <ele>501.6</ele>
        <time>2021-03-27T17:06:02Z</time>
      </trkpt>
      <trkpt lat="46.17409" lon="6.25783">
        <ele>501.6</ele>
        <time>2021-03-27T17:06:03Z</time>
      </trkpt>
      <trkpt lat="46.17409" lon="6.25783">
        <ele>501.6</ele>
        <time>2021-03-27T17:06:04Z</time>
      </trkpt>
      <trkpt lat="46.17409" lon="6.25783">
        <ele>501.8</ele>
        <time>2021-03-27T17:06:05Z</time>
      </trkpt>
      <trkpt lat="46.17409" lon="6.25783">
        <ele>501.8</ele>
        <time>2021-03-27T17:06:06Z</time>
      </trkpt>
      <trkpt lat="46.17409" lon="6.25783">
        <ele>501.6</ele>
        <time>2021-03-27T17:06:07Z</time>
      </trkpt>
      <trkpt lat="46.17409" lon="6.25783">
        <ele>501.8</ele>
        <time>2021-03-27T17:06:08Z</time>
      </trkpt>
      <trkpt lat="46.17409" lon="6.25783">
        <ele>501.8</ele>
        <time>2021-03-27T17:06:09Z</time>
      </trkpt>
      <trkpt lat="46.17409" lon="6.25783">
        <ele>501.8</ele>
        <time>2021-03-27T17:06:10Z</time>
      </trkpt>
      <trkpt lat="46.17409" lon="6.25783">
        <ele>501.8</ele>
        <time>2021-03-27T17:06:11Z</time>
      </trkpt>
      <trkpt lat="46.17409" lon="6.25783">
        <ele>501.6</ele>
        <time>2021-03-27T17:06:12Z</time>
      </trkpt>
      <trkpt lat="46.17409" lon="6.25783">
        <ele>501.8</ele>
        <time>2021-03-27T17:06:13Z</time>
      </trkpt>
      <trkpt lat="46.17409" lon="6.25783">
        <ele>501.8</ele>
        <time>2021-03-27T17:06:14Z</time>
      </trkpt>
      <trkpt lat="46.17409" lon="6.25783">
        <ele>501.6</ele>
        <time>2021-03-27T17:06:15Z</time>
      </trkpt>
      <trkpt lat="46.17409" lon="6.25783">
        <ele>501.6</ele>
        <time>2021-03-27T17:06:16Z</time>
      </trkpt>
      <trkpt lat="46.17409" lon="6.25783">
        <ele>501.6</ele>
        <time>2021-03-27T17:06:17Z</time>
      </trkpt>
      <trkpt lat="46.17409" lon="6.25783">
        <ele>501.8</ele>
        <time>2021-03-27T17:06:18Z</time>
      </trkpt>
      <trkpt lat="46.17409" lon="6.25783">
        <ele>501.8</ele>
        <time>2021-03-27T17:06:19Z</time>
      </trkpt>
      <trkpt lat="46.17409" lon="6.25783">
        <ele>501.8</ele>
        <time>2021-03-27T17:06:20Z</time>
      </trkpt>
      <trkpt lat="46.17409" lon="6.25783">
        <ele>501.8</ele>
        <time>2021-03-27T17:06:21Z</time>
      </trkpt>
      <trkpt lat="46.17409" lon="6.25783">
        <ele>501.8</ele>
        <time>2021-03-27T17:06:22Z</time>
      </trkpt>
      <trkpt lat="46.17409" lon="6.25783">
        <ele>501.8</ele>
        <time>2021-03-27T17:06:23Z</time>
      </trkpt>
      <trkpt lat="46.17409" lon="6.25783">
        <ele>501.8</ele>
        <time>2021-03-27T17:06:24Z</time>
      </trkpt>
      <trkpt lat="46.17409" lon="6.25783">
        <ele>501.8</ele>
        <time>2021-03-27T17:06:25Z</time>
      </trkpt>
      <trkpt lat="46.17409" lon="6.25783">
        <ele>501.8</ele>
        <time>2021-03-27T17:06:26Z</time>
      </trkpt>
      <trkpt lat="46.17409" lon="6.25783">
        <ele>501.8</ele>
        <time>2021-03-27T17:06:27Z</time>
      </trkpt>
      <trkpt lat="46.17409" lon="6.25783">
        <ele>501.8</ele>
        <time>2021-03-27T17:06:28Z</time>
      </trkpt>
      <trkpt lat="46.17409" lon="6.25783">
        <ele>501.8</ele>
        <time>2021-03-27T17:06:29Z</time>
      </trkpt>
      <trkpt lat="46.17409" lon="6.25783">
        <ele>501.6</ele>
        <time>2021-03-27T17:06:30Z</time>
      </trkpt>
      <trkpt lat="46.17409" lon="6.25783">
        <ele>501.8</ele>
        <time>2021-03-27T17:06:31Z</time>
      </trkpt>
      <trkpt lat="46.17409" lon="6.25783">
        <ele>501.8</ele>
        <time>2021-03-27T17:06:32Z</time>
      </trkpt>
      <trkpt lat="46.17409" lon="6.25783">
        <ele>501.8</ele>
        <time>2021-03-27T17:06:33Z</time>
      </trkpt>
      <trkpt lat="46.17409" lon="6.25783">
        <ele>501.8</ele>
        <time>2021-03-27T17:06:34Z</time>
      </trkpt>
      <trkpt lat="46.17409" lon="6.25783">
        <ele>501.8</ele>
        <time>2021-03-27T17:06:35Z</time>
      </trkpt>
      <trkpt lat="46.17409" lon="6.25783">
        <ele>501.8</ele>
        <time>2021-03-27T17:06:36Z</time>
      </trkpt>
      <trkpt lat="46.17409" lon="6.25783">
        <ele>501.8</ele>
        <time>2021-03-27T17:06:37Z</time>
      </trkpt>
      <trkpt lat="46.17409" lon="6.25783">
        <ele>501.6</ele>
        <time>2021-03-27T17:06:38Z</time>
      </trkpt>
      <trkpt lat="46.17409" lon="6.25783">
        <ele>501.8</ele>
        <time>2021-03-27T17:06:39Z</time>
      </trkpt>
      <trkpt lat="46.17409" lon="6.25783">
        <ele>501.6</ele>
        <time>2021-03-27T17:06:40Z</time>
      </trkpt>
      <trkpt lat="46.17409" lon="6.25783">
        <ele>501.8</ele>
        <time>2021-03-27T17:06:41Z</time>
      </trkpt>
      <trkpt lat="46.17409" lon="6.25783">
        <ele>501.8</ele>
        <time>2021-03-27T17:06:42Z</time>
      </trkpt>
      <trkpt lat="46.17409" lon="6.25783">
        <ele>501.8</ele>
        <time>2021-03-27T17:06:43Z</time>
      </trkpt>
      <trkpt lat="46.17409" lon="6.25783">
        <ele>501.8</ele>
        <time>2021-03-27T17:06:44Z</time>
      </trkpt>
      <trkpt lat="46.17409" lon="6.25783">
        <ele>501.6</ele>
        <time>2021-03-27T17:06:45Z</time>
      </trkpt>
      <trkpt lat="46.17409" lon="6.25783">
        <ele>501.8</ele>
        <time>2021-03-27T17:06:46Z</time>
      </trkpt>
      <trkpt lat="46.17409" lon="6.25783">
        <ele>501.8</ele>
        <time>2021-03-27T17:06:47Z</time>
      </trkpt>
      <trkpt lat="46.17409" lon="6.25783">
        <ele>501.8</ele>
        <time>2021-03-27T17:06:48Z</time>
      </trkpt>
      <trkpt lat="46.17409" lon="6.25783">
        <ele>501.8</ele>
        <time>2021-03-27T17:06:49Z</time>
      </trkpt>
      <trkpt lat="46.17409" lon="6.25783">
        <ele>501.8</ele>
        <time>2021-03-27T17:06:50Z</time>
      </trkpt>
      <trkpt lat="46.17409" lon="6.25782">
        <ele>501.8</ele>
        <time>2021-03-27T17:06:51Z</time>
      </trkpt>
      <trkpt lat="46.17409" lon="6.25782">
        <ele>501.8</ele>
        <time>2021-03-27T17:06:52Z</time>
      </trkpt>
      <trkpt lat="46.17409" lon="6.25783">
        <ele>501.8</ele>
        <time>2021-03-27T17:06:53Z</time>
      </trkpt>
      <trkpt lat="46.17409" lon="6.25783">
        <ele>501.8</ele>
        <time>2021-03-27T17:06:54Z</time>
      </trkpt>
      <trkpt lat="46.17408" lon="6.25783">
        <ele>501.8</ele>
        <time>2021-03-27T17:06:55Z</time>
      </trkpt>
      <trkpt lat="46.17409" lon="6.25783">
        <ele>501.8</ele>
        <time>2021-03-27T17:06:56Z</time>
      </trkpt>
      <trkpt lat="46.17409" lon="6.25783">
        <ele>501.6</ele>
        <time>2021-03-27T17:06:57Z</time>
      </trkpt>
      <trkpt lat="46.17409" lon="6.25783">
        <ele>501.6</ele>
        <time>2021-03-27T17:06:58Z</time>
      </trkpt>
      <trkpt lat="46.17409" lon="6.25783">
        <ele>501.8</ele>
        <time>2021-03-27T17:06:59Z</time>
      </trkpt>
      <trkpt lat="46.17409" lon="6.25783">
        <ele>501.6</ele>
        <time>2021-03-27T17:07:00Z</time>
      </trkpt>
      <trkpt lat="46.17409" lon="6.25783">
        <ele>501.8</ele>
        <time>2021-03-27T17:07:01Z</time>
      </trkpt>
      <trkpt lat="46.17409" lon="6.25783">
        <ele>501.8</ele>
        <time>2021-03-27T17:07:02Z</time>
      </trkpt>
      <trkpt lat="46.17409" lon="6.25783">
        <ele>501.6</ele>
        <time>2021-03-27T17:07:03Z</time>
      </trkpt>
      <trkpt lat="46.17409" lon="6.25783">
        <ele>501.6</ele>
        <time>2021-03-27T17:07:04Z</time>
      </trkpt>
      <trkpt lat="46.17409" lon="6.25783">
        <ele>501.6</ele>
        <time>2021-03-27T17:07:05Z</time>
      </trkpt>
      <trkpt lat="46.17409" lon="6.25783">
        <ele>501.8</ele>
        <time>2021-03-27T17:07:06Z</time>
      </trkpt>
      <trkpt lat="46.17409" lon="6.25783">
        <ele>501.8</ele>
        <time>2021-03-27T17:07:07Z</time>
      </trkpt>
      <trkpt lat="46.17409" lon="6.25783">
        <ele>501.8</ele>
        <time>2021-03-27T17:07:08Z</time>
      </trkpt>
      <trkpt lat="46.17409" lon="6.25783">
        <ele>501.6</ele>
        <time>2021-03-27T17:07:09Z</time>
      </trkpt>
      <trkpt lat="46.17409" lon="6.25783">
        <ele>501.6</ele>
        <time>2021-03-27T17:07:10Z</time>
      </trkpt>
      <trkpt lat="46.17409" lon="6.25783">
        <ele>501.6</ele>
        <time>2021-03-27T17:07:11Z</time>
      </trkpt>
      <trkpt lat="46.17409" lon="6.25783">
        <ele>501.6</ele>
        <time>2021-03-27T17:07:12Z</time>
      </trkpt>
      <trkpt lat="46.17409" lon="6.25783">
        <ele>501.8</ele>
        <time>2021-03-27T17:07:13Z</time>
      </trkpt>
      <trkpt lat="46.17409" lon="6.25783">
        <ele>501.8</ele>
        <time>2021-03-27T17:07:14Z</time>
      </trkpt>
      <trkpt lat="46.17409" lon="6.25783">
        <ele>501.6</ele>
        <time>2021-03-27T17:07:15Z</time>
      </trkpt>
      <trkpt lat="46.17409" lon="6.25783">
        <ele>501.6</ele>
        <time>2021-03-27T17:07:16Z</time>
      </trkpt>
      <trkpt lat="46.17409" lon="6.25783">
        <ele>501.8</ele>
        <time>2021-03-27T17:07:17Z</time>
      </trkpt>
      <trkpt lat="46.17409" lon="6.25783">
        <ele>501.6</ele>
        <time>2021-03-27T17:07:18Z</time>
      </trkpt>
      <trkpt lat="46.17409" lon="6.25783">
        <ele>501.6</ele>
        <time>2021-03-27T17:07:19Z</time>
      </trkpt>
      <trkpt lat="46.17409" lon="6.25783">
        <ele>501.6</ele>
        <time>2021-03-27T17:07:20Z</time>
      </trkpt>
      <trkpt lat="46.17409" lon="6.25782">
        <ele>501.6</ele>
        <time>2021-03-27T17:07:21Z</time>
      </trkpt>
      <trkpt lat="46.17409" lon="6.25782">
        <ele>501.6</ele>
        <time>2021-03-27T17:07:22Z</time>
      </trkpt>
      <trkpt lat="46.17409" lon="6.25782">
        <ele>501.8</ele>
        <time>2021-03-27T17:07:23Z</time>
      </trkpt>
      <trkpt lat="46.17409" lon="6.25782">
        <ele>501.8</ele>
        <time>2021-03-27T17:07:24Z</time>
      </trkpt>
      <trkpt lat="46.17409" lon="6.25782">
        <ele>501.6</ele>
        <time>2021-03-27T17:07:25Z</time>
      </trkpt>
      <trkpt lat="46.17409" lon="6.25782">
        <ele>501.6</ele>
        <time>2021-03-27T17:07:26Z</time>
      </trkpt>
      <trkpt lat="46.17409" lon="6.25782">
        <ele>501.6</ele>
        <time>2021-03-27T17:07:27Z</time>
      </trkpt>
      <trkpt lat="46.17409" lon="6.25782">
        <ele>501.8</ele>
        <time>2021-03-27T17:07:28Z</time>
      </trkpt>
      <trkpt lat="46.17409" lon="6.25782">
        <ele>501.8</ele>
        <time>2021-03-27T17:07:29Z</time>
      </trkpt>
      <trkpt lat="46.17409" lon="6.25782">
        <ele>501.8</ele>
        <time>2021-03-27T17:07:30Z</time>
      </trkpt>
      <trkpt lat="46.17409" lon="6.25782">
        <ele>501.8</ele>
        <time>2021-03-27T17:07:31Z</time>
      </trkpt>
      <trkpt lat="46.17409" lon="6.25782">
        <ele>501.8</ele>
        <time>2021-03-27T17:07:32Z</time>
      </trkpt>
      <trkpt lat="46.17409" lon="6.25782">
        <ele>501.8</ele>
        <time>2021-03-27T17:07:33Z</time>
      </trkpt>
      <trkpt lat="46.17409" lon="6.25782">
        <ele>501.8</ele>
        <time>2021-03-27T17:07:34Z</time>
      </trkpt>
      <trkpt lat="46.17409" lon="6.25782">
        <ele>501.8</ele>
        <time>2021-03-27T17:07:35Z</time>
      </trkpt>
      <trkpt lat="46.17409" lon="6.25782">
        <ele>501.8</ele>
        <time>2021-03-27T17:07:36Z</time>
      </trkpt>
      <trkpt lat="46.17409" lon="6.25783">
        <ele>501.8</ele>
        <time>2021-03-27T17:07:37Z</time>
      </trkpt>
      <trkpt lat="46.17409" lon="6.25783">
        <ele>501.8</ele>
        <time>2021-03-27T17:07:38Z</time>
      </trkpt>
      <trkpt lat="46.17409" lon="6.25783">
        <ele>501.8</ele>
        <time>2021-03-27T17:07:39Z</time>
      </trkpt>
      <trkpt lat="46.17409" lon="6.25782">
        <ele>501.8</ele>
        <time>2021-03-27T17:07:40Z</time>
      </trkpt>
      <trkpt lat="46.17409" lon="6.25782">
        <ele>501.8</ele>
        <time>2021-03-27T17:07:41Z</time>
      </trkpt>
      <trkpt lat="46.17409" lon="6.25782">
        <ele>501.8</ele>
        <time>2021-03-27T17:07:42Z</time>
      </trkpt>
      <trkpt lat="46.17409" lon="6.25782">
        <ele>501.8</ele>
        <time>2021-03-27T17:07:43Z</time>
      </trkpt>
      <trkpt lat="46.17409" lon="6.25783">
        <ele>501.8</ele>
        <time>2021-03-27T17:07:44Z</time>
      </trkpt>
      <trkpt lat="46.17409" lon="6.25782">
        <ele>501.8</ele>
        <time>2021-03-27T17:07:45Z</time>
      </trkpt>
      <trkpt lat="46.17409" lon="6.25783">
        <ele>501.6</ele>
        <time>2021-03-27T17:07:46Z</time>
      </trkpt>
      <trkpt lat="46.17409" lon="6.25782">
        <ele>501.8</ele>
        <time>2021-03-27T17:07:47Z</time>
      </trkpt>
      <trkpt lat="46.1741" lon="6.25782">
        <ele>501.8</ele>
        <time>2021-03-27T17:07:48Z</time>
      </trkpt>
      <trkpt lat="46.1741" lon="6.25783">
        <ele>501.8</ele>
        <time>2021-03-27T17:07:49Z</time>
      </trkpt>
      <trkpt lat="46.1741" lon="6.25783">
        <ele>501.6</ele>
        <time>2021-03-27T17:07:50Z</time>
      </trkpt>
      <trkpt lat="46.17411" lon="6.25783">
        <ele>501.6</ele>
        <time>2021-03-27T17:07:51Z</time>
      </trkpt>
      <trkpt lat="46.17411" lon="6.25783">
        <ele>501.6</ele>
        <time>2021-03-27T17:07:52Z</time>
      </trkpt>
      <trkpt lat="46.1741" lon="6.25783">
        <ele>501.6</ele>
        <time>2021-03-27T17:07:53Z</time>
      </trkpt>
      <trkpt lat="46.1741" lon="6.25782">
        <ele>501.6</ele>
        <time>2021-03-27T17:07:54Z</time>
      </trkpt>
      <trkpt lat="46.1741" lon="6.25783">
        <ele>501.6</ele>
        <time>2021-03-27T17:07:55Z</time>
      </trkpt>
      <trkpt lat="46.1741" lon="6.25783">
        <ele>501.6</ele>
        <time>2021-03-27T17:07:56Z</time>
      </trkpt>
      <trkpt lat="46.1741" lon="6.25783">
        <ele>501.6</ele>
        <time>2021-03-27T17:07:57Z</time>
      </trkpt>
      <trkpt lat="46.1741" lon="6.25783">
        <ele>501.6</ele>
        <time>2021-03-27T17:07:58Z</time>
      </trkpt>
      <trkpt lat="46.1741" lon="6.25783">
        <ele>501.6</ele>
        <time>2021-03-27T17:07:59Z</time>
      </trkpt>
      <trkpt lat="46.1741" lon="6.25783">
        <ele>501.4</ele>
        <time>2021-03-27T17:08:00Z</time>
      </trkpt>
      <trkpt lat="46.1741" lon="6.25783">
        <ele>501.6</ele>
        <time>2021-03-27T17:08:01Z</time>
      </trkpt>
      <trkpt lat="46.1741" lon="6.25783">
        <ele>501.6</ele>
        <time>2021-03-27T17:08:02Z</time>
      </trkpt>
      <trkpt lat="46.1741" lon="6.25783">
        <ele>501.4</ele>
        <time>2021-03-27T17:08:03Z</time>
      </trkpt>
      <trkpt lat="46.1741" lon="6.25783">
        <ele>501.4</ele>
        <time>2021-03-27T17:08:04Z</time>
      </trkpt>
      <trkpt lat="46.1741" lon="6.25783">
        <ele>501.6</ele>
        <time>2021-03-27T17:08:05Z</time>
      </trkpt>
      <trkpt lat="46.1741" lon="6.25783">
        <ele>501.4</ele>
        <time>2021-03-27T17:08:06Z</time>
      </trkpt>
      <trkpt lat="46.17411" lon="6.25783">
        <ele>501.6</ele>
        <time>2021-03-27T17:08:07Z</time>
      </trkpt>
      <trkpt lat="46.17411" lon="6.25783">
        <ele>501.6</ele>
        <time>2021-03-27T17:08:08Z</time>
      </trkpt>
      <trkpt lat="46.17411" lon="6.25783">
        <ele>501.4</ele>
        <time>2021-03-27T17:08:09Z</time>
      </trkpt>
      <trkpt lat="46.1741" lon="6.25783">
        <ele>501.4</ele>
        <time>2021-03-27T17:08:10Z</time>
      </trkpt>
      <trkpt lat="46.1741" lon="6.25783">
        <ele>501.4</ele>
        <time>2021-03-27T17:08:11Z</time>
      </trkpt>
      <trkpt lat="46.1741" lon="6.25783">
        <ele>501.6</ele>
        <time>2021-03-27T17:08:12Z</time>
      </trkpt>
      <trkpt lat="46.1741" lon="6.25783">
        <ele>501.6</ele>
        <time>2021-03-27T17:08:13Z</time>
      </trkpt>
      <trkpt lat="46.1741" lon="6.25783">
        <ele>501.6</ele>
        <time>2021-03-27T17:08:14Z</time>
      </trkpt>
      <trkpt lat="46.1741" lon="6.25783">
        <ele>501.6</ele>
        <time>2021-03-27T17:08:15Z</time>
      </trkpt>
      <trkpt lat="46.1741" lon="6.25783">
        <ele>501.6</ele>
        <time>2021-03-27T17:08:16Z</time>
      </trkpt>
      <trkpt lat="46.1741" lon="6.25783">
        <ele>501.4</ele>
        <time>2021-03-27T17:08:17Z</time>
      </trkpt>
      <trkpt lat="46.1741" lon="6.25783">
        <ele>501.6</ele>
        <time>2021-03-27T17:08:18Z</time>
      </trkpt>
      <trkpt lat="46.1741" lon="6.25783">
        <ele>501.6</ele>
        <time>2021-03-27T17:08:19Z</time>
      </trkpt>
      <trkpt lat="46.1741" lon="6.25783">
        <ele>501.4</ele>
        <time>2021-03-27T17:08:20Z</time>
      </trkpt>
      <trkpt lat="46.1741" lon="6.25783">
        <ele>501.6</ele>
        <time>2021-03-27T17:08:21Z</time>
      </trkpt>
      <trkpt lat="46.1741" lon="6.25783">
        <ele>501.6</ele>
        <time>2021-03-27T17:08:22Z</time>
      </trkpt>
      <trkpt lat="46.1741" lon="6.25783">
        <ele>501.6</ele>
        <time>2021-03-27T17:08:23Z</time>
      </trkpt>
      <trkpt lat="46.1741" lon="6.25783">
        <ele>501.6</ele>
        <time>2021-03-27T17:08:24Z</time>
      </trkpt>
      <trkpt lat="46.1741" lon="6.25783">
        <ele>501.6</ele>
        <time>2021-03-27T17:08:25Z</time>
      </trkpt>
      <trkpt lat="46.1741" lon="6.25783">
        <ele>501.6</ele>
        <time>2021-03-27T17:08:26Z</time>
      </trkpt>
      <trkpt lat="46.1741" lon="6.25783">
        <ele>501.6</ele>
        <time>2021-03-27T17:08:27Z</time>
      </trkpt>
      <trkpt lat="46.1741" lon="6.25783">
        <ele>501.6</ele>
        <time>2021-03-27T17:08:28Z</time>
      </trkpt>
      <trkpt lat="46.1741" lon="6.25783">
        <ele>501.6</ele>
        <time>2021-03-27T17:08:29Z</time>
      </trkpt>
      <trkpt lat="46.1741" lon="6.25783">
        <ele>501.6</ele>
        <time>2021-03-27T17:08:30Z</time>
      </trkpt>
      <trkpt lat="46.1741" lon="6.25783">
        <ele>501.4</ele>
        <time>2021-03-27T17:08:31Z</time>
      </trkpt>
      <trkpt lat="46.1741" lon="6.25783">
        <ele>501.6</ele>
        <time>2021-03-27T17:08:32Z</time>
      </trkpt>
      <trkpt lat="46.1741" lon="6.25783">
        <ele>501.6</ele>
        <time>2021-03-27T17:08:33Z</time>
      </trkpt>
      <trkpt lat="46.1741" lon="6.25784">
        <ele>501.6</ele>
        <time>2021-03-27T17:08:34Z</time>
      </trkpt>
      <trkpt lat="46.1741" lon="6.25784">
        <ele>501.6</ele>
        <time>2021-03-27T17:08:35Z</time>
      </trkpt>
      <trkpt lat="46.17411" lon="6.25783">
        <ele>501.6</ele>
        <time>2021-03-27T17:08:36Z</time>
      </trkpt>
      <trkpt lat="46.17411" lon="6.25783">
        <ele>501.6</ele>
        <time>2021-03-27T17:08:37Z</time>
      </trkpt>
      <trkpt lat="46.17411" lon="6.25783">
        <ele>501.6</ele>
        <time>2021-03-27T17:08:38Z</time>
      </trkpt>
      <trkpt lat="46.17411" lon="6.25783">
        <ele>501.6</ele>
        <time>2021-03-27T17:08:39Z</time>
      </trkpt>
      <trkpt lat="46.17411" lon="6.25783">
        <ele>501.6</ele>
        <time>2021-03-27T17:08:40Z</time>
      </trkpt>
      <trkpt lat="46.17411" lon="6.25783">
        <ele>501.4</ele>
        <time>2021-03-27T17:08:41Z</time>
      </trkpt>
      <trkpt lat="46.17411" lon="6.25783">
        <ele>501.4</ele>
        <time>2021-03-27T17:08:42Z</time>
      </trkpt>
      <trkpt lat="46.17411" lon="6.25783">
        <ele>501.6</ele>
        <time>2021-03-27T17:08:43Z</time>
      </trkpt>
      <trkpt lat="46.17411" lon="6.25783">
        <ele>501.6</ele>
        <time>2021-03-27T17:08:44Z</time>
      </trkpt>
      <trkpt lat="46.17411" lon="6.25783">
        <ele>501.6</ele>
        <time>2021-03-27T17:08:45Z</time>
      </trkpt>
      <trkpt lat="46.17411" lon="6.25783">
        <ele>501.4</ele>
        <time>2021-03-27T17:08:46Z</time>
      </trkpt>
      <trkpt lat="46.17411" lon="6.25783">
        <ele>501.4</ele>
        <time>2021-03-27T17:08:47Z</time>
      </trkpt>
      <trkpt lat="46.17411" lon="6.25783">
        <ele>501.4</ele>
        <time>2021-03-27T17:08:48Z</time>
      </trkpt>
      <trkpt lat="46.17411" lon="6.25783">
        <ele>501.6</ele>
        <time>2021-03-27T17:08:49Z</time>
      </trkpt>
      <trkpt lat="46.17411" lon="6.25783">
        <ele>501.6</ele>
        <time>2021-03-27T17:08:50Z</time>
      </trkpt>
      <trkpt lat="46.17411" lon="6.25783">
        <ele>501.4</ele>
        <time>2021-03-27T17:08:51Z</time>
      </trkpt>
      <trkpt lat="46.17411" lon="6.25783">
        <ele>501.4</ele>
        <time>2021-03-27T17:08:52Z</time>
      </trkpt>
      <trkpt lat="46.17411" lon="6.25783">
        <ele>501.6</ele>
        <time>2021-03-27T17:08:53Z</time>
      </trkpt>
      <trkpt lat="46.17411" lon="6.25783">
        <ele>501.6</ele>
        <time>2021-03-27T17:08:54Z</time>
      </trkpt>
      <trkpt lat="46.17411" lon="6.25783">
        <ele>501.6</ele>
        <time>2021-03-27T17:08:55Z</time>
      </trkpt>
      <trkpt lat="46.17411" lon="6.25783">
        <ele>501.6</ele>
        <time>2021-03-27T17:08:56Z</time>
      </trkpt>
      <trkpt lat="46.17411" lon="6.25783">
        <ele>501.6</ele>
        <time>2021-03-27T17:08:57Z</time>
      </trkpt>
      <trkpt lat="46.17411" lon="6.25783">
        <ele>501.6</ele>
        <time>2021-03-27T17:08:58Z</time>
      </trkpt>
      <trkpt lat="46.17411" lon="6.25783">
        <ele>501.6</ele>
        <time>2021-03-27T17:08:59Z</time>
      </trkpt>
      <trkpt lat="46.17411" lon="6.25783">
        <ele>501.6</ele>
        <time>2021-03-27T17:09:00Z</time>
      </trkpt>
      <trkpt lat="46.17411" lon="6.25783">
        <ele>501.4</ele>
        <time>2021-03-27T17:09:01Z</time>
      </trkpt>
      <trkpt lat="46.1741" lon="6.25783">
        <ele>501.4</ele>
        <time>2021-03-27T17:09:02Z</time>
      </trkpt>
      <trkpt lat="46.1741" lon="6.25783">
        <ele>501.6</ele>
        <time>2021-03-27T17:09:03Z</time>
      </trkpt>
      <trkpt lat="46.1741" lon="6.25783">
        <ele>501.6</ele>
        <time>2021-03-27T17:09:04Z</time>
      </trkpt>
      <trkpt lat="46.1741" lon="6.25783">
        <ele>501.6</ele>
        <time>2021-03-27T17:09:05Z</time>
      </trkpt>
      <trkpt lat="46.1741" lon="6.25783">
        <ele>501.6</ele>
        <time>2021-03-27T17:09:06Z</time>
      </trkpt>
      <trkpt lat="46.1741" lon="6.25783">
        <ele>501.6</ele>
        <time>2021-03-27T17:09:07Z</time>
      </trkpt>
      <trkpt lat="46.1741" lon="6.25783">
        <ele>501.6</ele>
        <time>2021-03-27T17:09:08Z</time>
      </trkpt>
      <trkpt lat="46.1741" lon="6.25783">
        <ele>501.6</ele>
        <time>2021-03-27T17:09:09Z</time>
      </trkpt>
      <trkpt lat="46.1741" lon="6.25783">
        <ele>501.6</ele>
        <time>2021-03-27T17:09:10Z</time>
      </trkpt>
      <trkpt lat="46.1741" lon="6.25783">
        <ele>501.6</ele>
        <time>2021-03-27T17:09:11Z</time>
      </trkpt>
      <trkpt lat="46.1741" lon="6.25783">
        <ele>501.6</ele>
        <time>2021-03-27T17:09:12Z</time>
      </trkpt>
      <trkpt lat="46.1741" lon="6.25783">
        <ele>501.6</ele>
        <time>2021-03-27T17:09:13Z</time>
      </trkpt>
      <trkpt lat="46.1741" lon="6.25783">
        <ele>501.6</ele>
        <time>2021-03-27T17:09:14Z</time>
      </trkpt>
      <trkpt lat="46.1741" lon="6.25783">
        <ele>501.6</ele>
        <time>2021-03-27T17:09:15Z</time>
      </trkpt>
      <trkpt lat="46.1741" lon="6.25783">
        <ele>501.4</ele>
        <time>2021-03-27T17:09:16Z</time>
      </trkpt>
      <trkpt lat="46.1741" lon="6.25783">
        <ele>501.4</ele>
        <time>2021-03-27T17:09:17Z</time>
      </trkpt>
      <trkpt lat="46.1741" lon="6.25783">
        <ele>501.6</ele>
        <time>2021-03-27T17:09:18Z</time>
      </trkpt>
      <trkpt lat="46.1741" lon="6.25783">
        <ele>501.6</ele>
        <time>2021-03-27T17:09:19Z</time>
      </trkpt>
      <trkpt lat="46.1741" lon="6.25783">
        <ele>501.6</ele>
        <time>2021-03-27T17:09:20Z</time>
      </trkpt>
      <trkpt lat="46.1741" lon="6.25783">
        <ele>501.6</ele>
        <time>2021-03-27T17:09:21Z</time>
      </trkpt>
      <trkpt lat="46.1741" lon="6.25783">
        <ele>501.4</ele>
        <time>2021-03-27T17:09:22Z</time>
      </trkpt>
      <trkpt lat="46.1741" lon="6.25783">
        <ele>501.4</ele>
        <time>2021-03-27T17:09:23Z</time>
      </trkpt>
      <trkpt lat="46.1741" lon="6.25783">
        <ele>501.6</ele>
        <time>2021-03-27T17:09:24Z</time>
      </trkpt>
      <trkpt lat="46.1741" lon="6.25783">
        <ele>501.6</ele>
        <time>2021-03-27T17:09:25Z</time>
      </trkpt>
      <trkpt lat="46.1741" lon="6.25783">
        <ele>501.6</ele>
        <time>2021-03-27T17:09:26Z</time>
      </trkpt>
      <trkpt lat="46.1741" lon="6.25783">
        <ele>501.6</ele>
        <time>2021-03-27T17:09:27Z</time>
      </trkpt>
      <trkpt lat="46.1741" lon="6.25783">
        <ele>501.6</ele>
        <time>2021-03-27T17:09:28Z</time>
      </trkpt>
      <trkpt lat="46.1741" lon="6.25783">
        <ele>501.6</ele>
        <time>2021-03-27T17:09:29Z</time>
      </trkpt>
      <trkpt lat="46.1741" lon="6.25783">
        <ele>501.6</ele>
        <time>2021-03-27T17:09:30Z</time>
      </trkpt>
      <trkpt lat="46.1741" lon="6.25783">
        <ele>501.6</ele>
        <time>2021-03-27T17:09:31Z</time>
      </trkpt>
      <trkpt lat="46.1741" lon="6.25783">
        <ele>501.4</ele>
        <time>2021-03-27T17:09:32Z</time>
      </trkpt>
      <trkpt lat="46.1741" lon="6.25783">
        <ele>501.4</ele>
        <time>2021-03-27T17:09:33Z</time>
      </trkpt>
      <trkpt lat="46.1741" lon="6.25783">
        <ele>501.6</ele>
        <time>2021-03-27T17:09:34Z</time>
      </trkpt>
      <trkpt lat="46.1741" lon="6.25783">
        <ele>501.4</ele>
        <time>2021-03-27T17:09:35Z</time>
      </trkpt>
      <trkpt lat="46.1741" lon="6.25783">
        <ele>501.4</ele>
        <time>2021-03-27T17:09:36Z</time>
      </trkpt>
      <trkpt lat="46.1741" lon="6.25783">
        <ele>501.6</ele>
        <time>2021-03-27T17:09:37Z</time>
      </trkpt>
      <trkpt lat="46.1741" lon="6.25783">
        <ele>501.4</ele>
        <time>2021-03-27T17:09:38Z</time>
      </trkpt>
      <trkpt lat="46.1741" lon="6.25783">
        <ele>501.4</ele>
        <time>2021-03-27T17:09:39Z</time>
      </trkpt>
      <trkpt lat="46.1741" lon="6.25783">
        <ele>501.6</ele>
        <time>2021-03-27T17:09:40Z</time>
      </trkpt>
      <trkpt lat="46.1741" lon="6.25783">
        <ele>501.6</ele>
        <time>2021-03-27T17:09:41Z</time>
      </trkpt>
      <trkpt lat="46.1741" lon="6.25783">
        <ele>501.6</ele>
        <time>2021-03-27T17:09:42Z</time>
      </trkpt>
      <trkpt lat="46.1741" lon="6.25783">
        <ele>501.4</ele>
        <time>2021-03-27T17:09:43Z</time>
      </trkpt>
      <trkpt lat="46.1741" lon="6.25783">
        <ele>501.4</ele>
        <time>2021-03-27T17:09:44Z</time>
      </trkpt>
      <trkpt lat="46.1741" lon="6.25783">
        <ele>501.4</ele>
        <time>2021-03-27T17:09:45Z</time>
      </trkpt>
      <trkpt lat="46.1741" lon="6.25783">
        <ele>501.6</ele>
        <time>2021-03-27T17:09:46Z</time>
      </trkpt>
      <trkpt lat="46.1741" lon="6.25783">
        <ele>501.4</ele>
        <time>2021-03-27T17:09:47Z</time>
      </trkpt>
      <trkpt lat="46.1741" lon="6.25783">
        <ele>501.4</ele>
        <time>2021-03-27T17:09:48Z</time>
      </trkpt>
      <trkpt lat="46.1741" lon="6.25783">
        <ele>501.4</ele>
        <time>2021-03-27T17:09:49Z</time>
      </trkpt>
      <trkpt lat="46.1741" lon="6.25783">
        <ele>501.6</ele>
        <time>2021-03-27T17:09:50Z</time>
      </trkpt>
      <trkpt lat="46.1741" lon="6.25783">
        <ele>501.4</ele>
        <time>2021-03-27T17:09:51Z</time>
      </trkpt>
      <trkpt lat="46.1741" lon="6.25783">
        <ele>501.4</ele>
        <time>2021-03-27T17:09:52Z</time>
      </trkpt>
      <trkpt lat="46.1741" lon="6.25783">
        <ele>501.4</ele>
        <time>2021-03-27T17:09:53Z</time>
      </trkpt>
      <trkpt lat="46.1741" lon="6.25783">
        <ele>501.6</ele>
        <time>2021-03-27T17:09:54Z</time>
      </trkpt>
      <trkpt lat="46.1741" lon="6.25783">
        <ele>501.6</ele>
        <time>2021-03-27T17:09:55Z</time>
      </trkpt>
      <trkpt lat="46.1741" lon="6.25783">
        <ele>501.4</ele>
        <time>2021-03-27T17:09:56Z</time>
      </trkpt>
      <trkpt lat="46.1741" lon="6.25783">
        <ele>501.4</ele>
        <time>2021-03-27T17:09:57Z</time>
      </trkpt>
      <trkpt lat="46.1741" lon="6.25783">
        <ele>501.4</ele>
        <time>2021-03-27T17:09:58Z</time>
      </trkpt>
      <trkpt lat="46.17411" lon="6.25783">
        <ele>501.4</ele>
        <time>2021-03-27T17:09:59Z</time>
      </trkpt>
      <trkpt lat="46.17411" lon="6.25783">
        <ele>501.6</ele>
        <time>2021-03-27T17:10:00Z</time>
      </trkpt>
      <trkpt lat="46.17411" lon="6.25783">
        <ele>501.6</ele>
        <time>2021-03-27T17:10:01Z</time>
      </trkpt>
      <trkpt lat="46.17411" lon="6.25783">
        <ele>501.4</ele>
        <time>2021-03-27T17:10:02Z</time>
      </trkpt>
      <trkpt lat="46.17411" lon="6.25783">
        <ele>501.6</ele>
        <time>2021-03-27T17:10:03Z</time>
      </trkpt>
      <trkpt lat="46.17411" lon="6.25783">
        <ele>501.6</ele>
        <time>2021-03-27T17:10:04Z</time>
      </trkpt>
      <trkpt lat="46.17411" lon="6.25783">
        <ele>501.6</ele>
        <time>2021-03-27T17:10:05Z</time>
      </trkpt>
      <trkpt lat="46.17411" lon="6.25783">
        <ele>501.4</ele>
        <time>2021-03-27T17:10:06Z</time>
      </trkpt>
      <trkpt lat="46.17411" lon="6.25783">
        <ele>501.4</ele>
        <time>2021-03-27T17:10:07Z</time>
      </trkpt>
      <trkpt lat="46.17411" lon="6.25783">
        <ele>501.6</ele>
        <time>2021-03-27T17:10:08Z</time>
      </trkpt>
      <trkpt lat="46.17411" lon="6.25783">
        <ele>501.4</ele>
        <time>2021-03-27T17:10:09Z</time>
      </trkpt>
      <trkpt lat="46.17411" lon="6.25783">
        <ele>501.6</ele>
        <time>2021-03-27T17:10:10Z</time>
      </trkpt>
      <trkpt lat="46.17411" lon="6.25783">
        <ele>501.6</ele>
        <time>2021-03-27T17:10:11Z</time>
      </trkpt>
      <trkpt lat="46.17411" lon="6.25783">
        <ele>501.6</ele>
        <time>2021-03-27T17:10:12Z</time>
      </trkpt>
      <trkpt lat="46.17411" lon="6.25783">
        <ele>501.6</ele>
        <time>2021-03-27T17:10:13Z</time>
      </trkpt>
      <trkpt lat="46.17411" lon="6.25783">
        <ele>501.6</ele>
        <time>2021-03-27T17:10:14Z</time>
      </trkpt>
      <trkpt lat="46.17411" lon="6.25783">
        <ele>501.6</ele>
        <time>2021-03-27T17:10:15Z</time>
      </trkpt>
      <trkpt lat="46.17411" lon="6.25783">
        <ele>501.6</ele>
        <time>2021-03-27T17:10:16Z</time>
      </trkpt>
      <trkpt lat="46.17411" lon="6.25783">
        <ele>501.6</ele>
        <time>2021-03-27T17:10:17Z</time>
      </trkpt>
      <trkpt lat="46.17411" lon="6.25783">
        <ele>501.6</ele>
        <time>2021-03-27T17:10:18Z</time>
      </trkpt>
      <trkpt lat="46.17411" lon="6.25783">
        <ele>501.6</ele>
        <time>2021-03-27T17:10:19Z</time>
      </trkpt>
      <trkpt lat="46.17411" lon="6.25783">
        <ele>501.6</ele>
        <time>2021-03-27T17:10:20Z</time>
      </trkpt>
      <trkpt lat="46.17411" lon="6.25783">
        <ele>501.6</ele>
        <time>2021-03-27T17:10:21Z</time>
      </trkpt>
      <trkpt lat="46.17411" lon="6.25783">
        <ele>501.6</ele>
        <time>2021-03-27T17:10:22Z</time>
      </trkpt>
      <trkpt lat="46.17411" lon="6.25783">
        <ele>501.6</ele>
        <time>2021-03-27T17:10:23Z</time>
      </trkpt>
      <trkpt lat="46.17411" lon="6.25783">
        <ele>501.6</ele>
        <time>2021-03-27T17:10:24Z</time>
      </trkpt>
      <trkpt lat="46.17411" lon="6.25783">
        <ele>501.6</ele>
        <time>2021-03-27T17:10:25Z</time>
      </trkpt>
      <trkpt lat="46.17411" lon="6.25783">
        <ele>501.6</ele>
        <time>2021-03-27T17:10:26Z</time>
      </trkpt>
      <trkpt lat="46.17411" lon="6.25783">
        <ele>501.6</ele>
        <time>2021-03-27T17:10:27Z</time>
      </trkpt>
      <trkpt lat="46.17411" lon="6.25783">
        <ele>501.4</ele>
        <time>2021-03-27T17:10:28Z</time>
      </trkpt>
      <trkpt lat="46.17411" lon="6.25783">
        <ele>501.6</ele>
        <time>2021-03-27T17:10:29Z</time>
      </trkpt>
      <trkpt lat="46.17411" lon="6.25783">
        <ele>501.4</ele>
        <time>2021-03-27T17:10:30Z</time>
      </trkpt>
      <trkpt lat="46.17411" lon="6.25783">
        <ele>501.6</ele>
        <time>2021-03-27T17:10:31Z</time>
      </trkpt>
      <trkpt lat="46.17411" lon="6.25783">
        <ele>501.4</ele>
        <time>2021-03-27T17:10:32Z</time>
      </trkpt>
      <trkpt lat="46.17411" lon="6.25783">
        <ele>501.4</ele>
        <time>2021-03-27T17:10:33Z</time>
      </trkpt>
      <trkpt lat="46.17411" lon="6.25783">
        <ele>501.6</ele>
        <time>2021-03-27T17:10:34Z</time>
      </trkpt>
      <trkpt lat="46.17411" lon="6.25783">
        <ele>501.4</ele>
        <time>2021-03-27T17:10:35Z</time>
      </trkpt>
      <trkpt lat="46.1741" lon="6.25783">
        <ele>501.4</ele>
        <time>2021-03-27T17:10:36Z</time>
      </trkpt>
      <trkpt lat="46.1741" lon="6.25783">
        <ele>501.4</ele>
        <time>2021-03-27T17:10:37Z</time>
      </trkpt>
      <trkpt lat="46.1741" lon="6.25783">
        <ele>501.6</ele>
        <time>2021-03-27T17:10:38Z</time>
      </trkpt>
      <trkpt lat="46.1741" lon="6.25783">
        <ele>501.6</ele>
        <time>2021-03-27T17:10:39Z</time>
      </trkpt>
      <trkpt lat="46.1741" lon="6.25783">
        <ele>501.6</ele>
        <time>2021-03-27T17:10:40Z</time>
      </trkpt>
      <trkpt lat="46.1741" lon="6.25783">
        <ele>501.6</ele>
        <time>2021-03-27T17:10:41Z</time>
      </trkpt>
      <trkpt lat="46.1741" lon="6.25783">
        <ele>501.6</ele>
        <time>2021-03-27T17:10:42Z</time>
      </trkpt>
      <trkpt lat="46.1741" lon="6.25783">
        <ele>501.6</ele>
        <time>2021-03-27T17:10:43Z</time>
      </trkpt>
      <trkpt lat="46.1741" lon="6.25783">
        <ele>501.4</ele>
        <time>2021-03-27T17:10:44Z</time>
      </trkpt>
      <trkpt lat="46.1741" lon="6.25783">
        <ele>501.6</ele>
        <time>2021-03-27T17:10:45Z</time>
      </trkpt>
      <trkpt lat="46.1741" lon="6.25783">
        <ele>501.4</ele>
        <time>2021-03-27T17:10:46Z</time>
      </trkpt>
      <trkpt lat="46.1741" lon="6.25783">
        <ele>501.4</ele>
        <time>2021-03-27T17:10:47Z</time>
      </trkpt>
      <trkpt lat="46.1741" lon="6.25783">
        <ele>501.6</ele>
        <time>2021-03-27T17:10:48Z</time>
      </trkpt>
      <trkpt lat="46.1741" lon="6.25783">
        <ele>501.4</ele>
        <time>2021-03-27T17:10:49Z</time>
      </trkpt>
      <trkpt lat="46.1741" lon="6.25783">
        <ele>501.4</ele>
        <time>2021-03-27T17:10:50Z</time>
      </trkpt>
      <trkpt lat="46.1741" lon="6.25783">
        <ele>501.6</ele>
        <time>2021-03-27T17:10:51Z</time>
      </trkpt>
      <trkpt lat="46.1741" lon="6.25783">
        <ele>501.4</ele>
        <time>2021-03-27T17:10:52Z</time>
      </trkpt>
      <trkpt lat="46.1741" lon="6.25783">
        <ele>501.6</ele>
        <time>2021-03-27T17:10:53Z</time>
      </trkpt>
      <trkpt lat="46.1741" lon="6.25783">
        <ele>501.6</ele>
        <time>2021-03-27T17:10:54Z</time>
      </trkpt>
      <trkpt lat="46.1741" lon="6.25783">
        <ele>501.4</ele>
        <time>2021-03-27T17:10:55Z</time>
      </trkpt>
      <trkpt lat="46.1741" lon="6.25783">
        <ele>501.6</ele>
        <time>2021-03-27T17:10:56Z</time>
      </trkpt>
      <trkpt lat="46.1741" lon="6.25783">
        <ele>501.4</ele>
        <time>2021-03-27T17:10:57Z</time>
      </trkpt>
      <trkpt lat="46.1741" lon="6.25783">
        <ele>501.6</ele>
        <time>2021-03-27T17:10:58Z</time>
      </trkpt>
      <trkpt lat="46.1741" lon="6.25783">
        <ele>501.6</ele>
        <time>2021-03-27T17:10:59Z</time>
      </trkpt>
      <trkpt lat="46.1741" lon="6.25783">
        <ele>501.4</ele>
        <time>2021-03-27T17:11:00Z</time>
      </trkpt>
      <trkpt lat="46.1741" lon="6.25783">
        <ele>501.4</ele>
        <time>2021-03-27T17:11:01Z</time>
      </trkpt>
      <trkpt lat="46.1741" lon="6.25783">
        <ele>501.4</ele>
        <time>2021-03-27T17:11:02Z</time>
      </trkpt>
      <trkpt lat="46.1741" lon="6.25783">
        <ele>501.4</ele>
        <time>2021-03-27T17:11:03Z</time>
      </trkpt>
      <trkpt lat="46.1741" lon="6.25783">
        <ele>501.6</ele>
        <time>2021-03-27T17:11:04Z</time>
      </trkpt>
      <trkpt lat="46.1741" lon="6.25783">
        <ele>501.6</ele>
        <time>2021-03-27T17:11:05Z</time>
      </trkpt>
      <trkpt lat="46.1741" lon="6.25783">
        <ele>501.6</ele>
        <time>2021-03-27T17:11:06Z</time>
      </trkpt>
      <trkpt lat="46.1741" lon="6.25783">
        <ele>501.4</ele>
        <time>2021-03-27T17:11:07Z</time>
      </trkpt>
      <trkpt lat="46.1741" lon="6.25783">
        <ele>501.6</ele>
        <time>2021-03-27T17:11:08Z</time>
      </trkpt>
      <trkpt lat="46.1741" lon="6.25783">
        <ele>501.6</ele>
        <time>2021-03-27T17:11:09Z</time>
      </trkpt>
      <trkpt lat="46.1741" lon="6.25783">
        <ele>501.4</ele>
        <time>2021-03-27T17:11:10Z</time>
      </trkpt>
      <trkpt lat="46.1741" lon="6.25783">
        <ele>501.6</ele>
        <time>2021-03-27T17:11:11Z</time>
      </trkpt>
      <trkpt lat="46.1741" lon="6.25783">
        <ele>501.4</ele>
        <time>2021-03-27T17:11:12Z</time>
      </trkpt>
      <trkpt lat="46.1741" lon="6.25783">
        <ele>501.4</ele>
        <time>2021-03-27T17:11:13Z</time>
      </trkpt>
      <trkpt lat="46.1741" lon="6.25783">
        <ele>501.4</ele>
        <time>2021-03-27T17:11:14Z</time>
      </trkpt>
      <trkpt lat="46.1741" lon="6.25783">
        <ele>501.6</ele>
        <time>2021-03-27T17:11:15Z</time>
      </trkpt>
      <trkpt lat="46.1741" lon="6.25783">
        <ele>501.6</ele>
        <time>2021-03-27T17:11:16Z</time>
      </trkpt>
      <trkpt lat="46.1741" lon="6.25783">
        <ele>501.6</ele>
        <time>2021-03-27T17:11:17Z</time>
      </trkpt>
      <trkpt lat="46.1741" lon="6.25783">
        <ele>501.6</ele>
        <time>2021-03-27T17:11:18Z</time>
      </trkpt>
      <trkpt lat="46.1741" lon="6.25783">
        <ele>501.6</ele>
        <time>2021-03-27T17:11:19Z</time>
      </trkpt>
      <trkpt lat="46.1741" lon="6.25783">
        <ele>501.6</ele>
        <time>2021-03-27T17:11:20Z</time>
      </trkpt>
      <trkpt lat="46.1741" lon="6.25783">
        <ele>501.6</ele>
        <time>2021-03-27T17:11:21Z</time>
      </trkpt>
      <trkpt lat="46.1741" lon="6.25783">
        <ele>501.6</ele>
        <time>2021-03-27T17:11:22Z</time>
      </trkpt>
      <trkpt lat="46.1741" lon="6.25783">
        <ele>501.6</ele>
        <time>2021-03-27T17:11:23Z</time>
      </trkpt>
      <trkpt lat="46.1741" lon="6.25783">
        <ele>501.6</ele>
        <time>2021-03-27T17:11:24Z</time>
      </trkpt>
      <trkpt lat="46.1741" lon="6.25783">
        <ele>501.6</ele>
        <time>2021-03-27T17:11:25Z</time>
      </trkpt>
      <trkpt lat="46.1741" lon="6.25783">
        <ele>501.6</ele>
        <time>2021-03-27T17:11:26Z</time>
      </trkpt>
      <trkpt lat="46.1741" lon="6.25783">
        <ele>501.6</ele>
        <time>2021-03-27T17:11:27Z</time>
      </trkpt>
      <trkpt lat="46.1741" lon="6.25783">
        <ele>501.6</ele>
        <time>2021-03-27T17:11:28Z</time>
      </trkpt>
      <trkpt lat="46.1741" lon="6.25783">
        <ele>501.6</ele>
        <time>2021-03-27T17:11:29Z</time>
      </trkpt>
      <trkpt lat="46.1741" lon="6.25783">
        <ele>501.6</ele>
        <time>2021-03-27T17:11:30Z</time>
      </trkpt>
      <trkpt lat="46.1741" lon="6.25783">
        <ele>501.6</ele>
        <time>2021-03-27T17:11:31Z</time>
      </trkpt>
      <trkpt lat="46.1741" lon="6.25783">
        <ele>501.4</ele>
        <time>2021-03-27T17:11:32Z</time>
      </trkpt>
      <trkpt lat="46.1741" lon="6.25783">
        <ele>501.4</ele>
        <time>2021-03-27T17:11:33Z</time>
      </trkpt>
      <trkpt lat="46.1741" lon="6.25783">
        <ele>501.6</ele>
        <time>2021-03-27T17:11:34Z</time>
      </trkpt>
      <trkpt lat="46.1741" lon="6.25783">
        <ele>501.6</ele>
        <time>2021-03-27T17:11:35Z</time>
      </trkpt>
      <trkpt lat="46.1741" lon="6.25783">
        <ele>501.6</ele>
        <time>2021-03-27T17:11:36Z</time>
      </trkpt>
      <trkpt lat="46.1741" lon="6.25783">
        <ele>501.4</ele>
        <time>2021-03-27T17:11:37Z</time>
      </trkpt>
      <trkpt lat="46.1741" lon="6.25783">
        <ele>501.6</ele>
        <time>2021-03-27T17:11:38Z</time>
      </trkpt>
      <trkpt lat="46.1741" lon="6.25783">
        <ele>501.6</ele>
        <time>2021-03-27T17:11:39Z</time>
      </trkpt>
      <trkpt lat="46.1741" lon="6.25783">
        <ele>501.4</ele>
        <time>2021-03-27T17:11:40Z</time>
      </trkpt>
      <trkpt lat="46.1741" lon="6.25783">
        <ele>501.6</ele>
        <time>2021-03-27T17:11:41Z</time>
      </trkpt>
      <trkpt lat="46.1741" lon="6.25784">
        <ele>501.8</ele>
        <time>2021-03-27T17:11:42Z</time>
      </trkpt>
      <trkpt lat="46.1741" lon="6.25784">
        <ele>501.6</ele>
        <time>2021-03-27T17:11:43Z</time>
      </trkpt>
      <trkpt lat="46.1741" lon="6.25784">
        <ele>501.8</ele>
        <time>2021-03-27T17:11:44Z</time>
      </trkpt>
      <trkpt lat="46.1741" lon="6.25784">
        <ele>501.8</ele>
        <time>2021-03-27T17:11:45Z</time>
      </trkpt>
      <trkpt lat="46.1741" lon="6.25784">
        <ele>501.6</ele>
        <time>2021-03-27T17:11:46Z</time>
      </trkpt>
      <trkpt lat="46.1741" lon="6.25784">
        <ele>501.6</ele>
        <time>2021-03-27T17:11:47Z</time>
      </trkpt>
      <trkpt lat="46.1741" lon="6.25784">
        <ele>501.8</ele>
        <time>2021-03-27T17:11:48Z</time>
      </trkpt>
      <trkpt lat="46.17409" lon="6.25784">
        <ele>501.8</ele>
        <time>2021-03-27T17:11:49Z</time>
      </trkpt>
      <trkpt lat="46.17409" lon="6.25784">
        <ele>501.8</ele>
        <time>2021-03-27T17:11:50Z</time>
      </trkpt>
      <trkpt lat="46.1741" lon="6.25784">
        <ele>501.6</ele>
        <time>2021-03-27T17:11:51Z</time>
      </trkpt>
      <trkpt lat="46.1741" lon="6.25784">
        <ele>501.6</ele>
        <time>2021-03-27T17:11:52Z</time>
      </trkpt>
      <trkpt lat="46.1741" lon="6.25784">
        <ele>501.6</ele>
        <time>2021-03-27T17:11:53Z</time>
      </trkpt>
      <trkpt lat="46.1741" lon="6.25784">
        <ele>501.8</ele>
        <time>2021-03-27T17:11:54Z</time>
      </trkpt>
      <trkpt lat="46.17409" lon="6.25784">
        <ele>501.6</ele>
        <time>2021-03-27T17:11:55Z</time>
      </trkpt>
      <trkpt lat="46.17409" lon="6.25784">
        <ele>501.8</ele>
        <time>2021-03-27T17:11:56Z</time>
      </trkpt>
      <trkpt lat="46.17409" lon="6.25784">
        <ele>501.6</ele>
        <time>2021-03-27T17:11:57Z</time>
      </trkpt>
      <trkpt lat="46.17409" lon="6.25784">
        <ele>501.6</ele>
        <time>2021-03-27T17:11:58Z</time>
      </trkpt>
      <trkpt lat="46.17409" lon="6.25784">
        <ele>501.6</ele>
        <time>2021-03-27T17:11:59Z</time>
      </trkpt>
      <trkpt lat="46.17409" lon="6.25784">
        <ele>501.8</ele>
        <time>2021-03-27T17:12:00Z</time>
      </trkpt>
      <trkpt lat="46.17409" lon="6.25784">
        <ele>501.6</ele>
        <time>2021-03-27T17:12:01Z</time>
      </trkpt>
      <trkpt lat="46.1741" lon="6.25784">
        <ele>501.8</ele>
        <time>2021-03-27T17:12:02Z</time>
      </trkpt>
      <trkpt lat="46.1741" lon="6.25784">
        <ele>501.6</ele>
        <time>2021-03-27T17:12:03Z</time>
      </trkpt>
      <trkpt lat="46.1741" lon="6.25784">
        <ele>501.8</ele>
        <time>2021-03-27T17:12:04Z</time>
      </trkpt>
      <trkpt lat="46.1741" lon="6.25784">
        <ele>501.8</ele>
        <time>2021-03-27T17:12:05Z</time>
      </trkpt>
      <trkpt lat="46.1741" lon="6.25784">
        <ele>501.8</ele>
        <time>2021-03-27T17:12:06Z</time>
      </trkpt>
      <trkpt lat="46.17409" lon="6.25784">
        <ele>501.6</ele>
        <time>2021-03-27T17:12:07Z</time>
      </trkpt>
      <trkpt lat="46.17409" lon="6.25784">
        <ele>501.6</ele>
        <time>2021-03-27T17:12:08Z</time>
      </trkpt>
      <trkpt lat="46.1741" lon="6.25784">
        <ele>501.8</ele>
        <time>2021-03-27T17:12:09Z</time>
      </trkpt>
      <trkpt lat="46.1741" lon="6.25784">
        <ele>501.6</ele>
        <time>2021-03-27T17:12:10Z</time>
      </trkpt>
      <trkpt lat="46.17409" lon="6.25784">
        <ele>501.6</ele>
        <time>2021-03-27T17:12:11Z</time>
      </trkpt>
      <trkpt lat="46.17409" lon="6.25784">
        <ele>501.8</ele>
        <time>2021-03-27T17:12:12Z</time>
      </trkpt>
      <trkpt lat="46.17409" lon="6.25784">
        <ele>501.8</ele>
        <time>2021-03-27T17:12:13Z</time>
      </trkpt>
      <trkpt lat="46.17409" lon="6.25784">
        <ele>501.6</ele>
        <time>2021-03-27T17:12:14Z</time>
      </trkpt>
      <trkpt lat="46.17409" lon="6.25784">
        <ele>501.6</ele>
        <time>2021-03-27T17:12:15Z</time>
      </trkpt>
      <trkpt lat="46.17409" lon="6.25784">
        <ele>501.6</ele>
        <time>2021-03-27T17:12:16Z</time>
      </trkpt>
      <trkpt lat="46.17409" lon="6.25784">
        <ele>501.6</ele>
        <time>2021-03-27T17:12:17Z</time>
      </trkpt>
      <trkpt lat="46.17409" lon="6.25784">
        <ele>501.6</ele>
        <time>2021-03-27T17:12:18Z</time>
      </trkpt>
      <trkpt lat="46.17409" lon="6.25784">
        <ele>501.8</ele>
        <time>2021-03-27T17:12:19Z</time>
      </trkpt>
      <trkpt lat="46.17409" lon="6.25784">
        <ele>501.6</ele>
        <time>2021-03-27T17:12:20Z</time>
      </trkpt>
      <trkpt lat="46.17409" lon="6.25784">
        <ele>501.6</ele>
        <time>2021-03-27T17:12:21Z</time>
      </trkpt>
      <trkpt lat="46.17409" lon="6.25784">
        <ele>501.6</ele>
        <time>2021-03-27T17:12:22Z</time>
      </trkpt>
      <trkpt lat="46.17409" lon="6.25784">
        <ele>501.6</ele>
        <time>2021-03-27T17:12:23Z</time>
      </trkpt>
      <trkpt lat="46.17409" lon="6.25784">
        <ele>501.6</ele>
        <time>2021-03-27T17:12:24Z</time>
      </trkpt>
      <trkpt lat="46.17409" lon="6.25784">
        <ele>501.6</ele>
        <time>2021-03-27T17:12:25Z</time>
      </trkpt>
      <trkpt lat="46.17409" lon="6.25784">
        <ele>501.6</ele>
        <time>2021-03-27T17:12:26Z</time>
      </trkpt>
      <trkpt lat="46.17409" lon="6.25784">
        <ele>501.6</ele>
        <time>2021-03-27T17:12:27Z</time>
      </trkpt>
      <trkpt lat="46.17409" lon="6.25784">
        <ele>501.6</ele>
        <time>2021-03-27T17:12:28Z</time>
      </trkpt>
      <trkpt lat="46.17409" lon="6.25784">
        <ele>501.6</ele>
        <time>2021-03-27T17:12:29Z</time>
      </trkpt>
      <trkpt lat="46.17409" lon="6.25784">
        <ele>501.6</ele>
        <time>2021-03-27T17:12:30Z</time>
      </trkpt>
      <trkpt lat="46.17409" lon="6.25784">
        <ele>501.6</ele>
        <time>2021-03-27T17:12:31Z</time>
      </trkpt>
      <trkpt lat="46.17409" lon="6.25784">
        <ele>501.6</ele>
        <time>2021-03-27T17:12:32Z</time>
      </trkpt>
      <trkpt lat="46.17409" lon="6.25784">
        <ele>501.6</ele>
        <time>2021-03-27T17:12:33Z</time>
      </trkpt>
      <trkpt lat="46.17409" lon="6.25784">
        <ele>501.6</ele>
        <time>2021-03-27T17:12:34Z</time>
      </trkpt>
      <trkpt lat="46.17409" lon="6.25784">
        <ele>501.6</ele>
        <time>2021-03-27T17:12:35Z</time>
      </trkpt>
      <trkpt lat="46.17409" lon="6.25784">
        <ele>501.6</ele>
        <time>2021-03-27T17:12:36Z</time>
      </trkpt>
      <trkpt lat="46.17409" lon="6.25784">
        <ele>501.6</ele>
        <time>2021-03-27T17:12:37Z</time>
      </trkpt>
      <trkpt lat="46.17409" lon="6.25784">
        <ele>501.6</ele>
        <time>2021-03-27T17:12:38Z</time>
      </trkpt>
      <trkpt lat="46.17409" lon="6.25784">
        <ele>501.6</ele>
        <time>2021-03-27T17:12:39Z</time>
      </trkpt>
      <trkpt lat="46.17409" lon="6.25784">
        <ele>501.6</ele>
        <time>2021-03-27T17:12:40Z</time>
      </trkpt>
      <trkpt lat="46.17409" lon="6.25784">
        <ele>501.6</ele>
        <time>2021-03-27T17:12:41Z</time>
      </trkpt>
      <trkpt lat="46.17409" lon="6.25784">
        <ele>501.6</ele>
        <time>2021-03-27T17:12:42Z</time>
      </trkpt>
      <trkpt lat="46.17409" lon="6.25784">
        <ele>501.6</ele>
        <time>2021-03-27T17:12:43Z</time>
      </trkpt>
      <trkpt lat="46.17409" lon="6.25784">
        <ele>501.6</ele>
        <time>2021-03-27T17:12:44Z</time>
      </trkpt>
      <trkpt lat="46.17409" lon="6.25784">
        <ele>501.6</ele>
        <time>2021-03-27T17:12:45Z</time>
      </trkpt>
      <trkpt lat="46.17409" lon="6.25784">
        <ele>501.6</ele>
        <time>2021-03-27T17:12:46Z</time>
      </trkpt>
      <trkpt lat="46.17409" lon="6.25784">
        <ele>501.6</ele>
        <time>2021-03-27T17:12:47Z</time>
      </trkpt>
      <trkpt lat="46.17409" lon="6.25784">
        <ele>501.8</ele>
        <time>2021-03-27T17:12:48Z</time>
      </trkpt>
      <trkpt lat="46.17409" lon="6.25784">
        <ele>501.6</ele>
        <time>2021-03-27T17:12:49Z</time>
      </trkpt>
      <trkpt lat="46.17409" lon="6.25784">
        <ele>501.6</ele>
        <time>2021-03-27T17:12:50Z</time>
      </trkpt>
      <trkpt lat="46.17409" lon="6.25784">
        <ele>501.6</ele>
        <time>2021-03-27T17:12:51Z</time>
      </trkpt>
      <trkpt lat="46.17409" lon="6.25784">
        <ele>501.8</ele>
        <time>2021-03-27T17:12:52Z</time>
      </trkpt>
      <trkpt lat="46.17409" lon="6.25784">
        <ele>501.6</ele>
        <time>2021-03-27T17:12:53Z</time>
      </trkpt>
      <trkpt lat="46.17409" lon="6.25784">
        <ele>501.6</ele>
        <time>2021-03-27T17:12:54Z</time>
      </trkpt>
      <trkpt lat="46.17409" lon="6.25784">
        <ele>501.6</ele>
        <time>2021-03-27T17:12:55Z</time>
      </trkpt>
      <trkpt lat="46.17409" lon="6.25784">
        <ele>501.6</ele>
        <time>2021-03-27T17:12:56Z</time>
      </trkpt>
      <trkpt lat="46.17409" lon="6.25784">
        <ele>501.6</ele>
        <time>2021-03-27T17:12:57Z</time>
      </trkpt>
      <trkpt lat="46.17409" lon="6.25784">
        <ele>501.6</ele>
        <time>2021-03-27T17:12:58Z</time>
      </trkpt>
      <trkpt lat="46.17409" lon="6.25784">
        <ele>501.6</ele>
        <time>2021-03-27T17:12:59Z</time>
      </trkpt>
      <trkpt lat="46.17409" lon="6.25784">
        <ele>501.6</ele>
        <time>2021-03-27T17:13:00Z</time>
      </trkpt>
      <trkpt lat="46.17409" lon="6.25784">
        <ele>501.6</ele>
        <time>2021-03-27T17:13:01Z</time>
      </trkpt>
      <trkpt lat="46.17409" lon="6.25784">
        <ele>501.6</ele>
        <time>2021-03-27T17:13:02Z</time>
      </trkpt>
      <trkpt lat="46.17409" lon="6.25784">
        <ele>501.6</ele>
        <time>2021-03-27T17:13:03Z</time>
      </trkpt>
      <trkpt lat="46.17409" lon="6.25784">
        <ele>501.8</ele>
        <time>2021-03-27T17:13:04Z</time>
      </trkpt>
      <trkpt lat="46.17409" lon="6.25784">
        <ele>501.8</ele>
        <time>2021-03-27T17:13:05Z</time>
      </trkpt>
      <trkpt lat="46.17409" lon="6.25784">
        <ele>501.6</ele>
        <time>2021-03-27T17:13:06Z</time>
      </trkpt>
      <trkpt lat="46.17409" lon="6.25784">
        <ele>501.6</ele>
        <time>2021-03-27T17:13:07Z</time>
      </trkpt>
      <trkpt lat="46.17409" lon="6.25784">
        <ele>501.6</ele>
        <time>2021-03-27T17:13:08Z</time>
      </trkpt>
      <trkpt lat="46.17409" lon="6.25784">
        <ele>501.6</ele>
        <time>2021-03-27T17:13:09Z</time>
      </trkpt>
      <trkpt lat="46.17409" lon="6.25784">
        <ele>501.6</ele>
        <time>2021-03-27T17:13:10Z</time>
      </trkpt>
      <trkpt lat="46.17409" lon="6.25784">
        <ele>501.6</ele>
        <time>2021-03-27T17:13:11Z</time>
      </trkpt>
      <trkpt lat="46.17409" lon="6.25784">
        <ele>501.6</ele>
        <time>2021-03-27T17:13:12Z</time>
      </trkpt>
      <trkpt lat="46.17409" lon="6.25784">
        <ele>501.6</ele>
        <time>2021-03-27T17:13:13Z</time>
      </trkpt>
      <trkpt lat="46.17409" lon="6.25784">
        <ele>501.6</ele>
        <time>2021-03-27T17:13:14Z</time>
      </trkpt>
      <trkpt lat="46.17409" lon="6.25784">
        <ele>501.6</ele>
        <time>2021-03-27T17:13:15Z</time>
      </trkpt>
      <trkpt lat="46.17409" lon="6.25784">
        <ele>501.8</ele>
        <time>2021-03-27T17:13:16Z</time>
      </trkpt>
      <trkpt lat="46.17409" lon="6.25784">
        <ele>501.6</ele>
        <time>2021-03-27T17:13:17Z</time>
      </trkpt>
      <trkpt lat="46.17409" lon="6.25784">
        <ele>501.8</ele>
        <time>2021-03-27T17:13:18Z</time>
      </trkpt>
      <trkpt lat="46.17409" lon="6.25784">
        <ele>501.6</ele>
        <time>2021-03-27T17:13:19Z</time>
      </trkpt>
      <trkpt lat="46.17409" lon="6.25784">
        <ele>501.6</ele>
        <time>2021-03-27T17:13:20Z</time>
      </trkpt>
      <trkpt lat="46.17408" lon="6.25783">
        <ele>501.6</ele>
        <time>2021-03-27T17:13:21Z</time>
      </trkpt>
      <trkpt lat="46.17407" lon="6.25782">
        <ele>501.8</ele>
        <time>2021-03-27T17:13:22Z</time>
      </trkpt>
      <trkpt lat="46.17406" lon="6.25781">
        <ele>501.6</ele>
        <time>2021-03-27T17:13:23Z</time>
      </trkpt>
      <trkpt lat="46.17406" lon="6.25779">
        <ele>501.8</ele>
        <time>2021-03-27T17:13:24Z</time>
      </trkpt>
      <trkpt lat="46.17406" lon="6.25776">
        <ele>501.6</ele>
        <time>2021-03-27T17:13:25Z</time>
      </trkpt>
      <trkpt lat="46.17406" lon="6.25774">
        <ele>501.6</ele>
        <time>2021-03-27T17:13:26Z</time>
      </trkpt>
      <trkpt lat="46.17407" lon="6.25772">
        <ele>501.6</ele>
        <time>2021-03-27T17:13:27Z</time>
      </trkpt>
      <trkpt lat="46.17408" lon="6.2577">
        <ele>501.6</ele>
        <time>2021-03-27T17:13:28Z</time>
      </trkpt>
      <trkpt lat="46.17409" lon="6.25768">
        <ele>501.6</ele>
        <time>2021-03-27T17:13:29Z</time>
      </trkpt>
      <trkpt lat="46.17411" lon="6.25767">
        <ele>501.4</ele>
        <time>2021-03-27T17:13:30Z</time>
      </trkpt>
      <trkpt lat="46.17413" lon="6.25767">
        <ele>501.4</ele>
        <time>2021-03-27T17:13:31Z</time>
      </trkpt>
      <trkpt lat="46.17415" lon="6.25769">
        <ele>501.4</ele>
        <time>2021-03-27T17:13:32Z</time>
      </trkpt>
      <trkpt lat="46.17416" lon="6.25771">
        <ele>501.4</ele>
        <time>2021-03-27T17:13:33Z</time>
      </trkpt>
      <trkpt lat="46.17417" lon="6.25774">
        <ele>501.4</ele>
        <time>2021-03-27T17:13:34Z</time>
      </trkpt>
      <trkpt lat="46.17418" lon="6.25776">
        <ele>501.2</ele>
        <time>2021-03-27T17:13:35Z</time>
      </trkpt>
      <trkpt lat="46.17419" lon="6.25779">
        <ele>501.4</ele>
        <time>2021-03-27T17:13:36Z</time>
      </trkpt>
      <trkpt lat="46.1742" lon="6.25782">
        <ele>501.2</ele>
        <time>2021-03-27T17:13:37Z</time>
      </trkpt>
      <trkpt lat="46.1742" lon="6.25785">
        <ele>501.2</ele>
        <time>2021-03-27T17:13:38Z</time>
      </trkpt>
      <trkpt lat="46.17421" lon="6.25788">
        <ele>501.2</ele>
        <time>2021-03-27T17:13:39Z</time>
      </trkpt>
      <trkpt lat="46.17423" lon="6.2579">
        <ele>501.4</ele>
        <time>2021-03-27T17:13:40Z</time>
      </trkpt>
      <trkpt lat="46.17426" lon="6.25791">
        <ele>501.4</ele>
        <time>2021-03-27T17:13:41Z</time>
      </trkpt>
      <trkpt lat="46.17429" lon="6.2579">
        <ele>501.4</ele>
        <time>2021-03-27T17:13:42Z</time>
      </trkpt>
      <trkpt lat="46.17432" lon="6.25789">
        <ele>501.4</ele>
        <time>2021-03-27T17:13:43Z</time>
      </trkpt>
      <trkpt lat="46.17434" lon="6.25786">
        <ele>501.4</ele>
        <time>2021-03-27T17:13:44Z</time>
      </trkpt>
      <trkpt lat="46.17437" lon="6.25782">
        <ele>501.6</ele>
        <time>2021-03-27T17:13:45Z</time>
      </trkpt>
      <trkpt lat="46.1744" lon="6.25779">
        <ele>501.6</ele>
        <time>2021-03-27T17:13:46Z</time>
      </trkpt>
      <trkpt lat="46.17442" lon="6.25775">
        <ele>501.6</ele>
        <time>2021-03-27T17:13:47Z</time>
      </trkpt>
      <trkpt lat="46.17445" lon="6.25771">
        <ele>501.8</ele>
        <time>2021-03-27T17:13:48Z</time>
      </trkpt>
      <trkpt lat="46.17448" lon="6.25767">
        <ele>501.8</ele>
        <time>2021-03-27T17:13:49Z</time>
      </trkpt>
      <trkpt lat="46.17451" lon="6.25763">
        <ele>501.8</ele>
        <time>2021-03-27T17:13:50Z</time>
      </trkpt>
      <trkpt lat="46.17455" lon="6.25759">
        <ele>501.8</ele>
        <time>2021-03-27T17:13:51Z</time>
      </trkpt>
      <trkpt lat="46.17459" lon="6.25755">
        <ele>501.8</ele>
        <time>2021-03-27T17:13:52Z</time>
      </trkpt>
      <trkpt lat="46.17464" lon="6.25751">
        <ele>501.8</ele>
        <time>2021-03-27T17:13:53Z</time>
      </trkpt>
      <trkpt lat="46.17469" lon="6.25747">
        <ele>501.8</ele>
        <time>2021-03-27T17:13:54Z</time>
      </trkpt>
      <trkpt lat="46.17474" lon="6.25743">
        <ele>501.8</ele>
        <time>2021-03-27T17:13:55Z</time>
      </trkpt>
      <trkpt lat="46.17485" lon="6.25732">
        <ele>501.6</ele>
        <time>2021-03-27T17:13:57Z</time>
      </trkpt>
      <trkpt lat="46.17491" lon="6.25727">
        <ele>501.4</ele>
        <time>2021-03-27T17:13:58Z</time>
      </trkpt>
      <trkpt lat="46.17498" lon="6.25721">
        <ele>501.4</ele>
        <time>2021-03-27T17:13:59Z</time>
      </trkpt>
      <trkpt lat="46.17504" lon="6.25715">
        <ele>501.2</ele>
        <time>2021-03-27T17:14:00Z</time>
      </trkpt>
      <trkpt lat="46.17511" lon="6.25709">
        <ele>500.8</ele>
        <time>2021-03-27T17:14:01Z</time>
      </trkpt>
      <trkpt lat="46.17519" lon="6.25703">
        <ele>500.4</ele>
        <time>2021-03-27T17:14:02Z</time>
      </trkpt>
      <trkpt lat="46.17526" lon="6.25697">
        <ele>499.8</ele>
        <time>2021-03-27T17:14:03Z</time>
      </trkpt>
      <trkpt lat="46.17534" lon="6.2569">
        <ele>499.4</ele>
        <time>2021-03-27T17:14:04Z</time>
      </trkpt>
      <trkpt lat="46.17541" lon="6.25683">
        <ele>498.6</ele>
        <time>2021-03-27T17:14:05Z</time>
      </trkpt>
      <trkpt lat="46.17557" lon="6.2567">
        <ele>497.6</ele>
        <time>2021-03-27T17:14:07Z</time>
      </trkpt>
      <trkpt lat="46.17565" lon="6.25664">
        <ele>497.2</ele>
        <time>2021-03-27T17:14:08Z</time>
      </trkpt>
      <trkpt lat="46.17573" lon="6.25659">
        <ele>496.4</ele>
        <time>2021-03-27T17:14:09Z</time>
      </trkpt>
      <trkpt lat="46.17582" lon="6.25654">
        <ele>496</ele>
        <time>2021-03-27T17:14:10Z</time>
      </trkpt>
      <trkpt lat="46.17591" lon="6.25649">
        <ele>495.4</ele>
        <time>2021-03-27T17:14:11Z</time>
      </trkpt>
      <trkpt lat="46.17608" lon="6.2564">
        <ele>494</ele>
        <time>2021-03-27T17:14:13Z</time>
      </trkpt>
      <trkpt lat="46.17616" lon="6.25636">
        <ele>493</ele>
        <time>2021-03-27T17:14:14Z</time>
      </trkpt>
      <trkpt lat="46.17624" lon="6.25632">
        <ele>492.2</ele>
        <time>2021-03-27T17:14:15Z</time>
      </trkpt>
      <trkpt lat="46.17632" lon="6.25628">
        <ele>491.6</ele>
        <time>2021-03-27T17:14:16Z</time>
      </trkpt>
      <trkpt lat="46.1764" lon="6.25623">
        <ele>491.4</ele>
        <time>2021-03-27T17:14:17Z</time>
      </trkpt>
      <trkpt lat="46.17648" lon="6.25619">
        <ele>491</ele>
        <time>2021-03-27T17:14:18Z</time>
      </trkpt>
      <trkpt lat="46.17656" lon="6.25615">
        <ele>490.8</ele>
        <time>2021-03-27T17:14:19Z</time>
      </trkpt>
      <trkpt lat="46.17664" lon="6.25611">
        <ele>490.8</ele>
        <time>2021-03-27T17:14:20Z</time>
      </trkpt>
      <trkpt lat="46.17672" lon="6.25607">
        <ele>490.4</ele>
        <time>2021-03-27T17:14:21Z</time>
      </trkpt>
      <trkpt lat="46.1768" lon="6.25602">
        <ele>490.4</ele>
        <time>2021-03-27T17:14:22Z</time>
      </trkpt>
      <trkpt lat="46.17688" lon="6.25598">
        <ele>489.8</ele>
        <time>2021-03-27T17:14:23Z</time>
      </trkpt>
      <trkpt lat="46.17696" lon="6.25594">
        <ele>489.6</ele>
        <time>2021-03-27T17:14:24Z</time>
      </trkpt>
      <trkpt lat="46.17704" lon="6.25591">
        <ele>489.4</ele>
        <time>2021-03-27T17:14:25Z</time>
      </trkpt>
      <trkpt lat="46.17711" lon="6.25587">
        <ele>489.4</ele>
        <time>2021-03-27T17:14:26Z</time>
      </trkpt>
      <trkpt lat="46.17719" lon="6.25582">
        <ele>489.2</ele>
        <time>2021-03-27T17:14:27Z</time>
      </trkpt>
      <trkpt lat="46.17726" lon="6.25578">
        <ele>489.2</ele>
        <time>2021-03-27T17:14:28Z</time>
      </trkpt>
      <trkpt lat="46.17733" lon="6.25574">
        <ele>489.2</ele>
        <time>2021-03-27T17:14:29Z</time>
      </trkpt>
      <trkpt lat="46.17741" lon="6.2557">
        <ele>489.2</ele>
        <time>2021-03-27T17:14:30Z</time>
      </trkpt>
      <trkpt lat="46.17748" lon="6.25566">
        <ele>489</ele>
        <time>2021-03-27T17:14:31Z</time>
      </trkpt>
      <trkpt lat="46.17756" lon="6.25563">
        <ele>488.8</ele>
        <time>2021-03-27T17:14:32Z</time>
      </trkpt>
      <trkpt lat="46.17763" lon="6.2556">
        <ele>488.4</ele>
        <time>2021-03-27T17:14:33Z</time>
      </trkpt>
      <trkpt lat="46.17771" lon="6.25557">
        <ele>488.4</ele>
        <time>2021-03-27T17:14:34Z</time>
      </trkpt>
      <trkpt lat="46.17778" lon="6.25555">
        <ele>488.2</ele>
        <time>2021-03-27T17:14:35Z</time>
      </trkpt>
      <trkpt lat="46.17786" lon="6.25553">
        <ele>488</ele>
        <time>2021-03-27T17:14:36Z</time>
      </trkpt>
      <trkpt lat="46.17794" lon="6.25552">
        <ele>487.8</ele>
        <time>2021-03-27T17:14:37Z</time>
      </trkpt>
      <trkpt lat="46.17802" lon="6.25551">
        <ele>487.8</ele>
        <time>2021-03-27T17:14:38Z</time>
      </trkpt>
      <trkpt lat="46.17809" lon="6.2555">
        <ele>487.8</ele>
        <time>2021-03-27T17:14:39Z</time>
      </trkpt>
      <trkpt lat="46.17817" lon="6.2555">
        <ele>487.6</ele>
        <time>2021-03-27T17:14:40Z</time>
      </trkpt>
      <trkpt lat="46.17824" lon="6.25549">
        <ele>487.6</ele>
        <time>2021-03-27T17:14:41Z</time>
      </trkpt>
      <trkpt lat="46.17831" lon="6.25548">
        <ele>487.6</ele>
        <time>2021-03-27T17:14:42Z</time>
      </trkpt>
      <trkpt lat="46.17839" lon="6.25549">
        <ele>487.6</ele>
        <time>2021-03-27T17:14:43Z</time>
      </trkpt>
      <trkpt lat="46.17846" lon="6.25549">
        <ele>487.6</ele>
        <time>2021-03-27T17:14:44Z</time>
      </trkpt>
      <trkpt lat="46.17853" lon="6.2555">
        <ele>487.6</ele>
        <time>2021-03-27T17:14:45Z</time>
      </trkpt>
      <trkpt lat="46.17859" lon="6.2555">
        <ele>487.6</ele>
        <time>2021-03-27T17:14:46Z</time>
      </trkpt>
      <trkpt lat="46.17866" lon="6.25552">
        <ele>487.6</ele>
        <time>2021-03-27T17:14:47Z</time>
      </trkpt>
      <trkpt lat="46.17872" lon="6.25553">
        <ele>487.6</ele>
        <time>2021-03-27T17:14:48Z</time>
      </trkpt>
      <trkpt lat="46.17878" lon="6.25554">
        <ele>487.8</ele>
        <time>2021-03-27T17:14:49Z</time>
      </trkpt>
      <trkpt lat="46.17884" lon="6.25555">
        <ele>488</ele>
        <time>2021-03-27T17:14:50Z</time>
      </trkpt>
      <trkpt lat="46.1789" lon="6.25556">
        <ele>488</ele>
        <time>2021-03-27T17:14:51Z</time>
      </trkpt>
      <trkpt lat="46.17896" lon="6.25556">
        <ele>488.2</ele>
        <time>2021-03-27T17:14:52Z</time>
      </trkpt>
      <trkpt lat="46.17902" lon="6.25556">
        <ele>488.4</ele>
        <time>2021-03-27T17:14:53Z</time>
      </trkpt>
      <trkpt lat="46.17907" lon="6.25556">
        <ele>488.4</ele>
        <time>2021-03-27T17:14:54Z</time>
      </trkpt>
      <trkpt lat="46.17913" lon="6.25555">
        <ele>488.6</ele>
        <time>2021-03-27T17:14:55Z</time>
      </trkpt>
      <trkpt lat="46.17918" lon="6.25555">
        <ele>489</ele>
        <time>2021-03-27T17:14:56Z</time>
      </trkpt>
      <trkpt lat="46.17923" lon="6.25554">
        <ele>489.6</ele>
        <time>2021-03-27T17:14:57Z</time>
      </trkpt>
      <trkpt lat="46.17929" lon="6.25553">
        <ele>489.8</ele>
        <time>2021-03-27T17:14:58Z</time>
      </trkpt>
      <trkpt lat="46.17934" lon="6.25552">
        <ele>490.4</ele>
        <time>2021-03-27T17:14:59Z</time>
      </trkpt>
      <trkpt lat="46.17939" lon="6.2555">
        <ele>490.6</ele>
        <time>2021-03-27T17:15:00Z</time>
      </trkpt>
      <trkpt lat="46.17944" lon="6.25549">
        <ele>491</ele>
        <time>2021-03-27T17:15:01Z</time>
      </trkpt>
      <trkpt lat="46.17949" lon="6.25547">
        <ele>491.2</ele>
        <time>2021-03-27T17:15:02Z</time>
      </trkpt>
      <trkpt lat="46.17953" lon="6.25546">
        <ele>491.8</ele>
        <time>2021-03-27T17:15:03Z</time>
      </trkpt>
      <trkpt lat="46.17958" lon="6.25544">
        <ele>492</ele>
        <time>2021-03-27T17:15:04Z</time>
      </trkpt>
      <trkpt lat="46.17963" lon="6.25543">
        <ele>492.4</ele>
        <time>2021-03-27T17:15:05Z</time>
      </trkpt>
      <trkpt lat="46.17969" lon="6.25541">
        <ele>492.6</ele>
        <time>2021-03-27T17:15:06Z</time>
      </trkpt>
      <trkpt lat="46.17974" lon="6.25539">
        <ele>493</ele>
        <time>2021-03-27T17:15:07Z</time>
      </trkpt>
      <trkpt lat="46.17979" lon="6.25536">
        <ele>493.2</ele>
        <time>2021-03-27T17:15:08Z</time>
      </trkpt>
      <trkpt lat="46.17985" lon="6.25533">
        <ele>493.6</ele>
        <time>2021-03-27T17:15:09Z</time>
      </trkpt>
      <trkpt lat="46.1799" lon="6.2553">
        <ele>493.8</ele>
        <time>2021-03-27T17:15:10Z</time>
      </trkpt>
      <trkpt lat="46.17995" lon="6.25527">
        <ele>494.2</ele>
        <time>2021-03-27T17:15:11Z</time>
      </trkpt>
      <trkpt lat="46.18001" lon="6.25524">
        <ele>494.2</ele>
        <time>2021-03-27T17:15:12Z</time>
      </trkpt>
      <trkpt lat="46.18006" lon="6.2552">
        <ele>494.4</ele>
        <time>2021-03-27T17:15:13Z</time>
      </trkpt>
      <trkpt lat="46.18011" lon="6.25516">
        <ele>494.4</ele>
        <time>2021-03-27T17:15:14Z</time>
      </trkpt>
      <trkpt lat="46.18017" lon="6.25512">
        <ele>494.4</ele>
        <time>2021-03-27T17:15:15Z</time>
      </trkpt>
      <trkpt lat="46.18022" lon="6.25507">
        <ele>494.4</ele>
        <time>2021-03-27T17:15:16Z</time>
      </trkpt>
      <trkpt lat="46.18028" lon="6.25502">
        <ele>494.4</ele>
        <time>2021-03-27T17:15:17Z</time>
      </trkpt>
      <trkpt lat="46.18033" lon="6.25497">
        <ele>494.4</ele>
        <time>2021-03-27T17:15:18Z</time>
      </trkpt>
      <trkpt lat="46.18039" lon="6.25491">
        <ele>494.4</ele>
        <time>2021-03-27T17:15:19Z</time>
      </trkpt>
      <trkpt lat="46.18044" lon="6.25484">
        <ele>494.4</ele>
        <time>2021-03-27T17:15:20Z</time>
      </trkpt>
      <trkpt lat="46.18049" lon="6.25476">
        <ele>494.4</ele>
        <time>2021-03-27T17:15:21Z</time>
      </trkpt>
      <trkpt lat="46.18054" lon="6.25468">
        <ele>494.4</ele>
        <time>2021-03-27T17:15:22Z</time>
      </trkpt>
      <trkpt lat="46.18059" lon="6.2546">
        <ele>494</ele>
        <time>2021-03-27T17:15:23Z</time>
      </trkpt>
      <trkpt lat="46.18065" lon="6.25451">
        <ele>494</ele>
        <time>2021-03-27T17:15:24Z</time>
      </trkpt>
      <trkpt lat="46.1807" lon="6.25443">
        <ele>493.8</ele>
        <time>2021-03-27T17:15:25Z</time>
      </trkpt>
      <trkpt lat="46.18077" lon="6.25435">
        <ele>493.2</ele>
        <time>2021-03-27T17:15:26Z</time>
      </trkpt>
      <trkpt lat="46.18084" lon="6.25427">
        <ele>492.8</ele>
        <time>2021-03-27T17:15:27Z</time>
      </trkpt>
      <trkpt lat="46.18091" lon="6.25419">
        <ele>492.6</ele>
        <time>2021-03-27T17:15:28Z</time>
      </trkpt>
      <trkpt lat="46.18098" lon="6.25412">
        <ele>492</ele>
        <time>2021-03-27T17:15:29Z</time>
      </trkpt>
      <trkpt lat="46.18106" lon="6.25406">
        <ele>491.8</ele>
        <time>2021-03-27T17:15:30Z</time>
      </trkpt>
      <trkpt lat="46.18114" lon="6.25401">
        <ele>491.2</ele>
        <time>2021-03-27T17:15:31Z</time>
      </trkpt>
      <trkpt lat="46.18122" lon="6.25397">
        <ele>490.4</ele>
        <time>2021-03-27T17:15:32Z</time>
      </trkpt>
      <trkpt lat="46.1813" lon="6.25392">
        <ele>490.2</ele>
        <time>2021-03-27T17:15:33Z</time>
      </trkpt>
      <trkpt lat="46.18137" lon="6.25387">
        <ele>489.4</ele>
        <time>2021-03-27T17:15:34Z</time>
      </trkpt>
      <trkpt lat="46.18145" lon="6.25382">
        <ele>489.4</ele>
        <time>2021-03-27T17:15:35Z</time>
      </trkpt>
      <trkpt lat="46.18152" lon="6.25377">
        <ele>488.8</ele>
        <time>2021-03-27T17:15:36Z</time>
      </trkpt>
      <trkpt lat="46.18159" lon="6.25372">
        <ele>488</ele>
        <time>2021-03-27T17:15:37Z</time>
      </trkpt>
      <trkpt lat="46.18166" lon="6.25367">
        <ele>487.6</ele>
        <time>2021-03-27T17:15:38Z</time>
      </trkpt>
      <trkpt lat="46.18173" lon="6.25363">
        <ele>487</ele>
        <time>2021-03-27T17:15:39Z</time>
      </trkpt>
      <trkpt lat="46.18181" lon="6.25359">
        <ele>486.8</ele>
        <time>2021-03-27T17:15:40Z</time>
      </trkpt>
      <trkpt lat="46.18188" lon="6.25355">
        <ele>486.6</ele>
        <time>2021-03-27T17:15:41Z</time>
      </trkpt>
      <trkpt lat="46.18195" lon="6.25351">
        <ele>486.4</ele>
        <time>2021-03-27T17:15:42Z</time>
      </trkpt>
      <trkpt lat="46.18202" lon="6.25346">
        <ele>486.4</ele>
        <time>2021-03-27T17:15:43Z</time>
      </trkpt>
      <trkpt lat="46.18209" lon="6.25342">
        <ele>486.4</ele>
        <time>2021-03-27T17:15:44Z</time>
      </trkpt>
      <trkpt lat="46.18217" lon="6.25337">
        <ele>486.4</ele>
        <time>2021-03-27T17:15:45Z</time>
      </trkpt>
      <trkpt lat="46.18224" lon="6.25332">
        <ele>486.2</ele>
        <time>2021-03-27T17:15:46Z</time>
      </trkpt>
      <trkpt lat="46.18231" lon="6.25327">
        <ele>486.2</ele>
        <time>2021-03-27T17:15:47Z</time>
      </trkpt>
      <trkpt lat="46.18239" lon="6.25323">
        <ele>486.2</ele>
        <time>2021-03-27T17:15:48Z</time>
      </trkpt>
      <trkpt lat="46.18246" lon="6.25318">
        <ele>485.8</ele>
        <time>2021-03-27T17:15:49Z</time>
      </trkpt>
      <trkpt lat="46.18253" lon="6.25313">
        <ele>485.8</ele>
        <time>2021-03-27T17:15:50Z</time>
      </trkpt>
      <trkpt lat="46.1826" lon="6.25308">
        <ele>485.6</ele>
        <time>2021-03-27T17:15:51Z</time>
      </trkpt>
      <trkpt lat="46.18268" lon="6.25303">
        <ele>485.4</ele>
        <time>2021-03-27T17:15:52Z</time>
      </trkpt>
      <trkpt lat="46.18275" lon="6.25299">
        <ele>485.4</ele>
        <time>2021-03-27T17:15:53Z</time>
      </trkpt>
      <trkpt lat="46.18282" lon="6.25295">
        <ele>485.2</ele>
        <time>2021-03-27T17:15:54Z</time>
      </trkpt>
      <trkpt lat="46.1829" lon="6.2529">
        <ele>485</ele>
        <time>2021-03-27T17:15:55Z</time>
      </trkpt>
      <trkpt lat="46.18298" lon="6.25285">
        <ele>485</ele>
        <time>2021-03-27T17:15:56Z</time>
      </trkpt>
      <trkpt lat="46.18306" lon="6.25281">
        <ele>484.8</ele>
        <time>2021-03-27T17:15:57Z</time>
      </trkpt>
      <trkpt lat="46.18314" lon="6.25276">
        <ele>484.6</ele>
        <time>2021-03-27T17:15:58Z</time>
      </trkpt>
      <trkpt lat="46.18323" lon="6.25271">
        <ele>484.4</ele>
        <time>2021-03-27T17:15:59Z</time>
      </trkpt>
      <trkpt lat="46.18331" lon="6.25265">
        <ele>484.2</ele>
        <time>2021-03-27T17:16:00Z</time>
      </trkpt>
      <trkpt lat="46.1834" lon="6.2526">
        <ele>484</ele>
        <time>2021-03-27T17:16:01Z</time>
      </trkpt>
      <trkpt lat="46.18349" lon="6.25254">
        <ele>483.8</ele>
        <time>2021-03-27T17:16:02Z</time>
      </trkpt>
      <trkpt lat="46.18357" lon="6.25249">
        <ele>483.4</ele>
        <time>2021-03-27T17:16:03Z</time>
      </trkpt>
      <trkpt lat="46.18366" lon="6.25243">
        <ele>483.4</ele>
        <time>2021-03-27T17:16:04Z</time>
      </trkpt>
      <trkpt lat="46.18375" lon="6.25236">
        <ele>483</ele>
        <time>2021-03-27T17:16:05Z</time>
      </trkpt>
      <trkpt lat="46.18383" lon="6.2523">
        <ele>482.6</ele>
        <time>2021-03-27T17:16:06Z</time>
      </trkpt>
      <trkpt lat="46.18392" lon="6.25224">
        <ele>482</ele>
        <time>2021-03-27T17:16:07Z</time>
      </trkpt>
      <trkpt lat="46.18401" lon="6.25218">
        <ele>481.8</ele>
        <time>2021-03-27T17:16:08Z</time>
      </trkpt>
      <trkpt lat="46.1841" lon="6.25213">
        <ele>481.2</ele>
        <time>2021-03-27T17:16:09Z</time>
      </trkpt>
      <trkpt lat="46.1842" lon="6.25207">
        <ele>480.6</ele>
        <time>2021-03-27T17:16:10Z</time>
      </trkpt>
      <trkpt lat="46.18429" lon="6.25203">
        <ele>480</ele>
        <time>2021-03-27T17:16:11Z</time>
      </trkpt>
      <trkpt lat="46.18438" lon="6.25198">
        <ele>479.6</ele>
        <time>2021-03-27T17:16:12Z</time>
      </trkpt>
      <trkpt lat="46.18448" lon="6.25194">
        <ele>479.2</ele>
        <time>2021-03-27T17:16:13Z</time>
      </trkpt>
      <trkpt lat="46.18457" lon="6.2519">
        <ele>478.4</ele>
        <time>2021-03-27T17:16:14Z</time>
      </trkpt>
      <trkpt lat="46.18466" lon="6.25188">
        <ele>478</ele>
        <time>2021-03-27T17:16:15Z</time>
      </trkpt>
      <trkpt lat="46.18476" lon="6.25185">
        <ele>477.4</ele>
        <time>2021-03-27T17:16:16Z</time>
      </trkpt>
      <trkpt lat="46.18485" lon="6.25183">
        <ele>476.8</ele>
        <time>2021-03-27T17:16:17Z</time>
      </trkpt>
      <trkpt lat="46.18494" lon="6.25181">
        <ele>476.6</ele>
        <time>2021-03-27T17:16:18Z</time>
      </trkpt>
      <trkpt lat="46.18504" lon="6.25179">
        <ele>476.4</ele>
        <time>2021-03-27T17:16:19Z</time>
      </trkpt>
      <trkpt lat="46.18513" lon="6.25177">
        <ele>476.2</ele>
        <time>2021-03-27T17:16:20Z</time>
      </trkpt>
      <trkpt lat="46.18523" lon="6.25175">
        <ele>476</ele>
        <time>2021-03-27T17:16:21Z</time>
      </trkpt>
      <trkpt lat="46.18532" lon="6.25173">
        <ele>475.8</ele>
        <time>2021-03-27T17:16:22Z</time>
      </trkpt>
      <trkpt lat="46.18542" lon="6.25171">
        <ele>475.6</ele>
        <time>2021-03-27T17:16:23Z</time>
      </trkpt>
      <trkpt lat="46.18551" lon="6.25169">
        <ele>475.6</ele>
        <time>2021-03-27T17:16:24Z</time>
      </trkpt>
      <trkpt lat="46.1856" lon="6.25167">
        <ele>475.2</ele>
        <time>2021-03-27T17:16:25Z</time>
      </trkpt>
      <trkpt lat="46.18568" lon="6.25166">
        <ele>475</ele>
        <time>2021-03-27T17:16:26Z</time>
      </trkpt>
      <trkpt lat="46.18574" lon="6.25165">
        <ele>474.8</ele>
        <time>2021-03-27T17:16:27Z</time>
      </trkpt>
      <trkpt lat="46.18579" lon="6.25165">
        <ele>474.6</ele>
        <time>2021-03-27T17:16:28Z</time>
      </trkpt>
      <trkpt lat="46.18584" lon="6.25164">
        <ele>474.6</ele>
        <time>2021-03-27T17:16:29Z</time>
      </trkpt>
      <trkpt lat="46.18589" lon="6.25163">
        <ele>474.4</ele>
        <time>2021-03-27T17:16:30Z</time>
      </trkpt>
      <trkpt lat="46.18594" lon="6.25162">
        <ele>474.4</ele>
        <time>2021-03-27T17:16:31Z</time>
      </trkpt>
      <trkpt lat="46.186" lon="6.2516">
        <ele>474.4</ele>
        <time>2021-03-27T17:16:32Z</time>
      </trkpt>
      <trkpt lat="46.18606" lon="6.25158">
        <ele>474.2</ele>
        <time>2021-03-27T17:16:33Z</time>
      </trkpt>
      <trkpt lat="46.1861" lon="6.25157">
        <ele>474.2</ele>
        <time>2021-03-27T17:16:34Z</time>
      </trkpt>
      <trkpt lat="46.18614" lon="6.25156">
        <ele>474.2</ele>
        <time>2021-03-27T17:16:35Z</time>
      </trkpt>
      <trkpt lat="46.18618" lon="6.25154">
        <ele>474.4</ele>
        <time>2021-03-27T17:16:36Z</time>
      </trkpt>
      <trkpt lat="46.18623" lon="6.25152">
        <ele>474.2</ele>
        <time>2021-03-27T17:16:37Z</time>
      </trkpt>
      <trkpt lat="46.18628" lon="6.25151">
        <ele>474</ele>
        <time>2021-03-27T17:16:38Z</time>
      </trkpt>
      <trkpt lat="46.18634" lon="6.25148">
        <ele>474</ele>
        <time>2021-03-27T17:16:39Z</time>
      </trkpt>
      <trkpt lat="46.1864" lon="6.25146">
        <ele>473.8</ele>
        <time>2021-03-27T17:16:40Z</time>
      </trkpt>
      <trkpt lat="46.18646" lon="6.25143">
        <ele>474</ele>
        <time>2021-03-27T17:16:41Z</time>
      </trkpt>
      <trkpt lat="46.18653" lon="6.25141">
        <ele>473.8</ele>
        <time>2021-03-27T17:16:42Z</time>
      </trkpt>
      <trkpt lat="46.18659" lon="6.25138">
        <ele>474</ele>
        <time>2021-03-27T17:16:43Z</time>
      </trkpt>
      <trkpt lat="46.18666" lon="6.25135">
        <ele>473.8</ele>
        <time>2021-03-27T17:16:44Z</time>
      </trkpt>
      <trkpt lat="46.18673" lon="6.25133">
        <ele>473.8</ele>
        <time>2021-03-27T17:16:45Z</time>
      </trkpt>
      <trkpt lat="46.1868" lon="6.25131">
        <ele>473.2</ele>
        <time>2021-03-27T17:16:46Z</time>
      </trkpt>
      <trkpt lat="46.18687" lon="6.25128">
        <ele>473.2</ele>
        <time>2021-03-27T17:16:47Z</time>
      </trkpt>
      <trkpt lat="46.18693" lon="6.25124">
        <ele>473</ele>
        <time>2021-03-27T17:16:48Z</time>
      </trkpt>
      <trkpt lat="46.187" lon="6.2512">
        <ele>472.6</ele>
        <time>2021-03-27T17:16:49Z</time>
      </trkpt>
      <trkpt lat="46.18708" lon="6.25117">
        <ele>472.2</ele>
        <time>2021-03-27T17:16:50Z</time>
      </trkpt>
      <trkpt lat="46.18715" lon="6.25114">
        <ele>472</ele>
        <time>2021-03-27T17:16:51Z</time>
      </trkpt>
      <trkpt lat="46.18722" lon="6.25111">
        <ele>471.8</ele>
        <time>2021-03-27T17:16:52Z</time>
      </trkpt>
      <trkpt lat="46.1873" lon="6.25108">
        <ele>471.6</ele>
        <time>2021-03-27T17:16:53Z</time>
      </trkpt>
      <trkpt lat="46.18738" lon="6.25104">
        <ele>471.6</ele>
        <time>2021-03-27T17:16:54Z</time>
      </trkpt>
      <trkpt lat="46.18746" lon="6.25101">
        <ele>471.4</ele>
        <time>2021-03-27T17:16:55Z</time>
      </trkpt>
      <trkpt lat="46.18754" lon="6.25098">
        <ele>471.4</ele>
        <time>2021-03-27T17:16:56Z</time>
      </trkpt>
      <trkpt lat="46.18762" lon="6.25095">
        <ele>471</ele>
        <time>2021-03-27T17:16:57Z</time>
      </trkpt>
      <trkpt lat="46.1877" lon="6.25092">
        <ele>470.8</ele>
        <time>2021-03-27T17:16:58Z</time>
      </trkpt>
      <trkpt lat="46.18779" lon="6.2509">
        <ele>470.6</ele>
        <time>2021-03-27T17:16:59Z</time>
      </trkpt>
      <trkpt lat="46.18787" lon="6.25088">
        <ele>470.2</ele>
        <time>2021-03-27T17:17:00Z</time>
      </trkpt>
      <trkpt lat="46.18795" lon="6.25086">
        <ele>470.2</ele>
        <time>2021-03-27T17:17:01Z</time>
      </trkpt>
      <trkpt lat="46.18803" lon="6.25085">
        <ele>469.8</ele>
        <time>2021-03-27T17:17:02Z</time>
      </trkpt>
      <trkpt lat="46.18811" lon="6.25085">
        <ele>469.6</ele>
        <time>2021-03-27T17:17:03Z</time>
      </trkpt>
      <trkpt lat="46.18819" lon="6.25085">
        <ele>469.6</ele>
        <time>2021-03-27T17:17:04Z</time>
      </trkpt>
      <trkpt lat="46.18828" lon="6.25085">
        <ele>469.2</ele>
        <time>2021-03-27T17:17:05Z</time>
      </trkpt>
      <trkpt lat="46.18836" lon="6.25085">
        <ele>469</ele>
        <time>2021-03-27T17:17:06Z</time>
      </trkpt>
      <trkpt lat="46.18845" lon="6.25085">
        <ele>468.8</ele>
        <time>2021-03-27T17:17:07Z</time>
      </trkpt>
      <trkpt lat="46.18853" lon="6.25085">
        <ele>468.4</ele>
        <time>2021-03-27T17:17:08Z</time>
      </trkpt>
      <trkpt lat="46.18862" lon="6.25085">
        <ele>468.2</ele>
        <time>2021-03-27T17:17:09Z</time>
      </trkpt>
      <trkpt lat="46.18871" lon="6.25085">
        <ele>468</ele>
        <time>2021-03-27T17:17:10Z</time>
      </trkpt>
      <trkpt lat="46.1888" lon="6.25085">
        <ele>468</ele>
        <time>2021-03-27T17:17:11Z</time>
      </trkpt>
      <trkpt lat="46.18888" lon="6.25085">
        <ele>467.6</ele>
        <time>2021-03-27T17:17:12Z</time>
      </trkpt>
      <trkpt lat="46.18896" lon="6.25084">
        <ele>467.4</ele>
        <time>2021-03-27T17:17:13Z</time>
      </trkpt>
      <trkpt lat="46.18905" lon="6.25084">
        <ele>467.4</ele>
        <time>2021-03-27T17:17:14Z</time>
      </trkpt>
      <trkpt lat="46.18913" lon="6.25083">
        <ele>467.2</ele>
        <time>2021-03-27T17:17:15Z</time>
      </trkpt>
      <trkpt lat="46.18922" lon="6.25083">
        <ele>467</ele>
        <time>2021-03-27T17:17:16Z</time>
      </trkpt>
      <trkpt lat="46.18931" lon="6.25082">
        <ele>466.6</ele>
        <time>2021-03-27T17:17:17Z</time>
      </trkpt>
      <trkpt lat="46.18939" lon="6.2508">
        <ele>466.4</ele>
        <time>2021-03-27T17:17:18Z</time>
      </trkpt>
      <trkpt lat="46.18948" lon="6.25078">
        <ele>466</ele>
        <time>2021-03-27T17:17:19Z</time>
      </trkpt>
      <trkpt lat="46.18956" lon="6.25076">
        <ele>466</ele>
        <time>2021-03-27T17:17:20Z</time>
      </trkpt>
      <trkpt lat="46.18965" lon="6.25075">
        <ele>465.8</ele>
        <time>2021-03-27T17:17:21Z</time>
      </trkpt>
      <trkpt lat="46.18974" lon="6.25075">
        <ele>465.6</ele>
        <time>2021-03-27T17:17:22Z</time>
      </trkpt>
      <trkpt lat="46.18983" lon="6.25076">
        <ele>465.6</ele>
        <time>2021-03-27T17:17:23Z</time>
      </trkpt>
      <trkpt lat="46.18991" lon="6.25078">
        <ele>465.4</ele>
        <time>2021-03-27T17:17:24Z</time>
      </trkpt>
      <trkpt lat="46.19" lon="6.25082">
        <ele>465.4</ele>
        <time>2021-03-27T17:17:25Z</time>
      </trkpt>
      <trkpt lat="46.19009" lon="6.25085">
        <ele>465</ele>
        <time>2021-03-27T17:17:26Z</time>
      </trkpt>
      <trkpt lat="46.19017" lon="6.2509">
        <ele>464.8</ele>
        <time>2021-03-27T17:17:27Z</time>
      </trkpt>
      <trkpt lat="46.19024" lon="6.25096">
        <ele>464.4</ele>
        <time>2021-03-27T17:17:28Z</time>
      </trkpt>
      <trkpt lat="46.1903" lon="6.25102">
        <ele>464.2</ele>
        <time>2021-03-27T17:17:29Z</time>
      </trkpt>
      <trkpt lat="46.19038" lon="6.25106">
        <ele>463.8</ele>
        <time>2021-03-27T17:17:30Z</time>
      </trkpt>
      <trkpt lat="46.19046" lon="6.25108">
        <ele>463.4</ele>
        <time>2021-03-27T17:17:31Z</time>
      </trkpt>
      <trkpt lat="46.19053" lon="6.25111">
        <ele>463</ele>
        <time>2021-03-27T17:17:32Z</time>
      </trkpt>
      <trkpt lat="46.19061" lon="6.25113">
        <ele>462.6</ele>
        <time>2021-03-27T17:17:33Z</time>
      </trkpt>
      <trkpt lat="46.19068" lon="6.25116">
        <ele>462.4</ele>
        <time>2021-03-27T17:17:34Z</time>
      </trkpt>
      <trkpt lat="46.19075" lon="6.25119">
        <ele>462.2</ele>
        <time>2021-03-27T17:17:35Z</time>
      </trkpt>
      <trkpt lat="46.19082" lon="6.2512">
        <ele>462.2</ele>
        <time>2021-03-27T17:17:36Z</time>
      </trkpt>
      <trkpt lat="46.19089" lon="6.2512">
        <ele>462.2</ele>
        <time>2021-03-27T17:17:37Z</time>
      </trkpt>
      <trkpt lat="46.19095" lon="6.2512">
        <ele>462</ele>
        <time>2021-03-27T17:17:38Z</time>
      </trkpt>
      <trkpt lat="46.191" lon="6.25118">
        <ele>462</ele>
        <time>2021-03-27T17:17:39Z</time>
      </trkpt>
      <trkpt lat="46.19105" lon="6.25117">
        <ele>462.2</ele>
        <time>2021-03-27T17:17:40Z</time>
      </trkpt>
      <trkpt lat="46.19109" lon="6.25115">
        <ele>462.2</ele>
        <time>2021-03-27T17:17:41Z</time>
      </trkpt>
      <trkpt lat="46.19114" lon="6.25113">
        <ele>462</ele>
        <time>2021-03-27T17:17:42Z</time>
      </trkpt>
      <trkpt lat="46.19117" lon="6.25111">
        <ele>462</ele>
        <time>2021-03-27T17:17:43Z</time>
      </trkpt>
      <trkpt lat="46.19121" lon="6.25109">
        <ele>462</ele>
        <time>2021-03-27T17:17:44Z</time>
      </trkpt>
      <trkpt lat="46.19124" lon="6.25108">
        <ele>462.2</ele>
        <time>2021-03-27T17:17:45Z</time>
      </trkpt>
      <trkpt lat="46.19126" lon="6.25107">
        <ele>462</ele>
        <time>2021-03-27T17:17:46Z</time>
      </trkpt>
      <trkpt lat="46.19128" lon="6.25106">
        <ele>462</ele>
        <time>2021-03-27T17:17:47Z</time>
      </trkpt>
      <trkpt lat="46.19129" lon="6.25106">
        <ele>462</ele>
        <time>2021-03-27T17:17:48Z</time>
      </trkpt>
      <trkpt lat="46.19131" lon="6.25105">
        <ele>462.4</ele>
        <time>2021-03-27T17:17:49Z</time>
      </trkpt>
      <trkpt lat="46.19134" lon="6.25106">
        <ele>463.2</ele>
        <time>2021-03-27T17:17:50Z</time>
      </trkpt>
      <trkpt lat="46.19137" lon="6.25108">
        <ele>463.6</ele>
        <time>2021-03-27T17:17:51Z</time>
      </trkpt>
      <trkpt lat="46.19142" lon="6.25111">
        <ele>464</ele>
        <time>2021-03-27T17:17:52Z</time>
      </trkpt>
      <trkpt lat="46.19146" lon="6.25113">
        <ele>464.2</ele>
        <time>2021-03-27T17:17:53Z</time>
      </trkpt>
      <trkpt lat="46.19152" lon="6.25114">
        <ele>464.6</ele>
        <time>2021-03-27T17:17:54Z</time>
      </trkpt>
      <trkpt lat="46.19157" lon="6.25112">
        <ele>465</ele>
        <time>2021-03-27T17:17:55Z</time>
      </trkpt>
      <trkpt lat="46.19163" lon="6.25109">
        <ele>465.4</ele>
        <time>2021-03-27T17:17:56Z</time>
      </trkpt>
      <trkpt lat="46.19168" lon="6.25104">
        <ele>465.4</ele>
        <time>2021-03-27T17:17:57Z</time>
      </trkpt>
      <trkpt lat="46.19172" lon="6.25098">
        <ele>465.4</ele>
        <time>2021-03-27T17:17:58Z</time>
      </trkpt>
      <trkpt lat="46.19177" lon="6.25091">
        <ele>465.6</ele>
        <time>2021-03-27T17:17:59Z</time>
      </trkpt>
      <trkpt lat="46.19182" lon="6.25087">
        <ele>465.4</ele>
        <time>2021-03-27T17:18:00Z</time>
      </trkpt>
      <trkpt lat="46.19188" lon="6.25086">
        <ele>465.6</ele>
        <time>2021-03-27T17:18:01Z</time>
      </trkpt>
      <trkpt lat="46.19193" lon="6.25089">
        <ele>465.4</ele>
        <time>2021-03-27T17:18:02Z</time>
      </trkpt>
      <trkpt lat="46.19198" lon="6.25095">
        <ele>465.4</ele>
        <time>2021-03-27T17:18:03Z</time>
      </trkpt>
      <trkpt lat="46.19202" lon="6.25102">
        <ele>465.6</ele>
        <time>2021-03-27T17:18:04Z</time>
      </trkpt>
      <trkpt lat="46.19207" lon="6.25109">
        <ele>465.4</ele>
        <time>2021-03-27T17:18:05Z</time>
      </trkpt>
      <trkpt lat="46.19213" lon="6.25114">
        <ele>465</ele>
        <time>2021-03-27T17:18:06Z</time>
      </trkpt>
      <trkpt lat="46.19219" lon="6.25117">
        <ele>464.4</ele>
        <time>2021-03-27T17:18:07Z</time>
      </trkpt>
      <trkpt lat="46.19225" lon="6.25119">
        <ele>464</ele>
        <time>2021-03-27T17:18:08Z</time>
      </trkpt>
      <trkpt lat="46.19232" lon="6.25119">
        <ele>463.6</ele>
        <time>2021-03-27T17:18:09Z</time>
      </trkpt>
      <trkpt lat="46.19239" lon="6.25118">
        <ele>463</ele>
        <time>2021-03-27T17:18:10Z</time>
      </trkpt>
      <trkpt lat="46.19246" lon="6.25117">
        <ele>463</ele>
        <time>2021-03-27T17:18:11Z</time>
      </trkpt>
      <trkpt lat="46.19252" lon="6.25117">
        <ele>462.8</ele>
        <time>2021-03-27T17:18:12Z</time>
      </trkpt>
      <trkpt lat="46.19259" lon="6.25116">
        <ele>462.6</ele>
        <time>2021-03-27T17:18:13Z</time>
      </trkpt>
      <trkpt lat="46.19265" lon="6.25115">
        <ele>462.4</ele>
        <time>2021-03-27T17:18:14Z</time>
      </trkpt>
      <trkpt lat="46.1927" lon="6.25114">
        <ele>462.2</ele>
        <time>2021-03-27T17:18:15Z</time>
      </trkpt>
      <trkpt lat="46.19274" lon="6.25114">
        <ele>461.8</ele>
        <time>2021-03-27T17:18:16Z</time>
      </trkpt>
      <trkpt lat="46.19278" lon="6.25112">
        <ele>461.8</ele>
        <time>2021-03-27T17:18:17Z</time>
      </trkpt>
      <trkpt lat="46.1928" lon="6.2511">
        <ele>461.4</ele>
        <time>2021-03-27T17:18:18Z</time>
      </trkpt>
      <trkpt lat="46.19281" lon="6.25107">
        <ele>461.2</ele>
        <time>2021-03-27T17:18:19Z</time>
      </trkpt>
      <trkpt lat="46.19281" lon="6.25103">
        <ele>461.2</ele>
        <time>2021-03-27T17:18:20Z</time>
      </trkpt>
      <trkpt lat="46.19281" lon="6.25101">
        <ele>461.2</ele>
        <time>2021-03-27T17:18:21Z</time>
      </trkpt>
      <trkpt lat="46.19281" lon="6.251">
        <ele>461</ele>
        <time>2021-03-27T17:18:22Z</time>
      </trkpt>
      <trkpt lat="46.19281" lon="6.251">
        <ele>461.2</ele>
        <time>2021-03-27T17:18:23Z</time>
      </trkpt>
      <trkpt lat="46.19281" lon="6.251">
        <ele>461</ele>
        <time>2021-03-27T17:18:24Z</time>
      </trkpt>
      <trkpt lat="46.19281" lon="6.251">
        <ele>461</ele>
        <time>2021-03-27T17:18:25Z</time>
      </trkpt>
      <trkpt lat="46.19281" lon="6.25101">
        <ele>461</ele>
        <time>2021-03-27T17:18:26Z</time>
      </trkpt>
      <trkpt lat="46.19281" lon="6.25101">
        <ele>461</ele>
        <time>2021-03-27T17:18:27Z</time>
      </trkpt>
      <trkpt lat="46.19281" lon="6.25101">
        <ele>461</ele>
        <time>2021-03-27T17:18:28Z</time>
      </trkpt>
      <trkpt lat="46.19282" lon="6.25101">
        <ele>461.2</ele>
        <time>2021-03-27T17:18:29Z</time>
      </trkpt>
      <trkpt lat="46.19282" lon="6.25101">
        <ele>461.2</ele>
        <time>2021-03-27T17:18:30Z</time>
      </trkpt>
      <trkpt lat="46.19282" lon="6.25101">
        <ele>461.4</ele>
        <time>2021-03-27T17:18:31Z</time>
      </trkpt>
      <trkpt lat="46.19282" lon="6.25101">
        <ele>461.6</ele>
        <time>2021-03-27T17:18:32Z</time>
      </trkpt>
      <trkpt lat="46.19282" lon="6.25101">
        <ele>461.6</ele>
        <time>2021-03-27T17:18:33Z</time>
      </trkpt>
      <trkpt lat="46.19282" lon="6.25101">
        <ele>461.4</ele>
        <time>2021-03-27T17:18:34Z</time>
      </trkpt>
      <trkpt lat="46.19282" lon="6.25101">
        <ele>461.6</ele>
        <time>2021-03-27T17:18:35Z</time>
      </trkpt>
      <trkpt lat="46.19282" lon="6.25101">
        <ele>461.6</ele>
        <time>2021-03-27T17:18:36Z</time>
      </trkpt>
      <trkpt lat="46.19282" lon="6.251">
        <ele>461.6</ele>
        <time>2021-03-27T17:18:37Z</time>
      </trkpt>
      <trkpt lat="46.19282" lon="6.251">
        <ele>461.6</ele>
        <time>2021-03-27T17:18:38Z</time>
      </trkpt>
      <trkpt lat="46.19283" lon="6.25098">
        <ele>461.8</ele>
        <time>2021-03-27T17:18:39Z</time>
      </trkpt>
      <trkpt lat="46.19283" lon="6.25096">
        <ele>461.6</ele>
        <time>2021-03-27T17:18:40Z</time>
      </trkpt>
      <trkpt lat="46.19283" lon="6.25094">
        <ele>461.6</ele>
        <time>2021-03-27T17:18:41Z</time>
      </trkpt>
      <trkpt lat="46.19283" lon="6.25092">
        <ele>461.6</ele>
        <time>2021-03-27T17:18:42Z</time>
      </trkpt>
      <trkpt lat="46.19283" lon="6.2509">
        <ele>461.6</ele>
        <time>2021-03-27T17:18:43Z</time>
      </trkpt>
      <trkpt lat="46.19284" lon="6.25087">
        <ele>461.6</ele>
        <time>2021-03-27T17:18:44Z</time>
      </trkpt>
      <trkpt lat="46.19284" lon="6.25083">
        <ele>461.8</ele>
        <time>2021-03-27T17:18:45Z</time>
      </trkpt>
      <trkpt lat="46.19285" lon="6.25078">
        <ele>461.6</ele>
        <time>2021-03-27T17:18:46Z</time>
      </trkpt>
      <trkpt lat="46.19286" lon="6.25074">
        <ele>461.6</ele>
        <time>2021-03-27T17:18:47Z</time>
      </trkpt>
      <trkpt lat="46.19287" lon="6.25069">
        <ele>461.6</ele>
        <time>2021-03-27T17:18:48Z</time>
      </trkpt>
      <trkpt lat="46.19287" lon="6.25064">
        <ele>461.4</ele>
        <time>2021-03-27T17:18:49Z</time>
      </trkpt>
      <trkpt lat="46.19288" lon="6.25058">
        <ele>461.4</ele>
        <time>2021-03-27T17:18:50Z</time>
      </trkpt>
      <trkpt lat="46.19289" lon="6.25052">
        <ele>461.4</ele>
        <time>2021-03-27T17:18:51Z</time>
      </trkpt>
      <trkpt lat="46.1929" lon="6.25046">
        <ele>461.2</ele>
        <time>2021-03-27T17:18:52Z</time>
      </trkpt>
      <trkpt lat="46.19291" lon="6.25041">
        <ele>461.2</ele>
        <time>2021-03-27T17:18:53Z</time>
      </trkpt>
      <trkpt lat="46.19292" lon="6.25035">
        <ele>461</ele>
        <time>2021-03-27T17:18:54Z</time>
      </trkpt>
      <trkpt lat="46.19293" lon="6.2503">
        <ele>461</ele>
        <time>2021-03-27T17:18:55Z</time>
      </trkpt>
      <trkpt lat="46.19294" lon="6.25025">
        <ele>460.8</ele>
        <time>2021-03-27T17:18:56Z</time>
      </trkpt>
      <trkpt lat="46.19294" lon="6.25022">
        <ele>460.6</ele>
        <time>2021-03-27T17:18:57Z</time>
      </trkpt>
      <trkpt lat="46.19295" lon="6.2502">
        <ele>460.4</ele>
        <time>2021-03-27T17:18:58Z</time>
      </trkpt>
      <trkpt lat="46.19296" lon="6.25021">
        <ele>460.2</ele>
        <time>2021-03-27T17:18:59Z</time>
      </trkpt>
      <trkpt lat="46.19297" lon="6.25021">
        <ele>460</ele>
        <time>2021-03-27T17:19:00Z</time>
      </trkpt>
      <trkpt lat="46.19297" lon="6.2502">
        <ele>459.6</ele>
        <time>2021-03-27T17:19:01Z</time>
      </trkpt>
      <trkpt lat="46.19298" lon="6.2502">
        <ele>459.6</ele>
        <time>2021-03-27T17:19:02Z</time>
      </trkpt>
      <trkpt lat="46.19298" lon="6.2502">
        <ele>459.8</ele>
        <time>2021-03-27T17:19:03Z</time>
      </trkpt>
      <trkpt lat="46.19298" lon="6.2502">
        <ele>459.6</ele>
        <time>2021-03-27T17:19:04Z</time>
      </trkpt>
      <trkpt lat="46.19298" lon="6.25021">
        <ele>459.4</ele>
        <time>2021-03-27T17:19:05Z</time>
      </trkpt>
      <trkpt lat="46.19298" lon="6.25021">
        <ele>459.4</ele>
        <time>2021-03-27T17:19:06Z</time>
      </trkpt>
      <trkpt lat="46.19298" lon="6.25021">
        <ele>459.2</ele>
        <time>2021-03-27T17:19:07Z</time>
      </trkpt>
      <trkpt lat="46.19298" lon="6.25021">
        <ele>459.4</ele>
        <time>2021-03-27T17:19:08Z</time>
      </trkpt>
      <trkpt lat="46.19298" lon="6.25021">
        <ele>459.4</ele>
        <time>2021-03-27T17:19:09Z</time>
      </trkpt>
      <trkpt lat="46.19298" lon="6.25021">
        <ele>459.4</ele>
        <time>2021-03-27T17:19:10Z</time>
      </trkpt>
      <trkpt lat="46.19298" lon="6.25021">
        <ele>459.4</ele>
        <time>2021-03-27T17:19:11Z</time>
      </trkpt>
      <trkpt lat="46.19298" lon="6.25022">
        <ele>459.2</ele>
        <time>2021-03-27T17:19:12Z</time>
      </trkpt>
    </trkseg>
  </trk>
</gpx>